<?xml version="1.0" encoding="UTF-8" standalone="no" ?>
<gpx xmlns="http://www.topografix.com/GPX/1/1" xmlns:xsi="http://www.w3.org/2001/XMLSchema-instance" xsi:schemaLocation="http://www.topografix.com/GPX/1/1 http://www.topografix.com/GPX/1/1/gpx.xsd" version="1.1" creator="VisuGPX - https://www.visugpx.com">
  <metadata>
    <name>VTT Gourdon</name>
    <desc><![CDATA[bois de gourdon en partant de la maison]]></desc>
  </metadata>
  <trk>
    <name><![CDATA[2011-11-24 12:32]]></name>
    <desc><![CDATA[]]></desc>
    <trkseg>
      <trkpt lat="43.6774" lon="7.03493">
        <ele>271.6</ele>
        <time>2011-11-24T11:32:40Z</time>
      </trkpt>
      <trkpt lat="43.67739" lon="7.035">
        <ele>274.6</ele>
        <time>2011-11-24T11:32:46Z</time>
      </trkpt>
      <trkpt lat="43.67744" lon="7.035">
        <ele>273.4</ele>
        <time>2011-11-24T11:32:51Z</time>
      </trkpt>
      <trkpt lat="43.67747" lon="7.03506">
        <ele>274.3</ele>
        <time>2011-11-24T11:32:53Z</time>
      </trkpt>
      <trkpt lat="43.67751" lon="7.03512">
        <ele>274.9</ele>
        <time>2011-11-24T11:32:56Z</time>
      </trkpt>
      <trkpt lat="43.67755" lon="7.03515">
        <ele>273.5</ele>
        <time>2011-11-24T11:33:02Z</time>
      </trkpt>
      <trkpt lat="43.67751" lon="7.03511">
        <ele>273</ele>
        <time>2011-11-24T11:33:07Z</time>
      </trkpt>
      <trkpt lat="43.67748" lon="7.0352">
        <ele>276.9</ele>
        <time>2011-11-24T11:33:09Z</time>
      </trkpt>
      <trkpt lat="43.67748" lon="7.03527">
        <ele>276.4</ele>
        <time>2011-11-24T11:33:12Z</time>
      </trkpt>
      <trkpt lat="43.67752" lon="7.03532">
        <ele>276.7</ele>
        <time>2011-11-24T11:33:16Z</time>
      </trkpt>
      <trkpt lat="43.67756" lon="7.03535">
        <ele>275.3</ele>
        <time>2011-11-24T11:33:18Z</time>
      </trkpt>
      <trkpt lat="43.67761" lon="7.03533">
        <ele>276.5</ele>
        <time>2011-11-24T11:33:20Z</time>
      </trkpt>
      <trkpt lat="43.67766" lon="7.03532">
        <ele>276.7</ele>
        <time>2011-11-24T11:33:22Z</time>
      </trkpt>
      <trkpt lat="43.67772" lon="7.03531">
        <ele>276.7</ele>
        <time>2011-11-24T11:33:24Z</time>
      </trkpt>
      <trkpt lat="43.67779" lon="7.03527">
        <ele>279.5</ele>
        <time>2011-11-24T11:33:26Z</time>
      </trkpt>
      <trkpt lat="43.67787" lon="7.03524">
        <ele>280.8</ele>
        <time>2011-11-24T11:33:28Z</time>
      </trkpt>
      <trkpt lat="43.67797" lon="7.03523">
        <ele>279.6</ele>
        <time>2011-11-24T11:33:30Z</time>
      </trkpt>
      <trkpt lat="43.67801" lon="7.03522">
        <ele>280.7</ele>
        <time>2011-11-24T11:33:31Z</time>
      </trkpt>
      <trkpt lat="43.67806" lon="7.03521">
        <ele>280.9</ele>
        <time>2011-11-24T11:33:32Z</time>
      </trkpt>
      <trkpt lat="43.67815" lon="7.03519">
        <ele>281.5</ele>
        <time>2011-11-24T11:33:34Z</time>
      </trkpt>
      <trkpt lat="43.6782" lon="7.03519">
        <ele>281.9</ele>
        <time>2011-11-24T11:33:35Z</time>
      </trkpt>
      <trkpt lat="43.67825" lon="7.03516">
        <ele>281.7</ele>
        <time>2011-11-24T11:33:36Z</time>
      </trkpt>
      <trkpt lat="43.6783" lon="7.03515">
        <ele>282.1</ele>
        <time>2011-11-24T11:33:37Z</time>
      </trkpt>
      <trkpt lat="43.67835" lon="7.03514">
        <ele>282.1</ele>
        <time>2011-11-24T11:33:38Z</time>
      </trkpt>
      <trkpt lat="43.67841" lon="7.03513">
        <ele>282.2</ele>
        <time>2011-11-24T11:33:39Z</time>
      </trkpt>
      <trkpt lat="43.67846" lon="7.03511">
        <ele>282.4</ele>
        <time>2011-11-24T11:33:40Z</time>
      </trkpt>
      <trkpt lat="43.67852" lon="7.0351">
        <ele>282.3</ele>
        <time>2011-11-24T11:33:41Z</time>
      </trkpt>
      <trkpt lat="43.67858" lon="7.03508">
        <ele>281.8</ele>
        <time>2011-11-24T11:33:42Z</time>
      </trkpt>
      <trkpt lat="43.67864" lon="7.03506">
        <ele>281.5</ele>
        <time>2011-11-24T11:33:43Z</time>
      </trkpt>
      <trkpt lat="43.6787" lon="7.03505">
        <ele>281.7</ele>
        <time>2011-11-24T11:33:44Z</time>
      </trkpt>
      <trkpt lat="43.67876" lon="7.03504">
        <ele>281.3</ele>
        <time>2011-11-24T11:33:45Z</time>
      </trkpt>
      <trkpt lat="43.67882" lon="7.03502">
        <ele>282</ele>
        <time>2011-11-24T11:33:46Z</time>
      </trkpt>
      <trkpt lat="43.67886" lon="7.03503">
        <ele>283</ele>
        <time>2011-11-24T11:33:47Z</time>
      </trkpt>
      <trkpt lat="43.67895" lon="7.03499">
        <ele>282.1</ele>
        <time>2011-11-24T11:33:48Z</time>
      </trkpt>
      <trkpt lat="43.67902" lon="7.03497">
        <ele>281.2</ele>
        <time>2011-11-24T11:33:49Z</time>
      </trkpt>
      <trkpt lat="43.67911" lon="7.03492">
        <ele>280.6</ele>
        <time>2011-11-24T11:33:50Z</time>
      </trkpt>
      <trkpt lat="43.67919" lon="7.03488">
        <ele>279.7</ele>
        <time>2011-11-24T11:33:51Z</time>
      </trkpt>
      <trkpt lat="43.67927" lon="7.03485">
        <ele>279.4</ele>
        <time>2011-11-24T11:33:52Z</time>
      </trkpt>
      <trkpt lat="43.67934" lon="7.03481">
        <ele>279.2</ele>
        <time>2011-11-24T11:33:53Z</time>
      </trkpt>
      <trkpt lat="43.67942" lon="7.0348">
        <ele>279.2</ele>
        <time>2011-11-24T11:33:54Z</time>
      </trkpt>
      <trkpt lat="43.67948" lon="7.0348">
        <ele>279.2</ele>
        <time>2011-11-24T11:33:55Z</time>
      </trkpt>
      <trkpt lat="43.67954" lon="7.03479">
        <ele>278.8</ele>
        <time>2011-11-24T11:33:56Z</time>
      </trkpt>
      <trkpt lat="43.67962" lon="7.03483">
        <ele>279.1</ele>
        <time>2011-11-24T11:33:58Z</time>
      </trkpt>
      <trkpt lat="43.67967" lon="7.03482">
        <ele>279</ele>
        <time>2011-11-24T11:33:59Z</time>
      </trkpt>
      <trkpt lat="43.67975" lon="7.0348">
        <ele>278.4</ele>
        <time>2011-11-24T11:34:01Z</time>
      </trkpt>
      <trkpt lat="43.67982" lon="7.03479">
        <ele>278.5</ele>
        <time>2011-11-24T11:34:03Z</time>
      </trkpt>
      <trkpt lat="43.67988" lon="7.03478">
        <ele>278.8</ele>
        <time>2011-11-24T11:34:05Z</time>
      </trkpt>
      <trkpt lat="43.67993" lon="7.03479">
        <ele>277.7</ele>
        <time>2011-11-24T11:34:35Z</time>
      </trkpt>
      <trkpt lat="43.68003" lon="7.03475">
        <ele>277.6</ele>
        <time>2011-11-24T11:34:37Z</time>
      </trkpt>
      <trkpt lat="43.6801" lon="7.03471">
        <ele>277.5</ele>
        <time>2011-11-24T11:34:39Z</time>
      </trkpt>
      <trkpt lat="43.68013" lon="7.03462">
        <ele>278.1</ele>
        <time>2011-11-24T11:34:41Z</time>
      </trkpt>
      <trkpt lat="43.68019" lon="7.03451">
        <ele>276.9</ele>
        <time>2011-11-24T11:34:43Z</time>
      </trkpt>
      <trkpt lat="43.68022" lon="7.03444">
        <ele>276.2</ele>
        <time>2011-11-24T11:34:44Z</time>
      </trkpt>
      <trkpt lat="43.68026" lon="7.03434">
        <ele>276.9</ele>
        <time>2011-11-24T11:34:46Z</time>
      </trkpt>
      <trkpt lat="43.6803" lon="7.03424">
        <ele>276.8</ele>
        <time>2011-11-24T11:34:48Z</time>
      </trkpt>
      <trkpt lat="43.68034" lon="7.03414">
        <ele>276.6</ele>
        <time>2011-11-24T11:34:50Z</time>
      </trkpt>
      <trkpt lat="43.68036" lon="7.03407">
        <ele>276.6</ele>
        <time>2011-11-24T11:34:51Z</time>
      </trkpt>
      <trkpt lat="43.68038" lon="7.03396">
        <ele>276.8</ele>
        <time>2011-11-24T11:34:53Z</time>
      </trkpt>
      <trkpt lat="43.6804" lon="7.03384">
        <ele>277.3</ele>
        <time>2011-11-24T11:34:55Z</time>
      </trkpt>
      <trkpt lat="43.68041" lon="7.03378">
        <ele>277.2</ele>
        <time>2011-11-24T11:34:56Z</time>
      </trkpt>
      <trkpt lat="43.68043" lon="7.03366">
        <ele>277.5</ele>
        <time>2011-11-24T11:34:58Z</time>
      </trkpt>
      <trkpt lat="43.68045" lon="7.03354">
        <ele>277.1</ele>
        <time>2011-11-24T11:35:00Z</time>
      </trkpt>
      <trkpt lat="43.68046" lon="7.03342">
        <ele>277.2</ele>
        <time>2011-11-24T11:35:02Z</time>
      </trkpt>
      <trkpt lat="43.68047" lon="7.0333">
        <ele>277.1</ele>
        <time>2011-11-24T11:35:04Z</time>
      </trkpt>
      <trkpt lat="43.68048" lon="7.03319">
        <ele>277.2</ele>
        <time>2011-11-24T11:35:06Z</time>
      </trkpt>
      <trkpt lat="43.6805" lon="7.03306">
        <ele>278</ele>
        <time>2011-11-24T11:35:08Z</time>
      </trkpt>
      <trkpt lat="43.68052" lon="7.03295">
        <ele>278.5</ele>
        <time>2011-11-24T11:35:10Z</time>
      </trkpt>
      <trkpt lat="43.68053" lon="7.03283">
        <ele>279</ele>
        <time>2011-11-24T11:35:12Z</time>
      </trkpt>
      <trkpt lat="43.68054" lon="7.03277">
        <ele>278.9</ele>
        <time>2011-11-24T11:35:13Z</time>
      </trkpt>
      <trkpt lat="43.68056" lon="7.03265">
        <ele>278.8</ele>
        <time>2011-11-24T11:35:15Z</time>
      </trkpt>
      <trkpt lat="43.68057" lon="7.03259">
        <ele>279</ele>
        <time>2011-11-24T11:35:16Z</time>
      </trkpt>
      <trkpt lat="43.68058" lon="7.03246">
        <ele>279.5</ele>
        <time>2011-11-24T11:35:18Z</time>
      </trkpt>
      <trkpt lat="43.68059" lon="7.0324">
        <ele>279.3</ele>
        <time>2011-11-24T11:35:19Z</time>
      </trkpt>
      <trkpt lat="43.6806" lon="7.03228">
        <ele>279.4</ele>
        <time>2011-11-24T11:35:21Z</time>
      </trkpt>
      <trkpt lat="43.68061" lon="7.03217">
        <ele>279.1</ele>
        <time>2011-11-24T11:35:23Z</time>
      </trkpt>
      <trkpt lat="43.68061" lon="7.03206">
        <ele>279.6</ele>
        <time>2011-11-24T11:35:25Z</time>
      </trkpt>
      <trkpt lat="43.6806" lon="7.03195">
        <ele>279.8</ele>
        <time>2011-11-24T11:35:27Z</time>
      </trkpt>
      <trkpt lat="43.68059" lon="7.03188">
        <ele>280.1</ele>
        <time>2011-11-24T11:35:29Z</time>
      </trkpt>
      <trkpt lat="43.68059" lon="7.03181">
        <ele>280.2</ele>
        <time>2011-11-24T11:35:31Z</time>
      </trkpt>
      <trkpt lat="43.6807" lon="7.0318">
        <ele>278.8</ele>
        <time>2011-11-24T11:35:33Z</time>
      </trkpt>
      <trkpt lat="43.68076" lon="7.03177">
        <ele>278.3</ele>
        <time>2011-11-24T11:35:35Z</time>
      </trkpt>
      <trkpt lat="43.6808" lon="7.03174">
        <ele>278.6</ele>
        <time>2011-11-24T11:35:36Z</time>
      </trkpt>
      <trkpt lat="43.68082" lon="7.03166">
        <ele>278.6</ele>
        <time>2011-11-24T11:35:38Z</time>
      </trkpt>
      <trkpt lat="43.6808" lon="7.03158">
        <ele>278.4</ele>
        <time>2011-11-24T11:35:39Z</time>
      </trkpt>
      <trkpt lat="43.68073" lon="7.03145">
        <ele>273.2</ele>
        <time>2011-11-24T11:35:40Z</time>
      </trkpt>
      <trkpt lat="43.68071" lon="7.03138">
        <ele>272.2</ele>
        <time>2011-11-24T11:35:41Z</time>
      </trkpt>
      <trkpt lat="43.68069" lon="7.03132">
        <ele>271.6</ele>
        <time>2011-11-24T11:35:42Z</time>
      </trkpt>
      <trkpt lat="43.68067" lon="7.03126">
        <ele>271.4</ele>
        <time>2011-11-24T11:35:43Z</time>
      </trkpt>
      <trkpt lat="43.68064" lon="7.03118">
        <ele>271.2</ele>
        <time>2011-11-24T11:35:44Z</time>
      </trkpt>
      <trkpt lat="43.68062" lon="7.03111">
        <ele>270.6</ele>
        <time>2011-11-24T11:35:45Z</time>
      </trkpt>
      <trkpt lat="43.68059" lon="7.03102">
        <ele>270.4</ele>
        <time>2011-11-24T11:35:46Z</time>
      </trkpt>
      <trkpt lat="43.68056" lon="7.03095">
        <ele>270.4</ele>
        <time>2011-11-24T11:35:47Z</time>
      </trkpt>
      <trkpt lat="43.68056" lon="7.03088">
        <ele>270.5</ele>
        <time>2011-11-24T11:35:48Z</time>
      </trkpt>
      <trkpt lat="43.68054" lon="7.03081">
        <ele>270.6</ele>
        <time>2011-11-24T11:35:49Z</time>
      </trkpt>
      <trkpt lat="43.68053" lon="7.03075">
        <ele>270.6</ele>
        <time>2011-11-24T11:35:50Z</time>
      </trkpt>
      <trkpt lat="43.68052" lon="7.03067">
        <ele>270.6</ele>
        <time>2011-11-24T11:35:51Z</time>
      </trkpt>
      <trkpt lat="43.68051" lon="7.03061">
        <ele>270.9</ele>
        <time>2011-11-24T11:35:52Z</time>
      </trkpt>
      <trkpt lat="43.68049" lon="7.03049">
        <ele>274.6</ele>
        <time>2011-11-24T11:35:54Z</time>
      </trkpt>
      <trkpt lat="43.68048" lon="7.03043">
        <ele>275.9</ele>
        <time>2011-11-24T11:35:55Z</time>
      </trkpt>
      <trkpt lat="43.68049" lon="7.03031">
        <ele>276</ele>
        <time>2011-11-24T11:35:57Z</time>
      </trkpt>
      <trkpt lat="43.6805" lon="7.03019">
        <ele>277.8</ele>
        <time>2011-11-24T11:35:59Z</time>
      </trkpt>
      <trkpt lat="43.68052" lon="7.03013">
        <ele>278.1</ele>
        <time>2011-11-24T11:36:00Z</time>
      </trkpt>
      <trkpt lat="43.68054" lon="7.03008">
        <ele>278.6</ele>
        <time>2011-11-24T11:36:01Z</time>
      </trkpt>
      <trkpt lat="43.68059" lon="7.03004">
        <ele>279</ele>
        <time>2011-11-24T11:36:02Z</time>
      </trkpt>
      <trkpt lat="43.68064" lon="7.02994">
        <ele>279.5</ele>
        <time>2011-11-24T11:36:04Z</time>
      </trkpt>
      <trkpt lat="43.6807" lon="7.02985">
        <ele>279.7</ele>
        <time>2011-11-24T11:36:06Z</time>
      </trkpt>
      <trkpt lat="43.68075" lon="7.02976">
        <ele>280.5</ele>
        <time>2011-11-24T11:36:08Z</time>
      </trkpt>
      <trkpt lat="43.68081" lon="7.02967">
        <ele>281.7</ele>
        <time>2011-11-24T11:36:10Z</time>
      </trkpt>
      <trkpt lat="43.68084" lon="7.02963">
        <ele>282</ele>
        <time>2011-11-24T11:36:11Z</time>
      </trkpt>
      <trkpt lat="43.68089" lon="7.02953">
        <ele>283</ele>
        <time>2011-11-24T11:36:13Z</time>
      </trkpt>
      <trkpt lat="43.68094" lon="7.02943">
        <ele>283.6</ele>
        <time>2011-11-24T11:36:15Z</time>
      </trkpt>
      <trkpt lat="43.68097" lon="7.02938">
        <ele>283.9</ele>
        <time>2011-11-24T11:36:16Z</time>
      </trkpt>
      <trkpt lat="43.681" lon="7.02932">
        <ele>284</ele>
        <time>2011-11-24T11:36:17Z</time>
      </trkpt>
      <trkpt lat="43.68104" lon="7.02923">
        <ele>283.9</ele>
        <time>2011-11-24T11:36:19Z</time>
      </trkpt>
      <trkpt lat="43.68109" lon="7.02914">
        <ele>283.9</ele>
        <time>2011-11-24T11:36:21Z</time>
      </trkpt>
      <trkpt lat="43.6811" lon="7.02907">
        <ele>285.1</ele>
        <time>2011-11-24T11:36:22Z</time>
      </trkpt>
      <trkpt lat="43.68114" lon="7.02896">
        <ele>284.1</ele>
        <time>2011-11-24T11:36:24Z</time>
      </trkpt>
      <trkpt lat="43.68116" lon="7.02891">
        <ele>283.9</ele>
        <time>2011-11-24T11:36:25Z</time>
      </trkpt>
      <trkpt lat="43.6812" lon="7.0288">
        <ele>283.3</ele>
        <time>2011-11-24T11:36:27Z</time>
      </trkpt>
      <trkpt lat="43.68122" lon="7.02868">
        <ele>283.8</ele>
        <time>2011-11-24T11:36:29Z</time>
      </trkpt>
      <trkpt lat="43.68125" lon="7.02857">
        <ele>283.9</ele>
        <time>2011-11-24T11:36:31Z</time>
      </trkpt>
      <trkpt lat="43.6813" lon="7.02853">
        <ele>283.5</ele>
        <time>2011-11-24T11:36:32Z</time>
      </trkpt>
      <trkpt lat="43.68132" lon="7.02848">
        <ele>283.3</ele>
        <time>2011-11-24T11:36:33Z</time>
      </trkpt>
      <trkpt lat="43.68135" lon="7.02836">
        <ele>284.9</ele>
        <time>2011-11-24T11:36:35Z</time>
      </trkpt>
      <trkpt lat="43.6814" lon="7.02826">
        <ele>285.7</ele>
        <time>2011-11-24T11:36:37Z</time>
      </trkpt>
      <trkpt lat="43.68143" lon="7.02816">
        <ele>286.5</ele>
        <time>2011-11-24T11:36:39Z</time>
      </trkpt>
      <trkpt lat="43.68146" lon="7.02806">
        <ele>286.9</ele>
        <time>2011-11-24T11:36:41Z</time>
      </trkpt>
      <trkpt lat="43.68149" lon="7.02795">
        <ele>286.8</ele>
        <time>2011-11-24T11:36:43Z</time>
      </trkpt>
      <trkpt lat="43.68154" lon="7.02787">
        <ele>287.1</ele>
        <time>2011-11-24T11:36:45Z</time>
      </trkpt>
      <trkpt lat="43.68156" lon="7.02782">
        <ele>287</ele>
        <time>2011-11-24T11:36:46Z</time>
      </trkpt>
      <trkpt lat="43.68159" lon="7.02776">
        <ele>289.1</ele>
        <time>2011-11-24T11:36:47Z</time>
      </trkpt>
      <trkpt lat="43.68164" lon="7.02768">
        <ele>288.1</ele>
        <time>2011-11-24T11:36:49Z</time>
      </trkpt>
      <trkpt lat="43.68169" lon="7.02758">
        <ele>287.5</ele>
        <time>2011-11-24T11:36:51Z</time>
      </trkpt>
      <trkpt lat="43.68173" lon="7.02749">
        <ele>290.5</ele>
        <time>2011-11-24T11:36:53Z</time>
      </trkpt>
      <trkpt lat="43.68178" lon="7.02739">
        <ele>291.2</ele>
        <time>2011-11-24T11:36:55Z</time>
      </trkpt>
      <trkpt lat="43.68183" lon="7.0273">
        <ele>291.5</ele>
        <time>2011-11-24T11:36:57Z</time>
      </trkpt>
      <trkpt lat="43.68188" lon="7.02722">
        <ele>289.1</ele>
        <time>2011-11-24T11:36:59Z</time>
      </trkpt>
      <trkpt lat="43.68193" lon="7.02712">
        <ele>289.5</ele>
        <time>2011-11-24T11:37:01Z</time>
      </trkpt>
      <trkpt lat="43.68197" lon="7.02702">
        <ele>289.8</ele>
        <time>2011-11-24T11:37:03Z</time>
      </trkpt>
      <trkpt lat="43.68199" lon="7.0269">
        <ele>293.6</ele>
        <time>2011-11-24T11:37:05Z</time>
      </trkpt>
      <trkpt lat="43.68202" lon="7.02679">
        <ele>293.4</ele>
        <time>2011-11-24T11:37:07Z</time>
      </trkpt>
      <trkpt lat="43.68205" lon="7.02666">
        <ele>293.8</ele>
        <time>2011-11-24T11:37:09Z</time>
      </trkpt>
      <trkpt lat="43.68206" lon="7.0266">
        <ele>293.4</ele>
        <time>2011-11-24T11:37:10Z</time>
      </trkpt>
      <trkpt lat="43.68208" lon="7.02653">
        <ele>293.2</ele>
        <time>2011-11-24T11:37:11Z</time>
      </trkpt>
      <trkpt lat="43.6821" lon="7.02647">
        <ele>293.3</ele>
        <time>2011-11-24T11:37:12Z</time>
      </trkpt>
      <trkpt lat="43.68212" lon="7.02641">
        <ele>293.2</ele>
        <time>2011-11-24T11:37:13Z</time>
      </trkpt>
      <trkpt lat="43.68216" lon="7.0263">
        <ele>292.8</ele>
        <time>2011-11-24T11:37:15Z</time>
      </trkpt>
      <trkpt lat="43.68221" lon="7.0262">
        <ele>293</ele>
        <time>2011-11-24T11:37:17Z</time>
      </trkpt>
      <trkpt lat="43.68225" lon="7.0261">
        <ele>292.1</ele>
        <time>2011-11-24T11:37:19Z</time>
      </trkpt>
      <trkpt lat="43.68227" lon="7.02604">
        <ele>291.9</ele>
        <time>2011-11-24T11:37:20Z</time>
      </trkpt>
      <trkpt lat="43.68232" lon="7.02594">
        <ele>291.3</ele>
        <time>2011-11-24T11:37:22Z</time>
      </trkpt>
      <trkpt lat="43.68234" lon="7.02588">
        <ele>291.5</ele>
        <time>2011-11-24T11:37:23Z</time>
      </trkpt>
      <trkpt lat="43.68239" lon="7.02579">
        <ele>291.2</ele>
        <time>2011-11-24T11:37:25Z</time>
      </trkpt>
      <trkpt lat="43.68247" lon="7.02573">
        <ele>284.2</ele>
        <time>2011-11-24T11:37:27Z</time>
      </trkpt>
      <trkpt lat="43.6825" lon="7.02569">
        <ele>284.3</ele>
        <time>2011-11-24T11:37:28Z</time>
      </trkpt>
      <trkpt lat="43.68257" lon="7.02562">
        <ele>284.7</ele>
        <time>2011-11-24T11:37:30Z</time>
      </trkpt>
      <trkpt lat="43.68263" lon="7.02558">
        <ele>289.4</ele>
        <time>2011-11-24T11:37:32Z</time>
      </trkpt>
      <trkpt lat="43.6827" lon="7.02554">
        <ele>292.7</ele>
        <time>2011-11-24T11:37:34Z</time>
      </trkpt>
      <trkpt lat="43.68277" lon="7.02549">
        <ele>295.8</ele>
        <time>2011-11-24T11:37:36Z</time>
      </trkpt>
      <trkpt lat="43.68281" lon="7.02545">
        <ele>295.2</ele>
        <time>2011-11-24T11:37:37Z</time>
      </trkpt>
      <trkpt lat="43.68284" lon="7.02541">
        <ele>296</ele>
        <time>2011-11-24T11:37:38Z</time>
      </trkpt>
      <trkpt lat="43.68288" lon="7.02537">
        <ele>297.9</ele>
        <time>2011-11-24T11:37:39Z</time>
      </trkpt>
      <trkpt lat="43.68291" lon="7.02532">
        <ele>299.2</ele>
        <time>2011-11-24T11:37:40Z</time>
      </trkpt>
      <trkpt lat="43.68295" lon="7.02526">
        <ele>300.3</ele>
        <time>2011-11-24T11:37:41Z</time>
      </trkpt>
      <trkpt lat="43.68296" lon="7.02512">
        <ele>303.6</ele>
        <time>2011-11-24T11:37:43Z</time>
      </trkpt>
      <trkpt lat="43.68297" lon="7.02506">
        <ele>304</ele>
        <time>2011-11-24T11:37:44Z</time>
      </trkpt>
      <trkpt lat="43.68301" lon="7.02497">
        <ele>305.2</ele>
        <time>2011-11-24T11:37:46Z</time>
      </trkpt>
      <trkpt lat="43.68304" lon="7.02489">
        <ele>306.4</ele>
        <time>2011-11-24T11:37:48Z</time>
      </trkpt>
      <trkpt lat="43.68306" lon="7.02482">
        <ele>307.3</ele>
        <time>2011-11-24T11:37:50Z</time>
      </trkpt>
      <trkpt lat="43.68309" lon="7.02475">
        <ele>308.2</ele>
        <time>2011-11-24T11:37:52Z</time>
      </trkpt>
      <trkpt lat="43.68314" lon="7.02469">
        <ele>308.9</ele>
        <time>2011-11-24T11:37:54Z</time>
      </trkpt>
      <trkpt lat="43.68318" lon="7.02464">
        <ele>308.9</ele>
        <time>2011-11-24T11:37:56Z</time>
      </trkpt>
      <trkpt lat="43.68324" lon="7.02465">
        <ele>307.7</ele>
        <time>2011-11-24T11:37:57Z</time>
      </trkpt>
      <trkpt lat="43.68331" lon="7.02464">
        <ele>307.2</ele>
        <time>2011-11-24T11:37:59Z</time>
      </trkpt>
      <trkpt lat="43.68336" lon="7.02461">
        <ele>307.5</ele>
        <time>2011-11-24T11:38:01Z</time>
      </trkpt>
      <trkpt lat="43.68342" lon="7.02458">
        <ele>307.1</ele>
        <time>2011-11-24T11:38:03Z</time>
      </trkpt>
      <trkpt lat="43.68347" lon="7.02456">
        <ele>307.7</ele>
        <time>2011-11-24T11:38:05Z</time>
      </trkpt>
      <trkpt lat="43.68353" lon="7.02453">
        <ele>307.8</ele>
        <time>2011-11-24T11:38:07Z</time>
      </trkpt>
      <trkpt lat="43.68358" lon="7.02451">
        <ele>307.9</ele>
        <time>2011-11-24T11:38:09Z</time>
      </trkpt>
      <trkpt lat="43.68364" lon="7.02448">
        <ele>307.6</ele>
        <time>2011-11-24T11:38:11Z</time>
      </trkpt>
      <trkpt lat="43.68369" lon="7.02445">
        <ele>308.5</ele>
        <time>2011-11-24T11:38:13Z</time>
      </trkpt>
      <trkpt lat="43.68375" lon="7.02443">
        <ele>311.2</ele>
        <time>2011-11-24T11:38:15Z</time>
      </trkpt>
      <trkpt lat="43.68381" lon="7.0244">
        <ele>311.1</ele>
        <time>2011-11-24T11:38:17Z</time>
      </trkpt>
      <trkpt lat="43.68387" lon="7.02437">
        <ele>311.5</ele>
        <time>2011-11-24T11:38:19Z</time>
      </trkpt>
      <trkpt lat="43.68392" lon="7.02434">
        <ele>311.8</ele>
        <time>2011-11-24T11:38:21Z</time>
      </trkpt>
      <trkpt lat="43.68398" lon="7.02432">
        <ele>311.5</ele>
        <time>2011-11-24T11:38:23Z</time>
      </trkpt>
      <trkpt lat="43.68402" lon="7.02429">
        <ele>311</ele>
        <time>2011-11-24T11:38:25Z</time>
      </trkpt>
      <trkpt lat="43.68407" lon="7.02428">
        <ele>311.9</ele>
        <time>2011-11-24T11:38:27Z</time>
      </trkpt>
      <trkpt lat="43.68414" lon="7.02424">
        <ele>312</ele>
        <time>2011-11-24T11:38:29Z</time>
      </trkpt>
      <trkpt lat="43.6842" lon="7.02421">
        <ele>312.3</ele>
        <time>2011-11-24T11:38:31Z</time>
      </trkpt>
      <trkpt lat="43.68424" lon="7.02418">
        <ele>314.5</ele>
        <time>2011-11-24T11:38:33Z</time>
      </trkpt>
      <trkpt lat="43.6843" lon="7.02416">
        <ele>314.5</ele>
        <time>2011-11-24T11:38:35Z</time>
      </trkpt>
      <trkpt lat="43.68437" lon="7.02414">
        <ele>314.1</ele>
        <time>2011-11-24T11:38:37Z</time>
      </trkpt>
      <trkpt lat="43.68443" lon="7.02412">
        <ele>314.1</ele>
        <time>2011-11-24T11:38:39Z</time>
      </trkpt>
      <trkpt lat="43.68449" lon="7.02414">
        <ele>313</ele>
        <time>2011-11-24T11:38:41Z</time>
      </trkpt>
      <trkpt lat="43.68456" lon="7.02411">
        <ele>317.4</ele>
        <time>2011-11-24T11:38:44Z</time>
      </trkpt>
      <trkpt lat="43.68461" lon="7.02411">
        <ele>318.7</ele>
        <time>2011-11-24T11:38:46Z</time>
      </trkpt>
      <trkpt lat="43.68466" lon="7.02412">
        <ele>319.5</ele>
        <time>2011-11-24T11:38:48Z</time>
      </trkpt>
      <trkpt lat="43.68472" lon="7.02412">
        <ele>319.2</ele>
        <time>2011-11-24T11:38:50Z</time>
      </trkpt>
      <trkpt lat="43.68478" lon="7.02415">
        <ele>318.7</ele>
        <time>2011-11-24T11:38:52Z</time>
      </trkpt>
      <trkpt lat="43.68485" lon="7.02413">
        <ele>318.2</ele>
        <time>2011-11-24T11:38:54Z</time>
      </trkpt>
      <trkpt lat="43.68492" lon="7.02412">
        <ele>318.4</ele>
        <time>2011-11-24T11:38:56Z</time>
      </trkpt>
      <trkpt lat="43.68497" lon="7.02413">
        <ele>318.8</ele>
        <time>2011-11-24T11:38:58Z</time>
      </trkpt>
      <trkpt lat="43.68502" lon="7.02416">
        <ele>318.8</ele>
        <time>2011-11-24T11:39:00Z</time>
      </trkpt>
      <trkpt lat="43.68509" lon="7.02416">
        <ele>318.8</ele>
        <time>2011-11-24T11:39:02Z</time>
      </trkpt>
      <trkpt lat="43.68513" lon="7.02413">
        <ele>319.1</ele>
        <time>2011-11-24T11:39:03Z</time>
      </trkpt>
      <trkpt lat="43.6852" lon="7.02414">
        <ele>319.6</ele>
        <time>2011-11-24T11:39:06Z</time>
      </trkpt>
      <trkpt lat="43.68526" lon="7.02413">
        <ele>319.1</ele>
        <time>2011-11-24T11:39:08Z</time>
      </trkpt>
      <trkpt lat="43.68532" lon="7.02414">
        <ele>318.8</ele>
        <time>2011-11-24T11:39:10Z</time>
      </trkpt>
      <trkpt lat="43.68538" lon="7.02414">
        <ele>319.2</ele>
        <time>2011-11-24T11:39:12Z</time>
      </trkpt>
      <trkpt lat="43.68545" lon="7.02416">
        <ele>318.9</ele>
        <time>2011-11-24T11:39:14Z</time>
      </trkpt>
      <trkpt lat="43.68551" lon="7.02416">
        <ele>319</ele>
        <time>2011-11-24T11:39:16Z</time>
      </trkpt>
      <trkpt lat="43.68556" lon="7.02417">
        <ele>318.3</ele>
        <time>2011-11-24T11:39:18Z</time>
      </trkpt>
      <trkpt lat="43.68563" lon="7.02416">
        <ele>319.8</ele>
        <time>2011-11-24T11:39:20Z</time>
      </trkpt>
      <trkpt lat="43.68568" lon="7.02416">
        <ele>320.5</ele>
        <time>2011-11-24T11:39:22Z</time>
      </trkpt>
      <trkpt lat="43.68574" lon="7.02412">
        <ele>320.9</ele>
        <time>2011-11-24T11:39:24Z</time>
      </trkpt>
      <trkpt lat="43.68578" lon="7.02409">
        <ele>320.3</ele>
        <time>2011-11-24T11:39:26Z</time>
      </trkpt>
      <trkpt lat="43.68584" lon="7.02408">
        <ele>320.7</ele>
        <time>2011-11-24T11:39:28Z</time>
      </trkpt>
      <trkpt lat="43.68589" lon="7.02407">
        <ele>320.5</ele>
        <time>2011-11-24T11:39:30Z</time>
      </trkpt>
      <trkpt lat="43.68594" lon="7.02405">
        <ele>320.6</ele>
        <time>2011-11-24T11:39:32Z</time>
      </trkpt>
      <trkpt lat="43.686" lon="7.024">
        <ele>319.2</ele>
        <time>2011-11-24T11:39:35Z</time>
      </trkpt>
      <trkpt lat="43.68606" lon="7.02398">
        <ele>318.2</ele>
        <time>2011-11-24T11:39:37Z</time>
      </trkpt>
      <trkpt lat="43.68611" lon="7.02394">
        <ele>319.4</ele>
        <time>2011-11-24T11:39:39Z</time>
      </trkpt>
      <trkpt lat="43.68616" lon="7.0239">
        <ele>319.8</ele>
        <time>2011-11-24T11:39:41Z</time>
      </trkpt>
      <trkpt lat="43.68621" lon="7.02386">
        <ele>318.6</ele>
        <time>2011-11-24T11:39:43Z</time>
      </trkpt>
      <trkpt lat="43.68626" lon="7.02383">
        <ele>317.7</ele>
        <time>2011-11-24T11:39:45Z</time>
      </trkpt>
      <trkpt lat="43.68631" lon="7.02378">
        <ele>318.6</ele>
        <time>2011-11-24T11:39:47Z</time>
      </trkpt>
      <trkpt lat="43.68635" lon="7.02372">
        <ele>318.8</ele>
        <time>2011-11-24T11:39:49Z</time>
      </trkpt>
      <trkpt lat="43.68639" lon="7.02366">
        <ele>319.2</ele>
        <time>2011-11-24T11:39:51Z</time>
      </trkpt>
      <trkpt lat="43.68643" lon="7.02359">
        <ele>319.5</ele>
        <time>2011-11-24T11:39:53Z</time>
      </trkpt>
      <trkpt lat="43.68645" lon="7.02352">
        <ele>319.6</ele>
        <time>2011-11-24T11:39:55Z</time>
      </trkpt>
      <trkpt lat="43.68648" lon="7.02345">
        <ele>318.8</ele>
        <time>2011-11-24T11:39:57Z</time>
      </trkpt>
      <trkpt lat="43.6865" lon="7.02339">
        <ele>319.2</ele>
        <time>2011-11-24T11:39:59Z</time>
      </trkpt>
      <trkpt lat="43.68653" lon="7.02333">
        <ele>319.2</ele>
        <time>2011-11-24T11:40:01Z</time>
      </trkpt>
      <trkpt lat="43.68656" lon="7.02326">
        <ele>319.1</ele>
        <time>2011-11-24T11:40:03Z</time>
      </trkpt>
      <trkpt lat="43.6866" lon="7.02321">
        <ele>317.5</ele>
        <time>2011-11-24T11:40:05Z</time>
      </trkpt>
      <trkpt lat="43.68662" lon="7.02315">
        <ele>318.4</ele>
        <time>2011-11-24T11:40:07Z</time>
      </trkpt>
      <trkpt lat="43.68663" lon="7.02308">
        <ele>317.6</ele>
        <time>2011-11-24T11:40:09Z</time>
      </trkpt>
      <trkpt lat="43.68666" lon="7.02301">
        <ele>318.9</ele>
        <time>2011-11-24T11:40:11Z</time>
      </trkpt>
      <trkpt lat="43.68667" lon="7.02293">
        <ele>320.7</ele>
        <time>2011-11-24T11:40:13Z</time>
      </trkpt>
      <trkpt lat="43.68669" lon="7.02287">
        <ele>321.1</ele>
        <time>2011-11-24T11:40:15Z</time>
      </trkpt>
      <trkpt lat="43.6867" lon="7.02281">
        <ele>319.8</ele>
        <time>2011-11-24T11:40:17Z</time>
      </trkpt>
      <trkpt lat="43.68672" lon="7.02275">
        <ele>318.4</ele>
        <time>2011-11-24T11:40:19Z</time>
      </trkpt>
      <trkpt lat="43.68674" lon="7.02268">
        <ele>319.5</ele>
        <time>2011-11-24T11:40:21Z</time>
      </trkpt>
      <trkpt lat="43.68676" lon="7.02259">
        <ele>318.3</ele>
        <time>2011-11-24T11:40:24Z</time>
      </trkpt>
      <trkpt lat="43.6868" lon="7.02252">
        <ele>321.2</ele>
        <time>2011-11-24T11:40:26Z</time>
      </trkpt>
      <trkpt lat="43.68681" lon="7.02245">
        <ele>320.8</ele>
        <time>2011-11-24T11:40:28Z</time>
      </trkpt>
      <trkpt lat="43.68683" lon="7.02239">
        <ele>320.4</ele>
        <time>2011-11-24T11:40:30Z</time>
      </trkpt>
      <trkpt lat="43.68684" lon="7.02232">
        <ele>320.9</ele>
        <time>2011-11-24T11:40:32Z</time>
      </trkpt>
      <trkpt lat="43.68686" lon="7.02223">
        <ele>321.9</ele>
        <time>2011-11-24T11:40:35Z</time>
      </trkpt>
      <trkpt lat="43.68687" lon="7.02217">
        <ele>321.9</ele>
        <time>2011-11-24T11:40:37Z</time>
      </trkpt>
      <trkpt lat="43.68689" lon="7.02211">
        <ele>322.4</ele>
        <time>2011-11-24T11:40:39Z</time>
      </trkpt>
      <trkpt lat="43.68691" lon="7.02205">
        <ele>321.6</ele>
        <time>2011-11-24T11:40:41Z</time>
      </trkpt>
      <trkpt lat="43.68693" lon="7.022">
        <ele>321.7</ele>
        <time>2011-11-24T11:40:43Z</time>
      </trkpt>
      <trkpt lat="43.68696" lon="7.02194">
        <ele>322.4</ele>
        <time>2011-11-24T11:40:45Z</time>
      </trkpt>
      <trkpt lat="43.68699" lon="7.02188">
        <ele>321.1</ele>
        <time>2011-11-24T11:40:47Z</time>
      </trkpt>
      <trkpt lat="43.68703" lon="7.02184">
        <ele>317.6</ele>
        <time>2011-11-24T11:40:49Z</time>
      </trkpt>
      <trkpt lat="43.68706" lon="7.02179">
        <ele>316.7</ele>
        <time>2011-11-24T11:40:51Z</time>
      </trkpt>
      <trkpt lat="43.6871" lon="7.02171">
        <ele>320.4</ele>
        <time>2011-11-24T11:40:54Z</time>
      </trkpt>
      <trkpt lat="43.68711" lon="7.02165">
        <ele>318.8</ele>
        <time>2011-11-24T11:40:56Z</time>
      </trkpt>
      <trkpt lat="43.68713" lon="7.02159">
        <ele>317.6</ele>
        <time>2011-11-24T11:40:58Z</time>
      </trkpt>
      <trkpt lat="43.68715" lon="7.02152">
        <ele>317.1</ele>
        <time>2011-11-24T11:41:00Z</time>
      </trkpt>
      <trkpt lat="43.68717" lon="7.02146">
        <ele>316.4</ele>
        <time>2011-11-24T11:41:02Z</time>
      </trkpt>
      <trkpt lat="43.68722" lon="7.02137">
        <ele>318.5</ele>
        <time>2011-11-24T11:41:05Z</time>
      </trkpt>
      <trkpt lat="43.68726" lon="7.02132">
        <ele>321.8</ele>
        <time>2011-11-24T11:41:07Z</time>
      </trkpt>
      <trkpt lat="43.68727" lon="7.02125">
        <ele>319.5</ele>
        <time>2011-11-24T11:41:10Z</time>
      </trkpt>
      <trkpt lat="43.6873" lon="7.02119">
        <ele>320.6</ele>
        <time>2011-11-24T11:41:12Z</time>
      </trkpt>
      <trkpt lat="43.68733" lon="7.02111">
        <ele>320.9</ele>
        <time>2011-11-24T11:41:15Z</time>
      </trkpt>
      <trkpt lat="43.68736" lon="7.02104">
        <ele>321.5</ele>
        <time>2011-11-24T11:41:17Z</time>
      </trkpt>
      <trkpt lat="43.68739" lon="7.02098">
        <ele>322.6</ele>
        <time>2011-11-24T11:41:19Z</time>
      </trkpt>
      <trkpt lat="43.68741" lon="7.02092">
        <ele>322.1</ele>
        <time>2011-11-24T11:41:21Z</time>
      </trkpt>
      <trkpt lat="43.68744" lon="7.02086">
        <ele>321.6</ele>
        <time>2011-11-24T11:41:23Z</time>
      </trkpt>
      <trkpt lat="43.68747" lon="7.0208">
        <ele>321.2</ele>
        <time>2011-11-24T11:41:25Z</time>
      </trkpt>
      <trkpt lat="43.6875" lon="7.02074">
        <ele>321.8</ele>
        <time>2011-11-24T11:41:27Z</time>
      </trkpt>
      <trkpt lat="43.68752" lon="7.02068">
        <ele>322.3</ele>
        <time>2011-11-24T11:41:29Z</time>
      </trkpt>
      <trkpt lat="43.68756" lon="7.02062">
        <ele>322.7</ele>
        <time>2011-11-24T11:41:31Z</time>
      </trkpt>
      <trkpt lat="43.68757" lon="7.02057">
        <ele>323.3</ele>
        <time>2011-11-24T11:41:33Z</time>
      </trkpt>
      <trkpt lat="43.68761" lon="7.02053">
        <ele>324.4</ele>
        <time>2011-11-24T11:41:35Z</time>
      </trkpt>
      <trkpt lat="43.68765" lon="7.02048">
        <ele>324.1</ele>
        <time>2011-11-24T11:41:37Z</time>
      </trkpt>
      <trkpt lat="43.68769" lon="7.02043">
        <ele>323.7</ele>
        <time>2011-11-24T11:41:39Z</time>
      </trkpt>
      <trkpt lat="43.68773" lon="7.02037">
        <ele>326</ele>
        <time>2011-11-24T11:41:41Z</time>
      </trkpt>
      <trkpt lat="43.68776" lon="7.02032">
        <ele>327</ele>
        <time>2011-11-24T11:41:43Z</time>
      </trkpt>
      <trkpt lat="43.6878" lon="7.02023">
        <ele>328</ele>
        <time>2011-11-24T11:41:46Z</time>
      </trkpt>
      <trkpt lat="43.68782" lon="7.02018">
        <ele>328.3</ele>
        <time>2011-11-24T11:41:48Z</time>
      </trkpt>
      <trkpt lat="43.68786" lon="7.02011">
        <ele>331.1</ele>
        <time>2011-11-24T11:41:51Z</time>
      </trkpt>
      <trkpt lat="43.68788" lon="7.02005">
        <ele>331.5</ele>
        <time>2011-11-24T11:41:53Z</time>
      </trkpt>
      <trkpt lat="43.6879" lon="7.01999">
        <ele>332.8</ele>
        <time>2011-11-24T11:41:55Z</time>
      </trkpt>
      <trkpt lat="43.68794" lon="7.01997">
        <ele>336.2</ele>
        <time>2011-11-24T11:41:58Z</time>
      </trkpt>
      <trkpt lat="43.688" lon="7.01992">
        <ele>337.5</ele>
        <time>2011-11-24T11:42:01Z</time>
      </trkpt>
      <trkpt lat="43.68806" lon="7.01988">
        <ele>337.7</ele>
        <time>2011-11-24T11:42:04Z</time>
      </trkpt>
      <trkpt lat="43.68811" lon="7.01984">
        <ele>342.3</ele>
        <time>2011-11-24T11:42:06Z</time>
      </trkpt>
      <trkpt lat="43.68815" lon="7.01978">
        <ele>341.6</ele>
        <time>2011-11-24T11:42:08Z</time>
      </trkpt>
      <trkpt lat="43.68819" lon="7.01974">
        <ele>342</ele>
        <time>2011-11-24T11:42:10Z</time>
      </trkpt>
      <trkpt lat="43.68825" lon="7.01966">
        <ele>344.2</ele>
        <time>2011-11-24T11:42:13Z</time>
      </trkpt>
      <trkpt lat="43.68829" lon="7.01961">
        <ele>344.2</ele>
        <time>2011-11-24T11:42:15Z</time>
      </trkpt>
      <trkpt lat="43.68833" lon="7.01957">
        <ele>342.7</ele>
        <time>2011-11-24T11:42:17Z</time>
      </trkpt>
      <trkpt lat="43.68836" lon="7.0195">
        <ele>343.9</ele>
        <time>2011-11-24T11:42:20Z</time>
      </trkpt>
      <trkpt lat="43.68841" lon="7.01945">
        <ele>344.8</ele>
        <time>2011-11-24T11:42:23Z</time>
      </trkpt>
      <trkpt lat="43.68846" lon="7.01941">
        <ele>345.4</ele>
        <time>2011-11-24T11:42:25Z</time>
      </trkpt>
      <trkpt lat="43.68851" lon="7.0194">
        <ele>345.6</ele>
        <time>2011-11-24T11:42:27Z</time>
      </trkpt>
      <trkpt lat="43.68857" lon="7.01936">
        <ele>345.9</ele>
        <time>2011-11-24T11:42:29Z</time>
      </trkpt>
      <trkpt lat="43.68862" lon="7.01932">
        <ele>346.4</ele>
        <time>2011-11-24T11:42:31Z</time>
      </trkpt>
      <trkpt lat="43.68867" lon="7.01927">
        <ele>347</ele>
        <time>2011-11-24T11:42:33Z</time>
      </trkpt>
      <trkpt lat="43.68871" lon="7.01923">
        <ele>346.9</ele>
        <time>2011-11-24T11:42:35Z</time>
      </trkpt>
      <trkpt lat="43.68874" lon="7.01918">
        <ele>346.9</ele>
        <time>2011-11-24T11:42:37Z</time>
      </trkpt>
      <trkpt lat="43.68878" lon="7.01911">
        <ele>346.7</ele>
        <time>2011-11-24T11:42:39Z</time>
      </trkpt>
      <trkpt lat="43.6888" lon="7.01903">
        <ele>346</ele>
        <time>2011-11-24T11:42:41Z</time>
      </trkpt>
      <trkpt lat="43.68882" lon="7.01895">
        <ele>345.9</ele>
        <time>2011-11-24T11:42:42Z</time>
      </trkpt>
      <trkpt lat="43.68888" lon="7.01893">
        <ele>342.9</ele>
        <time>2011-11-24T11:42:44Z</time>
      </trkpt>
      <trkpt lat="43.68893" lon="7.01892">
        <ele>343.2</ele>
        <time>2011-11-24T11:42:46Z</time>
      </trkpt>
      <trkpt lat="43.689" lon="7.01894">
        <ele>343.9</ele>
        <time>2011-11-24T11:42:49Z</time>
      </trkpt>
      <trkpt lat="43.68905" lon="7.01895">
        <ele>344.5</ele>
        <time>2011-11-24T11:42:51Z</time>
      </trkpt>
      <trkpt lat="43.6891" lon="7.0189">
        <ele>346.3</ele>
        <time>2011-11-24T11:42:54Z</time>
      </trkpt>
      <trkpt lat="43.68915" lon="7.01884">
        <ele>347.3</ele>
        <time>2011-11-24T11:42:57Z</time>
      </trkpt>
      <trkpt lat="43.68918" lon="7.01877">
        <ele>347.4</ele>
        <time>2011-11-24T11:43:00Z</time>
      </trkpt>
      <trkpt lat="43.68922" lon="7.01872">
        <ele>347.7</ele>
        <time>2011-11-24T11:43:02Z</time>
      </trkpt>
      <trkpt lat="43.68925" lon="7.01865">
        <ele>347.9</ele>
        <time>2011-11-24T11:43:04Z</time>
      </trkpt>
      <trkpt lat="43.68928" lon="7.01859">
        <ele>349.9</ele>
        <time>2011-11-24T11:43:07Z</time>
      </trkpt>
      <trkpt lat="43.68931" lon="7.01854">
        <ele>352.8</ele>
        <time>2011-11-24T11:43:10Z</time>
      </trkpt>
      <trkpt lat="43.68932" lon="7.01848">
        <ele>354.2</ele>
        <time>2011-11-24T11:43:12Z</time>
      </trkpt>
      <trkpt lat="43.68934" lon="7.01841">
        <ele>356</ele>
        <time>2011-11-24T11:43:16Z</time>
      </trkpt>
      <trkpt lat="43.68938" lon="7.01836">
        <ele>361.3</ele>
        <time>2011-11-24T11:43:19Z</time>
      </trkpt>
      <trkpt lat="43.68942" lon="7.01832">
        <ele>361.5</ele>
        <time>2011-11-24T11:43:21Z</time>
      </trkpt>
      <trkpt lat="43.68946" lon="7.01829">
        <ele>364.5</ele>
        <time>2011-11-24T11:43:24Z</time>
      </trkpt>
      <trkpt lat="43.68949" lon="7.01825">
        <ele>365.2</ele>
        <time>2011-11-24T11:43:26Z</time>
      </trkpt>
      <trkpt lat="43.68955" lon="7.01819">
        <ele>364.5</ele>
        <time>2011-11-24T11:43:29Z</time>
      </trkpt>
      <trkpt lat="43.68958" lon="7.01815">
        <ele>365.3</ele>
        <time>2011-11-24T11:43:31Z</time>
      </trkpt>
      <trkpt lat="43.68963" lon="7.0181">
        <ele>365.9</ele>
        <time>2011-11-24T11:43:33Z</time>
      </trkpt>
      <trkpt lat="43.68966" lon="7.01803">
        <ele>367.3</ele>
        <time>2011-11-24T11:43:35Z</time>
      </trkpt>
      <trkpt lat="43.68969" lon="7.01795">
        <ele>367.8</ele>
        <time>2011-11-24T11:43:37Z</time>
      </trkpt>
      <trkpt lat="43.68971" lon="7.01789">
        <ele>368.2</ele>
        <time>2011-11-24T11:43:39Z</time>
      </trkpt>
      <trkpt lat="43.68975" lon="7.01782">
        <ele>367.1</ele>
        <time>2011-11-24T11:43:42Z</time>
      </trkpt>
      <trkpt lat="43.68978" lon="7.01774">
        <ele>368.7</ele>
        <time>2011-11-24T11:43:45Z</time>
      </trkpt>
      <trkpt lat="43.68982" lon="7.01768">
        <ele>369</ele>
        <time>2011-11-24T11:43:48Z</time>
      </trkpt>
      <trkpt lat="43.68985" lon="7.01762">
        <ele>368.7</ele>
        <time>2011-11-24T11:43:50Z</time>
      </trkpt>
      <trkpt lat="43.68989" lon="7.01759">
        <ele>368.6</ele>
        <time>2011-11-24T11:43:52Z</time>
      </trkpt>
      <trkpt lat="43.68994" lon="7.01752">
        <ele>369.3</ele>
        <time>2011-11-24T11:43:55Z</time>
      </trkpt>
      <trkpt lat="43.68998" lon="7.01747">
        <ele>369.1</ele>
        <time>2011-11-24T11:43:58Z</time>
      </trkpt>
      <trkpt lat="43.69001" lon="7.01742">
        <ele>368.7</ele>
        <time>2011-11-24T11:44:00Z</time>
      </trkpt>
      <trkpt lat="43.69004" lon="7.01736">
        <ele>369.3</ele>
        <time>2011-11-24T11:44:03Z</time>
      </trkpt>
      <trkpt lat="43.69008" lon="7.01729">
        <ele>370.2</ele>
        <time>2011-11-24T11:44:06Z</time>
      </trkpt>
      <trkpt lat="43.69012" lon="7.01724">
        <ele>370.3</ele>
        <time>2011-11-24T11:44:08Z</time>
      </trkpt>
      <trkpt lat="43.69015" lon="7.01719">
        <ele>372.3</ele>
        <time>2011-11-24T11:44:11Z</time>
      </trkpt>
      <trkpt lat="43.69018" lon="7.01712">
        <ele>373.9</ele>
        <time>2011-11-24T11:44:14Z</time>
      </trkpt>
      <trkpt lat="43.69021" lon="7.01706">
        <ele>370.5</ele>
        <time>2011-11-24T11:44:16Z</time>
      </trkpt>
      <trkpt lat="43.69024" lon="7.01699">
        <ele>368.4</ele>
        <time>2011-11-24T11:44:18Z</time>
      </trkpt>
      <trkpt lat="43.69028" lon="7.01689">
        <ele>364.3</ele>
        <time>2011-11-24T11:44:20Z</time>
      </trkpt>
      <trkpt lat="43.69031" lon="7.01682">
        <ele>363.8</ele>
        <time>2011-11-24T11:44:21Z</time>
      </trkpt>
      <trkpt lat="43.69036" lon="7.01687">
        <ele>368.5</ele>
        <time>2011-11-24T11:44:24Z</time>
      </trkpt>
      <trkpt lat="43.6904" lon="7.01686">
        <ele>370.5</ele>
        <time>2011-11-24T11:44:27Z</time>
      </trkpt>
      <trkpt lat="43.69046" lon="7.01684">
        <ele>369.9</ele>
        <time>2011-11-24T11:44:30Z</time>
      </trkpt>
      <trkpt lat="43.69052" lon="7.01683">
        <ele>370.8</ele>
        <time>2011-11-24T11:44:33Z</time>
      </trkpt>
      <trkpt lat="43.69057" lon="7.0168">
        <ele>371.5</ele>
        <time>2011-11-24T11:44:36Z</time>
      </trkpt>
      <trkpt lat="43.69061" lon="7.01675">
        <ele>372.2</ele>
        <time>2011-11-24T11:44:39Z</time>
      </trkpt>
      <trkpt lat="43.69065" lon="7.01671">
        <ele>372.8</ele>
        <time>2011-11-24T11:44:41Z</time>
      </trkpt>
      <trkpt lat="43.6907" lon="7.01664">
        <ele>374.2</ele>
        <time>2011-11-24T11:44:44Z</time>
      </trkpt>
      <trkpt lat="43.69074" lon="7.01658">
        <ele>374.9</ele>
        <time>2011-11-24T11:44:47Z</time>
      </trkpt>
      <trkpt lat="43.69077" lon="7.01652">
        <ele>375.3</ele>
        <time>2011-11-24T11:44:49Z</time>
      </trkpt>
      <trkpt lat="43.69082" lon="7.01645">
        <ele>374.8</ele>
        <time>2011-11-24T11:44:52Z</time>
      </trkpt>
      <trkpt lat="43.69086" lon="7.0164">
        <ele>375.2</ele>
        <time>2011-11-24T11:44:54Z</time>
      </trkpt>
      <trkpt lat="43.69091" lon="7.0164">
        <ele>383.5</ele>
        <time>2011-11-24T11:44:57Z</time>
      </trkpt>
      <trkpt lat="43.69097" lon="7.01637">
        <ele>384.8</ele>
        <time>2011-11-24T11:44:59Z</time>
      </trkpt>
      <trkpt lat="43.69101" lon="7.01628">
        <ele>383.6</ele>
        <time>2011-11-24T11:45:02Z</time>
      </trkpt>
      <trkpt lat="43.69103" lon="7.01622">
        <ele>384.5</ele>
        <time>2011-11-24T11:45:04Z</time>
      </trkpt>
      <trkpt lat="43.69106" lon="7.01616">
        <ele>384.8</ele>
        <time>2011-11-24T11:45:06Z</time>
      </trkpt>
      <trkpt lat="43.69107" lon="7.01608">
        <ele>386.3</ele>
        <time>2011-11-24T11:45:08Z</time>
      </trkpt>
      <trkpt lat="43.69106" lon="7.01599">
        <ele>388.3</ele>
        <time>2011-11-24T11:45:11Z</time>
      </trkpt>
      <trkpt lat="43.69106" lon="7.0159">
        <ele>389.5</ele>
        <time>2011-11-24T11:45:14Z</time>
      </trkpt>
      <trkpt lat="43.69106" lon="7.01581">
        <ele>390.1</ele>
        <time>2011-11-24T11:45:17Z</time>
      </trkpt>
      <trkpt lat="43.69106" lon="7.01575">
        <ele>389</ele>
        <time>2011-11-24T11:45:19Z</time>
      </trkpt>
      <trkpt lat="43.69107" lon="7.01566">
        <ele>389</ele>
        <time>2011-11-24T11:45:22Z</time>
      </trkpt>
      <trkpt lat="43.69108" lon="7.01558">
        <ele>388.1</ele>
        <time>2011-11-24T11:45:25Z</time>
      </trkpt>
      <trkpt lat="43.6911" lon="7.01552">
        <ele>387.6</ele>
        <time>2011-11-24T11:45:27Z</time>
      </trkpt>
      <trkpt lat="43.69112" lon="7.01544">
        <ele>386</ele>
        <time>2011-11-24T11:45:29Z</time>
      </trkpt>
      <trkpt lat="43.69114" lon="7.01536">
        <ele>386</ele>
        <time>2011-11-24T11:45:32Z</time>
      </trkpt>
      <trkpt lat="43.69117" lon="7.01528">
        <ele>387.8</ele>
        <time>2011-11-24T11:45:35Z</time>
      </trkpt>
      <trkpt lat="43.69119" lon="7.0152">
        <ele>389.1</ele>
        <time>2011-11-24T11:45:38Z</time>
      </trkpt>
      <trkpt lat="43.6912" lon="7.01512">
        <ele>389.4</ele>
        <time>2011-11-24T11:45:41Z</time>
      </trkpt>
      <trkpt lat="43.69118" lon="7.01505">
        <ele>390.7</ele>
        <time>2011-11-24T11:45:44Z</time>
      </trkpt>
      <trkpt lat="43.69113" lon="7.015">
        <ele>391.2</ele>
        <time>2011-11-24T11:45:47Z</time>
      </trkpt>
      <trkpt lat="43.69106" lon="7.01495">
        <ele>386.5</ele>
        <time>2011-11-24T11:45:50Z</time>
      </trkpt>
      <trkpt lat="43.69101" lon="7.01492">
        <ele>385.6</ele>
        <time>2011-11-24T11:45:52Z</time>
      </trkpt>
      <trkpt lat="43.69099" lon="7.01485">
        <ele>386.5</ele>
        <time>2011-11-24T11:45:54Z</time>
      </trkpt>
      <trkpt lat="43.69098" lon="7.01476">
        <ele>387.4</ele>
        <time>2011-11-24T11:45:57Z</time>
      </trkpt>
      <trkpt lat="43.69096" lon="7.01469">
        <ele>387.8</ele>
        <time>2011-11-24T11:45:59Z</time>
      </trkpt>
      <trkpt lat="43.69095" lon="7.01463">
        <ele>388.7</ele>
        <time>2011-11-24T11:46:01Z</time>
      </trkpt>
      <trkpt lat="43.69093" lon="7.01455">
        <ele>388.9</ele>
        <time>2011-11-24T11:46:03Z</time>
      </trkpt>
      <trkpt lat="43.6909" lon="7.0145">
        <ele>389.8</ele>
        <time>2011-11-24T11:46:05Z</time>
      </trkpt>
      <trkpt lat="43.69086" lon="7.01444">
        <ele>388.9</ele>
        <time>2011-11-24T11:46:07Z</time>
      </trkpt>
      <trkpt lat="43.69082" lon="7.01438">
        <ele>388.4</ele>
        <time>2011-11-24T11:46:09Z</time>
      </trkpt>
      <trkpt lat="43.6908" lon="7.0143">
        <ele>394.7</ele>
        <time>2011-11-24T11:46:12Z</time>
      </trkpt>
      <trkpt lat="43.69078" lon="7.01424">
        <ele>398</ele>
        <time>2011-11-24T11:46:15Z</time>
      </trkpt>
      <trkpt lat="43.69075" lon="7.01418">
        <ele>397.3</ele>
        <time>2011-11-24T11:46:17Z</time>
      </trkpt>
      <trkpt lat="43.69072" lon="7.0141">
        <ele>397.3</ele>
        <time>2011-11-24T11:46:19Z</time>
      </trkpt>
      <trkpt lat="43.6907" lon="7.01404">
        <ele>397.1</ele>
        <time>2011-11-24T11:46:21Z</time>
      </trkpt>
      <trkpt lat="43.69066" lon="7.01397">
        <ele>399.1</ele>
        <time>2011-11-24T11:46:23Z</time>
      </trkpt>
      <trkpt lat="43.69063" lon="7.01391">
        <ele>399.2</ele>
        <time>2011-11-24T11:46:25Z</time>
      </trkpt>
      <trkpt lat="43.69061" lon="7.01385">
        <ele>399.4</ele>
        <time>2011-11-24T11:46:27Z</time>
      </trkpt>
      <trkpt lat="43.69061" lon="7.01378">
        <ele>399.7</ele>
        <time>2011-11-24T11:46:30Z</time>
      </trkpt>
      <trkpt lat="43.69058" lon="7.01373">
        <ele>399.6</ele>
        <time>2011-11-24T11:46:32Z</time>
      </trkpt>
      <trkpt lat="43.6905" lon="7.01369">
        <ele>396.4</ele>
        <time>2011-11-24T11:46:34Z</time>
      </trkpt>
      <trkpt lat="43.69044" lon="7.01366">
        <ele>395.1</ele>
        <time>2011-11-24T11:46:36Z</time>
      </trkpt>
      <trkpt lat="43.69039" lon="7.01363">
        <ele>394.5</ele>
        <time>2011-11-24T11:46:38Z</time>
      </trkpt>
      <trkpt lat="43.69034" lon="7.01358">
        <ele>395.9</ele>
        <time>2011-11-24T11:46:40Z</time>
      </trkpt>
      <trkpt lat="43.6903" lon="7.01354">
        <ele>396.5</ele>
        <time>2011-11-24T11:46:42Z</time>
      </trkpt>
      <trkpt lat="43.69025" lon="7.01348">
        <ele>396.7</ele>
        <time>2011-11-24T11:46:44Z</time>
      </trkpt>
      <trkpt lat="43.6902" lon="7.01344">
        <ele>396.5</ele>
        <time>2011-11-24T11:46:46Z</time>
      </trkpt>
      <trkpt lat="43.69015" lon="7.01338">
        <ele>396.4</ele>
        <time>2011-11-24T11:46:48Z</time>
      </trkpt>
      <trkpt lat="43.69011" lon="7.01333">
        <ele>396.6</ele>
        <time>2011-11-24T11:46:50Z</time>
      </trkpt>
      <trkpt lat="43.69008" lon="7.01328">
        <ele>396.5</ele>
        <time>2011-11-24T11:46:52Z</time>
      </trkpt>
      <trkpt lat="43.69004" lon="7.01323">
        <ele>396.4</ele>
        <time>2011-11-24T11:46:54Z</time>
      </trkpt>
      <trkpt lat="43.68999" lon="7.01319">
        <ele>396.5</ele>
        <time>2011-11-24T11:46:56Z</time>
      </trkpt>
      <trkpt lat="43.68994" lon="7.01316">
        <ele>396</ele>
        <time>2011-11-24T11:46:58Z</time>
      </trkpt>
      <trkpt lat="43.68989" lon="7.01312">
        <ele>396.2</ele>
        <time>2011-11-24T11:47:00Z</time>
      </trkpt>
      <trkpt lat="43.68984" lon="7.01307">
        <ele>396.1</ele>
        <time>2011-11-24T11:47:02Z</time>
      </trkpt>
      <trkpt lat="43.68978" lon="7.01302">
        <ele>395.9</ele>
        <time>2011-11-24T11:47:04Z</time>
      </trkpt>
      <trkpt lat="43.68974" lon="7.01296">
        <ele>398.6</ele>
        <time>2011-11-24T11:47:06Z</time>
      </trkpt>
      <trkpt lat="43.6897" lon="7.01289">
        <ele>398.7</ele>
        <time>2011-11-24T11:47:08Z</time>
      </trkpt>
      <trkpt lat="43.68965" lon="7.0128">
        <ele>399.3</ele>
        <time>2011-11-24T11:47:10Z</time>
      </trkpt>
      <trkpt lat="43.6896" lon="7.01273">
        <ele>395</ele>
        <time>2011-11-24T11:47:12Z</time>
      </trkpt>
      <trkpt lat="43.68956" lon="7.01266">
        <ele>394.5</ele>
        <time>2011-11-24T11:47:14Z</time>
      </trkpt>
      <trkpt lat="43.68952" lon="7.01257">
        <ele>394.8</ele>
        <time>2011-11-24T11:47:16Z</time>
      </trkpt>
      <trkpt lat="43.68948" lon="7.01247">
        <ele>396.4</ele>
        <time>2011-11-24T11:47:18Z</time>
      </trkpt>
      <trkpt lat="43.68946" lon="7.01238">
        <ele>396.7</ele>
        <time>2011-11-24T11:47:20Z</time>
      </trkpt>
      <trkpt lat="43.68941" lon="7.01236">
        <ele>400.8</ele>
        <time>2011-11-24T11:47:23Z</time>
      </trkpt>
      <trkpt lat="43.68936" lon="7.01233">
        <ele>402.4</ele>
        <time>2011-11-24T11:47:25Z</time>
      </trkpt>
      <trkpt lat="43.68931" lon="7.01231">
        <ele>402.2</ele>
        <time>2011-11-24T11:47:26Z</time>
      </trkpt>
      <trkpt lat="43.68927" lon="7.0123">
        <ele>401.3</ele>
        <time>2011-11-24T11:47:27Z</time>
      </trkpt>
      <trkpt lat="43.68919" lon="7.01227">
        <ele>401.8</ele>
        <time>2011-11-24T11:47:29Z</time>
      </trkpt>
      <trkpt lat="43.68912" lon="7.01225">
        <ele>402.7</ele>
        <time>2011-11-24T11:47:31Z</time>
      </trkpt>
      <trkpt lat="43.68907" lon="7.01223">
        <ele>402.5</ele>
        <time>2011-11-24T11:47:33Z</time>
      </trkpt>
      <trkpt lat="43.689" lon="7.01221">
        <ele>404.6</ele>
        <time>2011-11-24T11:47:35Z</time>
      </trkpt>
      <trkpt lat="43.68895" lon="7.01218">
        <ele>404.8</ele>
        <time>2011-11-24T11:47:37Z</time>
      </trkpt>
      <trkpt lat="43.68888" lon="7.01217">
        <ele>408.1</ele>
        <time>2011-11-24T11:47:40Z</time>
      </trkpt>
      <trkpt lat="43.68882" lon="7.01219">
        <ele>408.4</ele>
        <time>2011-11-24T11:47:42Z</time>
      </trkpt>
      <trkpt lat="43.68876" lon="7.01222">
        <ele>408.2</ele>
        <time>2011-11-24T11:47:45Z</time>
      </trkpt>
      <trkpt lat="43.68871" lon="7.01226">
        <ele>408.6</ele>
        <time>2011-11-24T11:47:47Z</time>
      </trkpt>
      <trkpt lat="43.68864" lon="7.01232">
        <ele>409.1</ele>
        <time>2011-11-24T11:47:49Z</time>
      </trkpt>
      <trkpt lat="43.68859" lon="7.01244">
        <ele>410</ele>
        <time>2011-11-24T11:47:51Z</time>
      </trkpt>
      <trkpt lat="43.68855" lon="7.01253">
        <ele>411.1</ele>
        <time>2011-11-24T11:47:52Z</time>
      </trkpt>
      <trkpt lat="43.6885" lon="7.01256">
        <ele>411.3</ele>
        <time>2011-11-24T11:47:53Z</time>
      </trkpt>
      <trkpt lat="43.68844" lon="7.01261">
        <ele>411.3</ele>
        <time>2011-11-24T11:47:54Z</time>
      </trkpt>
      <trkpt lat="43.68842" lon="7.01267">
        <ele>415.1</ele>
        <time>2011-11-24T11:47:55Z</time>
      </trkpt>
      <trkpt lat="43.68839" lon="7.01279">
        <ele>415.9</ele>
        <time>2011-11-24T11:47:57Z</time>
      </trkpt>
      <trkpt lat="43.68835" lon="7.01288">
        <ele>415.7</ele>
        <time>2011-11-24T11:47:59Z</time>
      </trkpt>
      <trkpt lat="43.6883" lon="7.01297">
        <ele>416.1</ele>
        <time>2011-11-24T11:48:01Z</time>
      </trkpt>
      <trkpt lat="43.68826" lon="7.01306">
        <ele>417.2</ele>
        <time>2011-11-24T11:48:03Z</time>
      </trkpt>
      <trkpt lat="43.68823" lon="7.01316">
        <ele>417</ele>
        <time>2011-11-24T11:48:05Z</time>
      </trkpt>
      <trkpt lat="43.68822" lon="7.01322">
        <ele>415.9</ele>
        <time>2011-11-24T11:48:06Z</time>
      </trkpt>
      <trkpt lat="43.68813" lon="7.01316">
        <ele>411.9</ele>
        <time>2011-11-24T11:48:08Z</time>
      </trkpt>
      <trkpt lat="43.68807" lon="7.01312">
        <ele>412.1</ele>
        <time>2011-11-24T11:48:09Z</time>
      </trkpt>
      <trkpt lat="43.68799" lon="7.01307">
        <ele>412.1</ele>
        <time>2011-11-24T11:48:10Z</time>
      </trkpt>
      <trkpt lat="43.6879" lon="7.01302">
        <ele>411.6</ele>
        <time>2011-11-24T11:48:11Z</time>
      </trkpt>
      <trkpt lat="43.6878" lon="7.01297">
        <ele>411.6</ele>
        <time>2011-11-24T11:48:12Z</time>
      </trkpt>
      <trkpt lat="43.68771" lon="7.01292">
        <ele>411.2</ele>
        <time>2011-11-24T11:48:13Z</time>
      </trkpt>
      <trkpt lat="43.68762" lon="7.01285">
        <ele>411.2</ele>
        <time>2011-11-24T11:48:14Z</time>
      </trkpt>
      <trkpt lat="43.68753" lon="7.01279">
        <ele>410.5</ele>
        <time>2011-11-24T11:48:15Z</time>
      </trkpt>
      <trkpt lat="43.68744" lon="7.01277">
        <ele>410.2</ele>
        <time>2011-11-24T11:48:16Z</time>
      </trkpt>
      <trkpt lat="43.68735" lon="7.01278">
        <ele>407.5</ele>
        <time>2011-11-24T11:48:18Z</time>
      </trkpt>
      <trkpt lat="43.68732" lon="7.01272">
        <ele>403.3</ele>
        <time>2011-11-24T11:48:21Z</time>
      </trkpt>
      <trkpt lat="43.68735" lon="7.01267">
        <ele>407.4</ele>
        <time>2011-11-24T11:48:34Z</time>
      </trkpt>
      <trkpt lat="43.68735" lon="7.01261">
        <ele>405.2</ele>
        <time>2011-11-24T11:48:44Z</time>
      </trkpt>
      <trkpt lat="43.68735" lon="7.01255">
        <ele>402.2</ele>
        <time>2011-11-24T11:48:54Z</time>
      </trkpt>
      <trkpt lat="43.68734" lon="7.01248">
        <ele>401</ele>
        <time>2011-11-24T11:48:59Z</time>
      </trkpt>
      <trkpt lat="43.68736" lon="7.01242">
        <ele>407.9</ele>
        <time>2011-11-24T11:49:05Z</time>
      </trkpt>
      <trkpt lat="43.68734" lon="7.01237">
        <ele>410.3</ele>
        <time>2011-11-24T11:49:10Z</time>
      </trkpt>
      <trkpt lat="43.6873" lon="7.01231">
        <ele>409.6</ele>
        <time>2011-11-24T11:49:14Z</time>
      </trkpt>
      <trkpt lat="43.68726" lon="7.01226">
        <ele>409.4</ele>
        <time>2011-11-24T11:49:18Z</time>
      </trkpt>
      <trkpt lat="43.68723" lon="7.01221">
        <ele>410.3</ele>
        <time>2011-11-24T11:49:23Z</time>
      </trkpt>
      <trkpt lat="43.68719" lon="7.01216">
        <ele>414.3</ele>
        <time>2011-11-24T11:49:29Z</time>
      </trkpt>
      <trkpt lat="43.68715" lon="7.0121">
        <ele>416</ele>
        <time>2011-11-24T11:49:46Z</time>
      </trkpt>
      <trkpt lat="43.68712" lon="7.01205">
        <ele>414.2</ele>
        <time>2011-11-24T11:49:49Z</time>
      </trkpt>
      <trkpt lat="43.68709" lon="7.01199">
        <ele>415.4</ele>
        <time>2011-11-24T11:49:54Z</time>
      </trkpt>
      <trkpt lat="43.68704" lon="7.01195">
        <ele>418.4</ele>
        <time>2011-11-24T11:49:58Z</time>
      </trkpt>
      <trkpt lat="43.68701" lon="7.0119">
        <ele>423.7</ele>
        <time>2011-11-24T11:50:03Z</time>
      </trkpt>
      <trkpt lat="43.68695" lon="7.01186">
        <ele>425.6</ele>
        <time>2011-11-24T11:50:08Z</time>
      </trkpt>
      <trkpt lat="43.6869" lon="7.01183">
        <ele>425.5</ele>
        <time>2011-11-24T11:50:12Z</time>
      </trkpt>
      <trkpt lat="43.68686" lon="7.01178">
        <ele>424.2</ele>
        <time>2011-11-24T11:50:19Z</time>
      </trkpt>
      <trkpt lat="43.68683" lon="7.01174">
        <ele>423.7</ele>
        <time>2011-11-24T11:50:24Z</time>
      </trkpt>
      <trkpt lat="43.68678" lon="7.01169">
        <ele>424.8</ele>
        <time>2011-11-24T11:50:32Z</time>
      </trkpt>
      <trkpt lat="43.68674" lon="7.01162">
        <ele>425.1</ele>
        <time>2011-11-24T11:50:37Z</time>
      </trkpt>
      <trkpt lat="43.68671" lon="7.01158">
        <ele>424.4</ele>
        <time>2011-11-24T11:50:40Z</time>
      </trkpt>
      <trkpt lat="43.68669" lon="7.01149">
        <ele>422</ele>
        <time>2011-11-24T11:50:44Z</time>
      </trkpt>
      <trkpt lat="43.68666" lon="7.01144">
        <ele>421</ele>
        <time>2011-11-24T11:50:48Z</time>
      </trkpt>
      <trkpt lat="43.68662" lon="7.0114">
        <ele>419.6</ele>
        <time>2011-11-24T11:50:51Z</time>
      </trkpt>
      <trkpt lat="43.68659" lon="7.01136">
        <ele>420.3</ele>
        <time>2011-11-24T11:50:55Z</time>
      </trkpt>
      <trkpt lat="43.68656" lon="7.01131">
        <ele>420</ele>
        <time>2011-11-24T11:50:58Z</time>
      </trkpt>
      <trkpt lat="43.68652" lon="7.01126">
        <ele>420.8</ele>
        <time>2011-11-24T11:51:02Z</time>
      </trkpt>
      <trkpt lat="43.68648" lon="7.01122">
        <ele>420.8</ele>
        <time>2011-11-24T11:51:05Z</time>
      </trkpt>
      <trkpt lat="43.68643" lon="7.0112">
        <ele>420.7</ele>
        <time>2011-11-24T11:51:08Z</time>
      </trkpt>
      <trkpt lat="43.68638" lon="7.01118">
        <ele>418.8</ele>
        <time>2011-11-24T11:51:12Z</time>
      </trkpt>
      <trkpt lat="43.68638" lon="7.01111">
        <ele>420.7</ele>
        <time>2011-11-24T11:51:15Z</time>
      </trkpt>
      <trkpt lat="43.68641" lon="7.01106">
        <ele>424.5</ele>
        <time>2011-11-24T11:51:31Z</time>
      </trkpt>
      <trkpt lat="43.68644" lon="7.011">
        <ele>425.5</ele>
        <time>2011-11-24T11:51:40Z</time>
      </trkpt>
      <trkpt lat="43.68648" lon="7.01095">
        <ele>424.8</ele>
        <time>2011-11-24T11:51:43Z</time>
      </trkpt>
      <trkpt lat="43.6865" lon="7.01089">
        <ele>426.4</ele>
        <time>2011-11-24T11:51:46Z</time>
      </trkpt>
      <trkpt lat="43.68654" lon="7.0108">
        <ele>425.7</ele>
        <time>2011-11-24T11:51:49Z</time>
      </trkpt>
      <trkpt lat="43.68656" lon="7.01074">
        <ele>424</ele>
        <time>2011-11-24T11:51:51Z</time>
      </trkpt>
      <trkpt lat="43.68658" lon="7.01069">
        <ele>423.9</ele>
        <time>2011-11-24T11:51:53Z</time>
      </trkpt>
      <trkpt lat="43.68661" lon="7.01063">
        <ele>423.5</ele>
        <time>2011-11-24T11:51:55Z</time>
      </trkpt>
      <trkpt lat="43.68663" lon="7.01056">
        <ele>424</ele>
        <time>2011-11-24T11:51:57Z</time>
      </trkpt>
      <trkpt lat="43.68665" lon="7.01049">
        <ele>424.2</ele>
        <time>2011-11-24T11:51:59Z</time>
      </trkpt>
      <trkpt lat="43.68668" lon="7.01041">
        <ele>424.7</ele>
        <time>2011-11-24T11:52:03Z</time>
      </trkpt>
      <trkpt lat="43.68669" lon="7.01035">
        <ele>426.1</ele>
        <time>2011-11-24T11:52:05Z</time>
      </trkpt>
      <trkpt lat="43.68672" lon="7.01028">
        <ele>427.9</ele>
        <time>2011-11-24T11:52:08Z</time>
      </trkpt>
      <trkpt lat="43.68674" lon="7.0102">
        <ele>424.4</ele>
        <time>2011-11-24T11:52:13Z</time>
      </trkpt>
      <trkpt lat="43.68676" lon="7.01013">
        <ele>423.6</ele>
        <time>2011-11-24T11:52:16Z</time>
      </trkpt>
      <trkpt lat="43.68678" lon="7.01005">
        <ele>424.8</ele>
        <time>2011-11-24T11:52:19Z</time>
      </trkpt>
      <trkpt lat="43.6868" lon="7.00999">
        <ele>427.5</ele>
        <time>2011-11-24T11:52:28Z</time>
      </trkpt>
      <trkpt lat="43.68682" lon="7.00993">
        <ele>429.4</ele>
        <time>2011-11-24T11:52:44Z</time>
      </trkpt>
      <trkpt lat="43.68687" lon="7.00986">
        <ele>429.3</ele>
        <time>2011-11-24T11:52:47Z</time>
      </trkpt>
      <trkpt lat="43.68691" lon="7.00979">
        <ele>426.4</ele>
        <time>2011-11-24T11:52:50Z</time>
      </trkpt>
      <trkpt lat="43.68694" lon="7.00973">
        <ele>425.4</ele>
        <time>2011-11-24T11:52:52Z</time>
      </trkpt>
      <trkpt lat="43.68698" lon="7.00969">
        <ele>429.2</ele>
        <time>2011-11-24T11:52:55Z</time>
      </trkpt>
      <trkpt lat="43.687" lon="7.00963">
        <ele>430.7</ele>
        <time>2011-11-24T11:52:57Z</time>
      </trkpt>
      <trkpt lat="43.68702" lon="7.00956">
        <ele>431.3</ele>
        <time>2011-11-24T11:52:59Z</time>
      </trkpt>
      <trkpt lat="43.68705" lon="7.0095">
        <ele>432</ele>
        <time>2011-11-24T11:53:01Z</time>
      </trkpt>
      <trkpt lat="43.68709" lon="7.00943">
        <ele>431.7</ele>
        <time>2011-11-24T11:53:04Z</time>
      </trkpt>
      <trkpt lat="43.68711" lon="7.00936">
        <ele>432.9</ele>
        <time>2011-11-24T11:53:08Z</time>
      </trkpt>
      <trkpt lat="43.68715" lon="7.00931">
        <ele>435.1</ele>
        <time>2011-11-24T11:53:10Z</time>
      </trkpt>
      <trkpt lat="43.68717" lon="7.00925">
        <ele>435.9</ele>
        <time>2011-11-24T11:53:12Z</time>
      </trkpt>
      <trkpt lat="43.68719" lon="7.00919">
        <ele>437.5</ele>
        <time>2011-11-24T11:53:14Z</time>
      </trkpt>
      <trkpt lat="43.68722" lon="7.00911">
        <ele>438.9</ele>
        <time>2011-11-24T11:53:17Z</time>
      </trkpt>
      <trkpt lat="43.68725" lon="7.00905">
        <ele>439.1</ele>
        <time>2011-11-24T11:53:20Z</time>
      </trkpt>
      <trkpt lat="43.68726" lon="7.00897">
        <ele>437</ele>
        <time>2011-11-24T11:53:23Z</time>
      </trkpt>
      <trkpt lat="43.68729" lon="7.00891">
        <ele>440.3</ele>
        <time>2011-11-24T11:53:26Z</time>
      </trkpt>
      <trkpt lat="43.68732" lon="7.00884">
        <ele>440.9</ele>
        <time>2011-11-24T11:53:29Z</time>
      </trkpt>
      <trkpt lat="43.68736" lon="7.00876">
        <ele>439.7</ele>
        <time>2011-11-24T11:53:32Z</time>
      </trkpt>
      <trkpt lat="43.68739" lon="7.00868">
        <ele>439.4</ele>
        <time>2011-11-24T11:53:35Z</time>
      </trkpt>
      <trkpt lat="43.6874" lon="7.00862">
        <ele>439.4</ele>
        <time>2011-11-24T11:53:37Z</time>
      </trkpt>
      <trkpt lat="43.68744" lon="7.00857">
        <ele>440.6</ele>
        <time>2011-11-24T11:53:39Z</time>
      </trkpt>
      <trkpt lat="43.6875" lon="7.00853">
        <ele>442.6</ele>
        <time>2011-11-24T11:53:42Z</time>
      </trkpt>
      <trkpt lat="43.68754" lon="7.00847">
        <ele>444.4</ele>
        <time>2011-11-24T11:53:46Z</time>
      </trkpt>
      <trkpt lat="43.68759" lon="7.00842">
        <ele>444.8</ele>
        <time>2011-11-24T11:53:49Z</time>
      </trkpt>
      <trkpt lat="43.68762" lon="7.00838">
        <ele>445</ele>
        <time>2011-11-24T11:53:51Z</time>
      </trkpt>
      <trkpt lat="43.68767" lon="7.00833">
        <ele>445.4</ele>
        <time>2011-11-24T11:53:54Z</time>
      </trkpt>
      <trkpt lat="43.68771" lon="7.00825">
        <ele>446.8</ele>
        <time>2011-11-24T11:53:57Z</time>
      </trkpt>
      <trkpt lat="43.68773" lon="7.00817">
        <ele>447.1</ele>
        <time>2011-11-24T11:54:00Z</time>
      </trkpt>
      <trkpt lat="43.68776" lon="7.00809">
        <ele>448</ele>
        <time>2011-11-24T11:54:03Z</time>
      </trkpt>
      <trkpt lat="43.68777" lon="7.00802">
        <ele>448.5</ele>
        <time>2011-11-24T11:54:05Z</time>
      </trkpt>
      <trkpt lat="43.6878" lon="7.00795">
        <ele>451.8</ele>
        <time>2011-11-24T11:54:08Z</time>
      </trkpt>
      <trkpt lat="43.68782" lon="7.00788">
        <ele>453.7</ele>
        <time>2011-11-24T11:54:10Z</time>
      </trkpt>
      <trkpt lat="43.68784" lon="7.0078">
        <ele>456.4</ele>
        <time>2011-11-24T11:54:13Z</time>
      </trkpt>
      <trkpt lat="43.68784" lon="7.00774">
        <ele>457</ele>
        <time>2011-11-24T11:54:15Z</time>
      </trkpt>
      <trkpt lat="43.68788" lon="7.00768">
        <ele>455</ele>
        <time>2011-11-24T11:54:18Z</time>
      </trkpt>
      <trkpt lat="43.68789" lon="7.00762">
        <ele>457</ele>
        <time>2011-11-24T11:54:20Z</time>
      </trkpt>
      <trkpt lat="43.68791" lon="7.00755">
        <ele>457.1</ele>
        <time>2011-11-24T11:54:22Z</time>
      </trkpt>
      <trkpt lat="43.68792" lon="7.00749">
        <ele>457.9</ele>
        <time>2011-11-24T11:54:24Z</time>
      </trkpt>
      <trkpt lat="43.68796" lon="7.0074">
        <ele>457.3</ele>
        <time>2011-11-24T11:54:26Z</time>
      </trkpt>
      <trkpt lat="43.68799" lon="7.0073">
        <ele>456.3</ele>
        <time>2011-11-24T11:54:28Z</time>
      </trkpt>
      <trkpt lat="43.688" lon="7.00723">
        <ele>458</ele>
        <time>2011-11-24T11:54:32Z</time>
      </trkpt>
      <trkpt lat="43.68804" lon="7.00717">
        <ele>458.8</ele>
        <time>2011-11-24T11:54:34Z</time>
      </trkpt>
      <trkpt lat="43.68806" lon="7.00708">
        <ele>459</ele>
        <time>2011-11-24T11:54:36Z</time>
      </trkpt>
      <trkpt lat="43.68809" lon="7.00699">
        <ele>458.5</ele>
        <time>2011-11-24T11:54:38Z</time>
      </trkpt>
      <trkpt lat="43.68812" lon="7.00684">
        <ele>458.6</ele>
        <time>2011-11-24T11:54:40Z</time>
      </trkpt>
      <trkpt lat="43.68815" lon="7.00678">
        <ele>457.9</ele>
        <time>2011-11-24T11:54:41Z</time>
      </trkpt>
      <trkpt lat="43.68818" lon="7.00668">
        <ele>458</ele>
        <time>2011-11-24T11:54:43Z</time>
      </trkpt>
      <trkpt lat="43.6882" lon="7.00661">
        <ele>455.8</ele>
        <time>2011-11-24T11:54:45Z</time>
      </trkpt>
      <trkpt lat="43.68821" lon="7.00652">
        <ele>454.8</ele>
        <time>2011-11-24T11:54:47Z</time>
      </trkpt>
      <trkpt lat="43.68822" lon="7.00641">
        <ele>454.6</ele>
        <time>2011-11-24T11:54:49Z</time>
      </trkpt>
      <trkpt lat="43.68823" lon="7.00632">
        <ele>454.4</ele>
        <time>2011-11-24T11:54:51Z</time>
      </trkpt>
      <trkpt lat="43.68821" lon="7.00622">
        <ele>454.2</ele>
        <time>2011-11-24T11:54:53Z</time>
      </trkpt>
      <trkpt lat="43.68818" lon="7.00616">
        <ele>454.1</ele>
        <time>2011-11-24T11:54:54Z</time>
      </trkpt>
      <trkpt lat="43.68816" lon="7.0061">
        <ele>454.8</ele>
        <time>2011-11-24T11:54:55Z</time>
      </trkpt>
      <trkpt lat="43.68814" lon="7.00597">
        <ele>447.5</ele>
        <time>2011-11-24T11:54:57Z</time>
      </trkpt>
      <trkpt lat="43.68812" lon="7.0059">
        <ele>446.3</ele>
        <time>2011-11-24T11:54:58Z</time>
      </trkpt>
      <trkpt lat="43.6881" lon="7.00582">
        <ele>445.4</ele>
        <time>2011-11-24T11:55:00Z</time>
      </trkpt>
      <trkpt lat="43.68808" lon="7.00576">
        <ele>445.8</ele>
        <time>2011-11-24T11:55:02Z</time>
      </trkpt>
      <trkpt lat="43.68802" lon="7.00577">
        <ele>449.7</ele>
        <time>2011-11-24T11:55:06Z</time>
      </trkpt>
      <trkpt lat="43.68796" lon="7.0058">
        <ele>450</ele>
        <time>2011-11-24T11:55:07Z</time>
      </trkpt>
      <trkpt lat="43.6879" lon="7.00578">
        <ele>448.4</ele>
        <time>2011-11-24T11:55:09Z</time>
      </trkpt>
      <trkpt lat="43.68784" lon="7.00577">
        <ele>452.5</ele>
        <time>2011-11-24T11:55:12Z</time>
      </trkpt>
      <trkpt lat="43.68777" lon="7.00576">
        <ele>453.2</ele>
        <time>2011-11-24T11:55:14Z</time>
      </trkpt>
      <trkpt lat="43.68768" lon="7.00576">
        <ele>453.9</ele>
        <time>2011-11-24T11:55:16Z</time>
      </trkpt>
      <trkpt lat="43.68761" lon="7.00576">
        <ele>452.9</ele>
        <time>2011-11-24T11:55:18Z</time>
      </trkpt>
      <trkpt lat="43.68753" lon="7.00573">
        <ele>453.6</ele>
        <time>2011-11-24T11:55:20Z</time>
      </trkpt>
      <trkpt lat="43.68746" lon="7.0057">
        <ele>454.1</ele>
        <time>2011-11-24T11:55:22Z</time>
      </trkpt>
      <trkpt lat="43.68741" lon="7.00564">
        <ele>454.7</ele>
        <time>2011-11-24T11:55:24Z</time>
      </trkpt>
      <trkpt lat="43.68737" lon="7.00559">
        <ele>455.2</ele>
        <time>2011-11-24T11:55:26Z</time>
      </trkpt>
      <trkpt lat="43.6873" lon="7.00555">
        <ele>455.3</ele>
        <time>2011-11-24T11:55:28Z</time>
      </trkpt>
      <trkpt lat="43.68726" lon="7.00549">
        <ele>455.2</ele>
        <time>2011-11-24T11:55:30Z</time>
      </trkpt>
      <trkpt lat="43.6872" lon="7.00546">
        <ele>455.4</ele>
        <time>2011-11-24T11:55:32Z</time>
      </trkpt>
      <trkpt lat="43.68715" lon="7.00541">
        <ele>454.2</ele>
        <time>2011-11-24T11:55:34Z</time>
      </trkpt>
      <trkpt lat="43.68712" lon="7.00534">
        <ele>456.3</ele>
        <time>2011-11-24T11:55:36Z</time>
      </trkpt>
      <trkpt lat="43.6871" lon="7.00528">
        <ele>457.2</ele>
        <time>2011-11-24T11:55:38Z</time>
      </trkpt>
      <trkpt lat="43.68708" lon="7.00521">
        <ele>457.6</ele>
        <time>2011-11-24T11:55:40Z</time>
      </trkpt>
      <trkpt lat="43.68706" lon="7.00513">
        <ele>458.3</ele>
        <time>2011-11-24T11:55:42Z</time>
      </trkpt>
      <trkpt lat="43.68702" lon="7.00508">
        <ele>464</ele>
        <time>2011-11-24T11:55:44Z</time>
      </trkpt>
      <trkpt lat="43.68698" lon="7.00502">
        <ele>466.2</ele>
        <time>2011-11-24T11:55:46Z</time>
      </trkpt>
      <trkpt lat="43.68695" lon="7.00497">
        <ele>467.4</ele>
        <time>2011-11-24T11:55:48Z</time>
      </trkpt>
      <trkpt lat="43.68692" lon="7.00491">
        <ele>467.4</ele>
        <time>2011-11-24T11:55:50Z</time>
      </trkpt>
      <trkpt lat="43.6869" lon="7.00484">
        <ele>466</ele>
        <time>2011-11-24T11:55:53Z</time>
      </trkpt>
      <trkpt lat="43.68683" lon="7.00478">
        <ele>465.9</ele>
        <time>2011-11-24T11:55:55Z</time>
      </trkpt>
      <trkpt lat="43.68677" lon="7.00473">
        <ele>461.2</ele>
        <time>2011-11-24T11:55:56Z</time>
      </trkpt>
      <trkpt lat="43.68672" lon="7.00471">
        <ele>459.9</ele>
        <time>2011-11-24T11:55:57Z</time>
      </trkpt>
      <trkpt lat="43.68666" lon="7.00469">
        <ele>459.5</ele>
        <time>2011-11-24T11:55:58Z</time>
      </trkpt>
      <trkpt lat="43.6866" lon="7.00465">
        <ele>459</ele>
        <time>2011-11-24T11:55:59Z</time>
      </trkpt>
      <trkpt lat="43.68654" lon="7.00464">
        <ele>459.1</ele>
        <time>2011-11-24T11:56:00Z</time>
      </trkpt>
      <trkpt lat="43.68649" lon="7.00462">
        <ele>458.9</ele>
        <time>2011-11-24T11:56:01Z</time>
      </trkpt>
      <trkpt lat="43.68644" lon="7.0046">
        <ele>459.2</ele>
        <time>2011-11-24T11:56:02Z</time>
      </trkpt>
      <trkpt lat="43.68638" lon="7.00454">
        <ele>458</ele>
        <time>2011-11-24T11:56:03Z</time>
      </trkpt>
      <trkpt lat="43.68633" lon="7.00449">
        <ele>457.8</ele>
        <time>2011-11-24T11:56:04Z</time>
      </trkpt>
      <trkpt lat="43.68628" lon="7.00444">
        <ele>458.2</ele>
        <time>2011-11-24T11:56:05Z</time>
      </trkpt>
      <trkpt lat="43.68626" lon="7.00439">
        <ele>458.1</ele>
        <time>2011-11-24T11:56:06Z</time>
      </trkpt>
      <trkpt lat="43.68623" lon="7.00432">
        <ele>458.1</ele>
        <time>2011-11-24T11:56:07Z</time>
      </trkpt>
      <trkpt lat="43.68621" lon="7.00425">
        <ele>457.8</ele>
        <time>2011-11-24T11:56:08Z</time>
      </trkpt>
      <trkpt lat="43.68619" lon="7.00416">
        <ele>457.8</ele>
        <time>2011-11-24T11:56:09Z</time>
      </trkpt>
      <trkpt lat="43.68617" lon="7.00409">
        <ele>457.4</ele>
        <time>2011-11-24T11:56:10Z</time>
      </trkpt>
      <trkpt lat="43.68615" lon="7.00402">
        <ele>457.8</ele>
        <time>2011-11-24T11:56:11Z</time>
      </trkpt>
      <trkpt lat="43.68613" lon="7.00395">
        <ele>458.3</ele>
        <time>2011-11-24T11:56:12Z</time>
      </trkpt>
      <trkpt lat="43.6861" lon="7.00388">
        <ele>458.9</ele>
        <time>2011-11-24T11:56:13Z</time>
      </trkpt>
      <trkpt lat="43.68607" lon="7.0038">
        <ele>458.9</ele>
        <time>2011-11-24T11:56:14Z</time>
      </trkpt>
      <trkpt lat="43.68605" lon="7.00374">
        <ele>458.9</ele>
        <time>2011-11-24T11:56:15Z</time>
      </trkpt>
      <trkpt lat="43.68602" lon="7.00368">
        <ele>458.7</ele>
        <time>2011-11-24T11:56:16Z</time>
      </trkpt>
      <trkpt lat="43.68599" lon="7.00362">
        <ele>458.6</ele>
        <time>2011-11-24T11:56:17Z</time>
      </trkpt>
      <trkpt lat="43.68595" lon="7.00355">
        <ele>458.3</ele>
        <time>2011-11-24T11:56:18Z</time>
      </trkpt>
      <trkpt lat="43.68592" lon="7.00349">
        <ele>458.7</ele>
        <time>2011-11-24T11:56:19Z</time>
      </trkpt>
      <trkpt lat="43.6859" lon="7.00342">
        <ele>458.9</ele>
        <time>2011-11-24T11:56:20Z</time>
      </trkpt>
      <trkpt lat="43.68592" lon="7.00335">
        <ele>458.3</ele>
        <time>2011-11-24T11:56:21Z</time>
      </trkpt>
      <trkpt lat="43.68592" lon="7.00328">
        <ele>458.6</ele>
        <time>2011-11-24T11:56:22Z</time>
      </trkpt>
      <trkpt lat="43.68592" lon="7.00317">
        <ele>458.4</ele>
        <time>2011-11-24T11:56:24Z</time>
      </trkpt>
      <trkpt lat="43.68591" lon="7.00307">
        <ele>459.9</ele>
        <time>2011-11-24T11:56:26Z</time>
      </trkpt>
      <trkpt lat="43.68587" lon="7.00303">
        <ele>460</ele>
        <time>2011-11-24T11:56:28Z</time>
      </trkpt>
      <trkpt lat="43.68582" lon="7.00295">
        <ele>458.9</ele>
        <time>2011-11-24T11:56:30Z</time>
      </trkpt>
      <trkpt lat="43.68576" lon="7.00293">
        <ele>456.9</ele>
        <time>2011-11-24T11:56:31Z</time>
      </trkpt>
      <trkpt lat="43.68571" lon="7.00289">
        <ele>456.6</ele>
        <time>2011-11-24T11:56:32Z</time>
      </trkpt>
      <trkpt lat="43.68567" lon="7.00286">
        <ele>456.1</ele>
        <time>2011-11-24T11:56:33Z</time>
      </trkpt>
      <trkpt lat="43.68562" lon="7.00282">
        <ele>455.8</ele>
        <time>2011-11-24T11:56:34Z</time>
      </trkpt>
      <trkpt lat="43.68556" lon="7.0028">
        <ele>455.8</ele>
        <time>2011-11-24T11:56:35Z</time>
      </trkpt>
      <trkpt lat="43.68551" lon="7.00276">
        <ele>455.2</ele>
        <time>2011-11-24T11:56:36Z</time>
      </trkpt>
      <trkpt lat="43.68546" lon="7.00272">
        <ele>454.7</ele>
        <time>2011-11-24T11:56:37Z</time>
      </trkpt>
      <trkpt lat="43.6854" lon="7.0027">
        <ele>454.4</ele>
        <time>2011-11-24T11:56:38Z</time>
      </trkpt>
      <trkpt lat="43.68533" lon="7.00268">
        <ele>453.3</ele>
        <time>2011-11-24T11:56:39Z</time>
      </trkpt>
      <trkpt lat="43.68526" lon="7.00265">
        <ele>451.4</ele>
        <time>2011-11-24T11:56:40Z</time>
      </trkpt>
      <trkpt lat="43.6852" lon="7.00262">
        <ele>450.9</ele>
        <time>2011-11-24T11:56:41Z</time>
      </trkpt>
      <trkpt lat="43.68514" lon="7.00259">
        <ele>450.2</ele>
        <time>2011-11-24T11:56:42Z</time>
      </trkpt>
      <trkpt lat="43.68507" lon="7.00256">
        <ele>449.9</ele>
        <time>2011-11-24T11:56:43Z</time>
      </trkpt>
      <trkpt lat="43.68499" lon="7.00253">
        <ele>448.1</ele>
        <time>2011-11-24T11:56:44Z</time>
      </trkpt>
      <trkpt lat="43.68491" lon="7.00251">
        <ele>447</ele>
        <time>2011-11-24T11:56:45Z</time>
      </trkpt>
      <trkpt lat="43.68484" lon="7.00248">
        <ele>446.4</ele>
        <time>2011-11-24T11:56:46Z</time>
      </trkpt>
      <trkpt lat="43.68477" lon="7.00246">
        <ele>445.5</ele>
        <time>2011-11-24T11:56:47Z</time>
      </trkpt>
      <trkpt lat="43.6847" lon="7.00241">
        <ele>445</ele>
        <time>2011-11-24T11:56:48Z</time>
      </trkpt>
      <trkpt lat="43.68464" lon="7.00237">
        <ele>445</ele>
        <time>2011-11-24T11:56:49Z</time>
      </trkpt>
      <trkpt lat="43.68458" lon="7.00231">
        <ele>444.5</ele>
        <time>2011-11-24T11:56:50Z</time>
      </trkpt>
      <trkpt lat="43.68452" lon="7.00225">
        <ele>443.6</ele>
        <time>2011-11-24T11:56:51Z</time>
      </trkpt>
      <trkpt lat="43.68447" lon="7.00218">
        <ele>443.9</ele>
        <time>2011-11-24T11:56:52Z</time>
      </trkpt>
      <trkpt lat="43.68447" lon="7.00203">
        <ele>439.6</ele>
        <time>2011-11-24T11:56:53Z</time>
      </trkpt>
      <trkpt lat="43.68442" lon="7.00194">
        <ele>438.1</ele>
        <time>2011-11-24T11:56:54Z</time>
      </trkpt>
      <trkpt lat="43.68437" lon="7.00188">
        <ele>437.5</ele>
        <time>2011-11-24T11:56:55Z</time>
      </trkpt>
      <trkpt lat="43.68431" lon="7.00183">
        <ele>437.1</ele>
        <time>2011-11-24T11:56:56Z</time>
      </trkpt>
      <trkpt lat="43.68424" lon="7.00179">
        <ele>436.7</ele>
        <time>2011-11-24T11:56:57Z</time>
      </trkpt>
      <trkpt lat="43.68417" lon="7.00182">
        <ele>436.1</ele>
        <time>2011-11-24T11:56:58Z</time>
      </trkpt>
      <trkpt lat="43.6841" lon="7.00183">
        <ele>436.8</ele>
        <time>2011-11-24T11:56:59Z</time>
      </trkpt>
      <trkpt lat="43.68403" lon="7.00186">
        <ele>438.2</ele>
        <time>2011-11-24T11:57:00Z</time>
      </trkpt>
      <trkpt lat="43.68394" lon="7.00194">
        <ele>437.6</ele>
        <time>2011-11-24T11:57:01Z</time>
      </trkpt>
      <trkpt lat="43.68386" lon="7.00198">
        <ele>437.4</ele>
        <time>2011-11-24T11:57:02Z</time>
      </trkpt>
      <trkpt lat="43.68377" lon="7.00204">
        <ele>437.1</ele>
        <time>2011-11-24T11:57:03Z</time>
      </trkpt>
      <trkpt lat="43.6837" lon="7.00211">
        <ele>437</ele>
        <time>2011-11-24T11:57:04Z</time>
      </trkpt>
      <trkpt lat="43.68362" lon="7.0022">
        <ele>437</ele>
        <time>2011-11-24T11:57:05Z</time>
      </trkpt>
      <trkpt lat="43.68355" lon="7.00228">
        <ele>437.1</ele>
        <time>2011-11-24T11:57:06Z</time>
      </trkpt>
      <trkpt lat="43.68348" lon="7.00238">
        <ele>437</ele>
        <time>2011-11-24T11:57:07Z</time>
      </trkpt>
      <trkpt lat="43.68342" lon="7.00249">
        <ele>436.5</ele>
        <time>2011-11-24T11:57:08Z</time>
      </trkpt>
      <trkpt lat="43.68337" lon="7.00259">
        <ele>436.2</ele>
        <time>2011-11-24T11:57:09Z</time>
      </trkpt>
      <trkpt lat="43.68332" lon="7.00269">
        <ele>436.2</ele>
        <time>2011-11-24T11:57:10Z</time>
      </trkpt>
      <trkpt lat="43.68324" lon="7.00277">
        <ele>435.8</ele>
        <time>2011-11-24T11:57:11Z</time>
      </trkpt>
      <trkpt lat="43.68319" lon="7.00286">
        <ele>435.4</ele>
        <time>2011-11-24T11:57:12Z</time>
      </trkpt>
      <trkpt lat="43.68315" lon="7.00293">
        <ele>435.7</ele>
        <time>2011-11-24T11:57:13Z</time>
      </trkpt>
      <trkpt lat="43.68312" lon="7.00302">
        <ele>435.8</ele>
        <time>2011-11-24T11:57:14Z</time>
      </trkpt>
      <trkpt lat="43.68308" lon="7.00312">
        <ele>436.1</ele>
        <time>2011-11-24T11:57:15Z</time>
      </trkpt>
      <trkpt lat="43.68306" lon="7.00319">
        <ele>436.3</ele>
        <time>2011-11-24T11:57:16Z</time>
      </trkpt>
      <trkpt lat="43.68304" lon="7.00328">
        <ele>436.2</ele>
        <time>2011-11-24T11:57:17Z</time>
      </trkpt>
      <trkpt lat="43.683" lon="7.00338">
        <ele>436.5</ele>
        <time>2011-11-24T11:57:18Z</time>
      </trkpt>
      <trkpt lat="43.68297" lon="7.00345">
        <ele>436.6</ele>
        <time>2011-11-24T11:57:19Z</time>
      </trkpt>
      <trkpt lat="43.68293" lon="7.00351">
        <ele>436.8</ele>
        <time>2011-11-24T11:57:20Z</time>
      </trkpt>
      <trkpt lat="43.6829" lon="7.00358">
        <ele>436.9</ele>
        <time>2011-11-24T11:57:21Z</time>
      </trkpt>
      <trkpt lat="43.68291" lon="7.00369">
        <ele>434.6</ele>
        <time>2011-11-24T11:57:22Z</time>
      </trkpt>
      <trkpt lat="43.68289" lon="7.00378">
        <ele>434.2</ele>
        <time>2011-11-24T11:57:23Z</time>
      </trkpt>
      <trkpt lat="43.68285" lon="7.00386">
        <ele>434.1</ele>
        <time>2011-11-24T11:57:24Z</time>
      </trkpt>
      <trkpt lat="43.6828" lon="7.00393">
        <ele>434.2</ele>
        <time>2011-11-24T11:57:25Z</time>
      </trkpt>
      <trkpt lat="43.68275" lon="7.00402">
        <ele>433.7</ele>
        <time>2011-11-24T11:57:26Z</time>
      </trkpt>
      <trkpt lat="43.68273" lon="7.00411">
        <ele>433.5</ele>
        <time>2011-11-24T11:57:27Z</time>
      </trkpt>
      <trkpt lat="43.68269" lon="7.0042">
        <ele>433.4</ele>
        <time>2011-11-24T11:57:28Z</time>
      </trkpt>
      <trkpt lat="43.68264" lon="7.00426">
        <ele>432.7</ele>
        <time>2011-11-24T11:57:29Z</time>
      </trkpt>
      <trkpt lat="43.68257" lon="7.00427">
        <ele>430.8</ele>
        <time>2011-11-24T11:57:30Z</time>
      </trkpt>
      <trkpt lat="43.68249" lon="7.0043">
        <ele>430.7</ele>
        <time>2011-11-24T11:57:31Z</time>
      </trkpt>
      <trkpt lat="43.68242" lon="7.00431">
        <ele>429.5</ele>
        <time>2011-11-24T11:57:32Z</time>
      </trkpt>
      <trkpt lat="43.68234" lon="7.0043">
        <ele>429.2</ele>
        <time>2011-11-24T11:57:33Z</time>
      </trkpt>
      <trkpt lat="43.68226" lon="7.00427">
        <ele>428.5</ele>
        <time>2011-11-24T11:57:34Z</time>
      </trkpt>
      <trkpt lat="43.6822" lon="7.00421">
        <ele>427.9</ele>
        <time>2011-11-24T11:57:35Z</time>
      </trkpt>
      <trkpt lat="43.68215" lon="7.0041">
        <ele>427.7</ele>
        <time>2011-11-24T11:57:36Z</time>
      </trkpt>
      <trkpt lat="43.68209" lon="7.004">
        <ele>427.3</ele>
        <time>2011-11-24T11:57:37Z</time>
      </trkpt>
      <trkpt lat="43.68203" lon="7.00391">
        <ele>426.1</ele>
        <time>2011-11-24T11:57:38Z</time>
      </trkpt>
      <trkpt lat="43.68197" lon="7.00385">
        <ele>425.3</ele>
        <time>2011-11-24T11:57:39Z</time>
      </trkpt>
      <trkpt lat="43.6819" lon="7.00378">
        <ele>424.5</ele>
        <time>2011-11-24T11:57:40Z</time>
      </trkpt>
      <trkpt lat="43.68182" lon="7.00377">
        <ele>423.8</ele>
        <time>2011-11-24T11:57:41Z</time>
      </trkpt>
      <trkpt lat="43.68174" lon="7.00374">
        <ele>422.9</ele>
        <time>2011-11-24T11:57:42Z</time>
      </trkpt>
      <trkpt lat="43.68164" lon="7.00374">
        <ele>421.4</ele>
        <time>2011-11-24T11:57:43Z</time>
      </trkpt>
      <trkpt lat="43.68154" lon="7.00373">
        <ele>419.5</ele>
        <time>2011-11-24T11:57:44Z</time>
      </trkpt>
      <trkpt lat="43.68144" lon="7.00368">
        <ele>418.3</ele>
        <time>2011-11-24T11:57:45Z</time>
      </trkpt>
      <trkpt lat="43.68136" lon="7.00362">
        <ele>417.1</ele>
        <time>2011-11-24T11:57:46Z</time>
      </trkpt>
      <trkpt lat="43.68127" lon="7.00357">
        <ele>416.3</ele>
        <time>2011-11-24T11:57:47Z</time>
      </trkpt>
      <trkpt lat="43.68117" lon="7.00353">
        <ele>416.2</ele>
        <time>2011-11-24T11:57:48Z</time>
      </trkpt>
      <trkpt lat="43.68108" lon="7.00348">
        <ele>415.9</ele>
        <time>2011-11-24T11:57:49Z</time>
      </trkpt>
      <trkpt lat="43.68101" lon="7.00344">
        <ele>416.8</ele>
        <time>2011-11-24T11:57:50Z</time>
      </trkpt>
      <trkpt lat="43.68093" lon="7.00339">
        <ele>416.6</ele>
        <time>2011-11-24T11:57:51Z</time>
      </trkpt>
      <trkpt lat="43.68086" lon="7.00333">
        <ele>415</ele>
        <time>2011-11-24T11:57:52Z</time>
      </trkpt>
      <trkpt lat="43.68079" lon="7.00326">
        <ele>415.9</ele>
        <time>2011-11-24T11:57:53Z</time>
      </trkpt>
      <trkpt lat="43.68073" lon="7.0032">
        <ele>416</ele>
        <time>2011-11-24T11:57:54Z</time>
      </trkpt>
      <trkpt lat="43.68068" lon="7.00314">
        <ele>415.5</ele>
        <time>2011-11-24T11:57:55Z</time>
      </trkpt>
      <trkpt lat="43.68062" lon="7.00309">
        <ele>415</ele>
        <time>2011-11-24T11:57:56Z</time>
      </trkpt>
      <trkpt lat="43.68058" lon="7.00303">
        <ele>415.1</ele>
        <time>2011-11-24T11:57:57Z</time>
      </trkpt>
      <trkpt lat="43.68053" lon="7.00298">
        <ele>414.9</ele>
        <time>2011-11-24T11:57:58Z</time>
      </trkpt>
      <trkpt lat="43.6805" lon="7.00294">
        <ele>413.4</ele>
        <time>2011-11-24T11:57:59Z</time>
      </trkpt>
      <trkpt lat="43.68045" lon="7.00289">
        <ele>412.7</ele>
        <time>2011-11-24T11:58:00Z</time>
      </trkpt>
      <trkpt lat="43.68042" lon="7.00284">
        <ele>412.5</ele>
        <time>2011-11-24T11:58:01Z</time>
      </trkpt>
      <trkpt lat="43.68038" lon="7.00274">
        <ele>412.3</ele>
        <time>2011-11-24T11:58:03Z</time>
      </trkpt>
      <trkpt lat="43.68036" lon="7.00267">
        <ele>412.3</ele>
        <time>2011-11-24T11:58:04Z</time>
      </trkpt>
      <trkpt lat="43.68033" lon="7.0026">
        <ele>412.1</ele>
        <time>2011-11-24T11:58:05Z</time>
      </trkpt>
      <trkpt lat="43.68029" lon="7.00252">
        <ele>412.1</ele>
        <time>2011-11-24T11:58:06Z</time>
      </trkpt>
      <trkpt lat="43.68028" lon="7.00243">
        <ele>410.8</ele>
        <time>2011-11-24T11:58:07Z</time>
      </trkpt>
      <trkpt lat="43.68026" lon="7.00234">
        <ele>410.5</ele>
        <time>2011-11-24T11:58:08Z</time>
      </trkpt>
      <trkpt lat="43.68025" lon="7.00227">
        <ele>410.4</ele>
        <time>2011-11-24T11:58:09Z</time>
      </trkpt>
      <trkpt lat="43.68025" lon="7.00218">
        <ele>410.4</ele>
        <time>2011-11-24T11:58:10Z</time>
      </trkpt>
      <trkpt lat="43.68024" lon="7.00211">
        <ele>410.5</ele>
        <time>2011-11-24T11:58:11Z</time>
      </trkpt>
      <trkpt lat="43.68022" lon="7.00204">
        <ele>409.7</ele>
        <time>2011-11-24T11:58:13Z</time>
      </trkpt>
      <trkpt lat="43.68022" lon="7.00198">
        <ele>408.9</ele>
        <time>2011-11-24T11:58:14Z</time>
      </trkpt>
      <trkpt lat="43.68022" lon="7.00186">
        <ele>409</ele>
        <time>2011-11-24T11:58:16Z</time>
      </trkpt>
      <trkpt lat="43.68022" lon="7.0018">
        <ele>409.1</ele>
        <time>2011-11-24T11:58:17Z</time>
      </trkpt>
      <trkpt lat="43.68022" lon="7.00172">
        <ele>409</ele>
        <time>2011-11-24T11:58:18Z</time>
      </trkpt>
      <trkpt lat="43.68023" lon="7.00166">
        <ele>409.1</ele>
        <time>2011-11-24T11:58:19Z</time>
      </trkpt>
      <trkpt lat="43.68023" lon="7.00156">
        <ele>409.3</ele>
        <time>2011-11-24T11:58:20Z</time>
      </trkpt>
      <trkpt lat="43.68022" lon="7.00146">
        <ele>410</ele>
        <time>2011-11-24T11:58:22Z</time>
      </trkpt>
      <trkpt lat="43.68024" lon="7.00138">
        <ele>410.5</ele>
        <time>2011-11-24T11:58:24Z</time>
      </trkpt>
      <trkpt lat="43.6803" lon="7.00124">
        <ele>408</ele>
        <time>2011-11-24T11:58:26Z</time>
      </trkpt>
      <trkpt lat="43.68032" lon="7.00117">
        <ele>409</ele>
        <time>2011-11-24T11:58:27Z</time>
      </trkpt>
      <trkpt lat="43.68037" lon="7.00106">
        <ele>408.9</ele>
        <time>2011-11-24T11:58:29Z</time>
      </trkpt>
      <trkpt lat="43.6804" lon="7.00101">
        <ele>408.7</ele>
        <time>2011-11-24T11:58:30Z</time>
      </trkpt>
      <trkpt lat="43.68043" lon="7.00095">
        <ele>408.5</ele>
        <time>2011-11-24T11:58:31Z</time>
      </trkpt>
      <trkpt lat="43.68047" lon="7.00088">
        <ele>409.1</ele>
        <time>2011-11-24T11:58:32Z</time>
      </trkpt>
      <trkpt lat="43.6805" lon="7.00081">
        <ele>409</ele>
        <time>2011-11-24T11:58:33Z</time>
      </trkpt>
      <trkpt lat="43.68052" lon="7.00073">
        <ele>407.3</ele>
        <time>2011-11-24T11:58:35Z</time>
      </trkpt>
      <trkpt lat="43.68054" lon="7.00063">
        <ele>407.1</ele>
        <time>2011-11-24T11:58:37Z</time>
      </trkpt>
      <trkpt lat="43.68058" lon="7.00052">
        <ele>406.7</ele>
        <time>2011-11-24T11:58:39Z</time>
      </trkpt>
      <trkpt lat="43.68061" lon="7.00046">
        <ele>406.8</ele>
        <time>2011-11-24T11:58:40Z</time>
      </trkpt>
      <trkpt lat="43.68063" lon="7.0004">
        <ele>406.7</ele>
        <time>2011-11-24T11:58:41Z</time>
      </trkpt>
      <trkpt lat="43.68065" lon="7.00033">
        <ele>406.5</ele>
        <time>2011-11-24T11:58:42Z</time>
      </trkpt>
      <trkpt lat="43.68067" lon="7.00026">
        <ele>406.5</ele>
        <time>2011-11-24T11:58:43Z</time>
      </trkpt>
      <trkpt lat="43.68068" lon="7.00018">
        <ele>406.1</ele>
        <time>2011-11-24T11:58:44Z</time>
      </trkpt>
      <trkpt lat="43.68074" lon="7.00011">
        <ele>405.8</ele>
        <time>2011-11-24T11:58:46Z</time>
      </trkpt>
      <trkpt lat="43.68077" lon="7.00005">
        <ele>405.3</ele>
        <time>2011-11-24T11:58:47Z</time>
      </trkpt>
      <trkpt lat="43.68082" lon="7.00001">
        <ele>405.3</ele>
        <time>2011-11-24T11:58:48Z</time>
      </trkpt>
      <trkpt lat="43.68088" lon="6.99986">
        <ele>405.3</ele>
        <time>2011-11-24T11:58:50Z</time>
      </trkpt>
      <trkpt lat="43.68091" lon="6.99975">
        <ele>404.7</ele>
        <time>2011-11-24T11:58:52Z</time>
      </trkpt>
      <trkpt lat="43.6809" lon="6.99965">
        <ele>404.4</ele>
        <time>2011-11-24T11:58:54Z</time>
      </trkpt>
      <trkpt lat="43.68089" lon="6.99957">
        <ele>404.4</ele>
        <time>2011-11-24T11:58:55Z</time>
      </trkpt>
      <trkpt lat="43.68091" lon="6.9995">
        <ele>404.3</ele>
        <time>2011-11-24T11:58:56Z</time>
      </trkpt>
      <trkpt lat="43.68095" lon="6.99937">
        <ele>404.1</ele>
        <time>2011-11-24T11:58:58Z</time>
      </trkpt>
      <trkpt lat="43.68098" lon="6.99923">
        <ele>402.2</ele>
        <time>2011-11-24T11:58:59Z</time>
      </trkpt>
      <trkpt lat="43.68098" lon="6.99914">
        <ele>402.4</ele>
        <time>2011-11-24T11:59:00Z</time>
      </trkpt>
      <trkpt lat="43.681" lon="6.99906">
        <ele>402.5</ele>
        <time>2011-11-24T11:59:01Z</time>
      </trkpt>
      <trkpt lat="43.68102" lon="6.99899">
        <ele>399.3</ele>
        <time>2011-11-24T11:59:02Z</time>
      </trkpt>
      <trkpt lat="43.68107" lon="6.9989">
        <ele>397.3</ele>
        <time>2011-11-24T11:59:04Z</time>
      </trkpt>
      <trkpt lat="43.68111" lon="6.9988">
        <ele>396.6</ele>
        <time>2011-11-24T11:59:06Z</time>
      </trkpt>
      <trkpt lat="43.68116" lon="6.99876">
        <ele>396.7</ele>
        <time>2011-11-24T11:59:08Z</time>
      </trkpt>
      <trkpt lat="43.68121" lon="6.99869">
        <ele>395.9</ele>
        <time>2011-11-24T11:59:10Z</time>
      </trkpt>
      <trkpt lat="43.68126" lon="6.99863">
        <ele>395.2</ele>
        <time>2011-11-24T11:59:12Z</time>
      </trkpt>
      <trkpt lat="43.68129" lon="6.99858">
        <ele>393.9</ele>
        <time>2011-11-24T11:59:14Z</time>
      </trkpt>
      <trkpt lat="43.68133" lon="6.9985">
        <ele>394.6</ele>
        <time>2011-11-24T11:59:17Z</time>
      </trkpt>
      <trkpt lat="43.68138" lon="6.99844">
        <ele>394.6</ele>
        <time>2011-11-24T11:59:20Z</time>
      </trkpt>
      <trkpt lat="43.68141" lon="6.99838">
        <ele>394.2</ele>
        <time>2011-11-24T11:59:23Z</time>
      </trkpt>
      <trkpt lat="43.68144" lon="6.99831">
        <ele>394.5</ele>
        <time>2011-11-24T11:59:25Z</time>
      </trkpt>
      <trkpt lat="43.68146" lon="6.99823">
        <ele>396.9</ele>
        <time>2011-11-24T11:59:28Z</time>
      </trkpt>
      <trkpt lat="43.68143" lon="6.99818">
        <ele>395.3</ele>
        <time>2011-11-24T11:59:31Z</time>
      </trkpt>
      <trkpt lat="43.68138" lon="6.99814">
        <ele>396.7</ele>
        <time>2011-11-24T11:59:33Z</time>
      </trkpt>
      <trkpt lat="43.68133" lon="6.99814">
        <ele>396</ele>
        <time>2011-11-24T11:59:35Z</time>
      </trkpt>
      <trkpt lat="43.68129" lon="6.99816">
        <ele>398.8</ele>
        <time>2011-11-24T11:59:37Z</time>
      </trkpt>
      <trkpt lat="43.68124" lon="6.99817">
        <ele>400</ele>
        <time>2011-11-24T11:59:39Z</time>
      </trkpt>
      <trkpt lat="43.6812" lon="6.99823">
        <ele>403.1</ele>
        <time>2011-11-24T11:59:41Z</time>
      </trkpt>
      <trkpt lat="43.68115" lon="6.99827">
        <ele>401.5</ele>
        <time>2011-11-24T11:59:43Z</time>
      </trkpt>
      <trkpt lat="43.68109" lon="6.9983">
        <ele>401.1</ele>
        <time>2011-11-24T11:59:45Z</time>
      </trkpt>
      <trkpt lat="43.68103" lon="6.99835">
        <ele>403.3</ele>
        <time>2011-11-24T11:59:48Z</time>
      </trkpt>
      <trkpt lat="43.68098" lon="6.99839">
        <ele>408.5</ele>
        <time>2011-11-24T11:59:50Z</time>
      </trkpt>
      <trkpt lat="43.68094" lon="6.99842">
        <ele>410.4</ele>
        <time>2011-11-24T11:59:52Z</time>
      </trkpt>
      <trkpt lat="43.68088" lon="6.99845">
        <ele>411.1</ele>
        <time>2011-11-24T11:59:54Z</time>
      </trkpt>
      <trkpt lat="43.68084" lon="6.99848">
        <ele>411.2</ele>
        <time>2011-11-24T11:59:56Z</time>
      </trkpt>
      <trkpt lat="43.68079" lon="6.99849">
        <ele>410.4</ele>
        <time>2011-11-24T11:59:57Z</time>
      </trkpt>
      <trkpt lat="43.68073" lon="6.9985">
        <ele>411.6</ele>
        <time>2011-11-24T11:59:59Z</time>
      </trkpt>
      <trkpt lat="43.68067" lon="6.99853">
        <ele>412.4</ele>
        <time>2011-11-24T12:00:01Z</time>
      </trkpt>
      <trkpt lat="43.68061" lon="6.99854">
        <ele>412.2</ele>
        <time>2011-11-24T12:00:03Z</time>
      </trkpt>
      <trkpt lat="43.68055" lon="6.9986">
        <ele>414.8</ele>
        <time>2011-11-24T12:00:06Z</time>
      </trkpt>
      <trkpt lat="43.68049" lon="6.99862">
        <ele>415.2</ele>
        <time>2011-11-24T12:00:09Z</time>
      </trkpt>
      <trkpt lat="43.68042" lon="6.99867">
        <ele>418.3</ele>
        <time>2011-11-24T12:00:13Z</time>
      </trkpt>
      <trkpt lat="43.68038" lon="6.9987">
        <ele>419</ele>
        <time>2011-11-24T12:00:15Z</time>
      </trkpt>
      <trkpt lat="43.68032" lon="6.99873">
        <ele>417.8</ele>
        <time>2011-11-24T12:00:18Z</time>
      </trkpt>
      <trkpt lat="43.68028" lon="6.99875">
        <ele>417.7</ele>
        <time>2011-11-24T12:00:20Z</time>
      </trkpt>
      <trkpt lat="43.68021" lon="6.99878">
        <ele>418.3</ele>
        <time>2011-11-24T12:00:23Z</time>
      </trkpt>
      <trkpt lat="43.68015" lon="6.99878">
        <ele>420</ele>
        <time>2011-11-24T12:00:25Z</time>
      </trkpt>
      <trkpt lat="43.68008" lon="6.9988">
        <ele>421.8</ele>
        <time>2011-11-24T12:00:27Z</time>
      </trkpt>
      <trkpt lat="43.68001" lon="6.99881">
        <ele>421.4</ele>
        <time>2011-11-24T12:00:29Z</time>
      </trkpt>
      <trkpt lat="43.67995" lon="6.99881">
        <ele>422.2</ele>
        <time>2011-11-24T12:00:31Z</time>
      </trkpt>
      <trkpt lat="43.67986" lon="6.99881">
        <ele>421.8</ele>
        <time>2011-11-24T12:00:33Z</time>
      </trkpt>
      <trkpt lat="43.6798" lon="6.9988">
        <ele>421.1</ele>
        <time>2011-11-24T12:00:34Z</time>
      </trkpt>
      <trkpt lat="43.67974" lon="6.99879">
        <ele>419.8</ele>
        <time>2011-11-24T12:00:35Z</time>
      </trkpt>
      <trkpt lat="43.67966" lon="6.99874">
        <ele>418.5</ele>
        <time>2011-11-24T12:00:37Z</time>
      </trkpt>
      <trkpt lat="43.67959" lon="6.99868">
        <ele>415.9</ele>
        <time>2011-11-24T12:00:39Z</time>
      </trkpt>
      <trkpt lat="43.67952" lon="6.99862">
        <ele>414.4</ele>
        <time>2011-11-24T12:00:41Z</time>
      </trkpt>
      <trkpt lat="43.67948" lon="6.99854">
        <ele>420.1</ele>
        <time>2011-11-24T12:00:43Z</time>
      </trkpt>
      <trkpt lat="43.67944" lon="6.99846">
        <ele>421</ele>
        <time>2011-11-24T12:00:45Z</time>
      </trkpt>
      <trkpt lat="43.6794" lon="6.99838">
        <ele>421</ele>
        <time>2011-11-24T12:00:47Z</time>
      </trkpt>
      <trkpt lat="43.67934" lon="6.99827">
        <ele>421</ele>
        <time>2011-11-24T12:00:49Z</time>
      </trkpt>
      <trkpt lat="43.67929" lon="6.99822">
        <ele>420.6</ele>
        <time>2011-11-24T12:00:50Z</time>
      </trkpt>
      <trkpt lat="43.67924" lon="6.99818">
        <ele>419.9</ele>
        <time>2011-11-24T12:00:51Z</time>
      </trkpt>
      <trkpt lat="43.6792" lon="6.99815">
        <ele>420.2</ele>
        <time>2011-11-24T12:00:52Z</time>
      </trkpt>
      <trkpt lat="43.67912" lon="6.99815">
        <ele>416.4</ele>
        <time>2011-11-24T12:00:53Z</time>
      </trkpt>
      <trkpt lat="43.67906" lon="6.99813">
        <ele>415.4</ele>
        <time>2011-11-24T12:00:54Z</time>
      </trkpt>
      <trkpt lat="43.67898" lon="6.99807">
        <ele>414.9</ele>
        <time>2011-11-24T12:00:56Z</time>
      </trkpt>
      <trkpt lat="43.67892" lon="6.99801">
        <ele>413.7</ele>
        <time>2011-11-24T12:00:58Z</time>
      </trkpt>
      <trkpt lat="43.67884" lon="6.99799">
        <ele>415.5</ele>
        <time>2011-11-24T12:01:00Z</time>
      </trkpt>
      <trkpt lat="43.67878" lon="6.99798">
        <ele>417.3</ele>
        <time>2011-11-24T12:01:02Z</time>
      </trkpt>
      <trkpt lat="43.67872" lon="6.99791">
        <ele>411.9</ele>
        <time>2011-11-24T12:01:04Z</time>
      </trkpt>
      <trkpt lat="43.67866" lon="6.9979">
        <ele>407.2</ele>
        <time>2011-11-24T12:01:06Z</time>
      </trkpt>
      <trkpt lat="43.6786" lon="6.99792">
        <ele>408.8</ele>
        <time>2011-11-24T12:01:08Z</time>
      </trkpt>
      <trkpt lat="43.67854" lon="6.99796">
        <ele>409.5</ele>
        <time>2011-11-24T12:01:10Z</time>
      </trkpt>
      <trkpt lat="43.67846" lon="6.99798">
        <ele>410.8</ele>
        <time>2011-11-24T12:01:12Z</time>
      </trkpt>
      <trkpt lat="43.67839" lon="6.998">
        <ele>412.3</ele>
        <time>2011-11-24T12:01:14Z</time>
      </trkpt>
      <trkpt lat="43.67832" lon="6.99803">
        <ele>412.6</ele>
        <time>2011-11-24T12:01:16Z</time>
      </trkpt>
      <trkpt lat="43.67828" lon="6.99807">
        <ele>413.3</ele>
        <time>2011-11-24T12:01:18Z</time>
      </trkpt>
      <trkpt lat="43.67824" lon="6.99812">
        <ele>413.8</ele>
        <time>2011-11-24T12:01:20Z</time>
      </trkpt>
      <trkpt lat="43.67821" lon="6.99818">
        <ele>414.4</ele>
        <time>2011-11-24T12:01:22Z</time>
      </trkpt>
      <trkpt lat="43.67817" lon="6.99824">
        <ele>415.4</ele>
        <time>2011-11-24T12:01:24Z</time>
      </trkpt>
      <trkpt lat="43.67811" lon="6.99828">
        <ele>415.5</ele>
        <time>2011-11-24T12:01:26Z</time>
      </trkpt>
      <trkpt lat="43.67803" lon="6.99832">
        <ele>415.8</ele>
        <time>2011-11-24T12:01:28Z</time>
      </trkpt>
      <trkpt lat="43.67796" lon="6.99836">
        <ele>416.1</ele>
        <time>2011-11-24T12:01:30Z</time>
      </trkpt>
      <trkpt lat="43.6779" lon="6.9984">
        <ele>415.3</ele>
        <time>2011-11-24T12:01:32Z</time>
      </trkpt>
      <trkpt lat="43.67792" lon="6.99827">
        <ele>412.8</ele>
        <time>2011-11-24T12:01:33Z</time>
      </trkpt>
      <trkpt lat="43.67786" lon="6.99829">
        <ele>412.2</ele>
        <time>2011-11-24T12:01:34Z</time>
      </trkpt>
      <trkpt lat="43.67782" lon="6.99825">
        <ele>411</ele>
        <time>2011-11-24T12:01:36Z</time>
      </trkpt>
      <trkpt lat="43.67779" lon="6.99817">
        <ele>410.4</ele>
        <time>2011-11-24T12:01:38Z</time>
      </trkpt>
      <trkpt lat="43.67779" lon="6.99808">
        <ele>411.3</ele>
        <time>2011-11-24T12:01:40Z</time>
      </trkpt>
      <trkpt lat="43.6778" lon="6.998">
        <ele>412.1</ele>
        <time>2011-11-24T12:01:42Z</time>
      </trkpt>
      <trkpt lat="43.67779" lon="6.99793">
        <ele>412.3</ele>
        <time>2011-11-24T12:01:43Z</time>
      </trkpt>
      <trkpt lat="43.67779" lon="6.99787">
        <ele>412.5</ele>
        <time>2011-11-24T12:01:44Z</time>
      </trkpt>
      <trkpt lat="43.67776" lon="6.99777">
        <ele>412.2</ele>
        <time>2011-11-24T12:01:46Z</time>
      </trkpt>
      <trkpt lat="43.67775" lon="6.99767">
        <ele>411.9</ele>
        <time>2011-11-24T12:01:48Z</time>
      </trkpt>
      <trkpt lat="43.67774" lon="6.99756">
        <ele>412</ele>
        <time>2011-11-24T12:01:50Z</time>
      </trkpt>
      <trkpt lat="43.67772" lon="6.99747">
        <ele>412.5</ele>
        <time>2011-11-24T12:01:52Z</time>
      </trkpt>
      <trkpt lat="43.67771" lon="6.99736">
        <ele>413</ele>
        <time>2011-11-24T12:01:54Z</time>
      </trkpt>
      <trkpt lat="43.67772" lon="6.99724">
        <ele>416.8</ele>
        <time>2011-11-24T12:01:56Z</time>
      </trkpt>
      <trkpt lat="43.67771" lon="6.99713">
        <ele>418.7</ele>
        <time>2011-11-24T12:01:58Z</time>
      </trkpt>
      <trkpt lat="43.67771" lon="6.99701">
        <ele>420.4</ele>
        <time>2011-11-24T12:02:00Z</time>
      </trkpt>
      <trkpt lat="43.67771" lon="6.99694">
        <ele>421</ele>
        <time>2011-11-24T12:02:01Z</time>
      </trkpt>
      <trkpt lat="43.67773" lon="6.99681">
        <ele>422</ele>
        <time>2011-11-24T12:02:03Z</time>
      </trkpt>
      <trkpt lat="43.67771" lon="6.99674">
        <ele>421.9</ele>
        <time>2011-11-24T12:02:04Z</time>
      </trkpt>
      <trkpt lat="43.67771" lon="6.99666">
        <ele>422.4</ele>
        <time>2011-11-24T12:02:05Z</time>
      </trkpt>
      <trkpt lat="43.6777" lon="6.9966">
        <ele>422.3</ele>
        <time>2011-11-24T12:02:06Z</time>
      </trkpt>
      <trkpt lat="43.6777" lon="6.99653">
        <ele>422.2</ele>
        <time>2011-11-24T12:02:07Z</time>
      </trkpt>
      <trkpt lat="43.67769" lon="6.99646">
        <ele>422.3</ele>
        <time>2011-11-24T12:02:08Z</time>
      </trkpt>
      <trkpt lat="43.67769" lon="6.99639">
        <ele>422.1</ele>
        <time>2011-11-24T12:02:09Z</time>
      </trkpt>
      <trkpt lat="43.67767" lon="6.99633">
        <ele>422</ele>
        <time>2011-11-24T12:02:10Z</time>
      </trkpt>
      <trkpt lat="43.67766" lon="6.99625">
        <ele>422.2</ele>
        <time>2011-11-24T12:02:11Z</time>
      </trkpt>
      <trkpt lat="43.67766" lon="6.99617">
        <ele>422.2</ele>
        <time>2011-11-24T12:02:12Z</time>
      </trkpt>
      <trkpt lat="43.67769" lon="6.99608">
        <ele>420</ele>
        <time>2011-11-24T12:02:13Z</time>
      </trkpt>
      <trkpt lat="43.6777" lon="6.99599">
        <ele>420</ele>
        <time>2011-11-24T12:02:14Z</time>
      </trkpt>
      <trkpt lat="43.67774" lon="6.99594">
        <ele>420</ele>
        <time>2011-11-24T12:02:15Z</time>
      </trkpt>
      <trkpt lat="43.67781" lon="6.99591">
        <ele>419.3</ele>
        <time>2011-11-24T12:02:17Z</time>
      </trkpt>
      <trkpt lat="43.67788" lon="6.99589">
        <ele>420.4</ele>
        <time>2011-11-24T12:02:19Z</time>
      </trkpt>
      <trkpt lat="43.67795" lon="6.99583">
        <ele>420.5</ele>
        <time>2011-11-24T12:02:21Z</time>
      </trkpt>
      <trkpt lat="43.67801" lon="6.99576">
        <ele>421.3</ele>
        <time>2011-11-24T12:02:23Z</time>
      </trkpt>
      <trkpt lat="43.67808" lon="6.99568">
        <ele>422.3</ele>
        <time>2011-11-24T12:02:25Z</time>
      </trkpt>
      <trkpt lat="43.67815" lon="6.9956">
        <ele>423.2</ele>
        <time>2011-11-24T12:02:27Z</time>
      </trkpt>
      <trkpt lat="43.67818" lon="6.99556">
        <ele>423.3</ele>
        <time>2011-11-24T12:02:28Z</time>
      </trkpt>
      <trkpt lat="43.67824" lon="6.99552">
        <ele>423.1</ele>
        <time>2011-11-24T12:02:30Z</time>
      </trkpt>
      <trkpt lat="43.67831" lon="6.99547">
        <ele>422.8</ele>
        <time>2011-11-24T12:02:32Z</time>
      </trkpt>
      <trkpt lat="43.67832" lon="6.99537">
        <ele>423.1</ele>
        <time>2011-11-24T12:02:34Z</time>
      </trkpt>
      <trkpt lat="43.67835" lon="6.99528">
        <ele>422.9</ele>
        <time>2011-11-24T12:02:36Z</time>
      </trkpt>
      <trkpt lat="43.67839" lon="6.9952">
        <ele>423.5</ele>
        <time>2011-11-24T12:02:38Z</time>
      </trkpt>
      <trkpt lat="43.67845" lon="6.99512">
        <ele>425.3</ele>
        <time>2011-11-24T12:02:40Z</time>
      </trkpt>
      <trkpt lat="43.67853" lon="6.99507">
        <ele>426.2</ele>
        <time>2011-11-24T12:02:42Z</time>
      </trkpt>
      <trkpt lat="43.67858" lon="6.99506">
        <ele>426.3</ele>
        <time>2011-11-24T12:02:43Z</time>
      </trkpt>
      <trkpt lat="43.67862" lon="6.99508">
        <ele>426.6</ele>
        <time>2011-11-24T12:02:44Z</time>
      </trkpt>
      <trkpt lat="43.67867" lon="6.99508">
        <ele>426.4</ele>
        <time>2011-11-24T12:02:45Z</time>
      </trkpt>
      <trkpt lat="43.67872" lon="6.99505">
        <ele>425.7</ele>
        <time>2011-11-24T12:02:46Z</time>
      </trkpt>
      <trkpt lat="43.67876" lon="6.99502">
        <ele>425.5</ele>
        <time>2011-11-24T12:02:47Z</time>
      </trkpt>
      <trkpt lat="43.67884" lon="6.99497">
        <ele>425</ele>
        <time>2011-11-24T12:02:49Z</time>
      </trkpt>
      <trkpt lat="43.67889" lon="6.99495">
        <ele>425.1</ele>
        <time>2011-11-24T12:02:50Z</time>
      </trkpt>
      <trkpt lat="43.67893" lon="6.99493">
        <ele>425.6</ele>
        <time>2011-11-24T12:02:51Z</time>
      </trkpt>
      <trkpt lat="43.67898" lon="6.99492">
        <ele>426.2</ele>
        <time>2011-11-24T12:02:52Z</time>
      </trkpt>
      <trkpt lat="43.67906" lon="6.99488">
        <ele>427.2</ele>
        <time>2011-11-24T12:02:54Z</time>
      </trkpt>
      <trkpt lat="43.67913" lon="6.99482">
        <ele>427.9</ele>
        <time>2011-11-24T12:02:56Z</time>
      </trkpt>
      <trkpt lat="43.67917" lon="6.9948">
        <ele>428.2</ele>
        <time>2011-11-24T12:02:57Z</time>
      </trkpt>
      <trkpt lat="43.67921" lon="6.99477">
        <ele>428.4</ele>
        <time>2011-11-24T12:02:58Z</time>
      </trkpt>
      <trkpt lat="43.67929" lon="6.9947">
        <ele>428.5</ele>
        <time>2011-11-24T12:03:00Z</time>
      </trkpt>
      <trkpt lat="43.67934" lon="6.99466">
        <ele>428.3</ele>
        <time>2011-11-24T12:03:01Z</time>
      </trkpt>
      <trkpt lat="43.67938" lon="6.99462">
        <ele>428.5</ele>
        <time>2011-11-24T12:03:02Z</time>
      </trkpt>
      <trkpt lat="43.67942" lon="6.99459">
        <ele>428.8</ele>
        <time>2011-11-24T12:03:03Z</time>
      </trkpt>
      <trkpt lat="43.67947" lon="6.99458">
        <ele>429.1</ele>
        <time>2011-11-24T12:03:04Z</time>
      </trkpt>
      <trkpt lat="43.67952" lon="6.99459">
        <ele>428.2</ele>
        <time>2011-11-24T12:03:05Z</time>
      </trkpt>
      <trkpt lat="43.6796" lon="6.9946">
        <ele>429.5</ele>
        <time>2011-11-24T12:03:07Z</time>
      </trkpt>
      <trkpt lat="43.67966" lon="6.99455">
        <ele>429.5</ele>
        <time>2011-11-24T12:03:09Z</time>
      </trkpt>
      <trkpt lat="43.67972" lon="6.99461">
        <ele>430.3</ele>
        <time>2011-11-24T12:03:11Z</time>
      </trkpt>
      <trkpt lat="43.67979" lon="6.99462">
        <ele>430.9</ele>
        <time>2011-11-24T12:03:13Z</time>
      </trkpt>
      <trkpt lat="43.67986" lon="6.9946">
        <ele>431.9</ele>
        <time>2011-11-24T12:03:15Z</time>
      </trkpt>
      <trkpt lat="43.67993" lon="6.99456">
        <ele>432.7</ele>
        <time>2011-11-24T12:03:17Z</time>
      </trkpt>
      <trkpt lat="43.67997" lon="6.99451">
        <ele>433.2</ele>
        <time>2011-11-24T12:03:18Z</time>
      </trkpt>
      <trkpt lat="43.68004" lon="6.99446">
        <ele>434.2</ele>
        <time>2011-11-24T12:03:20Z</time>
      </trkpt>
      <trkpt lat="43.6801" lon="6.99443">
        <ele>434.8</ele>
        <time>2011-11-24T12:03:22Z</time>
      </trkpt>
      <trkpt lat="43.68017" lon="6.9944">
        <ele>434.7</ele>
        <time>2011-11-24T12:03:24Z</time>
      </trkpt>
      <trkpt lat="43.68023" lon="6.99438">
        <ele>434.8</ele>
        <time>2011-11-24T12:03:26Z</time>
      </trkpt>
      <trkpt lat="43.68029" lon="6.99438">
        <ele>436</ele>
        <time>2011-11-24T12:03:28Z</time>
      </trkpt>
      <trkpt lat="43.68033" lon="6.99436">
        <ele>437.8</ele>
        <time>2011-11-24T12:03:30Z</time>
      </trkpt>
      <trkpt lat="43.68037" lon="6.99429">
        <ele>437.6</ele>
        <time>2011-11-24T12:03:32Z</time>
      </trkpt>
      <trkpt lat="43.68041" lon="6.99423">
        <ele>436.9</ele>
        <time>2011-11-24T12:03:34Z</time>
      </trkpt>
      <trkpt lat="43.68044" lon="6.99414">
        <ele>436.9</ele>
        <time>2011-11-24T12:03:36Z</time>
      </trkpt>
      <trkpt lat="43.68048" lon="6.99406">
        <ele>436.9</ele>
        <time>2011-11-24T12:03:38Z</time>
      </trkpt>
      <trkpt lat="43.68052" lon="6.99398">
        <ele>437.5</ele>
        <time>2011-11-24T12:03:40Z</time>
      </trkpt>
      <trkpt lat="43.68058" lon="6.99393">
        <ele>437.7</ele>
        <time>2011-11-24T12:03:42Z</time>
      </trkpt>
      <trkpt lat="43.68065" lon="6.99392">
        <ele>438.1</ele>
        <time>2011-11-24T12:03:44Z</time>
      </trkpt>
      <trkpt lat="43.68072" lon="6.99393">
        <ele>438.8</ele>
        <time>2011-11-24T12:03:46Z</time>
      </trkpt>
      <trkpt lat="43.68078" lon="6.99395">
        <ele>437.9</ele>
        <time>2011-11-24T12:03:48Z</time>
      </trkpt>
      <trkpt lat="43.68082" lon="6.99401">
        <ele>438.3</ele>
        <time>2011-11-24T12:03:50Z</time>
      </trkpt>
      <trkpt lat="43.68088" lon="6.99402">
        <ele>437.4</ele>
        <time>2011-11-24T12:03:53Z</time>
      </trkpt>
      <trkpt lat="43.68093" lon="6.99395">
        <ele>436.7</ele>
        <time>2011-11-24T12:03:55Z</time>
      </trkpt>
      <trkpt lat="43.68097" lon="6.99388">
        <ele>437.5</ele>
        <time>2011-11-24T12:03:57Z</time>
      </trkpt>
      <trkpt lat="43.68102" lon="6.99381">
        <ele>437</ele>
        <time>2011-11-24T12:03:59Z</time>
      </trkpt>
      <trkpt lat="43.68108" lon="6.99374">
        <ele>437.6</ele>
        <time>2011-11-24T12:04:01Z</time>
      </trkpt>
      <trkpt lat="43.68112" lon="6.99368">
        <ele>438</ele>
        <time>2011-11-24T12:04:03Z</time>
      </trkpt>
      <trkpt lat="43.68116" lon="6.99362">
        <ele>438.7</ele>
        <time>2011-11-24T12:04:05Z</time>
      </trkpt>
      <trkpt lat="43.68121" lon="6.99356">
        <ele>437.9</ele>
        <time>2011-11-24T12:04:07Z</time>
      </trkpt>
      <trkpt lat="43.68125" lon="6.99349">
        <ele>437.6</ele>
        <time>2011-11-24T12:04:09Z</time>
      </trkpt>
      <trkpt lat="43.68129" lon="6.99341">
        <ele>437.6</ele>
        <time>2011-11-24T12:04:11Z</time>
      </trkpt>
      <trkpt lat="43.68132" lon="6.99331">
        <ele>437.9</ele>
        <time>2011-11-24T12:04:13Z</time>
      </trkpt>
      <trkpt lat="43.68133" lon="6.99321">
        <ele>437.6</ele>
        <time>2011-11-24T12:04:15Z</time>
      </trkpt>
      <trkpt lat="43.68135" lon="6.99309">
        <ele>437.6</ele>
        <time>2011-11-24T12:04:17Z</time>
      </trkpt>
      <trkpt lat="43.68136" lon="6.99303">
        <ele>437.6</ele>
        <time>2011-11-24T12:04:18Z</time>
      </trkpt>
      <trkpt lat="43.68136" lon="6.99296">
        <ele>437.4</ele>
        <time>2011-11-24T12:04:19Z</time>
      </trkpt>
      <trkpt lat="43.68138" lon="6.9929">
        <ele>437.3</ele>
        <time>2011-11-24T12:04:20Z</time>
      </trkpt>
      <trkpt lat="43.68141" lon="6.99284">
        <ele>437.5</ele>
        <time>2011-11-24T12:04:21Z</time>
      </trkpt>
      <trkpt lat="43.68145" lon="6.99279">
        <ele>436.1</ele>
        <time>2011-11-24T12:04:22Z</time>
      </trkpt>
      <trkpt lat="43.68149" lon="6.99274">
        <ele>435.9</ele>
        <time>2011-11-24T12:04:23Z</time>
      </trkpt>
      <trkpt lat="43.68157" lon="6.9927">
        <ele>436.7</ele>
        <time>2011-11-24T12:04:25Z</time>
      </trkpt>
      <trkpt lat="43.68164" lon="6.99264">
        <ele>436.6</ele>
        <time>2011-11-24T12:04:27Z</time>
      </trkpt>
      <trkpt lat="43.68172" lon="6.99262">
        <ele>436.4</ele>
        <time>2011-11-24T12:04:29Z</time>
      </trkpt>
      <trkpt lat="43.68175" lon="6.99258">
        <ele>436.4</ele>
        <time>2011-11-24T12:04:31Z</time>
      </trkpt>
      <trkpt lat="43.6818" lon="6.99254">
        <ele>437.6</ele>
        <time>2011-11-24T12:04:33Z</time>
      </trkpt>
      <trkpt lat="43.68183" lon="6.99247">
        <ele>437.3</ele>
        <time>2011-11-24T12:04:35Z</time>
      </trkpt>
      <trkpt lat="43.68184" lon="6.99239">
        <ele>437.9</ele>
        <time>2011-11-24T12:04:37Z</time>
      </trkpt>
      <trkpt lat="43.6819" lon="6.99235">
        <ele>438.3</ele>
        <time>2011-11-24T12:04:39Z</time>
      </trkpt>
      <trkpt lat="43.68194" lon="6.99228">
        <ele>438.1</ele>
        <time>2011-11-24T12:04:41Z</time>
      </trkpt>
      <trkpt lat="43.68198" lon="6.99222">
        <ele>440.6</ele>
        <time>2011-11-24T12:04:43Z</time>
      </trkpt>
      <trkpt lat="43.682" lon="6.99216">
        <ele>441</ele>
        <time>2011-11-24T12:04:45Z</time>
      </trkpt>
      <trkpt lat="43.68196" lon="6.99209">
        <ele>441</ele>
        <time>2011-11-24T12:04:47Z</time>
      </trkpt>
      <trkpt lat="43.68192" lon="6.992">
        <ele>440.3</ele>
        <time>2011-11-24T12:04:49Z</time>
      </trkpt>
      <trkpt lat="43.68188" lon="6.99194">
        <ele>440.3</ele>
        <time>2011-11-24T12:04:51Z</time>
      </trkpt>
      <trkpt lat="43.6818" lon="6.99191">
        <ele>440.4</ele>
        <time>2011-11-24T12:04:53Z</time>
      </trkpt>
      <trkpt lat="43.68174" lon="6.99185">
        <ele>440.7</ele>
        <time>2011-11-24T12:04:55Z</time>
      </trkpt>
      <trkpt lat="43.6817" lon="6.99179">
        <ele>440.9</ele>
        <time>2011-11-24T12:04:57Z</time>
      </trkpt>
      <trkpt lat="43.68164" lon="6.99174">
        <ele>440.5</ele>
        <time>2011-11-24T12:05:00Z</time>
      </trkpt>
      <trkpt lat="43.68161" lon="6.99168">
        <ele>441.6</ele>
        <time>2011-11-24T12:05:02Z</time>
      </trkpt>
      <trkpt lat="43.68157" lon="6.9916">
        <ele>442.1</ele>
        <time>2011-11-24T12:05:04Z</time>
      </trkpt>
      <trkpt lat="43.68154" lon="6.99152">
        <ele>442.3</ele>
        <time>2011-11-24T12:05:06Z</time>
      </trkpt>
      <trkpt lat="43.68151" lon="6.99145">
        <ele>442.5</ele>
        <time>2011-11-24T12:05:08Z</time>
      </trkpt>
      <trkpt lat="43.68148" lon="6.99137">
        <ele>442.9</ele>
        <time>2011-11-24T12:05:10Z</time>
      </trkpt>
      <trkpt lat="43.68144" lon="6.99133">
        <ele>443</ele>
        <time>2011-11-24T12:05:12Z</time>
      </trkpt>
      <trkpt lat="43.68139" lon="6.99128">
        <ele>442.7</ele>
        <time>2011-11-24T12:05:14Z</time>
      </trkpt>
      <trkpt lat="43.68135" lon="6.99122">
        <ele>442.8</ele>
        <time>2011-11-24T12:05:16Z</time>
      </trkpt>
      <trkpt lat="43.68131" lon="6.99115">
        <ele>443.3</ele>
        <time>2011-11-24T12:05:18Z</time>
      </trkpt>
      <trkpt lat="43.68128" lon="6.99108">
        <ele>443.7</ele>
        <time>2011-11-24T12:05:20Z</time>
      </trkpt>
      <trkpt lat="43.68125" lon="6.99101">
        <ele>443.7</ele>
        <time>2011-11-24T12:05:22Z</time>
      </trkpt>
      <trkpt lat="43.68123" lon="6.99094">
        <ele>443.5</ele>
        <time>2011-11-24T12:05:24Z</time>
      </trkpt>
      <trkpt lat="43.68121" lon="6.99087">
        <ele>443.8</ele>
        <time>2011-11-24T12:05:26Z</time>
      </trkpt>
      <trkpt lat="43.68119" lon="6.9908">
        <ele>444.2</ele>
        <time>2011-11-24T12:05:28Z</time>
      </trkpt>
      <trkpt lat="43.68117" lon="6.99072">
        <ele>444.1</ele>
        <time>2011-11-24T12:05:30Z</time>
      </trkpt>
      <trkpt lat="43.68114" lon="6.99066">
        <ele>445.9</ele>
        <time>2011-11-24T12:05:32Z</time>
      </trkpt>
      <trkpt lat="43.68112" lon="6.99059">
        <ele>446.6</ele>
        <time>2011-11-24T12:05:34Z</time>
      </trkpt>
      <trkpt lat="43.68109" lon="6.99054">
        <ele>446</ele>
        <time>2011-11-24T12:05:36Z</time>
      </trkpt>
      <trkpt lat="43.68106" lon="6.99047">
        <ele>445.8</ele>
        <time>2011-11-24T12:05:38Z</time>
      </trkpt>
      <trkpt lat="43.68104" lon="6.99038">
        <ele>445.7</ele>
        <time>2011-11-24T12:05:40Z</time>
      </trkpt>
      <trkpt lat="43.681" lon="6.99028">
        <ele>446.3</ele>
        <time>2011-11-24T12:05:42Z</time>
      </trkpt>
      <trkpt lat="43.68098" lon="6.99019">
        <ele>446.7</ele>
        <time>2011-11-24T12:05:44Z</time>
      </trkpt>
      <trkpt lat="43.68095" lon="6.99011">
        <ele>447.7</ele>
        <time>2011-11-24T12:05:46Z</time>
      </trkpt>
      <trkpt lat="43.68093" lon="6.99002">
        <ele>447.8</ele>
        <time>2011-11-24T12:05:48Z</time>
      </trkpt>
      <trkpt lat="43.68091" lon="6.98993">
        <ele>447.6</ele>
        <time>2011-11-24T12:05:50Z</time>
      </trkpt>
      <trkpt lat="43.6809" lon="6.98983">
        <ele>447.7</ele>
        <time>2011-11-24T12:05:52Z</time>
      </trkpt>
      <trkpt lat="43.68091" lon="6.98974">
        <ele>448</ele>
        <time>2011-11-24T12:05:54Z</time>
      </trkpt>
      <trkpt lat="43.68089" lon="6.98966">
        <ele>448.6</ele>
        <time>2011-11-24T12:05:56Z</time>
      </trkpt>
      <trkpt lat="43.68089" lon="6.98956">
        <ele>447.6</ele>
        <time>2011-11-24T12:05:58Z</time>
      </trkpt>
      <trkpt lat="43.6809" lon="6.98948">
        <ele>447.3</ele>
        <time>2011-11-24T12:06:00Z</time>
      </trkpt>
      <trkpt lat="43.68092" lon="6.98938">
        <ele>447.7</ele>
        <time>2011-11-24T12:06:02Z</time>
      </trkpt>
      <trkpt lat="43.68094" lon="6.98929">
        <ele>448.4</ele>
        <time>2011-11-24T12:06:04Z</time>
      </trkpt>
      <trkpt lat="43.68098" lon="6.98923">
        <ele>448.9</ele>
        <time>2011-11-24T12:06:06Z</time>
      </trkpt>
      <trkpt lat="43.68102" lon="6.98917">
        <ele>448.8</ele>
        <time>2011-11-24T12:06:08Z</time>
      </trkpt>
      <trkpt lat="43.68104" lon="6.98909">
        <ele>448.2</ele>
        <time>2011-11-24T12:06:10Z</time>
      </trkpt>
      <trkpt lat="43.681" lon="6.98902">
        <ele>447.7</ele>
        <time>2011-11-24T12:06:12Z</time>
      </trkpt>
      <trkpt lat="43.68093" lon="6.98898">
        <ele>448.8</ele>
        <time>2011-11-24T12:06:13Z</time>
      </trkpt>
      <trkpt lat="43.68088" lon="6.9889">
        <ele>448</ele>
        <time>2011-11-24T12:06:15Z</time>
      </trkpt>
      <trkpt lat="43.68086" lon="6.98883">
        <ele>448.3</ele>
        <time>2011-11-24T12:06:17Z</time>
      </trkpt>
      <trkpt lat="43.68092" lon="6.9888">
        <ele>447.9</ele>
        <time>2011-11-24T12:06:18Z</time>
      </trkpt>
      <trkpt lat="43.6809" lon="6.98872">
        <ele>448.6</ele>
        <time>2011-11-24T12:06:22Z</time>
      </trkpt>
      <trkpt lat="43.68087" lon="6.98866">
        <ele>448.4</ele>
        <time>2011-11-24T12:06:24Z</time>
      </trkpt>
      <trkpt lat="43.68081" lon="6.98863">
        <ele>446.9</ele>
        <time>2011-11-24T12:06:26Z</time>
      </trkpt>
      <trkpt lat="43.68078" lon="6.98857">
        <ele>446.8</ele>
        <time>2011-11-24T12:06:28Z</time>
      </trkpt>
      <trkpt lat="43.68076" lon="6.98851">
        <ele>446.6</ele>
        <time>2011-11-24T12:06:30Z</time>
      </trkpt>
      <trkpt lat="43.68072" lon="6.98847">
        <ele>445.4</ele>
        <time>2011-11-24T12:06:32Z</time>
      </trkpt>
      <trkpt lat="43.68069" lon="6.98841">
        <ele>445.3</ele>
        <time>2011-11-24T12:06:34Z</time>
      </trkpt>
      <trkpt lat="43.68067" lon="6.98834">
        <ele>445.8</ele>
        <time>2011-11-24T12:06:36Z</time>
      </trkpt>
      <trkpt lat="43.68063" lon="6.98826">
        <ele>446.1</ele>
        <time>2011-11-24T12:06:38Z</time>
      </trkpt>
      <trkpt lat="43.68059" lon="6.98821">
        <ele>445.4</ele>
        <time>2011-11-24T12:06:40Z</time>
      </trkpt>
      <trkpt lat="43.68055" lon="6.98814">
        <ele>445.6</ele>
        <time>2011-11-24T12:06:42Z</time>
      </trkpt>
      <trkpt lat="43.6805" lon="6.98805">
        <ele>445.1</ele>
        <time>2011-11-24T12:06:44Z</time>
      </trkpt>
      <trkpt lat="43.68046" lon="6.98798">
        <ele>445.4</ele>
        <time>2011-11-24T12:06:46Z</time>
      </trkpt>
      <trkpt lat="43.68045" lon="6.98789">
        <ele>445.8</ele>
        <time>2011-11-24T12:06:48Z</time>
      </trkpt>
      <trkpt lat="43.68039" lon="6.98783">
        <ele>445.5</ele>
        <time>2011-11-24T12:06:50Z</time>
      </trkpt>
      <trkpt lat="43.68033" lon="6.98779">
        <ele>444.5</ele>
        <time>2011-11-24T12:06:52Z</time>
      </trkpt>
      <trkpt lat="43.68028" lon="6.98772">
        <ele>444.5</ele>
        <time>2011-11-24T12:06:54Z</time>
      </trkpt>
      <trkpt lat="43.68026" lon="6.98766">
        <ele>445.4</ele>
        <time>2011-11-24T12:06:56Z</time>
      </trkpt>
      <trkpt lat="43.68023" lon="6.98761">
        <ele>445.8</ele>
        <time>2011-11-24T12:06:58Z</time>
      </trkpt>
      <trkpt lat="43.68018" lon="6.98753">
        <ele>445</ele>
        <time>2011-11-24T12:07:00Z</time>
      </trkpt>
      <trkpt lat="43.68012" lon="6.98746">
        <ele>444.2</ele>
        <time>2011-11-24T12:07:02Z</time>
      </trkpt>
      <trkpt lat="43.68005" lon="6.98741">
        <ele>444.4</ele>
        <time>2011-11-24T12:07:04Z</time>
      </trkpt>
      <trkpt lat="43.67999" lon="6.98736">
        <ele>445</ele>
        <time>2011-11-24T12:07:06Z</time>
      </trkpt>
      <trkpt lat="43.67995" lon="6.98727">
        <ele>445.5</ele>
        <time>2011-11-24T12:07:08Z</time>
      </trkpt>
      <trkpt lat="43.6799" lon="6.98717">
        <ele>445.3</ele>
        <time>2011-11-24T12:07:10Z</time>
      </trkpt>
      <trkpt lat="43.67989" lon="6.98709">
        <ele>445.8</ele>
        <time>2011-11-24T12:07:12Z</time>
      </trkpt>
      <trkpt lat="43.67988" lon="6.98701">
        <ele>445.2</ele>
        <time>2011-11-24T12:07:14Z</time>
      </trkpt>
      <trkpt lat="43.67982" lon="6.98698">
        <ele>443.9</ele>
        <time>2011-11-24T12:07:16Z</time>
      </trkpt>
      <trkpt lat="43.67984" lon="6.98687">
        <ele>444.5</ele>
        <time>2011-11-24T12:07:18Z</time>
      </trkpt>
      <trkpt lat="43.67984" lon="6.98676">
        <ele>444.3</ele>
        <time>2011-11-24T12:07:20Z</time>
      </trkpt>
      <trkpt lat="43.67984" lon="6.98669">
        <ele>444.5</ele>
        <time>2011-11-24T12:07:22Z</time>
      </trkpt>
      <trkpt lat="43.67987" lon="6.98661">
        <ele>444.6</ele>
        <time>2011-11-24T12:07:25Z</time>
      </trkpt>
      <trkpt lat="43.67986" lon="6.98654">
        <ele>443</ele>
        <time>2011-11-24T12:07:28Z</time>
      </trkpt>
      <trkpt lat="43.6798" lon="6.9865">
        <ele>443.8</ele>
        <time>2011-11-24T12:07:30Z</time>
      </trkpt>
      <trkpt lat="43.67974" lon="6.98648">
        <ele>444.4</ele>
        <time>2011-11-24T12:07:32Z</time>
      </trkpt>
      <trkpt lat="43.67971" lon="6.98644">
        <ele>447.4</ele>
        <time>2011-11-24T12:07:34Z</time>
      </trkpt>
      <trkpt lat="43.67967" lon="6.98639">
        <ele>447.9</ele>
        <time>2011-11-24T12:07:36Z</time>
      </trkpt>
      <trkpt lat="43.67964" lon="6.98632">
        <ele>449.4</ele>
        <time>2011-11-24T12:07:39Z</time>
      </trkpt>
      <trkpt lat="43.67959" lon="6.98626">
        <ele>451.8</ele>
        <time>2011-11-24T12:07:42Z</time>
      </trkpt>
      <trkpt lat="43.67954" lon="6.98622">
        <ele>453.3</ele>
        <time>2011-11-24T12:07:44Z</time>
      </trkpt>
      <trkpt lat="43.67953" lon="6.98613">
        <ele>454.5</ele>
        <time>2011-11-24T12:07:47Z</time>
      </trkpt>
      <trkpt lat="43.67952" lon="6.98607">
        <ele>457.2</ele>
        <time>2011-11-24T12:07:50Z</time>
      </trkpt>
      <trkpt lat="43.67949" lon="6.98601">
        <ele>456.9</ele>
        <time>2011-11-24T12:07:53Z</time>
      </trkpt>
      <trkpt lat="43.67948" lon="6.98594">
        <ele>458.8</ele>
        <time>2011-11-24T12:07:56Z</time>
      </trkpt>
      <trkpt lat="43.67944" lon="6.98588">
        <ele>456.3</ele>
        <time>2011-11-24T12:08:00Z</time>
      </trkpt>
      <trkpt lat="43.6794" lon="6.98583">
        <ele>458.5</ele>
        <time>2011-11-24T12:08:02Z</time>
      </trkpt>
      <trkpt lat="43.67936" lon="6.98578">
        <ele>457.8</ele>
        <time>2011-11-24T12:08:04Z</time>
      </trkpt>
      <trkpt lat="43.6793" lon="6.98573">
        <ele>457.9</ele>
        <time>2011-11-24T12:08:07Z</time>
      </trkpt>
      <trkpt lat="43.67927" lon="6.98566">
        <ele>457.7</ele>
        <time>2011-11-24T12:08:10Z</time>
      </trkpt>
      <trkpt lat="43.67923" lon="6.98562">
        <ele>457.6</ele>
        <time>2011-11-24T12:08:12Z</time>
      </trkpt>
      <trkpt lat="43.67919" lon="6.98557">
        <ele>457.3</ele>
        <time>2011-11-24T12:08:15Z</time>
      </trkpt>
      <trkpt lat="43.67918" lon="6.98549">
        <ele>458.1</ele>
        <time>2011-11-24T12:08:17Z</time>
      </trkpt>
      <trkpt lat="43.67915" lon="6.98544">
        <ele>458.5</ele>
        <time>2011-11-24T12:08:20Z</time>
      </trkpt>
      <trkpt lat="43.67915" lon="6.98537">
        <ele>459.1</ele>
        <time>2011-11-24T12:08:23Z</time>
      </trkpt>
      <trkpt lat="43.67912" lon="6.9853">
        <ele>461.3</ele>
        <time>2011-11-24T12:08:26Z</time>
      </trkpt>
      <trkpt lat="43.67909" lon="6.98524">
        <ele>462.5</ele>
        <time>2011-11-24T12:08:28Z</time>
      </trkpt>
      <trkpt lat="43.67907" lon="6.98518">
        <ele>463.1</ele>
        <time>2011-11-24T12:08:30Z</time>
      </trkpt>
      <trkpt lat="43.67905" lon="6.9851">
        <ele>464.3</ele>
        <time>2011-11-24T12:08:33Z</time>
      </trkpt>
      <trkpt lat="43.67904" lon="6.98504">
        <ele>465.1</ele>
        <time>2011-11-24T12:08:36Z</time>
      </trkpt>
      <trkpt lat="43.67902" lon="6.98497">
        <ele>471</ele>
        <time>2011-11-24T12:08:40Z</time>
      </trkpt>
      <trkpt lat="43.67901" lon="6.9849">
        <ele>471.6</ele>
        <time>2011-11-24T12:08:42Z</time>
      </trkpt>
      <trkpt lat="43.67901" lon="6.98482">
        <ele>470.5</ele>
        <time>2011-11-24T12:08:45Z</time>
      </trkpt>
      <trkpt lat="43.679" lon="6.98476">
        <ele>469.9</ele>
        <time>2011-11-24T12:08:47Z</time>
      </trkpt>
      <trkpt lat="43.679" lon="6.9847">
        <ele>469.5</ele>
        <time>2011-11-24T12:08:50Z</time>
      </trkpt>
      <trkpt lat="43.679" lon="6.98462">
        <ele>470.6</ele>
        <time>2011-11-24T12:08:55Z</time>
      </trkpt>
      <trkpt lat="43.67896" lon="6.98458">
        <ele>469.1</ele>
        <time>2011-11-24T12:08:57Z</time>
      </trkpt>
      <trkpt lat="43.67892" lon="6.98452">
        <ele>469</ele>
        <time>2011-11-24T12:08:59Z</time>
      </trkpt>
      <trkpt lat="43.67889" lon="6.98446">
        <ele>467.9</ele>
        <time>2011-11-24T12:09:02Z</time>
      </trkpt>
      <trkpt lat="43.67887" lon="6.98438">
        <ele>469</ele>
        <time>2011-11-24T12:09:05Z</time>
      </trkpt>
      <trkpt lat="43.67882" lon="6.98436">
        <ele>468.8</ele>
        <time>2011-11-24T12:09:08Z</time>
      </trkpt>
      <trkpt lat="43.6788" lon="6.98429">
        <ele>472</ele>
        <time>2011-11-24T12:09:12Z</time>
      </trkpt>
      <trkpt lat="43.6788" lon="6.98423">
        <ele>474.3</ele>
        <time>2011-11-24T12:09:15Z</time>
      </trkpt>
      <trkpt lat="43.67879" lon="6.98416">
        <ele>474.2</ele>
        <time>2011-11-24T12:09:18Z</time>
      </trkpt>
      <trkpt lat="43.67874" lon="6.98409">
        <ele>474.4</ele>
        <time>2011-11-24T12:09:21Z</time>
      </trkpt>
      <trkpt lat="43.6787" lon="6.98404">
        <ele>474</ele>
        <time>2011-11-24T12:09:26Z</time>
      </trkpt>
      <trkpt lat="43.67866" lon="6.98399">
        <ele>474</ele>
        <time>2011-11-24T12:09:29Z</time>
      </trkpt>
      <trkpt lat="43.67864" lon="6.98392">
        <ele>473.3</ele>
        <time>2011-11-24T12:09:33Z</time>
      </trkpt>
      <trkpt lat="43.67862" lon="6.98385">
        <ele>472.8</ele>
        <time>2011-11-24T12:09:36Z</time>
      </trkpt>
      <trkpt lat="43.6786" lon="6.98378">
        <ele>472</ele>
        <time>2011-11-24T12:09:39Z</time>
      </trkpt>
      <trkpt lat="43.67859" lon="6.98372">
        <ele>471</ele>
        <time>2011-11-24T12:09:42Z</time>
      </trkpt>
      <trkpt lat="43.67856" lon="6.98365">
        <ele>471.8</ele>
        <time>2011-11-24T12:09:44Z</time>
      </trkpt>
      <trkpt lat="43.67853" lon="6.9836">
        <ele>472.3</ele>
        <time>2011-11-24T12:09:46Z</time>
      </trkpt>
      <trkpt lat="43.67848" lon="6.98352">
        <ele>472.2</ele>
        <time>2011-11-24T12:09:48Z</time>
      </trkpt>
      <trkpt lat="43.67844" lon="6.98345">
        <ele>472.6</ele>
        <time>2011-11-24T12:09:50Z</time>
      </trkpt>
      <trkpt lat="43.67839" lon="6.98337">
        <ele>471.8</ele>
        <time>2011-11-24T12:09:52Z</time>
      </trkpt>
      <trkpt lat="43.67836" lon="6.98329">
        <ele>471.9</ele>
        <time>2011-11-24T12:09:54Z</time>
      </trkpt>
      <trkpt lat="43.67832" lon="6.98321">
        <ele>472.4</ele>
        <time>2011-11-24T12:09:56Z</time>
      </trkpt>
      <trkpt lat="43.67828" lon="6.98313">
        <ele>472.4</ele>
        <time>2011-11-24T12:09:58Z</time>
      </trkpt>
      <trkpt lat="43.67824" lon="6.98305">
        <ele>472.2</ele>
        <time>2011-11-24T12:10:00Z</time>
      </trkpt>
      <trkpt lat="43.6782" lon="6.98296">
        <ele>472.6</ele>
        <time>2011-11-24T12:10:02Z</time>
      </trkpt>
      <trkpt lat="43.67818" lon="6.98286">
        <ele>472.6</ele>
        <time>2011-11-24T12:10:04Z</time>
      </trkpt>
      <trkpt lat="43.67816" lon="6.98276">
        <ele>472.9</ele>
        <time>2011-11-24T12:10:06Z</time>
      </trkpt>
      <trkpt lat="43.67816" lon="6.98264">
        <ele>472.1</ele>
        <time>2011-11-24T12:10:08Z</time>
      </trkpt>
      <trkpt lat="43.67815" lon="6.98253">
        <ele>472.2</ele>
        <time>2011-11-24T12:10:10Z</time>
      </trkpt>
      <trkpt lat="43.67815" lon="6.98242">
        <ele>471.9</ele>
        <time>2011-11-24T12:10:12Z</time>
      </trkpt>
      <trkpt lat="43.67815" lon="6.98231">
        <ele>472.1</ele>
        <time>2011-11-24T12:10:14Z</time>
      </trkpt>
      <trkpt lat="43.67814" lon="6.98221">
        <ele>472.2</ele>
        <time>2011-11-24T12:10:16Z</time>
      </trkpt>
      <trkpt lat="43.67813" lon="6.98209">
        <ele>472.6</ele>
        <time>2011-11-24T12:10:18Z</time>
      </trkpt>
      <trkpt lat="43.67812" lon="6.98197">
        <ele>473.3</ele>
        <time>2011-11-24T12:10:20Z</time>
      </trkpt>
      <trkpt lat="43.67812" lon="6.98186">
        <ele>473.5</ele>
        <time>2011-11-24T12:10:22Z</time>
      </trkpt>
      <trkpt lat="43.67814" lon="6.98179">
        <ele>473.5</ele>
        <time>2011-11-24T12:10:23Z</time>
      </trkpt>
      <trkpt lat="43.67819" lon="6.98176">
        <ele>468.7</ele>
        <time>2011-11-24T12:10:24Z</time>
      </trkpt>
      <trkpt lat="43.67822" lon="6.98171">
        <ele>467.7</ele>
        <time>2011-11-24T12:10:25Z</time>
      </trkpt>
      <trkpt lat="43.67822" lon="6.98159">
        <ele>468.8</ele>
        <time>2011-11-24T12:10:27Z</time>
      </trkpt>
      <trkpt lat="43.67824" lon="6.98148">
        <ele>469.3</ele>
        <time>2011-11-24T12:10:29Z</time>
      </trkpt>
      <trkpt lat="43.67826" lon="6.98138">
        <ele>470.6</ele>
        <time>2011-11-24T12:10:31Z</time>
      </trkpt>
      <trkpt lat="43.67832" lon="6.9813">
        <ele>472.8</ele>
        <time>2011-11-24T12:10:33Z</time>
      </trkpt>
      <trkpt lat="43.67839" lon="6.98124">
        <ele>474.1</ele>
        <time>2011-11-24T12:10:35Z</time>
      </trkpt>
      <trkpt lat="43.67845" lon="6.98117">
        <ele>475</ele>
        <time>2011-11-24T12:10:37Z</time>
      </trkpt>
      <trkpt lat="43.67852" lon="6.9811">
        <ele>476.4</ele>
        <time>2011-11-24T12:10:39Z</time>
      </trkpt>
      <trkpt lat="43.67858" lon="6.98104">
        <ele>478.8</ele>
        <time>2011-11-24T12:10:41Z</time>
      </trkpt>
      <trkpt lat="43.67865" lon="6.98098">
        <ele>479.7</ele>
        <time>2011-11-24T12:10:43Z</time>
      </trkpt>
      <trkpt lat="43.67871" lon="6.98092">
        <ele>481</ele>
        <time>2011-11-24T12:10:45Z</time>
      </trkpt>
      <trkpt lat="43.67876" lon="6.98086">
        <ele>481.6</ele>
        <time>2011-11-24T12:10:47Z</time>
      </trkpt>
      <trkpt lat="43.67881" lon="6.9808">
        <ele>482</ele>
        <time>2011-11-24T12:10:49Z</time>
      </trkpt>
      <trkpt lat="43.67888" lon="6.98073">
        <ele>483.5</ele>
        <time>2011-11-24T12:10:51Z</time>
      </trkpt>
      <trkpt lat="43.67891" lon="6.98069">
        <ele>484.1</ele>
        <time>2011-11-24T12:10:52Z</time>
      </trkpt>
      <trkpt lat="43.67894" lon="6.98063">
        <ele>483.6</ele>
        <time>2011-11-24T12:10:53Z</time>
      </trkpt>
      <trkpt lat="43.67901" lon="6.98055">
        <ele>484.3</ele>
        <time>2011-11-24T12:10:55Z</time>
      </trkpt>
      <trkpt lat="43.67906" lon="6.98046">
        <ele>485.5</ele>
        <time>2011-11-24T12:10:57Z</time>
      </trkpt>
      <trkpt lat="43.6791" lon="6.98037">
        <ele>488.5</ele>
        <time>2011-11-24T12:10:59Z</time>
      </trkpt>
      <trkpt lat="43.67914" lon="6.98031">
        <ele>489.4</ele>
        <time>2011-11-24T12:11:01Z</time>
      </trkpt>
      <trkpt lat="43.67918" lon="6.98022">
        <ele>489.6</ele>
        <time>2011-11-24T12:11:03Z</time>
      </trkpt>
      <trkpt lat="43.67919" lon="6.98016">
        <ele>489.3</ele>
        <time>2011-11-24T12:11:04Z</time>
      </trkpt>
      <trkpt lat="43.67919" lon="6.98008">
        <ele>487.8</ele>
        <time>2011-11-24T12:11:05Z</time>
      </trkpt>
      <trkpt lat="43.6792" lon="6.98001">
        <ele>487.3</ele>
        <time>2011-11-24T12:11:06Z</time>
      </trkpt>
      <trkpt lat="43.67921" lon="6.97994">
        <ele>486.4</ele>
        <time>2011-11-24T12:11:07Z</time>
      </trkpt>
      <trkpt lat="43.67921" lon="6.97986">
        <ele>487.2</ele>
        <time>2011-11-24T12:11:08Z</time>
      </trkpt>
      <trkpt lat="43.67921" lon="6.97976">
        <ele>486.6</ele>
        <time>2011-11-24T12:11:09Z</time>
      </trkpt>
      <trkpt lat="43.67921" lon="6.97967">
        <ele>486.2</ele>
        <time>2011-11-24T12:11:10Z</time>
      </trkpt>
      <trkpt lat="43.6792" lon="6.97959">
        <ele>489.9</ele>
        <time>2011-11-24T12:11:11Z</time>
      </trkpt>
      <trkpt lat="43.6792" lon="6.9795">
        <ele>490.8</ele>
        <time>2011-11-24T12:11:12Z</time>
      </trkpt>
      <trkpt lat="43.67922" lon="6.97943">
        <ele>491.4</ele>
        <time>2011-11-24T12:11:13Z</time>
      </trkpt>
      <trkpt lat="43.67924" lon="6.97936">
        <ele>491.3</ele>
        <time>2011-11-24T12:11:14Z</time>
      </trkpt>
      <trkpt lat="43.67928" lon="6.97928">
        <ele>491.4</ele>
        <time>2011-11-24T12:11:15Z</time>
      </trkpt>
      <trkpt lat="43.67933" lon="6.9792">
        <ele>492.1</ele>
        <time>2011-11-24T12:11:16Z</time>
      </trkpt>
      <trkpt lat="43.67936" lon="6.9791">
        <ele>491.6</ele>
        <time>2011-11-24T12:11:17Z</time>
      </trkpt>
      <trkpt lat="43.6794" lon="6.97902">
        <ele>491.8</ele>
        <time>2011-11-24T12:11:18Z</time>
      </trkpt>
      <trkpt lat="43.67945" lon="6.97896">
        <ele>492</ele>
        <time>2011-11-24T12:11:19Z</time>
      </trkpt>
      <trkpt lat="43.6795" lon="6.97894">
        <ele>491.9</ele>
        <time>2011-11-24T12:11:20Z</time>
      </trkpt>
      <trkpt lat="43.67954" lon="6.97891">
        <ele>492.1</ele>
        <time>2011-11-24T12:11:21Z</time>
      </trkpt>
      <trkpt lat="43.67959" lon="6.97886">
        <ele>492.2</ele>
        <time>2011-11-24T12:11:22Z</time>
      </trkpt>
      <trkpt lat="43.67964" lon="6.97882">
        <ele>491.7</ele>
        <time>2011-11-24T12:11:23Z</time>
      </trkpt>
      <trkpt lat="43.67968" lon="6.97879">
        <ele>491.9</ele>
        <time>2011-11-24T12:11:24Z</time>
      </trkpt>
      <trkpt lat="43.67973" lon="6.97875">
        <ele>491.7</ele>
        <time>2011-11-24T12:11:25Z</time>
      </trkpt>
      <trkpt lat="43.67977" lon="6.97872">
        <ele>491.9</ele>
        <time>2011-11-24T12:11:26Z</time>
      </trkpt>
      <trkpt lat="43.67982" lon="6.97869">
        <ele>490.8</ele>
        <time>2011-11-24T12:11:27Z</time>
      </trkpt>
      <trkpt lat="43.67991" lon="6.97866">
        <ele>489.9</ele>
        <time>2011-11-24T12:11:29Z</time>
      </trkpt>
      <trkpt lat="43.67995" lon="6.97862">
        <ele>489.7</ele>
        <time>2011-11-24T12:11:30Z</time>
      </trkpt>
      <trkpt lat="43.67999" lon="6.9786">
        <ele>489.9</ele>
        <time>2011-11-24T12:11:31Z</time>
      </trkpt>
      <trkpt lat="43.68004" lon="6.97857">
        <ele>489.9</ele>
        <time>2011-11-24T12:11:32Z</time>
      </trkpt>
      <trkpt lat="43.6801" lon="6.97854">
        <ele>489.7</ele>
        <time>2011-11-24T12:11:34Z</time>
      </trkpt>
      <trkpt lat="43.68017" lon="6.97849">
        <ele>489.5</ele>
        <time>2011-11-24T12:11:36Z</time>
      </trkpt>
      <trkpt lat="43.68021" lon="6.97845">
        <ele>489.6</ele>
        <time>2011-11-24T12:11:37Z</time>
      </trkpt>
      <trkpt lat="43.68026" lon="6.9784">
        <ele>489.5</ele>
        <time>2011-11-24T12:11:38Z</time>
      </trkpt>
      <trkpt lat="43.68028" lon="6.97835">
        <ele>489.8</ele>
        <time>2011-11-24T12:11:39Z</time>
      </trkpt>
      <trkpt lat="43.68032" lon="6.97824">
        <ele>488.2</ele>
        <time>2011-11-24T12:11:40Z</time>
      </trkpt>
      <trkpt lat="43.68037" lon="6.97818">
        <ele>486.4</ele>
        <time>2011-11-24T12:11:41Z</time>
      </trkpt>
      <trkpt lat="43.68041" lon="6.9781">
        <ele>485.3</ele>
        <time>2011-11-24T12:11:42Z</time>
      </trkpt>
      <trkpt lat="43.68044" lon="6.97798">
        <ele>482.3</ele>
        <time>2011-11-24T12:11:43Z</time>
      </trkpt>
      <trkpt lat="43.68047" lon="6.97787">
        <ele>480.9</ele>
        <time>2011-11-24T12:11:44Z</time>
      </trkpt>
      <trkpt lat="43.68048" lon="6.97772">
        <ele>478.3</ele>
        <time>2011-11-24T12:11:45Z</time>
      </trkpt>
      <trkpt lat="43.68049" lon="6.97757">
        <ele>476</ele>
        <time>2011-11-24T12:11:46Z</time>
      </trkpt>
      <trkpt lat="43.6805" lon="6.97742">
        <ele>475.3</ele>
        <time>2011-11-24T12:11:47Z</time>
      </trkpt>
      <trkpt lat="43.6805" lon="6.97726">
        <ele>476.1</ele>
        <time>2011-11-24T12:11:48Z</time>
      </trkpt>
      <trkpt lat="43.6805" lon="6.97711">
        <ele>474.5</ele>
        <time>2011-11-24T12:11:49Z</time>
      </trkpt>
      <trkpt lat="43.6805" lon="6.97696">
        <ele>473.6</ele>
        <time>2011-11-24T12:11:50Z</time>
      </trkpt>
      <trkpt lat="43.68051" lon="6.97684">
        <ele>472.2</ele>
        <time>2011-11-24T12:11:51Z</time>
      </trkpt>
      <trkpt lat="43.68052" lon="6.97675">
        <ele>471.8</ele>
        <time>2011-11-24T12:11:52Z</time>
      </trkpt>
      <trkpt lat="43.68053" lon="6.97666">
        <ele>470.6</ele>
        <time>2011-11-24T12:11:53Z</time>
      </trkpt>
      <trkpt lat="43.68055" lon="6.97659">
        <ele>469.7</ele>
        <time>2011-11-24T12:11:54Z</time>
      </trkpt>
      <trkpt lat="43.68059" lon="6.97651">
        <ele>466.9</ele>
        <time>2011-11-24T12:11:56Z</time>
      </trkpt>
      <trkpt lat="43.6806" lon="6.97644">
        <ele>466.1</ele>
        <time>2011-11-24T12:11:57Z</time>
      </trkpt>
      <trkpt lat="43.6806" lon="6.97636">
        <ele>466.1</ele>
        <time>2011-11-24T12:11:58Z</time>
      </trkpt>
      <trkpt lat="43.6806" lon="6.97627">
        <ele>465.1</ele>
        <time>2011-11-24T12:11:59Z</time>
      </trkpt>
      <trkpt lat="43.68059" lon="6.97618">
        <ele>463.7</ele>
        <time>2011-11-24T12:12:00Z</time>
      </trkpt>
      <trkpt lat="43.68058" lon="6.97607">
        <ele>462.8</ele>
        <time>2011-11-24T12:12:01Z</time>
      </trkpt>
      <trkpt lat="43.68055" lon="6.97596">
        <ele>462.4</ele>
        <time>2011-11-24T12:12:02Z</time>
      </trkpt>
      <trkpt lat="43.68055" lon="6.97585">
        <ele>461.8</ele>
        <time>2011-11-24T12:12:03Z</time>
      </trkpt>
      <trkpt lat="43.68051" lon="6.9757">
        <ele>459.4</ele>
        <time>2011-11-24T12:12:04Z</time>
      </trkpt>
      <trkpt lat="43.68048" lon="6.97558">
        <ele>458.8</ele>
        <time>2011-11-24T12:12:05Z</time>
      </trkpt>
      <trkpt lat="43.68044" lon="6.97547">
        <ele>458.1</ele>
        <time>2011-11-24T12:12:06Z</time>
      </trkpt>
      <trkpt lat="43.68039" lon="6.97537">
        <ele>457.4</ele>
        <time>2011-11-24T12:12:07Z</time>
      </trkpt>
      <trkpt lat="43.68038" lon="6.97525">
        <ele>457.3</ele>
        <time>2011-11-24T12:12:08Z</time>
      </trkpt>
      <trkpt lat="43.68039" lon="6.97512">
        <ele>455.2</ele>
        <time>2011-11-24T12:12:09Z</time>
      </trkpt>
      <trkpt lat="43.6804" lon="6.97501">
        <ele>454.4</ele>
        <time>2011-11-24T12:12:10Z</time>
      </trkpt>
      <trkpt lat="43.68043" lon="6.97491">
        <ele>454.6</ele>
        <time>2011-11-24T12:12:11Z</time>
      </trkpt>
      <trkpt lat="43.68049" lon="6.97491">
        <ele>455.8</ele>
        <time>2011-11-24T12:12:12Z</time>
      </trkpt>
      <trkpt lat="43.68056" lon="6.97486">
        <ele>456.4</ele>
        <time>2011-11-24T12:12:13Z</time>
      </trkpt>
      <trkpt lat="43.68062" lon="6.97483">
        <ele>457.6</ele>
        <time>2011-11-24T12:12:14Z</time>
      </trkpt>
      <trkpt lat="43.6807" lon="6.97476">
        <ele>459</ele>
        <time>2011-11-24T12:12:16Z</time>
      </trkpt>
      <trkpt lat="43.68073" lon="6.97465">
        <ele>458.7</ele>
        <time>2011-11-24T12:12:18Z</time>
      </trkpt>
      <trkpt lat="43.68076" lon="6.97454">
        <ele>458.3</ele>
        <time>2011-11-24T12:12:20Z</time>
      </trkpt>
      <trkpt lat="43.68077" lon="6.97443">
        <ele>458.5</ele>
        <time>2011-11-24T12:12:22Z</time>
      </trkpt>
      <trkpt lat="43.68078" lon="6.97436">
        <ele>459.1</ele>
        <time>2011-11-24T12:12:23Z</time>
      </trkpt>
      <trkpt lat="43.6808" lon="6.97425">
        <ele>459.7</ele>
        <time>2011-11-24T12:12:25Z</time>
      </trkpt>
      <trkpt lat="43.68083" lon="6.97414">
        <ele>459.7</ele>
        <time>2011-11-24T12:12:27Z</time>
      </trkpt>
      <trkpt lat="43.68086" lon="6.97402">
        <ele>460.2</ele>
        <time>2011-11-24T12:12:29Z</time>
      </trkpt>
      <trkpt lat="43.68089" lon="6.97392">
        <ele>460.6</ele>
        <time>2011-11-24T12:12:31Z</time>
      </trkpt>
      <trkpt lat="43.68092" lon="6.97382">
        <ele>460.5</ele>
        <time>2011-11-24T12:12:33Z</time>
      </trkpt>
      <trkpt lat="43.68094" lon="6.97372">
        <ele>461.6</ele>
        <time>2011-11-24T12:12:35Z</time>
      </trkpt>
      <trkpt lat="43.68097" lon="6.97362">
        <ele>462.2</ele>
        <time>2011-11-24T12:12:37Z</time>
      </trkpt>
      <trkpt lat="43.68099" lon="6.97352">
        <ele>462.6</ele>
        <time>2011-11-24T12:12:39Z</time>
      </trkpt>
      <trkpt lat="43.68101" lon="6.97342">
        <ele>462.5</ele>
        <time>2011-11-24T12:12:41Z</time>
      </trkpt>
      <trkpt lat="43.68102" lon="6.97332">
        <ele>462.7</ele>
        <time>2011-11-24T12:12:43Z</time>
      </trkpt>
      <trkpt lat="43.68104" lon="6.97322">
        <ele>462.5</ele>
        <time>2011-11-24T12:12:45Z</time>
      </trkpt>
      <trkpt lat="43.68103" lon="6.97312">
        <ele>462.8</ele>
        <time>2011-11-24T12:12:47Z</time>
      </trkpt>
      <trkpt lat="43.68103" lon="6.97305">
        <ele>462.1</ele>
        <time>2011-11-24T12:12:48Z</time>
      </trkpt>
      <trkpt lat="43.68102" lon="6.97294">
        <ele>460.9</ele>
        <time>2011-11-24T12:12:50Z</time>
      </trkpt>
      <trkpt lat="43.681" lon="6.97287">
        <ele>459</ele>
        <time>2011-11-24T12:12:52Z</time>
      </trkpt>
      <trkpt lat="43.681" lon="6.97276">
        <ele>458.7</ele>
        <time>2011-11-24T12:12:54Z</time>
      </trkpt>
      <trkpt lat="43.681" lon="6.97265">
        <ele>458.3</ele>
        <time>2011-11-24T12:12:56Z</time>
      </trkpt>
      <trkpt lat="43.68101" lon="6.97255">
        <ele>458.1</ele>
        <time>2011-11-24T12:12:58Z</time>
      </trkpt>
      <trkpt lat="43.681" lon="6.97248">
        <ele>457.2</ele>
        <time>2011-11-24T12:12:59Z</time>
      </trkpt>
      <trkpt lat="43.681" lon="6.97236">
        <ele>456</ele>
        <time>2011-11-24T12:13:01Z</time>
      </trkpt>
      <trkpt lat="43.68099" lon="6.97228">
        <ele>456</ele>
        <time>2011-11-24T12:13:02Z</time>
      </trkpt>
      <trkpt lat="43.68097" lon="6.97221">
        <ele>456.4</ele>
        <time>2011-11-24T12:13:03Z</time>
      </trkpt>
      <trkpt lat="43.68096" lon="6.97214">
        <ele>456.6</ele>
        <time>2011-11-24T12:13:04Z</time>
      </trkpt>
      <trkpt lat="43.68094" lon="6.97205">
        <ele>456.8</ele>
        <time>2011-11-24T12:13:06Z</time>
      </trkpt>
      <trkpt lat="43.68095" lon="6.97198">
        <ele>457.2</ele>
        <time>2011-11-24T12:13:09Z</time>
      </trkpt>
      <trkpt lat="43.68091" lon="6.97191">
        <ele>457.1</ele>
        <time>2011-11-24T12:13:10Z</time>
      </trkpt>
      <trkpt lat="43.68087" lon="6.9718">
        <ele>457.1</ele>
        <time>2011-11-24T12:13:12Z</time>
      </trkpt>
      <trkpt lat="43.68085" lon="6.97174">
        <ele>457.2</ele>
        <time>2011-11-24T12:13:13Z</time>
      </trkpt>
      <trkpt lat="43.68079" lon="6.97168">
        <ele>456.8</ele>
        <time>2011-11-24T12:13:14Z</time>
      </trkpt>
      <trkpt lat="43.68075" lon="6.97162">
        <ele>457.3</ele>
        <time>2011-11-24T12:13:15Z</time>
      </trkpt>
      <trkpt lat="43.68072" lon="6.97155">
        <ele>457.2</ele>
        <time>2011-11-24T12:13:16Z</time>
      </trkpt>
      <trkpt lat="43.68069" lon="6.97148">
        <ele>457.2</ele>
        <time>2011-11-24T12:13:17Z</time>
      </trkpt>
      <trkpt lat="43.68068" lon="6.9714">
        <ele>457.1</ele>
        <time>2011-11-24T12:13:18Z</time>
      </trkpt>
      <trkpt lat="43.68067" lon="6.97133">
        <ele>456.8</ele>
        <time>2011-11-24T12:13:19Z</time>
      </trkpt>
      <trkpt lat="43.68069" lon="6.97127">
        <ele>457.3</ele>
        <time>2011-11-24T12:13:20Z</time>
      </trkpt>
      <trkpt lat="43.6807" lon="6.9712">
        <ele>457.3</ele>
        <time>2011-11-24T12:13:21Z</time>
      </trkpt>
      <trkpt lat="43.68071" lon="6.97108">
        <ele>458.1</ele>
        <time>2011-11-24T12:13:23Z</time>
      </trkpt>
      <trkpt lat="43.68073" lon="6.97097">
        <ele>458.9</ele>
        <time>2011-11-24T12:13:25Z</time>
      </trkpt>
      <trkpt lat="43.68072" lon="6.97091">
        <ele>464.4</ele>
        <time>2011-11-24T12:13:26Z</time>
      </trkpt>
      <trkpt lat="43.68072" lon="6.9708">
        <ele>467.5</ele>
        <time>2011-11-24T12:13:28Z</time>
      </trkpt>
      <trkpt lat="43.68078" lon="6.97074">
        <ele>467.6</ele>
        <time>2011-11-24T12:13:30Z</time>
      </trkpt>
      <trkpt lat="43.68084" lon="6.97068">
        <ele>470.5</ele>
        <time>2011-11-24T12:13:32Z</time>
      </trkpt>
      <trkpt lat="43.6809" lon="6.97063">
        <ele>472</ele>
        <time>2011-11-24T12:13:34Z</time>
      </trkpt>
      <trkpt lat="43.68096" lon="6.97057">
        <ele>472.6</ele>
        <time>2011-11-24T12:13:36Z</time>
      </trkpt>
      <trkpt lat="43.68102" lon="6.97051">
        <ele>474.7</ele>
        <time>2011-11-24T12:13:38Z</time>
      </trkpt>
      <trkpt lat="43.68108" lon="6.97045">
        <ele>471.8</ele>
        <time>2011-11-24T12:13:40Z</time>
      </trkpt>
      <trkpt lat="43.68112" lon="6.9704">
        <ele>473</ele>
        <time>2011-11-24T12:13:42Z</time>
      </trkpt>
      <trkpt lat="43.68117" lon="6.97035">
        <ele>473.6</ele>
        <time>2011-11-24T12:13:44Z</time>
      </trkpt>
      <trkpt lat="43.68121" lon="6.97027">
        <ele>472.8</ele>
        <time>2011-11-24T12:13:46Z</time>
      </trkpt>
      <trkpt lat="43.68126" lon="6.97021">
        <ele>472.4</ele>
        <time>2011-11-24T12:13:48Z</time>
      </trkpt>
      <trkpt lat="43.6813" lon="6.97015">
        <ele>472.2</ele>
        <time>2011-11-24T12:13:50Z</time>
      </trkpt>
      <trkpt lat="43.68132" lon="6.97007">
        <ele>472.6</ele>
        <time>2011-11-24T12:13:52Z</time>
      </trkpt>
      <trkpt lat="43.68134" lon="6.97">
        <ele>472.1</ele>
        <time>2011-11-24T12:13:54Z</time>
      </trkpt>
      <trkpt lat="43.68137" lon="6.96995">
        <ele>472.6</ele>
        <time>2011-11-24T12:13:56Z</time>
      </trkpt>
      <trkpt lat="43.68141" lon="6.96991">
        <ele>474</ele>
        <time>2011-11-24T12:13:58Z</time>
      </trkpt>
      <trkpt lat="43.68144" lon="6.96987">
        <ele>473.9</ele>
        <time>2011-11-24T12:14:00Z</time>
      </trkpt>
      <trkpt lat="43.68149" lon="6.96984">
        <ele>475.5</ele>
        <time>2011-11-24T12:14:03Z</time>
      </trkpt>
      <trkpt lat="43.68154" lon="6.96981">
        <ele>477.4</ele>
        <time>2011-11-24T12:14:06Z</time>
      </trkpt>
      <trkpt lat="43.68158" lon="6.96978">
        <ele>479.5</ele>
        <time>2011-11-24T12:14:09Z</time>
      </trkpt>
      <trkpt lat="43.68163" lon="6.96975">
        <ele>480.9</ele>
        <time>2011-11-24T12:14:12Z</time>
      </trkpt>
      <trkpt lat="43.68167" lon="6.96972">
        <ele>481.7</ele>
        <time>2011-11-24T12:14:15Z</time>
      </trkpt>
      <trkpt lat="43.68172" lon="6.9697">
        <ele>481.7</ele>
        <time>2011-11-24T12:14:17Z</time>
      </trkpt>
      <trkpt lat="43.68176" lon="6.96966">
        <ele>485.4</ele>
        <time>2011-11-24T12:14:22Z</time>
      </trkpt>
      <trkpt lat="43.68179" lon="6.9696">
        <ele>485.4</ele>
        <time>2011-11-24T12:14:25Z</time>
      </trkpt>
      <trkpt lat="43.68182" lon="6.96954">
        <ele>485.7</ele>
        <time>2011-11-24T12:14:28Z</time>
      </trkpt>
      <trkpt lat="43.68184" lon="6.96949">
        <ele>486.1</ele>
        <time>2011-11-24T12:14:31Z</time>
      </trkpt>
      <trkpt lat="43.68188" lon="6.96943">
        <ele>487</ele>
        <time>2011-11-24T12:14:35Z</time>
      </trkpt>
      <trkpt lat="43.68192" lon="6.96937">
        <ele>487.6</ele>
        <time>2011-11-24T12:14:39Z</time>
      </trkpt>
      <trkpt lat="43.68196" lon="6.96931">
        <ele>488.7</ele>
        <time>2011-11-24T12:14:43Z</time>
      </trkpt>
      <trkpt lat="43.682" lon="6.96926">
        <ele>490</ele>
        <time>2011-11-24T12:14:46Z</time>
      </trkpt>
      <trkpt lat="43.68202" lon="6.9692">
        <ele>490</ele>
        <time>2011-11-24T12:14:49Z</time>
      </trkpt>
      <trkpt lat="43.68206" lon="6.96915">
        <ele>490.2</ele>
        <time>2011-11-24T12:14:52Z</time>
      </trkpt>
      <trkpt lat="43.68209" lon="6.9691">
        <ele>490.9</ele>
        <time>2011-11-24T12:14:55Z</time>
      </trkpt>
      <trkpt lat="43.68213" lon="6.96904">
        <ele>491</ele>
        <time>2011-11-24T12:14:59Z</time>
      </trkpt>
      <trkpt lat="43.68216" lon="6.96898">
        <ele>492.6</ele>
        <time>2011-11-24T12:15:02Z</time>
      </trkpt>
      <trkpt lat="43.6822" lon="6.96892">
        <ele>493.7</ele>
        <time>2011-11-24T12:15:05Z</time>
      </trkpt>
      <trkpt lat="43.68224" lon="6.96886">
        <ele>493.5</ele>
        <time>2011-11-24T12:15:07Z</time>
      </trkpt>
      <trkpt lat="43.68227" lon="6.96881">
        <ele>493.7</ele>
        <time>2011-11-24T12:15:09Z</time>
      </trkpt>
      <trkpt lat="43.68231" lon="6.96874">
        <ele>494.3</ele>
        <time>2011-11-24T12:15:12Z</time>
      </trkpt>
      <trkpt lat="43.68235" lon="6.96866">
        <ele>494.1</ele>
        <time>2011-11-24T12:15:15Z</time>
      </trkpt>
      <trkpt lat="43.68239" lon="6.9686">
        <ele>493.9</ele>
        <time>2011-11-24T12:15:18Z</time>
      </trkpt>
      <trkpt lat="43.68241" lon="6.96853">
        <ele>493.3</ele>
        <time>2011-11-24T12:15:21Z</time>
      </trkpt>
      <trkpt lat="43.68242" lon="6.96847">
        <ele>493.9</ele>
        <time>2011-11-24T12:15:23Z</time>
      </trkpt>
      <trkpt lat="43.68245" lon="6.9684">
        <ele>494.4</ele>
        <time>2011-11-24T12:15:26Z</time>
      </trkpt>
      <trkpt lat="43.68246" lon="6.96834">
        <ele>495.1</ele>
        <time>2011-11-24T12:15:28Z</time>
      </trkpt>
      <trkpt lat="43.6825" lon="6.96828">
        <ele>494</ele>
        <time>2011-11-24T12:15:31Z</time>
      </trkpt>
      <trkpt lat="43.68253" lon="6.96824">
        <ele>491.9</ele>
        <time>2011-11-24T12:15:33Z</time>
      </trkpt>
      <trkpt lat="43.68257" lon="6.96818">
        <ele>491.9</ele>
        <time>2011-11-24T12:15:36Z</time>
      </trkpt>
      <trkpt lat="43.68261" lon="6.96812">
        <ele>492.4</ele>
        <time>2011-11-24T12:15:39Z</time>
      </trkpt>
      <trkpt lat="43.68265" lon="6.96807">
        <ele>493.5</ele>
        <time>2011-11-24T12:15:42Z</time>
      </trkpt>
      <trkpt lat="43.68268" lon="6.96801">
        <ele>496.8</ele>
        <time>2011-11-24T12:15:45Z</time>
      </trkpt>
      <trkpt lat="43.68272" lon="6.96797">
        <ele>497.2</ele>
        <time>2011-11-24T12:15:48Z</time>
      </trkpt>
      <trkpt lat="43.68275" lon="6.96791">
        <ele>499.9</ele>
        <time>2011-11-24T12:15:52Z</time>
      </trkpt>
      <trkpt lat="43.68278" lon="6.96784">
        <ele>501.7</ele>
        <time>2011-11-24T12:15:56Z</time>
      </trkpt>
      <trkpt lat="43.68281" lon="6.96779">
        <ele>502.5</ele>
        <time>2011-11-24T12:16:00Z</time>
      </trkpt>
      <trkpt lat="43.68284" lon="6.96774">
        <ele>503.2</ele>
        <time>2011-11-24T12:16:04Z</time>
      </trkpt>
      <trkpt lat="43.68287" lon="6.96768">
        <ele>503.3</ele>
        <time>2011-11-24T12:16:09Z</time>
      </trkpt>
      <trkpt lat="43.6829" lon="6.96762">
        <ele>504.7</ele>
        <time>2011-11-24T12:16:13Z</time>
      </trkpt>
      <trkpt lat="43.68294" lon="6.96758">
        <ele>505.8</ele>
        <time>2011-11-24T12:16:16Z</time>
      </trkpt>
      <trkpt lat="43.68296" lon="6.96749">
        <ele>510.4</ele>
        <time>2011-11-24T12:16:20Z</time>
      </trkpt>
      <trkpt lat="43.683" lon="6.96743">
        <ele>513.2</ele>
        <time>2011-11-24T12:16:24Z</time>
      </trkpt>
      <trkpt lat="43.68304" lon="6.96738">
        <ele>513</ele>
        <time>2011-11-24T12:16:27Z</time>
      </trkpt>
      <trkpt lat="43.68307" lon="6.96732">
        <ele>513.8</ele>
        <time>2011-11-24T12:16:31Z</time>
      </trkpt>
      <trkpt lat="43.6831" lon="6.96726">
        <ele>512.1</ele>
        <time>2011-11-24T12:16:34Z</time>
      </trkpt>
      <trkpt lat="43.68311" lon="6.9672">
        <ele>512.7</ele>
        <time>2011-11-24T12:16:37Z</time>
      </trkpt>
      <trkpt lat="43.68312" lon="6.96712">
        <ele>514.8</ele>
        <time>2011-11-24T12:16:41Z</time>
      </trkpt>
      <trkpt lat="43.68315" lon="6.96706">
        <ele>515.2</ele>
        <time>2011-11-24T12:16:45Z</time>
      </trkpt>
      <trkpt lat="43.68318" lon="6.96698">
        <ele>517.5</ele>
        <time>2011-11-24T12:16:49Z</time>
      </trkpt>
      <trkpt lat="43.68321" lon="6.96692">
        <ele>518.8</ele>
        <time>2011-11-24T12:16:52Z</time>
      </trkpt>
      <trkpt lat="43.68326" lon="6.96688">
        <ele>519.1</ele>
        <time>2011-11-24T12:16:57Z</time>
      </trkpt>
      <trkpt lat="43.68329" lon="6.96682">
        <ele>521.4</ele>
        <time>2011-11-24T12:17:00Z</time>
      </trkpt>
      <trkpt lat="43.68333" lon="6.9668">
        <ele>526.7</ele>
        <time>2011-11-24T12:17:04Z</time>
      </trkpt>
      <trkpt lat="43.68338" lon="6.96684">
        <ele>528.9</ele>
        <time>2011-11-24T12:17:08Z</time>
      </trkpt>
      <trkpt lat="43.68341" lon="6.9669">
        <ele>531</ele>
        <time>2011-11-24T12:17:12Z</time>
      </trkpt>
      <trkpt lat="43.68344" lon="6.96695">
        <ele>531.8</ele>
        <time>2011-11-24T12:17:15Z</time>
      </trkpt>
      <trkpt lat="43.68348" lon="6.96699">
        <ele>532.3</ele>
        <time>2011-11-24T12:17:19Z</time>
      </trkpt>
      <trkpt lat="43.68351" lon="6.96706">
        <ele>533</ele>
        <time>2011-11-24T12:17:22Z</time>
      </trkpt>
      <trkpt lat="43.68353" lon="6.96712">
        <ele>532.6</ele>
        <time>2011-11-24T12:17:26Z</time>
      </trkpt>
      <trkpt lat="43.68356" lon="6.96718">
        <ele>531.6</ele>
        <time>2011-11-24T12:17:29Z</time>
      </trkpt>
      <trkpt lat="43.68362" lon="6.96719">
        <ele>532.2</ele>
        <time>2011-11-24T12:17:33Z</time>
      </trkpt>
      <trkpt lat="43.68365" lon="6.96715">
        <ele>535.5</ele>
        <time>2011-11-24T12:17:37Z</time>
      </trkpt>
      <trkpt lat="43.68366" lon="6.96708">
        <ele>537.8</ele>
        <time>2011-11-24T12:17:41Z</time>
      </trkpt>
      <trkpt lat="43.68368" lon="6.96702">
        <ele>536.7</ele>
        <time>2011-11-24T12:17:45Z</time>
      </trkpt>
      <trkpt lat="43.68371" lon="6.96696">
        <ele>538.9</ele>
        <time>2011-11-24T12:17:50Z</time>
      </trkpt>
      <trkpt lat="43.68373" lon="6.96689">
        <ele>540.6</ele>
        <time>2011-11-24T12:17:55Z</time>
      </trkpt>
      <trkpt lat="43.68376" lon="6.96684">
        <ele>541.7</ele>
        <time>2011-11-24T12:17:59Z</time>
      </trkpt>
      <trkpt lat="43.68379" lon="6.96678">
        <ele>542.3</ele>
        <time>2011-11-24T12:18:03Z</time>
      </trkpt>
      <trkpt lat="43.68382" lon="6.96673">
        <ele>543.8</ele>
        <time>2011-11-24T12:18:07Z</time>
      </trkpt>
      <trkpt lat="43.68386" lon="6.96669">
        <ele>543.1</ele>
        <time>2011-11-24T12:18:11Z</time>
      </trkpt>
      <trkpt lat="43.6839" lon="6.96671">
        <ele>542.6</ele>
        <time>2011-11-24T12:18:14Z</time>
      </trkpt>
      <trkpt lat="43.68394" lon="6.96675">
        <ele>543.3</ele>
        <time>2011-11-24T12:18:18Z</time>
      </trkpt>
      <trkpt lat="43.68395" lon="6.96682">
        <ele>545.1</ele>
        <time>2011-11-24T12:18:23Z</time>
      </trkpt>
      <trkpt lat="43.68395" lon="6.96688">
        <ele>546.3</ele>
        <time>2011-11-24T12:18:27Z</time>
      </trkpt>
      <trkpt lat="43.68397" lon="6.96695">
        <ele>547.4</ele>
        <time>2011-11-24T12:18:31Z</time>
      </trkpt>
      <trkpt lat="43.68402" lon="6.96695">
        <ele>548.9</ele>
        <time>2011-11-24T12:18:34Z</time>
      </trkpt>
      <trkpt lat="43.68406" lon="6.96691">
        <ele>548.5</ele>
        <time>2011-11-24T12:18:38Z</time>
      </trkpt>
      <trkpt lat="43.68406" lon="6.96684">
        <ele>547.8</ele>
        <time>2011-11-24T12:18:42Z</time>
      </trkpt>
      <trkpt lat="43.68409" lon="6.96677">
        <ele>548.1</ele>
        <time>2011-11-24T12:18:46Z</time>
      </trkpt>
      <trkpt lat="43.68412" lon="6.96671">
        <ele>550.4</ele>
        <time>2011-11-24T12:18:50Z</time>
      </trkpt>
      <trkpt lat="43.68414" lon="6.96664">
        <ele>551.2</ele>
        <time>2011-11-24T12:18:54Z</time>
      </trkpt>
      <trkpt lat="43.68417" lon="6.96658">
        <ele>553.3</ele>
        <time>2011-11-24T12:18:58Z</time>
      </trkpt>
      <trkpt lat="43.68419" lon="6.96651">
        <ele>555.9</ele>
        <time>2011-11-24T12:19:02Z</time>
      </trkpt>
      <trkpt lat="43.68423" lon="6.96647">
        <ele>556.9</ele>
        <time>2011-11-24T12:19:05Z</time>
      </trkpt>
      <trkpt lat="43.68428" lon="6.96644">
        <ele>556.9</ele>
        <time>2011-11-24T12:19:09Z</time>
      </trkpt>
      <trkpt lat="43.68432" lon="6.9665">
        <ele>556.4</ele>
        <time>2011-11-24T12:19:12Z</time>
      </trkpt>
      <trkpt lat="43.68437" lon="6.96653">
        <ele>557.2</ele>
        <time>2011-11-24T12:19:15Z</time>
      </trkpt>
      <trkpt lat="43.6844" lon="6.96648">
        <ele>557.2</ele>
        <time>2011-11-24T12:19:17Z</time>
      </trkpt>
      <trkpt lat="43.68444" lon="6.96643">
        <ele>559.1</ele>
        <time>2011-11-24T12:19:21Z</time>
      </trkpt>
      <trkpt lat="43.68447" lon="6.96638">
        <ele>560.6</ele>
        <time>2011-11-24T12:19:25Z</time>
      </trkpt>
      <trkpt lat="43.6845" lon="6.96634">
        <ele>561.7</ele>
        <time>2011-11-24T12:19:29Z</time>
      </trkpt>
      <trkpt lat="43.68455" lon="6.96628">
        <ele>562.4</ele>
        <time>2011-11-24T12:19:33Z</time>
      </trkpt>
      <trkpt lat="43.68457" lon="6.96621">
        <ele>563</ele>
        <time>2011-11-24T12:19:37Z</time>
      </trkpt>
      <trkpt lat="43.68457" lon="6.96614">
        <ele>565.6</ele>
        <time>2011-11-24T12:19:41Z</time>
      </trkpt>
      <trkpt lat="43.6846" lon="6.96607">
        <ele>564.9</ele>
        <time>2011-11-24T12:19:45Z</time>
      </trkpt>
      <trkpt lat="43.68461" lon="6.966">
        <ele>565.1</ele>
        <time>2011-11-24T12:19:49Z</time>
      </trkpt>
      <trkpt lat="43.68463" lon="6.96593">
        <ele>565.4</ele>
        <time>2011-11-24T12:19:53Z</time>
      </trkpt>
      <trkpt lat="43.68465" lon="6.96586">
        <ele>566.3</ele>
        <time>2011-11-24T12:19:57Z</time>
      </trkpt>
      <trkpt lat="43.68468" lon="6.9658">
        <ele>567.8</ele>
        <time>2011-11-24T12:20:01Z</time>
      </trkpt>
      <trkpt lat="43.68471" lon="6.96575">
        <ele>567.9</ele>
        <time>2011-11-24T12:20:04Z</time>
      </trkpt>
      <trkpt lat="43.68471" lon="6.96569">
        <ele>568.4</ele>
        <time>2011-11-24T12:20:07Z</time>
      </trkpt>
      <trkpt lat="43.68474" lon="6.96563">
        <ele>569.6</ele>
        <time>2011-11-24T12:20:11Z</time>
      </trkpt>
      <trkpt lat="43.68477" lon="6.96557">
        <ele>569.6</ele>
        <time>2011-11-24T12:20:15Z</time>
      </trkpt>
      <trkpt lat="43.68481" lon="6.96552">
        <ele>571</ele>
        <time>2011-11-24T12:20:19Z</time>
      </trkpt>
      <trkpt lat="43.68484" lon="6.96545">
        <ele>571.9</ele>
        <time>2011-11-24T12:20:23Z</time>
      </trkpt>
      <trkpt lat="43.68485" lon="6.96539">
        <ele>573.3</ele>
        <time>2011-11-24T12:20:27Z</time>
      </trkpt>
      <trkpt lat="43.68488" lon="6.96532">
        <ele>574.5</ele>
        <time>2011-11-24T12:20:32Z</time>
      </trkpt>
      <trkpt lat="43.68491" lon="6.96527">
        <ele>574.4</ele>
        <time>2011-11-24T12:20:36Z</time>
      </trkpt>
      <trkpt lat="43.68493" lon="6.9652">
        <ele>575.8</ele>
        <time>2011-11-24T12:20:40Z</time>
      </trkpt>
      <trkpt lat="43.68496" lon="6.96513">
        <ele>576</ele>
        <time>2011-11-24T12:20:44Z</time>
      </trkpt>
      <trkpt lat="43.68499" lon="6.96508">
        <ele>576.5</ele>
        <time>2011-11-24T12:20:48Z</time>
      </trkpt>
      <trkpt lat="43.68502" lon="6.96502">
        <ele>577.2</ele>
        <time>2011-11-24T12:20:52Z</time>
      </trkpt>
      <trkpt lat="43.68504" lon="6.96496">
        <ele>578.6</ele>
        <time>2011-11-24T12:20:56Z</time>
      </trkpt>
      <trkpt lat="43.68506" lon="6.9649">
        <ele>579.3</ele>
        <time>2011-11-24T12:21:00Z</time>
      </trkpt>
      <trkpt lat="43.68509" lon="6.96484">
        <ele>581.2</ele>
        <time>2011-11-24T12:21:05Z</time>
      </trkpt>
      <trkpt lat="43.68512" lon="6.96478">
        <ele>583.3</ele>
        <time>2011-11-24T12:21:10Z</time>
      </trkpt>
      <trkpt lat="43.68515" lon="6.96474">
        <ele>583.9</ele>
        <time>2011-11-24T12:21:14Z</time>
      </trkpt>
      <trkpt lat="43.68518" lon="6.96468">
        <ele>583.6</ele>
        <time>2011-11-24T12:21:18Z</time>
      </trkpt>
      <trkpt lat="43.6852" lon="6.96462">
        <ele>584.7</ele>
        <time>2011-11-24T12:21:22Z</time>
      </trkpt>
      <trkpt lat="43.68524" lon="6.96455">
        <ele>587</ele>
        <time>2011-11-24T12:21:27Z</time>
      </trkpt>
      <trkpt lat="43.68526" lon="6.9645">
        <ele>587.7</ele>
        <time>2011-11-24T12:21:31Z</time>
      </trkpt>
      <trkpt lat="43.68529" lon="6.96445">
        <ele>588.9</ele>
        <time>2011-11-24T12:21:35Z</time>
      </trkpt>
      <trkpt lat="43.68533" lon="6.9644">
        <ele>589.6</ele>
        <time>2011-11-24T12:21:40Z</time>
      </trkpt>
      <trkpt lat="43.68536" lon="6.96434">
        <ele>589.7</ele>
        <time>2011-11-24T12:21:44Z</time>
      </trkpt>
      <trkpt lat="43.68538" lon="6.96427">
        <ele>591.2</ele>
        <time>2011-11-24T12:21:48Z</time>
      </trkpt>
      <trkpt lat="43.68541" lon="6.96421">
        <ele>592.4</ele>
        <time>2011-11-24T12:21:52Z</time>
      </trkpt>
      <trkpt lat="43.68544" lon="6.96414">
        <ele>592.8</ele>
        <time>2011-11-24T12:21:56Z</time>
      </trkpt>
      <trkpt lat="43.68544" lon="6.96406">
        <ele>594.1</ele>
        <time>2011-11-24T12:22:00Z</time>
      </trkpt>
      <trkpt lat="43.68546" lon="6.96399">
        <ele>595.3</ele>
        <time>2011-11-24T12:22:04Z</time>
      </trkpt>
      <trkpt lat="43.68549" lon="6.96392">
        <ele>595.9</ele>
        <time>2011-11-24T12:22:08Z</time>
      </trkpt>
      <trkpt lat="43.68551" lon="6.96386">
        <ele>596.6</ele>
        <time>2011-11-24T12:22:11Z</time>
      </trkpt>
      <trkpt lat="43.68553" lon="6.96379">
        <ele>598.7</ele>
        <time>2011-11-24T12:22:15Z</time>
      </trkpt>
      <trkpt lat="43.68557" lon="6.96372">
        <ele>599.6</ele>
        <time>2011-11-24T12:22:19Z</time>
      </trkpt>
      <trkpt lat="43.68559" lon="6.96367">
        <ele>600.6</ele>
        <time>2011-11-24T12:22:23Z</time>
      </trkpt>
      <trkpt lat="43.68562" lon="6.96362">
        <ele>600.9</ele>
        <time>2011-11-24T12:22:26Z</time>
      </trkpt>
      <trkpt lat="43.68565" lon="6.96355">
        <ele>601</ele>
        <time>2011-11-24T12:22:29Z</time>
      </trkpt>
      <trkpt lat="43.68569" lon="6.96348">
        <ele>600.4</ele>
        <time>2011-11-24T12:22:32Z</time>
      </trkpt>
      <trkpt lat="43.68571" lon="6.96342">
        <ele>600</ele>
        <time>2011-11-24T12:22:34Z</time>
      </trkpt>
      <trkpt lat="43.68574" lon="6.96335">
        <ele>600.1</ele>
        <time>2011-11-24T12:22:37Z</time>
      </trkpt>
      <trkpt lat="43.68578" lon="6.96328">
        <ele>599.3</ele>
        <time>2011-11-24T12:22:40Z</time>
      </trkpt>
      <trkpt lat="43.6858" lon="6.96321">
        <ele>599.9</ele>
        <time>2011-11-24T12:22:43Z</time>
      </trkpt>
      <trkpt lat="43.68583" lon="6.96315">
        <ele>598.4</ele>
        <time>2011-11-24T12:22:45Z</time>
      </trkpt>
      <trkpt lat="43.68585" lon="6.96308">
        <ele>598.9</ele>
        <time>2011-11-24T12:22:47Z</time>
      </trkpt>
      <trkpt lat="43.68586" lon="6.96302">
        <ele>597.7</ele>
        <time>2011-11-24T12:22:49Z</time>
      </trkpt>
      <trkpt lat="43.68587" lon="6.96294">
        <ele>597.6</ele>
        <time>2011-11-24T12:22:52Z</time>
      </trkpt>
      <trkpt lat="43.68587" lon="6.96286">
        <ele>597.9</ele>
        <time>2011-11-24T12:22:55Z</time>
      </trkpt>
      <trkpt lat="43.68588" lon="6.96279">
        <ele>599.1</ele>
        <time>2011-11-24T12:22:57Z</time>
      </trkpt>
      <trkpt lat="43.6859" lon="6.96272">
        <ele>598.8</ele>
        <time>2011-11-24T12:22:59Z</time>
      </trkpt>
      <trkpt lat="43.68589" lon="6.96266">
        <ele>599.8</ele>
        <time>2011-11-24T12:23:01Z</time>
      </trkpt>
      <trkpt lat="43.6859" lon="6.96258">
        <ele>601.8</ele>
        <time>2011-11-24T12:23:05Z</time>
      </trkpt>
      <trkpt lat="43.68593" lon="6.96251">
        <ele>602.4</ele>
        <time>2011-11-24T12:23:08Z</time>
      </trkpt>
      <trkpt lat="43.68594" lon="6.96244">
        <ele>603.9</ele>
        <time>2011-11-24T12:23:11Z</time>
      </trkpt>
      <trkpt lat="43.68595" lon="6.96238">
        <ele>605.7</ele>
        <time>2011-11-24T12:23:14Z</time>
      </trkpt>
      <trkpt lat="43.68598" lon="6.96231">
        <ele>607.5</ele>
        <time>2011-11-24T12:23:17Z</time>
      </trkpt>
      <trkpt lat="43.686" lon="6.96224">
        <ele>609.4</ele>
        <time>2011-11-24T12:23:20Z</time>
      </trkpt>
      <trkpt lat="43.68602" lon="6.96218">
        <ele>611.6</ele>
        <time>2011-11-24T12:23:23Z</time>
      </trkpt>
      <trkpt lat="43.68606" lon="6.96211">
        <ele>611.2</ele>
        <time>2011-11-24T12:23:26Z</time>
      </trkpt>
      <trkpt lat="43.68607" lon="6.96204">
        <ele>612.1</ele>
        <time>2011-11-24T12:23:29Z</time>
      </trkpt>
      <trkpt lat="43.6861" lon="6.96196">
        <ele>613.4</ele>
        <time>2011-11-24T12:23:33Z</time>
      </trkpt>
      <trkpt lat="43.68612" lon="6.9619">
        <ele>613.4</ele>
        <time>2011-11-24T12:23:36Z</time>
      </trkpt>
      <trkpt lat="43.68614" lon="6.96183">
        <ele>614.2</ele>
        <time>2011-11-24T12:23:40Z</time>
      </trkpt>
      <trkpt lat="43.68616" lon="6.96178">
        <ele>614.3</ele>
        <time>2011-11-24T12:23:43Z</time>
      </trkpt>
      <trkpt lat="43.68619" lon="6.96172">
        <ele>614.6</ele>
        <time>2011-11-24T12:23:46Z</time>
      </trkpt>
      <trkpt lat="43.68622" lon="6.96166">
        <ele>614.4</ele>
        <time>2011-11-24T12:23:49Z</time>
      </trkpt>
      <trkpt lat="43.68625" lon="6.9616">
        <ele>612.8</ele>
        <time>2011-11-24T12:23:53Z</time>
      </trkpt>
      <trkpt lat="43.68628" lon="6.96154">
        <ele>613.7</ele>
        <time>2011-11-24T12:23:57Z</time>
      </trkpt>
      <trkpt lat="43.68629" lon="6.96147">
        <ele>614</ele>
        <time>2011-11-24T12:24:00Z</time>
      </trkpt>
      <trkpt lat="43.6863" lon="6.96141">
        <ele>614.3</ele>
        <time>2011-11-24T12:24:03Z</time>
      </trkpt>
      <trkpt lat="43.68632" lon="6.96133">
        <ele>615.5</ele>
        <time>2011-11-24T12:24:07Z</time>
      </trkpt>
      <trkpt lat="43.68634" lon="6.96127">
        <ele>615.6</ele>
        <time>2011-11-24T12:24:10Z</time>
      </trkpt>
      <trkpt lat="43.68636" lon="6.96119">
        <ele>614.9</ele>
        <time>2011-11-24T12:24:14Z</time>
      </trkpt>
      <trkpt lat="43.68638" lon="6.96113">
        <ele>615.6</ele>
        <time>2011-11-24T12:24:18Z</time>
      </trkpt>
      <trkpt lat="43.6864" lon="6.96107">
        <ele>613.2</ele>
        <time>2011-11-24T12:24:22Z</time>
      </trkpt>
      <trkpt lat="43.68643" lon="6.961">
        <ele>612.2</ele>
        <time>2011-11-24T12:24:25Z</time>
      </trkpt>
      <trkpt lat="43.68642" lon="6.96094">
        <ele>615.8</ele>
        <time>2011-11-24T12:24:28Z</time>
      </trkpt>
      <trkpt lat="43.68642" lon="6.96087">
        <ele>619</ele>
        <time>2011-11-24T12:24:31Z</time>
      </trkpt>
      <trkpt lat="43.68642" lon="6.96078">
        <ele>620.6</ele>
        <time>2011-11-24T12:24:35Z</time>
      </trkpt>
      <trkpt lat="43.68641" lon="6.96072">
        <ele>621.5</ele>
        <time>2011-11-24T12:24:38Z</time>
      </trkpt>
      <trkpt lat="43.68642" lon="6.96066">
        <ele>622.6</ele>
        <time>2011-11-24T12:24:41Z</time>
      </trkpt>
      <trkpt lat="43.68642" lon="6.96058">
        <ele>624.4</ele>
        <time>2011-11-24T12:24:45Z</time>
      </trkpt>
      <trkpt lat="43.68644" lon="6.96052">
        <ele>625.5</ele>
        <time>2011-11-24T12:24:49Z</time>
      </trkpt>
      <trkpt lat="43.68644" lon="6.96046">
        <ele>625.2</ele>
        <time>2011-11-24T12:24:52Z</time>
      </trkpt>
      <trkpt lat="43.68644" lon="6.96039">
        <ele>626.1</ele>
        <time>2011-11-24T12:24:55Z</time>
      </trkpt>
      <trkpt lat="43.68645" lon="6.96032">
        <ele>627.3</ele>
        <time>2011-11-24T12:24:59Z</time>
      </trkpt>
      <trkpt lat="43.68647" lon="6.96025">
        <ele>629</ele>
        <time>2011-11-24T12:25:03Z</time>
      </trkpt>
      <trkpt lat="43.68647" lon="6.96019">
        <ele>630.1</ele>
        <time>2011-11-24T12:25:06Z</time>
      </trkpt>
      <trkpt lat="43.68646" lon="6.96011">
        <ele>632.4</ele>
        <time>2011-11-24T12:25:10Z</time>
      </trkpt>
      <trkpt lat="43.68648" lon="6.96005">
        <ele>633.5</ele>
        <time>2011-11-24T12:25:13Z</time>
      </trkpt>
      <trkpt lat="43.68651" lon="6.95998">
        <ele>636</ele>
        <time>2011-11-24T12:25:17Z</time>
      </trkpt>
      <trkpt lat="43.68654" lon="6.95993">
        <ele>637.5</ele>
        <time>2011-11-24T12:25:20Z</time>
      </trkpt>
      <trkpt lat="43.68659" lon="6.95988">
        <ele>639</ele>
        <time>2011-11-24T12:25:24Z</time>
      </trkpt>
      <trkpt lat="43.68664" lon="6.95984">
        <ele>640</ele>
        <time>2011-11-24T12:25:27Z</time>
      </trkpt>
      <trkpt lat="43.68668" lon="6.9598">
        <ele>641.8</ele>
        <time>2011-11-24T12:25:31Z</time>
      </trkpt>
      <trkpt lat="43.68672" lon="6.95973">
        <ele>641.3</ele>
        <time>2011-11-24T12:25:34Z</time>
      </trkpt>
      <trkpt lat="43.68675" lon="6.95968">
        <ele>641.8</ele>
        <time>2011-11-24T12:25:37Z</time>
      </trkpt>
      <trkpt lat="43.6868" lon="6.95962">
        <ele>642.3</ele>
        <time>2011-11-24T12:25:40Z</time>
      </trkpt>
      <trkpt lat="43.68684" lon="6.95959">
        <ele>643.5</ele>
        <time>2011-11-24T12:25:42Z</time>
      </trkpt>
      <trkpt lat="43.68688" lon="6.95954">
        <ele>643.5</ele>
        <time>2011-11-24T12:25:44Z</time>
      </trkpt>
      <trkpt lat="43.68693" lon="6.95953">
        <ele>643.5</ele>
        <time>2011-11-24T12:25:46Z</time>
      </trkpt>
      <trkpt lat="43.68698" lon="6.95952">
        <ele>643.2</ele>
        <time>2011-11-24T12:25:48Z</time>
      </trkpt>
      <trkpt lat="43.68703" lon="6.9595">
        <ele>643.3</ele>
        <time>2011-11-24T12:25:50Z</time>
      </trkpt>
      <trkpt lat="43.68708" lon="6.95949">
        <ele>643.5</ele>
        <time>2011-11-24T12:25:52Z</time>
      </trkpt>
      <trkpt lat="43.68712" lon="6.95948">
        <ele>644.2</ele>
        <time>2011-11-24T12:25:54Z</time>
      </trkpt>
      <trkpt lat="43.68717" lon="6.95947">
        <ele>644.8</ele>
        <time>2011-11-24T12:25:56Z</time>
      </trkpt>
      <trkpt lat="43.68722" lon="6.95945">
        <ele>644.5</ele>
        <time>2011-11-24T12:25:58Z</time>
      </trkpt>
      <trkpt lat="43.68727" lon="6.95944">
        <ele>644.5</ele>
        <time>2011-11-24T12:26:00Z</time>
      </trkpt>
      <trkpt lat="43.68732" lon="6.95943">
        <ele>644.9</ele>
        <time>2011-11-24T12:26:02Z</time>
      </trkpt>
      <trkpt lat="43.68737" lon="6.95943">
        <ele>645</ele>
        <time>2011-11-24T12:26:04Z</time>
      </trkpt>
      <trkpt lat="43.68742" lon="6.95943">
        <ele>645</ele>
        <time>2011-11-24T12:26:06Z</time>
      </trkpt>
      <trkpt lat="43.68746" lon="6.95943">
        <ele>645.4</ele>
        <time>2011-11-24T12:26:08Z</time>
      </trkpt>
      <trkpt lat="43.68751" lon="6.95943">
        <ele>645.9</ele>
        <time>2011-11-24T12:26:10Z</time>
      </trkpt>
      <trkpt lat="43.68757" lon="6.95945">
        <ele>646.1</ele>
        <time>2011-11-24T12:26:12Z</time>
      </trkpt>
      <trkpt lat="43.68762" lon="6.95946">
        <ele>645.9</ele>
        <time>2011-11-24T12:26:14Z</time>
      </trkpt>
      <trkpt lat="43.68768" lon="6.95947">
        <ele>646</ele>
        <time>2011-11-24T12:26:16Z</time>
      </trkpt>
      <trkpt lat="43.68774" lon="6.95946">
        <ele>646.1</ele>
        <time>2011-11-24T12:26:18Z</time>
      </trkpt>
      <trkpt lat="43.68782" lon="6.95948">
        <ele>645.9</ele>
        <time>2011-11-24T12:26:20Z</time>
      </trkpt>
      <trkpt lat="43.68787" lon="6.95949">
        <ele>646.3</ele>
        <time>2011-11-24T12:26:21Z</time>
      </trkpt>
      <trkpt lat="43.68793" lon="6.95949">
        <ele>647.2</ele>
        <time>2011-11-24T12:26:23Z</time>
      </trkpt>
      <trkpt lat="43.688" lon="6.9595">
        <ele>647.8</ele>
        <time>2011-11-24T12:26:25Z</time>
      </trkpt>
      <trkpt lat="43.68805" lon="6.95952">
        <ele>648.7</ele>
        <time>2011-11-24T12:26:26Z</time>
      </trkpt>
      <trkpt lat="43.68811" lon="6.95953">
        <ele>647.4</ele>
        <time>2011-11-24T12:26:28Z</time>
      </trkpt>
      <trkpt lat="43.6882" lon="6.95954">
        <ele>647.9</ele>
        <time>2011-11-24T12:26:30Z</time>
      </trkpt>
      <trkpt lat="43.68829" lon="6.95956">
        <ele>648.2</ele>
        <time>2011-11-24T12:26:32Z</time>
      </trkpt>
      <trkpt lat="43.68837" lon="6.9596">
        <ele>648.3</ele>
        <time>2011-11-24T12:26:34Z</time>
      </trkpt>
      <trkpt lat="43.6883" lon="6.95975">
        <ele>649.1</ele>
        <time>2011-11-24T12:26:36Z</time>
      </trkpt>
      <trkpt lat="43.68828" lon="6.95981">
        <ele>649.4</ele>
        <time>2011-11-24T12:26:37Z</time>
      </trkpt>
      <trkpt lat="43.68826" lon="6.95987">
        <ele>649.7</ele>
        <time>2011-11-24T12:26:38Z</time>
      </trkpt>
      <trkpt lat="43.68827" lon="6.95999">
        <ele>648.7</ele>
        <time>2011-11-24T12:26:40Z</time>
      </trkpt>
      <trkpt lat="43.68828" lon="6.96006">
        <ele>648.5</ele>
        <time>2011-11-24T12:26:41Z</time>
      </trkpt>
      <trkpt lat="43.68831" lon="6.96012">
        <ele>648.2</ele>
        <time>2011-11-24T12:26:42Z</time>
      </trkpt>
      <trkpt lat="43.68835" lon="6.96017">
        <ele>648.1</ele>
        <time>2011-11-24T12:26:43Z</time>
      </trkpt>
      <trkpt lat="43.6884" lon="6.96022">
        <ele>647.8</ele>
        <time>2011-11-24T12:26:44Z</time>
      </trkpt>
      <trkpt lat="43.68844" lon="6.96028">
        <ele>647.6</ele>
        <time>2011-11-24T12:26:45Z</time>
      </trkpt>
      <trkpt lat="43.68849" lon="6.9603">
        <ele>647.5</ele>
        <time>2011-11-24T12:26:46Z</time>
      </trkpt>
      <trkpt lat="43.68855" lon="6.96034">
        <ele>647.9</ele>
        <time>2011-11-24T12:26:47Z</time>
      </trkpt>
      <trkpt lat="43.68859" lon="6.9604">
        <ele>647.5</ele>
        <time>2011-11-24T12:26:48Z</time>
      </trkpt>
      <trkpt lat="43.68865" lon="6.96045">
        <ele>647.1</ele>
        <time>2011-11-24T12:26:49Z</time>
      </trkpt>
      <trkpt lat="43.6887" lon="6.9605">
        <ele>646.9</ele>
        <time>2011-11-24T12:26:50Z</time>
      </trkpt>
      <trkpt lat="43.68874" lon="6.96055">
        <ele>646.7</ele>
        <time>2011-11-24T12:26:51Z</time>
      </trkpt>
      <trkpt lat="43.68879" lon="6.96062">
        <ele>646.3</ele>
        <time>2011-11-24T12:26:52Z</time>
      </trkpt>
      <trkpt lat="43.68883" lon="6.96068">
        <ele>646.2</ele>
        <time>2011-11-24T12:26:53Z</time>
      </trkpt>
      <trkpt lat="43.68888" lon="6.96075">
        <ele>645.5</ele>
        <time>2011-11-24T12:26:54Z</time>
      </trkpt>
      <trkpt lat="43.68892" lon="6.96081">
        <ele>645.7</ele>
        <time>2011-11-24T12:26:55Z</time>
      </trkpt>
      <trkpt lat="43.68897" lon="6.9609">
        <ele>644.3</ele>
        <time>2011-11-24T12:26:56Z</time>
      </trkpt>
      <trkpt lat="43.68902" lon="6.96097">
        <ele>644.2</ele>
        <time>2011-11-24T12:26:57Z</time>
      </trkpt>
      <trkpt lat="43.68907" lon="6.96105">
        <ele>643.5</ele>
        <time>2011-11-24T12:26:58Z</time>
      </trkpt>
      <trkpt lat="43.68912" lon="6.96113">
        <ele>643.4</ele>
        <time>2011-11-24T12:26:59Z</time>
      </trkpt>
      <trkpt lat="43.68917" lon="6.9612">
        <ele>643.2</ele>
        <time>2011-11-24T12:27:00Z</time>
      </trkpt>
      <trkpt lat="43.68922" lon="6.96126">
        <ele>643.4</ele>
        <time>2011-11-24T12:27:01Z</time>
      </trkpt>
      <trkpt lat="43.68927" lon="6.96133">
        <ele>643.3</ele>
        <time>2011-11-24T12:27:02Z</time>
      </trkpt>
      <trkpt lat="43.68931" lon="6.96143">
        <ele>643.2</ele>
        <time>2011-11-24T12:27:03Z</time>
      </trkpt>
      <trkpt lat="43.68932" lon="6.96152">
        <ele>643</ele>
        <time>2011-11-24T12:27:04Z</time>
      </trkpt>
      <trkpt lat="43.68936" lon="6.96161">
        <ele>643</ele>
        <time>2011-11-24T12:27:05Z</time>
      </trkpt>
      <trkpt lat="43.68941" lon="6.9617">
        <ele>643</ele>
        <time>2011-11-24T12:27:06Z</time>
      </trkpt>
      <trkpt lat="43.68947" lon="6.96176">
        <ele>642.5</ele>
        <time>2011-11-24T12:27:07Z</time>
      </trkpt>
      <trkpt lat="43.68952" lon="6.96184">
        <ele>642.6</ele>
        <time>2011-11-24T12:27:08Z</time>
      </trkpt>
      <trkpt lat="43.68957" lon="6.9619">
        <ele>642.3</ele>
        <time>2011-11-24T12:27:09Z</time>
      </trkpt>
      <trkpt lat="43.68963" lon="6.96196">
        <ele>642</ele>
        <time>2011-11-24T12:27:10Z</time>
      </trkpt>
      <trkpt lat="43.68968" lon="6.96204">
        <ele>641.4</ele>
        <time>2011-11-24T12:27:11Z</time>
      </trkpt>
      <trkpt lat="43.68973" lon="6.96212">
        <ele>641.2</ele>
        <time>2011-11-24T12:27:12Z</time>
      </trkpt>
      <trkpt lat="43.68978" lon="6.9622">
        <ele>640</ele>
        <time>2011-11-24T12:27:13Z</time>
      </trkpt>
      <trkpt lat="43.68984" lon="6.96227">
        <ele>640.3</ele>
        <time>2011-11-24T12:27:14Z</time>
      </trkpt>
      <trkpt lat="43.68989" lon="6.96234">
        <ele>639.2</ele>
        <time>2011-11-24T12:27:15Z</time>
      </trkpt>
      <trkpt lat="43.68994" lon="6.96241">
        <ele>638.9</ele>
        <time>2011-11-24T12:27:16Z</time>
      </trkpt>
      <trkpt lat="43.68999" lon="6.96247">
        <ele>638.9</ele>
        <time>2011-11-24T12:27:17Z</time>
      </trkpt>
      <trkpt lat="43.69003" lon="6.96254">
        <ele>638.7</ele>
        <time>2011-11-24T12:27:18Z</time>
      </trkpt>
      <trkpt lat="43.69007" lon="6.96261">
        <ele>638.8</ele>
        <time>2011-11-24T12:27:19Z</time>
      </trkpt>
      <trkpt lat="43.69011" lon="6.96267">
        <ele>639.1</ele>
        <time>2011-11-24T12:27:20Z</time>
      </trkpt>
      <trkpt lat="43.69013" lon="6.96275">
        <ele>638.4</ele>
        <time>2011-11-24T12:27:21Z</time>
      </trkpt>
      <trkpt lat="43.69016" lon="6.96282">
        <ele>638.2</ele>
        <time>2011-11-24T12:27:22Z</time>
      </trkpt>
      <trkpt lat="43.69016" lon="6.96291">
        <ele>637.5</ele>
        <time>2011-11-24T12:27:23Z</time>
      </trkpt>
      <trkpt lat="43.69017" lon="6.96299">
        <ele>637.1</ele>
        <time>2011-11-24T12:27:24Z</time>
      </trkpt>
      <trkpt lat="43.69018" lon="6.96308">
        <ele>637.1</ele>
        <time>2011-11-24T12:27:25Z</time>
      </trkpt>
      <trkpt lat="43.69022" lon="6.96317">
        <ele>636.8</ele>
        <time>2011-11-24T12:27:26Z</time>
      </trkpt>
      <trkpt lat="43.69026" lon="6.96325">
        <ele>636.9</ele>
        <time>2011-11-24T12:27:27Z</time>
      </trkpt>
      <trkpt lat="43.69029" lon="6.96332">
        <ele>637.1</ele>
        <time>2011-11-24T12:27:28Z</time>
      </trkpt>
      <trkpt lat="43.69034" lon="6.96339">
        <ele>637.3</ele>
        <time>2011-11-24T12:27:29Z</time>
      </trkpt>
      <trkpt lat="43.69038" lon="6.96346">
        <ele>636.9</ele>
        <time>2011-11-24T12:27:30Z</time>
      </trkpt>
      <trkpt lat="43.69042" lon="6.96353">
        <ele>636.6</ele>
        <time>2011-11-24T12:27:31Z</time>
      </trkpt>
      <trkpt lat="43.69046" lon="6.96361">
        <ele>636.4</ele>
        <time>2011-11-24T12:27:32Z</time>
      </trkpt>
      <trkpt lat="43.6905" lon="6.96368">
        <ele>636.1</ele>
        <time>2011-11-24T12:27:33Z</time>
      </trkpt>
      <trkpt lat="43.69054" lon="6.96375">
        <ele>635.8</ele>
        <time>2011-11-24T12:27:34Z</time>
      </trkpt>
      <trkpt lat="43.69058" lon="6.96381">
        <ele>635.9</ele>
        <time>2011-11-24T12:27:35Z</time>
      </trkpt>
      <trkpt lat="43.69064" lon="6.96386">
        <ele>636.1</ele>
        <time>2011-11-24T12:27:36Z</time>
      </trkpt>
      <trkpt lat="43.6907" lon="6.96389">
        <ele>635.9</ele>
        <time>2011-11-24T12:27:37Z</time>
      </trkpt>
      <trkpt lat="43.69081" lon="6.96388">
        <ele>634.8</ele>
        <time>2011-11-24T12:27:38Z</time>
      </trkpt>
      <trkpt lat="43.6909" lon="6.96392">
        <ele>634.2</ele>
        <time>2011-11-24T12:27:39Z</time>
      </trkpt>
      <trkpt lat="43.69097" lon="6.96399">
        <ele>634</ele>
        <time>2011-11-24T12:27:40Z</time>
      </trkpt>
      <trkpt lat="43.69104" lon="6.96408">
        <ele>633.1</ele>
        <time>2011-11-24T12:27:41Z</time>
      </trkpt>
      <trkpt lat="43.6911" lon="6.96416">
        <ele>632.5</ele>
        <time>2011-11-24T12:27:42Z</time>
      </trkpt>
      <trkpt lat="43.69116" lon="6.96426">
        <ele>631.3</ele>
        <time>2011-11-24T12:27:43Z</time>
      </trkpt>
      <trkpt lat="43.69121" lon="6.96437">
        <ele>630.4</ele>
        <time>2011-11-24T12:27:44Z</time>
      </trkpt>
      <trkpt lat="43.69126" lon="6.96447">
        <ele>630</ele>
        <time>2011-11-24T12:27:45Z</time>
      </trkpt>
      <trkpt lat="43.69131" lon="6.96458">
        <ele>629.7</ele>
        <time>2011-11-24T12:27:46Z</time>
      </trkpt>
      <trkpt lat="43.69136" lon="6.96467">
        <ele>629.6</ele>
        <time>2011-11-24T12:27:47Z</time>
      </trkpt>
      <trkpt lat="43.69141" lon="6.96476">
        <ele>629.5</ele>
        <time>2011-11-24T12:27:48Z</time>
      </trkpt>
      <trkpt lat="43.69146" lon="6.96484">
        <ele>629.4</ele>
        <time>2011-11-24T12:27:49Z</time>
      </trkpt>
      <trkpt lat="43.6915" lon="6.96492">
        <ele>629</ele>
        <time>2011-11-24T12:27:50Z</time>
      </trkpt>
      <trkpt lat="43.69154" lon="6.96501">
        <ele>628.7</ele>
        <time>2011-11-24T12:27:51Z</time>
      </trkpt>
      <trkpt lat="43.69159" lon="6.96508">
        <ele>628.5</ele>
        <time>2011-11-24T12:27:52Z</time>
      </trkpt>
      <trkpt lat="43.69165" lon="6.96515">
        <ele>628.3</ele>
        <time>2011-11-24T12:27:53Z</time>
      </trkpt>
      <trkpt lat="43.6917" lon="6.96523">
        <ele>628</ele>
        <time>2011-11-24T12:27:54Z</time>
      </trkpt>
      <trkpt lat="43.69176" lon="6.9653">
        <ele>627.8</ele>
        <time>2011-11-24T12:27:55Z</time>
      </trkpt>
      <trkpt lat="43.6918" lon="6.96538">
        <ele>627.8</ele>
        <time>2011-11-24T12:27:56Z</time>
      </trkpt>
      <trkpt lat="43.69185" lon="6.96546">
        <ele>627.7</ele>
        <time>2011-11-24T12:27:57Z</time>
      </trkpt>
      <trkpt lat="43.6919" lon="6.96554">
        <ele>627.5</ele>
        <time>2011-11-24T12:27:58Z</time>
      </trkpt>
      <trkpt lat="43.69195" lon="6.96563">
        <ele>627.4</ele>
        <time>2011-11-24T12:27:59Z</time>
      </trkpt>
      <trkpt lat="43.69199" lon="6.9657">
        <ele>627.3</ele>
        <time>2011-11-24T12:28:00Z</time>
      </trkpt>
      <trkpt lat="43.69204" lon="6.96578">
        <ele>627.1</ele>
        <time>2011-11-24T12:28:01Z</time>
      </trkpt>
      <trkpt lat="43.69209" lon="6.96585">
        <ele>626.9</ele>
        <time>2011-11-24T12:28:02Z</time>
      </trkpt>
      <trkpt lat="43.69212" lon="6.96593">
        <ele>626.9</ele>
        <time>2011-11-24T12:28:03Z</time>
      </trkpt>
      <trkpt lat="43.69216" lon="6.96602">
        <ele>627</ele>
        <time>2011-11-24T12:28:04Z</time>
      </trkpt>
      <trkpt lat="43.6922" lon="6.96609">
        <ele>626.9</ele>
        <time>2011-11-24T12:28:05Z</time>
      </trkpt>
      <trkpt lat="43.69224" lon="6.96617">
        <ele>626.3</ele>
        <time>2011-11-24T12:28:06Z</time>
      </trkpt>
      <trkpt lat="43.6923" lon="6.96623">
        <ele>626</ele>
        <time>2011-11-24T12:28:07Z</time>
      </trkpt>
      <trkpt lat="43.69235" lon="6.9663">
        <ele>625.5</ele>
        <time>2011-11-24T12:28:08Z</time>
      </trkpt>
      <trkpt lat="43.6924" lon="6.96637">
        <ele>625.4</ele>
        <time>2011-11-24T12:28:09Z</time>
      </trkpt>
      <trkpt lat="43.69245" lon="6.96644">
        <ele>625.6</ele>
        <time>2011-11-24T12:28:10Z</time>
      </trkpt>
      <trkpt lat="43.69251" lon="6.9665">
        <ele>625.2</ele>
        <time>2011-11-24T12:28:11Z</time>
      </trkpt>
      <trkpt lat="43.69258" lon="6.96654">
        <ele>624.9</ele>
        <time>2011-11-24T12:28:12Z</time>
      </trkpt>
      <trkpt lat="43.69266" lon="6.96656">
        <ele>624.6</ele>
        <time>2011-11-24T12:28:13Z</time>
      </trkpt>
      <trkpt lat="43.69273" lon="6.96658">
        <ele>624.5</ele>
        <time>2011-11-24T12:28:14Z</time>
      </trkpt>
      <trkpt lat="43.6928" lon="6.96661">
        <ele>624.6</ele>
        <time>2011-11-24T12:28:15Z</time>
      </trkpt>
      <trkpt lat="43.69287" lon="6.96663">
        <ele>624.5</ele>
        <time>2011-11-24T12:28:16Z</time>
      </trkpt>
      <trkpt lat="43.69294" lon="6.96664">
        <ele>624.7</ele>
        <time>2011-11-24T12:28:17Z</time>
      </trkpt>
      <trkpt lat="43.69301" lon="6.96663">
        <ele>624.4</ele>
        <time>2011-11-24T12:28:18Z</time>
      </trkpt>
      <trkpt lat="43.69309" lon="6.96662">
        <ele>624.5</ele>
        <time>2011-11-24T12:28:19Z</time>
      </trkpt>
      <trkpt lat="43.69316" lon="6.9666">
        <ele>624.3</ele>
        <time>2011-11-24T12:28:20Z</time>
      </trkpt>
      <trkpt lat="43.69323" lon="6.96656">
        <ele>624.1</ele>
        <time>2011-11-24T12:28:21Z</time>
      </trkpt>
      <trkpt lat="43.69327" lon="6.96648">
        <ele>623.9</ele>
        <time>2011-11-24T12:28:22Z</time>
      </trkpt>
      <trkpt lat="43.69332" lon="6.96642">
        <ele>623.8</ele>
        <time>2011-11-24T12:28:23Z</time>
      </trkpt>
      <trkpt lat="43.69337" lon="6.96636">
        <ele>623.4</ele>
        <time>2011-11-24T12:28:24Z</time>
      </trkpt>
      <trkpt lat="43.69342" lon="6.96631">
        <ele>623.5</ele>
        <time>2011-11-24T12:28:25Z</time>
      </trkpt>
      <trkpt lat="43.69348" lon="6.96625">
        <ele>623.5</ele>
        <time>2011-11-24T12:28:26Z</time>
      </trkpt>
      <trkpt lat="43.69353" lon="6.96619">
        <ele>623.4</ele>
        <time>2011-11-24T12:28:27Z</time>
      </trkpt>
      <trkpt lat="43.69357" lon="6.96612">
        <ele>623.9</ele>
        <time>2011-11-24T12:28:28Z</time>
      </trkpt>
      <trkpt lat="43.69362" lon="6.96606">
        <ele>624.1</ele>
        <time>2011-11-24T12:28:29Z</time>
      </trkpt>
      <trkpt lat="43.69366" lon="6.96601">
        <ele>624.3</ele>
        <time>2011-11-24T12:28:30Z</time>
      </trkpt>
      <trkpt lat="43.69371" lon="6.96595">
        <ele>624</ele>
        <time>2011-11-24T12:28:31Z</time>
      </trkpt>
      <trkpt lat="43.69376" lon="6.9659">
        <ele>624.3</ele>
        <time>2011-11-24T12:28:32Z</time>
      </trkpt>
      <trkpt lat="43.69381" lon="6.96585">
        <ele>624.4</ele>
        <time>2011-11-24T12:28:33Z</time>
      </trkpt>
      <trkpt lat="43.69385" lon="6.9658">
        <ele>624.7</ele>
        <time>2011-11-24T12:28:34Z</time>
      </trkpt>
      <trkpt lat="43.6939" lon="6.96575">
        <ele>625.1</ele>
        <time>2011-11-24T12:28:35Z</time>
      </trkpt>
      <trkpt lat="43.69394" lon="6.96569">
        <ele>624.7</ele>
        <time>2011-11-24T12:28:36Z</time>
      </trkpt>
      <trkpt lat="43.694" lon="6.96564">
        <ele>624.9</ele>
        <time>2011-11-24T12:28:37Z</time>
      </trkpt>
      <trkpt lat="43.69404" lon="6.9656">
        <ele>625.4</ele>
        <time>2011-11-24T12:28:38Z</time>
      </trkpt>
      <trkpt lat="43.69408" lon="6.96557">
        <ele>625.8</ele>
        <time>2011-11-24T12:28:39Z</time>
      </trkpt>
      <trkpt lat="43.69412" lon="6.96552">
        <ele>626</ele>
        <time>2011-11-24T12:28:40Z</time>
      </trkpt>
      <trkpt lat="43.69416" lon="6.96546">
        <ele>625.9</ele>
        <time>2011-11-24T12:28:41Z</time>
      </trkpt>
      <trkpt lat="43.6942" lon="6.96543">
        <ele>625.6</ele>
        <time>2011-11-24T12:28:42Z</time>
      </trkpt>
      <trkpt lat="43.69425" lon="6.96543">
        <ele>625</ele>
        <time>2011-11-24T12:28:43Z</time>
      </trkpt>
      <trkpt lat="43.69433" lon="6.9654">
        <ele>625.2</ele>
        <time>2011-11-24T12:28:45Z</time>
      </trkpt>
      <trkpt lat="43.69438" lon="6.96539">
        <ele>624.5</ele>
        <time>2011-11-24T12:28:46Z</time>
      </trkpt>
      <trkpt lat="43.69447" lon="6.96541">
        <ele>624.4</ele>
        <time>2011-11-24T12:28:48Z</time>
      </trkpt>
      <trkpt lat="43.69451" lon="6.96544">
        <ele>624.8</ele>
        <time>2011-11-24T12:28:49Z</time>
      </trkpt>
      <trkpt lat="43.69454" lon="6.96551">
        <ele>624.7</ele>
        <time>2011-11-24T12:28:50Z</time>
      </trkpt>
      <trkpt lat="43.69458" lon="6.96556">
        <ele>624.9</ele>
        <time>2011-11-24T12:28:51Z</time>
      </trkpt>
      <trkpt lat="43.69462" lon="6.96561">
        <ele>624.7</ele>
        <time>2011-11-24T12:28:52Z</time>
      </trkpt>
      <trkpt lat="43.69465" lon="6.96568">
        <ele>624.4</ele>
        <time>2011-11-24T12:28:53Z</time>
      </trkpt>
      <trkpt lat="43.69469" lon="6.96574">
        <ele>624.4</ele>
        <time>2011-11-24T12:28:54Z</time>
      </trkpt>
      <trkpt lat="43.69473" lon="6.9658">
        <ele>624.6</ele>
        <time>2011-11-24T12:28:55Z</time>
      </trkpt>
      <trkpt lat="43.69477" lon="6.96587">
        <ele>624.7</ele>
        <time>2011-11-24T12:28:56Z</time>
      </trkpt>
      <trkpt lat="43.6948" lon="6.96593">
        <ele>624.5</ele>
        <time>2011-11-24T12:28:57Z</time>
      </trkpt>
      <trkpt lat="43.69484" lon="6.966">
        <ele>624.3</ele>
        <time>2011-11-24T12:28:58Z</time>
      </trkpt>
      <trkpt lat="43.69489" lon="6.96606">
        <ele>624.3</ele>
        <time>2011-11-24T12:28:59Z</time>
      </trkpt>
      <trkpt lat="43.69493" lon="6.96612">
        <ele>624.6</ele>
        <time>2011-11-24T12:29:00Z</time>
      </trkpt>
      <trkpt lat="43.69497" lon="6.96619">
        <ele>624.6</ele>
        <time>2011-11-24T12:29:01Z</time>
      </trkpt>
      <trkpt lat="43.69501" lon="6.96625">
        <ele>624.6</ele>
        <time>2011-11-24T12:29:02Z</time>
      </trkpt>
      <trkpt lat="43.69505" lon="6.96632">
        <ele>624.6</ele>
        <time>2011-11-24T12:29:03Z</time>
      </trkpt>
      <trkpt lat="43.69509" lon="6.96639">
        <ele>624.6</ele>
        <time>2011-11-24T12:29:04Z</time>
      </trkpt>
      <trkpt lat="43.69513" lon="6.96646">
        <ele>624.8</ele>
        <time>2011-11-24T12:29:05Z</time>
      </trkpt>
      <trkpt lat="43.69517" lon="6.96654">
        <ele>624.4</ele>
        <time>2011-11-24T12:29:06Z</time>
      </trkpt>
      <trkpt lat="43.69521" lon="6.9666">
        <ele>624.5</ele>
        <time>2011-11-24T12:29:07Z</time>
      </trkpt>
      <trkpt lat="43.69526" lon="6.96667">
        <ele>624.6</ele>
        <time>2011-11-24T12:29:08Z</time>
      </trkpt>
      <trkpt lat="43.6953" lon="6.96674">
        <ele>624.4</ele>
        <time>2011-11-24T12:29:09Z</time>
      </trkpt>
      <trkpt lat="43.69535" lon="6.96681">
        <ele>624.6</ele>
        <time>2011-11-24T12:29:10Z</time>
      </trkpt>
      <trkpt lat="43.69539" lon="6.96689">
        <ele>625</ele>
        <time>2011-11-24T12:29:11Z</time>
      </trkpt>
      <trkpt lat="43.69543" lon="6.96697">
        <ele>625.1</ele>
        <time>2011-11-24T12:29:12Z</time>
      </trkpt>
      <trkpt lat="43.69548" lon="6.96704">
        <ele>625.1</ele>
        <time>2011-11-24T12:29:13Z</time>
      </trkpt>
      <trkpt lat="43.69553" lon="6.96712">
        <ele>625.1</ele>
        <time>2011-11-24T12:29:14Z</time>
      </trkpt>
      <trkpt lat="43.69558" lon="6.96719">
        <ele>625.3</ele>
        <time>2011-11-24T12:29:15Z</time>
      </trkpt>
      <trkpt lat="43.69563" lon="6.96727">
        <ele>625.3</ele>
        <time>2011-11-24T12:29:16Z</time>
      </trkpt>
      <trkpt lat="43.69567" lon="6.96734">
        <ele>625.1</ele>
        <time>2011-11-24T12:29:17Z</time>
      </trkpt>
      <trkpt lat="43.69572" lon="6.96742">
        <ele>625.3</ele>
        <time>2011-11-24T12:29:18Z</time>
      </trkpt>
      <trkpt lat="43.69576" lon="6.96749">
        <ele>625.3</ele>
        <time>2011-11-24T12:29:19Z</time>
      </trkpt>
      <trkpt lat="43.69581" lon="6.96756">
        <ele>625.4</ele>
        <time>2011-11-24T12:29:20Z</time>
      </trkpt>
      <trkpt lat="43.69585" lon="6.96764">
        <ele>625.2</ele>
        <time>2011-11-24T12:29:21Z</time>
      </trkpt>
      <trkpt lat="43.69588" lon="6.96771">
        <ele>625.4</ele>
        <time>2011-11-24T12:29:22Z</time>
      </trkpt>
      <trkpt lat="43.69591" lon="6.96778">
        <ele>625.5</ele>
        <time>2011-11-24T12:29:23Z</time>
      </trkpt>
      <trkpt lat="43.69594" lon="6.96784">
        <ele>624.3</ele>
        <time>2011-11-24T12:29:24Z</time>
      </trkpt>
      <trkpt lat="43.69599" lon="6.96786">
        <ele>624.3</ele>
        <time>2011-11-24T12:29:25Z</time>
      </trkpt>
      <trkpt lat="43.69606" lon="6.96782">
        <ele>625.2</ele>
        <time>2011-11-24T12:29:27Z</time>
      </trkpt>
      <trkpt lat="43.6961" lon="6.96774">
        <ele>625.7</ele>
        <time>2011-11-24T12:29:29Z</time>
      </trkpt>
      <trkpt lat="43.6961" lon="6.96764">
        <ele>625.7</ele>
        <time>2011-11-24T12:29:31Z</time>
      </trkpt>
      <trkpt lat="43.6961" lon="6.96755">
        <ele>626.2</ele>
        <time>2011-11-24T12:29:33Z</time>
      </trkpt>
      <trkpt lat="43.69611" lon="6.96747">
        <ele>626.2</ele>
        <time>2011-11-24T12:29:35Z</time>
      </trkpt>
      <trkpt lat="43.69611" lon="6.96739">
        <ele>626.4</ele>
        <time>2011-11-24T12:29:37Z</time>
      </trkpt>
      <trkpt lat="43.69613" lon="6.9673">
        <ele>626.6</ele>
        <time>2011-11-24T12:29:39Z</time>
      </trkpt>
      <trkpt lat="43.69616" lon="6.96722">
        <ele>626.8</ele>
        <time>2011-11-24T12:29:41Z</time>
      </trkpt>
      <trkpt lat="43.69619" lon="6.96715">
        <ele>627.1</ele>
        <time>2011-11-24T12:29:43Z</time>
      </trkpt>
      <trkpt lat="43.69623" lon="6.96708">
        <ele>627.1</ele>
        <time>2011-11-24T12:29:45Z</time>
      </trkpt>
      <trkpt lat="43.69628" lon="6.967">
        <ele>627.7</ele>
        <time>2011-11-24T12:29:47Z</time>
      </trkpt>
      <trkpt lat="43.69632" lon="6.96694">
        <ele>627.7</ele>
        <time>2011-11-24T12:29:49Z</time>
      </trkpt>
      <trkpt lat="43.6964" lon="6.96688">
        <ele>628.6</ele>
        <time>2011-11-24T12:29:52Z</time>
      </trkpt>
      <trkpt lat="43.69645" lon="6.96684">
        <ele>628.9</ele>
        <time>2011-11-24T12:29:54Z</time>
      </trkpt>
      <trkpt lat="43.6965" lon="6.96682">
        <ele>628.9</ele>
        <time>2011-11-24T12:29:56Z</time>
      </trkpt>
      <trkpt lat="43.69655" lon="6.9668">
        <ele>629.5</ele>
        <time>2011-11-24T12:29:58Z</time>
      </trkpt>
      <trkpt lat="43.6966" lon="6.96679">
        <ele>630.4</ele>
        <time>2011-11-24T12:30:00Z</time>
      </trkpt>
      <trkpt lat="43.69666" lon="6.96678">
        <ele>630.8</ele>
        <time>2011-11-24T12:30:02Z</time>
      </trkpt>
      <trkpt lat="43.6967" lon="6.96679">
        <ele>631</ele>
        <time>2011-11-24T12:30:04Z</time>
      </trkpt>
      <trkpt lat="43.69675" lon="6.9668">
        <ele>631.7</ele>
        <time>2011-11-24T12:30:06Z</time>
      </trkpt>
      <trkpt lat="43.69681" lon="6.96682">
        <ele>632.3</ele>
        <time>2011-11-24T12:30:08Z</time>
      </trkpt>
      <trkpt lat="43.69686" lon="6.96684">
        <ele>632.8</ele>
        <time>2011-11-24T12:30:10Z</time>
      </trkpt>
      <trkpt lat="43.69691" lon="6.96686">
        <ele>633</ele>
        <time>2011-11-24T12:30:12Z</time>
      </trkpt>
      <trkpt lat="43.69696" lon="6.96689">
        <ele>633.4</ele>
        <time>2011-11-24T12:30:14Z</time>
      </trkpt>
      <trkpt lat="43.697" lon="6.96693">
        <ele>633.5</ele>
        <time>2011-11-24T12:30:16Z</time>
      </trkpt>
      <trkpt lat="43.69705" lon="6.96696">
        <ele>633.8</ele>
        <time>2011-11-24T12:30:18Z</time>
      </trkpt>
      <trkpt lat="43.6971" lon="6.96701">
        <ele>634.3</ele>
        <time>2011-11-24T12:30:20Z</time>
      </trkpt>
      <trkpt lat="43.69715" lon="6.96704">
        <ele>634.8</ele>
        <time>2011-11-24T12:30:22Z</time>
      </trkpt>
      <trkpt lat="43.69719" lon="6.96708">
        <ele>635.4</ele>
        <time>2011-11-24T12:30:24Z</time>
      </trkpt>
      <trkpt lat="43.69724" lon="6.96711">
        <ele>635.6</ele>
        <time>2011-11-24T12:30:26Z</time>
      </trkpt>
      <trkpt lat="43.69729" lon="6.96715">
        <ele>636.1</ele>
        <time>2011-11-24T12:30:28Z</time>
      </trkpt>
      <trkpt lat="43.69734" lon="6.96718">
        <ele>636.5</ele>
        <time>2011-11-24T12:30:30Z</time>
      </trkpt>
      <trkpt lat="43.69739" lon="6.96722">
        <ele>636.9</ele>
        <time>2011-11-24T12:30:32Z</time>
      </trkpt>
      <trkpt lat="43.69744" lon="6.96726">
        <ele>637.7</ele>
        <time>2011-11-24T12:30:34Z</time>
      </trkpt>
      <trkpt lat="43.69748" lon="6.9673">
        <ele>638.3</ele>
        <time>2011-11-24T12:30:36Z</time>
      </trkpt>
      <trkpt lat="43.69753" lon="6.96733">
        <ele>638.8</ele>
        <time>2011-11-24T12:30:38Z</time>
      </trkpt>
      <trkpt lat="43.69758" lon="6.96737">
        <ele>639.1</ele>
        <time>2011-11-24T12:30:40Z</time>
      </trkpt>
      <trkpt lat="43.69762" lon="6.96741">
        <ele>639.2</ele>
        <time>2011-11-24T12:30:42Z</time>
      </trkpt>
      <trkpt lat="43.69767" lon="6.96745">
        <ele>639.4</ele>
        <time>2011-11-24T12:30:44Z</time>
      </trkpt>
      <trkpt lat="43.69771" lon="6.96749">
        <ele>640.1</ele>
        <time>2011-11-24T12:30:46Z</time>
      </trkpt>
      <trkpt lat="43.69776" lon="6.96752">
        <ele>640.5</ele>
        <time>2011-11-24T12:30:48Z</time>
      </trkpt>
      <trkpt lat="43.69781" lon="6.96756">
        <ele>640.9</ele>
        <time>2011-11-24T12:30:50Z</time>
      </trkpt>
      <trkpt lat="43.69786" lon="6.96759">
        <ele>641.4</ele>
        <time>2011-11-24T12:30:52Z</time>
      </trkpt>
      <trkpt lat="43.69791" lon="6.96763">
        <ele>641.9</ele>
        <time>2011-11-24T12:30:54Z</time>
      </trkpt>
      <trkpt lat="43.69796" lon="6.96766">
        <ele>642.4</ele>
        <time>2011-11-24T12:30:56Z</time>
      </trkpt>
      <trkpt lat="43.69801" lon="6.96768">
        <ele>642.9</ele>
        <time>2011-11-24T12:30:58Z</time>
      </trkpt>
      <trkpt lat="43.69806" lon="6.9677">
        <ele>643.7</ele>
        <time>2011-11-24T12:31:00Z</time>
      </trkpt>
      <trkpt lat="43.69812" lon="6.96771">
        <ele>643.8</ele>
        <time>2011-11-24T12:31:02Z</time>
      </trkpt>
      <trkpt lat="43.69817" lon="6.96771">
        <ele>644.3</ele>
        <time>2011-11-24T12:31:04Z</time>
      </trkpt>
      <trkpt lat="43.69822" lon="6.96771">
        <ele>644.8</ele>
        <time>2011-11-24T12:31:06Z</time>
      </trkpt>
      <trkpt lat="43.69827" lon="6.96771">
        <ele>644.9</ele>
        <time>2011-11-24T12:31:08Z</time>
      </trkpt>
      <trkpt lat="43.69833" lon="6.96769">
        <ele>645.1</ele>
        <time>2011-11-24T12:31:10Z</time>
      </trkpt>
      <trkpt lat="43.69838" lon="6.96768">
        <ele>645.3</ele>
        <time>2011-11-24T12:31:12Z</time>
      </trkpt>
      <trkpt lat="43.69842" lon="6.96765">
        <ele>646</ele>
        <time>2011-11-24T12:31:14Z</time>
      </trkpt>
      <trkpt lat="43.69847" lon="6.96762">
        <ele>646.5</ele>
        <time>2011-11-24T12:31:16Z</time>
      </trkpt>
      <trkpt lat="43.69852" lon="6.9676">
        <ele>647</ele>
        <time>2011-11-24T12:31:18Z</time>
      </trkpt>
      <trkpt lat="43.69857" lon="6.96758">
        <ele>647.2</ele>
        <time>2011-11-24T12:31:20Z</time>
      </trkpt>
      <trkpt lat="43.69862" lon="6.96757">
        <ele>647.9</ele>
        <time>2011-11-24T12:31:22Z</time>
      </trkpt>
      <trkpt lat="43.69867" lon="6.96756">
        <ele>648.4</ele>
        <time>2011-11-24T12:31:24Z</time>
      </trkpt>
      <trkpt lat="43.69872" lon="6.96756">
        <ele>648.8</ele>
        <time>2011-11-24T12:31:26Z</time>
      </trkpt>
      <trkpt lat="43.69878" lon="6.96756">
        <ele>648.8</ele>
        <time>2011-11-24T12:31:28Z</time>
      </trkpt>
      <trkpt lat="43.69882" lon="6.96756">
        <ele>649.4</ele>
        <time>2011-11-24T12:31:30Z</time>
      </trkpt>
      <trkpt lat="43.69887" lon="6.96755">
        <ele>650</ele>
        <time>2011-11-24T12:31:32Z</time>
      </trkpt>
      <trkpt lat="43.69893" lon="6.96754">
        <ele>651.5</ele>
        <time>2011-11-24T12:31:34Z</time>
      </trkpt>
      <trkpt lat="43.69898" lon="6.96753">
        <ele>652.2</ele>
        <time>2011-11-24T12:31:36Z</time>
      </trkpt>
      <trkpt lat="43.69902" lon="6.9675">
        <ele>653.2</ele>
        <time>2011-11-24T12:31:38Z</time>
      </trkpt>
      <trkpt lat="43.69909" lon="6.96747">
        <ele>654.2</ele>
        <time>2011-11-24T12:31:40Z</time>
      </trkpt>
      <trkpt lat="43.69915" lon="6.96744">
        <ele>653.9</ele>
        <time>2011-11-24T12:31:42Z</time>
      </trkpt>
      <trkpt lat="43.6992" lon="6.96741">
        <ele>653.9</ele>
        <time>2011-11-24T12:31:44Z</time>
      </trkpt>
      <trkpt lat="43.69924" lon="6.96737">
        <ele>652.9</ele>
        <time>2011-11-24T12:31:46Z</time>
      </trkpt>
      <trkpt lat="43.6993" lon="6.96732">
        <ele>651.7</ele>
        <time>2011-11-24T12:31:48Z</time>
      </trkpt>
      <trkpt lat="43.69935" lon="6.96729">
        <ele>651.6</ele>
        <time>2011-11-24T12:31:50Z</time>
      </trkpt>
      <trkpt lat="43.6994" lon="6.96725">
        <ele>652</ele>
        <time>2011-11-24T12:31:52Z</time>
      </trkpt>
      <trkpt lat="43.69945" lon="6.96724">
        <ele>652.6</ele>
        <time>2011-11-24T12:31:54Z</time>
      </trkpt>
      <trkpt lat="43.6995" lon="6.96723">
        <ele>654.4</ele>
        <time>2011-11-24T12:31:56Z</time>
      </trkpt>
      <trkpt lat="43.69955" lon="6.96724">
        <ele>654.9</ele>
        <time>2011-11-24T12:31:58Z</time>
      </trkpt>
      <trkpt lat="43.69961" lon="6.96724">
        <ele>655.3</ele>
        <time>2011-11-24T12:32:00Z</time>
      </trkpt>
      <trkpt lat="43.69966" lon="6.96725">
        <ele>655.5</ele>
        <time>2011-11-24T12:32:02Z</time>
      </trkpt>
      <trkpt lat="43.69971" lon="6.96726">
        <ele>655.8</ele>
        <time>2011-11-24T12:32:04Z</time>
      </trkpt>
      <trkpt lat="43.69977" lon="6.96726">
        <ele>656</ele>
        <time>2011-11-24T12:32:06Z</time>
      </trkpt>
      <trkpt lat="43.69983" lon="6.96725">
        <ele>656.5</ele>
        <time>2011-11-24T12:32:08Z</time>
      </trkpt>
      <trkpt lat="43.69988" lon="6.96724">
        <ele>656.9</ele>
        <time>2011-11-24T12:32:10Z</time>
      </trkpt>
      <trkpt lat="43.69993" lon="6.9672">
        <ele>657</ele>
        <time>2011-11-24T12:32:12Z</time>
      </trkpt>
      <trkpt lat="43.70001" lon="6.96719">
        <ele>657.3</ele>
        <time>2011-11-24T12:32:14Z</time>
      </trkpt>
      <trkpt lat="43.70006" lon="6.96717">
        <ele>657</ele>
        <time>2011-11-24T12:32:16Z</time>
      </trkpt>
      <trkpt lat="43.70012" lon="6.96711">
        <ele>657.8</ele>
        <time>2011-11-24T12:32:18Z</time>
      </trkpt>
      <trkpt lat="43.70018" lon="6.96704">
        <ele>657.4</ele>
        <time>2011-11-24T12:32:20Z</time>
      </trkpt>
      <trkpt lat="43.70024" lon="6.96698">
        <ele>657.1</ele>
        <time>2011-11-24T12:32:22Z</time>
      </trkpt>
      <trkpt lat="43.70028" lon="6.96694">
        <ele>658</ele>
        <time>2011-11-24T12:32:24Z</time>
      </trkpt>
      <trkpt lat="43.70034" lon="6.9669">
        <ele>658.4</ele>
        <time>2011-11-24T12:32:26Z</time>
      </trkpt>
      <trkpt lat="43.70038" lon="6.96686">
        <ele>659.2</ele>
        <time>2011-11-24T12:32:28Z</time>
      </trkpt>
      <trkpt lat="43.70043" lon="6.96682">
        <ele>659.5</ele>
        <time>2011-11-24T12:32:30Z</time>
      </trkpt>
      <trkpt lat="43.70048" lon="6.96676">
        <ele>659.5</ele>
        <time>2011-11-24T12:32:32Z</time>
      </trkpt>
      <trkpt lat="43.70052" lon="6.96668">
        <ele>660.2</ele>
        <time>2011-11-24T12:32:34Z</time>
      </trkpt>
      <trkpt lat="43.70057" lon="6.96664">
        <ele>660.5</ele>
        <time>2011-11-24T12:32:36Z</time>
      </trkpt>
      <trkpt lat="43.70062" lon="6.96659">
        <ele>660.7</ele>
        <time>2011-11-24T12:32:38Z</time>
      </trkpt>
      <trkpt lat="43.70066" lon="6.96652">
        <ele>660.1</ele>
        <time>2011-11-24T12:32:40Z</time>
      </trkpt>
      <trkpt lat="43.7007" lon="6.96646">
        <ele>659.9</ele>
        <time>2011-11-24T12:32:42Z</time>
      </trkpt>
      <trkpt lat="43.70075" lon="6.96638">
        <ele>660.3</ele>
        <time>2011-11-24T12:32:44Z</time>
      </trkpt>
      <trkpt lat="43.70078" lon="6.96632">
        <ele>660.5</ele>
        <time>2011-11-24T12:32:46Z</time>
      </trkpt>
      <trkpt lat="43.70081" lon="6.96624">
        <ele>660.9</ele>
        <time>2011-11-24T12:32:48Z</time>
      </trkpt>
      <trkpt lat="43.70084" lon="6.96616">
        <ele>661.7</ele>
        <time>2011-11-24T12:32:50Z</time>
      </trkpt>
      <trkpt lat="43.70086" lon="6.96606">
        <ele>661.6</ele>
        <time>2011-11-24T12:32:52Z</time>
      </trkpt>
      <trkpt lat="43.70089" lon="6.96596">
        <ele>661.9</ele>
        <time>2011-11-24T12:32:54Z</time>
      </trkpt>
      <trkpt lat="43.70091" lon="6.96587">
        <ele>662.9</ele>
        <time>2011-11-24T12:32:56Z</time>
      </trkpt>
      <trkpt lat="43.70093" lon="6.96578">
        <ele>663.5</ele>
        <time>2011-11-24T12:32:58Z</time>
      </trkpt>
      <trkpt lat="43.70095" lon="6.96568">
        <ele>663.9</ele>
        <time>2011-11-24T12:33:00Z</time>
      </trkpt>
      <trkpt lat="43.70097" lon="6.96559">
        <ele>664.3</ele>
        <time>2011-11-24T12:33:02Z</time>
      </trkpt>
      <trkpt lat="43.701" lon="6.96549">
        <ele>664.6</ele>
        <time>2011-11-24T12:33:04Z</time>
      </trkpt>
      <trkpt lat="43.70102" lon="6.96539">
        <ele>664.7</ele>
        <time>2011-11-24T12:33:06Z</time>
      </trkpt>
      <trkpt lat="43.70104" lon="6.96528">
        <ele>665.2</ele>
        <time>2011-11-24T12:33:08Z</time>
      </trkpt>
      <trkpt lat="43.70106" lon="6.96518">
        <ele>665.1</ele>
        <time>2011-11-24T12:33:10Z</time>
      </trkpt>
      <trkpt lat="43.70108" lon="6.96507">
        <ele>665.1</ele>
        <time>2011-11-24T12:33:12Z</time>
      </trkpt>
      <trkpt lat="43.70109" lon="6.96497">
        <ele>665.1</ele>
        <time>2011-11-24T12:33:14Z</time>
      </trkpt>
      <trkpt lat="43.7011" lon="6.96487">
        <ele>665.3</ele>
        <time>2011-11-24T12:33:16Z</time>
      </trkpt>
      <trkpt lat="43.70111" lon="6.96476">
        <ele>666</ele>
        <time>2011-11-24T12:33:18Z</time>
      </trkpt>
      <trkpt lat="43.70112" lon="6.96467">
        <ele>668.5</ele>
        <time>2011-11-24T12:33:20Z</time>
      </trkpt>
      <trkpt lat="43.70112" lon="6.9646">
        <ele>666.6</ele>
        <time>2011-11-24T12:33:21Z</time>
      </trkpt>
      <trkpt lat="43.70113" lon="6.9645">
        <ele>667.2</ele>
        <time>2011-11-24T12:33:23Z</time>
      </trkpt>
      <trkpt lat="43.70114" lon="6.96439">
        <ele>667.1</ele>
        <time>2011-11-24T12:33:25Z</time>
      </trkpt>
      <trkpt lat="43.70113" lon="6.96428">
        <ele>667.3</ele>
        <time>2011-11-24T12:33:27Z</time>
      </trkpt>
      <trkpt lat="43.70114" lon="6.96418">
        <ele>668.4</ele>
        <time>2011-11-24T12:33:29Z</time>
      </trkpt>
      <trkpt lat="43.70114" lon="6.96406">
        <ele>668.5</ele>
        <time>2011-11-24T12:33:31Z</time>
      </trkpt>
      <trkpt lat="43.70113" lon="6.96395">
        <ele>668.4</ele>
        <time>2011-11-24T12:33:33Z</time>
      </trkpt>
      <trkpt lat="43.70113" lon="6.96384">
        <ele>668.4</ele>
        <time>2011-11-24T12:33:35Z</time>
      </trkpt>
      <trkpt lat="43.70113" lon="6.96373">
        <ele>668.6</ele>
        <time>2011-11-24T12:33:37Z</time>
      </trkpt>
      <trkpt lat="43.70112" lon="6.96363">
        <ele>668.6</ele>
        <time>2011-11-24T12:33:39Z</time>
      </trkpt>
      <trkpt lat="43.70112" lon="6.96353">
        <ele>668.9</ele>
        <time>2011-11-24T12:33:41Z</time>
      </trkpt>
      <trkpt lat="43.70111" lon="6.96343">
        <ele>669</ele>
        <time>2011-11-24T12:33:43Z</time>
      </trkpt>
      <trkpt lat="43.70109" lon="6.96332">
        <ele>669.1</ele>
        <time>2011-11-24T12:33:45Z</time>
      </trkpt>
      <trkpt lat="43.70108" lon="6.96322">
        <ele>669.4</ele>
        <time>2011-11-24T12:33:47Z</time>
      </trkpt>
      <trkpt lat="43.70106" lon="6.96312">
        <ele>669.6</ele>
        <time>2011-11-24T12:33:49Z</time>
      </trkpt>
      <trkpt lat="43.70102" lon="6.96303">
        <ele>669.7</ele>
        <time>2011-11-24T12:33:51Z</time>
      </trkpt>
      <trkpt lat="43.70098" lon="6.96294">
        <ele>669.1</ele>
        <time>2011-11-24T12:33:53Z</time>
      </trkpt>
      <trkpt lat="43.70094" lon="6.96285">
        <ele>668.6</ele>
        <time>2011-11-24T12:33:55Z</time>
      </trkpt>
      <trkpt lat="43.7009" lon="6.96277">
        <ele>668.4</ele>
        <time>2011-11-24T12:33:57Z</time>
      </trkpt>
      <trkpt lat="43.70086" lon="6.96269">
        <ele>668.3</ele>
        <time>2011-11-24T12:33:59Z</time>
      </trkpt>
      <trkpt lat="43.7008" lon="6.9626">
        <ele>669.1</ele>
        <time>2011-11-24T12:34:01Z</time>
      </trkpt>
      <trkpt lat="43.70075" lon="6.96253">
        <ele>667.2</ele>
        <time>2011-11-24T12:34:03Z</time>
      </trkpt>
      <trkpt lat="43.70067" lon="6.96247">
        <ele>665.7</ele>
        <time>2011-11-24T12:34:05Z</time>
      </trkpt>
      <trkpt lat="43.70063" lon="6.96244">
        <ele>665.3</ele>
        <time>2011-11-24T12:34:06Z</time>
      </trkpt>
      <trkpt lat="43.70058" lon="6.96236">
        <ele>665.5</ele>
        <time>2011-11-24T12:34:08Z</time>
      </trkpt>
      <trkpt lat="43.70056" lon="6.96227">
        <ele>666.4</ele>
        <time>2011-11-24T12:34:10Z</time>
      </trkpt>
      <trkpt lat="43.7005" lon="6.96218">
        <ele>666.4</ele>
        <time>2011-11-24T12:34:12Z</time>
      </trkpt>
      <trkpt lat="43.70045" lon="6.9621">
        <ele>666.9</ele>
        <time>2011-11-24T12:34:14Z</time>
      </trkpt>
      <trkpt lat="43.70039" lon="6.96202">
        <ele>666.8</ele>
        <time>2011-11-24T12:34:16Z</time>
      </trkpt>
      <trkpt lat="43.70036" lon="6.96198">
        <ele>667</ele>
        <time>2011-11-24T12:34:17Z</time>
      </trkpt>
      <trkpt lat="43.7003" lon="6.96192">
        <ele>667.4</ele>
        <time>2011-11-24T12:34:19Z</time>
      </trkpt>
      <trkpt lat="43.70024" lon="6.96184">
        <ele>667.6</ele>
        <time>2011-11-24T12:34:21Z</time>
      </trkpt>
      <trkpt lat="43.7002" lon="6.96176">
        <ele>668</ele>
        <time>2011-11-24T12:34:23Z</time>
      </trkpt>
      <trkpt lat="43.70015" lon="6.96168">
        <ele>667.8</ele>
        <time>2011-11-24T12:34:25Z</time>
      </trkpt>
      <trkpt lat="43.70013" lon="6.96158">
        <ele>667.4</ele>
        <time>2011-11-24T12:34:27Z</time>
      </trkpt>
      <trkpt lat="43.7001" lon="6.96148">
        <ele>666.7</ele>
        <time>2011-11-24T12:34:29Z</time>
      </trkpt>
      <trkpt lat="43.7001" lon="6.96137">
        <ele>666.4</ele>
        <time>2011-11-24T12:34:31Z</time>
      </trkpt>
      <trkpt lat="43.70014" lon="6.96128">
        <ele>667.6</ele>
        <time>2011-11-24T12:34:33Z</time>
      </trkpt>
      <trkpt lat="43.70022" lon="6.96121">
        <ele>667.8</ele>
        <time>2011-11-24T12:34:35Z</time>
      </trkpt>
      <trkpt lat="43.70028" lon="6.96116">
        <ele>668.4</ele>
        <time>2011-11-24T12:34:37Z</time>
      </trkpt>
      <trkpt lat="43.70036" lon="6.96115">
        <ele>669.2</ele>
        <time>2011-11-24T12:34:39Z</time>
      </trkpt>
      <trkpt lat="43.70044" lon="6.96115">
        <ele>669.3</ele>
        <time>2011-11-24T12:34:41Z</time>
      </trkpt>
      <trkpt lat="43.70053" lon="6.96118">
        <ele>669.9</ele>
        <time>2011-11-24T12:34:43Z</time>
      </trkpt>
      <trkpt lat="43.70061" lon="6.96122">
        <ele>670.2</ele>
        <time>2011-11-24T12:34:45Z</time>
      </trkpt>
      <trkpt lat="43.70066" lon="6.96125">
        <ele>670.5</ele>
        <time>2011-11-24T12:34:46Z</time>
      </trkpt>
      <trkpt lat="43.7007" lon="6.96128">
        <ele>670.7</ele>
        <time>2011-11-24T12:34:47Z</time>
      </trkpt>
      <trkpt lat="43.70074" lon="6.96132">
        <ele>670.6</ele>
        <time>2011-11-24T12:34:48Z</time>
      </trkpt>
      <trkpt lat="43.70082" lon="6.96138">
        <ele>670.6</ele>
        <time>2011-11-24T12:34:50Z</time>
      </trkpt>
      <trkpt lat="43.70088" lon="6.96143">
        <ele>672.4</ele>
        <time>2011-11-24T12:34:52Z</time>
      </trkpt>
      <trkpt lat="43.70092" lon="6.96145">
        <ele>672.8</ele>
        <time>2011-11-24T12:34:53Z</time>
      </trkpt>
      <trkpt lat="43.70098" lon="6.96146">
        <ele>673.1</ele>
        <time>2011-11-24T12:34:54Z</time>
      </trkpt>
      <trkpt lat="43.70103" lon="6.96152">
        <ele>673.8</ele>
        <time>2011-11-24T12:34:56Z</time>
      </trkpt>
      <trkpt lat="43.70111" lon="6.96157">
        <ele>674.8</ele>
        <time>2011-11-24T12:34:58Z</time>
      </trkpt>
      <trkpt lat="43.70116" lon="6.96158">
        <ele>675.5</ele>
        <time>2011-11-24T12:34:59Z</time>
      </trkpt>
      <trkpt lat="43.7012" lon="6.96161">
        <ele>675.6</ele>
        <time>2011-11-24T12:35:00Z</time>
      </trkpt>
      <trkpt lat="43.70124" lon="6.96164">
        <ele>676.3</ele>
        <time>2011-11-24T12:35:01Z</time>
      </trkpt>
      <trkpt lat="43.70132" lon="6.96168">
        <ele>676.7</ele>
        <time>2011-11-24T12:35:03Z</time>
      </trkpt>
      <trkpt lat="43.70137" lon="6.96169">
        <ele>677</ele>
        <time>2011-11-24T12:35:04Z</time>
      </trkpt>
      <trkpt lat="43.70145" lon="6.96173">
        <ele>677</ele>
        <time>2011-11-24T12:35:06Z</time>
      </trkpt>
      <trkpt lat="43.7015" lon="6.96174">
        <ele>677.3</ele>
        <time>2011-11-24T12:35:07Z</time>
      </trkpt>
      <trkpt lat="43.70159" lon="6.96176">
        <ele>677.8</ele>
        <time>2011-11-24T12:35:09Z</time>
      </trkpt>
      <trkpt lat="43.70166" lon="6.96175">
        <ele>677.6</ele>
        <time>2011-11-24T12:35:10Z</time>
      </trkpt>
      <trkpt lat="43.70173" lon="6.96181">
        <ele>678.1</ele>
        <time>2011-11-24T12:35:12Z</time>
      </trkpt>
      <trkpt lat="43.70179" lon="6.9619">
        <ele>678.5</ele>
        <time>2011-11-24T12:35:14Z</time>
      </trkpt>
      <trkpt lat="43.70177" lon="6.96202">
        <ele>677.6</ele>
        <time>2011-11-24T12:35:15Z</time>
      </trkpt>
      <trkpt lat="43.70183" lon="6.9621">
        <ele>677.9</ele>
        <time>2011-11-24T12:35:17Z</time>
      </trkpt>
      <trkpt lat="43.70187" lon="6.96213">
        <ele>678.3</ele>
        <time>2011-11-24T12:35:18Z</time>
      </trkpt>
      <trkpt lat="43.7019" lon="6.96218">
        <ele>678.3</ele>
        <time>2011-11-24T12:35:19Z</time>
      </trkpt>
      <trkpt lat="43.70196" lon="6.96226">
        <ele>678.8</ele>
        <time>2011-11-24T12:35:21Z</time>
      </trkpt>
      <trkpt lat="43.702" lon="6.9623">
        <ele>678.5</ele>
        <time>2011-11-24T12:35:22Z</time>
      </trkpt>
      <trkpt lat="43.70204" lon="6.96234">
        <ele>678.5</ele>
        <time>2011-11-24T12:35:23Z</time>
      </trkpt>
      <trkpt lat="43.70208" lon="6.96238">
        <ele>678.4</ele>
        <time>2011-11-24T12:35:24Z</time>
      </trkpt>
      <trkpt lat="43.70214" lon="6.96248">
        <ele>678.4</ele>
        <time>2011-11-24T12:35:26Z</time>
      </trkpt>
      <trkpt lat="43.70218" lon="6.96257">
        <ele>678.8</ele>
        <time>2011-11-24T12:35:28Z</time>
      </trkpt>
      <trkpt lat="43.70221" lon="6.96262">
        <ele>679.1</ele>
        <time>2011-11-24T12:35:29Z</time>
      </trkpt>
      <trkpt lat="43.70225" lon="6.96272">
        <ele>679.4</ele>
        <time>2011-11-24T12:35:31Z</time>
      </trkpt>
      <trkpt lat="43.7023" lon="6.96281">
        <ele>678.5</ele>
        <time>2011-11-24T12:35:33Z</time>
      </trkpt>
      <trkpt lat="43.70234" lon="6.9629">
        <ele>678.1</ele>
        <time>2011-11-24T12:35:35Z</time>
      </trkpt>
      <trkpt lat="43.7024" lon="6.96299">
        <ele>676.7</ele>
        <time>2011-11-24T12:35:37Z</time>
      </trkpt>
      <trkpt lat="43.70243" lon="6.96304">
        <ele>675.7</ele>
        <time>2011-11-24T12:35:38Z</time>
      </trkpt>
      <trkpt lat="43.70245" lon="6.96315">
        <ele>677.8</ele>
        <time>2011-11-24T12:35:40Z</time>
      </trkpt>
      <trkpt lat="43.70249" lon="6.96324">
        <ele>678.1</ele>
        <time>2011-11-24T12:35:42Z</time>
      </trkpt>
      <trkpt lat="43.70253" lon="6.96334">
        <ele>678.9</ele>
        <time>2011-11-24T12:35:44Z</time>
      </trkpt>
      <trkpt lat="43.70258" lon="6.96344">
        <ele>678.6</ele>
        <time>2011-11-24T12:35:46Z</time>
      </trkpt>
      <trkpt lat="43.70262" lon="6.96353">
        <ele>678.7</ele>
        <time>2011-11-24T12:35:48Z</time>
      </trkpt>
      <trkpt lat="43.70267" lon="6.96363">
        <ele>679.1</ele>
        <time>2011-11-24T12:35:50Z</time>
      </trkpt>
      <trkpt lat="43.70271" lon="6.96372">
        <ele>679.4</ele>
        <time>2011-11-24T12:35:52Z</time>
      </trkpt>
      <trkpt lat="43.70275" lon="6.96382">
        <ele>679.5</ele>
        <time>2011-11-24T12:35:54Z</time>
      </trkpt>
      <trkpt lat="43.70279" lon="6.96392">
        <ele>679.9</ele>
        <time>2011-11-24T12:35:56Z</time>
      </trkpt>
      <trkpt lat="43.70282" lon="6.96404">
        <ele>682.1</ele>
        <time>2011-11-24T12:35:58Z</time>
      </trkpt>
      <trkpt lat="43.70285" lon="6.96414">
        <ele>682.9</ele>
        <time>2011-11-24T12:36:00Z</time>
      </trkpt>
      <trkpt lat="43.70287" lon="6.96425">
        <ele>683.7</ele>
        <time>2011-11-24T12:36:02Z</time>
      </trkpt>
      <trkpt lat="43.70289" lon="6.96436">
        <ele>685</ele>
        <time>2011-11-24T12:36:04Z</time>
      </trkpt>
      <trkpt lat="43.7029" lon="6.96442">
        <ele>684.8</ele>
        <time>2011-11-24T12:36:05Z</time>
      </trkpt>
      <trkpt lat="43.70292" lon="6.96453">
        <ele>684.6</ele>
        <time>2011-11-24T12:36:07Z</time>
      </trkpt>
      <trkpt lat="43.70294" lon="6.96464">
        <ele>685.3</ele>
        <time>2011-11-24T12:36:09Z</time>
      </trkpt>
      <trkpt lat="43.70296" lon="6.96475">
        <ele>685.3</ele>
        <time>2011-11-24T12:36:11Z</time>
      </trkpt>
      <trkpt lat="43.70299" lon="6.96487">
        <ele>686</ele>
        <time>2011-11-24T12:36:13Z</time>
      </trkpt>
      <trkpt lat="43.70301" lon="6.96498">
        <ele>686.1</ele>
        <time>2011-11-24T12:36:15Z</time>
      </trkpt>
      <trkpt lat="43.70302" lon="6.96504">
        <ele>686.3</ele>
        <time>2011-11-24T12:36:16Z</time>
      </trkpt>
      <trkpt lat="43.70305" lon="6.96516">
        <ele>686.6</ele>
        <time>2011-11-24T12:36:18Z</time>
      </trkpt>
      <trkpt lat="43.70307" lon="6.96526">
        <ele>687.8</ele>
        <time>2011-11-24T12:36:20Z</time>
      </trkpt>
      <trkpt lat="43.70309" lon="6.96538">
        <ele>687.9</ele>
        <time>2011-11-24T12:36:22Z</time>
      </trkpt>
      <trkpt lat="43.70311" lon="6.9655">
        <ele>687.9</ele>
        <time>2011-11-24T12:36:24Z</time>
      </trkpt>
      <trkpt lat="43.70312" lon="6.96556">
        <ele>688</ele>
        <time>2011-11-24T12:36:25Z</time>
      </trkpt>
      <trkpt lat="43.70314" lon="6.96567">
        <ele>687.9</ele>
        <time>2011-11-24T12:36:27Z</time>
      </trkpt>
      <trkpt lat="43.70316" lon="6.96578">
        <ele>687.9</ele>
        <time>2011-11-24T12:36:29Z</time>
      </trkpt>
      <trkpt lat="43.70318" lon="6.9659">
        <ele>688.7</ele>
        <time>2011-11-24T12:36:31Z</time>
      </trkpt>
      <trkpt lat="43.7032" lon="6.96595">
        <ele>688.7</ele>
        <time>2011-11-24T12:36:32Z</time>
      </trkpt>
      <trkpt lat="43.70322" lon="6.96607">
        <ele>688.9</ele>
        <time>2011-11-24T12:36:34Z</time>
      </trkpt>
      <trkpt lat="43.70324" lon="6.96618">
        <ele>689.2</ele>
        <time>2011-11-24T12:36:36Z</time>
      </trkpt>
      <trkpt lat="43.70325" lon="6.96624">
        <ele>689.2</ele>
        <time>2011-11-24T12:36:37Z</time>
      </trkpt>
      <trkpt lat="43.70328" lon="6.96636">
        <ele>689.3</ele>
        <time>2011-11-24T12:36:39Z</time>
      </trkpt>
      <trkpt lat="43.70329" lon="6.96648">
        <ele>690</ele>
        <time>2011-11-24T12:36:41Z</time>
      </trkpt>
      <trkpt lat="43.70331" lon="6.96655">
        <ele>689.6</ele>
        <time>2011-11-24T12:36:42Z</time>
      </trkpt>
      <trkpt lat="43.70332" lon="6.96661">
        <ele>689.2</ele>
        <time>2011-11-24T12:36:43Z</time>
      </trkpt>
      <trkpt lat="43.70334" lon="6.96672">
        <ele>689.9</ele>
        <time>2011-11-24T12:36:45Z</time>
      </trkpt>
      <trkpt lat="43.70335" lon="6.96683">
        <ele>690</ele>
        <time>2011-11-24T12:36:47Z</time>
      </trkpt>
      <trkpt lat="43.70337" lon="6.96695">
        <ele>690.6</ele>
        <time>2011-11-24T12:36:49Z</time>
      </trkpt>
      <trkpt lat="43.70339" lon="6.96707">
        <ele>691</ele>
        <time>2011-11-24T12:36:51Z</time>
      </trkpt>
      <trkpt lat="43.7034" lon="6.96713">
        <ele>691.3</ele>
        <time>2011-11-24T12:36:52Z</time>
      </trkpt>
      <trkpt lat="43.70342" lon="6.96724">
        <ele>691.6</ele>
        <time>2011-11-24T12:36:54Z</time>
      </trkpt>
      <trkpt lat="43.70344" lon="6.96735">
        <ele>691.6</ele>
        <time>2011-11-24T12:36:56Z</time>
      </trkpt>
      <trkpt lat="43.70345" lon="6.96741">
        <ele>691.6</ele>
        <time>2011-11-24T12:36:57Z</time>
      </trkpt>
      <trkpt lat="43.70347" lon="6.96752">
        <ele>691.7</ele>
        <time>2011-11-24T12:36:59Z</time>
      </trkpt>
      <trkpt lat="43.70348" lon="6.96764">
        <ele>692.1</ele>
        <time>2011-11-24T12:37:01Z</time>
      </trkpt>
      <trkpt lat="43.70348" lon="6.96776">
        <ele>692.3</ele>
        <time>2011-11-24T12:37:03Z</time>
      </trkpt>
      <trkpt lat="43.70349" lon="6.96788">
        <ele>692.6</ele>
        <time>2011-11-24T12:37:05Z</time>
      </trkpt>
      <trkpt lat="43.7035" lon="6.96799">
        <ele>692.8</ele>
        <time>2011-11-24T12:37:07Z</time>
      </trkpt>
      <trkpt lat="43.7035" lon="6.96811">
        <ele>693.4</ele>
        <time>2011-11-24T12:37:09Z</time>
      </trkpt>
      <trkpt lat="43.70351" lon="6.96823">
        <ele>693.2</ele>
        <time>2011-11-24T12:37:11Z</time>
      </trkpt>
      <trkpt lat="43.70352" lon="6.96829">
        <ele>693.8</ele>
        <time>2011-11-24T12:37:12Z</time>
      </trkpt>
      <trkpt lat="43.70353" lon="6.96835">
        <ele>694.1</ele>
        <time>2011-11-24T12:37:13Z</time>
      </trkpt>
      <trkpt lat="43.70354" lon="6.96841">
        <ele>694.2</ele>
        <time>2011-11-24T12:37:14Z</time>
      </trkpt>
      <trkpt lat="43.70355" lon="6.96852">
        <ele>694.2</ele>
        <time>2011-11-24T12:37:16Z</time>
      </trkpt>
      <trkpt lat="43.70356" lon="6.96862">
        <ele>694.8</ele>
        <time>2011-11-24T12:37:18Z</time>
      </trkpt>
      <trkpt lat="43.70357" lon="6.96869">
        <ele>694.6</ele>
        <time>2011-11-24T12:37:19Z</time>
      </trkpt>
      <trkpt lat="43.70358" lon="6.96875">
        <ele>694.2</ele>
        <time>2011-11-24T12:37:20Z</time>
      </trkpt>
      <trkpt lat="43.7036" lon="6.96881">
        <ele>694.6</ele>
        <time>2011-11-24T12:37:21Z</time>
      </trkpt>
      <trkpt lat="43.70361" lon="6.96892">
        <ele>695.3</ele>
        <time>2011-11-24T12:37:23Z</time>
      </trkpt>
      <trkpt lat="43.70362" lon="6.96904">
        <ele>695.5</ele>
        <time>2011-11-24T12:37:25Z</time>
      </trkpt>
      <trkpt lat="43.70362" lon="6.96915">
        <ele>696</ele>
        <time>2011-11-24T12:37:27Z</time>
      </trkpt>
      <trkpt lat="43.70364" lon="6.96921">
        <ele>696</ele>
        <time>2011-11-24T12:37:28Z</time>
      </trkpt>
      <trkpt lat="43.70365" lon="6.96928">
        <ele>696.2</ele>
        <time>2011-11-24T12:37:29Z</time>
      </trkpt>
      <trkpt lat="43.70367" lon="6.96939">
        <ele>696.4</ele>
        <time>2011-11-24T12:37:31Z</time>
      </trkpt>
      <trkpt lat="43.70368" lon="6.9695">
        <ele>696.8</ele>
        <time>2011-11-24T12:37:33Z</time>
      </trkpt>
      <trkpt lat="43.70369" lon="6.96961">
        <ele>696.9</ele>
        <time>2011-11-24T12:37:35Z</time>
      </trkpt>
      <trkpt lat="43.7037" lon="6.96972">
        <ele>697.7</ele>
        <time>2011-11-24T12:37:37Z</time>
      </trkpt>
      <trkpt lat="43.70371" lon="6.96983">
        <ele>698.1</ele>
        <time>2011-11-24T12:37:39Z</time>
      </trkpt>
      <trkpt lat="43.70374" lon="6.96994">
        <ele>698.6</ele>
        <time>2011-11-24T12:37:41Z</time>
      </trkpt>
      <trkpt lat="43.70376" lon="6.97005">
        <ele>699.3</ele>
        <time>2011-11-24T12:37:43Z</time>
      </trkpt>
      <trkpt lat="43.70378" lon="6.97015">
        <ele>699.7</ele>
        <time>2011-11-24T12:37:45Z</time>
      </trkpt>
      <trkpt lat="43.70382" lon="6.97025">
        <ele>700</ele>
        <time>2011-11-24T12:37:47Z</time>
      </trkpt>
      <trkpt lat="43.70387" lon="6.97034">
        <ele>699.8</ele>
        <time>2011-11-24T12:37:49Z</time>
      </trkpt>
      <trkpt lat="43.70393" lon="6.97043">
        <ele>700.1</ele>
        <time>2011-11-24T12:37:51Z</time>
      </trkpt>
      <trkpt lat="43.70399" lon="6.97052">
        <ele>699.9</ele>
        <time>2011-11-24T12:37:53Z</time>
      </trkpt>
      <trkpt lat="43.70405" lon="6.97059">
        <ele>700</ele>
        <time>2011-11-24T12:37:55Z</time>
      </trkpt>
      <trkpt lat="43.70412" lon="6.97066">
        <ele>699.7</ele>
        <time>2011-11-24T12:37:57Z</time>
      </trkpt>
      <trkpt lat="43.70419" lon="6.97074">
        <ele>700</ele>
        <time>2011-11-24T12:37:59Z</time>
      </trkpt>
      <trkpt lat="43.70426" lon="6.97082">
        <ele>699.2</ele>
        <time>2011-11-24T12:38:01Z</time>
      </trkpt>
      <trkpt lat="43.7043" lon="6.97087">
        <ele>699.1</ele>
        <time>2011-11-24T12:38:02Z</time>
      </trkpt>
      <trkpt lat="43.70433" lon="6.97091">
        <ele>699.3</ele>
        <time>2011-11-24T12:38:03Z</time>
      </trkpt>
      <trkpt lat="43.70437" lon="6.97096">
        <ele>699.4</ele>
        <time>2011-11-24T12:38:04Z</time>
      </trkpt>
      <trkpt lat="43.70441" lon="6.971">
        <ele>699.9</ele>
        <time>2011-11-24T12:38:05Z</time>
      </trkpt>
      <trkpt lat="43.70445" lon="6.97104">
        <ele>700</ele>
        <time>2011-11-24T12:38:06Z</time>
      </trkpt>
      <trkpt lat="43.70449" lon="6.97107">
        <ele>699.8</ele>
        <time>2011-11-24T12:38:07Z</time>
      </trkpt>
      <trkpt lat="43.70456" lon="6.97115">
        <ele>699.7</ele>
        <time>2011-11-24T12:38:09Z</time>
      </trkpt>
      <trkpt lat="43.7046" lon="6.97118">
        <ele>700</ele>
        <time>2011-11-24T12:38:10Z</time>
      </trkpt>
      <trkpt lat="43.70466" lon="6.97125">
        <ele>699.3</ele>
        <time>2011-11-24T12:38:12Z</time>
      </trkpt>
      <trkpt lat="43.70473" lon="6.97131">
        <ele>699.2</ele>
        <time>2011-11-24T12:38:14Z</time>
      </trkpt>
      <trkpt lat="43.7048" lon="6.97137">
        <ele>699.3</ele>
        <time>2011-11-24T12:38:16Z</time>
      </trkpt>
      <trkpt lat="43.70487" lon="6.97143">
        <ele>700.3</ele>
        <time>2011-11-24T12:38:18Z</time>
      </trkpt>
      <trkpt lat="43.70494" lon="6.97148">
        <ele>700.9</ele>
        <time>2011-11-24T12:38:20Z</time>
      </trkpt>
      <trkpt lat="43.705" lon="6.97153">
        <ele>701.2</ele>
        <time>2011-11-24T12:38:22Z</time>
      </trkpt>
      <trkpt lat="43.70508" lon="6.97157">
        <ele>701.5</ele>
        <time>2011-11-24T12:38:24Z</time>
      </trkpt>
      <trkpt lat="43.70516" lon="6.97159">
        <ele>702.2</ele>
        <time>2011-11-24T12:38:26Z</time>
      </trkpt>
      <trkpt lat="43.70523" lon="6.97162">
        <ele>702.7</ele>
        <time>2011-11-24T12:38:28Z</time>
      </trkpt>
      <trkpt lat="43.70531" lon="6.97164">
        <ele>704.5</ele>
        <time>2011-11-24T12:38:30Z</time>
      </trkpt>
      <trkpt lat="43.70539" lon="6.97166">
        <ele>704.5</ele>
        <time>2011-11-24T12:38:32Z</time>
      </trkpt>
      <trkpt lat="43.70547" lon="6.97167">
        <ele>704.5</ele>
        <time>2011-11-24T12:38:34Z</time>
      </trkpt>
      <trkpt lat="43.70555" lon="6.97168">
        <ele>705.1</ele>
        <time>2011-11-24T12:38:36Z</time>
      </trkpt>
      <trkpt lat="43.7056" lon="6.97168">
        <ele>705.4</ele>
        <time>2011-11-24T12:38:37Z</time>
      </trkpt>
      <trkpt lat="43.70564" lon="6.97167">
        <ele>705.5</ele>
        <time>2011-11-24T12:38:38Z</time>
      </trkpt>
      <trkpt lat="43.70573" lon="6.97168">
        <ele>705.8</ele>
        <time>2011-11-24T12:38:40Z</time>
      </trkpt>
      <trkpt lat="43.70581" lon="6.97168">
        <ele>706.3</ele>
        <time>2011-11-24T12:38:42Z</time>
      </trkpt>
      <trkpt lat="43.70589" lon="6.97168">
        <ele>706.6</ele>
        <time>2011-11-24T12:38:44Z</time>
      </trkpt>
      <trkpt lat="43.70598" lon="6.97168">
        <ele>707.1</ele>
        <time>2011-11-24T12:38:46Z</time>
      </trkpt>
      <trkpt lat="43.70606" lon="6.97169">
        <ele>707.4</ele>
        <time>2011-11-24T12:38:48Z</time>
      </trkpt>
      <trkpt lat="43.70614" lon="6.9717">
        <ele>707.5</ele>
        <time>2011-11-24T12:38:50Z</time>
      </trkpt>
      <trkpt lat="43.70621" lon="6.97172">
        <ele>707.7</ele>
        <time>2011-11-24T12:38:52Z</time>
      </trkpt>
      <trkpt lat="43.70629" lon="6.97174">
        <ele>708.5</ele>
        <time>2011-11-24T12:38:54Z</time>
      </trkpt>
      <trkpt lat="43.70637" lon="6.97175">
        <ele>708.4</ele>
        <time>2011-11-24T12:38:56Z</time>
      </trkpt>
      <trkpt lat="43.70646" lon="6.97178">
        <ele>708</ele>
        <time>2011-11-24T12:38:58Z</time>
      </trkpt>
      <trkpt lat="43.70654" lon="6.9718">
        <ele>707.8</ele>
        <time>2011-11-24T12:39:00Z</time>
      </trkpt>
      <trkpt lat="43.70663" lon="6.97183">
        <ele>708</ele>
        <time>2011-11-24T12:39:02Z</time>
      </trkpt>
      <trkpt lat="43.70671" lon="6.97186">
        <ele>708.4</ele>
        <time>2011-11-24T12:39:04Z</time>
      </trkpt>
      <trkpt lat="43.70675" lon="6.97188">
        <ele>708.4</ele>
        <time>2011-11-24T12:39:05Z</time>
      </trkpt>
      <trkpt lat="43.70683" lon="6.97192">
        <ele>708.5</ele>
        <time>2011-11-24T12:39:07Z</time>
      </trkpt>
      <trkpt lat="43.70691" lon="6.97197">
        <ele>708.7</ele>
        <time>2011-11-24T12:39:09Z</time>
      </trkpt>
      <trkpt lat="43.70699" lon="6.97201">
        <ele>708.4</ele>
        <time>2011-11-24T12:39:11Z</time>
      </trkpt>
      <trkpt lat="43.70707" lon="6.97206">
        <ele>708.6</ele>
        <time>2011-11-24T12:39:13Z</time>
      </trkpt>
      <trkpt lat="43.70713" lon="6.97214">
        <ele>708.6</ele>
        <time>2011-11-24T12:39:15Z</time>
      </trkpt>
      <trkpt lat="43.7072" lon="6.97221">
        <ele>708.3</ele>
        <time>2011-11-24T12:39:17Z</time>
      </trkpt>
      <trkpt lat="43.70726" lon="6.97228">
        <ele>708.5</ele>
        <time>2011-11-24T12:39:19Z</time>
      </trkpt>
      <trkpt lat="43.70732" lon="6.97236">
        <ele>708.4</ele>
        <time>2011-11-24T12:39:21Z</time>
      </trkpt>
      <trkpt lat="43.70738" lon="6.97244">
        <ele>707.8</ele>
        <time>2011-11-24T12:39:23Z</time>
      </trkpt>
      <trkpt lat="43.70743" lon="6.97254">
        <ele>708.1</ele>
        <time>2011-11-24T12:39:25Z</time>
      </trkpt>
      <trkpt lat="43.70745" lon="6.97259">
        <ele>708.1</ele>
        <time>2011-11-24T12:39:26Z</time>
      </trkpt>
      <trkpt lat="43.70747" lon="6.97264">
        <ele>708.4</ele>
        <time>2011-11-24T12:39:27Z</time>
      </trkpt>
      <trkpt lat="43.70751" lon="6.97275">
        <ele>708.7</ele>
        <time>2011-11-24T12:39:29Z</time>
      </trkpt>
      <trkpt lat="43.70755" lon="6.97285">
        <ele>709.4</ele>
        <time>2011-11-24T12:39:31Z</time>
      </trkpt>
      <trkpt lat="43.70758" lon="6.97296">
        <ele>710.1</ele>
        <time>2011-11-24T12:39:33Z</time>
      </trkpt>
      <trkpt lat="43.70761" lon="6.97307">
        <ele>710.4</ele>
        <time>2011-11-24T12:39:35Z</time>
      </trkpt>
      <trkpt lat="43.70763" lon="6.97318">
        <ele>710.7</ele>
        <time>2011-11-24T12:39:37Z</time>
      </trkpt>
      <trkpt lat="43.70767" lon="6.97327">
        <ele>710.6</ele>
        <time>2011-11-24T12:39:39Z</time>
      </trkpt>
      <trkpt lat="43.70771" lon="6.97336">
        <ele>711.1</ele>
        <time>2011-11-24T12:39:41Z</time>
      </trkpt>
      <trkpt lat="43.70775" lon="6.97345">
        <ele>712</ele>
        <time>2011-11-24T12:39:43Z</time>
      </trkpt>
      <trkpt lat="43.70777" lon="6.97352">
        <ele>712.4</ele>
        <time>2011-11-24T12:39:45Z</time>
      </trkpt>
      <trkpt lat="43.70778" lon="6.9736">
        <ele>714.6</ele>
        <time>2011-11-24T12:39:48Z</time>
      </trkpt>
      <trkpt lat="43.7078" lon="6.97367">
        <ele>715.2</ele>
        <time>2011-11-24T12:39:50Z</time>
      </trkpt>
      <trkpt lat="43.70784" lon="6.9737">
        <ele>716</ele>
        <time>2011-11-24T12:39:52Z</time>
      </trkpt>
      <trkpt lat="43.70788" lon="6.97375">
        <ele>716.4</ele>
        <time>2011-11-24T12:39:55Z</time>
      </trkpt>
      <trkpt lat="43.70792" lon="6.9737">
        <ele>717.7</ele>
        <time>2011-11-24T12:39:58Z</time>
      </trkpt>
      <trkpt lat="43.70793" lon="6.97363">
        <ele>718.4</ele>
        <time>2011-11-24T12:40:01Z</time>
      </trkpt>
      <trkpt lat="43.70794" lon="6.97354">
        <ele>719</ele>
        <time>2011-11-24T12:40:06Z</time>
      </trkpt>
      <trkpt lat="43.70797" lon="6.97347">
        <ele>719.5</ele>
        <time>2011-11-24T12:40:08Z</time>
      </trkpt>
      <trkpt lat="43.70799" lon="6.97339">
        <ele>719.3</ele>
        <time>2011-11-24T12:40:11Z</time>
      </trkpt>
      <trkpt lat="43.70801" lon="6.9733">
        <ele>721</ele>
        <time>2011-11-24T12:40:14Z</time>
      </trkpt>
      <trkpt lat="43.70803" lon="6.97323">
        <ele>722.1</ele>
        <time>2011-11-24T12:40:16Z</time>
      </trkpt>
      <trkpt lat="43.70804" lon="6.97317">
        <ele>721.7</ele>
        <time>2011-11-24T12:40:18Z</time>
      </trkpt>
      <trkpt lat="43.70807" lon="6.97309">
        <ele>722.3</ele>
        <time>2011-11-24T12:40:21Z</time>
      </trkpt>
      <trkpt lat="43.70808" lon="6.97303">
        <ele>722.9</ele>
        <time>2011-11-24T12:40:24Z</time>
      </trkpt>
      <trkpt lat="43.70811" lon="6.97297">
        <ele>723.3</ele>
        <time>2011-11-24T12:40:26Z</time>
      </trkpt>
      <trkpt lat="43.70813" lon="6.97291">
        <ele>724.3</ele>
        <time>2011-11-24T12:40:29Z</time>
      </trkpt>
      <trkpt lat="43.70816" lon="6.97286">
        <ele>724.9</ele>
        <time>2011-11-24T12:40:32Z</time>
      </trkpt>
      <trkpt lat="43.70818" lon="6.97278">
        <ele>725.2</ele>
        <time>2011-11-24T12:40:35Z</time>
      </trkpt>
      <trkpt lat="43.7082" lon="6.9727">
        <ele>726.1</ele>
        <time>2011-11-24T12:40:38Z</time>
      </trkpt>
      <trkpt lat="43.70824" lon="6.97265">
        <ele>727.3</ele>
        <time>2011-11-24T12:40:41Z</time>
      </trkpt>
      <trkpt lat="43.70827" lon="6.97259">
        <ele>727.9</ele>
        <time>2011-11-24T12:40:44Z</time>
      </trkpt>
      <trkpt lat="43.7083" lon="6.9725">
        <ele>730.6</ele>
        <time>2011-11-24T12:40:47Z</time>
      </trkpt>
      <trkpt lat="43.70834" lon="6.97245">
        <ele>731.5</ele>
        <time>2011-11-24T12:40:50Z</time>
      </trkpt>
      <trkpt lat="43.70838" lon="6.9724">
        <ele>732.7</ele>
        <time>2011-11-24T12:40:53Z</time>
      </trkpt>
      <trkpt lat="43.70842" lon="6.97235">
        <ele>734.2</ele>
        <time>2011-11-24T12:40:56Z</time>
      </trkpt>
      <trkpt lat="43.70847" lon="6.9723">
        <ele>734.6</ele>
        <time>2011-11-24T12:40:59Z</time>
      </trkpt>
      <trkpt lat="43.70851" lon="6.97226">
        <ele>734.7</ele>
        <time>2011-11-24T12:41:02Z</time>
      </trkpt>
      <trkpt lat="43.70855" lon="6.97222">
        <ele>734.9</ele>
        <time>2011-11-24T12:41:05Z</time>
      </trkpt>
      <trkpt lat="43.70859" lon="6.97219">
        <ele>735.3</ele>
        <time>2011-11-24T12:41:08Z</time>
      </trkpt>
      <trkpt lat="43.70864" lon="6.97216">
        <ele>735.6</ele>
        <time>2011-11-24T12:41:11Z</time>
      </trkpt>
      <trkpt lat="43.70868" lon="6.97212">
        <ele>735.9</ele>
        <time>2011-11-24T12:41:14Z</time>
      </trkpt>
      <trkpt lat="43.70873" lon="6.97207">
        <ele>736.4</ele>
        <time>2011-11-24T12:41:17Z</time>
      </trkpt>
      <trkpt lat="43.70878" lon="6.97202">
        <ele>736.4</ele>
        <time>2011-11-24T12:41:20Z</time>
      </trkpt>
      <trkpt lat="43.70882" lon="6.97196">
        <ele>738.6</ele>
        <time>2011-11-24T12:41:23Z</time>
      </trkpt>
      <trkpt lat="43.70885" lon="6.97189">
        <ele>738.4</ele>
        <time>2011-11-24T12:41:25Z</time>
      </trkpt>
      <trkpt lat="43.70887" lon="6.97183">
        <ele>739.8</ele>
        <time>2011-11-24T12:41:27Z</time>
      </trkpt>
      <trkpt lat="43.70889" lon="6.97177">
        <ele>740.3</ele>
        <time>2011-11-24T12:41:29Z</time>
      </trkpt>
      <trkpt lat="43.70892" lon="6.97172">
        <ele>741.4</ele>
        <time>2011-11-24T12:41:31Z</time>
      </trkpt>
      <trkpt lat="43.70895" lon="6.97165">
        <ele>742.7</ele>
        <time>2011-11-24T12:41:34Z</time>
      </trkpt>
      <trkpt lat="43.70898" lon="6.97158">
        <ele>743</ele>
        <time>2011-11-24T12:41:36Z</time>
      </trkpt>
      <trkpt lat="43.709" lon="6.97152">
        <ele>743.9</ele>
        <time>2011-11-24T12:41:38Z</time>
      </trkpt>
      <trkpt lat="43.70902" lon="6.97147">
        <ele>744.2</ele>
        <time>2011-11-24T12:41:40Z</time>
      </trkpt>
      <trkpt lat="43.70903" lon="6.97139">
        <ele>744.1</ele>
        <time>2011-11-24T12:41:42Z</time>
      </trkpt>
      <trkpt lat="43.70905" lon="6.97132">
        <ele>743.8</ele>
        <time>2011-11-24T12:41:44Z</time>
      </trkpt>
      <trkpt lat="43.70908" lon="6.97126">
        <ele>744.3</ele>
        <time>2011-11-24T12:41:47Z</time>
      </trkpt>
      <trkpt lat="43.70912" lon="6.9712">
        <ele>744.9</ele>
        <time>2011-11-24T12:41:50Z</time>
      </trkpt>
      <trkpt lat="43.70914" lon="6.97114">
        <ele>746.3</ele>
        <time>2011-11-24T12:41:52Z</time>
      </trkpt>
      <trkpt lat="43.70918" lon="6.97106">
        <ele>747.5</ele>
        <time>2011-11-24T12:41:55Z</time>
      </trkpt>
      <trkpt lat="43.7092" lon="6.971">
        <ele>747.9</ele>
        <time>2011-11-24T12:41:57Z</time>
      </trkpt>
      <trkpt lat="43.70923" lon="6.97093">
        <ele>748.7</ele>
        <time>2011-11-24T12:41:59Z</time>
      </trkpt>
      <trkpt lat="43.70926" lon="6.97087">
        <ele>748.7</ele>
        <time>2011-11-24T12:42:01Z</time>
      </trkpt>
      <trkpt lat="43.70928" lon="6.97081">
        <ele>748.7</ele>
        <time>2011-11-24T12:42:03Z</time>
      </trkpt>
      <trkpt lat="43.70931" lon="6.97075">
        <ele>749.1</ele>
        <time>2011-11-24T12:42:06Z</time>
      </trkpt>
      <trkpt lat="43.70932" lon="6.97069">
        <ele>749.7</ele>
        <time>2011-11-24T12:42:08Z</time>
      </trkpt>
      <trkpt lat="43.70934" lon="6.97062">
        <ele>750</ele>
        <time>2011-11-24T12:42:10Z</time>
      </trkpt>
      <trkpt lat="43.70936" lon="6.97057">
        <ele>749.7</ele>
        <time>2011-11-24T12:42:12Z</time>
      </trkpt>
      <trkpt lat="43.7094" lon="6.97052">
        <ele>749.7</ele>
        <time>2011-11-24T12:42:14Z</time>
      </trkpt>
      <trkpt lat="43.70943" lon="6.97043">
        <ele>751</ele>
        <time>2011-11-24T12:42:17Z</time>
      </trkpt>
      <trkpt lat="43.70946" lon="6.97036">
        <ele>752.3</ele>
        <time>2011-11-24T12:42:20Z</time>
      </trkpt>
      <trkpt lat="43.7095" lon="6.97029">
        <ele>753.5</ele>
        <time>2011-11-24T12:42:23Z</time>
      </trkpt>
      <trkpt lat="43.70952" lon="6.9702">
        <ele>754.6</ele>
        <time>2011-11-24T12:42:26Z</time>
      </trkpt>
      <trkpt lat="43.70954" lon="6.97015">
        <ele>754.2</ele>
        <time>2011-11-24T12:42:28Z</time>
      </trkpt>
      <trkpt lat="43.70957" lon="6.97006">
        <ele>753.4</ele>
        <time>2011-11-24T12:42:31Z</time>
      </trkpt>
      <trkpt lat="43.70957" lon="6.97">
        <ele>754.8</ele>
        <time>2011-11-24T12:42:33Z</time>
      </trkpt>
      <trkpt lat="43.70959" lon="6.96992">
        <ele>755.7</ele>
        <time>2011-11-24T12:42:36Z</time>
      </trkpt>
      <trkpt lat="43.7096" lon="6.96986">
        <ele>756.6</ele>
        <time>2011-11-24T12:42:39Z</time>
      </trkpt>
      <trkpt lat="43.70961" lon="6.96979">
        <ele>755.8</ele>
        <time>2011-11-24T12:42:41Z</time>
      </trkpt>
      <trkpt lat="43.70961" lon="6.96972">
        <ele>756.1</ele>
        <time>2011-11-24T12:42:43Z</time>
      </trkpt>
      <trkpt lat="43.70961" lon="6.96965">
        <ele>755.1</ele>
        <time>2011-11-24T12:42:45Z</time>
      </trkpt>
      <trkpt lat="43.7096" lon="6.96958">
        <ele>754.9</ele>
        <time>2011-11-24T12:42:47Z</time>
      </trkpt>
      <trkpt lat="43.70961" lon="6.96949">
        <ele>755.7</ele>
        <time>2011-11-24T12:42:50Z</time>
      </trkpt>
      <trkpt lat="43.70962" lon="6.96942">
        <ele>755.9</ele>
        <time>2011-11-24T12:42:52Z</time>
      </trkpt>
      <trkpt lat="43.70964" lon="6.96935">
        <ele>757.2</ele>
        <time>2011-11-24T12:42:54Z</time>
      </trkpt>
      <trkpt lat="43.70965" lon="6.96928">
        <ele>758</ele>
        <time>2011-11-24T12:42:56Z</time>
      </trkpt>
      <trkpt lat="43.70966" lon="6.9692">
        <ele>760.3</ele>
        <time>2011-11-24T12:42:58Z</time>
      </trkpt>
      <trkpt lat="43.70968" lon="6.96912">
        <ele>761.1</ele>
        <time>2011-11-24T12:43:00Z</time>
      </trkpt>
      <trkpt lat="43.70971" lon="6.96907">
        <ele>761</ele>
        <time>2011-11-24T12:43:02Z</time>
      </trkpt>
      <trkpt lat="43.70978" lon="6.96906">
        <ele>760.4</ele>
        <time>2011-11-24T12:43:04Z</time>
      </trkpt>
      <trkpt lat="43.70983" lon="6.96912">
        <ele>760.4</ele>
        <time>2011-11-24T12:43:05Z</time>
      </trkpt>
      <trkpt lat="43.70989" lon="6.96916">
        <ele>760.5</ele>
        <time>2011-11-24T12:43:07Z</time>
      </trkpt>
      <trkpt lat="43.70991" lon="6.96921">
        <ele>761.9</ele>
        <time>2011-11-24T12:43:09Z</time>
      </trkpt>
      <trkpt lat="43.70994" lon="6.96928">
        <ele>761</ele>
        <time>2011-11-24T12:43:13Z</time>
      </trkpt>
      <trkpt lat="43.70996" lon="6.96933">
        <ele>761.1</ele>
        <time>2011-11-24T12:43:15Z</time>
      </trkpt>
      <trkpt lat="43.71001" lon="6.96941">
        <ele>760.4</ele>
        <time>2011-11-24T12:43:18Z</time>
      </trkpt>
      <trkpt lat="43.71004" lon="6.96946">
        <ele>760</ele>
        <time>2011-11-24T12:43:20Z</time>
      </trkpt>
      <trkpt lat="43.71007" lon="6.96951">
        <ele>759.6</ele>
        <time>2011-11-24T12:43:22Z</time>
      </trkpt>
      <trkpt lat="43.7101" lon="6.9696">
        <ele>759.5</ele>
        <time>2011-11-24T12:43:25Z</time>
      </trkpt>
      <trkpt lat="43.71013" lon="6.96967">
        <ele>759.8</ele>
        <time>2011-11-24T12:43:28Z</time>
      </trkpt>
      <trkpt lat="43.71018" lon="6.96975">
        <ele>758.1</ele>
        <time>2011-11-24T12:43:31Z</time>
      </trkpt>
      <trkpt lat="43.71022" lon="6.96979">
        <ele>757.9</ele>
        <time>2011-11-24T12:43:34Z</time>
      </trkpt>
      <trkpt lat="43.71028" lon="6.96983">
        <ele>758.3</ele>
        <time>2011-11-24T12:43:37Z</time>
      </trkpt>
      <trkpt lat="43.71032" lon="6.96985">
        <ele>758.9</ele>
        <time>2011-11-24T12:43:39Z</time>
      </trkpt>
      <trkpt lat="43.71037" lon="6.96987">
        <ele>758.7</ele>
        <time>2011-11-24T12:43:41Z</time>
      </trkpt>
      <trkpt lat="43.71041" lon="6.96988">
        <ele>759.5</ele>
        <time>2011-11-24T12:43:43Z</time>
      </trkpt>
      <trkpt lat="43.71046" lon="6.9699">
        <ele>758.9</ele>
        <time>2011-11-24T12:43:45Z</time>
      </trkpt>
      <trkpt lat="43.71051" lon="6.9699">
        <ele>758.8</ele>
        <time>2011-11-24T12:43:47Z</time>
      </trkpt>
      <trkpt lat="43.71056" lon="6.96991">
        <ele>759.1</ele>
        <time>2011-11-24T12:43:49Z</time>
      </trkpt>
      <trkpt lat="43.71061" lon="6.96994">
        <ele>759.1</ele>
        <time>2011-11-24T12:43:51Z</time>
      </trkpt>
      <trkpt lat="43.71066" lon="6.96998">
        <ele>758.9</ele>
        <time>2011-11-24T12:43:53Z</time>
      </trkpt>
      <trkpt lat="43.7107" lon="6.97">
        <ele>759.3</ele>
        <time>2011-11-24T12:43:55Z</time>
      </trkpt>
      <trkpt lat="43.71075" lon="6.97002">
        <ele>759.3</ele>
        <time>2011-11-24T12:43:57Z</time>
      </trkpt>
      <trkpt lat="43.71082" lon="6.97005">
        <ele>759.3</ele>
        <time>2011-11-24T12:44:00Z</time>
      </trkpt>
      <trkpt lat="43.71086" lon="6.97008">
        <ele>761.2</ele>
        <time>2011-11-24T12:44:02Z</time>
      </trkpt>
      <trkpt lat="43.71092" lon="6.9701">
        <ele>762.7</ele>
        <time>2011-11-24T12:44:05Z</time>
      </trkpt>
      <trkpt lat="43.71099" lon="6.97012">
        <ele>762.2</ele>
        <time>2011-11-24T12:44:08Z</time>
      </trkpt>
      <trkpt lat="43.71104" lon="6.97014">
        <ele>762</ele>
        <time>2011-11-24T12:44:10Z</time>
      </trkpt>
      <trkpt lat="43.71109" lon="6.97018">
        <ele>763.9</ele>
        <time>2011-11-24T12:44:13Z</time>
      </trkpt>
      <trkpt lat="43.71116" lon="6.97016">
        <ele>762.1</ele>
        <time>2011-11-24T12:44:15Z</time>
      </trkpt>
      <trkpt lat="43.71122" lon="6.97018">
        <ele>762.7</ele>
        <time>2011-11-24T12:44:18Z</time>
      </trkpt>
      <trkpt lat="43.71126" lon="6.97019">
        <ele>762.2</ele>
        <time>2011-11-24T12:44:20Z</time>
      </trkpt>
      <trkpt lat="43.71132" lon="6.97022">
        <ele>762.1</ele>
        <time>2011-11-24T12:44:22Z</time>
      </trkpt>
      <trkpt lat="43.71138" lon="6.97024">
        <ele>762.4</ele>
        <time>2011-11-24T12:44:25Z</time>
      </trkpt>
      <trkpt lat="43.71142" lon="6.97024">
        <ele>762</ele>
        <time>2011-11-24T12:44:27Z</time>
      </trkpt>
      <trkpt lat="43.71148" lon="6.97025">
        <ele>762.9</ele>
        <time>2011-11-24T12:44:29Z</time>
      </trkpt>
      <trkpt lat="43.71153" lon="6.97027">
        <ele>763.8</ele>
        <time>2011-11-24T12:44:31Z</time>
      </trkpt>
      <trkpt lat="43.71159" lon="6.97029">
        <ele>764.2</ele>
        <time>2011-11-24T12:44:33Z</time>
      </trkpt>
      <trkpt lat="43.71164" lon="6.9703">
        <ele>764.1</ele>
        <time>2011-11-24T12:44:35Z</time>
      </trkpt>
      <trkpt lat="43.7117" lon="6.97032">
        <ele>764.3</ele>
        <time>2011-11-24T12:44:37Z</time>
      </trkpt>
      <trkpt lat="43.71174" lon="6.97034">
        <ele>764.9</ele>
        <time>2011-11-24T12:44:39Z</time>
      </trkpt>
      <trkpt lat="43.71178" lon="6.97037">
        <ele>765.5</ele>
        <time>2011-11-24T12:44:41Z</time>
      </trkpt>
      <trkpt lat="43.71183" lon="6.97038">
        <ele>766.9</ele>
        <time>2011-11-24T12:44:43Z</time>
      </trkpt>
      <trkpt lat="43.71188" lon="6.9704">
        <ele>767.2</ele>
        <time>2011-11-24T12:44:45Z</time>
      </trkpt>
      <trkpt lat="43.71195" lon="6.97042">
        <ele>768.1</ele>
        <time>2011-11-24T12:44:48Z</time>
      </trkpt>
      <trkpt lat="43.712" lon="6.97044">
        <ele>769.3</ele>
        <time>2011-11-24T12:44:51Z</time>
      </trkpt>
      <trkpt lat="43.71206" lon="6.97047">
        <ele>770</ele>
        <time>2011-11-24T12:44:54Z</time>
      </trkpt>
      <trkpt lat="43.71211" lon="6.9705">
        <ele>769.5</ele>
        <time>2011-11-24T12:44:56Z</time>
      </trkpt>
      <trkpt lat="43.71216" lon="6.97053">
        <ele>769.8</ele>
        <time>2011-11-24T12:44:58Z</time>
      </trkpt>
      <trkpt lat="43.71222" lon="6.97053">
        <ele>771.9</ele>
        <time>2011-11-24T12:45:01Z</time>
      </trkpt>
      <trkpt lat="43.71226" lon="6.97053">
        <ele>772.3</ele>
        <time>2011-11-24T12:45:03Z</time>
      </trkpt>
      <trkpt lat="43.71232" lon="6.97052">
        <ele>773.4</ele>
        <time>2011-11-24T12:45:06Z</time>
      </trkpt>
      <trkpt lat="43.71238" lon="6.97052">
        <ele>775</ele>
        <time>2011-11-24T12:45:09Z</time>
      </trkpt>
      <trkpt lat="43.71243" lon="6.97053">
        <ele>775.8</ele>
        <time>2011-11-24T12:45:11Z</time>
      </trkpt>
      <trkpt lat="43.71248" lon="6.97052">
        <ele>775.2</ele>
        <time>2011-11-24T12:45:13Z</time>
      </trkpt>
      <trkpt lat="43.71254" lon="6.97053">
        <ele>776.6</ele>
        <time>2011-11-24T12:45:16Z</time>
      </trkpt>
      <trkpt lat="43.7126" lon="6.97055">
        <ele>778</ele>
        <time>2011-11-24T12:45:19Z</time>
      </trkpt>
      <trkpt lat="43.71265" lon="6.97057">
        <ele>778.2</ele>
        <time>2011-11-24T12:45:21Z</time>
      </trkpt>
      <trkpt lat="43.71269" lon="6.97059">
        <ele>778.5</ele>
        <time>2011-11-24T12:45:23Z</time>
      </trkpt>
      <trkpt lat="43.71275" lon="6.9706">
        <ele>777.2</ele>
        <time>2011-11-24T12:45:25Z</time>
      </trkpt>
      <trkpt lat="43.7128" lon="6.9706">
        <ele>777.9</ele>
        <time>2011-11-24T12:45:27Z</time>
      </trkpt>
      <trkpt lat="43.71287" lon="6.97062">
        <ele>777.5</ele>
        <time>2011-11-24T12:45:30Z</time>
      </trkpt>
      <trkpt lat="43.71292" lon="6.97063">
        <ele>774.1</ele>
        <time>2011-11-24T12:45:32Z</time>
      </trkpt>
      <trkpt lat="43.71297" lon="6.97064">
        <ele>772.8</ele>
        <time>2011-11-24T12:45:34Z</time>
      </trkpt>
      <trkpt lat="43.71302" lon="6.97065">
        <ele>773.5</ele>
        <time>2011-11-24T12:45:36Z</time>
      </trkpt>
      <trkpt lat="43.71307" lon="6.97069">
        <ele>774.4</ele>
        <time>2011-11-24T12:45:38Z</time>
      </trkpt>
      <trkpt lat="43.71312" lon="6.97072">
        <ele>775.1</ele>
        <time>2011-11-24T12:45:40Z</time>
      </trkpt>
      <trkpt lat="43.71317" lon="6.97074">
        <ele>776.1</ele>
        <time>2011-11-24T12:45:42Z</time>
      </trkpt>
      <trkpt lat="43.71321" lon="6.97078">
        <ele>776.2</ele>
        <time>2011-11-24T12:45:44Z</time>
      </trkpt>
      <trkpt lat="43.71326" lon="6.97082">
        <ele>777.1</ele>
        <time>2011-11-24T12:45:46Z</time>
      </trkpt>
      <trkpt lat="43.71332" lon="6.97087">
        <ele>775.2</ele>
        <time>2011-11-24T12:45:48Z</time>
      </trkpt>
      <trkpt lat="43.71338" lon="6.97092">
        <ele>775.7</ele>
        <time>2011-11-24T12:45:50Z</time>
      </trkpt>
      <trkpt lat="43.71342" lon="6.97096">
        <ele>776.9</ele>
        <time>2011-11-24T12:45:52Z</time>
      </trkpt>
      <trkpt lat="43.71347" lon="6.971">
        <ele>777.7</ele>
        <time>2011-11-24T12:45:54Z</time>
      </trkpt>
      <trkpt lat="43.7135" lon="6.97105">
        <ele>779</ele>
        <time>2011-11-24T12:45:56Z</time>
      </trkpt>
      <trkpt lat="43.71354" lon="6.9711">
        <ele>778.7</ele>
        <time>2011-11-24T12:45:58Z</time>
      </trkpt>
      <trkpt lat="43.7136" lon="6.97113">
        <ele>778.2</ele>
        <time>2011-11-24T12:46:00Z</time>
      </trkpt>
      <trkpt lat="43.71364" lon="6.97118">
        <ele>779</ele>
        <time>2011-11-24T12:46:02Z</time>
      </trkpt>
      <trkpt lat="43.71368" lon="6.97123">
        <ele>779.6</ele>
        <time>2011-11-24T12:46:04Z</time>
      </trkpt>
      <trkpt lat="43.71374" lon="6.97126">
        <ele>780</ele>
        <time>2011-11-24T12:46:06Z</time>
      </trkpt>
      <trkpt lat="43.71377" lon="6.97132">
        <ele>781</ele>
        <time>2011-11-24T12:46:08Z</time>
      </trkpt>
      <trkpt lat="43.71383" lon="6.97136">
        <ele>781.7</ele>
        <time>2011-11-24T12:46:10Z</time>
      </trkpt>
      <trkpt lat="43.71388" lon="6.9714">
        <ele>781.9</ele>
        <time>2011-11-24T12:46:12Z</time>
      </trkpt>
      <trkpt lat="43.71393" lon="6.97144">
        <ele>781.9</ele>
        <time>2011-11-24T12:46:14Z</time>
      </trkpt>
      <trkpt lat="43.71399" lon="6.9715">
        <ele>779.2</ele>
        <time>2011-11-24T12:46:16Z</time>
      </trkpt>
      <trkpt lat="43.71404" lon="6.97154">
        <ele>776.9</ele>
        <time>2011-11-24T12:46:18Z</time>
      </trkpt>
      <trkpt lat="43.71407" lon="6.97159">
        <ele>777</ele>
        <time>2011-11-24T12:46:20Z</time>
      </trkpt>
      <trkpt lat="43.71411" lon="6.97165">
        <ele>777.8</ele>
        <time>2011-11-24T12:46:22Z</time>
      </trkpt>
      <trkpt lat="43.71415" lon="6.97171">
        <ele>778.2</ele>
        <time>2011-11-24T12:46:24Z</time>
      </trkpt>
      <trkpt lat="43.71419" lon="6.97177">
        <ele>778.3</ele>
        <time>2011-11-24T12:46:26Z</time>
      </trkpt>
      <trkpt lat="43.71423" lon="6.9718">
        <ele>780.9</ele>
        <time>2011-11-24T12:46:28Z</time>
      </trkpt>
      <trkpt lat="43.71428" lon="6.97184">
        <ele>779.6</ele>
        <time>2011-11-24T12:46:30Z</time>
      </trkpt>
      <trkpt lat="43.71432" lon="6.97188">
        <ele>780.4</ele>
        <time>2011-11-24T12:46:32Z</time>
      </trkpt>
      <trkpt lat="43.71437" lon="6.97192">
        <ele>780.8</ele>
        <time>2011-11-24T12:46:34Z</time>
      </trkpt>
      <trkpt lat="43.71442" lon="6.97196">
        <ele>779.5</ele>
        <time>2011-11-24T12:46:36Z</time>
      </trkpt>
      <trkpt lat="43.71446" lon="6.972">
        <ele>779.6</ele>
        <time>2011-11-24T12:46:38Z</time>
      </trkpt>
      <trkpt lat="43.7145" lon="6.97204">
        <ele>780.5</ele>
        <time>2011-11-24T12:46:40Z</time>
      </trkpt>
      <trkpt lat="43.71455" lon="6.97208">
        <ele>780.8</ele>
        <time>2011-11-24T12:46:42Z</time>
      </trkpt>
      <trkpt lat="43.71459" lon="6.97213">
        <ele>781.9</ele>
        <time>2011-11-24T12:46:44Z</time>
      </trkpt>
      <trkpt lat="43.71465" lon="6.97214">
        <ele>783.5</ele>
        <time>2011-11-24T12:46:47Z</time>
      </trkpt>
      <trkpt lat="43.71469" lon="6.97208">
        <ele>785.2</ele>
        <time>2011-11-24T12:46:50Z</time>
      </trkpt>
      <trkpt lat="43.71464" lon="6.97198">
        <ele>786</ele>
        <time>2011-11-24T12:46:53Z</time>
      </trkpt>
      <trkpt lat="43.71461" lon="6.97192">
        <ele>786.6</ele>
        <time>2011-11-24T12:46:55Z</time>
      </trkpt>
      <trkpt lat="43.71456" lon="6.97188">
        <ele>786.7</ele>
        <time>2011-11-24T12:46:57Z</time>
      </trkpt>
      <trkpt lat="43.71453" lon="6.97184">
        <ele>787.3</ele>
        <time>2011-11-24T12:46:59Z</time>
      </trkpt>
      <trkpt lat="43.71448" lon="6.97177">
        <ele>788.3</ele>
        <time>2011-11-24T12:47:02Z</time>
      </trkpt>
      <trkpt lat="43.71443" lon="6.97171">
        <ele>789.4</ele>
        <time>2011-11-24T12:47:05Z</time>
      </trkpt>
      <trkpt lat="43.7144" lon="6.97164">
        <ele>789.7</ele>
        <time>2011-11-24T12:47:08Z</time>
      </trkpt>
      <trkpt lat="43.71435" lon="6.97158">
        <ele>790.1</ele>
        <time>2011-11-24T12:47:10Z</time>
      </trkpt>
      <trkpt lat="43.71432" lon="6.97151">
        <ele>790.6</ele>
        <time>2011-11-24T12:47:13Z</time>
      </trkpt>
      <trkpt lat="43.7143" lon="6.97145">
        <ele>790.6</ele>
        <time>2011-11-24T12:47:15Z</time>
      </trkpt>
      <trkpt lat="43.71426" lon="6.97139">
        <ele>789.3</ele>
        <time>2011-11-24T12:47:17Z</time>
      </trkpt>
      <trkpt lat="43.71422" lon="6.97134">
        <ele>788.3</ele>
        <time>2011-11-24T12:47:19Z</time>
      </trkpt>
      <trkpt lat="43.71419" lon="6.97127">
        <ele>788.5</ele>
        <time>2011-11-24T12:47:21Z</time>
      </trkpt>
      <trkpt lat="43.71416" lon="6.97122">
        <ele>788.8</ele>
        <time>2011-11-24T12:47:23Z</time>
      </trkpt>
      <trkpt lat="43.71414" lon="6.97115">
        <ele>788.7</ele>
        <time>2011-11-24T12:47:25Z</time>
      </trkpt>
      <trkpt lat="43.7141" lon="6.97109">
        <ele>788.4</ele>
        <time>2011-11-24T12:47:27Z</time>
      </trkpt>
      <trkpt lat="43.71406" lon="6.97103">
        <ele>787.2</ele>
        <time>2011-11-24T12:47:29Z</time>
      </trkpt>
      <trkpt lat="43.71402" lon="6.97098">
        <ele>787.2</ele>
        <time>2011-11-24T12:47:31Z</time>
      </trkpt>
      <trkpt lat="43.71399" lon="6.97093">
        <ele>787.2</ele>
        <time>2011-11-24T12:47:33Z</time>
      </trkpt>
      <trkpt lat="43.71395" lon="6.97085">
        <ele>787.4</ele>
        <time>2011-11-24T12:47:36Z</time>
      </trkpt>
      <trkpt lat="43.71391" lon="6.9708">
        <ele>788.1</ele>
        <time>2011-11-24T12:47:38Z</time>
      </trkpt>
      <trkpt lat="43.71387" lon="6.97076">
        <ele>788.7</ele>
        <time>2011-11-24T12:47:40Z</time>
      </trkpt>
      <trkpt lat="43.71383" lon="6.97071">
        <ele>789.6</ele>
        <time>2011-11-24T12:47:42Z</time>
      </trkpt>
      <trkpt lat="43.71378" lon="6.97067">
        <ele>789.4</ele>
        <time>2011-11-24T12:47:44Z</time>
      </trkpt>
      <trkpt lat="43.71374" lon="6.97059">
        <ele>789.5</ele>
        <time>2011-11-24T12:47:47Z</time>
      </trkpt>
      <trkpt lat="43.71371" lon="6.97053">
        <ele>789.3</ele>
        <time>2011-11-24T12:47:50Z</time>
      </trkpt>
      <trkpt lat="43.71368" lon="6.97045">
        <ele>788.9</ele>
        <time>2011-11-24T12:47:53Z</time>
      </trkpt>
      <trkpt lat="43.71367" lon="6.97038">
        <ele>789.3</ele>
        <time>2011-11-24T12:47:55Z</time>
      </trkpt>
      <trkpt lat="43.71363" lon="6.97035">
        <ele>790.7</ele>
        <time>2011-11-24T12:47:56Z</time>
      </trkpt>
      <trkpt lat="43.71358" lon="6.97027">
        <ele>791</ele>
        <time>2011-11-24T12:47:58Z</time>
      </trkpt>
      <trkpt lat="43.71355" lon="6.97021">
        <ele>791.4</ele>
        <time>2011-11-24T12:48:00Z</time>
      </trkpt>
      <trkpt lat="43.71351" lon="6.97015">
        <ele>791.8</ele>
        <time>2011-11-24T12:48:02Z</time>
      </trkpt>
      <trkpt lat="43.71349" lon="6.97008">
        <ele>792</ele>
        <time>2011-11-24T12:48:04Z</time>
      </trkpt>
      <trkpt lat="43.71345" lon="6.97001">
        <ele>792.3</ele>
        <time>2011-11-24T12:48:06Z</time>
      </trkpt>
      <trkpt lat="43.71341" lon="6.96996">
        <ele>793.1</ele>
        <time>2011-11-24T12:48:08Z</time>
      </trkpt>
      <trkpt lat="43.71337" lon="6.96991">
        <ele>794.3</ele>
        <time>2011-11-24T12:48:10Z</time>
      </trkpt>
      <trkpt lat="43.71333" lon="6.96986">
        <ele>794.9</ele>
        <time>2011-11-24T12:48:12Z</time>
      </trkpt>
      <trkpt lat="43.7133" lon="6.96982">
        <ele>795.4</ele>
        <time>2011-11-24T12:48:14Z</time>
      </trkpt>
      <trkpt lat="43.71324" lon="6.96976">
        <ele>797.3</ele>
        <time>2011-11-24T12:48:17Z</time>
      </trkpt>
      <trkpt lat="43.7132" lon="6.9697">
        <ele>797.8</ele>
        <time>2011-11-24T12:48:19Z</time>
      </trkpt>
      <trkpt lat="43.71317" lon="6.96964">
        <ele>797.9</ele>
        <time>2011-11-24T12:48:21Z</time>
      </trkpt>
      <trkpt lat="43.71314" lon="6.96958">
        <ele>798.3</ele>
        <time>2011-11-24T12:48:23Z</time>
      </trkpt>
      <trkpt lat="43.7131" lon="6.96952">
        <ele>799.2</ele>
        <time>2011-11-24T12:48:25Z</time>
      </trkpt>
      <trkpt lat="43.71308" lon="6.96946">
        <ele>799.7</ele>
        <time>2011-11-24T12:48:27Z</time>
      </trkpt>
      <trkpt lat="43.71306" lon="6.9694">
        <ele>800.2</ele>
        <time>2011-11-24T12:48:29Z</time>
      </trkpt>
      <trkpt lat="43.71304" lon="6.96933">
        <ele>801</ele>
        <time>2011-11-24T12:48:31Z</time>
      </trkpt>
      <trkpt lat="43.71303" lon="6.96926">
        <ele>801.2</ele>
        <time>2011-11-24T12:48:33Z</time>
      </trkpt>
      <trkpt lat="43.71301" lon="6.96919">
        <ele>801.6</ele>
        <time>2011-11-24T12:48:35Z</time>
      </trkpt>
      <trkpt lat="43.71299" lon="6.96912">
        <ele>801.8</ele>
        <time>2011-11-24T12:48:37Z</time>
      </trkpt>
      <trkpt lat="43.71298" lon="6.96905">
        <ele>801.7</ele>
        <time>2011-11-24T12:48:39Z</time>
      </trkpt>
      <trkpt lat="43.71297" lon="6.96898">
        <ele>802.2</ele>
        <time>2011-11-24T12:48:41Z</time>
      </trkpt>
      <trkpt lat="43.71297" lon="6.96891">
        <ele>802.1</ele>
        <time>2011-11-24T12:48:43Z</time>
      </trkpt>
      <trkpt lat="43.71297" lon="6.96885">
        <ele>802</ele>
        <time>2011-11-24T12:48:45Z</time>
      </trkpt>
      <trkpt lat="43.71297" lon="6.96877">
        <ele>802.5</ele>
        <time>2011-11-24T12:48:47Z</time>
      </trkpt>
      <trkpt lat="43.71296" lon="6.9687">
        <ele>803.2</ele>
        <time>2011-11-24T12:48:49Z</time>
      </trkpt>
      <trkpt lat="43.71295" lon="6.96863">
        <ele>802.8</ele>
        <time>2011-11-24T12:48:51Z</time>
      </trkpt>
      <trkpt lat="43.71295" lon="6.96855">
        <ele>802.5</ele>
        <time>2011-11-24T12:48:54Z</time>
      </trkpt>
      <trkpt lat="43.71292" lon="6.96848">
        <ele>802.9</ele>
        <time>2011-11-24T12:48:56Z</time>
      </trkpt>
      <trkpt lat="43.71291" lon="6.96841">
        <ele>802.9</ele>
        <time>2011-11-24T12:48:58Z</time>
      </trkpt>
      <trkpt lat="43.71289" lon="6.96835">
        <ele>803.1</ele>
        <time>2011-11-24T12:49:00Z</time>
      </trkpt>
      <trkpt lat="43.71287" lon="6.96828">
        <ele>803.8</ele>
        <time>2011-11-24T12:49:02Z</time>
      </trkpt>
      <trkpt lat="43.71284" lon="6.96821">
        <ele>804</ele>
        <time>2011-11-24T12:49:04Z</time>
      </trkpt>
      <trkpt lat="43.71281" lon="6.96813">
        <ele>804.7</ele>
        <time>2011-11-24T12:49:06Z</time>
      </trkpt>
      <trkpt lat="43.71278" lon="6.96805">
        <ele>804.6</ele>
        <time>2011-11-24T12:49:08Z</time>
      </trkpt>
      <trkpt lat="43.71275" lon="6.96798">
        <ele>805</ele>
        <time>2011-11-24T12:49:10Z</time>
      </trkpt>
      <trkpt lat="43.71274" lon="6.96791">
        <ele>805.2</ele>
        <time>2011-11-24T12:49:12Z</time>
      </trkpt>
      <trkpt lat="43.71271" lon="6.96783">
        <ele>804.6</ele>
        <time>2011-11-24T12:49:14Z</time>
      </trkpt>
      <trkpt lat="43.71268" lon="6.96776">
        <ele>804.7</ele>
        <time>2011-11-24T12:49:16Z</time>
      </trkpt>
      <trkpt lat="43.71267" lon="6.96768">
        <ele>805.2</ele>
        <time>2011-11-24T12:49:18Z</time>
      </trkpt>
      <trkpt lat="43.71267" lon="6.9676">
        <ele>805.6</ele>
        <time>2011-11-24T12:49:20Z</time>
      </trkpt>
      <trkpt lat="43.71266" lon="6.96754">
        <ele>805.8</ele>
        <time>2011-11-24T12:49:22Z</time>
      </trkpt>
      <trkpt lat="43.71264" lon="6.96745">
        <ele>804.2</ele>
        <time>2011-11-24T12:49:25Z</time>
      </trkpt>
      <trkpt lat="43.71263" lon="6.96739">
        <ele>803.2</ele>
        <time>2011-11-24T12:49:27Z</time>
      </trkpt>
      <trkpt lat="43.71259" lon="6.96733">
        <ele>804.5</ele>
        <time>2011-11-24T12:49:29Z</time>
      </trkpt>
      <trkpt lat="43.71253" lon="6.96726">
        <ele>805.6</ele>
        <time>2011-11-24T12:49:31Z</time>
      </trkpt>
      <trkpt lat="43.71246" lon="6.9672">
        <ele>807.2</ele>
        <time>2011-11-24T12:49:33Z</time>
      </trkpt>
      <trkpt lat="43.71242" lon="6.96713">
        <ele>809.2</ele>
        <time>2011-11-24T12:49:35Z</time>
      </trkpt>
      <trkpt lat="43.71239" lon="6.96705">
        <ele>807.2</ele>
        <time>2011-11-24T12:49:37Z</time>
      </trkpt>
      <trkpt lat="43.71238" lon="6.96698">
        <ele>804.9</ele>
        <time>2011-11-24T12:49:39Z</time>
      </trkpt>
      <trkpt lat="43.71235" lon="6.96688">
        <ele>804.8</ele>
        <time>2011-11-24T12:49:42Z</time>
      </trkpt>
      <trkpt lat="43.71233" lon="6.9668">
        <ele>807.5</ele>
        <time>2011-11-24T12:49:44Z</time>
      </trkpt>
      <trkpt lat="43.71233" lon="6.96672">
        <ele>808.2</ele>
        <time>2011-11-24T12:49:46Z</time>
      </trkpt>
      <trkpt lat="43.71232" lon="6.96663">
        <ele>808.8</ele>
        <time>2011-11-24T12:49:48Z</time>
      </trkpt>
      <trkpt lat="43.71231" lon="6.96654">
        <ele>809.6</ele>
        <time>2011-11-24T12:49:50Z</time>
      </trkpt>
      <trkpt lat="43.71231" lon="6.96646">
        <ele>810.2</ele>
        <time>2011-11-24T12:49:52Z</time>
      </trkpt>
      <trkpt lat="43.71232" lon="6.96638">
        <ele>811.2</ele>
        <time>2011-11-24T12:49:54Z</time>
      </trkpt>
      <trkpt lat="43.71232" lon="6.96629">
        <ele>811.6</ele>
        <time>2011-11-24T12:49:56Z</time>
      </trkpt>
      <trkpt lat="43.71232" lon="6.96622">
        <ele>812.2</ele>
        <time>2011-11-24T12:49:58Z</time>
      </trkpt>
      <trkpt lat="43.71232" lon="6.96614">
        <ele>812.5</ele>
        <time>2011-11-24T12:50:00Z</time>
      </trkpt>
      <trkpt lat="43.71233" lon="6.96606">
        <ele>813.1</ele>
        <time>2011-11-24T12:50:02Z</time>
      </trkpt>
      <trkpt lat="43.71232" lon="6.96598">
        <ele>813.6</ele>
        <time>2011-11-24T12:50:04Z</time>
      </trkpt>
      <trkpt lat="43.71231" lon="6.96589">
        <ele>814.2</ele>
        <time>2011-11-24T12:50:06Z</time>
      </trkpt>
      <trkpt lat="43.71231" lon="6.96581">
        <ele>815.1</ele>
        <time>2011-11-24T12:50:08Z</time>
      </trkpt>
      <trkpt lat="43.7123" lon="6.96573">
        <ele>815.7</ele>
        <time>2011-11-24T12:50:10Z</time>
      </trkpt>
      <trkpt lat="43.71229" lon="6.96565">
        <ele>816.2</ele>
        <time>2011-11-24T12:50:12Z</time>
      </trkpt>
      <trkpt lat="43.71228" lon="6.96558">
        <ele>816.2</ele>
        <time>2011-11-24T12:50:14Z</time>
      </trkpt>
      <trkpt lat="43.71227" lon="6.96551">
        <ele>817</ele>
        <time>2011-11-24T12:50:16Z</time>
      </trkpt>
      <trkpt lat="43.71226" lon="6.96544">
        <ele>817.5</ele>
        <time>2011-11-24T12:50:18Z</time>
      </trkpt>
      <trkpt lat="43.71225" lon="6.96536">
        <ele>818.1</ele>
        <time>2011-11-24T12:50:20Z</time>
      </trkpt>
      <trkpt lat="43.71224" lon="6.96528">
        <ele>819</ele>
        <time>2011-11-24T12:50:22Z</time>
      </trkpt>
      <trkpt lat="43.71224" lon="6.9652">
        <ele>819.2</ele>
        <time>2011-11-24T12:50:24Z</time>
      </trkpt>
      <trkpt lat="43.71223" lon="6.96512">
        <ele>819.7</ele>
        <time>2011-11-24T12:50:26Z</time>
      </trkpt>
      <trkpt lat="43.71224" lon="6.96506">
        <ele>820.4</ele>
        <time>2011-11-24T12:50:28Z</time>
      </trkpt>
      <trkpt lat="43.71223" lon="6.96498">
        <ele>821.9</ele>
        <time>2011-11-24T12:50:30Z</time>
      </trkpt>
      <trkpt lat="43.71223" lon="6.9649">
        <ele>822.7</ele>
        <time>2011-11-24T12:50:32Z</time>
      </trkpt>
      <trkpt lat="43.71222" lon="6.96484">
        <ele>823.5</ele>
        <time>2011-11-24T12:50:34Z</time>
      </trkpt>
      <trkpt lat="43.71223" lon="6.96475">
        <ele>823.5</ele>
        <time>2011-11-24T12:50:36Z</time>
      </trkpt>
      <trkpt lat="43.71222" lon="6.96466">
        <ele>823.9</ele>
        <time>2011-11-24T12:50:38Z</time>
      </trkpt>
      <trkpt lat="43.71221" lon="6.96458">
        <ele>823.9</ele>
        <time>2011-11-24T12:50:40Z</time>
      </trkpt>
      <trkpt lat="43.7122" lon="6.96448">
        <ele>823.6</ele>
        <time>2011-11-24T12:50:42Z</time>
      </trkpt>
      <trkpt lat="43.71215" lon="6.96439">
        <ele>822.3</ele>
        <time>2011-11-24T12:50:44Z</time>
      </trkpt>
      <trkpt lat="43.71211" lon="6.96428">
        <ele>822.4</ele>
        <time>2011-11-24T12:50:46Z</time>
      </trkpt>
      <trkpt lat="43.71206" lon="6.96424">
        <ele>822.2</ele>
        <time>2011-11-24T12:50:47Z</time>
      </trkpt>
      <trkpt lat="43.71203" lon="6.96419">
        <ele>822.7</ele>
        <time>2011-11-24T12:50:48Z</time>
      </trkpt>
      <trkpt lat="43.71199" lon="6.96414">
        <ele>822.7</ele>
        <time>2011-11-24T12:50:49Z</time>
      </trkpt>
      <trkpt lat="43.71196" lon="6.96409">
        <ele>822.5</ele>
        <time>2011-11-24T12:50:50Z</time>
      </trkpt>
      <trkpt lat="43.71191" lon="6.964">
        <ele>822.5</ele>
        <time>2011-11-24T12:50:52Z</time>
      </trkpt>
      <trkpt lat="43.71186" lon="6.96392">
        <ele>822.8</ele>
        <time>2011-11-24T12:50:54Z</time>
      </trkpt>
      <trkpt lat="43.71182" lon="6.96383">
        <ele>823.1</ele>
        <time>2011-11-24T12:50:56Z</time>
      </trkpt>
      <trkpt lat="43.71178" lon="6.96374">
        <ele>823.3</ele>
        <time>2011-11-24T12:50:58Z</time>
      </trkpt>
      <trkpt lat="43.71176" lon="6.96365">
        <ele>823.4</ele>
        <time>2011-11-24T12:51:00Z</time>
      </trkpt>
      <trkpt lat="43.71172" lon="6.96356">
        <ele>824.1</ele>
        <time>2011-11-24T12:51:02Z</time>
      </trkpt>
      <trkpt lat="43.7117" lon="6.96348">
        <ele>824.3</ele>
        <time>2011-11-24T12:51:04Z</time>
      </trkpt>
      <trkpt lat="43.71169" lon="6.96341">
        <ele>824.8</ele>
        <time>2011-11-24T12:51:06Z</time>
      </trkpt>
      <trkpt lat="43.71167" lon="6.96333">
        <ele>825.3</ele>
        <time>2011-11-24T12:51:08Z</time>
      </trkpt>
      <trkpt lat="43.71167" lon="6.96326">
        <ele>826</ele>
        <time>2011-11-24T12:51:10Z</time>
      </trkpt>
      <trkpt lat="43.71167" lon="6.96319">
        <ele>826</ele>
        <time>2011-11-24T12:51:12Z</time>
      </trkpt>
      <trkpt lat="43.71167" lon="6.96312">
        <ele>826.8</ele>
        <time>2011-11-24T12:51:14Z</time>
      </trkpt>
      <trkpt lat="43.71167" lon="6.96306">
        <ele>828</ele>
        <time>2011-11-24T12:51:16Z</time>
      </trkpt>
      <trkpt lat="43.71168" lon="6.963">
        <ele>828.7</ele>
        <time>2011-11-24T12:51:18Z</time>
      </trkpt>
      <trkpt lat="43.71169" lon="6.96293">
        <ele>828.7</ele>
        <time>2011-11-24T12:51:20Z</time>
      </trkpt>
      <trkpt lat="43.71168" lon="6.96285">
        <ele>829</ele>
        <time>2011-11-24T12:51:23Z</time>
      </trkpt>
      <trkpt lat="43.71168" lon="6.96278">
        <ele>829.1</ele>
        <time>2011-11-24T12:51:25Z</time>
      </trkpt>
      <trkpt lat="43.71169" lon="6.96272">
        <ele>829.8</ele>
        <time>2011-11-24T12:51:27Z</time>
      </trkpt>
      <trkpt lat="43.71172" lon="6.96267">
        <ele>830.3</ele>
        <time>2011-11-24T12:51:29Z</time>
      </trkpt>
      <trkpt lat="43.71179" lon="6.96268">
        <ele>830.9</ele>
        <time>2011-11-24T12:51:32Z</time>
      </trkpt>
      <trkpt lat="43.71182" lon="6.96274">
        <ele>831.3</ele>
        <time>2011-11-24T12:51:34Z</time>
      </trkpt>
      <trkpt lat="43.71185" lon="6.96279">
        <ele>831.6</ele>
        <time>2011-11-24T12:51:36Z</time>
      </trkpt>
      <trkpt lat="43.71189" lon="6.96284">
        <ele>831.7</ele>
        <time>2011-11-24T12:51:38Z</time>
      </trkpt>
      <trkpt lat="43.71193" lon="6.96289">
        <ele>831.6</ele>
        <time>2011-11-24T12:51:40Z</time>
      </trkpt>
      <trkpt lat="43.71196" lon="6.96294">
        <ele>831.5</ele>
        <time>2011-11-24T12:51:42Z</time>
      </trkpt>
      <trkpt lat="43.71216" lon="6.96292">
        <ele>834.1</ele>
        <time>2011-11-24T12:51:49Z</time>
      </trkpt>
      <trkpt lat="43.71222" lon="6.96289">
        <ele>835.4</ele>
        <time>2011-11-24T12:51:51Z</time>
      </trkpt>
      <trkpt lat="43.71228" lon="6.96286">
        <ele>836</ele>
        <time>2011-11-24T12:51:53Z</time>
      </trkpt>
      <trkpt lat="43.71234" lon="6.96285">
        <ele>836.6</ele>
        <time>2011-11-24T12:51:55Z</time>
      </trkpt>
      <trkpt lat="43.71242" lon="6.96284">
        <ele>838</ele>
        <time>2011-11-24T12:51:57Z</time>
      </trkpt>
      <trkpt lat="43.71246" lon="6.96282">
        <ele>836</ele>
        <time>2011-11-24T12:51:58Z</time>
      </trkpt>
      <trkpt lat="43.71251" lon="6.96282">
        <ele>835.2</ele>
        <time>2011-11-24T12:51:59Z</time>
      </trkpt>
      <trkpt lat="43.71259" lon="6.96281">
        <ele>835.5</ele>
        <time>2011-11-24T12:52:01Z</time>
      </trkpt>
      <trkpt lat="43.71267" lon="6.96282">
        <ele>835.4</ele>
        <time>2011-11-24T12:52:03Z</time>
      </trkpt>
      <trkpt lat="43.71274" lon="6.9628">
        <ele>838.3</ele>
        <time>2011-11-24T12:52:05Z</time>
      </trkpt>
      <trkpt lat="43.7128" lon="6.96278">
        <ele>837.4</ele>
        <time>2011-11-24T12:52:06Z</time>
      </trkpt>
      <trkpt lat="43.71284" lon="6.96276">
        <ele>837.6</ele>
        <time>2011-11-24T12:52:07Z</time>
      </trkpt>
      <trkpt lat="43.71289" lon="6.96277">
        <ele>837.5</ele>
        <time>2011-11-24T12:52:08Z</time>
      </trkpt>
      <trkpt lat="43.71294" lon="6.96279">
        <ele>837.4</ele>
        <time>2011-11-24T12:52:09Z</time>
      </trkpt>
      <trkpt lat="43.71299" lon="6.96282">
        <ele>837.2</ele>
        <time>2011-11-24T12:52:10Z</time>
      </trkpt>
      <trkpt lat="43.71303" lon="6.96287">
        <ele>837.4</ele>
        <time>2011-11-24T12:52:11Z</time>
      </trkpt>
      <trkpt lat="43.71306" lon="6.96292">
        <ele>837.2</ele>
        <time>2011-11-24T12:52:12Z</time>
      </trkpt>
      <trkpt lat="43.71309" lon="6.96296">
        <ele>836.7</ele>
        <time>2011-11-24T12:52:13Z</time>
      </trkpt>
      <trkpt lat="43.71317" lon="6.96302">
        <ele>836.7</ele>
        <time>2011-11-24T12:52:15Z</time>
      </trkpt>
      <trkpt lat="43.71322" lon="6.96305">
        <ele>837.2</ele>
        <time>2011-11-24T12:52:16Z</time>
      </trkpt>
      <trkpt lat="43.71326" lon="6.96307">
        <ele>836.9</ele>
        <time>2011-11-24T12:52:17Z</time>
      </trkpt>
      <trkpt lat="43.71331" lon="6.96308">
        <ele>837.1</ele>
        <time>2011-11-24T12:52:18Z</time>
      </trkpt>
      <trkpt lat="43.71336" lon="6.9631">
        <ele>837.2</ele>
        <time>2011-11-24T12:52:19Z</time>
      </trkpt>
      <trkpt lat="43.71341" lon="6.96312">
        <ele>837.3</ele>
        <time>2011-11-24T12:52:20Z</time>
      </trkpt>
      <trkpt lat="43.71346" lon="6.96314">
        <ele>836.6</ele>
        <time>2011-11-24T12:52:21Z</time>
      </trkpt>
      <trkpt lat="43.71351" lon="6.96316">
        <ele>836.8</ele>
        <time>2011-11-24T12:52:22Z</time>
      </trkpt>
      <trkpt lat="43.71355" lon="6.9632">
        <ele>836.6</ele>
        <time>2011-11-24T12:52:23Z</time>
      </trkpt>
      <trkpt lat="43.71359" lon="6.96322">
        <ele>836.1</ele>
        <time>2011-11-24T12:52:24Z</time>
      </trkpt>
      <trkpt lat="43.71364" lon="6.96325">
        <ele>836</ele>
        <time>2011-11-24T12:52:25Z</time>
      </trkpt>
      <trkpt lat="43.71368" lon="6.96328">
        <ele>835.9</ele>
        <time>2011-11-24T12:52:26Z</time>
      </trkpt>
      <trkpt lat="43.71372" lon="6.96333">
        <ele>836</ele>
        <time>2011-11-24T12:52:27Z</time>
      </trkpt>
      <trkpt lat="43.71375" lon="6.96338">
        <ele>836.1</ele>
        <time>2011-11-24T12:52:28Z</time>
      </trkpt>
      <trkpt lat="43.71378" lon="6.96345">
        <ele>835.5</ele>
        <time>2011-11-24T12:52:29Z</time>
      </trkpt>
      <trkpt lat="43.71382" lon="6.96352">
        <ele>835.2</ele>
        <time>2011-11-24T12:52:30Z</time>
      </trkpt>
      <trkpt lat="43.71386" lon="6.96358">
        <ele>835.3</ele>
        <time>2011-11-24T12:52:31Z</time>
      </trkpt>
      <trkpt lat="43.7139" lon="6.96364">
        <ele>835.5</ele>
        <time>2011-11-24T12:52:32Z</time>
      </trkpt>
      <trkpt lat="43.71394" lon="6.9637">
        <ele>835.6</ele>
        <time>2011-11-24T12:52:33Z</time>
      </trkpt>
      <trkpt lat="43.71397" lon="6.96376">
        <ele>835.6</ele>
        <time>2011-11-24T12:52:34Z</time>
      </trkpt>
      <trkpt lat="43.714" lon="6.96383">
        <ele>835.5</ele>
        <time>2011-11-24T12:52:35Z</time>
      </trkpt>
      <trkpt lat="43.71404" lon="6.96388">
        <ele>835.3</ele>
        <time>2011-11-24T12:52:36Z</time>
      </trkpt>
      <trkpt lat="43.71408" lon="6.96394">
        <ele>835.1</ele>
        <time>2011-11-24T12:52:37Z</time>
      </trkpt>
      <trkpt lat="43.71411" lon="6.964">
        <ele>834.6</ele>
        <time>2011-11-24T12:52:38Z</time>
      </trkpt>
      <trkpt lat="43.71415" lon="6.96405">
        <ele>834.8</ele>
        <time>2011-11-24T12:52:39Z</time>
      </trkpt>
      <trkpt lat="43.71419" lon="6.96411">
        <ele>835</ele>
        <time>2011-11-24T12:52:40Z</time>
      </trkpt>
      <trkpt lat="43.71422" lon="6.96416">
        <ele>835.6</ele>
        <time>2011-11-24T12:52:41Z</time>
      </trkpt>
      <trkpt lat="43.71425" lon="6.96422">
        <ele>835.9</ele>
        <time>2011-11-24T12:52:42Z</time>
      </trkpt>
      <trkpt lat="43.71428" lon="6.96427">
        <ele>835.5</ele>
        <time>2011-11-24T12:52:43Z</time>
      </trkpt>
      <trkpt lat="43.7143" lon="6.96433">
        <ele>835.2</ele>
        <time>2011-11-24T12:52:44Z</time>
      </trkpt>
      <trkpt lat="43.71433" lon="6.96439">
        <ele>834.8</ele>
        <time>2011-11-24T12:52:45Z</time>
      </trkpt>
      <trkpt lat="43.71435" lon="6.96447">
        <ele>835.3</ele>
        <time>2011-11-24T12:52:46Z</time>
      </trkpt>
      <trkpt lat="43.71436" lon="6.96455">
        <ele>834.7</ele>
        <time>2011-11-24T12:52:47Z</time>
      </trkpt>
      <trkpt lat="43.71437" lon="6.96462">
        <ele>834.9</ele>
        <time>2011-11-24T12:52:48Z</time>
      </trkpt>
      <trkpt lat="43.71438" lon="6.96471">
        <ele>834.8</ele>
        <time>2011-11-24T12:52:49Z</time>
      </trkpt>
      <trkpt lat="43.71437" lon="6.96478">
        <ele>834.8</ele>
        <time>2011-11-24T12:52:50Z</time>
      </trkpt>
      <trkpt lat="43.71436" lon="6.96486">
        <ele>835</ele>
        <time>2011-11-24T12:52:51Z</time>
      </trkpt>
      <trkpt lat="43.71434" lon="6.96494">
        <ele>835.2</ele>
        <time>2011-11-24T12:52:52Z</time>
      </trkpt>
      <trkpt lat="43.71433" lon="6.96501">
        <ele>835.9</ele>
        <time>2011-11-24T12:52:53Z</time>
      </trkpt>
      <trkpt lat="43.71432" lon="6.96508">
        <ele>835.5</ele>
        <time>2011-11-24T12:52:54Z</time>
      </trkpt>
      <trkpt lat="43.7143" lon="6.96516">
        <ele>834.5</ele>
        <time>2011-11-24T12:52:55Z</time>
      </trkpt>
      <trkpt lat="43.7143" lon="6.96524">
        <ele>834.5</ele>
        <time>2011-11-24T12:52:56Z</time>
      </trkpt>
      <trkpt lat="43.71431" lon="6.96531">
        <ele>834.3</ele>
        <time>2011-11-24T12:52:57Z</time>
      </trkpt>
      <trkpt lat="43.71432" lon="6.96538">
        <ele>833.9</ele>
        <time>2011-11-24T12:52:58Z</time>
      </trkpt>
      <trkpt lat="43.71434" lon="6.96545">
        <ele>833.9</ele>
        <time>2011-11-24T12:52:59Z</time>
      </trkpt>
      <trkpt lat="43.71436" lon="6.96551">
        <ele>834.2</ele>
        <time>2011-11-24T12:53:00Z</time>
      </trkpt>
      <trkpt lat="43.71438" lon="6.96557">
        <ele>834.5</ele>
        <time>2011-11-24T12:53:01Z</time>
      </trkpt>
      <trkpt lat="43.7144" lon="6.96564">
        <ele>834.3</ele>
        <time>2011-11-24T12:53:02Z</time>
      </trkpt>
      <trkpt lat="43.71442" lon="6.96571">
        <ele>834.4</ele>
        <time>2011-11-24T12:53:03Z</time>
      </trkpt>
      <trkpt lat="43.71444" lon="6.96578">
        <ele>834.4</ele>
        <time>2011-11-24T12:53:04Z</time>
      </trkpt>
      <trkpt lat="43.71445" lon="6.96585">
        <ele>834.5</ele>
        <time>2011-11-24T12:53:05Z</time>
      </trkpt>
      <trkpt lat="43.71446" lon="6.96593">
        <ele>835.2</ele>
        <time>2011-11-24T12:53:06Z</time>
      </trkpt>
      <trkpt lat="43.71446" lon="6.966">
        <ele>835.4</ele>
        <time>2011-11-24T12:53:07Z</time>
      </trkpt>
      <trkpt lat="43.71446" lon="6.96606">
        <ele>835.9</ele>
        <time>2011-11-24T12:53:08Z</time>
      </trkpt>
      <trkpt lat="43.71448" lon="6.96615">
        <ele>836.3</ele>
        <time>2011-11-24T12:53:09Z</time>
      </trkpt>
      <trkpt lat="43.71446" lon="6.96623">
        <ele>836.4</ele>
        <time>2011-11-24T12:53:10Z</time>
      </trkpt>
      <trkpt lat="43.71446" lon="6.96631">
        <ele>836.2</ele>
        <time>2011-11-24T12:53:11Z</time>
      </trkpt>
      <trkpt lat="43.71446" lon="6.96638">
        <ele>836</ele>
        <time>2011-11-24T12:53:12Z</time>
      </trkpt>
      <trkpt lat="43.71447" lon="6.96646">
        <ele>835.8</ele>
        <time>2011-11-24T12:53:13Z</time>
      </trkpt>
      <trkpt lat="43.71447" lon="6.96654">
        <ele>835.7</ele>
        <time>2011-11-24T12:53:14Z</time>
      </trkpt>
      <trkpt lat="43.71447" lon="6.96661">
        <ele>835.5</ele>
        <time>2011-11-24T12:53:15Z</time>
      </trkpt>
      <trkpt lat="43.71447" lon="6.96668">
        <ele>835.9</ele>
        <time>2011-11-24T12:53:16Z</time>
      </trkpt>
      <trkpt lat="43.71456" lon="6.96679">
        <ele>835.3</ele>
        <time>2011-11-24T12:53:17Z</time>
      </trkpt>
      <trkpt lat="43.7146" lon="6.96684">
        <ele>833.4</ele>
        <time>2011-11-24T12:53:18Z</time>
      </trkpt>
      <trkpt lat="43.71462" lon="6.9669">
        <ele>833.1</ele>
        <time>2011-11-24T12:53:19Z</time>
      </trkpt>
      <trkpt lat="43.71465" lon="6.96696">
        <ele>832.6</ele>
        <time>2011-11-24T12:53:20Z</time>
      </trkpt>
      <trkpt lat="43.71469" lon="6.96702">
        <ele>832.6</ele>
        <time>2011-11-24T12:53:21Z</time>
      </trkpt>
      <trkpt lat="43.71472" lon="6.96708">
        <ele>832.3</ele>
        <time>2011-11-24T12:53:22Z</time>
      </trkpt>
      <trkpt lat="43.71474" lon="6.96715">
        <ele>833.6</ele>
        <time>2011-11-24T12:53:23Z</time>
      </trkpt>
      <trkpt lat="43.71478" lon="6.96722">
        <ele>833.4</ele>
        <time>2011-11-24T12:53:24Z</time>
      </trkpt>
      <trkpt lat="43.71481" lon="6.96728">
        <ele>832.7</ele>
        <time>2011-11-24T12:53:25Z</time>
      </trkpt>
      <trkpt lat="43.71485" lon="6.96734">
        <ele>832.3</ele>
        <time>2011-11-24T12:53:26Z</time>
      </trkpt>
      <trkpt lat="43.71489" lon="6.96742">
        <ele>831.7</ele>
        <time>2011-11-24T12:53:27Z</time>
      </trkpt>
      <trkpt lat="43.71493" lon="6.96748">
        <ele>831.1</ele>
        <time>2011-11-24T12:53:28Z</time>
      </trkpt>
      <trkpt lat="43.71499" lon="6.96752">
        <ele>831.8</ele>
        <time>2011-11-24T12:53:29Z</time>
      </trkpt>
      <trkpt lat="43.71504" lon="6.96753">
        <ele>831.8</ele>
        <time>2011-11-24T12:53:30Z</time>
      </trkpt>
      <trkpt lat="43.7151" lon="6.96755">
        <ele>831.9</ele>
        <time>2011-11-24T12:53:31Z</time>
      </trkpt>
      <trkpt lat="43.71516" lon="6.96757">
        <ele>831.7</ele>
        <time>2011-11-24T12:53:32Z</time>
      </trkpt>
      <trkpt lat="43.71521" lon="6.96758">
        <ele>832</ele>
        <time>2011-11-24T12:53:33Z</time>
      </trkpt>
      <trkpt lat="43.71528" lon="6.96755">
        <ele>831.8</ele>
        <time>2011-11-24T12:53:34Z</time>
      </trkpt>
      <trkpt lat="43.71534" lon="6.96754">
        <ele>831.6</ele>
        <time>2011-11-24T12:53:35Z</time>
      </trkpt>
      <trkpt lat="43.71541" lon="6.96751">
        <ele>831.5</ele>
        <time>2011-11-24T12:53:36Z</time>
      </trkpt>
      <trkpt lat="43.71547" lon="6.96748">
        <ele>831.9</ele>
        <time>2011-11-24T12:53:37Z</time>
      </trkpt>
      <trkpt lat="43.71553" lon="6.96744">
        <ele>831.9</ele>
        <time>2011-11-24T12:53:38Z</time>
      </trkpt>
      <trkpt lat="43.71559" lon="6.9674">
        <ele>831.9</ele>
        <time>2011-11-24T12:53:39Z</time>
      </trkpt>
      <trkpt lat="43.71564" lon="6.96735">
        <ele>832.5</ele>
        <time>2011-11-24T12:53:40Z</time>
      </trkpt>
      <trkpt lat="43.7157" lon="6.96726">
        <ele>832</ele>
        <time>2011-11-24T12:53:41Z</time>
      </trkpt>
      <trkpt lat="43.71574" lon="6.96716">
        <ele>831.5</ele>
        <time>2011-11-24T12:53:42Z</time>
      </trkpt>
      <trkpt lat="43.71578" lon="6.96705">
        <ele>830.4</ele>
        <time>2011-11-24T12:53:43Z</time>
      </trkpt>
      <trkpt lat="43.71582" lon="6.96694">
        <ele>829.3</ele>
        <time>2011-11-24T12:53:44Z</time>
      </trkpt>
      <trkpt lat="43.71586" lon="6.96684">
        <ele>828.2</ele>
        <time>2011-11-24T12:53:45Z</time>
      </trkpt>
      <trkpt lat="43.7159" lon="6.96672">
        <ele>827.6</ele>
        <time>2011-11-24T12:53:46Z</time>
      </trkpt>
      <trkpt lat="43.71594" lon="6.96662">
        <ele>827.5</ele>
        <time>2011-11-24T12:53:47Z</time>
      </trkpt>
      <trkpt lat="43.71599" lon="6.96652">
        <ele>827.4</ele>
        <time>2011-11-24T12:53:48Z</time>
      </trkpt>
      <trkpt lat="43.71604" lon="6.96644">
        <ele>827</ele>
        <time>2011-11-24T12:53:49Z</time>
      </trkpt>
      <trkpt lat="43.7161" lon="6.96634">
        <ele>827.8</ele>
        <time>2011-11-24T12:53:50Z</time>
      </trkpt>
      <trkpt lat="43.71615" lon="6.96628">
        <ele>828</ele>
        <time>2011-11-24T12:53:51Z</time>
      </trkpt>
      <trkpt lat="43.71619" lon="6.96618">
        <ele>827.8</ele>
        <time>2011-11-24T12:53:52Z</time>
      </trkpt>
      <trkpt lat="43.71624" lon="6.96608">
        <ele>827.7</ele>
        <time>2011-11-24T12:53:53Z</time>
      </trkpt>
      <trkpt lat="43.71629" lon="6.96598">
        <ele>827.7</ele>
        <time>2011-11-24T12:53:54Z</time>
      </trkpt>
      <trkpt lat="43.71635" lon="6.96591">
        <ele>827.7</ele>
        <time>2011-11-24T12:53:55Z</time>
      </trkpt>
      <trkpt lat="43.71639" lon="6.96583">
        <ele>828.2</ele>
        <time>2011-11-24T12:53:56Z</time>
      </trkpt>
      <trkpt lat="43.71644" lon="6.96574">
        <ele>828.9</ele>
        <time>2011-11-24T12:53:57Z</time>
      </trkpt>
      <trkpt lat="43.71648" lon="6.96565">
        <ele>829.1</ele>
        <time>2011-11-24T12:53:58Z</time>
      </trkpt>
      <trkpt lat="43.71653" lon="6.96558">
        <ele>829.4</ele>
        <time>2011-11-24T12:53:59Z</time>
      </trkpt>
      <trkpt lat="43.71659" lon="6.96553">
        <ele>829</ele>
        <time>2011-11-24T12:54:00Z</time>
      </trkpt>
      <trkpt lat="43.71664" lon="6.96546">
        <ele>828.9</ele>
        <time>2011-11-24T12:54:01Z</time>
      </trkpt>
      <trkpt lat="43.71668" lon="6.96541">
        <ele>828.5</ele>
        <time>2011-11-24T12:54:02Z</time>
      </trkpt>
      <trkpt lat="43.71674" lon="6.96538">
        <ele>827.8</ele>
        <time>2011-11-24T12:54:03Z</time>
      </trkpt>
      <trkpt lat="43.71681" lon="6.96533">
        <ele>829.2</ele>
        <time>2011-11-24T12:54:05Z</time>
      </trkpt>
      <trkpt lat="43.71688" lon="6.96527">
        <ele>829.1</ele>
        <time>2011-11-24T12:54:07Z</time>
      </trkpt>
      <trkpt lat="43.71694" lon="6.9652">
        <ele>828.6</ele>
        <time>2011-11-24T12:54:09Z</time>
      </trkpt>
      <trkpt lat="43.71698" lon="6.96511">
        <ele>829.2</ele>
        <time>2011-11-24T12:54:11Z</time>
      </trkpt>
      <trkpt lat="43.71703" lon="6.96499">
        <ele>828.6</ele>
        <time>2011-11-24T12:54:13Z</time>
      </trkpt>
      <trkpt lat="43.71705" lon="6.96493">
        <ele>828.5</ele>
        <time>2011-11-24T12:54:14Z</time>
      </trkpt>
      <trkpt lat="43.71707" lon="6.96486">
        <ele>828.9</ele>
        <time>2011-11-24T12:54:15Z</time>
      </trkpt>
      <trkpt lat="43.71709" lon="6.9648">
        <ele>828.7</ele>
        <time>2011-11-24T12:54:16Z</time>
      </trkpt>
      <trkpt lat="43.71712" lon="6.96474">
        <ele>828.5</ele>
        <time>2011-11-24T12:54:17Z</time>
      </trkpt>
      <trkpt lat="43.71719" lon="6.96466">
        <ele>827.2</ele>
        <time>2011-11-24T12:54:19Z</time>
      </trkpt>
      <trkpt lat="43.71724" lon="6.96461">
        <ele>827.2</ele>
        <time>2011-11-24T12:54:20Z</time>
      </trkpt>
      <trkpt lat="43.71729" lon="6.96457">
        <ele>826.3</ele>
        <time>2011-11-24T12:54:21Z</time>
      </trkpt>
      <trkpt lat="43.71734" lon="6.96453">
        <ele>826.3</ele>
        <time>2011-11-24T12:54:22Z</time>
      </trkpt>
      <trkpt lat="43.7174" lon="6.96448">
        <ele>826.1</ele>
        <time>2011-11-24T12:54:23Z</time>
      </trkpt>
      <trkpt lat="43.71745" lon="6.96443">
        <ele>826.3</ele>
        <time>2011-11-24T12:54:24Z</time>
      </trkpt>
      <trkpt lat="43.7175" lon="6.96437">
        <ele>826.7</ele>
        <time>2011-11-24T12:54:25Z</time>
      </trkpt>
      <trkpt lat="43.71755" lon="6.96433">
        <ele>826.6</ele>
        <time>2011-11-24T12:54:26Z</time>
      </trkpt>
      <trkpt lat="43.7176" lon="6.96426">
        <ele>826.2</ele>
        <time>2011-11-24T12:54:27Z</time>
      </trkpt>
      <trkpt lat="43.71764" lon="6.96418">
        <ele>825.9</ele>
        <time>2011-11-24T12:54:28Z</time>
      </trkpt>
      <trkpt lat="43.7177" lon="6.96412">
        <ele>825.4</ele>
        <time>2011-11-24T12:54:29Z</time>
      </trkpt>
      <trkpt lat="43.71775" lon="6.96402">
        <ele>824.1</ele>
        <time>2011-11-24T12:54:30Z</time>
      </trkpt>
      <trkpt lat="43.7178" lon="6.96393">
        <ele>823.3</ele>
        <time>2011-11-24T12:54:31Z</time>
      </trkpt>
      <trkpt lat="43.71783" lon="6.96383">
        <ele>822.4</ele>
        <time>2011-11-24T12:54:32Z</time>
      </trkpt>
      <trkpt lat="43.71787" lon="6.96373">
        <ele>822.2</ele>
        <time>2011-11-24T12:54:33Z</time>
      </trkpt>
      <trkpt lat="43.7179" lon="6.9636">
        <ele>820.9</ele>
        <time>2011-11-24T12:54:34Z</time>
      </trkpt>
      <trkpt lat="43.71792" lon="6.96348">
        <ele>820.3</ele>
        <time>2011-11-24T12:54:35Z</time>
      </trkpt>
      <trkpt lat="43.71793" lon="6.96337">
        <ele>820</ele>
        <time>2011-11-24T12:54:36Z</time>
      </trkpt>
      <trkpt lat="43.71796" lon="6.96327">
        <ele>819.2</ele>
        <time>2011-11-24T12:54:37Z</time>
      </trkpt>
      <trkpt lat="43.71798" lon="6.96316">
        <ele>818.7</ele>
        <time>2011-11-24T12:54:38Z</time>
      </trkpt>
      <trkpt lat="43.718" lon="6.96306">
        <ele>818.8</ele>
        <time>2011-11-24T12:54:39Z</time>
      </trkpt>
      <trkpt lat="43.71802" lon="6.96296">
        <ele>818</ele>
        <time>2011-11-24T12:54:40Z</time>
      </trkpt>
      <trkpt lat="43.71804" lon="6.96286">
        <ele>816.8</ele>
        <time>2011-11-24T12:54:41Z</time>
      </trkpt>
      <trkpt lat="43.71806" lon="6.96277">
        <ele>815.8</ele>
        <time>2011-11-24T12:54:42Z</time>
      </trkpt>
      <trkpt lat="43.71809" lon="6.96267">
        <ele>815.8</ele>
        <time>2011-11-24T12:54:43Z</time>
      </trkpt>
      <trkpt lat="43.71812" lon="6.96258">
        <ele>815.8</ele>
        <time>2011-11-24T12:54:44Z</time>
      </trkpt>
      <trkpt lat="43.71816" lon="6.96249">
        <ele>815.7</ele>
        <time>2011-11-24T12:54:45Z</time>
      </trkpt>
      <trkpt lat="43.71819" lon="6.96242">
        <ele>815.6</ele>
        <time>2011-11-24T12:54:46Z</time>
      </trkpt>
      <trkpt lat="43.71824" lon="6.96237">
        <ele>815.7</ele>
        <time>2011-11-24T12:54:47Z</time>
      </trkpt>
      <trkpt lat="43.71829" lon="6.96232">
        <ele>815.6</ele>
        <time>2011-11-24T12:54:48Z</time>
      </trkpt>
      <trkpt lat="43.71833" lon="6.96227">
        <ele>815.7</ele>
        <time>2011-11-24T12:54:49Z</time>
      </trkpt>
      <trkpt lat="43.71838" lon="6.96222">
        <ele>815.2</ele>
        <time>2011-11-24T12:54:50Z</time>
      </trkpt>
      <trkpt lat="43.71841" lon="6.96215">
        <ele>815.4</ele>
        <time>2011-11-24T12:54:51Z</time>
      </trkpt>
      <trkpt lat="43.71844" lon="6.96208">
        <ele>815.4</ele>
        <time>2011-11-24T12:54:52Z</time>
      </trkpt>
      <trkpt lat="43.71848" lon="6.96202">
        <ele>815.3</ele>
        <time>2011-11-24T12:54:53Z</time>
      </trkpt>
      <trkpt lat="43.71852" lon="6.96197">
        <ele>815.2</ele>
        <time>2011-11-24T12:54:54Z</time>
      </trkpt>
      <trkpt lat="43.71857" lon="6.96193">
        <ele>815.2</ele>
        <time>2011-11-24T12:54:55Z</time>
      </trkpt>
      <trkpt lat="43.71863" lon="6.96192">
        <ele>815.2</ele>
        <time>2011-11-24T12:54:56Z</time>
      </trkpt>
      <trkpt lat="43.71869" lon="6.9619">
        <ele>815.6</ele>
        <time>2011-11-24T12:54:57Z</time>
      </trkpt>
      <trkpt lat="43.71876" lon="6.96188">
        <ele>814.9</ele>
        <time>2011-11-24T12:54:58Z</time>
      </trkpt>
      <trkpt lat="43.71881" lon="6.96186">
        <ele>814.5</ele>
        <time>2011-11-24T12:54:59Z</time>
      </trkpt>
      <trkpt lat="43.71888" lon="6.96184">
        <ele>813.9</ele>
        <time>2011-11-24T12:55:00Z</time>
      </trkpt>
      <trkpt lat="43.71894" lon="6.96183">
        <ele>813.8</ele>
        <time>2011-11-24T12:55:01Z</time>
      </trkpt>
      <trkpt lat="43.71901" lon="6.96182">
        <ele>813.2</ele>
        <time>2011-11-24T12:55:02Z</time>
      </trkpt>
      <trkpt lat="43.71909" lon="6.96178">
        <ele>812.4</ele>
        <time>2011-11-24T12:55:03Z</time>
      </trkpt>
      <trkpt lat="43.71916" lon="6.96176">
        <ele>812.1</ele>
        <time>2011-11-24T12:55:04Z</time>
      </trkpt>
      <trkpt lat="43.71923" lon="6.96173">
        <ele>812.5</ele>
        <time>2011-11-24T12:55:05Z</time>
      </trkpt>
      <trkpt lat="43.7193" lon="6.96171">
        <ele>812.8</ele>
        <time>2011-11-24T12:55:06Z</time>
      </trkpt>
      <trkpt lat="43.71937" lon="6.96169">
        <ele>812.8</ele>
        <time>2011-11-24T12:55:07Z</time>
      </trkpt>
      <trkpt lat="43.71945" lon="6.96168">
        <ele>813.1</ele>
        <time>2011-11-24T12:55:08Z</time>
      </trkpt>
      <trkpt lat="43.71952" lon="6.96167">
        <ele>813.1</ele>
        <time>2011-11-24T12:55:09Z</time>
      </trkpt>
      <trkpt lat="43.71958" lon="6.96169">
        <ele>812.9</ele>
        <time>2011-11-24T12:55:10Z</time>
      </trkpt>
      <trkpt lat="43.71966" lon="6.96174">
        <ele>812.4</ele>
        <time>2011-11-24T12:55:12Z</time>
      </trkpt>
      <trkpt lat="43.71969" lon="6.96178">
        <ele>812.3</ele>
        <time>2011-11-24T12:55:13Z</time>
      </trkpt>
      <trkpt lat="43.71974" lon="6.96185">
        <ele>812.5</ele>
        <time>2011-11-24T12:55:15Z</time>
      </trkpt>
      <trkpt lat="43.71978" lon="6.9619">
        <ele>812.3</ele>
        <time>2011-11-24T12:55:17Z</time>
      </trkpt>
      <trkpt lat="43.71985" lon="6.96192">
        <ele>811.8</ele>
        <time>2011-11-24T12:55:19Z</time>
      </trkpt>
      <trkpt lat="43.7199" lon="6.96195">
        <ele>811.1</ele>
        <time>2011-11-24T12:55:21Z</time>
      </trkpt>
      <trkpt lat="43.71995" lon="6.96196">
        <ele>811.9</ele>
        <time>2011-11-24T12:55:23Z</time>
      </trkpt>
      <trkpt lat="43.72001" lon="6.96198">
        <ele>812</ele>
        <time>2011-11-24T12:55:25Z</time>
      </trkpt>
      <trkpt lat="43.72006" lon="6.96202">
        <ele>812.6</ele>
        <time>2011-11-24T12:55:27Z</time>
      </trkpt>
      <trkpt lat="43.72006" lon="6.9621">
        <ele>812.9</ele>
        <time>2011-11-24T12:55:29Z</time>
      </trkpt>
      <trkpt lat="43.72009" lon="6.96218">
        <ele>812.5</ele>
        <time>2011-11-24T12:55:31Z</time>
      </trkpt>
      <trkpt lat="43.7201" lon="6.96226">
        <ele>813</ele>
        <time>2011-11-24T12:55:33Z</time>
      </trkpt>
      <trkpt lat="43.72011" lon="6.96238">
        <ele>813.6</ele>
        <time>2011-11-24T12:55:35Z</time>
      </trkpt>
      <trkpt lat="43.72012" lon="6.96244">
        <ele>814.1</ele>
        <time>2011-11-24T12:55:36Z</time>
      </trkpt>
      <trkpt lat="43.72014" lon="6.96253">
        <ele>814.5</ele>
        <time>2011-11-24T12:55:37Z</time>
      </trkpt>
      <trkpt lat="43.72016" lon="6.96261">
        <ele>813.7</ele>
        <time>2011-11-24T12:55:38Z</time>
      </trkpt>
      <trkpt lat="43.72018" lon="6.96268">
        <ele>813</ele>
        <time>2011-11-24T12:55:39Z</time>
      </trkpt>
      <trkpt lat="43.72021" lon="6.96276">
        <ele>812</ele>
        <time>2011-11-24T12:55:40Z</time>
      </trkpt>
      <trkpt lat="43.72024" lon="6.96284">
        <ele>811.5</ele>
        <time>2011-11-24T12:55:41Z</time>
      </trkpt>
      <trkpt lat="43.72027" lon="6.96292">
        <ele>811.4</ele>
        <time>2011-11-24T12:55:42Z</time>
      </trkpt>
      <trkpt lat="43.7203" lon="6.963">
        <ele>811</ele>
        <time>2011-11-24T12:55:43Z</time>
      </trkpt>
      <trkpt lat="43.7203" lon="6.96309">
        <ele>811.2</ele>
        <time>2011-11-24T12:55:44Z</time>
      </trkpt>
      <trkpt lat="43.7203" lon="6.96318">
        <ele>811.1</ele>
        <time>2011-11-24T12:55:45Z</time>
      </trkpt>
      <trkpt lat="43.7203" lon="6.96328">
        <ele>811.4</ele>
        <time>2011-11-24T12:55:46Z</time>
      </trkpt>
      <trkpt lat="43.72032" lon="6.96338">
        <ele>808.6</ele>
        <time>2011-11-24T12:55:47Z</time>
      </trkpt>
      <trkpt lat="43.72033" lon="6.96348">
        <ele>806.5</ele>
        <time>2011-11-24T12:55:48Z</time>
      </trkpt>
      <trkpt lat="43.72036" lon="6.96359">
        <ele>805.9</ele>
        <time>2011-11-24T12:55:49Z</time>
      </trkpt>
      <trkpt lat="43.72039" lon="6.9637">
        <ele>805.5</ele>
        <time>2011-11-24T12:55:50Z</time>
      </trkpt>
      <trkpt lat="43.72042" lon="6.96379">
        <ele>805.1</ele>
        <time>2011-11-24T12:55:51Z</time>
      </trkpt>
      <trkpt lat="43.72046" lon="6.96389">
        <ele>804.2</ele>
        <time>2011-11-24T12:55:52Z</time>
      </trkpt>
      <trkpt lat="43.72052" lon="6.96399">
        <ele>803.9</ele>
        <time>2011-11-24T12:55:53Z</time>
      </trkpt>
      <trkpt lat="43.72051" lon="6.96408">
        <ele>806</ele>
        <time>2011-11-24T12:55:54Z</time>
      </trkpt>
      <trkpt lat="43.72054" lon="6.96418">
        <ele>805.9</ele>
        <time>2011-11-24T12:55:55Z</time>
      </trkpt>
      <trkpt lat="43.72056" lon="6.96428">
        <ele>806.2</ele>
        <time>2011-11-24T12:55:56Z</time>
      </trkpt>
      <trkpt lat="43.72056" lon="6.96438">
        <ele>806.6</ele>
        <time>2011-11-24T12:55:57Z</time>
      </trkpt>
      <trkpt lat="43.72057" lon="6.96447">
        <ele>806.5</ele>
        <time>2011-11-24T12:55:58Z</time>
      </trkpt>
      <trkpt lat="43.72058" lon="6.96456">
        <ele>806.4</ele>
        <time>2011-11-24T12:55:59Z</time>
      </trkpt>
      <trkpt lat="43.72059" lon="6.96465">
        <ele>806.4</ele>
        <time>2011-11-24T12:56:00Z</time>
      </trkpt>
      <trkpt lat="43.7206" lon="6.96474">
        <ele>806.5</ele>
        <time>2011-11-24T12:56:01Z</time>
      </trkpt>
      <trkpt lat="43.72061" lon="6.96484">
        <ele>807.4</ele>
        <time>2011-11-24T12:56:02Z</time>
      </trkpt>
      <trkpt lat="43.72062" lon="6.96491">
        <ele>806.9</ele>
        <time>2011-11-24T12:56:03Z</time>
      </trkpt>
      <trkpt lat="43.72061" lon="6.96499">
        <ele>807.7</ele>
        <time>2011-11-24T12:56:04Z</time>
      </trkpt>
      <trkpt lat="43.72063" lon="6.96507">
        <ele>808.4</ele>
        <time>2011-11-24T12:56:05Z</time>
      </trkpt>
      <trkpt lat="43.72064" lon="6.96514">
        <ele>808.6</ele>
        <time>2011-11-24T12:56:06Z</time>
      </trkpt>
      <trkpt lat="43.72066" lon="6.96525">
        <ele>809.5</ele>
        <time>2011-11-24T12:56:08Z</time>
      </trkpt>
      <trkpt lat="43.72068" lon="6.96534">
        <ele>810.4</ele>
        <time>2011-11-24T12:56:10Z</time>
      </trkpt>
      <trkpt lat="43.7207" lon="6.96541">
        <ele>810.6</ele>
        <time>2011-11-24T12:56:12Z</time>
      </trkpt>
      <trkpt lat="43.72074" lon="6.96546">
        <ele>810</ele>
        <time>2011-11-24T12:56:14Z</time>
      </trkpt>
      <trkpt lat="43.72079" lon="6.96551">
        <ele>810.1</ele>
        <time>2011-11-24T12:56:16Z</time>
      </trkpt>
      <trkpt lat="43.72084" lon="6.96553">
        <ele>810.4</ele>
        <time>2011-11-24T12:56:18Z</time>
      </trkpt>
      <trkpt lat="43.72089" lon="6.96554">
        <ele>811.3</ele>
        <time>2011-11-24T12:56:20Z</time>
      </trkpt>
      <trkpt lat="43.72094" lon="6.96552">
        <ele>811.5</ele>
        <time>2011-11-24T12:56:22Z</time>
      </trkpt>
      <trkpt lat="43.721" lon="6.96551">
        <ele>812.1</ele>
        <time>2011-11-24T12:56:24Z</time>
      </trkpt>
      <trkpt lat="43.72105" lon="6.9655">
        <ele>812.3</ele>
        <time>2011-11-24T12:56:26Z</time>
      </trkpt>
      <trkpt lat="43.72111" lon="6.96546">
        <ele>812.3</ele>
        <time>2011-11-24T12:56:28Z</time>
      </trkpt>
      <trkpt lat="43.72116" lon="6.96543">
        <ele>812.2</ele>
        <time>2011-11-24T12:56:29Z</time>
      </trkpt>
      <trkpt lat="43.72121" lon="6.9654">
        <ele>812.6</ele>
        <time>2011-11-24T12:56:30Z</time>
      </trkpt>
      <trkpt lat="43.72127" lon="6.96536">
        <ele>811.9</ele>
        <time>2011-11-24T12:56:32Z</time>
      </trkpt>
      <trkpt lat="43.72135" lon="6.9653">
        <ele>812.4</ele>
        <time>2011-11-24T12:56:34Z</time>
      </trkpt>
      <trkpt lat="43.72139" lon="6.96527">
        <ele>812.4</ele>
        <time>2011-11-24T12:56:35Z</time>
      </trkpt>
      <trkpt lat="43.72142" lon="6.96523">
        <ele>812.5</ele>
        <time>2011-11-24T12:56:36Z</time>
      </trkpt>
      <trkpt lat="43.72146" lon="6.9652">
        <ele>812</ele>
        <time>2011-11-24T12:56:37Z</time>
      </trkpt>
      <trkpt lat="43.72155" lon="6.96514">
        <ele>811.3</ele>
        <time>2011-11-24T12:56:39Z</time>
      </trkpt>
      <trkpt lat="43.7216" lon="6.96509">
        <ele>810.7</ele>
        <time>2011-11-24T12:56:40Z</time>
      </trkpt>
      <trkpt lat="43.72165" lon="6.96504">
        <ele>811.3</ele>
        <time>2011-11-24T12:56:41Z</time>
      </trkpt>
      <trkpt lat="43.7217" lon="6.965">
        <ele>811.4</ele>
        <time>2011-11-24T12:56:42Z</time>
      </trkpt>
      <trkpt lat="43.72176" lon="6.96495">
        <ele>811.1</ele>
        <time>2011-11-24T12:56:43Z</time>
      </trkpt>
      <trkpt lat="43.72181" lon="6.9649">
        <ele>811.1</ele>
        <time>2011-11-24T12:56:44Z</time>
      </trkpt>
      <trkpt lat="43.72187" lon="6.9649">
        <ele>810.4</ele>
        <time>2011-11-24T12:56:45Z</time>
      </trkpt>
      <trkpt lat="43.72192" lon="6.96488">
        <ele>810.4</ele>
        <time>2011-11-24T12:56:46Z</time>
      </trkpt>
      <trkpt lat="43.72199" lon="6.96488">
        <ele>810.8</ele>
        <time>2011-11-24T12:56:47Z</time>
      </trkpt>
      <trkpt lat="43.72204" lon="6.96492">
        <ele>810.3</ele>
        <time>2011-11-24T12:56:48Z</time>
      </trkpt>
      <trkpt lat="43.72209" lon="6.96496">
        <ele>810.6</ele>
        <time>2011-11-24T12:56:49Z</time>
      </trkpt>
      <trkpt lat="43.72213" lon="6.965">
        <ele>811</ele>
        <time>2011-11-24T12:56:50Z</time>
      </trkpt>
      <trkpt lat="43.72215" lon="6.96506">
        <ele>810.8</ele>
        <time>2011-11-24T12:56:51Z</time>
      </trkpt>
      <trkpt lat="43.72216" lon="6.96512">
        <ele>811.4</ele>
        <time>2011-11-24T12:56:52Z</time>
      </trkpt>
      <trkpt lat="43.72218" lon="6.96518">
        <ele>811.9</ele>
        <time>2011-11-24T12:56:53Z</time>
      </trkpt>
      <trkpt lat="43.7222" lon="6.96529">
        <ele>812.5</ele>
        <time>2011-11-24T12:56:55Z</time>
      </trkpt>
      <trkpt lat="43.72223" lon="6.9654">
        <ele>812.3</ele>
        <time>2011-11-24T12:56:57Z</time>
      </trkpt>
      <trkpt lat="43.72225" lon="6.9655">
        <ele>812.2</ele>
        <time>2011-11-24T12:56:59Z</time>
      </trkpt>
      <trkpt lat="43.72228" lon="6.96559">
        <ele>811.9</ele>
        <time>2011-11-24T12:57:01Z</time>
      </trkpt>
      <trkpt lat="43.72231" lon="6.96568">
        <ele>811.9</ele>
        <time>2011-11-24T12:57:03Z</time>
      </trkpt>
      <trkpt lat="43.72233" lon="6.96577">
        <ele>811.6</ele>
        <time>2011-11-24T12:57:05Z</time>
      </trkpt>
      <trkpt lat="43.72233" lon="6.96584">
        <ele>810</ele>
        <time>2011-11-24T12:57:07Z</time>
      </trkpt>
      <trkpt lat="43.72235" lon="6.96592">
        <ele>810</ele>
        <time>2011-11-24T12:57:09Z</time>
      </trkpt>
      <trkpt lat="43.72239" lon="6.96598">
        <ele>809.7</ele>
        <time>2011-11-24T12:57:10Z</time>
      </trkpt>
      <trkpt lat="43.7224" lon="6.96607">
        <ele>809.6</ele>
        <time>2011-11-24T12:57:13Z</time>
      </trkpt>
      <trkpt lat="43.72243" lon="6.96613">
        <ele>812.3</ele>
        <time>2011-11-24T12:57:16Z</time>
      </trkpt>
      <trkpt lat="43.72248" lon="6.96612">
        <ele>813.3</ele>
        <time>2011-11-24T12:57:18Z</time>
      </trkpt>
      <trkpt lat="43.72254" lon="6.96612">
        <ele>814.9</ele>
        <time>2011-11-24T12:57:21Z</time>
      </trkpt>
      <trkpt lat="43.72261" lon="6.9661">
        <ele>815.5</ele>
        <time>2011-11-24T12:57:24Z</time>
      </trkpt>
      <trkpt lat="43.72267" lon="6.96609">
        <ele>814.8</ele>
        <time>2011-11-24T12:57:27Z</time>
      </trkpt>
      <trkpt lat="43.72272" lon="6.96611">
        <ele>816.5</ele>
        <time>2011-11-24T12:57:30Z</time>
      </trkpt>
      <trkpt lat="43.72278" lon="6.96609">
        <ele>814.2</ele>
        <time>2011-11-24T12:57:32Z</time>
      </trkpt>
      <trkpt lat="43.72282" lon="6.96608">
        <ele>813.7</ele>
        <time>2011-11-24T12:57:34Z</time>
      </trkpt>
      <trkpt lat="43.72288" lon="6.96609">
        <ele>812.4</ele>
        <time>2011-11-24T12:57:39Z</time>
      </trkpt>
      <trkpt lat="43.72293" lon="6.96608">
        <ele>811.6</ele>
        <time>2011-11-24T12:57:42Z</time>
      </trkpt>
      <trkpt lat="43.72299" lon="6.96609">
        <ele>812.1</ele>
        <time>2011-11-24T12:57:45Z</time>
      </trkpt>
      <trkpt lat="43.72303" lon="6.96609">
        <ele>812.7</ele>
        <time>2011-11-24T12:57:47Z</time>
      </trkpt>
      <trkpt lat="43.72309" lon="6.96612">
        <ele>814.5</ele>
        <time>2011-11-24T12:57:50Z</time>
      </trkpt>
      <trkpt lat="43.72313" lon="6.96611">
        <ele>815.7</ele>
        <time>2011-11-24T12:57:53Z</time>
      </trkpt>
      <trkpt lat="43.72319" lon="6.96611">
        <ele>815.5</ele>
        <time>2011-11-24T12:57:56Z</time>
      </trkpt>
      <trkpt lat="43.72326" lon="6.9661">
        <ele>816.1</ele>
        <time>2011-11-24T12:57:59Z</time>
      </trkpt>
      <trkpt lat="43.72331" lon="6.96611">
        <ele>819</ele>
        <time>2011-11-24T12:58:02Z</time>
      </trkpt>
      <trkpt lat="43.72338" lon="6.96612">
        <ele>819.4</ele>
        <time>2011-11-24T12:58:05Z</time>
      </trkpt>
      <trkpt lat="43.72342" lon="6.96613">
        <ele>819.3</ele>
        <time>2011-11-24T12:58:07Z</time>
      </trkpt>
      <trkpt lat="43.72348" lon="6.96616">
        <ele>822.3</ele>
        <time>2011-11-24T12:58:11Z</time>
      </trkpt>
      <trkpt lat="43.72352" lon="6.96618">
        <ele>823.6</ele>
        <time>2011-11-24T12:58:14Z</time>
      </trkpt>
      <trkpt lat="43.72356" lon="6.96623">
        <ele>822.4</ele>
        <time>2011-11-24T12:58:16Z</time>
      </trkpt>
      <trkpt lat="43.7236" lon="6.96626">
        <ele>823.4</ele>
        <time>2011-11-24T12:58:19Z</time>
      </trkpt>
      <trkpt lat="43.72364" lon="6.96629">
        <ele>826.8</ele>
        <time>2011-11-24T12:58:34Z</time>
      </trkpt>
      <trkpt lat="43.72368" lon="6.96631">
        <ele>827.5</ele>
        <time>2011-11-24T12:58:42Z</time>
      </trkpt>
      <trkpt lat="43.72374" lon="6.96631">
        <ele>827.8</ele>
        <time>2011-11-24T12:58:47Z</time>
      </trkpt>
      <trkpt lat="43.72378" lon="6.96632">
        <ele>829</ele>
        <time>2011-11-24T12:58:53Z</time>
      </trkpt>
      <trkpt lat="43.72382" lon="6.96628">
        <ele>829.2</ele>
        <time>2011-11-24T12:58:59Z</time>
      </trkpt>
      <trkpt lat="43.72382" lon="6.96621">
        <ele>834.1</ele>
        <time>2011-11-24T12:59:08Z</time>
      </trkpt>
      <trkpt lat="43.72384" lon="6.96615">
        <ele>833.6</ele>
        <time>2011-11-24T12:59:14Z</time>
      </trkpt>
      <trkpt lat="43.72387" lon="6.96609">
        <ele>835</ele>
        <time>2011-11-24T12:59:19Z</time>
      </trkpt>
      <trkpt lat="43.72392" lon="6.96609">
        <ele>835.2</ele>
        <time>2011-11-24T12:59:24Z</time>
      </trkpt>
      <trkpt lat="43.72398" lon="6.96608">
        <ele>836.3</ele>
        <time>2011-11-24T12:59:30Z</time>
      </trkpt>
      <trkpt lat="43.72402" lon="6.96606">
        <ele>838</ele>
        <time>2011-11-24T12:59:36Z</time>
      </trkpt>
      <trkpt lat="43.72407" lon="6.96607">
        <ele>838.8</ele>
        <time>2011-11-24T12:59:42Z</time>
      </trkpt>
      <trkpt lat="43.72412" lon="6.96608">
        <ele>839.7</ele>
        <time>2011-11-24T12:59:46Z</time>
      </trkpt>
      <trkpt lat="43.72416" lon="6.96609">
        <ele>840.3</ele>
        <time>2011-11-24T12:59:51Z</time>
      </trkpt>
      <trkpt lat="43.72421" lon="6.96613">
        <ele>840.4</ele>
        <time>2011-11-24T12:59:57Z</time>
      </trkpt>
      <trkpt lat="43.72424" lon="6.96618">
        <ele>842.2</ele>
        <time>2011-11-24T13:00:15Z</time>
      </trkpt>
      <trkpt lat="43.72426" lon="6.96624">
        <ele>842.3</ele>
        <time>2011-11-24T13:00:19Z</time>
      </trkpt>
      <trkpt lat="43.72428" lon="6.96631">
        <ele>843.1</ele>
        <time>2011-11-24T13:00:22Z</time>
      </trkpt>
      <trkpt lat="43.72429" lon="6.96637">
        <ele>844.3</ele>
        <time>2011-11-24T13:00:25Z</time>
      </trkpt>
      <trkpt lat="43.72431" lon="6.96645">
        <ele>845.2</ele>
        <time>2011-11-24T13:00:28Z</time>
      </trkpt>
      <trkpt lat="43.72433" lon="6.96651">
        <ele>846.1</ele>
        <time>2011-11-24T13:00:30Z</time>
      </trkpt>
      <trkpt lat="43.72433" lon="6.96658">
        <ele>846.9</ele>
        <time>2011-11-24T13:00:33Z</time>
      </trkpt>
      <trkpt lat="43.72435" lon="6.96666">
        <ele>847.6</ele>
        <time>2011-11-24T13:00:36Z</time>
      </trkpt>
      <trkpt lat="43.72437" lon="6.96673">
        <ele>848.7</ele>
        <time>2011-11-24T13:00:39Z</time>
      </trkpt>
      <trkpt lat="43.7244" lon="6.9668">
        <ele>848.5</ele>
        <time>2011-11-24T13:00:43Z</time>
      </trkpt>
      <trkpt lat="43.72443" lon="6.96686">
        <ele>849.8</ele>
        <time>2011-11-24T13:00:46Z</time>
      </trkpt>
      <trkpt lat="43.72446" lon="6.96689">
        <ele>849.1</ele>
        <time>2011-11-24T13:00:49Z</time>
      </trkpt>
      <trkpt lat="43.7245" lon="6.96693">
        <ele>849.6</ele>
        <time>2011-11-24T13:00:53Z</time>
      </trkpt>
      <trkpt lat="43.72455" lon="6.96695">
        <ele>849.6</ele>
        <time>2011-11-24T13:00:56Z</time>
      </trkpt>
      <trkpt lat="43.72459" lon="6.96699">
        <ele>849.7</ele>
        <time>2011-11-24T13:00:59Z</time>
      </trkpt>
      <trkpt lat="43.72464" lon="6.96703">
        <ele>850.1</ele>
        <time>2011-11-24T13:01:02Z</time>
      </trkpt>
      <trkpt lat="43.72467" lon="6.96708">
        <ele>850.7</ele>
        <time>2011-11-24T13:01:05Z</time>
      </trkpt>
      <trkpt lat="43.72471" lon="6.96713">
        <ele>850.6</ele>
        <time>2011-11-24T13:01:09Z</time>
      </trkpt>
      <trkpt lat="43.72476" lon="6.96716">
        <ele>853.1</ele>
        <time>2011-11-24T13:01:22Z</time>
      </trkpt>
      <trkpt lat="43.7248" lon="6.96717">
        <ele>853.8</ele>
        <time>2011-11-24T13:01:28Z</time>
      </trkpt>
      <trkpt lat="43.72483" lon="6.96722">
        <ele>853.6</ele>
        <time>2011-11-24T13:01:34Z</time>
      </trkpt>
      <trkpt lat="43.72485" lon="6.96729">
        <ele>854.8</ele>
        <time>2011-11-24T13:01:41Z</time>
      </trkpt>
      <trkpt lat="43.72486" lon="6.96736">
        <ele>856.4</ele>
        <time>2011-11-24T13:01:46Z</time>
      </trkpt>
      <trkpt lat="43.72487" lon="6.96743">
        <ele>856.1</ele>
        <time>2011-11-24T13:01:52Z</time>
      </trkpt>
      <trkpt lat="43.7249" lon="6.96749">
        <ele>856.3</ele>
        <time>2011-11-24T13:02:01Z</time>
      </trkpt>
      <trkpt lat="43.72492" lon="6.96756">
        <ele>857.3</ele>
        <time>2011-11-24T13:02:04Z</time>
      </trkpt>
      <trkpt lat="43.72494" lon="6.96762">
        <ele>858.1</ele>
        <time>2011-11-24T13:02:07Z</time>
      </trkpt>
      <trkpt lat="43.72497" lon="6.96768">
        <ele>857.9</ele>
        <time>2011-11-24T13:02:11Z</time>
      </trkpt>
      <trkpt lat="43.72501" lon="6.96771">
        <ele>857.5</ele>
        <time>2011-11-24T13:02:14Z</time>
      </trkpt>
      <trkpt lat="43.72506" lon="6.96767">
        <ele>859.2</ele>
        <time>2011-11-24T13:02:18Z</time>
      </trkpt>
      <trkpt lat="43.72505" lon="6.96759">
        <ele>859.5</ele>
        <time>2011-11-24T13:02:21Z</time>
      </trkpt>
      <trkpt lat="43.72505" lon="6.96753">
        <ele>859.8</ele>
        <time>2011-11-24T13:02:24Z</time>
      </trkpt>
      <trkpt lat="43.72506" lon="6.96747">
        <ele>860.6</ele>
        <time>2011-11-24T13:02:27Z</time>
      </trkpt>
      <trkpt lat="43.72511" lon="6.96751">
        <ele>861.3</ele>
        <time>2011-11-24T13:02:30Z</time>
      </trkpt>
      <trkpt lat="43.72515" lon="6.96754">
        <ele>861.5</ele>
        <time>2011-11-24T13:02:33Z</time>
      </trkpt>
      <trkpt lat="43.72519" lon="6.96758">
        <ele>861.7</ele>
        <time>2011-11-24T13:02:36Z</time>
      </trkpt>
      <trkpt lat="43.72522" lon="6.96764">
        <ele>862.6</ele>
        <time>2011-11-24T13:02:40Z</time>
      </trkpt>
      <trkpt lat="43.72526" lon="6.96769">
        <ele>863.2</ele>
        <time>2011-11-24T13:02:43Z</time>
      </trkpt>
      <trkpt lat="43.7253" lon="6.96772">
        <ele>865</ele>
        <time>2011-11-24T13:02:46Z</time>
      </trkpt>
      <trkpt lat="43.72535" lon="6.96775">
        <ele>866</ele>
        <time>2011-11-24T13:02:49Z</time>
      </trkpt>
      <trkpt lat="43.7254" lon="6.96779">
        <ele>866.5</ele>
        <time>2011-11-24T13:02:52Z</time>
      </trkpt>
      <trkpt lat="43.72544" lon="6.96782">
        <ele>866.7</ele>
        <time>2011-11-24T13:02:55Z</time>
      </trkpt>
      <trkpt lat="43.72548" lon="6.96785">
        <ele>866.9</ele>
        <time>2011-11-24T13:02:58Z</time>
      </trkpt>
      <trkpt lat="43.72554" lon="6.96789">
        <ele>869.6</ele>
        <time>2011-11-24T13:03:01Z</time>
      </trkpt>
      <trkpt lat="43.72558" lon="6.96791">
        <ele>870.3</ele>
        <time>2011-11-24T13:03:04Z</time>
      </trkpt>
      <trkpt lat="43.72563" lon="6.96795">
        <ele>871.2</ele>
        <time>2011-11-24T13:03:07Z</time>
      </trkpt>
      <trkpt lat="43.72568" lon="6.96798">
        <ele>872.7</ele>
        <time>2011-11-24T13:03:11Z</time>
      </trkpt>
      <trkpt lat="43.72573" lon="6.96803">
        <ele>873.1</ele>
        <time>2011-11-24T13:03:15Z</time>
      </trkpt>
      <trkpt lat="43.72577" lon="6.96808">
        <ele>873.3</ele>
        <time>2011-11-24T13:03:19Z</time>
      </trkpt>
      <trkpt lat="43.7258" lon="6.96812">
        <ele>873.4</ele>
        <time>2011-11-24T13:03:22Z</time>
      </trkpt>
      <trkpt lat="43.72584" lon="6.96816">
        <ele>874.9</ele>
        <time>2011-11-24T13:03:25Z</time>
      </trkpt>
      <trkpt lat="43.72587" lon="6.96822">
        <ele>873.7</ele>
        <time>2011-11-24T13:03:28Z</time>
      </trkpt>
      <trkpt lat="43.72592" lon="6.96827">
        <ele>873.2</ele>
        <time>2011-11-24T13:03:31Z</time>
      </trkpt>
      <trkpt lat="43.72595" lon="6.96832">
        <ele>873.1</ele>
        <time>2011-11-24T13:03:34Z</time>
      </trkpt>
      <trkpt lat="43.72599" lon="6.96836">
        <ele>873.3</ele>
        <time>2011-11-24T13:03:37Z</time>
      </trkpt>
      <trkpt lat="43.72604" lon="6.96839">
        <ele>872.7</ele>
        <time>2011-11-24T13:03:40Z</time>
      </trkpt>
      <trkpt lat="43.72609" lon="6.96842">
        <ele>876.2</ele>
        <time>2011-11-24T13:03:44Z</time>
      </trkpt>
      <trkpt lat="43.72613" lon="6.96845">
        <ele>876.3</ele>
        <time>2011-11-24T13:03:46Z</time>
      </trkpt>
      <trkpt lat="43.72618" lon="6.9685">
        <ele>878.6</ele>
        <time>2011-11-24T13:03:49Z</time>
      </trkpt>
      <trkpt lat="43.72623" lon="6.96855">
        <ele>880.1</ele>
        <time>2011-11-24T13:03:52Z</time>
      </trkpt>
      <trkpt lat="43.72627" lon="6.96859">
        <ele>881.1</ele>
        <time>2011-11-24T13:03:55Z</time>
      </trkpt>
      <trkpt lat="43.72632" lon="6.96863">
        <ele>882.5</ele>
        <time>2011-11-24T13:03:58Z</time>
      </trkpt>
      <trkpt lat="43.72638" lon="6.96864">
        <ele>883.7</ele>
        <time>2011-11-24T13:04:01Z</time>
      </trkpt>
      <trkpt lat="43.72642" lon="6.96862">
        <ele>885.2</ele>
        <time>2011-11-24T13:04:04Z</time>
      </trkpt>
      <trkpt lat="43.72645" lon="6.96857">
        <ele>886.7</ele>
        <time>2011-11-24T13:04:07Z</time>
      </trkpt>
      <trkpt lat="43.72649" lon="6.96852">
        <ele>887.9</ele>
        <time>2011-11-24T13:04:10Z</time>
      </trkpt>
      <trkpt lat="43.72654" lon="6.96848">
        <ele>889.2</ele>
        <time>2011-11-24T13:04:14Z</time>
      </trkpt>
      <trkpt lat="43.7266" lon="6.96847">
        <ele>890.1</ele>
        <time>2011-11-24T13:04:18Z</time>
      </trkpt>
      <trkpt lat="43.72664" lon="6.96844">
        <ele>890.8</ele>
        <time>2011-11-24T13:04:21Z</time>
      </trkpt>
      <trkpt lat="43.72669" lon="6.96839">
        <ele>891.8</ele>
        <time>2011-11-24T13:04:25Z</time>
      </trkpt>
      <trkpt lat="43.72673" lon="6.96836">
        <ele>892.6</ele>
        <time>2011-11-24T13:04:28Z</time>
      </trkpt>
      <trkpt lat="43.72678" lon="6.96835">
        <ele>893.6</ele>
        <time>2011-11-24T13:04:31Z</time>
      </trkpt>
      <trkpt lat="43.72682" lon="6.96836">
        <ele>894</ele>
        <time>2011-11-24T13:04:34Z</time>
      </trkpt>
      <trkpt lat="43.72687" lon="6.96833">
        <ele>895.2</ele>
        <time>2011-11-24T13:04:37Z</time>
      </trkpt>
      <trkpt lat="43.72691" lon="6.96828">
        <ele>895.5</ele>
        <time>2011-11-24T13:04:40Z</time>
      </trkpt>
      <trkpt lat="43.72694" lon="6.96822">
        <ele>896.1</ele>
        <time>2011-11-24T13:04:43Z</time>
      </trkpt>
      <trkpt lat="43.72697" lon="6.96816">
        <ele>896.5</ele>
        <time>2011-11-24T13:04:46Z</time>
      </trkpt>
      <trkpt lat="43.727" lon="6.96808">
        <ele>896.8</ele>
        <time>2011-11-24T13:04:49Z</time>
      </trkpt>
      <trkpt lat="43.72704" lon="6.968">
        <ele>897</ele>
        <time>2011-11-24T13:04:52Z</time>
      </trkpt>
      <trkpt lat="43.72706" lon="6.96795">
        <ele>896.7</ele>
        <time>2011-11-24T13:04:54Z</time>
      </trkpt>
      <trkpt lat="43.72708" lon="6.96789">
        <ele>897.2</ele>
        <time>2011-11-24T13:04:56Z</time>
      </trkpt>
      <trkpt lat="43.72711" lon="6.96782">
        <ele>897.8</ele>
        <time>2011-11-24T13:04:58Z</time>
      </trkpt>
      <trkpt lat="43.72713" lon="6.96777">
        <ele>897.2</ele>
        <time>2011-11-24T13:05:00Z</time>
      </trkpt>
      <trkpt lat="43.72715" lon="6.96771">
        <ele>897.1</ele>
        <time>2011-11-24T13:05:02Z</time>
      </trkpt>
      <trkpt lat="43.72717" lon="6.96765">
        <ele>897.1</ele>
        <time>2011-11-24T13:05:04Z</time>
      </trkpt>
      <trkpt lat="43.72718" lon="6.96759">
        <ele>897.2</ele>
        <time>2011-11-24T13:05:06Z</time>
      </trkpt>
      <trkpt lat="43.72719" lon="6.96753">
        <ele>897.3</ele>
        <time>2011-11-24T13:05:08Z</time>
      </trkpt>
      <trkpt lat="43.72721" lon="6.96746">
        <ele>897.4</ele>
        <time>2011-11-24T13:05:10Z</time>
      </trkpt>
      <trkpt lat="43.72722" lon="6.96739">
        <ele>897.1</ele>
        <time>2011-11-24T13:05:12Z</time>
      </trkpt>
      <trkpt lat="43.72723" lon="6.96733">
        <ele>897.4</ele>
        <time>2011-11-24T13:05:14Z</time>
      </trkpt>
      <trkpt lat="43.72724" lon="6.96724">
        <ele>897.7</ele>
        <time>2011-11-24T13:05:17Z</time>
      </trkpt>
      <trkpt lat="43.72725" lon="6.96718">
        <ele>897.9</ele>
        <time>2011-11-24T13:05:19Z</time>
      </trkpt>
      <trkpt lat="43.72727" lon="6.96708">
        <ele>898.2</ele>
        <time>2011-11-24T13:05:22Z</time>
      </trkpt>
      <trkpt lat="43.72728" lon="6.96701">
        <ele>898.3</ele>
        <time>2011-11-24T13:05:24Z</time>
      </trkpt>
      <trkpt lat="43.72729" lon="6.96695">
        <ele>898.6</ele>
        <time>2011-11-24T13:05:26Z</time>
      </trkpt>
      <trkpt lat="43.7273" lon="6.96689">
        <ele>899</ele>
        <time>2011-11-24T13:05:28Z</time>
      </trkpt>
      <trkpt lat="43.72731" lon="6.96682">
        <ele>899.8</ele>
        <time>2011-11-24T13:05:30Z</time>
      </trkpt>
      <trkpt lat="43.72732" lon="6.96676">
        <ele>900.2</ele>
        <time>2011-11-24T13:05:32Z</time>
      </trkpt>
      <trkpt lat="43.72733" lon="6.96669">
        <ele>900.4</ele>
        <time>2011-11-24T13:05:34Z</time>
      </trkpt>
      <trkpt lat="43.72734" lon="6.96663">
        <ele>901</ele>
        <time>2011-11-24T13:05:36Z</time>
      </trkpt>
      <trkpt lat="43.72735" lon="6.96656">
        <ele>901</ele>
        <time>2011-11-24T13:05:38Z</time>
      </trkpt>
      <trkpt lat="43.72735" lon="6.9665">
        <ele>901.5</ele>
        <time>2011-11-24T13:05:40Z</time>
      </trkpt>
      <trkpt lat="43.72736" lon="6.96643">
        <ele>901.9</ele>
        <time>2011-11-24T13:05:42Z</time>
      </trkpt>
      <trkpt lat="43.72737" lon="6.96634">
        <ele>902</ele>
        <time>2011-11-24T13:05:45Z</time>
      </trkpt>
      <trkpt lat="43.72738" lon="6.96628">
        <ele>902.3</ele>
        <time>2011-11-24T13:05:47Z</time>
      </trkpt>
      <trkpt lat="43.72739" lon="6.96621">
        <ele>902.5</ele>
        <time>2011-11-24T13:05:49Z</time>
      </trkpt>
      <trkpt lat="43.7274" lon="6.96615">
        <ele>903</ele>
        <time>2011-11-24T13:05:51Z</time>
      </trkpt>
      <trkpt lat="43.72741" lon="6.96608">
        <ele>903.4</ele>
        <time>2011-11-24T13:05:53Z</time>
      </trkpt>
      <trkpt lat="43.72741" lon="6.96602">
        <ele>903.4</ele>
        <time>2011-11-24T13:05:55Z</time>
      </trkpt>
      <trkpt lat="43.72742" lon="6.96595">
        <ele>903.5</ele>
        <time>2011-11-24T13:05:57Z</time>
      </trkpt>
      <trkpt lat="43.72743" lon="6.96589">
        <ele>903.5</ele>
        <time>2011-11-24T13:05:59Z</time>
      </trkpt>
      <trkpt lat="43.72744" lon="6.96582">
        <ele>903.1</ele>
        <time>2011-11-24T13:06:01Z</time>
      </trkpt>
      <trkpt lat="43.72744" lon="6.96576">
        <ele>903.3</ele>
        <time>2011-11-24T13:06:03Z</time>
      </trkpt>
      <trkpt lat="43.72745" lon="6.96566">
        <ele>903.4</ele>
        <time>2011-11-24T13:06:06Z</time>
      </trkpt>
      <trkpt lat="43.72746" lon="6.96557">
        <ele>903.6</ele>
        <time>2011-11-24T13:06:09Z</time>
      </trkpt>
      <trkpt lat="43.72745" lon="6.9655">
        <ele>903.6</ele>
        <time>2011-11-24T13:06:11Z</time>
      </trkpt>
      <trkpt lat="43.72746" lon="6.96543">
        <ele>903.7</ele>
        <time>2011-11-24T13:06:13Z</time>
      </trkpt>
      <trkpt lat="43.72745" lon="6.96536">
        <ele>903.9</ele>
        <time>2011-11-24T13:06:15Z</time>
      </trkpt>
      <trkpt lat="43.72745" lon="6.96529">
        <ele>903.9</ele>
        <time>2011-11-24T13:06:17Z</time>
      </trkpt>
      <trkpt lat="43.72745" lon="6.96522">
        <ele>904.2</ele>
        <time>2011-11-24T13:06:19Z</time>
      </trkpt>
      <trkpt lat="43.72745" lon="6.96515">
        <ele>904.9</ele>
        <time>2011-11-24T13:06:21Z</time>
      </trkpt>
      <trkpt lat="43.72745" lon="6.96508">
        <ele>905.1</ele>
        <time>2011-11-24T13:06:23Z</time>
      </trkpt>
      <trkpt lat="43.72745" lon="6.96502">
        <ele>905.7</ele>
        <time>2011-11-24T13:06:25Z</time>
      </trkpt>
      <trkpt lat="43.72745" lon="6.96495">
        <ele>906</ele>
        <time>2011-11-24T13:06:27Z</time>
      </trkpt>
      <trkpt lat="43.72745" lon="6.96488">
        <ele>906.4</ele>
        <time>2011-11-24T13:06:29Z</time>
      </trkpt>
      <trkpt lat="43.72744" lon="6.96481">
        <ele>906.6</ele>
        <time>2011-11-24T13:06:31Z</time>
      </trkpt>
      <trkpt lat="43.72744" lon="6.96474">
        <ele>907.6</ele>
        <time>2011-11-24T13:06:33Z</time>
      </trkpt>
      <trkpt lat="43.72744" lon="6.96467">
        <ele>908</ele>
        <time>2011-11-24T13:06:35Z</time>
      </trkpt>
      <trkpt lat="43.72744" lon="6.9646">
        <ele>908.3</ele>
        <time>2011-11-24T13:06:37Z</time>
      </trkpt>
      <trkpt lat="43.72744" lon="6.96453">
        <ele>908.5</ele>
        <time>2011-11-24T13:06:39Z</time>
      </trkpt>
      <trkpt lat="43.72743" lon="6.96446">
        <ele>908.7</ele>
        <time>2011-11-24T13:06:41Z</time>
      </trkpt>
      <trkpt lat="43.72743" lon="6.96439">
        <ele>908.9</ele>
        <time>2011-11-24T13:06:43Z</time>
      </trkpt>
      <trkpt lat="43.72743" lon="6.96432">
        <ele>909.4</ele>
        <time>2011-11-24T13:06:45Z</time>
      </trkpt>
      <trkpt lat="43.72743" lon="6.96425">
        <ele>909.7</ele>
        <time>2011-11-24T13:06:47Z</time>
      </trkpt>
      <trkpt lat="43.72742" lon="6.96418">
        <ele>910.4</ele>
        <time>2011-11-24T13:06:49Z</time>
      </trkpt>
      <trkpt lat="43.72742" lon="6.96411">
        <ele>911</ele>
        <time>2011-11-24T13:06:51Z</time>
      </trkpt>
      <trkpt lat="43.72743" lon="6.96405">
        <ele>911.3</ele>
        <time>2011-11-24T13:06:53Z</time>
      </trkpt>
      <trkpt lat="43.72742" lon="6.96398">
        <ele>911.8</ele>
        <time>2011-11-24T13:06:55Z</time>
      </trkpt>
      <trkpt lat="43.72742" lon="6.96391">
        <ele>911.5</ele>
        <time>2011-11-24T13:06:57Z</time>
      </trkpt>
      <trkpt lat="43.72742" lon="6.96384">
        <ele>912.2</ele>
        <time>2011-11-24T13:06:59Z</time>
      </trkpt>
      <trkpt lat="43.72742" lon="6.96377">
        <ele>912.5</ele>
        <time>2011-11-24T13:07:01Z</time>
      </trkpt>
      <trkpt lat="43.72742" lon="6.96371">
        <ele>912.8</ele>
        <time>2011-11-24T13:07:03Z</time>
      </trkpt>
      <trkpt lat="43.72742" lon="6.96364">
        <ele>913.5</ele>
        <time>2011-11-24T13:07:05Z</time>
      </trkpt>
      <trkpt lat="43.72742" lon="6.96357">
        <ele>914</ele>
        <time>2011-11-24T13:07:07Z</time>
      </trkpt>
      <trkpt lat="43.72741" lon="6.9635">
        <ele>914.1</ele>
        <time>2011-11-24T13:07:09Z</time>
      </trkpt>
      <trkpt lat="43.72741" lon="6.96343">
        <ele>914.6</ele>
        <time>2011-11-24T13:07:11Z</time>
      </trkpt>
      <trkpt lat="43.72742" lon="6.96336">
        <ele>915.4</ele>
        <time>2011-11-24T13:07:13Z</time>
      </trkpt>
      <trkpt lat="43.72741" lon="6.96329">
        <ele>915.9</ele>
        <time>2011-11-24T13:07:15Z</time>
      </trkpt>
      <trkpt lat="43.72741" lon="6.96322">
        <ele>916.5</ele>
        <time>2011-11-24T13:07:17Z</time>
      </trkpt>
      <trkpt lat="43.7274" lon="6.96315">
        <ele>917.2</ele>
        <time>2011-11-24T13:07:19Z</time>
      </trkpt>
      <trkpt lat="43.7274" lon="6.96308">
        <ele>917.6</ele>
        <time>2011-11-24T13:07:21Z</time>
      </trkpt>
      <trkpt lat="43.7274" lon="6.96301">
        <ele>917.9</ele>
        <time>2011-11-24T13:07:23Z</time>
      </trkpt>
      <trkpt lat="43.72739" lon="6.96294">
        <ele>918.3</ele>
        <time>2011-11-24T13:07:25Z</time>
      </trkpt>
      <trkpt lat="43.72739" lon="6.96286">
        <ele>918.7</ele>
        <time>2011-11-24T13:07:27Z</time>
      </trkpt>
      <trkpt lat="43.72738" lon="6.96279">
        <ele>919.4</ele>
        <time>2011-11-24T13:07:29Z</time>
      </trkpt>
      <trkpt lat="43.72738" lon="6.96272">
        <ele>920.1</ele>
        <time>2011-11-24T13:07:31Z</time>
      </trkpt>
      <trkpt lat="43.72739" lon="6.96265">
        <ele>920.1</ele>
        <time>2011-11-24T13:07:33Z</time>
      </trkpt>
      <trkpt lat="43.72739" lon="6.96258">
        <ele>920.6</ele>
        <time>2011-11-24T13:07:35Z</time>
      </trkpt>
      <trkpt lat="43.7274" lon="6.96251">
        <ele>921.1</ele>
        <time>2011-11-24T13:07:37Z</time>
      </trkpt>
      <trkpt lat="43.72741" lon="6.96245">
        <ele>921.6</ele>
        <time>2011-11-24T13:07:39Z</time>
      </trkpt>
      <trkpt lat="43.72744" lon="6.96236">
        <ele>921.5</ele>
        <time>2011-11-24T13:07:42Z</time>
      </trkpt>
      <trkpt lat="43.72745" lon="6.9623">
        <ele>922.2</ele>
        <time>2011-11-24T13:07:44Z</time>
      </trkpt>
      <trkpt lat="43.72748" lon="6.96224">
        <ele>922.4</ele>
        <time>2011-11-24T13:07:46Z</time>
      </trkpt>
      <trkpt lat="43.7275" lon="6.96217">
        <ele>922.9</ele>
        <time>2011-11-24T13:07:48Z</time>
      </trkpt>
      <trkpt lat="43.72752" lon="6.9621">
        <ele>923.3</ele>
        <time>2011-11-24T13:07:50Z</time>
      </trkpt>
      <trkpt lat="43.72754" lon="6.96204">
        <ele>923.6</ele>
        <time>2011-11-24T13:07:52Z</time>
      </trkpt>
      <trkpt lat="43.72756" lon="6.96197">
        <ele>923.9</ele>
        <time>2011-11-24T13:07:54Z</time>
      </trkpt>
      <trkpt lat="43.72759" lon="6.9619">
        <ele>924.3</ele>
        <time>2011-11-24T13:07:56Z</time>
      </trkpt>
      <trkpt lat="43.72762" lon="6.96184">
        <ele>924.6</ele>
        <time>2011-11-24T13:07:58Z</time>
      </trkpt>
      <trkpt lat="43.72765" lon="6.96178">
        <ele>924.6</ele>
        <time>2011-11-24T13:08:00Z</time>
      </trkpt>
      <trkpt lat="43.72768" lon="6.96172">
        <ele>924.9</ele>
        <time>2011-11-24T13:08:02Z</time>
      </trkpt>
      <trkpt lat="43.72771" lon="6.96166">
        <ele>925.1</ele>
        <time>2011-11-24T13:08:04Z</time>
      </trkpt>
      <trkpt lat="43.72775" lon="6.9616">
        <ele>923.8</ele>
        <time>2011-11-24T13:08:06Z</time>
      </trkpt>
      <trkpt lat="43.72779" lon="6.96154">
        <ele>925.1</ele>
        <time>2011-11-24T13:08:08Z</time>
      </trkpt>
      <trkpt lat="43.72782" lon="6.96148">
        <ele>925.4</ele>
        <time>2011-11-24T13:08:10Z</time>
      </trkpt>
      <trkpt lat="43.72786" lon="6.96143">
        <ele>926.6</ele>
        <time>2011-11-24T13:08:12Z</time>
      </trkpt>
      <trkpt lat="43.72789" lon="6.96138">
        <ele>927.6</ele>
        <time>2011-11-24T13:08:14Z</time>
      </trkpt>
      <trkpt lat="43.72793" lon="6.96134">
        <ele>928.2</ele>
        <time>2011-11-24T13:08:16Z</time>
      </trkpt>
      <trkpt lat="43.72797" lon="6.96129">
        <ele>928.8</ele>
        <time>2011-11-24T13:08:18Z</time>
      </trkpt>
      <trkpt lat="43.72801" lon="6.96124">
        <ele>929.9</ele>
        <time>2011-11-24T13:08:20Z</time>
      </trkpt>
      <trkpt lat="43.72805" lon="6.96119">
        <ele>932.2</ele>
        <time>2011-11-24T13:08:22Z</time>
      </trkpt>
      <trkpt lat="43.7281" lon="6.96112">
        <ele>935.2</ele>
        <time>2011-11-24T13:08:25Z</time>
      </trkpt>
      <trkpt lat="43.72814" lon="6.96108">
        <ele>936.7</ele>
        <time>2011-11-24T13:08:27Z</time>
      </trkpt>
      <trkpt lat="43.72818" lon="6.96103">
        <ele>937.1</ele>
        <time>2011-11-24T13:08:29Z</time>
      </trkpt>
      <trkpt lat="43.72823" lon="6.961">
        <ele>937.8</ele>
        <time>2011-11-24T13:08:31Z</time>
      </trkpt>
      <trkpt lat="43.72828" lon="6.96095">
        <ele>938.2</ele>
        <time>2011-11-24T13:08:33Z</time>
      </trkpt>
      <trkpt lat="43.72834" lon="6.96092">
        <ele>939.5</ele>
        <time>2011-11-24T13:08:35Z</time>
      </trkpt>
      <trkpt lat="43.72838" lon="6.96087">
        <ele>940.3</ele>
        <time>2011-11-24T13:08:37Z</time>
      </trkpt>
      <trkpt lat="43.72843" lon="6.96084">
        <ele>941.4</ele>
        <time>2011-11-24T13:08:39Z</time>
      </trkpt>
      <trkpt lat="43.72848" lon="6.9608">
        <ele>941.8</ele>
        <time>2011-11-24T13:08:41Z</time>
      </trkpt>
      <trkpt lat="43.72852" lon="6.96077">
        <ele>942.3</ele>
        <time>2011-11-24T13:08:43Z</time>
      </trkpt>
      <trkpt lat="43.72857" lon="6.96074">
        <ele>942.6</ele>
        <time>2011-11-24T13:08:45Z</time>
      </trkpt>
      <trkpt lat="43.72863" lon="6.9607">
        <ele>942.7</ele>
        <time>2011-11-24T13:08:47Z</time>
      </trkpt>
      <trkpt lat="43.72868" lon="6.96067">
        <ele>943.7</ele>
        <time>2011-11-24T13:08:50Z</time>
      </trkpt>
      <trkpt lat="43.72874" lon="6.96064">
        <ele>943.8</ele>
        <time>2011-11-24T13:08:52Z</time>
      </trkpt>
      <trkpt lat="43.72878" lon="6.9606">
        <ele>944.5</ele>
        <time>2011-11-24T13:08:54Z</time>
      </trkpt>
      <trkpt lat="43.72884" lon="6.96057">
        <ele>945.1</ele>
        <time>2011-11-24T13:08:56Z</time>
      </trkpt>
      <trkpt lat="43.72888" lon="6.96055">
        <ele>946.2</ele>
        <time>2011-11-24T13:08:58Z</time>
      </trkpt>
      <trkpt lat="43.72893" lon="6.96052">
        <ele>946.5</ele>
        <time>2011-11-24T13:09:00Z</time>
      </trkpt>
      <trkpt lat="43.72898" lon="6.96049">
        <ele>946.9</ele>
        <time>2011-11-24T13:09:02Z</time>
      </trkpt>
      <trkpt lat="43.72903" lon="6.96047">
        <ele>947.2</ele>
        <time>2011-11-24T13:09:04Z</time>
      </trkpt>
      <trkpt lat="43.72908" lon="6.96044">
        <ele>947.8</ele>
        <time>2011-11-24T13:09:06Z</time>
      </trkpt>
      <trkpt lat="43.72912" lon="6.9604">
        <ele>948.4</ele>
        <time>2011-11-24T13:09:08Z</time>
      </trkpt>
      <trkpt lat="43.72918" lon="6.96038">
        <ele>949</ele>
        <time>2011-11-24T13:09:10Z</time>
      </trkpt>
      <trkpt lat="43.72922" lon="6.96035">
        <ele>949.1</ele>
        <time>2011-11-24T13:09:12Z</time>
      </trkpt>
      <trkpt lat="43.72926" lon="6.96032">
        <ele>949.5</ele>
        <time>2011-11-24T13:09:14Z</time>
      </trkpt>
      <trkpt lat="43.72931" lon="6.96029">
        <ele>950</ele>
        <time>2011-11-24T13:09:16Z</time>
      </trkpt>
      <trkpt lat="43.72936" lon="6.96027">
        <ele>950.1</ele>
        <time>2011-11-24T13:09:18Z</time>
      </trkpt>
      <trkpt lat="43.7294" lon="6.96024">
        <ele>950.6</ele>
        <time>2011-11-24T13:09:20Z</time>
      </trkpt>
      <trkpt lat="43.72945" lon="6.96021">
        <ele>950.9</ele>
        <time>2011-11-24T13:09:22Z</time>
      </trkpt>
      <trkpt lat="43.72951" lon="6.96017">
        <ele>951.3</ele>
        <time>2011-11-24T13:09:25Z</time>
      </trkpt>
      <trkpt lat="43.72956" lon="6.96014">
        <ele>952.1</ele>
        <time>2011-11-24T13:09:27Z</time>
      </trkpt>
      <trkpt lat="43.7296" lon="6.96011">
        <ele>952.5</ele>
        <time>2011-11-24T13:09:29Z</time>
      </trkpt>
      <trkpt lat="43.72965" lon="6.96007">
        <ele>953.5</ele>
        <time>2011-11-24T13:09:31Z</time>
      </trkpt>
      <trkpt lat="43.7297" lon="6.96004">
        <ele>953.5</ele>
        <time>2011-11-24T13:09:33Z</time>
      </trkpt>
      <trkpt lat="43.72975" lon="6.96002">
        <ele>953.8</ele>
        <time>2011-11-24T13:09:35Z</time>
      </trkpt>
      <trkpt lat="43.7298" lon="6.95998">
        <ele>953.7</ele>
        <time>2011-11-24T13:09:37Z</time>
      </trkpt>
      <trkpt lat="43.72984" lon="6.95995">
        <ele>954.2</ele>
        <time>2011-11-24T13:09:39Z</time>
      </trkpt>
      <trkpt lat="43.72989" lon="6.95992">
        <ele>954.4</ele>
        <time>2011-11-24T13:09:41Z</time>
      </trkpt>
      <trkpt lat="43.72994" lon="6.9599">
        <ele>954.9</ele>
        <time>2011-11-24T13:09:43Z</time>
      </trkpt>
      <trkpt lat="43.72999" lon="6.95986">
        <ele>955.3</ele>
        <time>2011-11-24T13:09:45Z</time>
      </trkpt>
      <trkpt lat="43.73004" lon="6.95984">
        <ele>955.6</ele>
        <time>2011-11-24T13:09:47Z</time>
      </trkpt>
      <trkpt lat="43.73009" lon="6.95981">
        <ele>956.1</ele>
        <time>2011-11-24T13:09:49Z</time>
      </trkpt>
      <trkpt lat="43.73014" lon="6.9598">
        <ele>956</ele>
        <time>2011-11-24T13:09:51Z</time>
      </trkpt>
      <trkpt lat="43.73018" lon="6.95978">
        <ele>956.8</ele>
        <time>2011-11-24T13:09:53Z</time>
      </trkpt>
      <trkpt lat="43.73024" lon="6.95977">
        <ele>957.5</ele>
        <time>2011-11-24T13:09:55Z</time>
      </trkpt>
      <trkpt lat="43.73029" lon="6.95976">
        <ele>958</ele>
        <time>2011-11-24T13:09:57Z</time>
      </trkpt>
      <trkpt lat="43.73034" lon="6.95974">
        <ele>958.6</ele>
        <time>2011-11-24T13:09:59Z</time>
      </trkpt>
      <trkpt lat="43.73039" lon="6.95973">
        <ele>959.3</ele>
        <time>2011-11-24T13:10:01Z</time>
      </trkpt>
      <trkpt lat="43.73045" lon="6.95973">
        <ele>959.5</ele>
        <time>2011-11-24T13:10:04Z</time>
      </trkpt>
      <trkpt lat="43.7305" lon="6.95972">
        <ele>959.6</ele>
        <time>2011-11-24T13:10:06Z</time>
      </trkpt>
      <trkpt lat="43.73054" lon="6.95971">
        <ele>959.7</ele>
        <time>2011-11-24T13:10:08Z</time>
      </trkpt>
      <trkpt lat="43.7306" lon="6.95969">
        <ele>960.1</ele>
        <time>2011-11-24T13:10:11Z</time>
      </trkpt>
      <trkpt lat="43.73065" lon="6.95968">
        <ele>959.7</ele>
        <time>2011-11-24T13:10:13Z</time>
      </trkpt>
      <trkpt lat="43.7307" lon="6.95967">
        <ele>960.1</ele>
        <time>2011-11-24T13:10:15Z</time>
      </trkpt>
      <trkpt lat="43.73074" lon="6.95966">
        <ele>960</ele>
        <time>2011-11-24T13:10:17Z</time>
      </trkpt>
      <trkpt lat="43.73081" lon="6.95963">
        <ele>960.2</ele>
        <time>2011-11-24T13:10:20Z</time>
      </trkpt>
      <trkpt lat="43.73085" lon="6.9596">
        <ele>960.8</ele>
        <time>2011-11-24T13:10:22Z</time>
      </trkpt>
      <trkpt lat="43.73089" lon="6.95957">
        <ele>961.3</ele>
        <time>2011-11-24T13:10:24Z</time>
      </trkpt>
      <trkpt lat="43.73093" lon="6.95953">
        <ele>960.8</ele>
        <time>2011-11-24T13:10:26Z</time>
      </trkpt>
      <trkpt lat="43.73097" lon="6.95951">
        <ele>961.4</ele>
        <time>2011-11-24T13:10:28Z</time>
      </trkpt>
      <trkpt lat="43.73104" lon="6.95948">
        <ele>961.8</ele>
        <time>2011-11-24T13:10:31Z</time>
      </trkpt>
      <trkpt lat="43.73108" lon="6.95944">
        <ele>962.1</ele>
        <time>2011-11-24T13:10:33Z</time>
      </trkpt>
      <trkpt lat="43.73112" lon="6.95941">
        <ele>962.4</ele>
        <time>2011-11-24T13:10:35Z</time>
      </trkpt>
      <trkpt lat="43.73116" lon="6.95938">
        <ele>962.5</ele>
        <time>2011-11-24T13:10:37Z</time>
      </trkpt>
      <trkpt lat="43.7312" lon="6.95935">
        <ele>962.6</ele>
        <time>2011-11-24T13:10:39Z</time>
      </trkpt>
      <trkpt lat="43.73125" lon="6.95932">
        <ele>962.6</ele>
        <time>2011-11-24T13:10:41Z</time>
      </trkpt>
      <trkpt lat="43.73131" lon="6.95928">
        <ele>962.9</ele>
        <time>2011-11-24T13:10:44Z</time>
      </trkpt>
      <trkpt lat="43.73135" lon="6.95925">
        <ele>962.7</ele>
        <time>2011-11-24T13:10:46Z</time>
      </trkpt>
      <trkpt lat="43.73141" lon="6.95921">
        <ele>963.5</ele>
        <time>2011-11-24T13:10:49Z</time>
      </trkpt>
      <trkpt lat="43.73145" lon="6.95918">
        <ele>963.3</ele>
        <time>2011-11-24T13:10:51Z</time>
      </trkpt>
      <trkpt lat="43.7315" lon="6.95916">
        <ele>963.7</ele>
        <time>2011-11-24T13:10:53Z</time>
      </trkpt>
      <trkpt lat="43.73154" lon="6.95913">
        <ele>964</ele>
        <time>2011-11-24T13:10:55Z</time>
      </trkpt>
      <trkpt lat="43.73158" lon="6.9591">
        <ele>964.3</ele>
        <time>2011-11-24T13:10:57Z</time>
      </trkpt>
      <trkpt lat="43.73163" lon="6.95908">
        <ele>964.7</ele>
        <time>2011-11-24T13:10:59Z</time>
      </trkpt>
      <trkpt lat="43.73167" lon="6.95905">
        <ele>965</ele>
        <time>2011-11-24T13:11:01Z</time>
      </trkpt>
      <trkpt lat="43.73171" lon="6.95902">
        <ele>965.1</ele>
        <time>2011-11-24T13:11:03Z</time>
      </trkpt>
      <trkpt lat="43.73176" lon="6.95899">
        <ele>965.5</ele>
        <time>2011-11-24T13:11:05Z</time>
      </trkpt>
      <trkpt lat="43.7318" lon="6.95896">
        <ele>966.1</ele>
        <time>2011-11-24T13:11:07Z</time>
      </trkpt>
      <trkpt lat="43.73184" lon="6.95891">
        <ele>967.2</ele>
        <time>2011-11-24T13:11:09Z</time>
      </trkpt>
      <trkpt lat="43.73188" lon="6.95888">
        <ele>967.7</ele>
        <time>2011-11-24T13:11:11Z</time>
      </trkpt>
      <trkpt lat="43.73192" lon="6.95884">
        <ele>968.2</ele>
        <time>2011-11-24T13:11:13Z</time>
      </trkpt>
      <trkpt lat="43.73196" lon="6.95881">
        <ele>968.4</ele>
        <time>2011-11-24T13:11:15Z</time>
      </trkpt>
      <trkpt lat="43.73201" lon="6.95876">
        <ele>968.9</ele>
        <time>2011-11-24T13:11:18Z</time>
      </trkpt>
      <trkpt lat="43.73206" lon="6.95871">
        <ele>969</ele>
        <time>2011-11-24T13:11:21Z</time>
      </trkpt>
      <trkpt lat="43.73211" lon="6.95866">
        <ele>969.4</ele>
        <time>2011-11-24T13:11:24Z</time>
      </trkpt>
      <trkpt lat="43.73215" lon="6.95862">
        <ele>969.8</ele>
        <time>2011-11-24T13:11:26Z</time>
      </trkpt>
      <trkpt lat="43.73218" lon="6.95856">
        <ele>970.7</ele>
        <time>2011-11-24T13:11:28Z</time>
      </trkpt>
      <trkpt lat="43.73222" lon="6.95853">
        <ele>971.3</ele>
        <time>2011-11-24T13:11:30Z</time>
      </trkpt>
      <trkpt lat="43.73227" lon="6.95848">
        <ele>971.8</ele>
        <time>2011-11-24T13:11:33Z</time>
      </trkpt>
      <trkpt lat="43.73233" lon="6.95844">
        <ele>972</ele>
        <time>2011-11-24T13:11:36Z</time>
      </trkpt>
      <trkpt lat="43.73237" lon="6.95839">
        <ele>973.5</ele>
        <time>2011-11-24T13:11:39Z</time>
      </trkpt>
      <trkpt lat="43.73242" lon="6.95833">
        <ele>974.8</ele>
        <time>2011-11-24T13:11:42Z</time>
      </trkpt>
      <trkpt lat="43.73247" lon="6.95827">
        <ele>975.3</ele>
        <time>2011-11-24T13:11:45Z</time>
      </trkpt>
      <trkpt lat="43.7325" lon="6.95824">
        <ele>977</ele>
        <time>2011-11-24T13:11:47Z</time>
      </trkpt>
      <trkpt lat="43.73254" lon="6.95819">
        <ele>977.8</ele>
        <time>2011-11-24T13:11:49Z</time>
      </trkpt>
      <trkpt lat="43.73259" lon="6.95814">
        <ele>978.2</ele>
        <time>2011-11-24T13:11:52Z</time>
      </trkpt>
      <trkpt lat="43.73263" lon="6.95811">
        <ele>979.7</ele>
        <time>2011-11-24T13:11:54Z</time>
      </trkpt>
      <trkpt lat="43.73269" lon="6.95807">
        <ele>980.9</ele>
        <time>2011-11-24T13:11:57Z</time>
      </trkpt>
      <trkpt lat="43.73274" lon="6.95805">
        <ele>981.2</ele>
        <time>2011-11-24T13:11:59Z</time>
      </trkpt>
      <trkpt lat="43.73278" lon="6.95803">
        <ele>981.2</ele>
        <time>2011-11-24T13:12:01Z</time>
      </trkpt>
      <trkpt lat="43.73283" lon="6.95803">
        <ele>981.8</ele>
        <time>2011-11-24T13:12:03Z</time>
      </trkpt>
      <trkpt lat="43.73289" lon="6.95802">
        <ele>982.8</ele>
        <time>2011-11-24T13:12:06Z</time>
      </trkpt>
      <trkpt lat="43.73294" lon="6.95803">
        <ele>982.9</ele>
        <time>2011-11-24T13:12:08Z</time>
      </trkpt>
      <trkpt lat="43.73299" lon="6.95803">
        <ele>983.4</ele>
        <time>2011-11-24T13:12:10Z</time>
      </trkpt>
      <trkpt lat="43.73306" lon="6.95805">
        <ele>983.8</ele>
        <time>2011-11-24T13:12:13Z</time>
      </trkpt>
      <trkpt lat="43.7331" lon="6.95806">
        <ele>984.1</ele>
        <time>2011-11-24T13:12:15Z</time>
      </trkpt>
      <trkpt lat="43.73315" lon="6.95806">
        <ele>984.9</ele>
        <time>2011-11-24T13:12:17Z</time>
      </trkpt>
      <trkpt lat="43.73319" lon="6.95808">
        <ele>986.1</ele>
        <time>2011-11-24T13:12:19Z</time>
      </trkpt>
      <trkpt lat="43.73324" lon="6.95807">
        <ele>986.1</ele>
        <time>2011-11-24T13:12:21Z</time>
      </trkpt>
      <trkpt lat="43.73331" lon="6.9581">
        <ele>987.3</ele>
        <time>2011-11-24T13:12:24Z</time>
      </trkpt>
      <trkpt lat="43.73336" lon="6.9581">
        <ele>987.9</ele>
        <time>2011-11-24T13:12:26Z</time>
      </trkpt>
      <trkpt lat="43.73341" lon="6.9581">
        <ele>988.5</ele>
        <time>2011-11-24T13:12:28Z</time>
      </trkpt>
      <trkpt lat="43.73347" lon="6.95811">
        <ele>989</ele>
        <time>2011-11-24T13:12:31Z</time>
      </trkpt>
      <trkpt lat="43.73354" lon="6.95814">
        <ele>988.7</ele>
        <time>2011-11-24T13:12:34Z</time>
      </trkpt>
      <trkpt lat="43.73359" lon="6.95814">
        <ele>989</ele>
        <time>2011-11-24T13:12:36Z</time>
      </trkpt>
      <trkpt lat="43.73364" lon="6.95816">
        <ele>988.6</ele>
        <time>2011-11-24T13:12:38Z</time>
      </trkpt>
      <trkpt lat="43.73369" lon="6.95816">
        <ele>988.6</ele>
        <time>2011-11-24T13:12:40Z</time>
      </trkpt>
      <trkpt lat="43.73374" lon="6.95817">
        <ele>988.7</ele>
        <time>2011-11-24T13:12:42Z</time>
      </trkpt>
      <trkpt lat="43.73378" lon="6.95818">
        <ele>988.9</ele>
        <time>2011-11-24T13:12:44Z</time>
      </trkpt>
      <trkpt lat="43.73383" lon="6.95818">
        <ele>988.9</ele>
        <time>2011-11-24T13:12:46Z</time>
      </trkpt>
      <trkpt lat="43.73386" lon="6.95813">
        <ele>990.2</ele>
        <time>2011-11-24T13:12:48Z</time>
      </trkpt>
      <trkpt lat="43.73392" lon="6.95806">
        <ele>991.7</ele>
        <time>2011-11-24T13:12:51Z</time>
      </trkpt>
      <trkpt lat="43.73395" lon="6.95799">
        <ele>992.4</ele>
        <time>2011-11-24T13:12:54Z</time>
      </trkpt>
      <trkpt lat="43.73399" lon="6.95792">
        <ele>992.8</ele>
        <time>2011-11-24T13:12:57Z</time>
      </trkpt>
      <trkpt lat="43.734" lon="6.95785">
        <ele>992.6</ele>
        <time>2011-11-24T13:12:59Z</time>
      </trkpt>
      <trkpt lat="43.73403" lon="6.95778">
        <ele>990.8</ele>
        <time>2011-11-24T13:13:01Z</time>
      </trkpt>
      <trkpt lat="43.73406" lon="6.95771">
        <ele>987.2</ele>
        <time>2011-11-24T13:13:04Z</time>
      </trkpt>
      <trkpt lat="43.73404" lon="6.95765">
        <ele>984.9</ele>
        <time>2011-11-24T13:13:06Z</time>
      </trkpt>
      <trkpt lat="43.73401" lon="6.95758">
        <ele>983.5</ele>
        <time>2011-11-24T13:13:08Z</time>
      </trkpt>
      <trkpt lat="43.73398" lon="6.9575">
        <ele>981.8</ele>
        <time>2011-11-24T13:13:10Z</time>
      </trkpt>
      <trkpt lat="43.73395" lon="6.95743">
        <ele>979.7</ele>
        <time>2011-11-24T13:13:12Z</time>
      </trkpt>
      <trkpt lat="43.73392" lon="6.95737">
        <ele>979</ele>
        <time>2011-11-24T13:13:14Z</time>
      </trkpt>
      <trkpt lat="43.7339" lon="6.9573">
        <ele>978.4</ele>
        <time>2011-11-24T13:13:16Z</time>
      </trkpt>
      <trkpt lat="43.73387" lon="6.95723">
        <ele>978.1</ele>
        <time>2011-11-24T13:13:18Z</time>
      </trkpt>
      <trkpt lat="43.73386" lon="6.95717">
        <ele>978.1</ele>
        <time>2011-11-24T13:13:20Z</time>
      </trkpt>
      <trkpt lat="43.73386" lon="6.9571">
        <ele>979.2</ele>
        <time>2011-11-24T13:13:22Z</time>
      </trkpt>
      <trkpt lat="43.73387" lon="6.95703">
        <ele>980</ele>
        <time>2011-11-24T13:13:24Z</time>
      </trkpt>
      <trkpt lat="43.73388" lon="6.95696">
        <ele>981.4</ele>
        <time>2011-11-24T13:13:26Z</time>
      </trkpt>
      <trkpt lat="43.73388" lon="6.95689">
        <ele>984.9</ele>
        <time>2011-11-24T13:13:28Z</time>
      </trkpt>
      <trkpt lat="43.7339" lon="6.95683">
        <ele>985.1</ele>
        <time>2011-11-24T13:13:30Z</time>
      </trkpt>
      <trkpt lat="43.73392" lon="6.95676">
        <ele>986.7</ele>
        <time>2011-11-24T13:13:32Z</time>
      </trkpt>
      <trkpt lat="43.73394" lon="6.9567">
        <ele>987.9</ele>
        <time>2011-11-24T13:13:34Z</time>
      </trkpt>
      <trkpt lat="43.73396" lon="6.95664">
        <ele>989.2</ele>
        <time>2011-11-24T13:13:36Z</time>
      </trkpt>
      <trkpt lat="43.73399" lon="6.95658">
        <ele>990.8</ele>
        <time>2011-11-24T13:13:38Z</time>
      </trkpt>
      <trkpt lat="43.73402" lon="6.95652">
        <ele>992</ele>
        <time>2011-11-24T13:13:40Z</time>
      </trkpt>
      <trkpt lat="43.73405" lon="6.95647">
        <ele>992.6</ele>
        <time>2011-11-24T13:13:42Z</time>
      </trkpt>
      <trkpt lat="43.73408" lon="6.95642">
        <ele>993.8</ele>
        <time>2011-11-24T13:13:44Z</time>
      </trkpt>
      <trkpt lat="43.73412" lon="6.95635">
        <ele>994.6</ele>
        <time>2011-11-24T13:13:46Z</time>
      </trkpt>
      <trkpt lat="43.73415" lon="6.9563">
        <ele>996</ele>
        <time>2011-11-24T13:13:48Z</time>
      </trkpt>
      <trkpt lat="43.73418" lon="6.95624">
        <ele>997.3</ele>
        <time>2011-11-24T13:13:50Z</time>
      </trkpt>
      <trkpt lat="43.73421" lon="6.95618">
        <ele>999.5</ele>
        <time>2011-11-24T13:13:52Z</time>
      </trkpt>
      <trkpt lat="43.73426" lon="6.95612">
        <ele>1000.5</ele>
        <time>2011-11-24T13:13:54Z</time>
      </trkpt>
      <trkpt lat="43.7343" lon="6.95606">
        <ele>1003.3</ele>
        <time>2011-11-24T13:13:57Z</time>
      </trkpt>
      <trkpt lat="43.73434" lon="6.95602">
        <ele>1004.5</ele>
        <time>2011-11-24T13:13:59Z</time>
      </trkpt>
      <trkpt lat="43.73439" lon="6.95596">
        <ele>1004.9</ele>
        <time>2011-11-24T13:14:02Z</time>
      </trkpt>
      <trkpt lat="43.73443" lon="6.95593">
        <ele>1005.1</ele>
        <time>2011-11-24T13:14:04Z</time>
      </trkpt>
      <trkpt lat="43.73448" lon="6.95588">
        <ele>1005.5</ele>
        <time>2011-11-24T13:14:07Z</time>
      </trkpt>
      <trkpt lat="43.73452" lon="6.95585">
        <ele>1005.4</ele>
        <time>2011-11-24T13:14:09Z</time>
      </trkpt>
      <trkpt lat="43.73455" lon="6.9558">
        <ele>1005.2</ele>
        <time>2011-11-24T13:14:11Z</time>
      </trkpt>
      <trkpt lat="43.73458" lon="6.95574">
        <ele>1005.9</ele>
        <time>2011-11-24T13:14:13Z</time>
      </trkpt>
      <trkpt lat="43.7346" lon="6.95568">
        <ele>1006.4</ele>
        <time>2011-11-24T13:14:15Z</time>
      </trkpt>
      <trkpt lat="43.73462" lon="6.95563">
        <ele>1006.2</ele>
        <time>2011-11-24T13:14:17Z</time>
      </trkpt>
      <trkpt lat="43.73463" lon="6.95556">
        <ele>1006.6</ele>
        <time>2011-11-24T13:14:19Z</time>
      </trkpt>
      <trkpt lat="43.73464" lon="6.9555">
        <ele>1006.6</ele>
        <time>2011-11-24T13:14:21Z</time>
      </trkpt>
      <trkpt lat="43.73465" lon="6.95544">
        <ele>1006.3</ele>
        <time>2011-11-24T13:14:23Z</time>
      </trkpt>
      <trkpt lat="43.73465" lon="6.95537">
        <ele>1006.3</ele>
        <time>2011-11-24T13:14:25Z</time>
      </trkpt>
      <trkpt lat="43.73466" lon="6.95529">
        <ele>1005.9</ele>
        <time>2011-11-24T13:14:27Z</time>
      </trkpt>
      <trkpt lat="43.73466" lon="6.95522">
        <ele>1005.4</ele>
        <time>2011-11-24T13:14:29Z</time>
      </trkpt>
      <trkpt lat="43.73466" lon="6.95515">
        <ele>1005.4</ele>
        <time>2011-11-24T13:14:31Z</time>
      </trkpt>
      <trkpt lat="43.73467" lon="6.95508">
        <ele>1005.4</ele>
        <time>2011-11-24T13:14:33Z</time>
      </trkpt>
      <trkpt lat="43.73468" lon="6.95501">
        <ele>1005.6</ele>
        <time>2011-11-24T13:14:35Z</time>
      </trkpt>
      <trkpt lat="43.73468" lon="6.95493">
        <ele>1005.6</ele>
        <time>2011-11-24T13:14:37Z</time>
      </trkpt>
      <trkpt lat="43.73468" lon="6.95486">
        <ele>1005.5</ele>
        <time>2011-11-24T13:14:39Z</time>
      </trkpt>
      <trkpt lat="43.73469" lon="6.95479">
        <ele>1005.5</ele>
        <time>2011-11-24T13:14:41Z</time>
      </trkpt>
      <trkpt lat="43.73469" lon="6.95473">
        <ele>1005.3</ele>
        <time>2011-11-24T13:14:43Z</time>
      </trkpt>
      <trkpt lat="43.7347" lon="6.95466">
        <ele>1004.6</ele>
        <time>2011-11-24T13:14:45Z</time>
      </trkpt>
      <trkpt lat="43.73469" lon="6.95459">
        <ele>1005.3</ele>
        <time>2011-11-24T13:14:47Z</time>
      </trkpt>
      <trkpt lat="43.7347" lon="6.95452">
        <ele>1005.4</ele>
        <time>2011-11-24T13:14:49Z</time>
      </trkpt>
      <trkpt lat="43.73469" lon="6.95446">
        <ele>1005.4</ele>
        <time>2011-11-24T13:14:51Z</time>
      </trkpt>
      <trkpt lat="43.7347" lon="6.95439">
        <ele>1005.5</ele>
        <time>2011-11-24T13:14:53Z</time>
      </trkpt>
      <trkpt lat="43.73471" lon="6.9543">
        <ele>1005.3</ele>
        <time>2011-11-24T13:14:56Z</time>
      </trkpt>
      <trkpt lat="43.7347" lon="6.95423">
        <ele>1005.1</ele>
        <time>2011-11-24T13:14:58Z</time>
      </trkpt>
      <trkpt lat="43.7347" lon="6.95417">
        <ele>1005.4</ele>
        <time>2011-11-24T13:15:00Z</time>
      </trkpt>
      <trkpt lat="43.7347" lon="6.9541">
        <ele>1005.5</ele>
        <time>2011-11-24T13:15:02Z</time>
      </trkpt>
      <trkpt lat="43.7347" lon="6.95403">
        <ele>1005.6</ele>
        <time>2011-11-24T13:15:04Z</time>
      </trkpt>
      <trkpt lat="43.7347" lon="6.95396">
        <ele>1006.2</ele>
        <time>2011-11-24T13:15:06Z</time>
      </trkpt>
      <trkpt lat="43.73469" lon="6.9539">
        <ele>1006.3</ele>
        <time>2011-11-24T13:15:08Z</time>
      </trkpt>
      <trkpt lat="43.7347" lon="6.95384">
        <ele>1006.3</ele>
        <time>2011-11-24T13:15:10Z</time>
      </trkpt>
      <trkpt lat="43.7347" lon="6.95377">
        <ele>1006.1</ele>
        <time>2011-11-24T13:15:12Z</time>
      </trkpt>
      <trkpt lat="43.7347" lon="6.95367">
        <ele>1005.7</ele>
        <time>2011-11-24T13:15:15Z</time>
      </trkpt>
      <trkpt lat="43.73471" lon="6.9536">
        <ele>1005.4</ele>
        <time>2011-11-24T13:15:17Z</time>
      </trkpt>
      <trkpt lat="43.73472" lon="6.95351">
        <ele>1005.3</ele>
        <time>2011-11-24T13:15:20Z</time>
      </trkpt>
      <trkpt lat="43.73474" lon="6.95345">
        <ele>1005.1</ele>
        <time>2011-11-24T13:15:22Z</time>
      </trkpt>
      <trkpt lat="43.73476" lon="6.95339">
        <ele>1005.8</ele>
        <time>2011-11-24T13:15:24Z</time>
      </trkpt>
      <trkpt lat="43.73478" lon="6.95333">
        <ele>1006.6</ele>
        <time>2011-11-24T13:15:26Z</time>
      </trkpt>
      <trkpt lat="43.73481" lon="6.95325">
        <ele>1006.4</ele>
        <time>2011-11-24T13:15:29Z</time>
      </trkpt>
      <trkpt lat="43.73482" lon="6.95319">
        <ele>1007.1</ele>
        <time>2011-11-24T13:15:31Z</time>
      </trkpt>
      <trkpt lat="43.73485" lon="6.95313">
        <ele>1007.2</ele>
        <time>2011-11-24T13:15:33Z</time>
      </trkpt>
      <trkpt lat="43.73488" lon="6.95308">
        <ele>1008.2</ele>
        <time>2011-11-24T13:15:35Z</time>
      </trkpt>
      <trkpt lat="43.73491" lon="6.95303">
        <ele>1008.2</ele>
        <time>2011-11-24T13:15:37Z</time>
      </trkpt>
      <trkpt lat="43.73494" lon="6.95298">
        <ele>1007.5</ele>
        <time>2011-11-24T13:15:39Z</time>
      </trkpt>
      <trkpt lat="43.73496" lon="6.95293">
        <ele>1007.8</ele>
        <time>2011-11-24T13:15:41Z</time>
      </trkpt>
      <trkpt lat="43.73499" lon="6.95288">
        <ele>1007.6</ele>
        <time>2011-11-24T13:15:43Z</time>
      </trkpt>
      <trkpt lat="43.73502" lon="6.95283">
        <ele>1008.2</ele>
        <time>2011-11-24T13:15:45Z</time>
      </trkpt>
      <trkpt lat="43.73506" lon="6.95279">
        <ele>1008.5</ele>
        <time>2011-11-24T13:15:47Z</time>
      </trkpt>
      <trkpt lat="43.73509" lon="6.95274">
        <ele>1008.2</ele>
        <time>2011-11-24T13:15:49Z</time>
      </trkpt>
      <trkpt lat="43.73513" lon="6.95268">
        <ele>1009.3</ele>
        <time>2011-11-24T13:15:52Z</time>
      </trkpt>
      <trkpt lat="43.73516" lon="6.95263">
        <ele>1009.6</ele>
        <time>2011-11-24T13:15:54Z</time>
      </trkpt>
      <trkpt lat="43.73519" lon="6.95257">
        <ele>1009.9</ele>
        <time>2011-11-24T13:15:56Z</time>
      </trkpt>
      <trkpt lat="43.73522" lon="6.95253">
        <ele>1010.1</ele>
        <time>2011-11-24T13:15:58Z</time>
      </trkpt>
      <trkpt lat="43.73526" lon="6.95248">
        <ele>1009.5</ele>
        <time>2011-11-24T13:16:00Z</time>
      </trkpt>
      <trkpt lat="43.7353" lon="6.95243">
        <ele>1009.7</ele>
        <time>2011-11-24T13:16:02Z</time>
      </trkpt>
      <trkpt lat="43.73533" lon="6.95238">
        <ele>1009.8</ele>
        <time>2011-11-24T13:16:04Z</time>
      </trkpt>
      <trkpt lat="43.73536" lon="6.95233">
        <ele>1010.3</ele>
        <time>2011-11-24T13:16:06Z</time>
      </trkpt>
      <trkpt lat="43.7354" lon="6.95228">
        <ele>1010.3</ele>
        <time>2011-11-24T13:16:08Z</time>
      </trkpt>
      <trkpt lat="43.73543" lon="6.95223">
        <ele>1010</ele>
        <time>2011-11-24T13:16:10Z</time>
      </trkpt>
      <trkpt lat="43.73547" lon="6.95218">
        <ele>1010.1</ele>
        <time>2011-11-24T13:16:12Z</time>
      </trkpt>
      <trkpt lat="43.7355" lon="6.95213">
        <ele>1010.4</ele>
        <time>2011-11-24T13:16:14Z</time>
      </trkpt>
      <trkpt lat="43.73553" lon="6.95208">
        <ele>1010.4</ele>
        <time>2011-11-24T13:16:16Z</time>
      </trkpt>
      <trkpt lat="43.73557" lon="6.95203">
        <ele>1010.6</ele>
        <time>2011-11-24T13:16:18Z</time>
      </trkpt>
      <trkpt lat="43.73561" lon="6.95199">
        <ele>1010.6</ele>
        <time>2011-11-24T13:16:20Z</time>
      </trkpt>
      <trkpt lat="43.73564" lon="6.95195">
        <ele>1011</ele>
        <time>2011-11-24T13:16:22Z</time>
      </trkpt>
      <trkpt lat="43.73568" lon="6.9519">
        <ele>1010.8</ele>
        <time>2011-11-24T13:16:24Z</time>
      </trkpt>
      <trkpt lat="43.73572" lon="6.95187">
        <ele>1010.4</ele>
        <time>2011-11-24T13:16:26Z</time>
      </trkpt>
      <trkpt lat="43.73578" lon="6.95182">
        <ele>1010.8</ele>
        <time>2011-11-24T13:16:29Z</time>
      </trkpt>
      <trkpt lat="43.73584" lon="6.95177">
        <ele>1010.8</ele>
        <time>2011-11-24T13:16:32Z</time>
      </trkpt>
      <trkpt lat="43.7359" lon="6.95172">
        <ele>1010.4</ele>
        <time>2011-11-24T13:16:35Z</time>
      </trkpt>
      <trkpt lat="43.73595" lon="6.95166">
        <ele>1010.7</ele>
        <time>2011-11-24T13:16:38Z</time>
      </trkpt>
      <trkpt lat="43.736" lon="6.95162">
        <ele>1010</ele>
        <time>2011-11-24T13:16:40Z</time>
      </trkpt>
      <trkpt lat="43.73605" lon="6.95158">
        <ele>1010.2</ele>
        <time>2011-11-24T13:16:42Z</time>
      </trkpt>
      <trkpt lat="43.73609" lon="6.95154">
        <ele>1010.7</ele>
        <time>2011-11-24T13:16:44Z</time>
      </trkpt>
      <trkpt lat="43.73614" lon="6.95146">
        <ele>1010.6</ele>
        <time>2011-11-24T13:16:47Z</time>
      </trkpt>
      <trkpt lat="43.73616" lon="6.95138">
        <ele>1011.3</ele>
        <time>2011-11-24T13:16:50Z</time>
      </trkpt>
      <trkpt lat="43.73618" lon="6.95132">
        <ele>1011.2</ele>
        <time>2011-11-24T13:16:52Z</time>
      </trkpt>
      <trkpt lat="43.73617" lon="6.95124">
        <ele>1011.9</ele>
        <time>2011-11-24T13:16:55Z</time>
      </trkpt>
      <trkpt lat="43.73617" lon="6.95117">
        <ele>1012</ele>
        <time>2011-11-24T13:16:57Z</time>
      </trkpt>
      <trkpt lat="43.73613" lon="6.95112">
        <ele>1013.6</ele>
        <time>2011-11-24T13:16:59Z</time>
      </trkpt>
      <trkpt lat="43.73608" lon="6.95108">
        <ele>1013.9</ele>
        <time>2011-11-24T13:17:01Z</time>
      </trkpt>
      <trkpt lat="43.73603" lon="6.95106">
        <ele>1013.4</ele>
        <time>2011-11-24T13:17:03Z</time>
      </trkpt>
      <trkpt lat="43.73597" lon="6.95106">
        <ele>1014.1</ele>
        <time>2011-11-24T13:17:05Z</time>
      </trkpt>
      <trkpt lat="43.73592" lon="6.95105">
        <ele>1014.6</ele>
        <time>2011-11-24T13:17:07Z</time>
      </trkpt>
      <trkpt lat="43.73586" lon="6.95106">
        <ele>1014.9</ele>
        <time>2011-11-24T13:17:09Z</time>
      </trkpt>
      <trkpt lat="43.7358" lon="6.95106">
        <ele>1015.6</ele>
        <time>2011-11-24T13:17:11Z</time>
      </trkpt>
      <trkpt lat="43.73575" lon="6.95105">
        <ele>1015.6</ele>
        <time>2011-11-24T13:17:13Z</time>
      </trkpt>
      <trkpt lat="43.7357" lon="6.95105">
        <ele>1016.3</ele>
        <time>2011-11-24T13:17:15Z</time>
      </trkpt>
      <trkpt lat="43.73564" lon="6.95105">
        <ele>1017.6</ele>
        <time>2011-11-24T13:17:17Z</time>
      </trkpt>
      <trkpt lat="43.73559" lon="6.95105">
        <ele>1018</ele>
        <time>2011-11-24T13:17:19Z</time>
      </trkpt>
      <trkpt lat="43.73554" lon="6.95104">
        <ele>1018.4</ele>
        <time>2011-11-24T13:17:21Z</time>
      </trkpt>
      <trkpt lat="43.73547" lon="6.95104">
        <ele>1018.4</ele>
        <time>2011-11-24T13:17:24Z</time>
      </trkpt>
      <trkpt lat="43.73542" lon="6.95104">
        <ele>1019.8</ele>
        <time>2011-11-24T13:17:26Z</time>
      </trkpt>
      <trkpt lat="43.73537" lon="6.95103">
        <ele>1020.7</ele>
        <time>2011-11-24T13:17:28Z</time>
      </trkpt>
      <trkpt lat="43.73532" lon="6.95103">
        <ele>1021.2</ele>
        <time>2011-11-24T13:17:30Z</time>
      </trkpt>
      <trkpt lat="43.73527" lon="6.95103">
        <ele>1021.3</ele>
        <time>2011-11-24T13:17:32Z</time>
      </trkpt>
      <trkpt lat="43.73522" lon="6.95103">
        <ele>1022.9</ele>
        <time>2011-11-24T13:17:34Z</time>
      </trkpt>
      <trkpt lat="43.73517" lon="6.95103">
        <ele>1023.7</ele>
        <time>2011-11-24T13:17:36Z</time>
      </trkpt>
      <trkpt lat="43.73512" lon="6.95103">
        <ele>1024.7</ele>
        <time>2011-11-24T13:17:38Z</time>
      </trkpt>
      <trkpt lat="43.73507" lon="6.95103">
        <ele>1025.5</ele>
        <time>2011-11-24T13:17:40Z</time>
      </trkpt>
      <trkpt lat="43.73502" lon="6.95104">
        <ele>1025.3</ele>
        <time>2011-11-24T13:17:42Z</time>
      </trkpt>
      <trkpt lat="43.73497" lon="6.95103">
        <ele>1026.4</ele>
        <time>2011-11-24T13:17:44Z</time>
      </trkpt>
      <trkpt lat="43.73492" lon="6.95103">
        <ele>1027.4</ele>
        <time>2011-11-24T13:17:46Z</time>
      </trkpt>
      <trkpt lat="43.73488" lon="6.95103">
        <ele>1027.3</ele>
        <time>2011-11-24T13:17:48Z</time>
      </trkpt>
      <trkpt lat="43.73483" lon="6.95102">
        <ele>1027.8</ele>
        <time>2011-11-24T13:17:50Z</time>
      </trkpt>
      <trkpt lat="43.73476" lon="6.95102">
        <ele>1028.8</ele>
        <time>2011-11-24T13:17:53Z</time>
      </trkpt>
      <trkpt lat="43.73469" lon="6.95101">
        <ele>1029.9</ele>
        <time>2011-11-24T13:17:56Z</time>
      </trkpt>
      <trkpt lat="43.73462" lon="6.95101">
        <ele>1030</ele>
        <time>2011-11-24T13:17:59Z</time>
      </trkpt>
      <trkpt lat="43.73458" lon="6.95101">
        <ele>1030.4</ele>
        <time>2011-11-24T13:18:01Z</time>
      </trkpt>
      <trkpt lat="43.73451" lon="6.951">
        <ele>1031.1</ele>
        <time>2011-11-24T13:18:04Z</time>
      </trkpt>
      <trkpt lat="43.73446" lon="6.951">
        <ele>1032.3</ele>
        <time>2011-11-24T13:18:06Z</time>
      </trkpt>
      <trkpt lat="43.73442" lon="6.95099">
        <ele>1032.8</ele>
        <time>2011-11-24T13:18:08Z</time>
      </trkpt>
      <trkpt lat="43.73435" lon="6.95096">
        <ele>1033.9</ele>
        <time>2011-11-24T13:18:11Z</time>
      </trkpt>
      <trkpt lat="43.73429" lon="6.95092">
        <ele>1034</ele>
        <time>2011-11-24T13:18:14Z</time>
      </trkpt>
      <trkpt lat="43.73425" lon="6.95089">
        <ele>1034.7</ele>
        <time>2011-11-24T13:18:16Z</time>
      </trkpt>
      <trkpt lat="43.73419" lon="6.95084">
        <ele>1035.9</ele>
        <time>2011-11-24T13:18:19Z</time>
      </trkpt>
      <trkpt lat="43.73413" lon="6.95082">
        <ele>1035.6</ele>
        <time>2011-11-24T13:18:22Z</time>
      </trkpt>
      <trkpt lat="43.73408" lon="6.95079">
        <ele>1036.2</ele>
        <time>2011-11-24T13:18:25Z</time>
      </trkpt>
      <trkpt lat="43.73402" lon="6.95077">
        <ele>1036.4</ele>
        <time>2011-11-24T13:18:27Z</time>
      </trkpt>
      <trkpt lat="43.73396" lon="6.95076">
        <ele>1037.7</ele>
        <time>2011-11-24T13:18:29Z</time>
      </trkpt>
      <trkpt lat="43.73392" lon="6.95078">
        <ele>1037.6</ele>
        <time>2011-11-24T13:18:31Z</time>
      </trkpt>
      <trkpt lat="43.73386" lon="6.95081">
        <ele>1038.5</ele>
        <time>2011-11-24T13:18:33Z</time>
      </trkpt>
      <trkpt lat="43.73381" lon="6.95086">
        <ele>1037.1</ele>
        <time>2011-11-24T13:18:36Z</time>
      </trkpt>
      <trkpt lat="43.73377" lon="6.95089">
        <ele>1039.5</ele>
        <time>2011-11-24T13:18:38Z</time>
      </trkpt>
      <trkpt lat="43.73373" lon="6.95094">
        <ele>1040.2</ele>
        <time>2011-11-24T13:18:40Z</time>
      </trkpt>
      <trkpt lat="43.7337" lon="6.951">
        <ele>1039.5</ele>
        <time>2011-11-24T13:18:42Z</time>
      </trkpt>
      <trkpt lat="43.73367" lon="6.95104">
        <ele>1040.2</ele>
        <time>2011-11-24T13:18:44Z</time>
      </trkpt>
      <trkpt lat="43.73363" lon="6.9511">
        <ele>1040.4</ele>
        <time>2011-11-24T13:18:46Z</time>
      </trkpt>
      <trkpt lat="43.7336" lon="6.95114">
        <ele>1040.6</ele>
        <time>2011-11-24T13:18:48Z</time>
      </trkpt>
      <trkpt lat="43.73357" lon="6.95119">
        <ele>1041.2</ele>
        <time>2011-11-24T13:18:50Z</time>
      </trkpt>
      <trkpt lat="43.73354" lon="6.95125">
        <ele>1041.3</ele>
        <time>2011-11-24T13:18:52Z</time>
      </trkpt>
      <trkpt lat="43.7335" lon="6.95129">
        <ele>1041.5</ele>
        <time>2011-11-24T13:18:54Z</time>
      </trkpt>
      <trkpt lat="43.73346" lon="6.95134">
        <ele>1041.9</ele>
        <time>2011-11-24T13:18:56Z</time>
      </trkpt>
      <trkpt lat="43.73344" lon="6.9514">
        <ele>1042.7</ele>
        <time>2011-11-24T13:18:58Z</time>
      </trkpt>
      <trkpt lat="43.7334" lon="6.95144">
        <ele>1043.2</ele>
        <time>2011-11-24T13:19:00Z</time>
      </trkpt>
      <trkpt lat="43.73337" lon="6.95149">
        <ele>1044</ele>
        <time>2011-11-24T13:19:02Z</time>
      </trkpt>
      <trkpt lat="43.73334" lon="6.95154">
        <ele>1044.9</ele>
        <time>2011-11-24T13:19:04Z</time>
      </trkpt>
      <trkpt lat="43.73328" lon="6.95159">
        <ele>1045.6</ele>
        <time>2011-11-24T13:19:07Z</time>
      </trkpt>
      <trkpt lat="43.73324" lon="6.95163">
        <ele>1046</ele>
        <time>2011-11-24T13:19:09Z</time>
      </trkpt>
      <trkpt lat="43.73317" lon="6.95167">
        <ele>1046.6</ele>
        <time>2011-11-24T13:19:12Z</time>
      </trkpt>
      <trkpt lat="43.73313" lon="6.95169">
        <ele>1047.7</ele>
        <time>2011-11-24T13:19:14Z</time>
      </trkpt>
      <trkpt lat="43.73308" lon="6.95172">
        <ele>1048.7</ele>
        <time>2011-11-24T13:19:16Z</time>
      </trkpt>
      <trkpt lat="43.73302" lon="6.95175">
        <ele>1048.6</ele>
        <time>2011-11-24T13:19:19Z</time>
      </trkpt>
      <trkpt lat="43.73297" lon="6.95176">
        <ele>1048.9</ele>
        <time>2011-11-24T13:19:21Z</time>
      </trkpt>
      <trkpt lat="43.73291" lon="6.95179">
        <ele>1048.4</ele>
        <time>2011-11-24T13:19:24Z</time>
      </trkpt>
      <trkpt lat="43.73285" lon="6.9518">
        <ele>1047.5</ele>
        <time>2011-11-24T13:19:27Z</time>
      </trkpt>
      <trkpt lat="43.7328" lon="6.95181">
        <ele>1047.8</ele>
        <time>2011-11-24T13:19:29Z</time>
      </trkpt>
      <trkpt lat="43.73274" lon="6.9518">
        <ele>1047.8</ele>
        <time>2011-11-24T13:19:32Z</time>
      </trkpt>
      <trkpt lat="43.73267" lon="6.95179">
        <ele>1048.3</ele>
        <time>2011-11-24T13:19:35Z</time>
      </trkpt>
      <trkpt lat="43.73262" lon="6.95178">
        <ele>1048.9</ele>
        <time>2011-11-24T13:19:37Z</time>
      </trkpt>
      <trkpt lat="43.73257" lon="6.95177">
        <ele>1048.8</ele>
        <time>2011-11-24T13:19:39Z</time>
      </trkpt>
      <trkpt lat="43.7325" lon="6.95176">
        <ele>1049.1</ele>
        <time>2011-11-24T13:19:42Z</time>
      </trkpt>
      <trkpt lat="43.73245" lon="6.95175">
        <ele>1050</ele>
        <time>2011-11-24T13:19:44Z</time>
      </trkpt>
      <trkpt lat="43.7324" lon="6.95174">
        <ele>1049.6</ele>
        <time>2011-11-24T13:19:46Z</time>
      </trkpt>
      <trkpt lat="43.73235" lon="6.95173">
        <ele>1050.6</ele>
        <time>2011-11-24T13:19:48Z</time>
      </trkpt>
      <trkpt lat="43.7323" lon="6.95172">
        <ele>1051</ele>
        <time>2011-11-24T13:19:50Z</time>
      </trkpt>
      <trkpt lat="43.73225" lon="6.95171">
        <ele>1052.2</ele>
        <time>2011-11-24T13:19:52Z</time>
      </trkpt>
      <trkpt lat="43.7322" lon="6.9517">
        <ele>1052.8</ele>
        <time>2011-11-24T13:19:54Z</time>
      </trkpt>
      <trkpt lat="43.73215" lon="6.95169">
        <ele>1052.9</ele>
        <time>2011-11-24T13:19:56Z</time>
      </trkpt>
      <trkpt lat="43.7321" lon="6.95168">
        <ele>1053.1</ele>
        <time>2011-11-24T13:19:58Z</time>
      </trkpt>
      <trkpt lat="43.73204" lon="6.95166">
        <ele>1053.5</ele>
        <time>2011-11-24T13:20:01Z</time>
      </trkpt>
      <trkpt lat="43.73198" lon="6.95166">
        <ele>1053.6</ele>
        <time>2011-11-24T13:20:04Z</time>
      </trkpt>
      <trkpt lat="43.73192" lon="6.95165">
        <ele>1054</ele>
        <time>2011-11-24T13:20:07Z</time>
      </trkpt>
      <trkpt lat="43.73187" lon="6.95166">
        <ele>1054.4</ele>
        <time>2011-11-24T13:20:09Z</time>
      </trkpt>
      <trkpt lat="43.73181" lon="6.95168">
        <ele>1054.7</ele>
        <time>2011-11-24T13:20:12Z</time>
      </trkpt>
      <trkpt lat="43.73176" lon="6.95171">
        <ele>1054.6</ele>
        <time>2011-11-24T13:20:15Z</time>
      </trkpt>
      <trkpt lat="43.73172" lon="6.95174">
        <ele>1054.4</ele>
        <time>2011-11-24T13:20:17Z</time>
      </trkpt>
      <trkpt lat="43.7317" lon="6.9518">
        <ele>1054.2</ele>
        <time>2011-11-24T13:20:19Z</time>
      </trkpt>
      <trkpt lat="43.73168" lon="6.95187">
        <ele>1055.7</ele>
        <time>2011-11-24T13:20:21Z</time>
      </trkpt>
      <trkpt lat="43.73167" lon="6.95194">
        <ele>1055.7</ele>
        <time>2011-11-24T13:20:23Z</time>
      </trkpt>
      <trkpt lat="43.73166" lon="6.952">
        <ele>1055.9</ele>
        <time>2011-11-24T13:20:25Z</time>
      </trkpt>
      <trkpt lat="43.73165" lon="6.95207">
        <ele>1055.5</ele>
        <time>2011-11-24T13:20:27Z</time>
      </trkpt>
      <trkpt lat="43.73164" lon="6.95214">
        <ele>1055.4</ele>
        <time>2011-11-24T13:20:29Z</time>
      </trkpt>
      <trkpt lat="43.73163" lon="6.95221">
        <ele>1055.6</ele>
        <time>2011-11-24T13:20:31Z</time>
      </trkpt>
      <trkpt lat="43.73163" lon="6.95228">
        <ele>1055.3</ele>
        <time>2011-11-24T13:20:33Z</time>
      </trkpt>
      <trkpt lat="43.73163" lon="6.95235">
        <ele>1055.5</ele>
        <time>2011-11-24T13:20:35Z</time>
      </trkpt>
      <trkpt lat="43.73162" lon="6.95242">
        <ele>1055.6</ele>
        <time>2011-11-24T13:20:37Z</time>
      </trkpt>
      <trkpt lat="43.73162" lon="6.95249">
        <ele>1056</ele>
        <time>2011-11-24T13:20:39Z</time>
      </trkpt>
      <trkpt lat="43.73162" lon="6.95257">
        <ele>1053.7</ele>
        <time>2011-11-24T13:20:42Z</time>
      </trkpt>
      <trkpt lat="43.73161" lon="6.95266">
        <ele>1052.1</ele>
        <time>2011-11-24T13:20:45Z</time>
      </trkpt>
      <trkpt lat="43.73159" lon="6.95272">
        <ele>1052</ele>
        <time>2011-11-24T13:20:47Z</time>
      </trkpt>
      <trkpt lat="43.73157" lon="6.95278">
        <ele>1052.3</ele>
        <time>2011-11-24T13:20:49Z</time>
      </trkpt>
      <trkpt lat="43.73155" lon="6.95284">
        <ele>1052.8</ele>
        <time>2011-11-24T13:20:51Z</time>
      </trkpt>
      <trkpt lat="43.73152" lon="6.9529">
        <ele>1053.2</ele>
        <time>2011-11-24T13:20:53Z</time>
      </trkpt>
      <trkpt lat="43.73149" lon="6.95295">
        <ele>1053.5</ele>
        <time>2011-11-24T13:20:55Z</time>
      </trkpt>
      <trkpt lat="43.73146" lon="6.953">
        <ele>1054.2</ele>
        <time>2011-11-24T13:20:57Z</time>
      </trkpt>
      <trkpt lat="43.73144" lon="6.95306">
        <ele>1055.2</ele>
        <time>2011-11-24T13:20:59Z</time>
      </trkpt>
      <trkpt lat="43.73141" lon="6.95311">
        <ele>1055.5</ele>
        <time>2011-11-24T13:21:01Z</time>
      </trkpt>
      <trkpt lat="43.73138" lon="6.95316">
        <ele>1056.4</ele>
        <time>2011-11-24T13:21:03Z</time>
      </trkpt>
      <trkpt lat="43.73135" lon="6.95321">
        <ele>1056.7</ele>
        <time>2011-11-24T13:21:05Z</time>
      </trkpt>
      <trkpt lat="43.73131" lon="6.95326">
        <ele>1057</ele>
        <time>2011-11-24T13:21:07Z</time>
      </trkpt>
      <trkpt lat="43.73128" lon="6.9533">
        <ele>1057.3</ele>
        <time>2011-11-24T13:21:09Z</time>
      </trkpt>
      <trkpt lat="43.73124" lon="6.95334">
        <ele>1057.3</ele>
        <time>2011-11-24T13:21:11Z</time>
      </trkpt>
      <trkpt lat="43.73118" lon="6.95337">
        <ele>1057.4</ele>
        <time>2011-11-24T13:21:14Z</time>
      </trkpt>
      <trkpt lat="43.73112" lon="6.95335">
        <ele>1058.9</ele>
        <time>2011-11-24T13:21:17Z</time>
      </trkpt>
      <trkpt lat="43.73108" lon="6.95332">
        <ele>1059.2</ele>
        <time>2011-11-24T13:21:19Z</time>
      </trkpt>
      <trkpt lat="43.73108" lon="6.95326">
        <ele>1060.4</ele>
        <time>2011-11-24T13:21:21Z</time>
      </trkpt>
      <trkpt lat="43.7311" lon="6.95317">
        <ele>1061.1</ele>
        <time>2011-11-24T13:21:24Z</time>
      </trkpt>
      <trkpt lat="43.73113" lon="6.95309">
        <ele>1061.4</ele>
        <time>2011-11-24T13:21:27Z</time>
      </trkpt>
      <trkpt lat="43.73116" lon="6.95303">
        <ele>1061.5</ele>
        <time>2011-11-24T13:21:29Z</time>
      </trkpt>
      <trkpt lat="43.73118" lon="6.95298">
        <ele>1061.2</ele>
        <time>2011-11-24T13:21:31Z</time>
      </trkpt>
      <trkpt lat="43.73121" lon="6.95291">
        <ele>1060.8</ele>
        <time>2011-11-24T13:21:33Z</time>
      </trkpt>
      <trkpt lat="43.73124" lon="6.95283">
        <ele>1062.4</ele>
        <time>2011-11-24T13:21:36Z</time>
      </trkpt>
      <trkpt lat="43.73125" lon="6.95276">
        <ele>1062.6</ele>
        <time>2011-11-24T13:21:38Z</time>
      </trkpt>
      <trkpt lat="43.73127" lon="6.9527">
        <ele>1062.7</ele>
        <time>2011-11-24T13:21:40Z</time>
      </trkpt>
      <trkpt lat="43.7313" lon="6.95262">
        <ele>1062.5</ele>
        <time>2011-11-24T13:21:43Z</time>
      </trkpt>
      <trkpt lat="43.73131" lon="6.95254">
        <ele>1063.2</ele>
        <time>2011-11-24T13:21:45Z</time>
      </trkpt>
      <trkpt lat="43.73131" lon="6.95248">
        <ele>1063.3</ele>
        <time>2011-11-24T13:21:47Z</time>
      </trkpt>
      <trkpt lat="43.7313" lon="6.95242">
        <ele>1064.6</ele>
        <time>2011-11-24T13:21:49Z</time>
      </trkpt>
      <trkpt lat="43.73121" lon="6.95243">
        <ele>1065.7</ele>
        <time>2011-11-24T13:21:51Z</time>
      </trkpt>
      <trkpt lat="43.73115" lon="6.95244">
        <ele>1065.6</ele>
        <time>2011-11-24T13:21:53Z</time>
      </trkpt>
      <trkpt lat="43.73111" lon="6.95248">
        <ele>1066.6</ele>
        <time>2011-11-24T13:21:55Z</time>
      </trkpt>
      <trkpt lat="43.73105" lon="6.95253">
        <ele>1067.3</ele>
        <time>2011-11-24T13:21:58Z</time>
      </trkpt>
      <trkpt lat="43.73101" lon="6.95258">
        <ele>1067.4</ele>
        <time>2011-11-24T13:22:00Z</time>
      </trkpt>
      <trkpt lat="43.73097" lon="6.95261">
        <ele>1067.2</ele>
        <time>2011-11-24T13:22:02Z</time>
      </trkpt>
      <trkpt lat="43.73094" lon="6.95267">
        <ele>1068.2</ele>
        <time>2011-11-24T13:22:04Z</time>
      </trkpt>
      <trkpt lat="43.73091" lon="6.95274">
        <ele>1067.9</ele>
        <time>2011-11-24T13:22:06Z</time>
      </trkpt>
      <trkpt lat="43.73087" lon="6.9528">
        <ele>1068.1</ele>
        <time>2011-11-24T13:22:08Z</time>
      </trkpt>
      <trkpt lat="43.73083" lon="6.95285">
        <ele>1068.3</ele>
        <time>2011-11-24T13:22:10Z</time>
      </trkpt>
      <trkpt lat="43.73079" lon="6.95288">
        <ele>1069</ele>
        <time>2011-11-24T13:22:12Z</time>
      </trkpt>
      <trkpt lat="43.73072" lon="6.95287">
        <ele>1069.4</ele>
        <time>2011-11-24T13:22:15Z</time>
      </trkpt>
      <trkpt lat="43.73068" lon="6.95284">
        <ele>1070</ele>
        <time>2011-11-24T13:22:17Z</time>
      </trkpt>
      <trkpt lat="43.73062" lon="6.95283">
        <ele>1071.2</ele>
        <time>2011-11-24T13:22:20Z</time>
      </trkpt>
      <trkpt lat="43.73058" lon="6.95281">
        <ele>1071.7</ele>
        <time>2011-11-24T13:22:22Z</time>
      </trkpt>
      <trkpt lat="43.73053" lon="6.9528">
        <ele>1072.6</ele>
        <time>2011-11-24T13:22:24Z</time>
      </trkpt>
      <trkpt lat="43.73046" lon="6.95279">
        <ele>1072.6</ele>
        <time>2011-11-24T13:22:27Z</time>
      </trkpt>
      <trkpt lat="43.73042" lon="6.95277">
        <ele>1073.1</ele>
        <time>2011-11-24T13:22:29Z</time>
      </trkpt>
      <trkpt lat="43.73036" lon="6.95274">
        <ele>1073.5</ele>
        <time>2011-11-24T13:22:32Z</time>
      </trkpt>
      <trkpt lat="43.73032" lon="6.9527">
        <ele>1073.6</ele>
        <time>2011-11-24T13:22:34Z</time>
      </trkpt>
      <trkpt lat="43.73025" lon="6.95266">
        <ele>1073.7</ele>
        <time>2011-11-24T13:22:36Z</time>
      </trkpt>
      <trkpt lat="43.73019" lon="6.95264">
        <ele>1074</ele>
        <time>2011-11-24T13:22:38Z</time>
      </trkpt>
      <trkpt lat="43.73014" lon="6.95263">
        <ele>1074.2</ele>
        <time>2011-11-24T13:22:40Z</time>
      </trkpt>
      <trkpt lat="43.73008" lon="6.95263">
        <ele>1074.2</ele>
        <time>2011-11-24T13:22:42Z</time>
      </trkpt>
      <trkpt lat="43.73002" lon="6.95265">
        <ele>1074.4</ele>
        <time>2011-11-24T13:22:44Z</time>
      </trkpt>
      <trkpt lat="43.72997" lon="6.95266">
        <ele>1075.1</ele>
        <time>2011-11-24T13:22:46Z</time>
      </trkpt>
      <trkpt lat="43.72992" lon="6.95266">
        <ele>1075.5</ele>
        <time>2011-11-24T13:22:48Z</time>
      </trkpt>
      <trkpt lat="43.72986" lon="6.95264">
        <ele>1076.2</ele>
        <time>2011-11-24T13:22:51Z</time>
      </trkpt>
      <trkpt lat="43.72981" lon="6.95261">
        <ele>1076.7</ele>
        <time>2011-11-24T13:22:54Z</time>
      </trkpt>
      <trkpt lat="43.72975" lon="6.95259">
        <ele>1077.5</ele>
        <time>2011-11-24T13:22:57Z</time>
      </trkpt>
      <trkpt lat="43.7297" lon="6.95257">
        <ele>1077.5</ele>
        <time>2011-11-24T13:23:00Z</time>
      </trkpt>
      <trkpt lat="43.72965" lon="6.95257">
        <ele>1077.5</ele>
        <time>2011-11-24T13:23:03Z</time>
      </trkpt>
      <trkpt lat="43.7296" lon="6.95255">
        <ele>1078.4</ele>
        <time>2011-11-24T13:23:06Z</time>
      </trkpt>
      <trkpt lat="43.72955" lon="6.9525">
        <ele>1078.7</ele>
        <time>2011-11-24T13:23:09Z</time>
      </trkpt>
      <trkpt lat="43.72956" lon="6.95243">
        <ele>1079.5</ele>
        <time>2011-11-24T13:23:12Z</time>
      </trkpt>
      <trkpt lat="43.72959" lon="6.95237">
        <ele>1080.1</ele>
        <time>2011-11-24T13:23:15Z</time>
      </trkpt>
      <trkpt lat="43.72963" lon="6.95231">
        <ele>1080.7</ele>
        <time>2011-11-24T13:23:19Z</time>
      </trkpt>
      <trkpt lat="43.72965" lon="6.95226">
        <ele>1082.5</ele>
        <time>2011-11-24T13:23:22Z</time>
      </trkpt>
      <trkpt lat="43.72968" lon="6.95219">
        <ele>1082.8</ele>
        <time>2011-11-24T13:23:26Z</time>
      </trkpt>
      <trkpt lat="43.7297" lon="6.95213">
        <ele>1082.5</ele>
        <time>2011-11-24T13:23:29Z</time>
      </trkpt>
      <trkpt lat="43.72972" lon="6.95206">
        <ele>1083</ele>
        <time>2011-11-24T13:23:32Z</time>
      </trkpt>
      <trkpt lat="43.72974" lon="6.952">
        <ele>1083.3</ele>
        <time>2011-11-24T13:23:36Z</time>
      </trkpt>
      <trkpt lat="43.72979" lon="6.95194">
        <ele>1083.1</ele>
        <time>2011-11-24T13:23:40Z</time>
      </trkpt>
      <trkpt lat="43.72984" lon="6.95189">
        <ele>1083.1</ele>
        <time>2011-11-24T13:23:43Z</time>
      </trkpt>
      <trkpt lat="43.72988" lon="6.95184">
        <ele>1083.5</ele>
        <time>2011-11-24T13:23:46Z</time>
      </trkpt>
      <trkpt lat="43.72992" lon="6.95179">
        <ele>1083.4</ele>
        <time>2011-11-24T13:23:49Z</time>
      </trkpt>
      <trkpt lat="43.72994" lon="6.95171">
        <ele>1084.4</ele>
        <time>2011-11-24T13:23:52Z</time>
      </trkpt>
      <trkpt lat="43.72994" lon="6.95163">
        <ele>1085.7</ele>
        <time>2011-11-24T13:23:55Z</time>
      </trkpt>
      <trkpt lat="43.72994" lon="6.95155">
        <ele>1087.2</ele>
        <time>2011-11-24T13:23:58Z</time>
      </trkpt>
      <trkpt lat="43.72989" lon="6.95149">
        <ele>1088</ele>
        <time>2011-11-24T13:24:01Z</time>
      </trkpt>
      <trkpt lat="43.72987" lon="6.95141">
        <ele>1091.6</ele>
        <time>2011-11-24T13:24:04Z</time>
      </trkpt>
      <trkpt lat="43.7298" lon="6.95139">
        <ele>1095.9</ele>
        <time>2011-11-24T13:24:08Z</time>
      </trkpt>
      <trkpt lat="43.72974" lon="6.95141">
        <ele>1095.5</ele>
        <time>2011-11-24T13:24:11Z</time>
      </trkpt>
      <trkpt lat="43.72967" lon="6.95142">
        <ele>1095.9</ele>
        <time>2011-11-24T13:24:14Z</time>
      </trkpt>
      <trkpt lat="43.72963" lon="6.95143">
        <ele>1096.3</ele>
        <time>2011-11-24T13:24:16Z</time>
      </trkpt>
      <trkpt lat="43.72958" lon="6.95142">
        <ele>1096.9</ele>
        <time>2011-11-24T13:24:19Z</time>
      </trkpt>
      <trkpt lat="43.72952" lon="6.95141">
        <ele>1097.7</ele>
        <time>2011-11-24T13:24:22Z</time>
      </trkpt>
      <trkpt lat="43.72947" lon="6.95139">
        <ele>1097.9</ele>
        <time>2011-11-24T13:24:25Z</time>
      </trkpt>
      <trkpt lat="43.72942" lon="6.95137">
        <ele>1098.4</ele>
        <time>2011-11-24T13:24:28Z</time>
      </trkpt>
      <trkpt lat="43.72936" lon="6.95134">
        <ele>1098.8</ele>
        <time>2011-11-24T13:24:32Z</time>
      </trkpt>
      <trkpt lat="43.7293" lon="6.95134">
        <ele>1099.4</ele>
        <time>2011-11-24T13:24:35Z</time>
      </trkpt>
      <trkpt lat="43.72925" lon="6.95133">
        <ele>1099.3</ele>
        <time>2011-11-24T13:24:38Z</time>
      </trkpt>
      <trkpt lat="43.72919" lon="6.95133">
        <ele>1099.9</ele>
        <time>2011-11-24T13:24:41Z</time>
      </trkpt>
      <trkpt lat="43.72913" lon="6.95133">
        <ele>1100.5</ele>
        <time>2011-11-24T13:24:44Z</time>
      </trkpt>
      <trkpt lat="43.72908" lon="6.95132">
        <ele>1101.3</ele>
        <time>2011-11-24T13:24:47Z</time>
      </trkpt>
      <trkpt lat="43.72903" lon="6.95132">
        <ele>1100.4</ele>
        <time>2011-11-24T13:24:50Z</time>
      </trkpt>
      <trkpt lat="43.72897" lon="6.95132">
        <ele>1100.1</ele>
        <time>2011-11-24T13:24:53Z</time>
      </trkpt>
      <trkpt lat="43.7289" lon="6.95129">
        <ele>1100.4</ele>
        <time>2011-11-24T13:24:57Z</time>
      </trkpt>
      <trkpt lat="43.72885" lon="6.95125">
        <ele>1101</ele>
        <time>2011-11-24T13:25:00Z</time>
      </trkpt>
      <trkpt lat="43.72882" lon="6.95119">
        <ele>1103</ele>
        <time>2011-11-24T13:25:03Z</time>
      </trkpt>
      <trkpt lat="43.72882" lon="6.95112">
        <ele>1106</ele>
        <time>2011-11-24T13:25:06Z</time>
      </trkpt>
      <trkpt lat="43.72888" lon="6.95109">
        <ele>1112</ele>
        <time>2011-11-24T13:25:10Z</time>
      </trkpt>
      <trkpt lat="43.72892" lon="6.95103">
        <ele>1111.3</ele>
        <time>2011-11-24T13:25:13Z</time>
      </trkpt>
      <trkpt lat="43.72896" lon="6.95098">
        <ele>1110.7</ele>
        <time>2011-11-24T13:25:16Z</time>
      </trkpt>
      <trkpt lat="43.729" lon="6.95092">
        <ele>1110.8</ele>
        <time>2011-11-24T13:25:19Z</time>
      </trkpt>
      <trkpt lat="43.72904" lon="6.95085">
        <ele>1110</ele>
        <time>2011-11-24T13:25:22Z</time>
      </trkpt>
      <trkpt lat="43.72907" lon="6.95078">
        <ele>1110.1</ele>
        <time>2011-11-24T13:25:25Z</time>
      </trkpt>
      <trkpt lat="43.72912" lon="6.95073">
        <ele>1109.6</ele>
        <time>2011-11-24T13:25:28Z</time>
      </trkpt>
      <trkpt lat="43.72917" lon="6.95069">
        <ele>1109.8</ele>
        <time>2011-11-24T13:25:30Z</time>
      </trkpt>
      <trkpt lat="43.72922" lon="6.95066">
        <ele>1110.5</ele>
        <time>2011-11-24T13:25:32Z</time>
      </trkpt>
      <trkpt lat="43.72926" lon="6.95062">
        <ele>1110.6</ele>
        <time>2011-11-24T13:25:34Z</time>
      </trkpt>
      <trkpt lat="43.72929" lon="6.95057">
        <ele>1115.9</ele>
        <time>2011-11-24T13:25:36Z</time>
      </trkpt>
      <trkpt lat="43.72933" lon="6.95053">
        <ele>1113.5</ele>
        <time>2011-11-24T13:25:38Z</time>
      </trkpt>
      <trkpt lat="43.72938" lon="6.95046">
        <ele>1112.5</ele>
        <time>2011-11-24T13:25:41Z</time>
      </trkpt>
      <trkpt lat="43.72943" lon="6.9504">
        <ele>1109.8</ele>
        <time>2011-11-24T13:25:44Z</time>
      </trkpt>
      <trkpt lat="43.72948" lon="6.95037">
        <ele>1109.2</ele>
        <time>2011-11-24T13:25:47Z</time>
      </trkpt>
      <trkpt lat="43.72952" lon="6.95032">
        <ele>1108.3</ele>
        <time>2011-11-24T13:25:50Z</time>
      </trkpt>
      <trkpt lat="43.72956" lon="6.95028">
        <ele>1109.8</ele>
        <time>2011-11-24T13:25:53Z</time>
      </trkpt>
      <trkpt lat="43.7296" lon="6.95024">
        <ele>1110.1</ele>
        <time>2011-11-24T13:25:56Z</time>
      </trkpt>
      <trkpt lat="43.72963" lon="6.95018">
        <ele>1109.5</ele>
        <time>2011-11-24T13:25:59Z</time>
      </trkpt>
      <trkpt lat="43.72965" lon="6.95012">
        <ele>1109.9</ele>
        <time>2011-11-24T13:26:01Z</time>
      </trkpt>
      <trkpt lat="43.72968" lon="6.95005">
        <ele>1109.5</ele>
        <time>2011-11-24T13:26:04Z</time>
      </trkpt>
      <trkpt lat="43.72971" lon="6.95001">
        <ele>1108.4</ele>
        <time>2011-11-24T13:26:07Z</time>
      </trkpt>
      <trkpt lat="43.72975" lon="6.94998">
        <ele>1106.5</ele>
        <time>2011-11-24T13:26:09Z</time>
      </trkpt>
      <trkpt lat="43.72978" lon="6.9499">
        <ele>1104.1</ele>
        <time>2011-11-24T13:26:12Z</time>
      </trkpt>
      <trkpt lat="43.72979" lon="6.94984">
        <ele>1105.7</ele>
        <time>2011-11-24T13:26:14Z</time>
      </trkpt>
      <trkpt lat="43.72982" lon="6.94979">
        <ele>1105</ele>
        <time>2011-11-24T13:26:16Z</time>
      </trkpt>
      <trkpt lat="43.72985" lon="6.94974">
        <ele>1105.2</ele>
        <time>2011-11-24T13:26:19Z</time>
      </trkpt>
      <trkpt lat="43.72988" lon="6.94968">
        <ele>1106.1</ele>
        <time>2011-11-24T13:26:21Z</time>
      </trkpt>
      <trkpt lat="43.72989" lon="6.9496">
        <ele>1106.9</ele>
        <time>2011-11-24T13:26:24Z</time>
      </trkpt>
      <trkpt lat="43.72991" lon="6.94953">
        <ele>1108.2</ele>
        <time>2011-11-24T13:26:27Z</time>
      </trkpt>
      <trkpt lat="43.72992" lon="6.94947">
        <ele>1109.2</ele>
        <time>2011-11-24T13:26:29Z</time>
      </trkpt>
      <trkpt lat="43.72993" lon="6.94939">
        <ele>1109.4</ele>
        <time>2011-11-24T13:26:32Z</time>
      </trkpt>
      <trkpt lat="43.7299" lon="6.94933">
        <ele>1112.4</ele>
        <time>2011-11-24T13:26:35Z</time>
      </trkpt>
      <trkpt lat="43.72985" lon="6.94928">
        <ele>1113.2</ele>
        <time>2011-11-24T13:26:39Z</time>
      </trkpt>
      <trkpt lat="43.7298" lon="6.94926">
        <ele>1111.8</ele>
        <time>2011-11-24T13:26:43Z</time>
      </trkpt>
      <trkpt lat="43.72975" lon="6.94926">
        <ele>1112.6</ele>
        <time>2011-11-24T13:26:46Z</time>
      </trkpt>
      <trkpt lat="43.72969" lon="6.94926">
        <ele>1113.8</ele>
        <time>2011-11-24T13:26:49Z</time>
      </trkpt>
      <trkpt lat="43.72964" lon="6.94926">
        <ele>1115.4</ele>
        <time>2011-11-24T13:26:52Z</time>
      </trkpt>
      <trkpt lat="43.72959" lon="6.94927">
        <ele>1116.2</ele>
        <time>2011-11-24T13:26:55Z</time>
      </trkpt>
      <trkpt lat="43.72954" lon="6.94925">
        <ele>1117.1</ele>
        <time>2011-11-24T13:26:58Z</time>
      </trkpt>
      <trkpt lat="43.72949" lon="6.94923">
        <ele>1118</ele>
        <time>2011-11-24T13:27:01Z</time>
      </trkpt>
      <trkpt lat="43.72944" lon="6.94923">
        <ele>1117.7</ele>
        <time>2011-11-24T13:27:04Z</time>
      </trkpt>
      <trkpt lat="43.72938" lon="6.94924">
        <ele>1119</ele>
        <time>2011-11-24T13:27:07Z</time>
      </trkpt>
      <trkpt lat="43.72932" lon="6.94926">
        <ele>1119.3</ele>
        <time>2011-11-24T13:27:10Z</time>
      </trkpt>
      <trkpt lat="43.72926" lon="6.94927">
        <ele>1119.6</ele>
        <time>2011-11-24T13:27:13Z</time>
      </trkpt>
      <trkpt lat="43.7292" lon="6.94928">
        <ele>1120.3</ele>
        <time>2011-11-24T13:27:16Z</time>
      </trkpt>
      <trkpt lat="43.72915" lon="6.94926">
        <ele>1121.3</ele>
        <time>2011-11-24T13:27:19Z</time>
      </trkpt>
      <trkpt lat="43.7291" lon="6.94925">
        <ele>1121.7</ele>
        <time>2011-11-24T13:27:22Z</time>
      </trkpt>
      <trkpt lat="43.72904" lon="6.94924">
        <ele>1122.1</ele>
        <time>2011-11-24T13:27:25Z</time>
      </trkpt>
      <trkpt lat="43.72898" lon="6.94922">
        <ele>1122.8</ele>
        <time>2011-11-24T13:27:28Z</time>
      </trkpt>
      <trkpt lat="43.72893" lon="6.9492">
        <ele>1123.5</ele>
        <time>2011-11-24T13:27:31Z</time>
      </trkpt>
      <trkpt lat="43.72887" lon="6.9492">
        <ele>1124</ele>
        <time>2011-11-24T13:27:34Z</time>
      </trkpt>
      <trkpt lat="43.72882" lon="6.94918">
        <ele>1124.6</ele>
        <time>2011-11-24T13:27:37Z</time>
      </trkpt>
      <trkpt lat="43.72876" lon="6.94917">
        <ele>1125.2</ele>
        <time>2011-11-24T13:27:40Z</time>
      </trkpt>
      <trkpt lat="43.72871" lon="6.94913">
        <ele>1125.3</ele>
        <time>2011-11-24T13:27:43Z</time>
      </trkpt>
      <trkpt lat="43.72867" lon="6.94909">
        <ele>1125.8</ele>
        <time>2011-11-24T13:27:46Z</time>
      </trkpt>
      <trkpt lat="43.72862" lon="6.94903">
        <ele>1126</ele>
        <time>2011-11-24T13:27:49Z</time>
      </trkpt>
      <trkpt lat="43.72856" lon="6.94901">
        <ele>1127.1</ele>
        <time>2011-11-24T13:27:52Z</time>
      </trkpt>
      <trkpt lat="43.72852" lon="6.94897">
        <ele>1127.7</ele>
        <time>2011-11-24T13:27:55Z</time>
      </trkpt>
      <trkpt lat="43.72849" lon="6.94892">
        <ele>1127.3</ele>
        <time>2011-11-24T13:27:58Z</time>
      </trkpt>
      <trkpt lat="43.72851" lon="6.94886">
        <ele>1128.6</ele>
        <time>2011-11-24T13:28:00Z</time>
      </trkpt>
      <trkpt lat="43.72854" lon="6.94879">
        <ele>1129.5</ele>
        <time>2011-11-24T13:28:03Z</time>
      </trkpt>
      <trkpt lat="43.72854" lon="6.94872">
        <ele>1129.9</ele>
        <time>2011-11-24T13:28:06Z</time>
      </trkpt>
      <trkpt lat="43.72857" lon="6.94865">
        <ele>1130</ele>
        <time>2011-11-24T13:28:09Z</time>
      </trkpt>
      <trkpt lat="43.72858" lon="6.94856">
        <ele>1130.3</ele>
        <time>2011-11-24T13:28:12Z</time>
      </trkpt>
      <trkpt lat="43.72855" lon="6.9485">
        <ele>1130.7</ele>
        <time>2011-11-24T13:28:15Z</time>
      </trkpt>
      <trkpt lat="43.72851" lon="6.94845">
        <ele>1131.3</ele>
        <time>2011-11-24T13:28:18Z</time>
      </trkpt>
      <trkpt lat="43.72846" lon="6.94841">
        <ele>1131</ele>
        <time>2011-11-24T13:28:21Z</time>
      </trkpt>
      <trkpt lat="43.72842" lon="6.94835">
        <ele>1132</ele>
        <time>2011-11-24T13:28:25Z</time>
      </trkpt>
      <trkpt lat="43.72839" lon="6.94828">
        <ele>1132.6</ele>
        <time>2011-11-24T13:28:28Z</time>
      </trkpt>
      <trkpt lat="43.72835" lon="6.94821">
        <ele>1132.2</ele>
        <time>2011-11-24T13:28:31Z</time>
      </trkpt>
      <trkpt lat="43.72834" lon="6.94812">
        <ele>1133</ele>
        <time>2011-11-24T13:28:34Z</time>
      </trkpt>
      <trkpt lat="43.72836" lon="6.94803">
        <ele>1133.7</ele>
        <time>2011-11-24T13:28:37Z</time>
      </trkpt>
      <trkpt lat="43.72837" lon="6.94797">
        <ele>1134.1</ele>
        <time>2011-11-24T13:28:39Z</time>
      </trkpt>
      <trkpt lat="43.72837" lon="6.9479">
        <ele>1134.8</ele>
        <time>2011-11-24T13:28:42Z</time>
      </trkpt>
      <trkpt lat="43.72838" lon="6.94784">
        <ele>1135.7</ele>
        <time>2011-11-24T13:28:45Z</time>
      </trkpt>
      <trkpt lat="43.72837" lon="6.94777">
        <ele>1136.4</ele>
        <time>2011-11-24T13:28:48Z</time>
      </trkpt>
      <trkpt lat="43.72835" lon="6.9477">
        <ele>1136.3</ele>
        <time>2011-11-24T13:28:51Z</time>
      </trkpt>
      <trkpt lat="43.72833" lon="6.94764">
        <ele>1136.9</ele>
        <time>2011-11-24T13:28:54Z</time>
      </trkpt>
      <trkpt lat="43.72832" lon="6.94757">
        <ele>1137.9</ele>
        <time>2011-11-24T13:28:57Z</time>
      </trkpt>
      <trkpt lat="43.7283" lon="6.94751">
        <ele>1138.6</ele>
        <time>2011-11-24T13:29:00Z</time>
      </trkpt>
      <trkpt lat="43.72828" lon="6.94745">
        <ele>1139.4</ele>
        <time>2011-11-24T13:29:03Z</time>
      </trkpt>
      <trkpt lat="43.72824" lon="6.94739">
        <ele>1139.9</ele>
        <time>2011-11-24T13:29:06Z</time>
      </trkpt>
      <trkpt lat="43.72821" lon="6.94734">
        <ele>1140.2</ele>
        <time>2011-11-24T13:29:09Z</time>
      </trkpt>
      <trkpt lat="43.72818" lon="6.94729">
        <ele>1140.7</ele>
        <time>2011-11-24T13:29:12Z</time>
      </trkpt>
      <trkpt lat="43.72814" lon="6.94723">
        <ele>1141.2</ele>
        <time>2011-11-24T13:29:15Z</time>
      </trkpt>
      <trkpt lat="43.72809" lon="6.94719">
        <ele>1142.2</ele>
        <time>2011-11-24T13:29:18Z</time>
      </trkpt>
      <trkpt lat="43.72806" lon="6.94714">
        <ele>1142.6</ele>
        <time>2011-11-24T13:29:21Z</time>
      </trkpt>
      <trkpt lat="43.72802" lon="6.94711">
        <ele>1143.7</ele>
        <time>2011-11-24T13:29:23Z</time>
      </trkpt>
      <trkpt lat="43.72798" lon="6.94704">
        <ele>1143.9</ele>
        <time>2011-11-24T13:29:26Z</time>
      </trkpt>
      <trkpt lat="43.72799" lon="6.94698">
        <ele>1145.2</ele>
        <time>2011-11-24T13:29:28Z</time>
      </trkpt>
      <trkpt lat="43.72798" lon="6.94689">
        <ele>1146</ele>
        <time>2011-11-24T13:29:31Z</time>
      </trkpt>
      <trkpt lat="43.72795" lon="6.9468">
        <ele>1146.2</ele>
        <time>2011-11-24T13:29:34Z</time>
      </trkpt>
      <trkpt lat="43.72793" lon="6.94675">
        <ele>1146.2</ele>
        <time>2011-11-24T13:29:36Z</time>
      </trkpt>
      <trkpt lat="43.72791" lon="6.94669">
        <ele>1146.5</ele>
        <time>2011-11-24T13:29:38Z</time>
      </trkpt>
      <trkpt lat="43.72791" lon="6.9466">
        <ele>1146.6</ele>
        <time>2011-11-24T13:29:41Z</time>
      </trkpt>
      <trkpt lat="43.72789" lon="6.94652">
        <ele>1147.7</ele>
        <time>2011-11-24T13:29:44Z</time>
      </trkpt>
      <trkpt lat="43.72788" lon="6.94645">
        <ele>1147.6</ele>
        <time>2011-11-24T13:29:47Z</time>
      </trkpt>
      <trkpt lat="43.72786" lon="6.94637">
        <ele>1148.2</ele>
        <time>2011-11-24T13:29:50Z</time>
      </trkpt>
      <trkpt lat="43.72779" lon="6.9463">
        <ele>1148.8</ele>
        <time>2011-11-24T13:29:52Z</time>
      </trkpt>
      <trkpt lat="43.72774" lon="6.94626">
        <ele>1149.8</ele>
        <time>2011-11-24T13:29:54Z</time>
      </trkpt>
      <trkpt lat="43.72769" lon="6.94624">
        <ele>1149.8</ele>
        <time>2011-11-24T13:29:56Z</time>
      </trkpt>
      <trkpt lat="43.72764" lon="6.94624">
        <ele>1150.5</ele>
        <time>2011-11-24T13:29:59Z</time>
      </trkpt>
      <trkpt lat="43.72757" lon="6.94624">
        <ele>1151.3</ele>
        <time>2011-11-24T13:30:02Z</time>
      </trkpt>
      <trkpt lat="43.72751" lon="6.94624">
        <ele>1151.8</ele>
        <time>2011-11-24T13:30:04Z</time>
      </trkpt>
      <trkpt lat="43.72746" lon="6.94625">
        <ele>1151.8</ele>
        <time>2011-11-24T13:30:06Z</time>
      </trkpt>
      <trkpt lat="43.72742" lon="6.94628">
        <ele>1152.8</ele>
        <time>2011-11-24T13:30:07Z</time>
      </trkpt>
      <trkpt lat="43.72737" lon="6.94631">
        <ele>1153</ele>
        <time>2011-11-24T13:30:08Z</time>
      </trkpt>
      <trkpt lat="43.72732" lon="6.94636">
        <ele>1160</ele>
        <time>2011-11-24T13:30:10Z</time>
      </trkpt>
      <trkpt lat="43.72728" lon="6.94644">
        <ele>1159.2</ele>
        <time>2011-11-24T13:30:13Z</time>
      </trkpt>
      <trkpt lat="43.72724" lon="6.94651">
        <ele>1159.7</ele>
        <time>2011-11-24T13:30:15Z</time>
      </trkpt>
      <trkpt lat="43.72718" lon="6.94659">
        <ele>1160</ele>
        <time>2011-11-24T13:30:17Z</time>
      </trkpt>
      <trkpt lat="43.72711" lon="6.94666">
        <ele>1160.1</ele>
        <time>2011-11-24T13:30:19Z</time>
      </trkpt>
      <trkpt lat="43.72706" lon="6.94672">
        <ele>1159.7</ele>
        <time>2011-11-24T13:30:21Z</time>
      </trkpt>
      <trkpt lat="43.72703" lon="6.94678">
        <ele>1158.8</ele>
        <time>2011-11-24T13:30:23Z</time>
      </trkpt>
      <trkpt lat="43.72698" lon="6.94685">
        <ele>1158.2</ele>
        <time>2011-11-24T13:30:25Z</time>
      </trkpt>
      <trkpt lat="43.72693" lon="6.94693">
        <ele>1157.1</ele>
        <time>2011-11-24T13:30:27Z</time>
      </trkpt>
      <trkpt lat="43.72688" lon="6.94701">
        <ele>1156.7</ele>
        <time>2011-11-24T13:30:29Z</time>
      </trkpt>
      <trkpt lat="43.72683" lon="6.94708">
        <ele>1156.3</ele>
        <time>2011-11-24T13:30:31Z</time>
      </trkpt>
      <trkpt lat="43.72678" lon="6.94712">
        <ele>1156.1</ele>
        <time>2011-11-24T13:30:33Z</time>
      </trkpt>
      <trkpt lat="43.72671" lon="6.94719">
        <ele>1155.5</ele>
        <time>2011-11-24T13:30:35Z</time>
      </trkpt>
      <trkpt lat="43.72668" lon="6.94723">
        <ele>1155.5</ele>
        <time>2011-11-24T13:30:36Z</time>
      </trkpt>
      <trkpt lat="43.7266" lon="6.94728">
        <ele>1154.7</ele>
        <time>2011-11-24T13:30:38Z</time>
      </trkpt>
      <trkpt lat="43.72655" lon="6.9473">
        <ele>1154.3</ele>
        <time>2011-11-24T13:30:39Z</time>
      </trkpt>
      <trkpt lat="43.72647" lon="6.94731">
        <ele>1153.7</ele>
        <time>2011-11-24T13:30:41Z</time>
      </trkpt>
      <trkpt lat="43.72639" lon="6.94728">
        <ele>1152.8</ele>
        <time>2011-11-24T13:30:43Z</time>
      </trkpt>
      <trkpt lat="43.7263" lon="6.9473">
        <ele>1151.3</ele>
        <time>2011-11-24T13:30:45Z</time>
      </trkpt>
      <trkpt lat="43.72625" lon="6.94732">
        <ele>1150.6</ele>
        <time>2011-11-24T13:30:46Z</time>
      </trkpt>
      <trkpt lat="43.72619" lon="6.94733">
        <ele>1150.2</ele>
        <time>2011-11-24T13:30:47Z</time>
      </trkpt>
      <trkpt lat="43.72614" lon="6.94735">
        <ele>1150.2</ele>
        <time>2011-11-24T13:30:48Z</time>
      </trkpt>
      <trkpt lat="43.72609" lon="6.94738">
        <ele>1150</ele>
        <time>2011-11-24T13:30:49Z</time>
      </trkpt>
      <trkpt lat="43.72604" lon="6.9474">
        <ele>1149.6</ele>
        <time>2011-11-24T13:30:50Z</time>
      </trkpt>
      <trkpt lat="43.726" lon="6.94744">
        <ele>1149.7</ele>
        <time>2011-11-24T13:30:51Z</time>
      </trkpt>
      <trkpt lat="43.72597" lon="6.94748">
        <ele>1149</ele>
        <time>2011-11-24T13:30:52Z</time>
      </trkpt>
      <trkpt lat="43.72592" lon="6.94756">
        <ele>1147.6</ele>
        <time>2011-11-24T13:30:54Z</time>
      </trkpt>
      <trkpt lat="43.72587" lon="6.94758">
        <ele>1148.2</ele>
        <time>2011-11-24T13:30:56Z</time>
      </trkpt>
      <trkpt lat="43.72581" lon="6.94756">
        <ele>1149</ele>
        <time>2011-11-24T13:30:59Z</time>
      </trkpt>
      <trkpt lat="43.72576" lon="6.94754">
        <ele>1149.9</ele>
        <time>2011-11-24T13:31:01Z</time>
      </trkpt>
      <trkpt lat="43.72571" lon="6.94752">
        <ele>1148.3</ele>
        <time>2011-11-24T13:31:03Z</time>
      </trkpt>
      <trkpt lat="43.72566" lon="6.94746">
        <ele>1146.8</ele>
        <time>2011-11-24T13:31:06Z</time>
      </trkpt>
      <trkpt lat="43.72563" lon="6.94742">
        <ele>1147.4</ele>
        <time>2011-11-24T13:31:08Z</time>
      </trkpt>
      <trkpt lat="43.7256" lon="6.94737">
        <ele>1147.5</ele>
        <time>2011-11-24T13:31:10Z</time>
      </trkpt>
      <trkpt lat="43.72555" lon="6.9473">
        <ele>1147.3</ele>
        <time>2011-11-24T13:31:13Z</time>
      </trkpt>
      <trkpt lat="43.72552" lon="6.94721">
        <ele>1147.8</ele>
        <time>2011-11-24T13:31:15Z</time>
      </trkpt>
      <trkpt lat="43.72557" lon="6.94718">
        <ele>1148.4</ele>
        <time>2011-11-24T13:31:18Z</time>
      </trkpt>
      <trkpt lat="43.72562" lon="6.94716">
        <ele>1149.1</ele>
        <time>2011-11-24T13:31:21Z</time>
      </trkpt>
      <trkpt lat="43.72567" lon="6.94712">
        <ele>1148.4</ele>
        <time>2011-11-24T13:31:25Z</time>
      </trkpt>
      <trkpt lat="43.72572" lon="6.94715">
        <ele>1148</ele>
        <time>2011-11-24T13:31:29Z</time>
      </trkpt>
      <trkpt lat="43.72571" lon="6.94722">
        <ele>1147.8</ele>
        <time>2011-11-24T13:31:34Z</time>
      </trkpt>
      <trkpt lat="43.72566" lon="6.94722">
        <ele>1147.6</ele>
        <time>2011-11-24T13:31:36Z</time>
      </trkpt>
      <trkpt lat="43.72562" lon="6.94715">
        <ele>1148.4</ele>
        <time>2011-11-24T13:31:40Z</time>
      </trkpt>
      <trkpt lat="43.72557" lon="6.94715">
        <ele>1150.4</ele>
        <time>2011-11-24T13:31:43Z</time>
      </trkpt>
      <trkpt lat="43.72554" lon="6.9472">
        <ele>1149.4</ele>
        <time>2011-11-24T13:31:45Z</time>
      </trkpt>
      <trkpt lat="43.72555" lon="6.9473">
        <ele>1148.4</ele>
        <time>2011-11-24T13:31:47Z</time>
      </trkpt>
      <trkpt lat="43.72558" lon="6.94737">
        <ele>1147.5</ele>
        <time>2011-11-24T13:31:49Z</time>
      </trkpt>
      <trkpt lat="43.72563" lon="6.94743">
        <ele>1147.4</ele>
        <time>2011-11-24T13:31:51Z</time>
      </trkpt>
      <trkpt lat="43.72566" lon="6.94747">
        <ele>1147.1</ele>
        <time>2011-11-24T13:31:52Z</time>
      </trkpt>
      <trkpt lat="43.72572" lon="6.94753">
        <ele>1147.4</ele>
        <time>2011-11-24T13:31:54Z</time>
      </trkpt>
      <trkpt lat="43.72577" lon="6.94759">
        <ele>1147.9</ele>
        <time>2011-11-24T13:31:56Z</time>
      </trkpt>
      <trkpt lat="43.72582" lon="6.94764">
        <ele>1148.6</ele>
        <time>2011-11-24T13:31:58Z</time>
      </trkpt>
      <trkpt lat="43.72588" lon="6.9477">
        <ele>1149.3</ele>
        <time>2011-11-24T13:32:00Z</time>
      </trkpt>
      <trkpt lat="43.72582" lon="6.94796">
        <ele>1146.9</ele>
        <time>2011-11-24T13:32:02Z</time>
      </trkpt>
      <trkpt lat="43.72581" lon="6.94804">
        <ele>1145.7</ele>
        <time>2011-11-24T13:32:03Z</time>
      </trkpt>
      <trkpt lat="43.72581" lon="6.94814">
        <ele>1145.4</ele>
        <time>2011-11-24T13:32:04Z</time>
      </trkpt>
      <trkpt lat="43.72579" lon="6.94821">
        <ele>1145.2</ele>
        <time>2011-11-24T13:32:05Z</time>
      </trkpt>
      <trkpt lat="43.72579" lon="6.94829">
        <ele>1144.7</ele>
        <time>2011-11-24T13:32:06Z</time>
      </trkpt>
      <trkpt lat="43.72578" lon="6.94838">
        <ele>1145.9</ele>
        <time>2011-11-24T13:32:07Z</time>
      </trkpt>
      <trkpt lat="43.72578" lon="6.94846">
        <ele>1144.8</ele>
        <time>2011-11-24T13:32:08Z</time>
      </trkpt>
      <trkpt lat="43.72578" lon="6.94852">
        <ele>1144</ele>
        <time>2011-11-24T13:32:09Z</time>
      </trkpt>
      <trkpt lat="43.72579" lon="6.94859">
        <ele>1143.4</ele>
        <time>2011-11-24T13:32:10Z</time>
      </trkpt>
      <trkpt lat="43.72577" lon="6.94865">
        <ele>1142.8</ele>
        <time>2011-11-24T13:32:11Z</time>
      </trkpt>
      <trkpt lat="43.72576" lon="6.94872">
        <ele>1142.7</ele>
        <time>2011-11-24T13:32:12Z</time>
      </trkpt>
      <trkpt lat="43.72576" lon="6.94879">
        <ele>1142.3</ele>
        <time>2011-11-24T13:32:13Z</time>
      </trkpt>
      <trkpt lat="43.72576" lon="6.94887">
        <ele>1141.7</ele>
        <time>2011-11-24T13:32:14Z</time>
      </trkpt>
      <trkpt lat="43.72576" lon="6.94894">
        <ele>1141.1</ele>
        <time>2011-11-24T13:32:15Z</time>
      </trkpt>
      <trkpt lat="43.72575" lon="6.94902">
        <ele>1140.7</ele>
        <time>2011-11-24T13:32:16Z</time>
      </trkpt>
      <trkpt lat="43.72573" lon="6.9491">
        <ele>1140.4</ele>
        <time>2011-11-24T13:32:17Z</time>
      </trkpt>
      <trkpt lat="43.72569" lon="6.94915">
        <ele>1140.6</ele>
        <time>2011-11-24T13:32:18Z</time>
      </trkpt>
      <trkpt lat="43.72563" lon="6.94911">
        <ele>1139.2</ele>
        <time>2011-11-24T13:32:19Z</time>
      </trkpt>
      <trkpt lat="43.72558" lon="6.94904">
        <ele>1138.2</ele>
        <time>2011-11-24T13:32:20Z</time>
      </trkpt>
      <trkpt lat="43.72553" lon="6.94896">
        <ele>1137.5</ele>
        <time>2011-11-24T13:32:21Z</time>
      </trkpt>
      <trkpt lat="43.7255" lon="6.94885">
        <ele>1135.9</ele>
        <time>2011-11-24T13:32:22Z</time>
      </trkpt>
      <trkpt lat="43.72547" lon="6.94873">
        <ele>1134.2</ele>
        <time>2011-11-24T13:32:23Z</time>
      </trkpt>
      <trkpt lat="43.72544" lon="6.9486">
        <ele>1133.5</ele>
        <time>2011-11-24T13:32:24Z</time>
      </trkpt>
      <trkpt lat="43.7254" lon="6.94847">
        <ele>1133.2</ele>
        <time>2011-11-24T13:32:25Z</time>
      </trkpt>
      <trkpt lat="43.72537" lon="6.9483">
        <ele>1131.2</ele>
        <time>2011-11-24T13:32:26Z</time>
      </trkpt>
      <trkpt lat="43.72532" lon="6.94814">
        <ele>1130.1</ele>
        <time>2011-11-24T13:32:27Z</time>
      </trkpt>
      <trkpt lat="43.72527" lon="6.94799">
        <ele>1128.6</ele>
        <time>2011-11-24T13:32:28Z</time>
      </trkpt>
      <trkpt lat="43.7252" lon="6.94784">
        <ele>1126.6</ele>
        <time>2011-11-24T13:32:29Z</time>
      </trkpt>
      <trkpt lat="43.72513" lon="6.94771">
        <ele>1125.7</ele>
        <time>2011-11-24T13:32:30Z</time>
      </trkpt>
      <trkpt lat="43.72501" lon="6.94762">
        <ele>1123.6</ele>
        <time>2011-11-24T13:32:31Z</time>
      </trkpt>
      <trkpt lat="43.7249" lon="6.94753">
        <ele>1123.1</ele>
        <time>2011-11-24T13:32:32Z</time>
      </trkpt>
      <trkpt lat="43.72479" lon="6.94746">
        <ele>1122.4</ele>
        <time>2011-11-24T13:32:33Z</time>
      </trkpt>
      <trkpt lat="43.72467" lon="6.9474">
        <ele>1122.1</ele>
        <time>2011-11-24T13:32:34Z</time>
      </trkpt>
      <trkpt lat="43.72451" lon="6.94741">
        <ele>1117.4</ele>
        <time>2011-11-24T13:32:35Z</time>
      </trkpt>
      <trkpt lat="43.72438" lon="6.94739">
        <ele>1116.2</ele>
        <time>2011-11-24T13:32:36Z</time>
      </trkpt>
      <trkpt lat="43.72422" lon="6.94745">
        <ele>1111.9</ele>
        <time>2011-11-24T13:32:37Z</time>
      </trkpt>
      <trkpt lat="43.72407" lon="6.94748">
        <ele>1111</ele>
        <time>2011-11-24T13:32:38Z</time>
      </trkpt>
      <trkpt lat="43.72391" lon="6.94752">
        <ele>1107.4</ele>
        <time>2011-11-24T13:32:39Z</time>
      </trkpt>
      <trkpt lat="43.72376" lon="6.94756">
        <ele>1105.8</ele>
        <time>2011-11-24T13:32:40Z</time>
      </trkpt>
      <trkpt lat="43.72362" lon="6.94758">
        <ele>1104.9</ele>
        <time>2011-11-24T13:32:41Z</time>
      </trkpt>
      <trkpt lat="43.7235" lon="6.94761">
        <ele>1104.3</ele>
        <time>2011-11-24T13:32:42Z</time>
      </trkpt>
      <trkpt lat="43.72338" lon="6.94763">
        <ele>1104</ele>
        <time>2011-11-24T13:32:43Z</time>
      </trkpt>
      <trkpt lat="43.72327" lon="6.94765">
        <ele>1103.2</ele>
        <time>2011-11-24T13:32:44Z</time>
      </trkpt>
      <trkpt lat="43.72318" lon="6.94767">
        <ele>1103</ele>
        <time>2011-11-24T13:32:45Z</time>
      </trkpt>
      <trkpt lat="43.72309" lon="6.94767">
        <ele>1102.7</ele>
        <time>2011-11-24T13:32:46Z</time>
      </trkpt>
      <trkpt lat="43.72298" lon="6.94766">
        <ele>1102.2</ele>
        <time>2011-11-24T13:32:47Z</time>
      </trkpt>
      <trkpt lat="43.72292" lon="6.94756">
        <ele>1101.3</ele>
        <time>2011-11-24T13:32:48Z</time>
      </trkpt>
      <trkpt lat="43.72283" lon="6.94748">
        <ele>1100.9</ele>
        <time>2011-11-24T13:32:49Z</time>
      </trkpt>
      <trkpt lat="43.72274" lon="6.94737">
        <ele>1096.1</ele>
        <time>2011-11-24T13:32:50Z</time>
      </trkpt>
      <trkpt lat="43.72266" lon="6.94727">
        <ele>1095.1</ele>
        <time>2011-11-24T13:32:51Z</time>
      </trkpt>
      <trkpt lat="43.72258" lon="6.94719">
        <ele>1094.3</ele>
        <time>2011-11-24T13:32:52Z</time>
      </trkpt>
      <trkpt lat="43.72249" lon="6.94711">
        <ele>1094.1</ele>
        <time>2011-11-24T13:32:53Z</time>
      </trkpt>
      <trkpt lat="43.72241" lon="6.94704">
        <ele>1093.5</ele>
        <time>2011-11-24T13:32:54Z</time>
      </trkpt>
      <trkpt lat="43.72233" lon="6.94698">
        <ele>1091.9</ele>
        <time>2011-11-24T13:32:55Z</time>
      </trkpt>
      <trkpt lat="43.72226" lon="6.94693">
        <ele>1090.4</ele>
        <time>2011-11-24T13:32:56Z</time>
      </trkpt>
      <trkpt lat="43.72218" lon="6.94687">
        <ele>1089.6</ele>
        <time>2011-11-24T13:32:57Z</time>
      </trkpt>
      <trkpt lat="43.7221" lon="6.94678">
        <ele>1088.9</ele>
        <time>2011-11-24T13:32:58Z</time>
      </trkpt>
      <trkpt lat="43.72201" lon="6.94668">
        <ele>1088.3</ele>
        <time>2011-11-24T13:32:59Z</time>
      </trkpt>
      <trkpt lat="43.72192" lon="6.94656">
        <ele>1089</ele>
        <time>2011-11-24T13:33:00Z</time>
      </trkpt>
      <trkpt lat="43.72184" lon="6.94646">
        <ele>1087.9</ele>
        <time>2011-11-24T13:33:01Z</time>
      </trkpt>
      <trkpt lat="43.72176" lon="6.94636">
        <ele>1087.5</ele>
        <time>2011-11-24T13:33:02Z</time>
      </trkpt>
      <trkpt lat="43.72169" lon="6.94628">
        <ele>1087.5</ele>
        <time>2011-11-24T13:33:03Z</time>
      </trkpt>
      <trkpt lat="43.72163" lon="6.94617">
        <ele>1088.4</ele>
        <time>2011-11-24T13:33:04Z</time>
      </trkpt>
      <trkpt lat="43.72156" lon="6.94607">
        <ele>1089.4</ele>
        <time>2011-11-24T13:33:05Z</time>
      </trkpt>
      <trkpt lat="43.72148" lon="6.94599">
        <ele>1090.3</ele>
        <time>2011-11-24T13:33:06Z</time>
      </trkpt>
      <trkpt lat="43.72141" lon="6.94593">
        <ele>1088.3</ele>
        <time>2011-11-24T13:33:07Z</time>
      </trkpt>
      <trkpt lat="43.72134" lon="6.94588">
        <ele>1088.3</ele>
        <time>2011-11-24T13:33:08Z</time>
      </trkpt>
      <trkpt lat="43.72129" lon="6.94583">
        <ele>1089.2</ele>
        <time>2011-11-24T13:33:09Z</time>
      </trkpt>
      <trkpt lat="43.72124" lon="6.94579">
        <ele>1089.3</ele>
        <time>2011-11-24T13:33:10Z</time>
      </trkpt>
      <trkpt lat="43.7212" lon="6.94576">
        <ele>1089.1</ele>
        <time>2011-11-24T13:33:11Z</time>
      </trkpt>
      <trkpt lat="43.72114" lon="6.9457">
        <ele>1088.4</ele>
        <time>2011-11-24T13:33:13Z</time>
      </trkpt>
      <trkpt lat="43.72109" lon="6.94566">
        <ele>1087.6</ele>
        <time>2011-11-24T13:33:15Z</time>
      </trkpt>
      <trkpt lat="43.72106" lon="6.94559">
        <ele>1088.2</ele>
        <time>2011-11-24T13:33:17Z</time>
      </trkpt>
      <trkpt lat="43.72099" lon="6.94557">
        <ele>1082.8</ele>
        <time>2011-11-24T13:33:21Z</time>
      </trkpt>
      <trkpt lat="43.72094" lon="6.94552">
        <ele>1085.1</ele>
        <time>2011-11-24T13:33:23Z</time>
      </trkpt>
      <trkpt lat="43.72087" lon="6.9455">
        <ele>1084.1</ele>
        <time>2011-11-24T13:33:25Z</time>
      </trkpt>
      <trkpt lat="43.72082" lon="6.9455">
        <ele>1084.8</ele>
        <time>2011-11-24T13:33:26Z</time>
      </trkpt>
      <trkpt lat="43.72086" lon="6.94548">
        <ele>1081.6</ele>
        <time>2011-11-24T13:33:27Z</time>
      </trkpt>
      <trkpt lat="43.72094" lon="6.94554">
        <ele>1082.7</ele>
        <time>2011-11-24T13:33:32Z</time>
      </trkpt>
      <trkpt lat="43.72101" lon="6.9456">
        <ele>1081.6</ele>
        <time>2011-11-24T13:33:34Z</time>
      </trkpt>
      <trkpt lat="43.72105" lon="6.94563">
        <ele>1081.3</ele>
        <time>2011-11-24T13:33:35Z</time>
      </trkpt>
      <trkpt lat="43.7211" lon="6.94566">
        <ele>1080.7</ele>
        <time>2011-11-24T13:33:36Z</time>
      </trkpt>
      <trkpt lat="43.72114" lon="6.94569">
        <ele>1079.8</ele>
        <time>2011-11-24T13:33:37Z</time>
      </trkpt>
      <trkpt lat="43.72118" lon="6.94573">
        <ele>1079.3</ele>
        <time>2011-11-24T13:33:38Z</time>
      </trkpt>
      <trkpt lat="43.72122" lon="6.94578">
        <ele>1078.7</ele>
        <time>2011-11-24T13:33:39Z</time>
      </trkpt>
      <trkpt lat="43.72127" lon="6.94583">
        <ele>1078.2</ele>
        <time>2011-11-24T13:33:40Z</time>
      </trkpt>
      <trkpt lat="43.72132" lon="6.94586">
        <ele>1077.3</ele>
        <time>2011-11-24T13:33:41Z</time>
      </trkpt>
      <trkpt lat="43.72136" lon="6.9459">
        <ele>1077.5</ele>
        <time>2011-11-24T13:33:42Z</time>
      </trkpt>
      <trkpt lat="43.7214" lon="6.94592">
        <ele>1077.6</ele>
        <time>2011-11-24T13:33:43Z</time>
      </trkpt>
      <trkpt lat="43.72148" lon="6.94597">
        <ele>1077</ele>
        <time>2011-11-24T13:33:45Z</time>
      </trkpt>
      <trkpt lat="43.72154" lon="6.94603">
        <ele>1076.4</ele>
        <time>2011-11-24T13:33:47Z</time>
      </trkpt>
      <trkpt lat="43.72159" lon="6.94606">
        <ele>1076.4</ele>
        <time>2011-11-24T13:33:49Z</time>
      </trkpt>
      <trkpt lat="43.7216" lon="6.94611">
        <ele>1076.8</ele>
        <time>2011-11-24T13:33:52Z</time>
      </trkpt>
      <trkpt lat="43.72156" lon="6.9461">
        <ele>1078.5</ele>
        <time>2011-11-24T13:33:54Z</time>
      </trkpt>
      <trkpt lat="43.72152" lon="6.94606">
        <ele>1076.7</ele>
        <time>2011-11-24T13:33:56Z</time>
      </trkpt>
      <trkpt lat="43.72143" lon="6.94602">
        <ele>1077.3</ele>
        <time>2011-11-24T13:33:58Z</time>
      </trkpt>
      <trkpt lat="43.72136" lon="6.94602">
        <ele>1076.5</ele>
        <time>2011-11-24T13:34:00Z</time>
      </trkpt>
      <trkpt lat="43.72128" lon="6.94601">
        <ele>1076.2</ele>
        <time>2011-11-24T13:34:02Z</time>
      </trkpt>
      <trkpt lat="43.7212" lon="6.94599">
        <ele>1077</ele>
        <time>2011-11-24T13:34:04Z</time>
      </trkpt>
      <trkpt lat="43.72112" lon="6.94595">
        <ele>1075.8</ele>
        <time>2011-11-24T13:34:06Z</time>
      </trkpt>
      <trkpt lat="43.72104" lon="6.9459">
        <ele>1076.8</ele>
        <time>2011-11-24T13:34:08Z</time>
      </trkpt>
      <trkpt lat="43.72097" lon="6.94588">
        <ele>1073.9</ele>
        <time>2011-11-24T13:34:10Z</time>
      </trkpt>
      <trkpt lat="43.72091" lon="6.94584">
        <ele>1074</ele>
        <time>2011-11-24T13:34:12Z</time>
      </trkpt>
      <trkpt lat="43.72084" lon="6.94583">
        <ele>1075.3</ele>
        <time>2011-11-24T13:34:14Z</time>
      </trkpt>
      <trkpt lat="43.72079" lon="6.94583">
        <ele>1073.5</ele>
        <time>2011-11-24T13:34:16Z</time>
      </trkpt>
      <trkpt lat="43.72071" lon="6.94581">
        <ele>1073.7</ele>
        <time>2011-11-24T13:34:18Z</time>
      </trkpt>
      <trkpt lat="43.72065" lon="6.94578">
        <ele>1073.4</ele>
        <time>2011-11-24T13:34:20Z</time>
      </trkpt>
      <trkpt lat="43.72059" lon="6.94574">
        <ele>1073.1</ele>
        <time>2011-11-24T13:34:22Z</time>
      </trkpt>
      <trkpt lat="43.72052" lon="6.94573">
        <ele>1072.4</ele>
        <time>2011-11-24T13:34:24Z</time>
      </trkpt>
      <trkpt lat="43.72045" lon="6.94571">
        <ele>1073.5</ele>
        <time>2011-11-24T13:34:26Z</time>
      </trkpt>
      <trkpt lat="43.7204" lon="6.94568">
        <ele>1075.1</ele>
        <time>2011-11-24T13:34:28Z</time>
      </trkpt>
      <trkpt lat="43.72035" lon="6.94566">
        <ele>1075.3</ele>
        <time>2011-11-24T13:34:30Z</time>
      </trkpt>
      <trkpt lat="43.72029" lon="6.94569">
        <ele>1074.8</ele>
        <time>2011-11-24T13:34:32Z</time>
      </trkpt>
      <trkpt lat="43.72023" lon="6.94569">
        <ele>1074.9</ele>
        <time>2011-11-24T13:34:34Z</time>
      </trkpt>
      <trkpt lat="43.72017" lon="6.94572">
        <ele>1072</ele>
        <time>2011-11-24T13:34:36Z</time>
      </trkpt>
      <trkpt lat="43.72011" lon="6.94576">
        <ele>1071.5</ele>
        <time>2011-11-24T13:34:38Z</time>
      </trkpt>
      <trkpt lat="43.72006" lon="6.94577">
        <ele>1070.8</ele>
        <time>2011-11-24T13:34:40Z</time>
      </trkpt>
      <trkpt lat="43.72002" lon="6.94581">
        <ele>1069.8</ele>
        <time>2011-11-24T13:34:42Z</time>
      </trkpt>
      <trkpt lat="43.71997" lon="6.9459">
        <ele>1068.7</ele>
        <time>2011-11-24T13:34:44Z</time>
      </trkpt>
      <trkpt lat="43.71991" lon="6.94595">
        <ele>1068.6</ele>
        <time>2011-11-24T13:34:46Z</time>
      </trkpt>
      <trkpt lat="43.71986" lon="6.94595">
        <ele>1067.8</ele>
        <time>2011-11-24T13:34:48Z</time>
      </trkpt>
      <trkpt lat="43.71982" lon="6.94591">
        <ele>1068.6</ele>
        <time>2011-11-24T13:34:50Z</time>
      </trkpt>
      <trkpt lat="43.71978" lon="6.94587">
        <ele>1069.8</ele>
        <time>2011-11-24T13:34:52Z</time>
      </trkpt>
      <trkpt lat="43.71974" lon="6.94584">
        <ele>1070.1</ele>
        <time>2011-11-24T13:34:54Z</time>
      </trkpt>
      <trkpt lat="43.71969" lon="6.9458">
        <ele>1067.1</ele>
        <time>2011-11-24T13:34:56Z</time>
      </trkpt>
      <trkpt lat="43.71962" lon="6.94575">
        <ele>1067.1</ele>
        <time>2011-11-24T13:34:59Z</time>
      </trkpt>
      <trkpt lat="43.71956" lon="6.94575">
        <ele>1067</ele>
        <time>2011-11-24T13:35:00Z</time>
      </trkpt>
      <trkpt lat="43.71951" lon="6.94574">
        <ele>1067.1</ele>
        <time>2011-11-24T13:35:01Z</time>
      </trkpt>
      <trkpt lat="43.71947" lon="6.94574">
        <ele>1067.5</ele>
        <time>2011-11-24T13:35:02Z</time>
      </trkpt>
      <trkpt lat="43.7194" lon="6.9457">
        <ele>1068.2</ele>
        <time>2011-11-24T13:35:03Z</time>
      </trkpt>
      <trkpt lat="43.71936" lon="6.94567">
        <ele>1068.6</ele>
        <time>2011-11-24T13:35:04Z</time>
      </trkpt>
      <trkpt lat="43.71923" lon="6.94577">
        <ele>1072.3</ele>
        <time>2011-11-24T13:35:06Z</time>
      </trkpt>
      <trkpt lat="43.71917" lon="6.9458">
        <ele>1071.9</ele>
        <time>2011-11-24T13:35:07Z</time>
      </trkpt>
      <trkpt lat="43.71913" lon="6.94584">
        <ele>1071</ele>
        <time>2011-11-24T13:35:08Z</time>
      </trkpt>
      <trkpt lat="43.71908" lon="6.94587">
        <ele>1071.4</ele>
        <time>2011-11-24T13:35:09Z</time>
      </trkpt>
      <trkpt lat="43.71902" lon="6.94589">
        <ele>1070.1</ele>
        <time>2011-11-24T13:35:10Z</time>
      </trkpt>
      <trkpt lat="43.71896" lon="6.94591">
        <ele>1069.2</ele>
        <time>2011-11-24T13:35:11Z</time>
      </trkpt>
      <trkpt lat="43.71892" lon="6.94586">
        <ele>1068.3</ele>
        <time>2011-11-24T13:35:13Z</time>
      </trkpt>
      <trkpt lat="43.71888" lon="6.94589">
        <ele>1067.2</ele>
        <time>2011-11-24T13:35:15Z</time>
      </trkpt>
      <trkpt lat="43.71884" lon="6.94594">
        <ele>1066</ele>
        <time>2011-11-24T13:35:17Z</time>
      </trkpt>
      <trkpt lat="43.71878" lon="6.94597">
        <ele>1065.2</ele>
        <time>2011-11-24T13:35:19Z</time>
      </trkpt>
      <trkpt lat="43.71874" lon="6.94597">
        <ele>1064.7</ele>
        <time>2011-11-24T13:35:20Z</time>
      </trkpt>
      <trkpt lat="43.71867" lon="6.94601">
        <ele>1062.4</ele>
        <time>2011-11-24T13:35:22Z</time>
      </trkpt>
      <trkpt lat="43.7186" lon="6.94609">
        <ele>1061.2</ele>
        <time>2011-11-24T13:35:24Z</time>
      </trkpt>
      <trkpt lat="43.71854" lon="6.94615">
        <ele>1061.9</ele>
        <time>2011-11-24T13:35:26Z</time>
      </trkpt>
      <trkpt lat="43.71847" lon="6.9462">
        <ele>1061.3</ele>
        <time>2011-11-24T13:35:28Z</time>
      </trkpt>
      <trkpt lat="43.7184" lon="6.94625">
        <ele>1060.9</ele>
        <time>2011-11-24T13:35:30Z</time>
      </trkpt>
      <trkpt lat="43.71835" lon="6.94628">
        <ele>1059.1</ele>
        <time>2011-11-24T13:35:32Z</time>
      </trkpt>
      <trkpt lat="43.71836" lon="6.94637">
        <ele>1056.1</ele>
        <time>2011-11-24T13:35:34Z</time>
      </trkpt>
      <trkpt lat="43.71838" lon="6.94647">
        <ele>1053.6</ele>
        <time>2011-11-24T13:35:36Z</time>
      </trkpt>
      <trkpt lat="43.7184" lon="6.94654">
        <ele>1053.1</ele>
        <time>2011-11-24T13:35:38Z</time>
      </trkpt>
      <trkpt lat="43.71835" lon="6.94654">
        <ele>1051.8</ele>
        <time>2011-11-24T13:35:39Z</time>
      </trkpt>
      <trkpt lat="43.71829" lon="6.94656">
        <ele>1050.7</ele>
        <time>2011-11-24T13:35:41Z</time>
      </trkpt>
      <trkpt lat="43.71825" lon="6.94658">
        <ele>1050.5</ele>
        <time>2011-11-24T13:35:42Z</time>
      </trkpt>
      <trkpt lat="43.7182" lon="6.94662">
        <ele>1050.2</ele>
        <time>2011-11-24T13:35:43Z</time>
      </trkpt>
      <trkpt lat="43.71815" lon="6.94666">
        <ele>1049.9</ele>
        <time>2011-11-24T13:35:44Z</time>
      </trkpt>
      <trkpt lat="43.7181" lon="6.9467">
        <ele>1049.7</ele>
        <time>2011-11-24T13:35:45Z</time>
      </trkpt>
      <trkpt lat="43.71804" lon="6.94672">
        <ele>1049.5</ele>
        <time>2011-11-24T13:35:46Z</time>
      </trkpt>
      <trkpt lat="43.71799" lon="6.94673">
        <ele>1048.6</ele>
        <time>2011-11-24T13:35:47Z</time>
      </trkpt>
      <trkpt lat="43.71794" lon="6.94676">
        <ele>1048.1</ele>
        <time>2011-11-24T13:35:49Z</time>
      </trkpt>
      <trkpt lat="43.71789" lon="6.94673">
        <ele>1047.3</ele>
        <time>2011-11-24T13:35:51Z</time>
      </trkpt>
      <trkpt lat="43.71795" lon="6.94668">
        <ele>1046.2</ele>
        <time>2011-11-24T13:35:54Z</time>
      </trkpt>
      <trkpt lat="43.718" lon="6.94667">
        <ele>1044.5</ele>
        <time>2011-11-24T13:35:56Z</time>
      </trkpt>
      <trkpt lat="43.71806" lon="6.94667">
        <ele>1044.3</ele>
        <time>2011-11-24T13:35:58Z</time>
      </trkpt>
      <trkpt lat="43.7181" lon="6.94669">
        <ele>1043.8</ele>
        <time>2011-11-24T13:36:00Z</time>
      </trkpt>
      <trkpt lat="43.71814" lon="6.94675">
        <ele>1042.5</ele>
        <time>2011-11-24T13:36:03Z</time>
      </trkpt>
      <trkpt lat="43.71812" lon="6.94668">
        <ele>1041.8</ele>
        <time>2011-11-24T13:36:28Z</time>
      </trkpt>
      <trkpt lat="43.71817" lon="6.94664">
        <ele>1040.9</ele>
        <time>2011-11-24T13:36:32Z</time>
      </trkpt>
      <trkpt lat="43.71821" lon="6.94659">
        <ele>1040.2</ele>
        <time>2011-11-24T13:36:35Z</time>
      </trkpt>
      <trkpt lat="43.71826" lon="6.94656">
        <ele>1040.5</ele>
        <time>2011-11-24T13:36:38Z</time>
      </trkpt>
      <trkpt lat="43.71831" lon="6.94653">
        <ele>1040.7</ele>
        <time>2011-11-24T13:36:41Z</time>
      </trkpt>
      <trkpt lat="43.71837" lon="6.94652">
        <ele>1041.8</ele>
        <time>2011-11-24T13:36:44Z</time>
      </trkpt>
      <trkpt lat="43.71839" lon="6.94646">
        <ele>1045.5</ele>
        <time>2011-11-24T13:36:57Z</time>
      </trkpt>
      <trkpt lat="43.71838" lon="6.94638">
        <ele>1045.4</ele>
        <time>2011-11-24T13:37:05Z</time>
      </trkpt>
      <trkpt lat="43.71841" lon="6.94632">
        <ele>1046.9</ele>
        <time>2011-11-24T13:37:11Z</time>
      </trkpt>
      <trkpt lat="43.71843" lon="6.94626">
        <ele>1046.9</ele>
        <time>2011-11-24T13:37:18Z</time>
      </trkpt>
      <trkpt lat="43.71847" lon="6.94622">
        <ele>1045.3</ele>
        <time>2011-11-24T13:37:24Z</time>
      </trkpt>
      <trkpt lat="43.71851" lon="6.94626">
        <ele>1046.4</ele>
        <time>2011-11-24T13:37:38Z</time>
      </trkpt>
      <trkpt lat="43.71853" lon="6.94633">
        <ele>1046.1</ele>
        <time>2011-11-24T13:37:42Z</time>
      </trkpt>
      <trkpt lat="43.71857" lon="6.94638">
        <ele>1046.5</ele>
        <time>2011-11-24T13:37:44Z</time>
      </trkpt>
      <trkpt lat="43.71861" lon="6.94644">
        <ele>1046.8</ele>
        <time>2011-11-24T13:37:47Z</time>
      </trkpt>
      <trkpt lat="43.71866" lon="6.94647">
        <ele>1045.6</ele>
        <time>2011-11-24T13:37:49Z</time>
      </trkpt>
      <trkpt lat="43.7187" lon="6.94652">
        <ele>1044.4</ele>
        <time>2011-11-24T13:37:52Z</time>
      </trkpt>
      <trkpt lat="43.71874" lon="6.94656">
        <ele>1044</ele>
        <time>2011-11-24T13:37:55Z</time>
      </trkpt>
      <trkpt lat="43.7188" lon="6.9466">
        <ele>1043.3</ele>
        <time>2011-11-24T13:37:58Z</time>
      </trkpt>
      <trkpt lat="43.71882" lon="6.94668">
        <ele>1044.1</ele>
        <time>2011-11-24T13:38:01Z</time>
      </trkpt>
      <trkpt lat="43.71882" lon="6.94675">
        <ele>1042.2</ele>
        <time>2011-11-24T13:38:04Z</time>
      </trkpt>
      <trkpt lat="43.71885" lon="6.9468">
        <ele>1042.3</ele>
        <time>2011-11-24T13:38:07Z</time>
      </trkpt>
      <trkpt lat="43.71888" lon="6.94684">
        <ele>1042.1</ele>
        <time>2011-11-24T13:38:09Z</time>
      </trkpt>
      <trkpt lat="43.71886" lon="6.94677">
        <ele>1045</ele>
        <time>2011-11-24T13:38:51Z</time>
      </trkpt>
      <trkpt lat="43.71884" lon="6.94671">
        <ele>1045.9</ele>
        <time>2011-11-24T13:38:54Z</time>
      </trkpt>
      <trkpt lat="43.71882" lon="6.94666">
        <ele>1046.7</ele>
        <time>2011-11-24T13:38:58Z</time>
      </trkpt>
      <trkpt lat="43.71878" lon="6.9466">
        <ele>1046.4</ele>
        <time>2011-11-24T13:39:01Z</time>
      </trkpt>
      <trkpt lat="43.71875" lon="6.94655">
        <ele>1046.8</ele>
        <time>2011-11-24T13:39:04Z</time>
      </trkpt>
      <trkpt lat="43.71871" lon="6.94648">
        <ele>1046.6</ele>
        <time>2011-11-24T13:39:07Z</time>
      </trkpt>
      <trkpt lat="43.71867" lon="6.94644">
        <ele>1046.2</ele>
        <time>2011-11-24T13:39:09Z</time>
      </trkpt>
      <trkpt lat="43.71862" lon="6.94641">
        <ele>1046</ele>
        <time>2011-11-24T13:39:11Z</time>
      </trkpt>
      <trkpt lat="43.71857" lon="6.94636">
        <ele>1045.4</ele>
        <time>2011-11-24T13:39:13Z</time>
      </trkpt>
      <trkpt lat="43.71851" lon="6.94632">
        <ele>1045.5</ele>
        <time>2011-11-24T13:39:15Z</time>
      </trkpt>
      <trkpt lat="43.71847" lon="6.94628">
        <ele>1045.8</ele>
        <time>2011-11-24T13:39:17Z</time>
      </trkpt>
      <trkpt lat="43.71843" lon="6.94624">
        <ele>1044.7</ele>
        <time>2011-11-24T13:39:21Z</time>
      </trkpt>
      <trkpt lat="43.71839" lon="6.94627">
        <ele>1045.5</ele>
        <time>2011-11-24T13:39:23Z</time>
      </trkpt>
      <trkpt lat="43.71836" lon="6.94632">
        <ele>1045.5</ele>
        <time>2011-11-24T13:39:25Z</time>
      </trkpt>
      <trkpt lat="43.71838" lon="6.94639">
        <ele>1043.8</ele>
        <time>2011-11-24T13:39:26Z</time>
      </trkpt>
      <trkpt lat="43.7184" lon="6.94648">
        <ele>1042.1</ele>
        <time>2011-11-24T13:39:28Z</time>
      </trkpt>
      <trkpt lat="43.71838" lon="6.94655">
        <ele>1041.5</ele>
        <time>2011-11-24T13:39:30Z</time>
      </trkpt>
      <trkpt lat="43.71831" lon="6.94656">
        <ele>1041.7</ele>
        <time>2011-11-24T13:39:32Z</time>
      </trkpt>
      <trkpt lat="43.71826" lon="6.94661">
        <ele>1041.3</ele>
        <time>2011-11-24T13:39:33Z</time>
      </trkpt>
      <trkpt lat="43.71819" lon="6.94668">
        <ele>1040.6</ele>
        <time>2011-11-24T13:39:34Z</time>
      </trkpt>
      <trkpt lat="43.71813" lon="6.94672">
        <ele>1039.7</ele>
        <time>2011-11-24T13:39:35Z</time>
      </trkpt>
      <trkpt lat="43.71806" lon="6.94676">
        <ele>1039.4</ele>
        <time>2011-11-24T13:39:36Z</time>
      </trkpt>
      <trkpt lat="43.71799" lon="6.94676">
        <ele>1039</ele>
        <time>2011-11-24T13:39:37Z</time>
      </trkpt>
      <trkpt lat="43.71793" lon="6.94678">
        <ele>1038.6</ele>
        <time>2011-11-24T13:39:38Z</time>
      </trkpt>
      <trkpt lat="43.71787" lon="6.94681">
        <ele>1039.1</ele>
        <time>2011-11-24T13:39:39Z</time>
      </trkpt>
      <trkpt lat="43.7178" lon="6.94683">
        <ele>1038.9</ele>
        <time>2011-11-24T13:39:40Z</time>
      </trkpt>
      <trkpt lat="43.71773" lon="6.94684">
        <ele>1039.2</ele>
        <time>2011-11-24T13:39:41Z</time>
      </trkpt>
      <trkpt lat="43.71767" lon="6.94685">
        <ele>1039.2</ele>
        <time>2011-11-24T13:39:42Z</time>
      </trkpt>
      <trkpt lat="43.71761" lon="6.94689">
        <ele>1038</ele>
        <time>2011-11-24T13:39:43Z</time>
      </trkpt>
      <trkpt lat="43.71755" lon="6.94694">
        <ele>1036.5</ele>
        <time>2011-11-24T13:39:44Z</time>
      </trkpt>
      <trkpt lat="43.7175" lon="6.94703">
        <ele>1036.2</ele>
        <time>2011-11-24T13:39:45Z</time>
      </trkpt>
      <trkpt lat="43.71744" lon="6.9471">
        <ele>1036.4</ele>
        <time>2011-11-24T13:39:46Z</time>
      </trkpt>
      <trkpt lat="43.71738" lon="6.94717">
        <ele>1035.1</ele>
        <time>2011-11-24T13:39:47Z</time>
      </trkpt>
      <trkpt lat="43.71733" lon="6.94723">
        <ele>1034.6</ele>
        <time>2011-11-24T13:39:48Z</time>
      </trkpt>
      <trkpt lat="43.71729" lon="6.94727">
        <ele>1033.8</ele>
        <time>2011-11-24T13:39:49Z</time>
      </trkpt>
      <trkpt lat="43.71725" lon="6.94732">
        <ele>1034.4</ele>
        <time>2011-11-24T13:39:50Z</time>
      </trkpt>
      <trkpt lat="43.7172" lon="6.94738">
        <ele>1033.9</ele>
        <time>2011-11-24T13:39:52Z</time>
      </trkpt>
      <trkpt lat="43.71723" lon="6.94747">
        <ele>1031.4</ele>
        <time>2011-11-24T13:40:16Z</time>
      </trkpt>
      <trkpt lat="43.71722" lon="6.94756">
        <ele>1030.9</ele>
        <time>2011-11-24T13:40:19Z</time>
      </trkpt>
      <trkpt lat="43.71722" lon="6.94764">
        <ele>1029.7</ele>
        <time>2011-11-24T13:40:21Z</time>
      </trkpt>
      <trkpt lat="43.71723" lon="6.94773">
        <ele>1029.3</ele>
        <time>2011-11-24T13:40:23Z</time>
      </trkpt>
      <trkpt lat="43.71725" lon="6.94783">
        <ele>1028.4</ele>
        <time>2011-11-24T13:40:25Z</time>
      </trkpt>
      <trkpt lat="43.71726" lon="6.94791">
        <ele>1028.1</ele>
        <time>2011-11-24T13:40:27Z</time>
      </trkpt>
      <trkpt lat="43.71726" lon="6.948">
        <ele>1027.3</ele>
        <time>2011-11-24T13:40:29Z</time>
      </trkpt>
      <trkpt lat="43.71726" lon="6.94808">
        <ele>1027.1</ele>
        <time>2011-11-24T13:40:31Z</time>
      </trkpt>
      <trkpt lat="43.71724" lon="6.94815">
        <ele>1026.5</ele>
        <time>2011-11-24T13:40:33Z</time>
      </trkpt>
      <trkpt lat="43.71719" lon="6.94821">
        <ele>1028.5</ele>
        <time>2011-11-24T13:40:35Z</time>
      </trkpt>
      <trkpt lat="43.71716" lon="6.9483">
        <ele>1028.4</ele>
        <time>2011-11-24T13:40:37Z</time>
      </trkpt>
      <trkpt lat="43.71714" lon="6.9484">
        <ele>1028.5</ele>
        <time>2011-11-24T13:40:39Z</time>
      </trkpt>
      <trkpt lat="43.71712" lon="6.94848">
        <ele>1028</ele>
        <time>2011-11-24T13:40:41Z</time>
      </trkpt>
      <trkpt lat="43.71715" lon="6.94856">
        <ele>1026.6</ele>
        <time>2011-11-24T13:40:43Z</time>
      </trkpt>
      <trkpt lat="43.71719" lon="6.94864">
        <ele>1025.2</ele>
        <time>2011-11-24T13:40:45Z</time>
      </trkpt>
      <trkpt lat="43.71722" lon="6.94871">
        <ele>1025.2</ele>
        <time>2011-11-24T13:40:47Z</time>
      </trkpt>
      <trkpt lat="43.71725" lon="6.9488">
        <ele>1023.7</ele>
        <time>2011-11-24T13:40:49Z</time>
      </trkpt>
      <trkpt lat="43.7173" lon="6.94887">
        <ele>1023.5</ele>
        <time>2011-11-24T13:40:51Z</time>
      </trkpt>
      <trkpt lat="43.71735" lon="6.94895">
        <ele>1022.4</ele>
        <time>2011-11-24T13:40:53Z</time>
      </trkpt>
      <trkpt lat="43.71737" lon="6.94901">
        <ele>1021.3</ele>
        <time>2011-11-24T13:40:54Z</time>
      </trkpt>
      <trkpt lat="43.71742" lon="6.94909">
        <ele>1020.5</ele>
        <time>2011-11-24T13:40:56Z</time>
      </trkpt>
      <trkpt lat="43.71746" lon="6.94916">
        <ele>1019.8</ele>
        <time>2011-11-24T13:40:58Z</time>
      </trkpt>
      <trkpt lat="43.71752" lon="6.94923">
        <ele>1017.8</ele>
        <time>2011-11-24T13:41:00Z</time>
      </trkpt>
      <trkpt lat="43.71757" lon="6.94932">
        <ele>1017</ele>
        <time>2011-11-24T13:41:02Z</time>
      </trkpt>
      <trkpt lat="43.7176" lon="6.94937">
        <ele>1016.8</ele>
        <time>2011-11-24T13:41:03Z</time>
      </trkpt>
      <trkpt lat="43.71763" lon="6.94942">
        <ele>1016.5</ele>
        <time>2011-11-24T13:41:04Z</time>
      </trkpt>
      <trkpt lat="43.71767" lon="6.94948">
        <ele>1016.3</ele>
        <time>2011-11-24T13:41:05Z</time>
      </trkpt>
      <trkpt lat="43.7177" lon="6.94954">
        <ele>1016.1</ele>
        <time>2011-11-24T13:41:06Z</time>
      </trkpt>
      <trkpt lat="43.71773" lon="6.94961">
        <ele>1015.8</ele>
        <time>2011-11-24T13:41:07Z</time>
      </trkpt>
      <trkpt lat="43.71778" lon="6.94966">
        <ele>1016.1</ele>
        <time>2011-11-24T13:41:08Z</time>
      </trkpt>
      <trkpt lat="43.71783" lon="6.94969">
        <ele>1015</ele>
        <time>2011-11-24T13:41:09Z</time>
      </trkpt>
      <trkpt lat="43.71788" lon="6.94969">
        <ele>1013</ele>
        <time>2011-11-24T13:41:10Z</time>
      </trkpt>
      <trkpt lat="43.71794" lon="6.94974">
        <ele>1011.9</ele>
        <time>2011-11-24T13:41:12Z</time>
      </trkpt>
      <trkpt lat="43.718" lon="6.94979">
        <ele>1010.9</ele>
        <time>2011-11-24T13:41:14Z</time>
      </trkpt>
      <trkpt lat="43.71805" lon="6.94982">
        <ele>1010.4</ele>
        <time>2011-11-24T13:41:16Z</time>
      </trkpt>
      <trkpt lat="43.71809" lon="6.94986">
        <ele>1009.9</ele>
        <time>2011-11-24T13:41:18Z</time>
      </trkpt>
      <trkpt lat="43.71814" lon="6.94988">
        <ele>1009.5</ele>
        <time>2011-11-24T13:41:21Z</time>
      </trkpt>
      <trkpt lat="43.7182" lon="6.94995">
        <ele>1010.2</ele>
        <time>2011-11-24T13:41:24Z</time>
      </trkpt>
      <trkpt lat="43.71819" lon="6.94987">
        <ele>1009.8</ele>
        <time>2011-11-24T13:41:45Z</time>
      </trkpt>
      <trkpt lat="43.71822" lon="6.94981">
        <ele>1009.8</ele>
        <time>2011-11-24T13:41:51Z</time>
      </trkpt>
      <trkpt lat="43.71826" lon="6.9498">
        <ele>1009.6</ele>
        <time>2011-11-24T13:42:01Z</time>
      </trkpt>
      <trkpt lat="43.7183" lon="6.94978">
        <ele>1010</ele>
        <time>2011-11-24T13:42:03Z</time>
      </trkpt>
      <trkpt lat="43.71836" lon="6.94973">
        <ele>1010</ele>
        <time>2011-11-24T13:42:05Z</time>
      </trkpt>
      <trkpt lat="43.71842" lon="6.94966">
        <ele>1010</ele>
        <time>2011-11-24T13:42:07Z</time>
      </trkpt>
      <trkpt lat="43.71847" lon="6.94962">
        <ele>1009.7</ele>
        <time>2011-11-24T13:42:09Z</time>
      </trkpt>
      <trkpt lat="43.71854" lon="6.94959">
        <ele>1009.9</ele>
        <time>2011-11-24T13:42:11Z</time>
      </trkpt>
      <trkpt lat="43.7186" lon="6.94953">
        <ele>1010.1</ele>
        <time>2011-11-24T13:42:13Z</time>
      </trkpt>
      <trkpt lat="43.71866" lon="6.94949">
        <ele>1010.4</ele>
        <time>2011-11-24T13:42:15Z</time>
      </trkpt>
      <trkpt lat="43.71871" lon="6.94944">
        <ele>1009.7</ele>
        <time>2011-11-24T13:42:17Z</time>
      </trkpt>
      <trkpt lat="43.71876" lon="6.94939">
        <ele>1009.8</ele>
        <time>2011-11-24T13:42:19Z</time>
      </trkpt>
      <trkpt lat="43.71881" lon="6.94935">
        <ele>1010.3</ele>
        <time>2011-11-24T13:42:21Z</time>
      </trkpt>
      <trkpt lat="43.71887" lon="6.94932">
        <ele>1010.3</ele>
        <time>2011-11-24T13:42:23Z</time>
      </trkpt>
      <trkpt lat="43.71892" lon="6.94931">
        <ele>1010.1</ele>
        <time>2011-11-24T13:42:25Z</time>
      </trkpt>
      <trkpt lat="43.71898" lon="6.94931">
        <ele>1009.9</ele>
        <time>2011-11-24T13:42:27Z</time>
      </trkpt>
      <trkpt lat="43.71904" lon="6.94935">
        <ele>1009.8</ele>
        <time>2011-11-24T13:42:29Z</time>
      </trkpt>
      <trkpt lat="43.71911" lon="6.94937">
        <ele>1008.5</ele>
        <time>2011-11-24T13:42:31Z</time>
      </trkpt>
      <trkpt lat="43.71917" lon="6.94941">
        <ele>1008.6</ele>
        <time>2011-11-24T13:42:33Z</time>
      </trkpt>
      <trkpt lat="43.71924" lon="6.94944">
        <ele>1007.6</ele>
        <time>2011-11-24T13:42:35Z</time>
      </trkpt>
      <trkpt lat="43.71926" lon="6.9495">
        <ele>1007.3</ele>
        <time>2011-11-24T13:42:36Z</time>
      </trkpt>
      <trkpt lat="43.71928" lon="6.94957">
        <ele>1006.7</ele>
        <time>2011-11-24T13:42:37Z</time>
      </trkpt>
      <trkpt lat="43.71929" lon="6.94963">
        <ele>1006.4</ele>
        <time>2011-11-24T13:42:38Z</time>
      </trkpt>
      <trkpt lat="43.7193" lon="6.94969">
        <ele>1006.1</ele>
        <time>2011-11-24T13:42:39Z</time>
      </trkpt>
      <trkpt lat="43.71934" lon="6.94974">
        <ele>1005.9</ele>
        <time>2011-11-24T13:42:40Z</time>
      </trkpt>
      <trkpt lat="43.71938" lon="6.94979">
        <ele>1006.1</ele>
        <time>2011-11-24T13:42:41Z</time>
      </trkpt>
      <trkpt lat="43.71942" lon="6.94983">
        <ele>1005.7</ele>
        <time>2011-11-24T13:42:42Z</time>
      </trkpt>
      <trkpt lat="43.71945" lon="6.94987">
        <ele>1005.7</ele>
        <time>2011-11-24T13:42:43Z</time>
      </trkpt>
      <trkpt lat="43.71952" lon="6.94993">
        <ele>1004.6</ele>
        <time>2011-11-24T13:42:45Z</time>
      </trkpt>
      <trkpt lat="43.71956" lon="6.94997">
        <ele>1004.2</ele>
        <time>2011-11-24T13:42:46Z</time>
      </trkpt>
      <trkpt lat="43.7196" lon="6.95004">
        <ele>1004.2</ele>
        <time>2011-11-24T13:42:48Z</time>
      </trkpt>
      <trkpt lat="43.71952" lon="6.95004">
        <ele>1005.2</ele>
        <time>2011-11-24T13:43:03Z</time>
      </trkpt>
      <trkpt lat="43.71946" lon="6.95003">
        <ele>1006</ele>
        <time>2011-11-24T13:43:06Z</time>
      </trkpt>
      <trkpt lat="43.71942" lon="6.94998">
        <ele>1007.3</ele>
        <time>2011-11-24T13:43:08Z</time>
      </trkpt>
      <trkpt lat="43.71938" lon="6.94994">
        <ele>1008.2</ele>
        <time>2011-11-24T13:43:11Z</time>
      </trkpt>
      <trkpt lat="43.71936" lon="6.94987">
        <ele>1007.9</ele>
        <time>2011-11-24T13:43:14Z</time>
      </trkpt>
      <trkpt lat="43.71936" lon="6.9498">
        <ele>1008.2</ele>
        <time>2011-11-24T13:43:16Z</time>
      </trkpt>
      <trkpt lat="43.71935" lon="6.94973">
        <ele>1008.6</ele>
        <time>2011-11-24T13:43:18Z</time>
      </trkpt>
      <trkpt lat="43.71932" lon="6.94966">
        <ele>1009.5</ele>
        <time>2011-11-24T13:43:20Z</time>
      </trkpt>
      <trkpt lat="43.71927" lon="6.94962">
        <ele>1010.9</ele>
        <time>2011-11-24T13:43:23Z</time>
      </trkpt>
      <trkpt lat="43.71924" lon="6.94956">
        <ele>1010.5</ele>
        <time>2011-11-24T13:43:26Z</time>
      </trkpt>
      <trkpt lat="43.71926" lon="6.94948">
        <ele>1010.7</ele>
        <time>2011-11-24T13:43:28Z</time>
      </trkpt>
      <trkpt lat="43.71922" lon="6.94944">
        <ele>1011.1</ele>
        <time>2011-11-24T13:43:30Z</time>
      </trkpt>
      <trkpt lat="43.71916" lon="6.9494">
        <ele>1012</ele>
        <time>2011-11-24T13:43:33Z</time>
      </trkpt>
      <trkpt lat="43.71912" lon="6.94937">
        <ele>1012.3</ele>
        <time>2011-11-24T13:43:35Z</time>
      </trkpt>
      <trkpt lat="43.71908" lon="6.94934">
        <ele>1012.8</ele>
        <time>2011-11-24T13:43:37Z</time>
      </trkpt>
      <trkpt lat="43.71903" lon="6.9493">
        <ele>1013.1</ele>
        <time>2011-11-24T13:43:40Z</time>
      </trkpt>
      <trkpt lat="43.71897" lon="6.94933">
        <ele>1012.5</ele>
        <time>2011-11-24T13:43:42Z</time>
      </trkpt>
      <trkpt lat="43.7189" lon="6.94935">
        <ele>1012.4</ele>
        <time>2011-11-24T13:43:44Z</time>
      </trkpt>
      <trkpt lat="43.71883" lon="6.94935">
        <ele>1012.3</ele>
        <time>2011-11-24T13:43:46Z</time>
      </trkpt>
      <trkpt lat="43.71878" lon="6.94939">
        <ele>1012.1</ele>
        <time>2011-11-24T13:43:48Z</time>
      </trkpt>
      <trkpt lat="43.71871" lon="6.94944">
        <ele>1011.9</ele>
        <time>2011-11-24T13:43:50Z</time>
      </trkpt>
      <trkpt lat="43.71864" lon="6.9495">
        <ele>1011.3</ele>
        <time>2011-11-24T13:43:52Z</time>
      </trkpt>
      <trkpt lat="43.71857" lon="6.94955">
        <ele>1010.8</ele>
        <time>2011-11-24T13:43:54Z</time>
      </trkpt>
      <trkpt lat="43.7185" lon="6.94959">
        <ele>1010.9</ele>
        <time>2011-11-24T13:43:56Z</time>
      </trkpt>
      <trkpt lat="43.71844" lon="6.94963">
        <ele>1011.1</ele>
        <time>2011-11-24T13:43:58Z</time>
      </trkpt>
      <trkpt lat="43.71838" lon="6.94969">
        <ele>1011.3</ele>
        <time>2011-11-24T13:44:00Z</time>
      </trkpt>
      <trkpt lat="43.71831" lon="6.94974">
        <ele>1011.2</ele>
        <time>2011-11-24T13:44:02Z</time>
      </trkpt>
      <trkpt lat="43.71825" lon="6.94976">
        <ele>1010.9</ele>
        <time>2011-11-24T13:44:04Z</time>
      </trkpt>
      <trkpt lat="43.71818" lon="6.94979">
        <ele>1010.5</ele>
        <time>2011-11-24T13:44:06Z</time>
      </trkpt>
      <trkpt lat="43.71819" lon="6.9499">
        <ele>1008.6</ele>
        <time>2011-11-24T13:44:08Z</time>
      </trkpt>
      <trkpt lat="43.71822" lon="6.95001">
        <ele>1006.8</ele>
        <time>2011-11-24T13:44:10Z</time>
      </trkpt>
      <trkpt lat="43.71827" lon="6.95011">
        <ele>1005.1</ele>
        <time>2011-11-24T13:44:12Z</time>
      </trkpt>
      <trkpt lat="43.71829" lon="6.95017">
        <ele>1004</ele>
        <time>2011-11-24T13:44:13Z</time>
      </trkpt>
      <trkpt lat="43.71832" lon="6.95022">
        <ele>1003.4</ele>
        <time>2011-11-24T13:44:14Z</time>
      </trkpt>
      <trkpt lat="43.71836" lon="6.95028">
        <ele>999.8</ele>
        <time>2011-11-24T13:44:15Z</time>
      </trkpt>
      <trkpt lat="43.71841" lon="6.95034">
        <ele>998.4</ele>
        <time>2011-11-24T13:44:16Z</time>
      </trkpt>
      <trkpt lat="43.71846" lon="6.95039">
        <ele>998.2</ele>
        <time>2011-11-24T13:44:17Z</time>
      </trkpt>
      <trkpt lat="43.71851" lon="6.95043">
        <ele>998</ele>
        <time>2011-11-24T13:44:18Z</time>
      </trkpt>
      <trkpt lat="43.71855" lon="6.95048">
        <ele>998</ele>
        <time>2011-11-24T13:44:19Z</time>
      </trkpt>
      <trkpt lat="43.71859" lon="6.95052">
        <ele>997.4</ele>
        <time>2011-11-24T13:44:20Z</time>
      </trkpt>
      <trkpt lat="43.71863" lon="6.95057">
        <ele>997.3</ele>
        <time>2011-11-24T13:44:21Z</time>
      </trkpt>
      <trkpt lat="43.71867" lon="6.95062">
        <ele>997.2</ele>
        <time>2011-11-24T13:44:22Z</time>
      </trkpt>
      <trkpt lat="43.7187" lon="6.95066">
        <ele>997.2</ele>
        <time>2011-11-24T13:44:23Z</time>
      </trkpt>
      <trkpt lat="43.71872" lon="6.95073">
        <ele>997</ele>
        <time>2011-11-24T13:44:25Z</time>
      </trkpt>
      <trkpt lat="43.71873" lon="6.9508">
        <ele>996.8</ele>
        <time>2011-11-24T13:44:27Z</time>
      </trkpt>
      <trkpt lat="43.71877" lon="6.95084">
        <ele>992.7</ele>
        <time>2011-11-24T13:44:29Z</time>
      </trkpt>
      <trkpt lat="43.71875" lon="6.95091">
        <ele>990.3</ele>
        <time>2011-11-24T13:44:31Z</time>
      </trkpt>
      <trkpt lat="43.71876" lon="6.95098">
        <ele>989.4</ele>
        <time>2011-11-24T13:44:33Z</time>
      </trkpt>
      <trkpt lat="43.7188" lon="6.95103">
        <ele>988.5</ele>
        <time>2011-11-24T13:44:35Z</time>
      </trkpt>
      <trkpt lat="43.71881" lon="6.95112">
        <ele>987.8</ele>
        <time>2011-11-24T13:44:37Z</time>
      </trkpt>
      <trkpt lat="43.71881" lon="6.95122">
        <ele>986</ele>
        <time>2011-11-24T13:44:39Z</time>
      </trkpt>
      <trkpt lat="43.71883" lon="6.95129">
        <ele>985.4</ele>
        <time>2011-11-24T13:44:40Z</time>
      </trkpt>
      <trkpt lat="43.71886" lon="6.95141">
        <ele>984.6</ele>
        <time>2011-11-24T13:44:42Z</time>
      </trkpt>
      <trkpt lat="43.71889" lon="6.95147">
        <ele>983.8</ele>
        <time>2011-11-24T13:44:43Z</time>
      </trkpt>
      <trkpt lat="43.71892" lon="6.95154">
        <ele>983.8</ele>
        <time>2011-11-24T13:44:44Z</time>
      </trkpt>
      <trkpt lat="43.71896" lon="6.9516">
        <ele>983.9</ele>
        <time>2011-11-24T13:44:45Z</time>
      </trkpt>
      <trkpt lat="43.719" lon="6.95166">
        <ele>984</ele>
        <time>2011-11-24T13:44:46Z</time>
      </trkpt>
      <trkpt lat="43.71905" lon="6.95171">
        <ele>984.1</ele>
        <time>2011-11-24T13:44:47Z</time>
      </trkpt>
      <trkpt lat="43.7191" lon="6.95178">
        <ele>983.8</ele>
        <time>2011-11-24T13:44:48Z</time>
      </trkpt>
      <trkpt lat="43.71915" lon="6.95185">
        <ele>983.1</ele>
        <time>2011-11-24T13:44:49Z</time>
      </trkpt>
      <trkpt lat="43.7192" lon="6.95189">
        <ele>982.9</ele>
        <time>2011-11-24T13:44:50Z</time>
      </trkpt>
      <trkpt lat="43.71926" lon="6.95192">
        <ele>982.5</ele>
        <time>2011-11-24T13:44:51Z</time>
      </trkpt>
      <trkpt lat="43.71932" lon="6.95195">
        <ele>982.6</ele>
        <time>2011-11-24T13:44:52Z</time>
      </trkpt>
      <trkpt lat="43.7194" lon="6.95199">
        <ele>981.8</ele>
        <time>2011-11-24T13:44:53Z</time>
      </trkpt>
      <trkpt lat="43.71948" lon="6.95203">
        <ele>977.7</ele>
        <time>2011-11-24T13:44:54Z</time>
      </trkpt>
      <trkpt lat="43.71956" lon="6.95207">
        <ele>976.9</ele>
        <time>2011-11-24T13:44:55Z</time>
      </trkpt>
      <trkpt lat="43.71963" lon="6.95211">
        <ele>976.3</ele>
        <time>2011-11-24T13:44:56Z</time>
      </trkpt>
      <trkpt lat="43.7197" lon="6.95215">
        <ele>975.7</ele>
        <time>2011-11-24T13:44:57Z</time>
      </trkpt>
      <trkpt lat="43.71976" lon="6.95219">
        <ele>975.1</ele>
        <time>2011-11-24T13:44:58Z</time>
      </trkpt>
      <trkpt lat="43.71983" lon="6.9522">
        <ele>974.6</ele>
        <time>2011-11-24T13:44:59Z</time>
      </trkpt>
      <trkpt lat="43.71989" lon="6.95222">
        <ele>974.5</ele>
        <time>2011-11-24T13:45:00Z</time>
      </trkpt>
      <trkpt lat="43.71994" lon="6.95222">
        <ele>974.3</ele>
        <time>2011-11-24T13:45:01Z</time>
      </trkpt>
      <trkpt lat="43.72002" lon="6.95218">
        <ele>973.4</ele>
        <time>2011-11-24T13:45:03Z</time>
      </trkpt>
      <trkpt lat="43.7201" lon="6.95216">
        <ele>973.2</ele>
        <time>2011-11-24T13:45:05Z</time>
      </trkpt>
      <trkpt lat="43.72015" lon="6.95214">
        <ele>972</ele>
        <time>2011-11-24T13:45:06Z</time>
      </trkpt>
      <trkpt lat="43.72019" lon="6.95213">
        <ele>969.9</ele>
        <time>2011-11-24T13:45:07Z</time>
      </trkpt>
      <trkpt lat="43.72025" lon="6.95213">
        <ele>969.6</ele>
        <time>2011-11-24T13:45:08Z</time>
      </trkpt>
      <trkpt lat="43.7203" lon="6.95215">
        <ele>968.8</ele>
        <time>2011-11-24T13:45:09Z</time>
      </trkpt>
      <trkpt lat="43.72034" lon="6.9522">
        <ele>968.3</ele>
        <time>2011-11-24T13:45:10Z</time>
      </trkpt>
      <trkpt lat="43.72035" lon="6.95226">
        <ele>967.9</ele>
        <time>2011-11-24T13:45:11Z</time>
      </trkpt>
      <trkpt lat="43.72035" lon="6.95233">
        <ele>968.1</ele>
        <time>2011-11-24T13:45:12Z</time>
      </trkpt>
      <trkpt lat="43.72033" lon="6.95241">
        <ele>967.4</ele>
        <time>2011-11-24T13:45:14Z</time>
      </trkpt>
      <trkpt lat="43.72033" lon="6.95247">
        <ele>967</ele>
        <time>2011-11-24T13:45:16Z</time>
      </trkpt>
      <trkpt lat="43.72037" lon="6.95245">
        <ele>966.5</ele>
        <time>2011-11-24T13:45:25Z</time>
      </trkpt>
      <trkpt lat="43.72041" lon="6.95243">
        <ele>965.8</ele>
        <time>2011-11-24T13:45:29Z</time>
      </trkpt>
      <trkpt lat="43.72045" lon="6.95246">
        <ele>964.9</ele>
        <time>2011-11-24T13:45:42Z</time>
      </trkpt>
      <trkpt lat="43.72051" lon="6.95251">
        <ele>963.9</ele>
        <time>2011-11-24T13:45:45Z</time>
      </trkpt>
      <trkpt lat="43.72058" lon="6.95254">
        <ele>963</ele>
        <time>2011-11-24T13:45:47Z</time>
      </trkpt>
      <trkpt lat="43.72066" lon="6.95257">
        <ele>962.3</ele>
        <time>2011-11-24T13:45:49Z</time>
      </trkpt>
      <trkpt lat="43.72069" lon="6.95262">
        <ele>961.5</ele>
        <time>2011-11-24T13:45:50Z</time>
      </trkpt>
      <trkpt lat="43.72076" lon="6.95266">
        <ele>961.6</ele>
        <time>2011-11-24T13:45:52Z</time>
      </trkpt>
      <trkpt lat="43.72081" lon="6.95265">
        <ele>961.1</ele>
        <time>2011-11-24T13:45:54Z</time>
      </trkpt>
      <trkpt lat="43.72086" lon="6.9526">
        <ele>960.8</ele>
        <time>2011-11-24T13:45:56Z</time>
      </trkpt>
      <trkpt lat="43.72094" lon="6.95256">
        <ele>959.4</ele>
        <time>2011-11-24T13:45:58Z</time>
      </trkpt>
      <trkpt lat="43.72102" lon="6.95253">
        <ele>958.7</ele>
        <time>2011-11-24T13:46:00Z</time>
      </trkpt>
      <trkpt lat="43.72107" lon="6.95253">
        <ele>957.4</ele>
        <time>2011-11-24T13:46:03Z</time>
      </trkpt>
      <trkpt lat="43.72112" lon="6.95255">
        <ele>958.5</ele>
        <time>2011-11-24T13:46:13Z</time>
      </trkpt>
      <trkpt lat="43.72117" lon="6.9526">
        <ele>954.6</ele>
        <time>2011-11-24T13:46:15Z</time>
      </trkpt>
      <trkpt lat="43.72123" lon="6.95265">
        <ele>952.9</ele>
        <time>2011-11-24T13:46:17Z</time>
      </trkpt>
      <trkpt lat="43.72127" lon="6.95268">
        <ele>953.3</ele>
        <time>2011-11-24T13:46:18Z</time>
      </trkpt>
      <trkpt lat="43.72134" lon="6.95274">
        <ele>953.4</ele>
        <time>2011-11-24T13:46:20Z</time>
      </trkpt>
      <trkpt lat="43.7214" lon="6.9528">
        <ele>953.3</ele>
        <time>2011-11-24T13:46:22Z</time>
      </trkpt>
      <trkpt lat="43.72146" lon="6.95285">
        <ele>952.8</ele>
        <time>2011-11-24T13:46:24Z</time>
      </trkpt>
      <trkpt lat="43.72151" lon="6.9529">
        <ele>952.9</ele>
        <time>2011-11-24T13:46:26Z</time>
      </trkpt>
      <trkpt lat="43.72155" lon="6.95297">
        <ele>952.6</ele>
        <time>2011-11-24T13:46:28Z</time>
      </trkpt>
      <trkpt lat="43.72161" lon="6.95303">
        <ele>952.1</ele>
        <time>2011-11-24T13:46:30Z</time>
      </trkpt>
      <trkpt lat="43.72167" lon="6.95309">
        <ele>950.9</ele>
        <time>2011-11-24T13:46:32Z</time>
      </trkpt>
      <trkpt lat="43.7217" lon="6.95316">
        <ele>949.2</ele>
        <time>2011-11-24T13:46:34Z</time>
      </trkpt>
      <trkpt lat="43.72175" lon="6.95324">
        <ele>947.7</ele>
        <time>2011-11-24T13:46:36Z</time>
      </trkpt>
      <trkpt lat="43.72179" lon="6.95328">
        <ele>946.4</ele>
        <time>2011-11-24T13:46:48Z</time>
      </trkpt>
      <trkpt lat="43.72182" lon="6.95334">
        <ele>944.5</ele>
        <time>2011-11-24T13:46:49Z</time>
      </trkpt>
      <trkpt lat="43.72184" lon="6.95343">
        <ele>940.8</ele>
        <time>2011-11-24T13:46:51Z</time>
      </trkpt>
      <trkpt lat="43.72186" lon="6.95356">
        <ele>939.7</ele>
        <time>2011-11-24T13:46:53Z</time>
      </trkpt>
      <trkpt lat="43.72191" lon="6.95366">
        <ele>937</ele>
        <time>2011-11-24T13:46:55Z</time>
      </trkpt>
      <trkpt lat="43.72194" lon="6.95374">
        <ele>935.8</ele>
        <time>2011-11-24T13:46:57Z</time>
      </trkpt>
      <trkpt lat="43.72193" lon="6.95383">
        <ele>935.2</ele>
        <time>2011-11-24T13:47:00Z</time>
      </trkpt>
      <trkpt lat="43.72197" lon="6.95391">
        <ele>934.3</ele>
        <time>2011-11-24T13:47:02Z</time>
      </trkpt>
      <trkpt lat="43.72199" lon="6.95397">
        <ele>933.9</ele>
        <time>2011-11-24T13:47:03Z</time>
      </trkpt>
      <trkpt lat="43.72202" lon="6.95408">
        <ele>932.5</ele>
        <time>2011-11-24T13:47:05Z</time>
      </trkpt>
      <trkpt lat="43.72202" lon="6.95414">
        <ele>932</ele>
        <time>2011-11-24T13:47:06Z</time>
      </trkpt>
      <trkpt lat="43.72204" lon="6.95422">
        <ele>931.4</ele>
        <time>2011-11-24T13:47:08Z</time>
      </trkpt>
      <trkpt lat="43.72206" lon="6.95431">
        <ele>931.7</ele>
        <time>2011-11-24T13:47:11Z</time>
      </trkpt>
      <trkpt lat="43.7221" lon="6.95436">
        <ele>932</ele>
        <time>2011-11-24T13:47:13Z</time>
      </trkpt>
      <trkpt lat="43.72209" lon="6.95443">
        <ele>931</ele>
        <time>2011-11-24T13:47:15Z</time>
      </trkpt>
      <trkpt lat="43.72212" lon="6.9545">
        <ele>930.1</ele>
        <time>2011-11-24T13:47:17Z</time>
      </trkpt>
      <trkpt lat="43.72215" lon="6.95457">
        <ele>929.8</ele>
        <time>2011-11-24T13:47:19Z</time>
      </trkpt>
      <trkpt lat="43.7222" lon="6.95463">
        <ele>929.3</ele>
        <time>2011-11-24T13:47:21Z</time>
      </trkpt>
      <trkpt lat="43.72224" lon="6.95467">
        <ele>928.9</ele>
        <time>2011-11-24T13:47:22Z</time>
      </trkpt>
      <trkpt lat="43.72228" lon="6.95472">
        <ele>927.6</ele>
        <time>2011-11-24T13:47:23Z</time>
      </trkpt>
      <trkpt lat="43.72231" lon="6.95478">
        <ele>926.1</ele>
        <time>2011-11-24T13:47:25Z</time>
      </trkpt>
      <trkpt lat="43.72233" lon="6.95485">
        <ele>925.1</ele>
        <time>2011-11-24T13:47:27Z</time>
      </trkpt>
      <trkpt lat="43.72236" lon="6.9549">
        <ele>923.8</ele>
        <time>2011-11-24T13:47:29Z</time>
      </trkpt>
      <trkpt lat="43.72244" lon="6.95492">
        <ele>921.9</ele>
        <time>2011-11-24T13:47:32Z</time>
      </trkpt>
      <trkpt lat="43.72249" lon="6.95494">
        <ele>920.7</ele>
        <time>2011-11-24T13:47:34Z</time>
      </trkpt>
      <trkpt lat="43.72251" lon="6.95503">
        <ele>918.5</ele>
        <time>2011-11-24T13:47:36Z</time>
      </trkpt>
      <trkpt lat="43.72252" lon="6.95514">
        <ele>917.4</ele>
        <time>2011-11-24T13:47:38Z</time>
      </trkpt>
      <trkpt lat="43.72252" lon="6.95525">
        <ele>916.6</ele>
        <time>2011-11-24T13:47:40Z</time>
      </trkpt>
      <trkpt lat="43.72257" lon="6.95533">
        <ele>915.1</ele>
        <time>2011-11-24T13:47:42Z</time>
      </trkpt>
      <trkpt lat="43.72259" lon="6.9554">
        <ele>913.4</ele>
        <time>2011-11-24T13:47:44Z</time>
      </trkpt>
      <trkpt lat="43.72261" lon="6.95549">
        <ele>912.2</ele>
        <time>2011-11-24T13:47:46Z</time>
      </trkpt>
      <trkpt lat="43.72262" lon="6.9556">
        <ele>911.9</ele>
        <time>2011-11-24T13:47:48Z</time>
      </trkpt>
      <trkpt lat="43.72263" lon="6.95569">
        <ele>912.5</ele>
        <time>2011-11-24T13:47:50Z</time>
      </trkpt>
      <trkpt lat="43.72257" lon="6.95572">
        <ele>911.4</ele>
        <time>2011-11-24T13:47:52Z</time>
      </trkpt>
      <trkpt lat="43.72258" lon="6.95581">
        <ele>910.3</ele>
        <time>2011-11-24T13:47:56Z</time>
      </trkpt>
      <trkpt lat="43.72261" lon="6.95587">
        <ele>909.9</ele>
        <time>2011-11-24T13:47:58Z</time>
      </trkpt>
      <trkpt lat="43.72267" lon="6.95589">
        <ele>909.5</ele>
        <time>2011-11-24T13:48:00Z</time>
      </trkpt>
      <trkpt lat="43.72272" lon="6.95591">
        <ele>908.3</ele>
        <time>2011-11-24T13:48:02Z</time>
      </trkpt>
      <trkpt lat="43.72278" lon="6.95593">
        <ele>907.2</ele>
        <time>2011-11-24T13:48:04Z</time>
      </trkpt>
      <trkpt lat="43.72283" lon="6.95595">
        <ele>906.1</ele>
        <time>2011-11-24T13:48:06Z</time>
      </trkpt>
      <trkpt lat="43.72288" lon="6.95597">
        <ele>904.9</ele>
        <time>2011-11-24T13:48:08Z</time>
      </trkpt>
      <trkpt lat="43.72293" lon="6.95599">
        <ele>903.8</ele>
        <time>2011-11-24T13:48:10Z</time>
      </trkpt>
      <trkpt lat="43.72295" lon="6.9562">
        <ele>906.8</ele>
        <time>2011-11-24T13:48:12Z</time>
      </trkpt>
      <trkpt lat="43.72295" lon="6.95627">
        <ele>904.2</ele>
        <time>2011-11-24T13:48:14Z</time>
      </trkpt>
      <trkpt lat="43.72296" lon="6.95634">
        <ele>903.2</ele>
        <time>2011-11-24T13:48:16Z</time>
      </trkpt>
      <trkpt lat="43.72298" lon="6.9564">
        <ele>902.8</ele>
        <time>2011-11-24T13:48:18Z</time>
      </trkpt>
      <trkpt lat="43.72304" lon="6.9564">
        <ele>903.1</ele>
        <time>2011-11-24T13:48:20Z</time>
      </trkpt>
      <trkpt lat="43.7231" lon="6.95646">
        <ele>900.3</ele>
        <time>2011-11-24T13:48:22Z</time>
      </trkpt>
      <trkpt lat="43.72315" lon="6.95653">
        <ele>899.9</ele>
        <time>2011-11-24T13:48:24Z</time>
      </trkpt>
      <trkpt lat="43.72317" lon="6.95659">
        <ele>897.7</ele>
        <time>2011-11-24T13:48:25Z</time>
      </trkpt>
      <trkpt lat="43.72319" lon="6.95665">
        <ele>897.1</ele>
        <time>2011-11-24T13:48:26Z</time>
      </trkpt>
      <trkpt lat="43.72322" lon="6.9567">
        <ele>896.1</ele>
        <time>2011-11-24T13:48:27Z</time>
      </trkpt>
      <trkpt lat="43.72325" lon="6.95675">
        <ele>895.5</ele>
        <time>2011-11-24T13:48:28Z</time>
      </trkpt>
      <trkpt lat="43.72329" lon="6.95679">
        <ele>895.7</ele>
        <time>2011-11-24T13:48:29Z</time>
      </trkpt>
      <trkpt lat="43.72329" lon="6.9569">
        <ele>892.8</ele>
        <time>2011-11-24T13:48:31Z</time>
      </trkpt>
      <trkpt lat="43.72328" lon="6.95698">
        <ele>892.5</ele>
        <time>2011-11-24T13:48:33Z</time>
      </trkpt>
      <trkpt lat="43.72327" lon="6.95707">
        <ele>890.8</ele>
        <time>2011-11-24T13:48:35Z</time>
      </trkpt>
      <trkpt lat="43.7233" lon="6.95715">
        <ele>890.2</ele>
        <time>2011-11-24T13:48:37Z</time>
      </trkpt>
      <trkpt lat="43.72332" lon="6.95722">
        <ele>891.3</ele>
        <time>2011-11-24T13:48:38Z</time>
      </trkpt>
      <trkpt lat="43.72333" lon="6.95728">
        <ele>889.6</ele>
        <time>2011-11-24T13:48:39Z</time>
      </trkpt>
      <trkpt lat="43.72336" lon="6.95738">
        <ele>887.3</ele>
        <time>2011-11-24T13:48:41Z</time>
      </trkpt>
      <trkpt lat="43.72339" lon="6.95743">
        <ele>883.6</ele>
        <time>2011-11-24T13:48:44Z</time>
      </trkpt>
      <trkpt lat="43.72343" lon="6.95753">
        <ele>882</ele>
        <time>2011-11-24T13:48:47Z</time>
      </trkpt>
      <trkpt lat="43.72347" lon="6.95762">
        <ele>880.9</ele>
        <time>2011-11-24T13:48:49Z</time>
      </trkpt>
      <trkpt lat="43.72347" lon="6.95772">
        <ele>880.6</ele>
        <time>2011-11-24T13:48:51Z</time>
      </trkpt>
      <trkpt lat="43.72347" lon="6.95782">
        <ele>879.6</ele>
        <time>2011-11-24T13:48:53Z</time>
      </trkpt>
      <trkpt lat="43.72348" lon="6.95792">
        <ele>879.5</ele>
        <time>2011-11-24T13:48:55Z</time>
      </trkpt>
      <trkpt lat="43.72344" lon="6.95799">
        <ele>878.6</ele>
        <time>2011-11-24T13:48:57Z</time>
      </trkpt>
      <trkpt lat="43.72337" lon="6.9581">
        <ele>877.1</ele>
        <time>2011-11-24T13:48:59Z</time>
      </trkpt>
      <trkpt lat="43.72333" lon="6.95815">
        <ele>876.9</ele>
        <time>2011-11-24T13:49:00Z</time>
      </trkpt>
      <trkpt lat="43.7233" lon="6.9582">
        <ele>876.1</ele>
        <time>2011-11-24T13:49:01Z</time>
      </trkpt>
      <trkpt lat="43.72326" lon="6.95824">
        <ele>875.8</ele>
        <time>2011-11-24T13:49:02Z</time>
      </trkpt>
      <trkpt lat="43.72322" lon="6.95827">
        <ele>874.6</ele>
        <time>2011-11-24T13:49:03Z</time>
      </trkpt>
      <trkpt lat="43.72318" lon="6.95832">
        <ele>873.4</ele>
        <time>2011-11-24T13:49:04Z</time>
      </trkpt>
      <trkpt lat="43.72314" lon="6.95838">
        <ele>872.4</ele>
        <time>2011-11-24T13:49:05Z</time>
      </trkpt>
      <trkpt lat="43.72309" lon="6.95842">
        <ele>871.7</ele>
        <time>2011-11-24T13:49:06Z</time>
      </trkpt>
      <trkpt lat="43.72305" lon="6.95846">
        <ele>871.4</ele>
        <time>2011-11-24T13:49:07Z</time>
      </trkpt>
      <trkpt lat="43.72303" lon="6.95853">
        <ele>870.2</ele>
        <time>2011-11-24T13:49:08Z</time>
      </trkpt>
      <trkpt lat="43.72301" lon="6.95858">
        <ele>869.6</ele>
        <time>2011-11-24T13:49:09Z</time>
      </trkpt>
      <trkpt lat="43.72299" lon="6.95864">
        <ele>869.7</ele>
        <time>2011-11-24T13:49:10Z</time>
      </trkpt>
      <trkpt lat="43.72297" lon="6.95871">
        <ele>867.5</ele>
        <time>2011-11-24T13:49:11Z</time>
      </trkpt>
      <trkpt lat="43.72295" lon="6.95877">
        <ele>866.8</ele>
        <time>2011-11-24T13:49:12Z</time>
      </trkpt>
      <trkpt lat="43.72293" lon="6.95887">
        <ele>866.3</ele>
        <time>2011-11-24T13:49:14Z</time>
      </trkpt>
      <trkpt lat="43.72291" lon="6.95895">
        <ele>864.6</ele>
        <time>2011-11-24T13:49:16Z</time>
      </trkpt>
      <trkpt lat="43.72287" lon="6.95902">
        <ele>863.6</ele>
        <time>2011-11-24T13:49:18Z</time>
      </trkpt>
      <trkpt lat="43.72286" lon="6.95911">
        <ele>861.4</ele>
        <time>2011-11-24T13:49:20Z</time>
      </trkpt>
      <trkpt lat="43.72285" lon="6.95919">
        <ele>859.2</ele>
        <time>2011-11-24T13:49:22Z</time>
      </trkpt>
      <trkpt lat="43.7228" lon="6.95926">
        <ele>855.6</ele>
        <time>2011-11-24T13:49:25Z</time>
      </trkpt>
      <trkpt lat="43.72282" lon="6.95937">
        <ele>854.4</ele>
        <time>2011-11-24T13:49:27Z</time>
      </trkpt>
      <trkpt lat="43.72281" lon="6.95946">
        <ele>851</ele>
        <time>2011-11-24T13:49:29Z</time>
      </trkpt>
      <trkpt lat="43.72278" lon="6.95951">
        <ele>850.6</ele>
        <time>2011-11-24T13:49:30Z</time>
      </trkpt>
      <trkpt lat="43.72273" lon="6.95957">
        <ele>850.5</ele>
        <time>2011-11-24T13:49:31Z</time>
      </trkpt>
      <trkpt lat="43.72269" lon="6.95962">
        <ele>850.3</ele>
        <time>2011-11-24T13:49:32Z</time>
      </trkpt>
      <trkpt lat="43.72265" lon="6.95968">
        <ele>847.8</ele>
        <time>2011-11-24T13:49:33Z</time>
      </trkpt>
      <trkpt lat="43.72262" lon="6.95973">
        <ele>847</ele>
        <time>2011-11-24T13:49:34Z</time>
      </trkpt>
      <trkpt lat="43.72256" lon="6.95978">
        <ele>846.7</ele>
        <time>2011-11-24T13:49:35Z</time>
      </trkpt>
      <trkpt lat="43.72252" lon="6.95983">
        <ele>846.3</ele>
        <time>2011-11-24T13:49:36Z</time>
      </trkpt>
      <trkpt lat="43.72248" lon="6.95986">
        <ele>846.1</ele>
        <time>2011-11-24T13:49:37Z</time>
      </trkpt>
      <trkpt lat="43.72244" lon="6.9599">
        <ele>846.2</ele>
        <time>2011-11-24T13:49:38Z</time>
      </trkpt>
      <trkpt lat="43.72239" lon="6.96001">
        <ele>845.3</ele>
        <time>2011-11-24T13:49:40Z</time>
      </trkpt>
      <trkpt lat="43.72234" lon="6.96011">
        <ele>844.6</ele>
        <time>2011-11-24T13:49:42Z</time>
      </trkpt>
      <trkpt lat="43.72234" lon="6.96018">
        <ele>844.2</ele>
        <time>2011-11-24T13:49:43Z</time>
      </trkpt>
      <trkpt lat="43.72237" lon="6.96026">
        <ele>842.3</ele>
        <time>2011-11-24T13:49:44Z</time>
      </trkpt>
      <trkpt lat="43.72238" lon="6.96035">
        <ele>841.8</ele>
        <time>2011-11-24T13:49:45Z</time>
      </trkpt>
      <trkpt lat="43.72239" lon="6.96043">
        <ele>841.1</ele>
        <time>2011-11-24T13:49:46Z</time>
      </trkpt>
      <trkpt lat="43.7224" lon="6.96051">
        <ele>840.6</ele>
        <time>2011-11-24T13:49:47Z</time>
      </trkpt>
      <trkpt lat="43.72242" lon="6.96061">
        <ele>839</ele>
        <time>2011-11-24T13:49:48Z</time>
      </trkpt>
      <trkpt lat="43.72242" lon="6.9607">
        <ele>837.6</ele>
        <time>2011-11-24T13:49:49Z</time>
      </trkpt>
      <trkpt lat="43.72243" lon="6.9608">
        <ele>837</ele>
        <time>2011-11-24T13:49:50Z</time>
      </trkpt>
      <trkpt lat="43.72242" lon="6.96088">
        <ele>834.6</ele>
        <time>2011-11-24T13:49:51Z</time>
      </trkpt>
      <trkpt lat="43.7224" lon="6.96095">
        <ele>834.4</ele>
        <time>2011-11-24T13:49:52Z</time>
      </trkpt>
      <trkpt lat="43.72238" lon="6.96101">
        <ele>834</ele>
        <time>2011-11-24T13:49:53Z</time>
      </trkpt>
      <trkpt lat="43.72237" lon="6.96113">
        <ele>832.6</ele>
        <time>2011-11-24T13:49:55Z</time>
      </trkpt>
      <trkpt lat="43.72241" lon="6.9612">
        <ele>831.5</ele>
        <time>2011-11-24T13:49:57Z</time>
      </trkpt>
      <trkpt lat="43.72243" lon="6.96126">
        <ele>830.9</ele>
        <time>2011-11-24T13:49:59Z</time>
      </trkpt>
      <trkpt lat="43.72249" lon="6.96134">
        <ele>827.9</ele>
        <time>2011-11-24T13:50:02Z</time>
      </trkpt>
      <trkpt lat="43.72252" lon="6.96139">
        <ele>826.9</ele>
        <time>2011-11-24T13:50:03Z</time>
      </trkpt>
      <trkpt lat="43.72256" lon="6.96153">
        <ele>825.3</ele>
        <time>2011-11-24T13:50:05Z</time>
      </trkpt>
      <trkpt lat="43.72256" lon="6.96162">
        <ele>824</ele>
        <time>2011-11-24T13:50:06Z</time>
      </trkpt>
      <trkpt lat="43.72254" lon="6.96172">
        <ele>821.3</ele>
        <time>2011-11-24T13:50:07Z</time>
      </trkpt>
      <trkpt lat="43.72251" lon="6.96182">
        <ele>820.2</ele>
        <time>2011-11-24T13:50:08Z</time>
      </trkpt>
      <trkpt lat="43.72248" lon="6.96193">
        <ele>819</ele>
        <time>2011-11-24T13:50:09Z</time>
      </trkpt>
      <trkpt lat="43.72246" lon="6.96205">
        <ele>818.1</ele>
        <time>2011-11-24T13:50:10Z</time>
      </trkpt>
      <trkpt lat="43.72246" lon="6.96217">
        <ele>817.1</ele>
        <time>2011-11-24T13:50:11Z</time>
      </trkpt>
      <trkpt lat="43.72246" lon="6.96227">
        <ele>816.4</ele>
        <time>2011-11-24T13:50:12Z</time>
      </trkpt>
      <trkpt lat="43.72247" lon="6.96235">
        <ele>816.3</ele>
        <time>2011-11-24T13:50:13Z</time>
      </trkpt>
      <trkpt lat="43.72246" lon="6.96244">
        <ele>815.7</ele>
        <time>2011-11-24T13:50:14Z</time>
      </trkpt>
      <trkpt lat="43.72244" lon="6.9625">
        <ele>815.2</ele>
        <time>2011-11-24T13:50:15Z</time>
      </trkpt>
      <trkpt lat="43.72242" lon="6.96261">
        <ele>814.9</ele>
        <time>2011-11-24T13:50:17Z</time>
      </trkpt>
      <trkpt lat="43.7224" lon="6.96267">
        <ele>814.9</ele>
        <time>2011-11-24T13:50:18Z</time>
      </trkpt>
      <trkpt lat="43.72238" lon="6.96273">
        <ele>815.2</ele>
        <time>2011-11-24T13:50:19Z</time>
      </trkpt>
      <trkpt lat="43.72236" lon="6.96278">
        <ele>815.4</ele>
        <time>2011-11-24T13:50:20Z</time>
      </trkpt>
      <trkpt lat="43.72234" lon="6.96285">
        <ele>814.7</ele>
        <time>2011-11-24T13:50:21Z</time>
      </trkpt>
      <trkpt lat="43.72232" lon="6.96291">
        <ele>814.2</ele>
        <time>2011-11-24T13:50:22Z</time>
      </trkpt>
      <trkpt lat="43.72231" lon="6.96297">
        <ele>814.4</ele>
        <time>2011-11-24T13:50:23Z</time>
      </trkpt>
      <trkpt lat="43.72229" lon="6.96304">
        <ele>814.1</ele>
        <time>2011-11-24T13:50:24Z</time>
      </trkpt>
      <trkpt lat="43.72228" lon="6.9631">
        <ele>814</ele>
        <time>2011-11-24T13:50:25Z</time>
      </trkpt>
      <trkpt lat="43.72226" lon="6.96316">
        <ele>813.6</ele>
        <time>2011-11-24T13:50:26Z</time>
      </trkpt>
      <trkpt lat="43.72223" lon="6.96322">
        <ele>813.2</ele>
        <time>2011-11-24T13:50:27Z</time>
      </trkpt>
      <trkpt lat="43.7222" lon="6.96328">
        <ele>812.9</ele>
        <time>2011-11-24T13:50:28Z</time>
      </trkpt>
      <trkpt lat="43.72217" lon="6.96334">
        <ele>813.3</ele>
        <time>2011-11-24T13:50:29Z</time>
      </trkpt>
      <trkpt lat="43.72214" lon="6.96341">
        <ele>813.2</ele>
        <time>2011-11-24T13:50:30Z</time>
      </trkpt>
      <trkpt lat="43.72211" lon="6.96348">
        <ele>812.6</ele>
        <time>2011-11-24T13:50:31Z</time>
      </trkpt>
      <trkpt lat="43.72209" lon="6.96355">
        <ele>812.5</ele>
        <time>2011-11-24T13:50:32Z</time>
      </trkpt>
      <trkpt lat="43.72206" lon="6.96362">
        <ele>812.1</ele>
        <time>2011-11-24T13:50:33Z</time>
      </trkpt>
      <trkpt lat="43.72203" lon="6.96369">
        <ele>811.9</ele>
        <time>2011-11-24T13:50:34Z</time>
      </trkpt>
      <trkpt lat="43.72201" lon="6.96375">
        <ele>812.2</ele>
        <time>2011-11-24T13:50:35Z</time>
      </trkpt>
      <trkpt lat="43.72199" lon="6.96381">
        <ele>811.8</ele>
        <time>2011-11-24T13:50:36Z</time>
      </trkpt>
      <trkpt lat="43.72197" lon="6.96388">
        <ele>811.6</ele>
        <time>2011-11-24T13:50:37Z</time>
      </trkpt>
      <trkpt lat="43.72196" lon="6.96396">
        <ele>811.4</ele>
        <time>2011-11-24T13:50:38Z</time>
      </trkpt>
      <trkpt lat="43.72197" lon="6.96403">
        <ele>811</ele>
        <time>2011-11-24T13:50:39Z</time>
      </trkpt>
      <trkpt lat="43.722" lon="6.96412">
        <ele>810.8</ele>
        <time>2011-11-24T13:50:40Z</time>
      </trkpt>
      <trkpt lat="43.72201" lon="6.96421">
        <ele>809.5</ele>
        <time>2011-11-24T13:50:41Z</time>
      </trkpt>
      <trkpt lat="43.72203" lon="6.9643">
        <ele>809.8</ele>
        <time>2011-11-24T13:50:42Z</time>
      </trkpt>
      <trkpt lat="43.72205" lon="6.96439">
        <ele>809.9</ele>
        <time>2011-11-24T13:50:43Z</time>
      </trkpt>
      <trkpt lat="43.72204" lon="6.96448">
        <ele>810</ele>
        <time>2011-11-24T13:50:44Z</time>
      </trkpt>
      <trkpt lat="43.72203" lon="6.96454">
        <ele>809.4</ele>
        <time>2011-11-24T13:50:45Z</time>
      </trkpt>
      <trkpt lat="43.72202" lon="6.96463">
        <ele>809.2</ele>
        <time>2011-11-24T13:50:47Z</time>
      </trkpt>
      <trkpt lat="43.72204" lon="6.96469">
        <ele>809</ele>
        <time>2011-11-24T13:50:50Z</time>
      </trkpt>
      <trkpt lat="43.72206" lon="6.96477">
        <ele>808.7</ele>
        <time>2011-11-24T13:50:53Z</time>
      </trkpt>
      <trkpt lat="43.72208" lon="6.96486">
        <ele>808.5</ele>
        <time>2011-11-24T13:50:55Z</time>
      </trkpt>
      <trkpt lat="43.72204" lon="6.96493">
        <ele>807.9</ele>
        <time>2011-11-24T13:50:57Z</time>
      </trkpt>
      <trkpt lat="43.72198" lon="6.96494">
        <ele>808.6</ele>
        <time>2011-11-24T13:50:59Z</time>
      </trkpt>
      <trkpt lat="43.72191" lon="6.96492">
        <ele>808.4</ele>
        <time>2011-11-24T13:51:01Z</time>
      </trkpt>
      <trkpt lat="43.72184" lon="6.96491">
        <ele>807.3</ele>
        <time>2011-11-24T13:51:03Z</time>
      </trkpt>
      <trkpt lat="43.72179" lon="6.96493">
        <ele>807.4</ele>
        <time>2011-11-24T13:51:05Z</time>
      </trkpt>
      <trkpt lat="43.72173" lon="6.965">
        <ele>809.1</ele>
        <time>2011-11-24T13:51:06Z</time>
      </trkpt>
      <trkpt lat="43.72166" lon="6.96507">
        <ele>809.3</ele>
        <time>2011-11-24T13:51:08Z</time>
      </trkpt>
      <trkpt lat="43.72159" lon="6.96513">
        <ele>809.5</ele>
        <time>2011-11-24T13:51:10Z</time>
      </trkpt>
      <trkpt lat="43.72152" lon="6.96518">
        <ele>810.3</ele>
        <time>2011-11-24T13:51:12Z</time>
      </trkpt>
      <trkpt lat="43.72145" lon="6.96523">
        <ele>810.7</ele>
        <time>2011-11-24T13:51:14Z</time>
      </trkpt>
      <trkpt lat="43.72139" lon="6.96529">
        <ele>811</ele>
        <time>2011-11-24T13:51:16Z</time>
      </trkpt>
      <trkpt lat="43.72133" lon="6.96535">
        <ele>811.3</ele>
        <time>2011-11-24T13:51:18Z</time>
      </trkpt>
      <trkpt lat="43.72126" lon="6.96539">
        <ele>811.3</ele>
        <time>2011-11-24T13:51:20Z</time>
      </trkpt>
      <trkpt lat="43.72121" lon="6.96541">
        <ele>811.2</ele>
        <time>2011-11-24T13:51:21Z</time>
      </trkpt>
      <trkpt lat="43.72114" lon="6.96546">
        <ele>811.2</ele>
        <time>2011-11-24T13:51:23Z</time>
      </trkpt>
      <trkpt lat="43.72105" lon="6.96547">
        <ele>810.4</ele>
        <time>2011-11-24T13:51:25Z</time>
      </trkpt>
      <trkpt lat="43.721" lon="6.96547">
        <ele>810.2</ele>
        <time>2011-11-24T13:51:26Z</time>
      </trkpt>
      <trkpt lat="43.72095" lon="6.96548">
        <ele>809.8</ele>
        <time>2011-11-24T13:51:27Z</time>
      </trkpt>
      <trkpt lat="43.72088" lon="6.96552">
        <ele>809.4</ele>
        <time>2011-11-24T13:51:29Z</time>
      </trkpt>
      <trkpt lat="43.72083" lon="6.96554">
        <ele>809.3</ele>
        <time>2011-11-24T13:51:30Z</time>
      </trkpt>
      <trkpt lat="43.72077" lon="6.96554">
        <ele>809.5</ele>
        <time>2011-11-24T13:51:31Z</time>
      </trkpt>
      <trkpt lat="43.72074" lon="6.96549">
        <ele>809.1</ele>
        <time>2011-11-24T13:51:32Z</time>
      </trkpt>
      <trkpt lat="43.72072" lon="6.96543">
        <ele>809.7</ele>
        <time>2011-11-24T13:51:33Z</time>
      </trkpt>
      <trkpt lat="43.72069" lon="6.96537">
        <ele>809.3</ele>
        <time>2011-11-24T13:51:34Z</time>
      </trkpt>
      <trkpt lat="43.72066" lon="6.9653">
        <ele>808</ele>
        <time>2011-11-24T13:51:35Z</time>
      </trkpt>
      <trkpt lat="43.72063" lon="6.96521">
        <ele>807</ele>
        <time>2011-11-24T13:51:36Z</time>
      </trkpt>
      <trkpt lat="43.72061" lon="6.96513">
        <ele>806.3</ele>
        <time>2011-11-24T13:51:37Z</time>
      </trkpt>
      <trkpt lat="43.72059" lon="6.96503">
        <ele>805.9</ele>
        <time>2011-11-24T13:51:38Z</time>
      </trkpt>
      <trkpt lat="43.72058" lon="6.96492">
        <ele>805.1</ele>
        <time>2011-11-24T13:51:39Z</time>
      </trkpt>
      <trkpt lat="43.72057" lon="6.96482">
        <ele>804.9</ele>
        <time>2011-11-24T13:51:40Z</time>
      </trkpt>
      <trkpt lat="43.72057" lon="6.9647">
        <ele>804.8</ele>
        <time>2011-11-24T13:51:41Z</time>
      </trkpt>
      <trkpt lat="43.72056" lon="6.9646">
        <ele>804.5</ele>
        <time>2011-11-24T13:51:42Z</time>
      </trkpt>
      <trkpt lat="43.72055" lon="6.96448">
        <ele>805</ele>
        <time>2011-11-24T13:51:43Z</time>
      </trkpt>
      <trkpt lat="43.72054" lon="6.96439">
        <ele>805.2</ele>
        <time>2011-11-24T13:51:44Z</time>
      </trkpt>
      <trkpt lat="43.72053" lon="6.96429">
        <ele>805.7</ele>
        <time>2011-11-24T13:51:45Z</time>
      </trkpt>
      <trkpt lat="43.72052" lon="6.96419">
        <ele>805.5</ele>
        <time>2011-11-24T13:51:46Z</time>
      </trkpt>
      <trkpt lat="43.7205" lon="6.96409">
        <ele>805.2</ele>
        <time>2011-11-24T13:51:47Z</time>
      </trkpt>
      <trkpt lat="43.72048" lon="6.964">
        <ele>805.4</ele>
        <time>2011-11-24T13:51:48Z</time>
      </trkpt>
      <trkpt lat="43.72044" lon="6.96391">
        <ele>805.4</ele>
        <time>2011-11-24T13:51:49Z</time>
      </trkpt>
      <trkpt lat="43.72042" lon="6.96383">
        <ele>804.9</ele>
        <time>2011-11-24T13:51:50Z</time>
      </trkpt>
      <trkpt lat="43.72039" lon="6.96376">
        <ele>804.5</ele>
        <time>2011-11-24T13:51:51Z</time>
      </trkpt>
      <trkpt lat="43.72038" lon="6.96369">
        <ele>805.4</ele>
        <time>2011-11-24T13:51:52Z</time>
      </trkpt>
      <trkpt lat="43.72033" lon="6.96359">
        <ele>806.1</ele>
        <time>2011-11-24T13:51:54Z</time>
      </trkpt>
      <trkpt lat="43.72031" lon="6.9635">
        <ele>807.5</ele>
        <time>2011-11-24T13:51:56Z</time>
      </trkpt>
      <trkpt lat="43.7203" lon="6.96342">
        <ele>809.2</ele>
        <time>2011-11-24T13:51:58Z</time>
      </trkpt>
      <trkpt lat="43.72029" lon="6.96333">
        <ele>809.5</ele>
        <time>2011-11-24T13:52:00Z</time>
      </trkpt>
      <trkpt lat="43.72029" lon="6.96326">
        <ele>810.1</ele>
        <time>2011-11-24T13:52:02Z</time>
      </trkpt>
      <trkpt lat="43.72029" lon="6.96318">
        <ele>811</ele>
        <time>2011-11-24T13:52:04Z</time>
      </trkpt>
      <trkpt lat="43.72027" lon="6.96309">
        <ele>811.5</ele>
        <time>2011-11-24T13:52:06Z</time>
      </trkpt>
      <trkpt lat="43.72027" lon="6.96301">
        <ele>812.1</ele>
        <time>2011-11-24T13:52:08Z</time>
      </trkpt>
      <trkpt lat="43.72026" lon="6.96293">
        <ele>812.5</ele>
        <time>2011-11-24T13:52:10Z</time>
      </trkpt>
      <trkpt lat="43.72024" lon="6.96285">
        <ele>814.2</ele>
        <time>2011-11-24T13:52:12Z</time>
      </trkpt>
      <trkpt lat="43.72023" lon="6.96277">
        <ele>815.4</ele>
        <time>2011-11-24T13:52:14Z</time>
      </trkpt>
      <trkpt lat="43.72019" lon="6.9627">
        <ele>814.9</ele>
        <time>2011-11-24T13:52:17Z</time>
      </trkpt>
      <trkpt lat="43.72014" lon="6.96261">
        <ele>815</ele>
        <time>2011-11-24T13:52:20Z</time>
      </trkpt>
      <trkpt lat="43.72013" lon="6.96255">
        <ele>815.7</ele>
        <time>2011-11-24T13:52:22Z</time>
      </trkpt>
      <trkpt lat="43.72011" lon="6.96248">
        <ele>816.4</ele>
        <time>2011-11-24T13:52:24Z</time>
      </trkpt>
      <trkpt lat="43.7201" lon="6.96242">
        <ele>816.8</ele>
        <time>2011-11-24T13:52:26Z</time>
      </trkpt>
      <trkpt lat="43.7201" lon="6.96235">
        <ele>817.5</ele>
        <time>2011-11-24T13:52:28Z</time>
      </trkpt>
      <trkpt lat="43.72009" lon="6.96228">
        <ele>817.8</ele>
        <time>2011-11-24T13:52:30Z</time>
      </trkpt>
      <trkpt lat="43.72009" lon="6.96222">
        <ele>817.9</ele>
        <time>2011-11-24T13:52:32Z</time>
      </trkpt>
      <trkpt lat="43.72009" lon="6.96215">
        <ele>817.8</ele>
        <time>2011-11-24T13:52:34Z</time>
      </trkpt>
      <trkpt lat="43.72008" lon="6.96208">
        <ele>817.7</ele>
        <time>2011-11-24T13:52:36Z</time>
      </trkpt>
      <trkpt lat="43.72006" lon="6.96201">
        <ele>818</ele>
        <time>2011-11-24T13:52:38Z</time>
      </trkpt>
      <trkpt lat="43.72" lon="6.96198">
        <ele>819.1</ele>
        <time>2011-11-24T13:52:40Z</time>
      </trkpt>
      <trkpt lat="43.71994" lon="6.96195">
        <ele>819.4</ele>
        <time>2011-11-24T13:52:42Z</time>
      </trkpt>
      <trkpt lat="43.71986" lon="6.96192">
        <ele>819.2</ele>
        <time>2011-11-24T13:52:44Z</time>
      </trkpt>
      <trkpt lat="43.71979" lon="6.96188">
        <ele>818.1</ele>
        <time>2011-11-24T13:52:45Z</time>
      </trkpt>
      <trkpt lat="43.71974" lon="6.96185">
        <ele>817.4</ele>
        <time>2011-11-24T13:52:46Z</time>
      </trkpt>
      <trkpt lat="43.71968" lon="6.9618">
        <ele>816</ele>
        <time>2011-11-24T13:52:47Z</time>
      </trkpt>
      <trkpt lat="43.71963" lon="6.96175">
        <ele>815.5</ele>
        <time>2011-11-24T13:52:48Z</time>
      </trkpt>
      <trkpt lat="43.71956" lon="6.96172">
        <ele>814.6</ele>
        <time>2011-11-24T13:52:49Z</time>
      </trkpt>
      <trkpt lat="43.7195" lon="6.9617">
        <ele>814.2</ele>
        <time>2011-11-24T13:52:50Z</time>
      </trkpt>
      <trkpt lat="43.71943" lon="6.9617">
        <ele>814</ele>
        <time>2011-11-24T13:52:51Z</time>
      </trkpt>
      <trkpt lat="43.71937" lon="6.9617">
        <ele>813.8</ele>
        <time>2011-11-24T13:52:52Z</time>
      </trkpt>
      <trkpt lat="43.7193" lon="6.96171">
        <ele>813.8</ele>
        <time>2011-11-24T13:52:53Z</time>
      </trkpt>
      <trkpt lat="43.71924" lon="6.96172">
        <ele>813.8</ele>
        <time>2011-11-24T13:52:54Z</time>
      </trkpt>
      <trkpt lat="43.71916" lon="6.96175">
        <ele>813.4</ele>
        <time>2011-11-24T13:52:55Z</time>
      </trkpt>
      <trkpt lat="43.71909" lon="6.96178">
        <ele>813.2</ele>
        <time>2011-11-24T13:52:56Z</time>
      </trkpt>
      <trkpt lat="43.71903" lon="6.9618">
        <ele>812.9</ele>
        <time>2011-11-24T13:52:57Z</time>
      </trkpt>
      <trkpt lat="43.71898" lon="6.96182">
        <ele>812.4</ele>
        <time>2011-11-24T13:52:58Z</time>
      </trkpt>
      <trkpt lat="43.71892" lon="6.96184">
        <ele>812.1</ele>
        <time>2011-11-24T13:52:59Z</time>
      </trkpt>
      <trkpt lat="43.71883" lon="6.96184">
        <ele>812.3</ele>
        <time>2011-11-24T13:53:01Z</time>
      </trkpt>
      <trkpt lat="43.71877" lon="6.96185">
        <ele>812.4</ele>
        <time>2011-11-24T13:53:02Z</time>
      </trkpt>
      <trkpt lat="43.71873" lon="6.96186">
        <ele>812.3</ele>
        <time>2011-11-24T13:53:03Z</time>
      </trkpt>
      <trkpt lat="43.71868" lon="6.96186">
        <ele>812.3</ele>
        <time>2011-11-24T13:53:04Z</time>
      </trkpt>
      <trkpt lat="43.71863" lon="6.96188">
        <ele>812.5</ele>
        <time>2011-11-24T13:53:05Z</time>
      </trkpt>
      <trkpt lat="43.71859" lon="6.96188">
        <ele>812.3</ele>
        <time>2011-11-24T13:53:06Z</time>
      </trkpt>
      <trkpt lat="43.71852" lon="6.96193">
        <ele>812.3</ele>
        <time>2011-11-24T13:53:08Z</time>
      </trkpt>
      <trkpt lat="43.71848" lon="6.96196">
        <ele>812.8</ele>
        <time>2011-11-24T13:53:09Z</time>
      </trkpt>
      <trkpt lat="43.71844" lon="6.962">
        <ele>812.8</ele>
        <time>2011-11-24T13:53:10Z</time>
      </trkpt>
      <trkpt lat="43.7184" lon="6.96204">
        <ele>812.6</ele>
        <time>2011-11-24T13:53:11Z</time>
      </trkpt>
      <trkpt lat="43.71837" lon="6.9621">
        <ele>812.5</ele>
        <time>2011-11-24T13:53:12Z</time>
      </trkpt>
      <trkpt lat="43.71833" lon="6.96214">
        <ele>812.1</ele>
        <time>2011-11-24T13:53:13Z</time>
      </trkpt>
      <trkpt lat="43.71828" lon="6.96221">
        <ele>811.8</ele>
        <time>2011-11-24T13:53:15Z</time>
      </trkpt>
      <trkpt lat="43.71821" lon="6.9623">
        <ele>812.1</ele>
        <time>2011-11-24T13:53:17Z</time>
      </trkpt>
      <trkpt lat="43.71815" lon="6.96239">
        <ele>812.8</ele>
        <time>2011-11-24T13:53:19Z</time>
      </trkpt>
      <trkpt lat="43.71812" lon="6.96243">
        <ele>812.3</ele>
        <time>2011-11-24T13:53:20Z</time>
      </trkpt>
      <trkpt lat="43.7181" lon="6.96252">
        <ele>811.3</ele>
        <time>2011-11-24T13:53:21Z</time>
      </trkpt>
      <trkpt lat="43.71806" lon="6.96258">
        <ele>811</ele>
        <time>2011-11-24T13:53:22Z</time>
      </trkpt>
      <trkpt lat="43.71804" lon="6.96265">
        <ele>810.8</ele>
        <time>2011-11-24T13:53:23Z</time>
      </trkpt>
      <trkpt lat="43.71801" lon="6.9627">
        <ele>811.5</ele>
        <time>2011-11-24T13:53:24Z</time>
      </trkpt>
      <trkpt lat="43.71798" lon="6.96276">
        <ele>812.3</ele>
        <time>2011-11-24T13:53:25Z</time>
      </trkpt>
      <trkpt lat="43.71797" lon="6.96284">
        <ele>812.3</ele>
        <time>2011-11-24T13:53:26Z</time>
      </trkpt>
      <trkpt lat="43.71796" lon="6.9629">
        <ele>813</ele>
        <time>2011-11-24T13:53:27Z</time>
      </trkpt>
      <trkpt lat="43.71796" lon="6.96303">
        <ele>813</ele>
        <time>2011-11-24T13:53:29Z</time>
      </trkpt>
      <trkpt lat="43.71797" lon="6.96315">
        <ele>811.8</ele>
        <time>2011-11-24T13:53:31Z</time>
      </trkpt>
      <trkpt lat="43.71798" lon="6.96322">
        <ele>811.1</ele>
        <time>2011-11-24T13:53:32Z</time>
      </trkpt>
      <trkpt lat="43.71799" lon="6.96329">
        <ele>810.9</ele>
        <time>2011-11-24T13:53:33Z</time>
      </trkpt>
      <trkpt lat="43.71795" lon="6.96337">
        <ele>812.1</ele>
        <time>2011-11-24T13:53:35Z</time>
      </trkpt>
      <trkpt lat="43.71792" lon="6.96346">
        <ele>812.4</ele>
        <time>2011-11-24T13:53:37Z</time>
      </trkpt>
      <trkpt lat="43.71791" lon="6.96354">
        <ele>812.5</ele>
        <time>2011-11-24T13:53:39Z</time>
      </trkpt>
      <trkpt lat="43.71788" lon="6.9636">
        <ele>813.4</ele>
        <time>2011-11-24T13:53:41Z</time>
      </trkpt>
      <trkpt lat="43.71787" lon="6.96367">
        <ele>814.2</ele>
        <time>2011-11-24T13:53:43Z</time>
      </trkpt>
      <trkpt lat="43.71785" lon="6.96374">
        <ele>814.9</ele>
        <time>2011-11-24T13:53:45Z</time>
      </trkpt>
      <trkpt lat="43.71784" lon="6.96381">
        <ele>815.5</ele>
        <time>2011-11-24T13:53:47Z</time>
      </trkpt>
      <trkpt lat="43.71782" lon="6.96387">
        <ele>816.1</ele>
        <time>2011-11-24T13:53:49Z</time>
      </trkpt>
      <trkpt lat="43.71779" lon="6.96394">
        <ele>816.5</ele>
        <time>2011-11-24T13:53:51Z</time>
      </trkpt>
      <trkpt lat="43.71776" lon="6.96399">
        <ele>817.6</ele>
        <time>2011-11-24T13:53:53Z</time>
      </trkpt>
      <trkpt lat="43.71773" lon="6.96405">
        <ele>817.4</ele>
        <time>2011-11-24T13:53:55Z</time>
      </trkpt>
      <trkpt lat="43.71771" lon="6.9641">
        <ele>817.5</ele>
        <time>2011-11-24T13:53:57Z</time>
      </trkpt>
      <trkpt lat="43.71767" lon="6.96415">
        <ele>818.4</ele>
        <time>2011-11-24T13:53:59Z</time>
      </trkpt>
      <trkpt lat="43.71764" lon="6.96421">
        <ele>818.2</ele>
        <time>2011-11-24T13:54:01Z</time>
      </trkpt>
      <trkpt lat="43.7176" lon="6.96425">
        <ele>818.9</ele>
        <time>2011-11-24T13:54:03Z</time>
      </trkpt>
      <trkpt lat="43.71756" lon="6.96429">
        <ele>819.3</ele>
        <time>2011-11-24T13:54:05Z</time>
      </trkpt>
      <trkpt lat="43.71752" lon="6.96433">
        <ele>819.6</ele>
        <time>2011-11-24T13:54:07Z</time>
      </trkpt>
      <trkpt lat="43.71747" lon="6.96437">
        <ele>819.5</ele>
        <time>2011-11-24T13:54:09Z</time>
      </trkpt>
      <trkpt lat="43.71743" lon="6.96442">
        <ele>819.5</ele>
        <time>2011-11-24T13:54:11Z</time>
      </trkpt>
      <trkpt lat="43.71738" lon="6.96446">
        <ele>820.2</ele>
        <time>2011-11-24T13:54:13Z</time>
      </trkpt>
      <trkpt lat="43.71733" lon="6.96449">
        <ele>820.5</ele>
        <time>2011-11-24T13:54:15Z</time>
      </trkpt>
      <trkpt lat="43.71728" lon="6.96453">
        <ele>820.7</ele>
        <time>2011-11-24T13:54:17Z</time>
      </trkpt>
      <trkpt lat="43.71724" lon="6.96456">
        <ele>821</ele>
        <time>2011-11-24T13:54:19Z</time>
      </trkpt>
      <trkpt lat="43.71718" lon="6.9646">
        <ele>821.3</ele>
        <time>2011-11-24T13:54:21Z</time>
      </trkpt>
      <trkpt lat="43.71714" lon="6.96464">
        <ele>821.6</ele>
        <time>2011-11-24T13:54:23Z</time>
      </trkpt>
      <trkpt lat="43.7171" lon="6.9647">
        <ele>822</ele>
        <time>2011-11-24T13:54:25Z</time>
      </trkpt>
      <trkpt lat="43.7171" lon="6.96477">
        <ele>822.5</ele>
        <time>2011-11-24T13:54:26Z</time>
      </trkpt>
      <trkpt lat="43.71707" lon="6.96485">
        <ele>822.3</ele>
        <time>2011-11-24T13:54:28Z</time>
      </trkpt>
      <trkpt lat="43.71704" lon="6.96494">
        <ele>823.3</ele>
        <time>2011-11-24T13:54:30Z</time>
      </trkpt>
      <trkpt lat="43.71702" lon="6.96503">
        <ele>823</ele>
        <time>2011-11-24T13:54:32Z</time>
      </trkpt>
      <trkpt lat="43.71698" lon="6.96511">
        <ele>823.1</ele>
        <time>2011-11-24T13:54:34Z</time>
      </trkpt>
      <trkpt lat="43.71693" lon="6.96518">
        <ele>823</ele>
        <time>2011-11-24T13:54:36Z</time>
      </trkpt>
      <trkpt lat="43.71688" lon="6.96525">
        <ele>823</ele>
        <time>2011-11-24T13:54:38Z</time>
      </trkpt>
      <trkpt lat="43.71683" lon="6.9653">
        <ele>822.3</ele>
        <time>2011-11-24T13:54:39Z</time>
      </trkpt>
      <trkpt lat="43.71679" lon="6.96532">
        <ele>821.7</ele>
        <time>2011-11-24T13:54:40Z</time>
      </trkpt>
      <trkpt lat="43.71674" lon="6.96536">
        <ele>820.9</ele>
        <time>2011-11-24T13:54:41Z</time>
      </trkpt>
      <trkpt lat="43.71669" lon="6.96539">
        <ele>820.8</ele>
        <time>2011-11-24T13:54:42Z</time>
      </trkpt>
      <trkpt lat="43.71663" lon="6.96542">
        <ele>820.8</ele>
        <time>2011-11-24T13:54:43Z</time>
      </trkpt>
      <trkpt lat="43.71657" lon="6.96547">
        <ele>820.7</ele>
        <time>2011-11-24T13:54:44Z</time>
      </trkpt>
      <trkpt lat="43.7165" lon="6.96553">
        <ele>820.4</ele>
        <time>2011-11-24T13:54:45Z</time>
      </trkpt>
      <trkpt lat="43.71645" lon="6.9656">
        <ele>820.4</ele>
        <time>2011-11-24T13:54:46Z</time>
      </trkpt>
      <trkpt lat="43.71639" lon="6.96566">
        <ele>820.1</ele>
        <time>2011-11-24T13:54:47Z</time>
      </trkpt>
      <trkpt lat="43.71634" lon="6.96572">
        <ele>819.8</ele>
        <time>2011-11-24T13:54:48Z</time>
      </trkpt>
      <trkpt lat="43.7163" lon="6.96579">
        <ele>819.6</ele>
        <time>2011-11-24T13:54:49Z</time>
      </trkpt>
      <trkpt lat="43.71626" lon="6.96586">
        <ele>819.5</ele>
        <time>2011-11-24T13:54:50Z</time>
      </trkpt>
      <trkpt lat="43.71622" lon="6.96593">
        <ele>819.6</ele>
        <time>2011-11-24T13:54:51Z</time>
      </trkpt>
      <trkpt lat="43.7162" lon="6.96601">
        <ele>820</ele>
        <time>2011-11-24T13:54:52Z</time>
      </trkpt>
      <trkpt lat="43.71617" lon="6.96608">
        <ele>819.8</ele>
        <time>2011-11-24T13:54:53Z</time>
      </trkpt>
      <trkpt lat="43.71614" lon="6.96615">
        <ele>820.3</ele>
        <time>2011-11-24T13:54:54Z</time>
      </trkpt>
      <trkpt lat="43.71611" lon="6.96622">
        <ele>820.6</ele>
        <time>2011-11-24T13:54:55Z</time>
      </trkpt>
      <trkpt lat="43.71608" lon="6.96627">
        <ele>820.8</ele>
        <time>2011-11-24T13:54:56Z</time>
      </trkpt>
      <trkpt lat="43.71605" lon="6.96632">
        <ele>820.9</ele>
        <time>2011-11-24T13:54:57Z</time>
      </trkpt>
      <trkpt lat="43.71602" lon="6.96638">
        <ele>820.9</ele>
        <time>2011-11-24T13:54:58Z</time>
      </trkpt>
      <trkpt lat="43.71598" lon="6.96648">
        <ele>822.2</ele>
        <time>2011-11-24T13:55:00Z</time>
      </trkpt>
      <trkpt lat="43.71595" lon="6.96657">
        <ele>823.4</ele>
        <time>2011-11-24T13:55:02Z</time>
      </trkpt>
      <trkpt lat="43.71591" lon="6.96665">
        <ele>823.7</ele>
        <time>2011-11-24T13:55:04Z</time>
      </trkpt>
      <trkpt lat="43.71587" lon="6.96672">
        <ele>824.1</ele>
        <time>2011-11-24T13:55:06Z</time>
      </trkpt>
      <trkpt lat="43.71583" lon="6.9668">
        <ele>823.9</ele>
        <time>2011-11-24T13:55:08Z</time>
      </trkpt>
      <trkpt lat="43.71584" lon="6.96689">
        <ele>824.8</ele>
        <time>2011-11-24T13:55:09Z</time>
      </trkpt>
      <trkpt lat="43.71581" lon="6.96697">
        <ele>826</ele>
        <time>2011-11-24T13:55:11Z</time>
      </trkpt>
      <trkpt lat="43.71577" lon="6.96704">
        <ele>826.4</ele>
        <time>2011-11-24T13:55:13Z</time>
      </trkpt>
      <trkpt lat="43.71573" lon="6.96712">
        <ele>827.3</ele>
        <time>2011-11-24T13:55:15Z</time>
      </trkpt>
      <trkpt lat="43.71569" lon="6.9672">
        <ele>827.2</ele>
        <time>2011-11-24T13:55:17Z</time>
      </trkpt>
      <trkpt lat="43.71564" lon="6.96726">
        <ele>827.9</ele>
        <time>2011-11-24T13:55:19Z</time>
      </trkpt>
      <trkpt lat="43.7156" lon="6.96733">
        <ele>828.4</ele>
        <time>2011-11-24T13:55:21Z</time>
      </trkpt>
      <trkpt lat="43.71555" lon="6.96738">
        <ele>828.9</ele>
        <time>2011-11-24T13:55:23Z</time>
      </trkpt>
      <trkpt lat="43.71549" lon="6.96742">
        <ele>829.7</ele>
        <time>2011-11-24T13:55:25Z</time>
      </trkpt>
      <trkpt lat="43.71544" lon="6.96745">
        <ele>831.4</ele>
        <time>2011-11-24T13:55:27Z</time>
      </trkpt>
      <trkpt lat="43.71539" lon="6.96748">
        <ele>832.5</ele>
        <time>2011-11-24T13:55:29Z</time>
      </trkpt>
      <trkpt lat="43.71534" lon="6.9675">
        <ele>832.9</ele>
        <time>2011-11-24T13:55:31Z</time>
      </trkpt>
      <trkpt lat="43.71529" lon="6.96751">
        <ele>833.2</ele>
        <time>2011-11-24T13:55:33Z</time>
      </trkpt>
      <trkpt lat="43.71524" lon="6.96754">
        <ele>833.8</ele>
        <time>2011-11-24T13:55:35Z</time>
      </trkpt>
      <trkpt lat="43.71518" lon="6.96754">
        <ele>834.9</ele>
        <time>2011-11-24T13:55:38Z</time>
      </trkpt>
      <trkpt lat="43.71512" lon="6.96757">
        <ele>834.7</ele>
        <time>2011-11-24T13:55:40Z</time>
      </trkpt>
      <trkpt lat="43.71506" lon="6.96756">
        <ele>834.8</ele>
        <time>2011-11-24T13:55:42Z</time>
      </trkpt>
      <trkpt lat="43.71501" lon="6.96755">
        <ele>834.8</ele>
        <time>2011-11-24T13:55:44Z</time>
      </trkpt>
      <trkpt lat="43.71496" lon="6.96754">
        <ele>834.7</ele>
        <time>2011-11-24T13:55:46Z</time>
      </trkpt>
      <trkpt lat="43.71491" lon="6.96749">
        <ele>834</ele>
        <time>2011-11-24T13:55:48Z</time>
      </trkpt>
      <trkpt lat="43.71485" lon="6.96747">
        <ele>834.5</ele>
        <time>2011-11-24T13:55:50Z</time>
      </trkpt>
      <trkpt lat="43.71479" lon="6.96746">
        <ele>834.3</ele>
        <time>2011-11-24T13:55:52Z</time>
      </trkpt>
      <trkpt lat="43.71472" lon="6.96741">
        <ele>833.8</ele>
        <time>2011-11-24T13:55:54Z</time>
      </trkpt>
      <trkpt lat="43.71468" lon="6.96733">
        <ele>833.1</ele>
        <time>2011-11-24T13:55:56Z</time>
      </trkpt>
      <trkpt lat="43.71462" lon="6.96725">
        <ele>833.1</ele>
        <time>2011-11-24T13:55:58Z</time>
      </trkpt>
      <trkpt lat="43.71457" lon="6.96716">
        <ele>833.1</ele>
        <time>2011-11-24T13:56:00Z</time>
      </trkpt>
      <trkpt lat="43.7145" lon="6.96709">
        <ele>833.2</ele>
        <time>2011-11-24T13:56:02Z</time>
      </trkpt>
      <trkpt lat="43.71443" lon="6.96702">
        <ele>832.4</ele>
        <time>2011-11-24T13:56:04Z</time>
      </trkpt>
      <trkpt lat="43.71438" lon="6.96698">
        <ele>832</ele>
        <time>2011-11-24T13:56:05Z</time>
      </trkpt>
      <trkpt lat="43.71432" lon="6.96696">
        <ele>831.5</ele>
        <time>2011-11-24T13:56:06Z</time>
      </trkpt>
      <trkpt lat="43.71427" lon="6.96695">
        <ele>831.1</ele>
        <time>2011-11-24T13:56:07Z</time>
      </trkpt>
      <trkpt lat="43.71421" lon="6.96699">
        <ele>830.5</ele>
        <time>2011-11-24T13:56:08Z</time>
      </trkpt>
      <trkpt lat="43.71416" lon="6.96702">
        <ele>829.9</ele>
        <time>2011-11-24T13:56:09Z</time>
      </trkpt>
      <trkpt lat="43.7141" lon="6.96705">
        <ele>829.2</ele>
        <time>2011-11-24T13:56:10Z</time>
      </trkpt>
      <trkpt lat="43.71405" lon="6.96708">
        <ele>828.5</ele>
        <time>2011-11-24T13:56:11Z</time>
      </trkpt>
      <trkpt lat="43.714" lon="6.9671">
        <ele>827.7</ele>
        <time>2011-11-24T13:56:12Z</time>
      </trkpt>
      <trkpt lat="43.71394" lon="6.96713">
        <ele>827.6</ele>
        <time>2011-11-24T13:56:13Z</time>
      </trkpt>
      <trkpt lat="43.71388" lon="6.96715">
        <ele>826.6</ele>
        <time>2011-11-24T13:56:14Z</time>
      </trkpt>
      <trkpt lat="43.71382" lon="6.96717">
        <ele>826.2</ele>
        <time>2011-11-24T13:56:15Z</time>
      </trkpt>
      <trkpt lat="43.71376" lon="6.9672">
        <ele>825</ele>
        <time>2011-11-24T13:56:16Z</time>
      </trkpt>
      <trkpt lat="43.71369" lon="6.96724">
        <ele>824.1</ele>
        <time>2011-11-24T13:56:17Z</time>
      </trkpt>
      <trkpt lat="43.71363" lon="6.96725">
        <ele>823.8</ele>
        <time>2011-11-24T13:56:18Z</time>
      </trkpt>
      <trkpt lat="43.71357" lon="6.96723">
        <ele>823.4</ele>
        <time>2011-11-24T13:56:19Z</time>
      </trkpt>
      <trkpt lat="43.71351" lon="6.96722">
        <ele>823.3</ele>
        <time>2011-11-24T13:56:20Z</time>
      </trkpt>
      <trkpt lat="43.71346" lon="6.96721">
        <ele>823</ele>
        <time>2011-11-24T13:56:21Z</time>
      </trkpt>
      <trkpt lat="43.71341" lon="6.96724">
        <ele>822.7</ele>
        <time>2011-11-24T13:56:22Z</time>
      </trkpt>
      <trkpt lat="43.71337" lon="6.96729">
        <ele>822.8</ele>
        <time>2011-11-24T13:56:23Z</time>
      </trkpt>
      <trkpt lat="43.71332" lon="6.96734">
        <ele>823</ele>
        <time>2011-11-24T13:56:24Z</time>
      </trkpt>
      <trkpt lat="43.71326" lon="6.96741">
        <ele>822.4</ele>
        <time>2011-11-24T13:56:25Z</time>
      </trkpt>
      <trkpt lat="43.71319" lon="6.96748">
        <ele>821.3</ele>
        <time>2011-11-24T13:56:26Z</time>
      </trkpt>
      <trkpt lat="43.71313" lon="6.96753">
        <ele>820.7</ele>
        <time>2011-11-24T13:56:27Z</time>
      </trkpt>
      <trkpt lat="43.71308" lon="6.96762">
        <ele>820</ele>
        <time>2011-11-24T13:56:28Z</time>
      </trkpt>
      <trkpt lat="43.71303" lon="6.96771">
        <ele>819</ele>
        <time>2011-11-24T13:56:29Z</time>
      </trkpt>
      <trkpt lat="43.71298" lon="6.96778">
        <ele>817.7</ele>
        <time>2011-11-24T13:56:30Z</time>
      </trkpt>
      <trkpt lat="43.71293" lon="6.96784">
        <ele>817.4</ele>
        <time>2011-11-24T13:56:31Z</time>
      </trkpt>
      <trkpt lat="43.71287" lon="6.9679">
        <ele>817.1</ele>
        <time>2011-11-24T13:56:32Z</time>
      </trkpt>
      <trkpt lat="43.71281" lon="6.96797">
        <ele>817</ele>
        <time>2011-11-24T13:56:33Z</time>
      </trkpt>
      <trkpt lat="43.71277" lon="6.96804">
        <ele>816.7</ele>
        <time>2011-11-24T13:56:34Z</time>
      </trkpt>
      <trkpt lat="43.71272" lon="6.96811">
        <ele>816.1</ele>
        <time>2011-11-24T13:56:35Z</time>
      </trkpt>
      <trkpt lat="43.71267" lon="6.96816">
        <ele>815</ele>
        <time>2011-11-24T13:56:36Z</time>
      </trkpt>
      <trkpt lat="43.71261" lon="6.96822">
        <ele>813.9</ele>
        <time>2011-11-24T13:56:37Z</time>
      </trkpt>
      <trkpt lat="43.71256" lon="6.96829">
        <ele>812.6</ele>
        <time>2011-11-24T13:56:38Z</time>
      </trkpt>
      <trkpt lat="43.71252" lon="6.96835">
        <ele>812.2</ele>
        <time>2011-11-24T13:56:39Z</time>
      </trkpt>
      <trkpt lat="43.71245" lon="6.96838">
        <ele>811.7</ele>
        <time>2011-11-24T13:56:40Z</time>
      </trkpt>
      <trkpt lat="43.71238" lon="6.9684">
        <ele>811.4</ele>
        <time>2011-11-24T13:56:41Z</time>
      </trkpt>
      <trkpt lat="43.71232" lon="6.9684">
        <ele>811.2</ele>
        <time>2011-11-24T13:56:42Z</time>
      </trkpt>
      <trkpt lat="43.71226" lon="6.96838">
        <ele>810.6</ele>
        <time>2011-11-24T13:56:43Z</time>
      </trkpt>
      <trkpt lat="43.71218" lon="6.96841">
        <ele>808.7</ele>
        <time>2011-11-24T13:56:44Z</time>
      </trkpt>
      <trkpt lat="43.71212" lon="6.96841">
        <ele>807.4</ele>
        <time>2011-11-24T13:56:45Z</time>
      </trkpt>
      <trkpt lat="43.71204" lon="6.96842">
        <ele>807.1</ele>
        <time>2011-11-24T13:56:46Z</time>
      </trkpt>
      <trkpt lat="43.71198" lon="6.96841">
        <ele>806.5</ele>
        <time>2011-11-24T13:56:47Z</time>
      </trkpt>
      <trkpt lat="43.71191" lon="6.9684">
        <ele>806.3</ele>
        <time>2011-11-24T13:56:48Z</time>
      </trkpt>
      <trkpt lat="43.71184" lon="6.96839">
        <ele>806.1</ele>
        <time>2011-11-24T13:56:49Z</time>
      </trkpt>
      <trkpt lat="43.71176" lon="6.96839">
        <ele>806</ele>
        <time>2011-11-24T13:56:50Z</time>
      </trkpt>
      <trkpt lat="43.7117" lon="6.96837">
        <ele>805.7</ele>
        <time>2011-11-24T13:56:51Z</time>
      </trkpt>
      <trkpt lat="43.71162" lon="6.96837">
        <ele>805.4</ele>
        <time>2011-11-24T13:56:52Z</time>
      </trkpt>
      <trkpt lat="43.71156" lon="6.96834">
        <ele>804.8</ele>
        <time>2011-11-24T13:56:53Z</time>
      </trkpt>
      <trkpt lat="43.7115" lon="6.96833">
        <ele>804.9</ele>
        <time>2011-11-24T13:56:54Z</time>
      </trkpt>
      <trkpt lat="43.71146" lon="6.9683">
        <ele>804.6</ele>
        <time>2011-11-24T13:56:55Z</time>
      </trkpt>
      <trkpt lat="43.71143" lon="6.96822">
        <ele>804.3</ele>
        <time>2011-11-24T13:56:58Z</time>
      </trkpt>
      <trkpt lat="43.71139" lon="6.96819">
        <ele>808.6</ele>
        <time>2011-11-24T13:57:01Z</time>
      </trkpt>
      <trkpt lat="43.71141" lon="6.96813">
        <ele>807.4</ele>
        <time>2011-11-24T13:57:05Z</time>
      </trkpt>
      <trkpt lat="43.71146" lon="6.96809">
        <ele>807.9</ele>
        <time>2011-11-24T13:57:08Z</time>
      </trkpt>
      <trkpt lat="43.7115" lon="6.96801">
        <ele>814.2</ele>
        <time>2011-11-24T13:57:12Z</time>
      </trkpt>
      <trkpt lat="43.71151" lon="6.96794">
        <ele>814.4</ele>
        <time>2011-11-24T13:57:14Z</time>
      </trkpt>
      <trkpt lat="43.7115" lon="6.96785">
        <ele>813.8</ele>
        <time>2011-11-24T13:57:17Z</time>
      </trkpt>
      <trkpt lat="43.71146" lon="6.96776">
        <ele>812.6</ele>
        <time>2011-11-24T13:57:20Z</time>
      </trkpt>
      <trkpt lat="43.71144" lon="6.96771">
        <ele>812.9</ele>
        <time>2011-11-24T13:57:22Z</time>
      </trkpt>
      <trkpt lat="43.71143" lon="6.96764">
        <ele>812.1</ele>
        <time>2011-11-24T13:57:24Z</time>
      </trkpt>
      <trkpt lat="43.71143" lon="6.96758">
        <ele>814.5</ele>
        <time>2011-11-24T13:57:26Z</time>
      </trkpt>
      <trkpt lat="43.71144" lon="6.96751">
        <ele>812.8</ele>
        <time>2011-11-24T13:57:28Z</time>
      </trkpt>
      <trkpt lat="43.71145" lon="6.96744">
        <ele>811</ele>
        <time>2011-11-24T13:57:30Z</time>
      </trkpt>
      <trkpt lat="43.71145" lon="6.96736">
        <ele>810.7</ele>
        <time>2011-11-24T13:57:33Z</time>
      </trkpt>
      <trkpt lat="43.71146" lon="6.96728">
        <ele>809.7</ele>
        <time>2011-11-24T13:57:36Z</time>
      </trkpt>
      <trkpt lat="43.71147" lon="6.96722">
        <ele>806.8</ele>
        <time>2011-11-24T13:57:38Z</time>
      </trkpt>
      <trkpt lat="43.71149" lon="6.96715">
        <ele>805.7</ele>
        <time>2011-11-24T13:57:41Z</time>
      </trkpt>
      <trkpt lat="43.71149" lon="6.96709">
        <ele>805.8</ele>
        <time>2011-11-24T13:57:43Z</time>
      </trkpt>
      <trkpt lat="43.71148" lon="6.96703">
        <ele>804.8</ele>
        <time>2011-11-24T13:57:45Z</time>
      </trkpt>
      <trkpt lat="43.71147" lon="6.96695">
        <ele>804.1</ele>
        <time>2011-11-24T13:57:49Z</time>
      </trkpt>
      <trkpt lat="43.71145" lon="6.96688">
        <ele>805.7</ele>
        <time>2011-11-24T13:57:52Z</time>
      </trkpt>
      <trkpt lat="43.71144" lon="6.9668">
        <ele>805.4</ele>
        <time>2011-11-24T13:57:55Z</time>
      </trkpt>
      <trkpt lat="43.71144" lon="6.96672">
        <ele>805</ele>
        <time>2011-11-24T13:57:58Z</time>
      </trkpt>
      <trkpt lat="43.71143" lon="6.96665">
        <ele>805.1</ele>
        <time>2011-11-24T13:58:01Z</time>
      </trkpt>
      <trkpt lat="43.71144" lon="6.96658">
        <ele>805.8</ele>
        <time>2011-11-24T13:58:04Z</time>
      </trkpt>
      <trkpt lat="43.71144" lon="6.96651">
        <ele>807.5</ele>
        <time>2011-11-24T13:58:07Z</time>
      </trkpt>
      <trkpt lat="43.71142" lon="6.96644">
        <ele>808.8</ele>
        <time>2011-11-24T13:58:10Z</time>
      </trkpt>
      <trkpt lat="43.7114" lon="6.96637">
        <ele>809.3</ele>
        <time>2011-11-24T13:58:12Z</time>
      </trkpt>
      <trkpt lat="43.71139" lon="6.9663">
        <ele>807.9</ele>
        <time>2011-11-24T13:58:15Z</time>
      </trkpt>
      <trkpt lat="43.71135" lon="6.96622">
        <ele>806.4</ele>
        <time>2011-11-24T13:58:18Z</time>
      </trkpt>
      <trkpt lat="43.71134" lon="6.96615">
        <ele>806.3</ele>
        <time>2011-11-24T13:58:21Z</time>
      </trkpt>
      <trkpt lat="43.71134" lon="6.96606">
        <ele>809.2</ele>
        <time>2011-11-24T13:58:24Z</time>
      </trkpt>
      <trkpt lat="43.71134" lon="6.96599">
        <ele>810.9</ele>
        <time>2011-11-24T13:58:27Z</time>
      </trkpt>
      <trkpt lat="43.71133" lon="6.9659">
        <ele>811.7</ele>
        <time>2011-11-24T13:58:30Z</time>
      </trkpt>
      <trkpt lat="43.71134" lon="6.96583">
        <ele>813.4</ele>
        <time>2011-11-24T13:58:33Z</time>
      </trkpt>
      <trkpt lat="43.71136" lon="6.96575">
        <ele>814.6</ele>
        <time>2011-11-24T13:58:36Z</time>
      </trkpt>
      <trkpt lat="43.71137" lon="6.96568">
        <ele>815</ele>
        <time>2011-11-24T13:58:38Z</time>
      </trkpt>
      <trkpt lat="43.71137" lon="6.96559">
        <ele>817</ele>
        <time>2011-11-24T13:58:41Z</time>
      </trkpt>
      <trkpt lat="43.71137" lon="6.96552">
        <ele>819.6</ele>
        <time>2011-11-24T13:58:43Z</time>
      </trkpt>
      <trkpt lat="43.71137" lon="6.96545">
        <ele>821.1</ele>
        <time>2011-11-24T13:58:46Z</time>
      </trkpt>
      <trkpt lat="43.71141" lon="6.96539">
        <ele>819.3</ele>
        <time>2011-11-24T13:58:49Z</time>
      </trkpt>
      <trkpt lat="43.71141" lon="6.9653">
        <ele>820.4</ele>
        <time>2011-11-24T13:58:52Z</time>
      </trkpt>
      <trkpt lat="43.71143" lon="6.96523">
        <ele>820.6</ele>
        <time>2011-11-24T13:58:55Z</time>
      </trkpt>
      <trkpt lat="43.71145" lon="6.96516">
        <ele>821.3</ele>
        <time>2011-11-24T13:58:57Z</time>
      </trkpt>
      <trkpt lat="43.71145" lon="6.96509">
        <ele>821.2</ele>
        <time>2011-11-24T13:58:59Z</time>
      </trkpt>
      <trkpt lat="43.71143" lon="6.96501">
        <ele>824.6</ele>
        <time>2011-11-24T13:59:02Z</time>
      </trkpt>
      <trkpt lat="43.71141" lon="6.96492">
        <ele>824.2</ele>
        <time>2011-11-24T13:59:05Z</time>
      </trkpt>
      <trkpt lat="43.71139" lon="6.96484">
        <ele>820.5</ele>
        <time>2011-11-24T13:59:08Z</time>
      </trkpt>
      <trkpt lat="43.71135" lon="6.96476">
        <ele>819</ele>
        <time>2011-11-24T13:59:11Z</time>
      </trkpt>
      <trkpt lat="43.71132" lon="6.9647">
        <ele>818.8</ele>
        <time>2011-11-24T13:59:13Z</time>
      </trkpt>
      <trkpt lat="43.71129" lon="6.96464">
        <ele>818.8</ele>
        <time>2011-11-24T13:59:15Z</time>
      </trkpt>
      <trkpt lat="43.71125" lon="6.96457">
        <ele>819</ele>
        <time>2011-11-24T13:59:18Z</time>
      </trkpt>
      <trkpt lat="43.71124" lon="6.96449">
        <ele>818.7</ele>
        <time>2011-11-24T13:59:20Z</time>
      </trkpt>
      <trkpt lat="43.71121" lon="6.96441">
        <ele>818</ele>
        <time>2011-11-24T13:59:22Z</time>
      </trkpt>
      <trkpt lat="43.71121" lon="6.96434">
        <ele>819.5</ele>
        <time>2011-11-24T13:59:24Z</time>
      </trkpt>
      <trkpt lat="43.71118" lon="6.96426">
        <ele>817.4</ele>
        <time>2011-11-24T13:59:26Z</time>
      </trkpt>
      <trkpt lat="43.71117" lon="6.96417">
        <ele>816.8</ele>
        <time>2011-11-24T13:59:28Z</time>
      </trkpt>
      <trkpt lat="43.71113" lon="6.96408">
        <ele>818.5</ele>
        <time>2011-11-24T13:59:30Z</time>
      </trkpt>
      <trkpt lat="43.71107" lon="6.96404">
        <ele>820</ele>
        <time>2011-11-24T13:59:32Z</time>
      </trkpt>
      <trkpt lat="43.71098" lon="6.96407">
        <ele>822.9</ele>
        <time>2011-11-24T13:59:34Z</time>
      </trkpt>
      <trkpt lat="43.71094" lon="6.96408">
        <ele>824.6</ele>
        <time>2011-11-24T13:59:35Z</time>
      </trkpt>
      <trkpt lat="43.71088" lon="6.9641">
        <ele>825.4</ele>
        <time>2011-11-24T13:59:37Z</time>
      </trkpt>
      <trkpt lat="43.71083" lon="6.96412">
        <ele>825.6</ele>
        <time>2011-11-24T13:59:39Z</time>
      </trkpt>
      <trkpt lat="43.71077" lon="6.96406">
        <ele>822.1</ele>
        <time>2011-11-24T13:59:41Z</time>
      </trkpt>
      <trkpt lat="43.71072" lon="6.96402">
        <ele>820.2</ele>
        <time>2011-11-24T13:59:43Z</time>
      </trkpt>
      <trkpt lat="43.71067" lon="6.96398">
        <ele>819.7</ele>
        <time>2011-11-24T13:59:45Z</time>
      </trkpt>
      <trkpt lat="43.71061" lon="6.96396">
        <ele>819.5</ele>
        <time>2011-11-24T13:59:47Z</time>
      </trkpt>
      <trkpt lat="43.71056" lon="6.96393">
        <ele>819.5</ele>
        <time>2011-11-24T13:59:49Z</time>
      </trkpt>
      <trkpt lat="43.71051" lon="6.96385">
        <ele>820.4</ele>
        <time>2011-11-24T13:59:51Z</time>
      </trkpt>
      <trkpt lat="43.71048" lon="6.96377">
        <ele>821.1</ele>
        <time>2011-11-24T13:59:53Z</time>
      </trkpt>
      <trkpt lat="43.71047" lon="6.96368">
        <ele>821.7</ele>
        <time>2011-11-24T13:59:55Z</time>
      </trkpt>
      <trkpt lat="43.71046" lon="6.9636">
        <ele>821.8</ele>
        <time>2011-11-24T13:59:57Z</time>
      </trkpt>
      <trkpt lat="43.71045" lon="6.96351">
        <ele>821.7</ele>
        <time>2011-11-24T13:59:59Z</time>
      </trkpt>
      <trkpt lat="43.71044" lon="6.96342">
        <ele>821.4</ele>
        <time>2011-11-24T14:00:01Z</time>
      </trkpt>
      <trkpt lat="43.71042" lon="6.96332">
        <ele>822</ele>
        <time>2011-11-24T14:00:03Z</time>
      </trkpt>
      <trkpt lat="43.7104" lon="6.96321">
        <ele>821.2</ele>
        <time>2011-11-24T14:00:05Z</time>
      </trkpt>
      <trkpt lat="43.71034" lon="6.96311">
        <ele>820.9</ele>
        <time>2011-11-24T14:00:07Z</time>
      </trkpt>
      <trkpt lat="43.71031" lon="6.96306">
        <ele>821.4</ele>
        <time>2011-11-24T14:00:08Z</time>
      </trkpt>
      <trkpt lat="43.71026" lon="6.96297">
        <ele>821.7</ele>
        <time>2011-11-24T14:00:10Z</time>
      </trkpt>
      <trkpt lat="43.71024" lon="6.96291">
        <ele>822</ele>
        <time>2011-11-24T14:00:12Z</time>
      </trkpt>
      <trkpt lat="43.71024" lon="6.96282">
        <ele>824.1</ele>
        <time>2011-11-24T14:00:15Z</time>
      </trkpt>
      <trkpt lat="43.71023" lon="6.96274">
        <ele>831.9</ele>
        <time>2011-11-24T14:00:18Z</time>
      </trkpt>
      <trkpt lat="43.71022" lon="6.96268">
        <ele>837</ele>
        <time>2011-11-24T14:00:20Z</time>
      </trkpt>
      <trkpt lat="43.71022" lon="6.96255">
        <ele>839.2</ele>
        <time>2011-11-24T14:00:22Z</time>
      </trkpt>
      <trkpt lat="43.71017" lon="6.96253">
        <ele>838.6</ele>
        <time>2011-11-24T14:00:23Z</time>
      </trkpt>
      <trkpt lat="43.71014" lon="6.96248">
        <ele>837.9</ele>
        <time>2011-11-24T14:00:24Z</time>
      </trkpt>
      <trkpt lat="43.71018" lon="6.96242">
        <ele>836.5</ele>
        <time>2011-11-24T14:00:28Z</time>
      </trkpt>
      <trkpt lat="43.71019" lon="6.96235">
        <ele>833.7</ele>
        <time>2011-11-24T14:00:31Z</time>
      </trkpt>
      <trkpt lat="43.71021" lon="6.96225">
        <ele>835.2</ele>
        <time>2011-11-24T14:00:33Z</time>
      </trkpt>
      <trkpt lat="43.7102" lon="6.96218">
        <ele>836.6</ele>
        <time>2011-11-24T14:00:35Z</time>
      </trkpt>
      <trkpt lat="43.71018" lon="6.9621">
        <ele>836.8</ele>
        <time>2011-11-24T14:00:37Z</time>
      </trkpt>
      <trkpt lat="43.71015" lon="6.96205">
        <ele>837.3</ele>
        <time>2011-11-24T14:00:39Z</time>
      </trkpt>
      <trkpt lat="43.71014" lon="6.96195">
        <ele>839.3</ele>
        <time>2011-11-24T14:00:41Z</time>
      </trkpt>
      <trkpt lat="43.71012" lon="6.96187">
        <ele>839.2</ele>
        <time>2011-11-24T14:00:43Z</time>
      </trkpt>
      <trkpt lat="43.71009" lon="6.96181">
        <ele>838.6</ele>
        <time>2011-11-24T14:00:45Z</time>
      </trkpt>
      <trkpt lat="43.71006" lon="6.96175">
        <ele>840.1</ele>
        <time>2011-11-24T14:00:48Z</time>
      </trkpt>
      <trkpt lat="43.71001" lon="6.96168">
        <ele>840.8</ele>
        <time>2011-11-24T14:00:51Z</time>
      </trkpt>
      <trkpt lat="43.70999" lon="6.96162">
        <ele>841.1</ele>
        <time>2011-11-24T14:00:53Z</time>
      </trkpt>
      <trkpt lat="43.70996" lon="6.96156">
        <ele>847</ele>
        <time>2011-11-24T14:00:55Z</time>
      </trkpt>
      <trkpt lat="43.70991" lon="6.96156">
        <ele>845.9</ele>
        <time>2011-11-24T14:00:57Z</time>
      </trkpt>
      <trkpt lat="43.70985" lon="6.96153">
        <ele>846.2</ele>
        <time>2011-11-24T14:01:00Z</time>
      </trkpt>
      <trkpt lat="43.70982" lon="6.96148">
        <ele>846.4</ele>
        <time>2011-11-24T14:01:03Z</time>
      </trkpt>
      <trkpt lat="43.70979" lon="6.96141">
        <ele>844.7</ele>
        <time>2011-11-24T14:01:06Z</time>
      </trkpt>
      <trkpt lat="43.70976" lon="6.96134">
        <ele>848.6</ele>
        <time>2011-11-24T14:01:10Z</time>
      </trkpt>
      <trkpt lat="43.70972" lon="6.96129">
        <ele>850.6</ele>
        <time>2011-11-24T14:01:14Z</time>
      </trkpt>
      <trkpt lat="43.70969" lon="6.96124">
        <ele>849</ele>
        <time>2011-11-24T14:01:16Z</time>
      </trkpt>
      <trkpt lat="43.70966" lon="6.96119">
        <ele>851.2</ele>
        <time>2011-11-24T14:01:19Z</time>
      </trkpt>
      <trkpt lat="43.70964" lon="6.96114">
        <ele>852</ele>
        <time>2011-11-24T14:01:22Z</time>
      </trkpt>
      <trkpt lat="43.70959" lon="6.96111">
        <ele>850.9</ele>
        <time>2011-11-24T14:01:25Z</time>
      </trkpt>
      <trkpt lat="43.70954" lon="6.96108">
        <ele>851.8</ele>
        <time>2011-11-24T14:01:28Z</time>
      </trkpt>
      <trkpt lat="43.70952" lon="6.96102">
        <ele>853.8</ele>
        <time>2011-11-24T14:01:33Z</time>
      </trkpt>
      <trkpt lat="43.70952" lon="6.96095">
        <ele>854.5</ele>
        <time>2011-11-24T14:01:37Z</time>
      </trkpt>
      <trkpt lat="43.70951" lon="6.96087">
        <ele>854</ele>
        <time>2011-11-24T14:01:41Z</time>
      </trkpt>
      <trkpt lat="43.7095" lon="6.9608">
        <ele>854.8</ele>
        <time>2011-11-24T14:01:44Z</time>
      </trkpt>
      <trkpt lat="43.70947" lon="6.96074">
        <ele>855</ele>
        <time>2011-11-24T14:01:48Z</time>
      </trkpt>
      <trkpt lat="43.70947" lon="6.96067">
        <ele>855.3</ele>
        <time>2011-11-24T14:01:52Z</time>
      </trkpt>
      <trkpt lat="43.70946" lon="6.9606">
        <ele>856</ele>
        <time>2011-11-24T14:01:55Z</time>
      </trkpt>
      <trkpt lat="43.70947" lon="6.96052">
        <ele>857.2</ele>
        <time>2011-11-24T14:01:58Z</time>
      </trkpt>
      <trkpt lat="43.70945" lon="6.96044">
        <ele>857.5</ele>
        <time>2011-11-24T14:02:01Z</time>
      </trkpt>
      <trkpt lat="43.70944" lon="6.96037">
        <ele>859.9</ele>
        <time>2011-11-24T14:02:04Z</time>
      </trkpt>
      <trkpt lat="43.70946" lon="6.96031">
        <ele>860.8</ele>
        <time>2011-11-24T14:02:06Z</time>
      </trkpt>
      <trkpt lat="43.70948" lon="6.96024">
        <ele>860.3</ele>
        <time>2011-11-24T14:02:08Z</time>
      </trkpt>
      <trkpt lat="43.7095" lon="6.96017">
        <ele>860.3</ele>
        <time>2011-11-24T14:02:10Z</time>
      </trkpt>
      <trkpt lat="43.70952" lon="6.96012">
        <ele>860.7</ele>
        <time>2011-11-24T14:02:12Z</time>
      </trkpt>
      <trkpt lat="43.70953" lon="6.96001">
        <ele>860.7</ele>
        <time>2011-11-24T14:02:14Z</time>
      </trkpt>
      <trkpt lat="43.70948" lon="6.95995">
        <ele>861.6</ele>
        <time>2011-11-24T14:02:16Z</time>
      </trkpt>
      <trkpt lat="43.70946" lon="6.95988">
        <ele>862.7</ele>
        <time>2011-11-24T14:02:19Z</time>
      </trkpt>
      <trkpt lat="43.70944" lon="6.95982">
        <ele>861.9</ele>
        <time>2011-11-24T14:02:21Z</time>
      </trkpt>
      <trkpt lat="43.70942" lon="6.95973">
        <ele>862.3</ele>
        <time>2011-11-24T14:02:24Z</time>
      </trkpt>
      <trkpt lat="43.70936" lon="6.95966">
        <ele>862.7</ele>
        <time>2011-11-24T14:02:27Z</time>
      </trkpt>
      <trkpt lat="43.7093" lon="6.9596">
        <ele>863.4</ele>
        <time>2011-11-24T14:02:29Z</time>
      </trkpt>
      <trkpt lat="43.70924" lon="6.95955">
        <ele>863.3</ele>
        <time>2011-11-24T14:02:31Z</time>
      </trkpt>
      <trkpt lat="43.70916" lon="6.95955">
        <ele>864</ele>
        <time>2011-11-24T14:02:33Z</time>
      </trkpt>
      <trkpt lat="43.7091" lon="6.95952">
        <ele>864.2</ele>
        <time>2011-11-24T14:02:35Z</time>
      </trkpt>
      <trkpt lat="43.70906" lon="6.95945">
        <ele>867</ele>
        <time>2011-11-24T14:02:37Z</time>
      </trkpt>
      <trkpt lat="43.70901" lon="6.95938">
        <ele>868.2</ele>
        <time>2011-11-24T14:02:39Z</time>
      </trkpt>
      <trkpt lat="43.70896" lon="6.95932">
        <ele>869</ele>
        <time>2011-11-24T14:02:41Z</time>
      </trkpt>
      <trkpt lat="43.70888" lon="6.95925">
        <ele>867.7</ele>
        <time>2011-11-24T14:02:43Z</time>
      </trkpt>
      <trkpt lat="43.70881" lon="6.95917">
        <ele>868.1</ele>
        <time>2011-11-24T14:02:45Z</time>
      </trkpt>
      <trkpt lat="43.70876" lon="6.95911">
        <ele>868.2</ele>
        <time>2011-11-24T14:02:47Z</time>
      </trkpt>
      <trkpt lat="43.70871" lon="6.95904">
        <ele>868.1</ele>
        <time>2011-11-24T14:02:49Z</time>
      </trkpt>
      <trkpt lat="43.70867" lon="6.95898">
        <ele>868.5</ele>
        <time>2011-11-24T14:02:51Z</time>
      </trkpt>
      <trkpt lat="43.70863" lon="6.95892">
        <ele>868.8</ele>
        <time>2011-11-24T14:02:53Z</time>
      </trkpt>
      <trkpt lat="43.7086" lon="6.95886">
        <ele>868.9</ele>
        <time>2011-11-24T14:02:55Z</time>
      </trkpt>
      <trkpt lat="43.70855" lon="6.95882">
        <ele>868.2</ele>
        <time>2011-11-24T14:02:57Z</time>
      </trkpt>
      <trkpt lat="43.70851" lon="6.95877">
        <ele>866.8</ele>
        <time>2011-11-24T14:02:59Z</time>
      </trkpt>
      <trkpt lat="43.70847" lon="6.95871">
        <ele>866.6</ele>
        <time>2011-11-24T14:03:01Z</time>
      </trkpt>
      <trkpt lat="43.70844" lon="6.95866">
        <ele>868.2</ele>
        <time>2011-11-24T14:03:03Z</time>
      </trkpt>
      <trkpt lat="43.7084" lon="6.95861">
        <ele>870.4</ele>
        <time>2011-11-24T14:03:05Z</time>
      </trkpt>
      <trkpt lat="43.70836" lon="6.95857">
        <ele>871.9</ele>
        <time>2011-11-24T14:03:07Z</time>
      </trkpt>
      <trkpt lat="43.70831" lon="6.95853">
        <ele>871.7</ele>
        <time>2011-11-24T14:03:09Z</time>
      </trkpt>
      <trkpt lat="43.70826" lon="6.95852">
        <ele>869.7</ele>
        <time>2011-11-24T14:03:12Z</time>
      </trkpt>
      <trkpt lat="43.70822" lon="6.9585">
        <ele>870.7</ele>
        <time>2011-11-24T14:03:14Z</time>
      </trkpt>
      <trkpt lat="43.70816" lon="6.95847">
        <ele>871.6</ele>
        <time>2011-11-24T14:03:17Z</time>
      </trkpt>
      <trkpt lat="43.70811" lon="6.95842">
        <ele>871</ele>
        <time>2011-11-24T14:03:19Z</time>
      </trkpt>
      <trkpt lat="43.70806" lon="6.95837">
        <ele>871.1</ele>
        <time>2011-11-24T14:03:21Z</time>
      </trkpt>
      <trkpt lat="43.70801" lon="6.95833">
        <ele>872</ele>
        <time>2011-11-24T14:03:23Z</time>
      </trkpt>
      <trkpt lat="43.70796" lon="6.95832">
        <ele>872.1</ele>
        <time>2011-11-24T14:03:25Z</time>
      </trkpt>
      <trkpt lat="43.70791" lon="6.95832">
        <ele>872.5</ele>
        <time>2011-11-24T14:03:27Z</time>
      </trkpt>
      <trkpt lat="43.70784" lon="6.95832">
        <ele>872.7</ele>
        <time>2011-11-24T14:03:29Z</time>
      </trkpt>
      <trkpt lat="43.70776" lon="6.95836">
        <ele>872.2</ele>
        <time>2011-11-24T14:03:31Z</time>
      </trkpt>
      <trkpt lat="43.70769" lon="6.95847">
        <ele>870.4</ele>
        <time>2011-11-24T14:03:33Z</time>
      </trkpt>
      <trkpt lat="43.70763" lon="6.9585">
        <ele>870.3</ele>
        <time>2011-11-24T14:03:35Z</time>
      </trkpt>
      <trkpt lat="43.70757" lon="6.95847">
        <ele>867.8</ele>
        <time>2011-11-24T14:03:36Z</time>
      </trkpt>
      <trkpt lat="43.70752" lon="6.95849">
        <ele>866.9</ele>
        <time>2011-11-24T14:03:37Z</time>
      </trkpt>
      <trkpt lat="43.70747" lon="6.95852">
        <ele>865.4</ele>
        <time>2011-11-24T14:03:38Z</time>
      </trkpt>
      <trkpt lat="43.7074" lon="6.95858">
        <ele>867.6</ele>
        <time>2011-11-24T14:03:39Z</time>
      </trkpt>
      <trkpt lat="43.70735" lon="6.9586">
        <ele>867.6</ele>
        <time>2011-11-24T14:03:40Z</time>
      </trkpt>
      <trkpt lat="43.70732" lon="6.95866">
        <ele>867.3</ele>
        <time>2011-11-24T14:03:41Z</time>
      </trkpt>
      <trkpt lat="43.70727" lon="6.95872">
        <ele>866.6</ele>
        <time>2011-11-24T14:03:42Z</time>
      </trkpt>
      <trkpt lat="43.70724" lon="6.95879">
        <ele>865.7</ele>
        <time>2011-11-24T14:03:43Z</time>
      </trkpt>
      <trkpt lat="43.7072" lon="6.95882">
        <ele>864.3</ele>
        <time>2011-11-24T14:03:44Z</time>
      </trkpt>
      <trkpt lat="43.70714" lon="6.95887">
        <ele>863.4</ele>
        <time>2011-11-24T14:03:46Z</time>
      </trkpt>
      <trkpt lat="43.70705" lon="6.95887">
        <ele>862.8</ele>
        <time>2011-11-24T14:03:48Z</time>
      </trkpt>
      <trkpt lat="43.70701" lon="6.95888">
        <ele>862.9</ele>
        <time>2011-11-24T14:03:49Z</time>
      </trkpt>
      <trkpt lat="43.70696" lon="6.95894">
        <ele>861.6</ele>
        <time>2011-11-24T14:03:50Z</time>
      </trkpt>
      <trkpt lat="43.70693" lon="6.95899">
        <ele>860.3</ele>
        <time>2011-11-24T14:03:51Z</time>
      </trkpt>
      <trkpt lat="43.70688" lon="6.95907">
        <ele>859.1</ele>
        <time>2011-11-24T14:03:53Z</time>
      </trkpt>
      <trkpt lat="43.70683" lon="6.95914">
        <ele>857</ele>
        <time>2011-11-24T14:03:55Z</time>
      </trkpt>
      <trkpt lat="43.70674" lon="6.95922">
        <ele>854.8</ele>
        <time>2011-11-24T14:03:57Z</time>
      </trkpt>
      <trkpt lat="43.70667" lon="6.95926">
        <ele>852.8</ele>
        <time>2011-11-24T14:03:58Z</time>
      </trkpt>
      <trkpt lat="43.70661" lon="6.95931">
        <ele>854</ele>
        <time>2011-11-24T14:03:59Z</time>
      </trkpt>
      <trkpt lat="43.70655" lon="6.95933">
        <ele>857.5</ele>
        <time>2011-11-24T14:04:00Z</time>
      </trkpt>
      <trkpt lat="43.70649" lon="6.95936">
        <ele>854.3</ele>
        <time>2011-11-24T14:04:02Z</time>
      </trkpt>
      <trkpt lat="43.70644" lon="6.95939">
        <ele>853.4</ele>
        <time>2011-11-24T14:04:03Z</time>
      </trkpt>
      <trkpt lat="43.7064" lon="6.95942">
        <ele>852.4</ele>
        <time>2011-11-24T14:04:04Z</time>
      </trkpt>
      <trkpt lat="43.70632" lon="6.9595">
        <ele>850</ele>
        <time>2011-11-24T14:04:06Z</time>
      </trkpt>
      <trkpt lat="43.70629" lon="6.95955">
        <ele>849.4</ele>
        <time>2011-11-24T14:04:07Z</time>
      </trkpt>
      <trkpt lat="43.70627" lon="6.95961">
        <ele>848.6</ele>
        <time>2011-11-24T14:04:08Z</time>
      </trkpt>
      <trkpt lat="43.70628" lon="6.95968">
        <ele>847.9</ele>
        <time>2011-11-24T14:04:09Z</time>
      </trkpt>
      <trkpt lat="43.70631" lon="6.95975">
        <ele>847.8</ele>
        <time>2011-11-24T14:04:10Z</time>
      </trkpt>
      <trkpt lat="43.70634" lon="6.95985">
        <ele>847.4</ele>
        <time>2011-11-24T14:04:12Z</time>
      </trkpt>
      <trkpt lat="43.70636" lon="6.9599">
        <ele>846.8</ele>
        <time>2011-11-24T14:04:13Z</time>
      </trkpt>
      <trkpt lat="43.70638" lon="6.95997">
        <ele>846.6</ele>
        <time>2011-11-24T14:04:14Z</time>
      </trkpt>
      <trkpt lat="43.70641" lon="6.96008">
        <ele>846.3</ele>
        <time>2011-11-24T14:04:16Z</time>
      </trkpt>
      <trkpt lat="43.70642" lon="6.96018">
        <ele>846.4</ele>
        <time>2011-11-24T14:04:18Z</time>
      </trkpt>
      <trkpt lat="43.70644" lon="6.96032">
        <ele>845.2</ele>
        <time>2011-11-24T14:04:20Z</time>
      </trkpt>
      <trkpt lat="43.70645" lon="6.96044">
        <ele>845</ele>
        <time>2011-11-24T14:04:22Z</time>
      </trkpt>
      <trkpt lat="43.70648" lon="6.9605">
        <ele>844.8</ele>
        <time>2011-11-24T14:04:23Z</time>
      </trkpt>
      <trkpt lat="43.70649" lon="6.96056">
        <ele>844.9</ele>
        <time>2011-11-24T14:04:24Z</time>
      </trkpt>
      <trkpt lat="43.70652" lon="6.9607">
        <ele>845.4</ele>
        <time>2011-11-24T14:04:26Z</time>
      </trkpt>
      <trkpt lat="43.70653" lon="6.96076">
        <ele>845.1</ele>
        <time>2011-11-24T14:04:27Z</time>
      </trkpt>
      <trkpt lat="43.70658" lon="6.9609">
        <ele>845</ele>
        <time>2011-11-24T14:04:29Z</time>
      </trkpt>
      <trkpt lat="43.70662" lon="6.96098">
        <ele>844.2</ele>
        <time>2011-11-24T14:04:30Z</time>
      </trkpt>
      <trkpt lat="43.7067" lon="6.96102">
        <ele>842.2</ele>
        <time>2011-11-24T14:04:31Z</time>
      </trkpt>
      <trkpt lat="43.70674" lon="6.96106">
        <ele>842.2</ele>
        <time>2011-11-24T14:04:32Z</time>
      </trkpt>
      <trkpt lat="43.70678" lon="6.9611">
        <ele>841.4</ele>
        <time>2011-11-24T14:04:33Z</time>
      </trkpt>
      <trkpt lat="43.70681" lon="6.96123">
        <ele>840.5</ele>
        <time>2011-11-24T14:04:35Z</time>
      </trkpt>
      <trkpt lat="43.70683" lon="6.96129">
        <ele>840</ele>
        <time>2011-11-24T14:04:36Z</time>
      </trkpt>
      <trkpt lat="43.70685" lon="6.96135">
        <ele>839.1</ele>
        <time>2011-11-24T14:04:37Z</time>
      </trkpt>
      <trkpt lat="43.70688" lon="6.9614">
        <ele>838.3</ele>
        <time>2011-11-24T14:04:38Z</time>
      </trkpt>
      <trkpt lat="43.70692" lon="6.96146">
        <ele>838.2</ele>
        <time>2011-11-24T14:04:39Z</time>
      </trkpt>
      <trkpt lat="43.70694" lon="6.96152">
        <ele>838</ele>
        <time>2011-11-24T14:04:40Z</time>
      </trkpt>
      <trkpt lat="43.70696" lon="6.96158">
        <ele>838.1</ele>
        <time>2011-11-24T14:04:41Z</time>
      </trkpt>
      <trkpt lat="43.70697" lon="6.96164">
        <ele>837.9</ele>
        <time>2011-11-24T14:04:42Z</time>
      </trkpt>
      <trkpt lat="43.70698" lon="6.96172">
        <ele>837.9</ele>
        <time>2011-11-24T14:04:43Z</time>
      </trkpt>
      <trkpt lat="43.70702" lon="6.96178">
        <ele>838</ele>
        <time>2011-11-24T14:04:44Z</time>
      </trkpt>
      <trkpt lat="43.70706" lon="6.96183">
        <ele>837.9</ele>
        <time>2011-11-24T14:04:45Z</time>
      </trkpt>
      <trkpt lat="43.70707" lon="6.9619">
        <ele>833.2</ele>
        <time>2011-11-24T14:04:46Z</time>
      </trkpt>
      <trkpt lat="43.70707" lon="6.96197">
        <ele>831.8</ele>
        <time>2011-11-24T14:04:47Z</time>
      </trkpt>
      <trkpt lat="43.70704" lon="6.96204">
        <ele>831.6</ele>
        <time>2011-11-24T14:04:48Z</time>
      </trkpt>
      <trkpt lat="43.70702" lon="6.96211">
        <ele>830.4</ele>
        <time>2011-11-24T14:04:49Z</time>
      </trkpt>
      <trkpt lat="43.70701" lon="6.9622">
        <ele>830.3</ele>
        <time>2011-11-24T14:04:50Z</time>
      </trkpt>
      <trkpt lat="43.70704" lon="6.96228">
        <ele>830</ele>
        <time>2011-11-24T14:04:51Z</time>
      </trkpt>
      <trkpt lat="43.70706" lon="6.96233">
        <ele>829.9</ele>
        <time>2011-11-24T14:04:52Z</time>
      </trkpt>
      <trkpt lat="43.70707" lon="6.9624">
        <ele>829.7</ele>
        <time>2011-11-24T14:04:53Z</time>
      </trkpt>
      <trkpt lat="43.70708" lon="6.96246">
        <ele>830</ele>
        <time>2011-11-24T14:04:54Z</time>
      </trkpt>
      <trkpt lat="43.7071" lon="6.96252">
        <ele>830.2</ele>
        <time>2011-11-24T14:04:55Z</time>
      </trkpt>
      <trkpt lat="43.70712" lon="6.96258">
        <ele>830.4</ele>
        <time>2011-11-24T14:04:56Z</time>
      </trkpt>
      <trkpt lat="43.70717" lon="6.96264">
        <ele>831</ele>
        <time>2011-11-24T14:04:57Z</time>
      </trkpt>
      <trkpt lat="43.70722" lon="6.96269">
        <ele>831.8</ele>
        <time>2011-11-24T14:04:58Z</time>
      </trkpt>
      <trkpt lat="43.70724" lon="6.96279">
        <ele>832.6</ele>
        <time>2011-11-24T14:05:00Z</time>
      </trkpt>
      <trkpt lat="43.70726" lon="6.96288">
        <ele>833</ele>
        <time>2011-11-24T14:05:02Z</time>
      </trkpt>
      <trkpt lat="43.70726" lon="6.96295">
        <ele>833.2</ele>
        <time>2011-11-24T14:05:03Z</time>
      </trkpt>
      <trkpt lat="43.70728" lon="6.96302">
        <ele>832.9</ele>
        <time>2011-11-24T14:05:04Z</time>
      </trkpt>
      <trkpt lat="43.70729" lon="6.96308">
        <ele>832.8</ele>
        <time>2011-11-24T14:05:05Z</time>
      </trkpt>
      <trkpt lat="43.7073" lon="6.96316">
        <ele>832.4</ele>
        <time>2011-11-24T14:05:06Z</time>
      </trkpt>
      <trkpt lat="43.70728" lon="6.96325">
        <ele>832.3</ele>
        <time>2011-11-24T14:05:07Z</time>
      </trkpt>
      <trkpt lat="43.70724" lon="6.96334">
        <ele>832.1</ele>
        <time>2011-11-24T14:05:08Z</time>
      </trkpt>
      <trkpt lat="43.70721" lon="6.96342">
        <ele>831.9</ele>
        <time>2011-11-24T14:05:09Z</time>
      </trkpt>
      <trkpt lat="43.70717" lon="6.9635">
        <ele>832.1</ele>
        <time>2011-11-24T14:05:10Z</time>
      </trkpt>
      <trkpt lat="43.70714" lon="6.96359">
        <ele>832.2</ele>
        <time>2011-11-24T14:05:11Z</time>
      </trkpt>
      <trkpt lat="43.70712" lon="6.96367">
        <ele>831.7</ele>
        <time>2011-11-24T14:05:12Z</time>
      </trkpt>
      <trkpt lat="43.70711" lon="6.96376">
        <ele>831.1</ele>
        <time>2011-11-24T14:05:13Z</time>
      </trkpt>
      <trkpt lat="43.7071" lon="6.96383">
        <ele>831.6</ele>
        <time>2011-11-24T14:05:14Z</time>
      </trkpt>
      <trkpt lat="43.70707" lon="6.9639">
        <ele>831.2</ele>
        <time>2011-11-24T14:05:15Z</time>
      </trkpt>
      <trkpt lat="43.70702" lon="6.96399">
        <ele>830.7</ele>
        <time>2011-11-24T14:05:16Z</time>
      </trkpt>
      <trkpt lat="43.70699" lon="6.96407">
        <ele>830.3</ele>
        <time>2011-11-24T14:05:17Z</time>
      </trkpt>
      <trkpt lat="43.70704" lon="6.96415">
        <ele>829.4</ele>
        <time>2011-11-24T14:05:18Z</time>
      </trkpt>
      <trkpt lat="43.70708" lon="6.96423">
        <ele>829</ele>
        <time>2011-11-24T14:05:19Z</time>
      </trkpt>
      <trkpt lat="43.70712" lon="6.9643">
        <ele>828.8</ele>
        <time>2011-11-24T14:05:20Z</time>
      </trkpt>
      <trkpt lat="43.70713" lon="6.96437">
        <ele>828.4</ele>
        <time>2011-11-24T14:05:21Z</time>
      </trkpt>
      <trkpt lat="43.70713" lon="6.96445">
        <ele>828</ele>
        <time>2011-11-24T14:05:22Z</time>
      </trkpt>
      <trkpt lat="43.7071" lon="6.96451">
        <ele>827.2</ele>
        <time>2011-11-24T14:05:23Z</time>
      </trkpt>
      <trkpt lat="43.70707" lon="6.96458">
        <ele>826.9</ele>
        <time>2011-11-24T14:05:24Z</time>
      </trkpt>
      <trkpt lat="43.70705" lon="6.96465">
        <ele>826.6</ele>
        <time>2011-11-24T14:05:25Z</time>
      </trkpt>
      <trkpt lat="43.70706" lon="6.96474">
        <ele>827</ele>
        <time>2011-11-24T14:05:26Z</time>
      </trkpt>
      <trkpt lat="43.70709" lon="6.96482">
        <ele>826.2</ele>
        <time>2011-11-24T14:05:27Z</time>
      </trkpt>
      <trkpt lat="43.70714" lon="6.96486">
        <ele>825.5</ele>
        <time>2011-11-24T14:05:28Z</time>
      </trkpt>
      <trkpt lat="43.7072" lon="6.96489">
        <ele>825.4</ele>
        <time>2011-11-24T14:05:29Z</time>
      </trkpt>
      <trkpt lat="43.70723" lon="6.96496">
        <ele>823.7</ele>
        <time>2011-11-24T14:05:30Z</time>
      </trkpt>
      <trkpt lat="43.70726" lon="6.96502">
        <ele>823.4</ele>
        <time>2011-11-24T14:05:31Z</time>
      </trkpt>
      <trkpt lat="43.70729" lon="6.9651">
        <ele>822.9</ele>
        <time>2011-11-24T14:05:32Z</time>
      </trkpt>
      <trkpt lat="43.70732" lon="6.96516">
        <ele>822.8</ele>
        <time>2011-11-24T14:05:33Z</time>
      </trkpt>
      <trkpt lat="43.70738" lon="6.96521">
        <ele>822.4</ele>
        <time>2011-11-24T14:05:34Z</time>
      </trkpt>
      <trkpt lat="43.70743" lon="6.96524">
        <ele>822.4</ele>
        <time>2011-11-24T14:05:35Z</time>
      </trkpt>
      <trkpt lat="43.70747" lon="6.96527">
        <ele>822.6</ele>
        <time>2011-11-24T14:05:36Z</time>
      </trkpt>
      <trkpt lat="43.70749" lon="6.96533">
        <ele>822.5</ele>
        <time>2011-11-24T14:05:37Z</time>
      </trkpt>
      <trkpt lat="43.70744" lon="6.96542">
        <ele>822.5</ele>
        <time>2011-11-24T14:05:39Z</time>
      </trkpt>
      <trkpt lat="43.70742" lon="6.96548">
        <ele>822.1</ele>
        <time>2011-11-24T14:05:40Z</time>
      </trkpt>
      <trkpt lat="43.7074" lon="6.96559">
        <ele>821.3</ele>
        <time>2011-11-24T14:05:42Z</time>
      </trkpt>
      <trkpt lat="43.70741" lon="6.96566">
        <ele>821.4</ele>
        <time>2011-11-24T14:05:43Z</time>
      </trkpt>
      <trkpt lat="43.70746" lon="6.96577">
        <ele>821.5</ele>
        <time>2011-11-24T14:05:45Z</time>
      </trkpt>
      <trkpt lat="43.70748" lon="6.96584">
        <ele>821.5</ele>
        <time>2011-11-24T14:05:46Z</time>
      </trkpt>
      <trkpt lat="43.70747" lon="6.96594">
        <ele>821.3</ele>
        <time>2011-11-24T14:05:48Z</time>
      </trkpt>
      <trkpt lat="43.70749" lon="6.966">
        <ele>821</ele>
        <time>2011-11-24T14:05:49Z</time>
      </trkpt>
      <trkpt lat="43.70751" lon="6.96607">
        <ele>821.1</ele>
        <time>2011-11-24T14:05:50Z</time>
      </trkpt>
      <trkpt lat="43.70755" lon="6.96615">
        <ele>821.1</ele>
        <time>2011-11-24T14:05:51Z</time>
      </trkpt>
      <trkpt lat="43.70759" lon="6.96622">
        <ele>819</ele>
        <time>2011-11-24T14:05:52Z</time>
      </trkpt>
      <trkpt lat="43.70763" lon="6.96629">
        <ele>818.6</ele>
        <time>2011-11-24T14:05:53Z</time>
      </trkpt>
      <trkpt lat="43.70766" lon="6.96635">
        <ele>818.8</ele>
        <time>2011-11-24T14:05:54Z</time>
      </trkpt>
      <trkpt lat="43.70771" lon="6.96642">
        <ele>818.7</ele>
        <time>2011-11-24T14:05:55Z</time>
      </trkpt>
      <trkpt lat="43.70774" lon="6.96649">
        <ele>818.7</ele>
        <time>2011-11-24T14:05:56Z</time>
      </trkpt>
      <trkpt lat="43.70776" lon="6.96656">
        <ele>818.5</ele>
        <time>2011-11-24T14:05:57Z</time>
      </trkpt>
      <trkpt lat="43.7078" lon="6.96662">
        <ele>818.1</ele>
        <time>2011-11-24T14:05:58Z</time>
      </trkpt>
      <trkpt lat="43.70784" lon="6.96665">
        <ele>817.6</ele>
        <time>2011-11-24T14:05:59Z</time>
      </trkpt>
      <trkpt lat="43.7079" lon="6.96671">
        <ele>814.7</ele>
        <time>2011-11-24T14:06:00Z</time>
      </trkpt>
      <trkpt lat="43.70794" lon="6.96677">
        <ele>814</ele>
        <time>2011-11-24T14:06:01Z</time>
      </trkpt>
      <trkpt lat="43.70798" lon="6.96683">
        <ele>813.6</ele>
        <time>2011-11-24T14:06:02Z</time>
      </trkpt>
      <trkpt lat="43.70801" lon="6.96688">
        <ele>813.7</ele>
        <time>2011-11-24T14:06:03Z</time>
      </trkpt>
      <trkpt lat="43.70801" lon="6.967">
        <ele>813.3</ele>
        <time>2011-11-24T14:06:05Z</time>
      </trkpt>
      <trkpt lat="43.70804" lon="6.96706">
        <ele>813.2</ele>
        <time>2011-11-24T14:06:06Z</time>
      </trkpt>
      <trkpt lat="43.70808" lon="6.96715">
        <ele>809.7</ele>
        <time>2011-11-24T14:06:07Z</time>
      </trkpt>
      <trkpt lat="43.70811" lon="6.96723">
        <ele>808.3</ele>
        <time>2011-11-24T14:06:08Z</time>
      </trkpt>
      <trkpt lat="43.70815" lon="6.96729">
        <ele>807.5</ele>
        <time>2011-11-24T14:06:09Z</time>
      </trkpt>
      <trkpt lat="43.70817" lon="6.96735">
        <ele>807</ele>
        <time>2011-11-24T14:06:10Z</time>
      </trkpt>
      <trkpt lat="43.7082" lon="6.9674">
        <ele>806.5</ele>
        <time>2011-11-24T14:06:11Z</time>
      </trkpt>
      <trkpt lat="43.70824" lon="6.96746">
        <ele>806.2</ele>
        <time>2011-11-24T14:06:12Z</time>
      </trkpt>
      <trkpt lat="43.70828" lon="6.96752">
        <ele>806.1</ele>
        <time>2011-11-24T14:06:13Z</time>
      </trkpt>
      <trkpt lat="43.70833" lon="6.96756">
        <ele>805.9</ele>
        <time>2011-11-24T14:06:14Z</time>
      </trkpt>
      <trkpt lat="43.70838" lon="6.96762">
        <ele>805</ele>
        <time>2011-11-24T14:06:15Z</time>
      </trkpt>
      <trkpt lat="43.70842" lon="6.96766">
        <ele>804.9</ele>
        <time>2011-11-24T14:06:16Z</time>
      </trkpt>
      <trkpt lat="43.70846" lon="6.96772">
        <ele>804</ele>
        <time>2011-11-24T14:06:17Z</time>
      </trkpt>
      <trkpt lat="43.70854" lon="6.96778">
        <ele>803.1</ele>
        <time>2011-11-24T14:06:19Z</time>
      </trkpt>
      <trkpt lat="43.70859" lon="6.96782">
        <ele>802.8</ele>
        <time>2011-11-24T14:06:20Z</time>
      </trkpt>
      <trkpt lat="43.70864" lon="6.96786">
        <ele>801.7</ele>
        <time>2011-11-24T14:06:21Z</time>
      </trkpt>
      <trkpt lat="43.70868" lon="6.96789">
        <ele>801.2</ele>
        <time>2011-11-24T14:06:22Z</time>
      </trkpt>
      <trkpt lat="43.70873" lon="6.96789">
        <ele>800.8</ele>
        <time>2011-11-24T14:06:23Z</time>
      </trkpt>
      <trkpt lat="43.70878" lon="6.96787">
        <ele>799.6</ele>
        <time>2011-11-24T14:06:24Z</time>
      </trkpt>
      <trkpt lat="43.70885" lon="6.96785">
        <ele>796</ele>
        <time>2011-11-24T14:06:25Z</time>
      </trkpt>
      <trkpt lat="43.7089" lon="6.96787">
        <ele>793.6</ele>
        <time>2011-11-24T14:06:26Z</time>
      </trkpt>
      <trkpt lat="43.70894" lon="6.9679">
        <ele>793</ele>
        <time>2011-11-24T14:06:27Z</time>
      </trkpt>
      <trkpt lat="43.70898" lon="6.96795">
        <ele>791.9</ele>
        <time>2011-11-24T14:06:28Z</time>
      </trkpt>
      <trkpt lat="43.70901" lon="6.96802">
        <ele>790</ele>
        <time>2011-11-24T14:06:29Z</time>
      </trkpt>
      <trkpt lat="43.70905" lon="6.96808">
        <ele>788.5</ele>
        <time>2011-11-24T14:06:30Z</time>
      </trkpt>
      <trkpt lat="43.70907" lon="6.96814">
        <ele>787.5</ele>
        <time>2011-11-24T14:06:31Z</time>
      </trkpt>
      <trkpt lat="43.70909" lon="6.96821">
        <ele>786.6</ele>
        <time>2011-11-24T14:06:32Z</time>
      </trkpt>
      <trkpt lat="43.70912" lon="6.96828">
        <ele>786.3</ele>
        <time>2011-11-24T14:06:33Z</time>
      </trkpt>
      <trkpt lat="43.70915" lon="6.96835">
        <ele>785.1</ele>
        <time>2011-11-24T14:06:34Z</time>
      </trkpt>
      <trkpt lat="43.70918" lon="6.96842">
        <ele>784.4</ele>
        <time>2011-11-24T14:06:35Z</time>
      </trkpt>
      <trkpt lat="43.70922" lon="6.96845">
        <ele>783</ele>
        <time>2011-11-24T14:06:36Z</time>
      </trkpt>
      <trkpt lat="43.70926" lon="6.9685">
        <ele>782.3</ele>
        <time>2011-11-24T14:06:37Z</time>
      </trkpt>
      <trkpt lat="43.70926" lon="6.96864">
        <ele>780.8</ele>
        <time>2011-11-24T14:06:39Z</time>
      </trkpt>
      <trkpt lat="43.70924" lon="6.9687">
        <ele>779.8</ele>
        <time>2011-11-24T14:06:40Z</time>
      </trkpt>
      <trkpt lat="43.70922" lon="6.96879">
        <ele>779.2</ele>
        <time>2011-11-24T14:06:41Z</time>
      </trkpt>
      <trkpt lat="43.70924" lon="6.96888">
        <ele>779</ele>
        <time>2011-11-24T14:06:42Z</time>
      </trkpt>
      <trkpt lat="43.70924" lon="6.96897">
        <ele>778.2</ele>
        <time>2011-11-24T14:06:43Z</time>
      </trkpt>
      <trkpt lat="43.70923" lon="6.96906">
        <ele>777.9</ele>
        <time>2011-11-24T14:06:44Z</time>
      </trkpt>
      <trkpt lat="43.70925" lon="6.96914">
        <ele>777.2</ele>
        <time>2011-11-24T14:06:45Z</time>
      </trkpt>
      <trkpt lat="43.70926" lon="6.9692">
        <ele>775.1</ele>
        <time>2011-11-24T14:06:46Z</time>
      </trkpt>
      <trkpt lat="43.70931" lon="6.96927">
        <ele>774</ele>
        <time>2011-11-24T14:06:48Z</time>
      </trkpt>
      <trkpt lat="43.70929" lon="6.96936">
        <ele>770.3</ele>
        <time>2011-11-24T14:07:01Z</time>
      </trkpt>
      <trkpt lat="43.70928" lon="6.96942">
        <ele>767.8</ele>
        <time>2011-11-24T14:07:03Z</time>
      </trkpt>
      <trkpt lat="43.70926" lon="6.96952">
        <ele>765.5</ele>
        <time>2011-11-24T14:07:05Z</time>
      </trkpt>
      <trkpt lat="43.70923" lon="6.96963">
        <ele>763.3</ele>
        <time>2011-11-24T14:07:07Z</time>
      </trkpt>
      <trkpt lat="43.70922" lon="6.96974">
        <ele>762</ele>
        <time>2011-11-24T14:07:09Z</time>
      </trkpt>
      <trkpt lat="43.70923" lon="6.96982">
        <ele>761.9</ele>
        <time>2011-11-24T14:07:10Z</time>
      </trkpt>
      <trkpt lat="43.70921" lon="6.96992">
        <ele>761.1</ele>
        <time>2011-11-24T14:07:12Z</time>
      </trkpt>
      <trkpt lat="43.70919" lon="6.97002">
        <ele>760.1</ele>
        <time>2011-11-24T14:07:14Z</time>
      </trkpt>
      <trkpt lat="43.70916" lon="6.97008">
        <ele>759.4</ele>
        <time>2011-11-24T14:07:16Z</time>
      </trkpt>
      <trkpt lat="43.70913" lon="6.97013">
        <ele>759.3</ele>
        <time>2011-11-24T14:07:17Z</time>
      </trkpt>
      <trkpt lat="43.70909" lon="6.97022">
        <ele>758.5</ele>
        <time>2011-11-24T14:07:19Z</time>
      </trkpt>
      <trkpt lat="43.70907" lon="6.97027">
        <ele>757.5</ele>
        <time>2011-11-24T14:07:20Z</time>
      </trkpt>
      <trkpt lat="43.70904" lon="6.97037">
        <ele>755</ele>
        <time>2011-11-24T14:07:22Z</time>
      </trkpt>
      <trkpt lat="43.70902" lon="6.97043">
        <ele>755</ele>
        <time>2011-11-24T14:07:23Z</time>
      </trkpt>
      <trkpt lat="43.70898" lon="6.97054">
        <ele>753.3</ele>
        <time>2011-11-24T14:07:25Z</time>
      </trkpt>
      <trkpt lat="43.70895" lon="6.97058">
        <ele>752.8</ele>
        <time>2011-11-24T14:07:26Z</time>
      </trkpt>
      <trkpt lat="43.70889" lon="6.97065">
        <ele>752.3</ele>
        <time>2011-11-24T14:07:28Z</time>
      </trkpt>
      <trkpt lat="43.70885" lon="6.97074">
        <ele>752.7</ele>
        <time>2011-11-24T14:07:30Z</time>
      </trkpt>
      <trkpt lat="43.70879" lon="6.97074">
        <ele>755.4</ele>
        <time>2011-11-24T14:07:33Z</time>
      </trkpt>
      <trkpt lat="43.70873" lon="6.97074">
        <ele>755.8</ele>
        <time>2011-11-24T14:07:36Z</time>
      </trkpt>
      <trkpt lat="43.70862" lon="6.97075">
        <ele>754.3</ele>
        <time>2011-11-24T14:07:38Z</time>
      </trkpt>
      <trkpt lat="43.70852" lon="6.97075">
        <ele>754.4</ele>
        <time>2011-11-24T14:07:40Z</time>
      </trkpt>
      <trkpt lat="43.70844" lon="6.97074">
        <ele>754.5</ele>
        <time>2011-11-24T14:07:42Z</time>
      </trkpt>
      <trkpt lat="43.70837" lon="6.97075">
        <ele>754.7</ele>
        <time>2011-11-24T14:07:44Z</time>
      </trkpt>
      <trkpt lat="43.70832" lon="6.97073">
        <ele>754.1</ele>
        <time>2011-11-24T14:07:45Z</time>
      </trkpt>
      <trkpt lat="43.70822" lon="6.97075">
        <ele>753.3</ele>
        <time>2011-11-24T14:07:47Z</time>
      </trkpt>
      <trkpt lat="43.70813" lon="6.97075">
        <ele>752.5</ele>
        <time>2011-11-24T14:07:49Z</time>
      </trkpt>
      <trkpt lat="43.70805" lon="6.97072">
        <ele>752.1</ele>
        <time>2011-11-24T14:07:51Z</time>
      </trkpt>
      <trkpt lat="43.708" lon="6.97072">
        <ele>751.7</ele>
        <time>2011-11-24T14:07:52Z</time>
      </trkpt>
      <trkpt lat="43.70793" lon="6.97073">
        <ele>750</ele>
        <time>2011-11-24T14:07:53Z</time>
      </trkpt>
      <trkpt lat="43.70788" lon="6.97073">
        <ele>749.2</ele>
        <time>2011-11-24T14:07:54Z</time>
      </trkpt>
      <trkpt lat="43.70783" lon="6.97071">
        <ele>748.8</ele>
        <time>2011-11-24T14:07:55Z</time>
      </trkpt>
      <trkpt lat="43.70777" lon="6.97069">
        <ele>748.5</ele>
        <time>2011-11-24T14:07:56Z</time>
      </trkpt>
      <trkpt lat="43.70772" lon="6.97067">
        <ele>748.7</ele>
        <time>2011-11-24T14:07:57Z</time>
      </trkpt>
      <trkpt lat="43.70766" lon="6.97065">
        <ele>748.4</ele>
        <time>2011-11-24T14:07:58Z</time>
      </trkpt>
      <trkpt lat="43.70762" lon="6.97063">
        <ele>747.8</ele>
        <time>2011-11-24T14:07:59Z</time>
      </trkpt>
      <trkpt lat="43.70757" lon="6.9706">
        <ele>748</ele>
        <time>2011-11-24T14:08:00Z</time>
      </trkpt>
      <trkpt lat="43.70752" lon="6.97059">
        <ele>748.1</ele>
        <time>2011-11-24T14:08:01Z</time>
      </trkpt>
      <trkpt lat="43.70745" lon="6.97061">
        <ele>748.2</ele>
        <time>2011-11-24T14:08:02Z</time>
      </trkpt>
      <trkpt lat="43.70738" lon="6.97066">
        <ele>747.8</ele>
        <time>2011-11-24T14:08:03Z</time>
      </trkpt>
      <trkpt lat="43.70729" lon="6.97068">
        <ele>746.7</ele>
        <time>2011-11-24T14:08:05Z</time>
      </trkpt>
      <trkpt lat="43.7072" lon="6.97068">
        <ele>746.2</ele>
        <time>2011-11-24T14:08:07Z</time>
      </trkpt>
      <trkpt lat="43.70714" lon="6.97071">
        <ele>746</ele>
        <time>2011-11-24T14:08:08Z</time>
      </trkpt>
      <trkpt lat="43.70705" lon="6.97071">
        <ele>745.9</ele>
        <time>2011-11-24T14:08:10Z</time>
      </trkpt>
      <trkpt lat="43.707" lon="6.97069">
        <ele>745.5</ele>
        <time>2011-11-24T14:08:11Z</time>
      </trkpt>
      <trkpt lat="43.70695" lon="6.97068">
        <ele>745.1</ele>
        <time>2011-11-24T14:08:12Z</time>
      </trkpt>
      <trkpt lat="43.70688" lon="6.97069">
        <ele>744.3</ele>
        <time>2011-11-24T14:08:13Z</time>
      </trkpt>
      <trkpt lat="43.70683" lon="6.97069">
        <ele>743.8</ele>
        <time>2011-11-24T14:08:14Z</time>
      </trkpt>
      <trkpt lat="43.70678" lon="6.97068">
        <ele>743.5</ele>
        <time>2011-11-24T14:08:15Z</time>
      </trkpt>
      <trkpt lat="43.70672" lon="6.97068">
        <ele>743.6</ele>
        <time>2011-11-24T14:08:16Z</time>
      </trkpt>
      <trkpt lat="43.70663" lon="6.97066">
        <ele>742.6</ele>
        <time>2011-11-24T14:08:18Z</time>
      </trkpt>
      <trkpt lat="43.70654" lon="6.97066">
        <ele>742.4</ele>
        <time>2011-11-24T14:08:20Z</time>
      </trkpt>
      <trkpt lat="43.70649" lon="6.97067">
        <ele>742</ele>
        <time>2011-11-24T14:08:21Z</time>
      </trkpt>
      <trkpt lat="43.70642" lon="6.97066">
        <ele>741.6</ele>
        <time>2011-11-24T14:08:23Z</time>
      </trkpt>
      <trkpt lat="43.70637" lon="6.97066">
        <ele>741.6</ele>
        <time>2011-11-24T14:08:24Z</time>
      </trkpt>
      <trkpt lat="43.70628" lon="6.97065">
        <ele>741.4</ele>
        <time>2011-11-24T14:08:26Z</time>
      </trkpt>
      <trkpt lat="43.70624" lon="6.97063">
        <ele>741.2</ele>
        <time>2011-11-24T14:08:27Z</time>
      </trkpt>
      <trkpt lat="43.70618" lon="6.97063">
        <ele>739.7</ele>
        <time>2011-11-24T14:08:28Z</time>
      </trkpt>
      <trkpt lat="43.70612" lon="6.97062">
        <ele>739.7</ele>
        <time>2011-11-24T14:08:29Z</time>
      </trkpt>
      <trkpt lat="43.70607" lon="6.97062">
        <ele>739.6</ele>
        <time>2011-11-24T14:08:30Z</time>
      </trkpt>
      <trkpt lat="43.70602" lon="6.97061">
        <ele>739</ele>
        <time>2011-11-24T14:08:31Z</time>
      </trkpt>
      <trkpt lat="43.70597" lon="6.97061">
        <ele>738.6</ele>
        <time>2011-11-24T14:08:32Z</time>
      </trkpt>
      <trkpt lat="43.70592" lon="6.97061">
        <ele>737.8</ele>
        <time>2011-11-24T14:08:33Z</time>
      </trkpt>
      <trkpt lat="43.70587" lon="6.9706">
        <ele>737.4</ele>
        <time>2011-11-24T14:08:34Z</time>
      </trkpt>
      <trkpt lat="43.70581" lon="6.97059">
        <ele>736.8</ele>
        <time>2011-11-24T14:08:35Z</time>
      </trkpt>
      <trkpt lat="43.70576" lon="6.9706">
        <ele>735.8</ele>
        <time>2011-11-24T14:08:36Z</time>
      </trkpt>
      <trkpt lat="43.70571" lon="6.9706">
        <ele>735.8</ele>
        <time>2011-11-24T14:08:37Z</time>
      </trkpt>
      <trkpt lat="43.70565" lon="6.97059">
        <ele>735.3</ele>
        <time>2011-11-24T14:08:38Z</time>
      </trkpt>
      <trkpt lat="43.70561" lon="6.97059">
        <ele>735</ele>
        <time>2011-11-24T14:08:39Z</time>
      </trkpt>
      <trkpt lat="43.70554" lon="6.97058">
        <ele>732.3</ele>
        <time>2011-11-24T14:08:40Z</time>
      </trkpt>
      <trkpt lat="43.70548" lon="6.9706">
        <ele>730.7</ele>
        <time>2011-11-24T14:08:41Z</time>
      </trkpt>
      <trkpt lat="43.70542" lon="6.9706">
        <ele>730.3</ele>
        <time>2011-11-24T14:08:42Z</time>
      </trkpt>
      <trkpt lat="43.70536" lon="6.97058">
        <ele>730</ele>
        <time>2011-11-24T14:08:43Z</time>
      </trkpt>
      <trkpt lat="43.70531" lon="6.97058">
        <ele>729.7</ele>
        <time>2011-11-24T14:08:44Z</time>
      </trkpt>
      <trkpt lat="43.70525" lon="6.97058">
        <ele>729.7</ele>
        <time>2011-11-24T14:08:45Z</time>
      </trkpt>
      <trkpt lat="43.7052" lon="6.97056">
        <ele>729.5</ele>
        <time>2011-11-24T14:08:46Z</time>
      </trkpt>
      <trkpt lat="43.70514" lon="6.97054">
        <ele>729.5</ele>
        <time>2011-11-24T14:08:47Z</time>
      </trkpt>
      <trkpt lat="43.70508" lon="6.97052">
        <ele>729.6</ele>
        <time>2011-11-24T14:08:48Z</time>
      </trkpt>
      <trkpt lat="43.70503" lon="6.97049">
        <ele>729.6</ele>
        <time>2011-11-24T14:08:49Z</time>
      </trkpt>
      <trkpt lat="43.70497" lon="6.97046">
        <ele>729.2</ele>
        <time>2011-11-24T14:08:50Z</time>
      </trkpt>
      <trkpt lat="43.70492" lon="6.97043">
        <ele>728.8</ele>
        <time>2011-11-24T14:08:51Z</time>
      </trkpt>
      <trkpt lat="43.70486" lon="6.9704">
        <ele>727.8</ele>
        <time>2011-11-24T14:08:52Z</time>
      </trkpt>
      <trkpt lat="43.70482" lon="6.97035">
        <ele>726.7</ele>
        <time>2011-11-24T14:08:53Z</time>
      </trkpt>
      <trkpt lat="43.70477" lon="6.97031">
        <ele>725</ele>
        <time>2011-11-24T14:08:54Z</time>
      </trkpt>
      <trkpt lat="43.70474" lon="6.97026">
        <ele>724.6</ele>
        <time>2011-11-24T14:08:55Z</time>
      </trkpt>
      <trkpt lat="43.7047" lon="6.97021">
        <ele>723.4</ele>
        <time>2011-11-24T14:08:56Z</time>
      </trkpt>
      <trkpt lat="43.70466" lon="6.97017">
        <ele>722.8</ele>
        <time>2011-11-24T14:08:57Z</time>
      </trkpt>
      <trkpt lat="43.70463" lon="6.97012">
        <ele>722.7</ele>
        <time>2011-11-24T14:08:58Z</time>
      </trkpt>
      <trkpt lat="43.70459" lon="6.97008">
        <ele>722.9</ele>
        <time>2011-11-24T14:08:59Z</time>
      </trkpt>
      <trkpt lat="43.70453" lon="6.96999">
        <ele>722.4</ele>
        <time>2011-11-24T14:09:01Z</time>
      </trkpt>
      <trkpt lat="43.7045" lon="6.96995">
        <ele>721.7</ele>
        <time>2011-11-24T14:09:02Z</time>
      </trkpt>
      <trkpt lat="43.70446" lon="6.9699">
        <ele>720.4</ele>
        <time>2011-11-24T14:09:03Z</time>
      </trkpt>
      <trkpt lat="43.70443" lon="6.96985">
        <ele>720.2</ele>
        <time>2011-11-24T14:09:04Z</time>
      </trkpt>
      <trkpt lat="43.70439" lon="6.9698">
        <ele>719.6</ele>
        <time>2011-11-24T14:09:05Z</time>
      </trkpt>
      <trkpt lat="43.70436" lon="6.96976">
        <ele>719.2</ele>
        <time>2011-11-24T14:09:06Z</time>
      </trkpt>
      <trkpt lat="43.70432" lon="6.96971">
        <ele>719.1</ele>
        <time>2011-11-24T14:09:07Z</time>
      </trkpt>
      <trkpt lat="43.70427" lon="6.96961">
        <ele>718.6</ele>
        <time>2011-11-24T14:09:09Z</time>
      </trkpt>
      <trkpt lat="43.70421" lon="6.96952">
        <ele>717.3</ele>
        <time>2011-11-24T14:09:11Z</time>
      </trkpt>
      <trkpt lat="43.70416" lon="6.96944">
        <ele>716.4</ele>
        <time>2011-11-24T14:09:13Z</time>
      </trkpt>
      <trkpt lat="43.70411" lon="6.96948">
        <ele>715.2</ele>
        <time>2011-11-24T14:09:16Z</time>
      </trkpt>
      <trkpt lat="43.7041" lon="6.96958">
        <ele>715.5</ele>
        <time>2011-11-24T14:09:18Z</time>
      </trkpt>
      <trkpt lat="43.7041" lon="6.96964">
        <ele>715.3</ele>
        <time>2011-11-24T14:09:19Z</time>
      </trkpt>
      <trkpt lat="43.70408" lon="6.96974">
        <ele>715.2</ele>
        <time>2011-11-24T14:09:21Z</time>
      </trkpt>
      <trkpt lat="43.70404" lon="6.96984">
        <ele>714.4</ele>
        <time>2011-11-24T14:09:23Z</time>
      </trkpt>
      <trkpt lat="43.70403" lon="6.9699">
        <ele>714.2</ele>
        <time>2011-11-24T14:09:24Z</time>
      </trkpt>
      <trkpt lat="43.70406" lon="6.97003">
        <ele>712.4</ele>
        <time>2011-11-24T14:09:26Z</time>
      </trkpt>
      <trkpt lat="43.7041" lon="6.97014">
        <ele>711.8</ele>
        <time>2011-11-24T14:09:28Z</time>
      </trkpt>
      <trkpt lat="43.70414" lon="6.97028">
        <ele>708.3</ele>
        <time>2011-11-24T14:09:30Z</time>
      </trkpt>
      <trkpt lat="43.70416" lon="6.97035">
        <ele>707.6</ele>
        <time>2011-11-24T14:09:31Z</time>
      </trkpt>
      <trkpt lat="43.70416" lon="6.97041">
        <ele>706.9</ele>
        <time>2011-11-24T14:09:32Z</time>
      </trkpt>
      <trkpt lat="43.70415" lon="6.97052">
        <ele>705.8</ele>
        <time>2011-11-24T14:09:34Z</time>
      </trkpt>
      <trkpt lat="43.70413" lon="6.9706">
        <ele>701.8</ele>
        <time>2011-11-24T14:09:36Z</time>
      </trkpt>
      <trkpt lat="43.70411" lon="6.97066">
        <ele>700.8</ele>
        <time>2011-11-24T14:09:39Z</time>
      </trkpt>
      <trkpt lat="43.70406" lon="6.97058">
        <ele>699.9</ele>
        <time>2011-11-24T14:09:41Z</time>
      </trkpt>
      <trkpt lat="43.70402" lon="6.97051">
        <ele>699.8</ele>
        <time>2011-11-24T14:09:42Z</time>
      </trkpt>
      <trkpt lat="43.70396" lon="6.97044">
        <ele>699.6</ele>
        <time>2011-11-24T14:09:44Z</time>
      </trkpt>
      <trkpt lat="43.70391" lon="6.97035">
        <ele>698.9</ele>
        <time>2011-11-24T14:09:46Z</time>
      </trkpt>
      <trkpt lat="43.70388" lon="6.9703">
        <ele>698.8</ele>
        <time>2011-11-24T14:09:47Z</time>
      </trkpt>
      <trkpt lat="43.70385" lon="6.97025">
        <ele>698.3</ele>
        <time>2011-11-24T14:09:48Z</time>
      </trkpt>
      <trkpt lat="43.70383" lon="6.97019">
        <ele>698</ele>
        <time>2011-11-24T14:09:49Z</time>
      </trkpt>
      <trkpt lat="43.70381" lon="6.97012">
        <ele>697.5</ele>
        <time>2011-11-24T14:09:50Z</time>
      </trkpt>
      <trkpt lat="43.70379" lon="6.97006">
        <ele>697.3</ele>
        <time>2011-11-24T14:09:51Z</time>
      </trkpt>
      <trkpt lat="43.70377" lon="6.96999">
        <ele>696.1</ele>
        <time>2011-11-24T14:09:52Z</time>
      </trkpt>
      <trkpt lat="43.70376" lon="6.96991">
        <ele>696.1</ele>
        <time>2011-11-24T14:09:53Z</time>
      </trkpt>
      <trkpt lat="43.70374" lon="6.96983">
        <ele>696.7</ele>
        <time>2011-11-24T14:09:54Z</time>
      </trkpt>
      <trkpt lat="43.70374" lon="6.96974">
        <ele>696.1</ele>
        <time>2011-11-24T14:09:55Z</time>
      </trkpt>
      <trkpt lat="43.70372" lon="6.96966">
        <ele>695.7</ele>
        <time>2011-11-24T14:09:56Z</time>
      </trkpt>
      <trkpt lat="43.70371" lon="6.96957">
        <ele>695.8</ele>
        <time>2011-11-24T14:09:57Z</time>
      </trkpt>
      <trkpt lat="43.7037" lon="6.96948">
        <ele>695.4</ele>
        <time>2011-11-24T14:09:58Z</time>
      </trkpt>
      <trkpt lat="43.70369" lon="6.96938">
        <ele>695.1</ele>
        <time>2011-11-24T14:09:59Z</time>
      </trkpt>
      <trkpt lat="43.70367" lon="6.96928">
        <ele>694.6</ele>
        <time>2011-11-24T14:10:00Z</time>
      </trkpt>
      <trkpt lat="43.70366" lon="6.96919">
        <ele>694.6</ele>
        <time>2011-11-24T14:10:01Z</time>
      </trkpt>
      <trkpt lat="43.70365" lon="6.96909">
        <ele>694.1</ele>
        <time>2011-11-24T14:10:02Z</time>
      </trkpt>
      <trkpt lat="43.70363" lon="6.96899">
        <ele>694.1</ele>
        <time>2011-11-24T14:10:03Z</time>
      </trkpt>
      <trkpt lat="43.70362" lon="6.96888">
        <ele>693.9</ele>
        <time>2011-11-24T14:10:04Z</time>
      </trkpt>
      <trkpt lat="43.70361" lon="6.96878">
        <ele>693.6</ele>
        <time>2011-11-24T14:10:05Z</time>
      </trkpt>
      <trkpt lat="43.7036" lon="6.96868">
        <ele>693.2</ele>
        <time>2011-11-24T14:10:06Z</time>
      </trkpt>
      <trkpt lat="43.70358" lon="6.96857">
        <ele>693.3</ele>
        <time>2011-11-24T14:10:07Z</time>
      </trkpt>
      <trkpt lat="43.70356" lon="6.96846">
        <ele>692.7</ele>
        <time>2011-11-24T14:10:08Z</time>
      </trkpt>
      <trkpt lat="43.70355" lon="6.96835">
        <ele>692.1</ele>
        <time>2011-11-24T14:10:09Z</time>
      </trkpt>
      <trkpt lat="43.70354" lon="6.96824">
        <ele>691.9</ele>
        <time>2011-11-24T14:10:10Z</time>
      </trkpt>
      <trkpt lat="43.70352" lon="6.96814">
        <ele>691.7</ele>
        <time>2011-11-24T14:10:11Z</time>
      </trkpt>
      <trkpt lat="43.70352" lon="6.96803">
        <ele>691.2</ele>
        <time>2011-11-24T14:10:12Z</time>
      </trkpt>
      <trkpt lat="43.70351" lon="6.96792">
        <ele>691.2</ele>
        <time>2011-11-24T14:10:13Z</time>
      </trkpt>
      <trkpt lat="43.70351" lon="6.96782">
        <ele>691.2</ele>
        <time>2011-11-24T14:10:14Z</time>
      </trkpt>
      <trkpt lat="43.70351" lon="6.96771">
        <ele>691.2</ele>
        <time>2011-11-24T14:10:15Z</time>
      </trkpt>
      <trkpt lat="43.70351" lon="6.96761">
        <ele>691.2</ele>
        <time>2011-11-24T14:10:16Z</time>
      </trkpt>
      <trkpt lat="43.7035" lon="6.96752">
        <ele>691.4</ele>
        <time>2011-11-24T14:10:17Z</time>
      </trkpt>
      <trkpt lat="43.70348" lon="6.96741">
        <ele>690.8</ele>
        <time>2011-11-24T14:10:18Z</time>
      </trkpt>
      <trkpt lat="43.70347" lon="6.96731">
        <ele>690.8</ele>
        <time>2011-11-24T14:10:19Z</time>
      </trkpt>
      <trkpt lat="43.70345" lon="6.9672">
        <ele>690.6</ele>
        <time>2011-11-24T14:10:20Z</time>
      </trkpt>
      <trkpt lat="43.70343" lon="6.9671">
        <ele>690.3</ele>
        <time>2011-11-24T14:10:21Z</time>
      </trkpt>
      <trkpt lat="43.70341" lon="6.96699">
        <ele>689.8</ele>
        <time>2011-11-24T14:10:22Z</time>
      </trkpt>
      <trkpt lat="43.70339" lon="6.96688">
        <ele>689.8</ele>
        <time>2011-11-24T14:10:23Z</time>
      </trkpt>
      <trkpt lat="43.70338" lon="6.96677">
        <ele>689.3</ele>
        <time>2011-11-24T14:10:24Z</time>
      </trkpt>
      <trkpt lat="43.70335" lon="6.96667">
        <ele>688.3</ele>
        <time>2011-11-24T14:10:25Z</time>
      </trkpt>
      <trkpt lat="43.70333" lon="6.96657">
        <ele>688.6</ele>
        <time>2011-11-24T14:10:26Z</time>
      </trkpt>
      <trkpt lat="43.70332" lon="6.96646">
        <ele>688.2</ele>
        <time>2011-11-24T14:10:27Z</time>
      </trkpt>
      <trkpt lat="43.7033" lon="6.96636">
        <ele>687.9</ele>
        <time>2011-11-24T14:10:28Z</time>
      </trkpt>
      <trkpt lat="43.70328" lon="6.96626">
        <ele>687.7</ele>
        <time>2011-11-24T14:10:29Z</time>
      </trkpt>
      <trkpt lat="43.70327" lon="6.96616">
        <ele>687.3</ele>
        <time>2011-11-24T14:10:30Z</time>
      </trkpt>
      <trkpt lat="43.70325" lon="6.96607">
        <ele>686.8</ele>
        <time>2011-11-24T14:10:31Z</time>
      </trkpt>
      <trkpt lat="43.70323" lon="6.96597">
        <ele>686.8</ele>
        <time>2011-11-24T14:10:32Z</time>
      </trkpt>
      <trkpt lat="43.70322" lon="6.96588">
        <ele>687.1</ele>
        <time>2011-11-24T14:10:33Z</time>
      </trkpt>
      <trkpt lat="43.7032" lon="6.96579">
        <ele>687.1</ele>
        <time>2011-11-24T14:10:34Z</time>
      </trkpt>
      <trkpt lat="43.70318" lon="6.9657">
        <ele>686.8</ele>
        <time>2011-11-24T14:10:35Z</time>
      </trkpt>
      <trkpt lat="43.70317" lon="6.96561">
        <ele>686.3</ele>
        <time>2011-11-24T14:10:36Z</time>
      </trkpt>
      <trkpt lat="43.70316" lon="6.96552">
        <ele>686.2</ele>
        <time>2011-11-24T14:10:37Z</time>
      </trkpt>
      <trkpt lat="43.70314" lon="6.96544">
        <ele>686</ele>
        <time>2011-11-24T14:10:38Z</time>
      </trkpt>
      <trkpt lat="43.70313" lon="6.96535">
        <ele>685.5</ele>
        <time>2011-11-24T14:10:39Z</time>
      </trkpt>
      <trkpt lat="43.70311" lon="6.96526">
        <ele>685.2</ele>
        <time>2011-11-24T14:10:40Z</time>
      </trkpt>
      <trkpt lat="43.70309" lon="6.96517">
        <ele>684.9</ele>
        <time>2011-11-24T14:10:41Z</time>
      </trkpt>
      <trkpt lat="43.70307" lon="6.96508">
        <ele>684.7</ele>
        <time>2011-11-24T14:10:42Z</time>
      </trkpt>
      <trkpt lat="43.70306" lon="6.96499">
        <ele>684.9</ele>
        <time>2011-11-24T14:10:43Z</time>
      </trkpt>
      <trkpt lat="43.70304" lon="6.9649">
        <ele>685.3</ele>
        <time>2011-11-24T14:10:44Z</time>
      </trkpt>
      <trkpt lat="43.70302" lon="6.96481">
        <ele>685.7</ele>
        <time>2011-11-24T14:10:45Z</time>
      </trkpt>
      <trkpt lat="43.703" lon="6.96471">
        <ele>685.6</ele>
        <time>2011-11-24T14:10:46Z</time>
      </trkpt>
      <trkpt lat="43.70299" lon="6.96461">
        <ele>685.6</ele>
        <time>2011-11-24T14:10:47Z</time>
      </trkpt>
      <trkpt lat="43.70298" lon="6.96452">
        <ele>685.4</ele>
        <time>2011-11-24T14:10:48Z</time>
      </trkpt>
      <trkpt lat="43.70295" lon="6.96442">
        <ele>685.4</ele>
        <time>2011-11-24T14:10:49Z</time>
      </trkpt>
      <trkpt lat="43.70294" lon="6.96433">
        <ele>684.7</ele>
        <time>2011-11-24T14:10:50Z</time>
      </trkpt>
      <trkpt lat="43.70291" lon="6.96424">
        <ele>684.7</ele>
        <time>2011-11-24T14:10:51Z</time>
      </trkpt>
      <trkpt lat="43.7029" lon="6.96413">
        <ele>684.5</ele>
        <time>2011-11-24T14:10:52Z</time>
      </trkpt>
      <trkpt lat="43.70287" lon="6.96403">
        <ele>684.1</ele>
        <time>2011-11-24T14:10:53Z</time>
      </trkpt>
      <trkpt lat="43.70284" lon="6.96393">
        <ele>684.1</ele>
        <time>2011-11-24T14:10:54Z</time>
      </trkpt>
      <trkpt lat="43.70282" lon="6.96384">
        <ele>683.8</ele>
        <time>2011-11-24T14:10:55Z</time>
      </trkpt>
      <trkpt lat="43.70277" lon="6.96375">
        <ele>683.6</ele>
        <time>2011-11-24T14:10:56Z</time>
      </trkpt>
      <trkpt lat="43.70272" lon="6.96367">
        <ele>683.9</ele>
        <time>2011-11-24T14:10:57Z</time>
      </trkpt>
      <trkpt lat="43.70268" lon="6.96358">
        <ele>684.3</ele>
        <time>2011-11-24T14:10:58Z</time>
      </trkpt>
      <trkpt lat="43.70263" lon="6.96349">
        <ele>684.4</ele>
        <time>2011-11-24T14:10:59Z</time>
      </trkpt>
      <trkpt lat="43.70259" lon="6.9634">
        <ele>683.9</ele>
        <time>2011-11-24T14:11:00Z</time>
      </trkpt>
      <trkpt lat="43.70255" lon="6.9633">
        <ele>683</ele>
        <time>2011-11-24T14:11:01Z</time>
      </trkpt>
      <trkpt lat="43.70251" lon="6.9632">
        <ele>682.4</ele>
        <time>2011-11-24T14:11:02Z</time>
      </trkpt>
      <trkpt lat="43.70247" lon="6.96311">
        <ele>682.4</ele>
        <time>2011-11-24T14:11:03Z</time>
      </trkpt>
      <trkpt lat="43.70242" lon="6.96301">
        <ele>681.7</ele>
        <time>2011-11-24T14:11:04Z</time>
      </trkpt>
      <trkpt lat="43.70238" lon="6.96291">
        <ele>681.3</ele>
        <time>2011-11-24T14:11:05Z</time>
      </trkpt>
      <trkpt lat="43.70233" lon="6.96282">
        <ele>681.5</ele>
        <time>2011-11-24T14:11:06Z</time>
      </trkpt>
      <trkpt lat="43.70229" lon="6.96273">
        <ele>681.5</ele>
        <time>2011-11-24T14:11:07Z</time>
      </trkpt>
      <trkpt lat="43.70224" lon="6.96264">
        <ele>681.2</ele>
        <time>2011-11-24T14:11:08Z</time>
      </trkpt>
      <trkpt lat="43.7022" lon="6.96255">
        <ele>681</ele>
        <time>2011-11-24T14:11:09Z</time>
      </trkpt>
      <trkpt lat="43.70216" lon="6.96247">
        <ele>680.6</ele>
        <time>2011-11-24T14:11:10Z</time>
      </trkpt>
      <trkpt lat="43.70211" lon="6.96239">
        <ele>680.4</ele>
        <time>2011-11-24T14:11:11Z</time>
      </trkpt>
      <trkpt lat="43.70206" lon="6.96231">
        <ele>680.2</ele>
        <time>2011-11-24T14:11:12Z</time>
      </trkpt>
      <trkpt lat="43.702" lon="6.96224">
        <ele>679.7</ele>
        <time>2011-11-24T14:11:13Z</time>
      </trkpt>
      <trkpt lat="43.70195" lon="6.96217">
        <ele>679.3</ele>
        <time>2011-11-24T14:11:14Z</time>
      </trkpt>
      <trkpt lat="43.70188" lon="6.9621">
        <ele>679.3</ele>
        <time>2011-11-24T14:11:15Z</time>
      </trkpt>
      <trkpt lat="43.70182" lon="6.96205">
        <ele>679.1</ele>
        <time>2011-11-24T14:11:16Z</time>
      </trkpt>
      <trkpt lat="43.70176" lon="6.96199">
        <ele>678.6</ele>
        <time>2011-11-24T14:11:17Z</time>
      </trkpt>
      <trkpt lat="43.7017" lon="6.96194">
        <ele>678</ele>
        <time>2011-11-24T14:11:18Z</time>
      </trkpt>
      <trkpt lat="43.70163" lon="6.96188">
        <ele>678.2</ele>
        <time>2011-11-24T14:11:19Z</time>
      </trkpt>
      <trkpt lat="43.70157" lon="6.96183">
        <ele>677.8</ele>
        <time>2011-11-24T14:11:20Z</time>
      </trkpt>
      <trkpt lat="43.7015" lon="6.96177">
        <ele>678</ele>
        <time>2011-11-24T14:11:21Z</time>
      </trkpt>
      <trkpt lat="43.70143" lon="6.96171">
        <ele>677.9</ele>
        <time>2011-11-24T14:11:22Z</time>
      </trkpt>
      <trkpt lat="43.70137" lon="6.96165">
        <ele>678</ele>
        <time>2011-11-24T14:11:23Z</time>
      </trkpt>
      <trkpt lat="43.7013" lon="6.96159">
        <ele>678</ele>
        <time>2011-11-24T14:11:24Z</time>
      </trkpt>
      <trkpt lat="43.70123" lon="6.96155">
        <ele>677.4</ele>
        <time>2011-11-24T14:11:25Z</time>
      </trkpt>
      <trkpt lat="43.70116" lon="6.9615">
        <ele>677</ele>
        <time>2011-11-24T14:11:26Z</time>
      </trkpt>
      <trkpt lat="43.70108" lon="6.96146">
        <ele>677</ele>
        <time>2011-11-24T14:11:27Z</time>
      </trkpt>
      <trkpt lat="43.70102" lon="6.96141">
        <ele>677.8</ele>
        <time>2011-11-24T14:11:28Z</time>
      </trkpt>
      <trkpt lat="43.70096" lon="6.96136">
        <ele>677.9</ele>
        <time>2011-11-24T14:11:29Z</time>
      </trkpt>
      <trkpt lat="43.7009" lon="6.96132">
        <ele>678.1</ele>
        <time>2011-11-24T14:11:30Z</time>
      </trkpt>
      <trkpt lat="43.70084" lon="6.96126">
        <ele>677.9</ele>
        <time>2011-11-24T14:11:31Z</time>
      </trkpt>
      <trkpt lat="43.70079" lon="6.96121">
        <ele>677.6</ele>
        <time>2011-11-24T14:11:32Z</time>
      </trkpt>
      <trkpt lat="43.70073" lon="6.96116">
        <ele>677.7</ele>
        <time>2011-11-24T14:11:33Z</time>
      </trkpt>
      <trkpt lat="43.70068" lon="6.96112">
        <ele>677.1</ele>
        <time>2011-11-24T14:11:34Z</time>
      </trkpt>
      <trkpt lat="43.70062" lon="6.96111">
        <ele>676.3</ele>
        <time>2011-11-24T14:11:35Z</time>
      </trkpt>
      <trkpt lat="43.70056" lon="6.96114">
        <ele>675.3</ele>
        <time>2011-11-24T14:11:36Z</time>
      </trkpt>
      <trkpt lat="43.70054" lon="6.9612">
        <ele>674.5</ele>
        <time>2011-11-24T14:11:37Z</time>
      </trkpt>
      <trkpt lat="43.70054" lon="6.96126">
        <ele>673.8</ele>
        <time>2011-11-24T14:11:38Z</time>
      </trkpt>
      <trkpt lat="43.7006" lon="6.96135">
        <ele>673.8</ele>
        <time>2011-11-24T14:11:39Z</time>
      </trkpt>
      <trkpt lat="43.70066" lon="6.96143">
        <ele>673.8</ele>
        <time>2011-11-24T14:11:40Z</time>
      </trkpt>
      <trkpt lat="43.70071" lon="6.9615">
        <ele>673.7</ele>
        <time>2011-11-24T14:11:41Z</time>
      </trkpt>
      <trkpt lat="43.70078" lon="6.96158">
        <ele>672.3</ele>
        <time>2011-11-24T14:11:42Z</time>
      </trkpt>
      <trkpt lat="43.70083" lon="6.96166">
        <ele>672.4</ele>
        <time>2011-11-24T14:11:43Z</time>
      </trkpt>
      <trkpt lat="43.7009" lon="6.96174">
        <ele>672.6</ele>
        <time>2011-11-24T14:11:44Z</time>
      </trkpt>
      <trkpt lat="43.70097" lon="6.96182">
        <ele>672.5</ele>
        <time>2011-11-24T14:11:45Z</time>
      </trkpt>
      <trkpt lat="43.70105" lon="6.96186">
        <ele>671.3</ele>
        <time>2011-11-24T14:11:46Z</time>
      </trkpt>
      <trkpt lat="43.70112" lon="6.96193">
        <ele>670.7</ele>
        <time>2011-11-24T14:11:47Z</time>
      </trkpt>
      <trkpt lat="43.70117" lon="6.96202">
        <ele>670.4</ele>
        <time>2011-11-24T14:11:48Z</time>
      </trkpt>
      <trkpt lat="43.70123" lon="6.96208">
        <ele>669.7</ele>
        <time>2011-11-24T14:11:49Z</time>
      </trkpt>
      <trkpt lat="43.7013" lon="6.96214">
        <ele>669.6</ele>
        <time>2011-11-24T14:11:50Z</time>
      </trkpt>
      <trkpt lat="43.70136" lon="6.96222">
        <ele>669</ele>
        <time>2011-11-24T14:11:51Z</time>
      </trkpt>
      <trkpt lat="43.70142" lon="6.96231">
        <ele>668.2</ele>
        <time>2011-11-24T14:11:52Z</time>
      </trkpt>
      <trkpt lat="43.70147" lon="6.9624">
        <ele>667.7</ele>
        <time>2011-11-24T14:11:53Z</time>
      </trkpt>
      <trkpt lat="43.70152" lon="6.96249">
        <ele>667.6</ele>
        <time>2011-11-24T14:11:54Z</time>
      </trkpt>
      <trkpt lat="43.70157" lon="6.9626">
        <ele>667.9</ele>
        <time>2011-11-24T14:11:55Z</time>
      </trkpt>
      <trkpt lat="43.70162" lon="6.96271">
        <ele>667.6</ele>
        <time>2011-11-24T14:11:56Z</time>
      </trkpt>
      <trkpt lat="43.70167" lon="6.96281">
        <ele>666.6</ele>
        <time>2011-11-24T14:11:57Z</time>
      </trkpt>
      <trkpt lat="43.70174" lon="6.96291">
        <ele>665.7</ele>
        <time>2011-11-24T14:11:58Z</time>
      </trkpt>
      <trkpt lat="43.70179" lon="6.96302">
        <ele>665.4</ele>
        <time>2011-11-24T14:11:59Z</time>
      </trkpt>
      <trkpt lat="43.70184" lon="6.9631">
        <ele>664.4</ele>
        <time>2011-11-24T14:12:00Z</time>
      </trkpt>
      <trkpt lat="43.70188" lon="6.96319">
        <ele>663.3</ele>
        <time>2011-11-24T14:12:01Z</time>
      </trkpt>
      <trkpt lat="43.70193" lon="6.96328">
        <ele>662.2</ele>
        <time>2011-11-24T14:12:02Z</time>
      </trkpt>
      <trkpt lat="43.70196" lon="6.96337">
        <ele>661.7</ele>
        <time>2011-11-24T14:12:03Z</time>
      </trkpt>
      <trkpt lat="43.70198" lon="6.96347">
        <ele>661.1</ele>
        <time>2011-11-24T14:12:04Z</time>
      </trkpt>
      <trkpt lat="43.702" lon="6.96358">
        <ele>660.9</ele>
        <time>2011-11-24T14:12:05Z</time>
      </trkpt>
      <trkpt lat="43.70203" lon="6.9637">
        <ele>660.6</ele>
        <time>2011-11-24T14:12:06Z</time>
      </trkpt>
      <trkpt lat="43.70208" lon="6.96382">
        <ele>660.3</ele>
        <time>2011-11-24T14:12:07Z</time>
      </trkpt>
      <trkpt lat="43.70213" lon="6.96392">
        <ele>659.1</ele>
        <time>2011-11-24T14:12:08Z</time>
      </trkpt>
      <trkpt lat="43.70216" lon="6.96404">
        <ele>658.4</ele>
        <time>2011-11-24T14:12:09Z</time>
      </trkpt>
      <trkpt lat="43.70219" lon="6.96415">
        <ele>657.2</ele>
        <time>2011-11-24T14:12:10Z</time>
      </trkpt>
      <trkpt lat="43.70221" lon="6.96427">
        <ele>656.4</ele>
        <time>2011-11-24T14:12:11Z</time>
      </trkpt>
      <trkpt lat="43.70223" lon="6.96438">
        <ele>657.1</ele>
        <time>2011-11-24T14:12:12Z</time>
      </trkpt>
      <trkpt lat="43.70225" lon="6.96449">
        <ele>657.2</ele>
        <time>2011-11-24T14:12:13Z</time>
      </trkpt>
      <trkpt lat="43.70228" lon="6.96459">
        <ele>656.3</ele>
        <time>2011-11-24T14:12:14Z</time>
      </trkpt>
      <trkpt lat="43.70233" lon="6.96468">
        <ele>656</ele>
        <time>2011-11-24T14:12:15Z</time>
      </trkpt>
      <trkpt lat="43.70235" lon="6.9648">
        <ele>655.8</ele>
        <time>2011-11-24T14:12:16Z</time>
      </trkpt>
      <trkpt lat="43.70236" lon="6.96492">
        <ele>655.1</ele>
        <time>2011-11-24T14:12:17Z</time>
      </trkpt>
      <trkpt lat="43.70237" lon="6.96503">
        <ele>655.5</ele>
        <time>2011-11-24T14:12:18Z</time>
      </trkpt>
      <trkpt lat="43.7024" lon="6.96514">
        <ele>654.7</ele>
        <time>2011-11-24T14:12:19Z</time>
      </trkpt>
      <trkpt lat="43.70243" lon="6.96523">
        <ele>654.1</ele>
        <time>2011-11-24T14:12:20Z</time>
      </trkpt>
      <trkpt lat="43.70245" lon="6.96531">
        <ele>654.4</ele>
        <time>2011-11-24T14:12:21Z</time>
      </trkpt>
      <trkpt lat="43.70246" lon="6.96539">
        <ele>655.5</ele>
        <time>2011-11-24T14:12:22Z</time>
      </trkpt>
      <trkpt lat="43.70248" lon="6.96547">
        <ele>655</ele>
        <time>2011-11-24T14:12:23Z</time>
      </trkpt>
      <trkpt lat="43.70249" lon="6.96555">
        <ele>654.7</ele>
        <time>2011-11-24T14:12:24Z</time>
      </trkpt>
      <trkpt lat="43.7025" lon="6.96562">
        <ele>654.3</ele>
        <time>2011-11-24T14:12:25Z</time>
      </trkpt>
      <trkpt lat="43.70251" lon="6.96568">
        <ele>654.3</ele>
        <time>2011-11-24T14:12:26Z</time>
      </trkpt>
      <trkpt lat="43.70252" lon="6.96574">
        <ele>654.5</ele>
        <time>2011-11-24T14:12:27Z</time>
      </trkpt>
      <trkpt lat="43.70255" lon="6.96586">
        <ele>654.2</ele>
        <time>2011-11-24T14:12:29Z</time>
      </trkpt>
      <trkpt lat="43.70257" lon="6.96592">
        <ele>654.2</ele>
        <time>2011-11-24T14:12:30Z</time>
      </trkpt>
      <trkpt lat="43.70257" lon="6.96599">
        <ele>654.7</ele>
        <time>2011-11-24T14:12:31Z</time>
      </trkpt>
      <trkpt lat="43.70259" lon="6.96612">
        <ele>654.4</ele>
        <time>2011-11-24T14:12:33Z</time>
      </trkpt>
      <trkpt lat="43.7026" lon="6.96618">
        <ele>654.2</ele>
        <time>2011-11-24T14:12:34Z</time>
      </trkpt>
      <trkpt lat="43.7026" lon="6.96624">
        <ele>654.5</ele>
        <time>2011-11-24T14:12:35Z</time>
      </trkpt>
      <trkpt lat="43.70262" lon="6.96632">
        <ele>649.2</ele>
        <time>2011-11-24T14:12:36Z</time>
      </trkpt>
      <trkpt lat="43.70263" lon="6.96639">
        <ele>648.7</ele>
        <time>2011-11-24T14:12:37Z</time>
      </trkpt>
      <trkpt lat="43.70265" lon="6.96647">
        <ele>648.1</ele>
        <time>2011-11-24T14:12:38Z</time>
      </trkpt>
      <trkpt lat="43.70267" lon="6.96654">
        <ele>648</ele>
        <time>2011-11-24T14:12:39Z</time>
      </trkpt>
      <trkpt lat="43.70269" lon="6.96661">
        <ele>648.4</ele>
        <time>2011-11-24T14:12:40Z</time>
      </trkpt>
      <trkpt lat="43.7027" lon="6.9667">
        <ele>648.2</ele>
        <time>2011-11-24T14:12:41Z</time>
      </trkpt>
      <trkpt lat="43.70272" lon="6.96678">
        <ele>647.1</ele>
        <time>2011-11-24T14:12:42Z</time>
      </trkpt>
      <trkpt lat="43.70275" lon="6.96687">
        <ele>646.4</ele>
        <time>2011-11-24T14:12:43Z</time>
      </trkpt>
      <trkpt lat="43.70277" lon="6.96695">
        <ele>645.8</ele>
        <time>2011-11-24T14:12:44Z</time>
      </trkpt>
      <trkpt lat="43.7028" lon="6.96702">
        <ele>646.2</ele>
        <time>2011-11-24T14:12:45Z</time>
      </trkpt>
      <trkpt lat="43.70282" lon="6.96708">
        <ele>646.4</ele>
        <time>2011-11-24T14:12:46Z</time>
      </trkpt>
      <trkpt lat="43.70283" lon="6.96722">
        <ele>648.9</ele>
        <time>2011-11-24T14:12:48Z</time>
      </trkpt>
      <trkpt lat="43.70283" lon="6.96729">
        <ele>649.7</ele>
        <time>2011-11-24T14:12:49Z</time>
      </trkpt>
      <trkpt lat="43.70282" lon="6.96737">
        <ele>649.4</ele>
        <time>2011-11-24T14:12:50Z</time>
      </trkpt>
      <trkpt lat="43.7028" lon="6.96745">
        <ele>649.9</ele>
        <time>2011-11-24T14:12:51Z</time>
      </trkpt>
      <trkpt lat="43.70275" lon="6.96751">
        <ele>648.8</ele>
        <time>2011-11-24T14:12:52Z</time>
      </trkpt>
      <trkpt lat="43.70272" lon="6.9676">
        <ele>648.5</ele>
        <time>2011-11-24T14:12:53Z</time>
      </trkpt>
      <trkpt lat="43.70269" lon="6.96767">
        <ele>648.6</ele>
        <time>2011-11-24T14:12:54Z</time>
      </trkpt>
      <trkpt lat="43.7027" lon="6.96778">
        <ele>648.4</ele>
        <time>2011-11-24T14:12:55Z</time>
      </trkpt>
      <trkpt lat="43.7027" lon="6.96787">
        <ele>647.9</ele>
        <time>2011-11-24T14:12:56Z</time>
      </trkpt>
      <trkpt lat="43.70271" lon="6.96796">
        <ele>647.2</ele>
        <time>2011-11-24T14:12:57Z</time>
      </trkpt>
      <trkpt lat="43.7027" lon="6.96806">
        <ele>647.4</ele>
        <time>2011-11-24T14:12:58Z</time>
      </trkpt>
      <trkpt lat="43.70267" lon="6.96815">
        <ele>646</ele>
        <time>2011-11-24T14:12:59Z</time>
      </trkpt>
      <trkpt lat="43.70264" lon="6.96825">
        <ele>645.7</ele>
        <time>2011-11-24T14:13:00Z</time>
      </trkpt>
      <trkpt lat="43.70263" lon="6.96836">
        <ele>645.1</ele>
        <time>2011-11-24T14:13:01Z</time>
      </trkpt>
      <trkpt lat="43.70262" lon="6.96847">
        <ele>645.1</ele>
        <time>2011-11-24T14:13:02Z</time>
      </trkpt>
      <trkpt lat="43.70264" lon="6.9686">
        <ele>644.1</ele>
        <time>2011-11-24T14:13:03Z</time>
      </trkpt>
      <trkpt lat="43.70266" lon="6.96872">
        <ele>643.6</ele>
        <time>2011-11-24T14:13:04Z</time>
      </trkpt>
      <trkpt lat="43.70267" lon="6.96882">
        <ele>643.2</ele>
        <time>2011-11-24T14:13:05Z</time>
      </trkpt>
      <trkpt lat="43.70269" lon="6.96894">
        <ele>643.4</ele>
        <time>2011-11-24T14:13:06Z</time>
      </trkpt>
      <trkpt lat="43.70269" lon="6.96905">
        <ele>642.9</ele>
        <time>2011-11-24T14:13:07Z</time>
      </trkpt>
      <trkpt lat="43.70267" lon="6.96915">
        <ele>641.5</ele>
        <time>2011-11-24T14:13:08Z</time>
      </trkpt>
      <trkpt lat="43.70267" lon="6.96927">
        <ele>640.7</ele>
        <time>2011-11-24T14:13:09Z</time>
      </trkpt>
      <trkpt lat="43.70268" lon="6.96941">
        <ele>640.2</ele>
        <time>2011-11-24T14:13:10Z</time>
      </trkpt>
      <trkpt lat="43.70268" lon="6.96954">
        <ele>640.2</ele>
        <time>2011-11-24T14:13:11Z</time>
      </trkpt>
      <trkpt lat="43.70268" lon="6.96965">
        <ele>639.2</ele>
        <time>2011-11-24T14:13:12Z</time>
      </trkpt>
      <trkpt lat="43.70268" lon="6.96977">
        <ele>638.4</ele>
        <time>2011-11-24T14:13:13Z</time>
      </trkpt>
      <trkpt lat="43.70268" lon="6.9699">
        <ele>637.6</ele>
        <time>2011-11-24T14:13:14Z</time>
      </trkpt>
      <trkpt lat="43.70267" lon="6.97001">
        <ele>637.4</ele>
        <time>2011-11-24T14:13:15Z</time>
      </trkpt>
      <trkpt lat="43.70267" lon="6.97012">
        <ele>636.4</ele>
        <time>2011-11-24T14:13:16Z</time>
      </trkpt>
      <trkpt lat="43.70267" lon="6.97024">
        <ele>635.8</ele>
        <time>2011-11-24T14:13:17Z</time>
      </trkpt>
      <trkpt lat="43.70266" lon="6.97036">
        <ele>635</ele>
        <time>2011-11-24T14:13:18Z</time>
      </trkpt>
      <trkpt lat="43.70266" lon="6.97047">
        <ele>634.3</ele>
        <time>2011-11-24T14:13:19Z</time>
      </trkpt>
      <trkpt lat="43.70268" lon="6.97058">
        <ele>634.3</ele>
        <time>2011-11-24T14:13:20Z</time>
      </trkpt>
      <trkpt lat="43.70269" lon="6.97068">
        <ele>634</ele>
        <time>2011-11-24T14:13:21Z</time>
      </trkpt>
      <trkpt lat="43.70271" lon="6.97079">
        <ele>633.6</ele>
        <time>2011-11-24T14:13:22Z</time>
      </trkpt>
      <trkpt lat="43.70272" lon="6.97094">
        <ele>633.4</ele>
        <time>2011-11-24T14:13:23Z</time>
      </trkpt>
      <trkpt lat="43.70272" lon="6.97109">
        <ele>632.9</ele>
        <time>2011-11-24T14:13:24Z</time>
      </trkpt>
      <trkpt lat="43.70272" lon="6.97127">
        <ele>629.6</ele>
        <time>2011-11-24T14:13:25Z</time>
      </trkpt>
      <trkpt lat="43.70273" lon="6.97141">
        <ele>628.7</ele>
        <time>2011-11-24T14:13:26Z</time>
      </trkpt>
      <trkpt lat="43.70273" lon="6.97157">
        <ele>628.3</ele>
        <time>2011-11-24T14:13:27Z</time>
      </trkpt>
      <trkpt lat="43.70273" lon="6.97172">
        <ele>627.7</ele>
        <time>2011-11-24T14:13:28Z</time>
      </trkpt>
      <trkpt lat="43.70271" lon="6.97184">
        <ele>627.1</ele>
        <time>2011-11-24T14:13:29Z</time>
      </trkpt>
      <trkpt lat="43.7027" lon="6.97198">
        <ele>626.4</ele>
        <time>2011-11-24T14:13:30Z</time>
      </trkpt>
      <trkpt lat="43.70269" lon="6.97213">
        <ele>625.9</ele>
        <time>2011-11-24T14:13:31Z</time>
      </trkpt>
      <trkpt lat="43.70268" lon="6.97227">
        <ele>624.9</ele>
        <time>2011-11-24T14:13:32Z</time>
      </trkpt>
      <trkpt lat="43.70268" lon="6.9724">
        <ele>624.5</ele>
        <time>2011-11-24T14:13:33Z</time>
      </trkpt>
      <trkpt lat="43.70268" lon="6.97249">
        <ele>624</ele>
        <time>2011-11-24T14:13:34Z</time>
      </trkpt>
      <trkpt lat="43.70268" lon="6.97256">
        <ele>623.9</ele>
        <time>2011-11-24T14:13:35Z</time>
      </trkpt>
      <trkpt lat="43.70266" lon="6.97265">
        <ele>623.1</ele>
        <time>2011-11-24T14:13:37Z</time>
      </trkpt>
      <trkpt lat="43.70267" lon="6.97259">
        <ele>623</ele>
        <time>2011-11-24T14:13:40Z</time>
      </trkpt>
      <trkpt lat="43.70267" lon="6.97252">
        <ele>621.5</ele>
        <time>2011-11-24T14:13:52Z</time>
      </trkpt>
      <trkpt lat="43.70265" lon="6.97246">
        <ele>623.1</ele>
        <time>2011-11-24T14:13:53Z</time>
      </trkpt>
      <trkpt lat="43.70264" lon="6.97231">
        <ele>621.7</ele>
        <time>2011-11-24T14:13:55Z</time>
      </trkpt>
      <trkpt lat="43.70264" lon="6.97225">
        <ele>621.3</ele>
        <time>2011-11-24T14:13:56Z</time>
      </trkpt>
      <trkpt lat="43.70264" lon="6.97217">
        <ele>619.8</ele>
        <time>2011-11-24T14:13:57Z</time>
      </trkpt>
      <trkpt lat="43.70264" lon="6.97207">
        <ele>618.7</ele>
        <time>2011-11-24T14:13:58Z</time>
      </trkpt>
      <trkpt lat="43.70261" lon="6.97198">
        <ele>617.3</ele>
        <time>2011-11-24T14:13:59Z</time>
      </trkpt>
      <trkpt lat="43.7026" lon="6.97189">
        <ele>616.5</ele>
        <time>2011-11-24T14:14:00Z</time>
      </trkpt>
      <trkpt lat="43.70257" lon="6.9718">
        <ele>615.4</ele>
        <time>2011-11-24T14:14:01Z</time>
      </trkpt>
      <trkpt lat="43.70255" lon="6.97171">
        <ele>615</ele>
        <time>2011-11-24T14:14:02Z</time>
      </trkpt>
      <trkpt lat="43.70256" lon="6.97161">
        <ele>614.2</ele>
        <time>2011-11-24T14:14:04Z</time>
      </trkpt>
      <trkpt lat="43.70252" lon="6.97166">
        <ele>614.9</ele>
        <time>2011-11-24T14:14:08Z</time>
      </trkpt>
      <trkpt lat="43.7025" lon="6.97174">
        <ele>614.1</ele>
        <time>2011-11-24T14:14:10Z</time>
      </trkpt>
      <trkpt lat="43.70249" lon="6.97185">
        <ele>613.3</ele>
        <time>2011-11-24T14:14:11Z</time>
      </trkpt>
      <trkpt lat="43.70247" lon="6.97196">
        <ele>612.3</ele>
        <time>2011-11-24T14:14:12Z</time>
      </trkpt>
      <trkpt lat="43.70243" lon="6.97207">
        <ele>611</ele>
        <time>2011-11-24T14:14:13Z</time>
      </trkpt>
      <trkpt lat="43.70243" lon="6.9722">
        <ele>606.8</ele>
        <time>2011-11-24T14:14:14Z</time>
      </trkpt>
      <trkpt lat="43.70241" lon="6.97232">
        <ele>605.7</ele>
        <time>2011-11-24T14:14:15Z</time>
      </trkpt>
      <trkpt lat="43.7024" lon="6.97246">
        <ele>605</ele>
        <time>2011-11-24T14:14:16Z</time>
      </trkpt>
      <trkpt lat="43.70238" lon="6.97258">
        <ele>603.4</ele>
        <time>2011-11-24T14:14:17Z</time>
      </trkpt>
      <trkpt lat="43.70236" lon="6.97269">
        <ele>603.2</ele>
        <time>2011-11-24T14:14:18Z</time>
      </trkpt>
      <trkpt lat="43.70233" lon="6.97277">
        <ele>602.4</ele>
        <time>2011-11-24T14:14:19Z</time>
      </trkpt>
      <trkpt lat="43.70235" lon="6.97287">
        <ele>599.1</ele>
        <time>2011-11-24T14:14:21Z</time>
      </trkpt>
      <trkpt lat="43.70234" lon="6.97295">
        <ele>599.2</ele>
        <time>2011-11-24T14:14:23Z</time>
      </trkpt>
      <trkpt lat="43.70232" lon="6.97289">
        <ele>598.3</ele>
        <time>2011-11-24T14:14:25Z</time>
      </trkpt>
      <trkpt lat="43.70231" lon="6.9728">
        <ele>597.4</ele>
        <time>2011-11-24T14:14:27Z</time>
      </trkpt>
      <trkpt lat="43.70232" lon="6.97273">
        <ele>597.3</ele>
        <time>2011-11-24T14:14:28Z</time>
      </trkpt>
      <trkpt lat="43.7023" lon="6.97265">
        <ele>596.8</ele>
        <time>2011-11-24T14:14:29Z</time>
      </trkpt>
      <trkpt lat="43.7023" lon="6.97256">
        <ele>596.5</ele>
        <time>2011-11-24T14:14:30Z</time>
      </trkpt>
      <trkpt lat="43.70231" lon="6.97244">
        <ele>593.8</ele>
        <time>2011-11-24T14:14:31Z</time>
      </trkpt>
      <trkpt lat="43.7023" lon="6.97234">
        <ele>593</ele>
        <time>2011-11-24T14:14:32Z</time>
      </trkpt>
      <trkpt lat="43.70231" lon="6.97226">
        <ele>591.3</ele>
        <time>2011-11-24T14:14:33Z</time>
      </trkpt>
      <trkpt lat="43.70231" lon="6.9722">
        <ele>590.7</ele>
        <time>2011-11-24T14:14:34Z</time>
      </trkpt>
      <trkpt lat="43.7023" lon="6.97211">
        <ele>590.2</ele>
        <time>2011-11-24T14:14:35Z</time>
      </trkpt>
      <trkpt lat="43.70227" lon="6.97202">
        <ele>586.5</ele>
        <time>2011-11-24T14:14:36Z</time>
      </trkpt>
      <trkpt lat="43.70225" lon="6.97194">
        <ele>585.2</ele>
        <time>2011-11-24T14:14:37Z</time>
      </trkpt>
      <trkpt lat="43.70224" lon="6.97186">
        <ele>582.6</ele>
        <time>2011-11-24T14:14:38Z</time>
      </trkpt>
      <trkpt lat="43.70222" lon="6.97179">
        <ele>582.2</ele>
        <time>2011-11-24T14:14:39Z</time>
      </trkpt>
      <trkpt lat="43.70221" lon="6.97172">
        <ele>581.9</ele>
        <time>2011-11-24T14:14:40Z</time>
      </trkpt>
      <trkpt lat="43.70217" lon="6.97165">
        <ele>581.1</ele>
        <time>2011-11-24T14:14:42Z</time>
      </trkpt>
      <trkpt lat="43.70219" lon="6.97158">
        <ele>578</ele>
        <time>2011-11-24T14:14:45Z</time>
      </trkpt>
      <trkpt lat="43.70216" lon="6.9715">
        <ele>578.1</ele>
        <time>2011-11-24T14:14:47Z</time>
      </trkpt>
      <trkpt lat="43.70212" lon="6.9714">
        <ele>575.7</ele>
        <time>2011-11-24T14:14:49Z</time>
      </trkpt>
      <trkpt lat="43.70209" lon="6.9713">
        <ele>574.2</ele>
        <time>2011-11-24T14:14:51Z</time>
      </trkpt>
      <trkpt lat="43.70207" lon="6.97124">
        <ele>574</ele>
        <time>2011-11-24T14:14:52Z</time>
      </trkpt>
      <trkpt lat="43.70204" lon="6.97117">
        <ele>573.9</ele>
        <time>2011-11-24T14:14:53Z</time>
      </trkpt>
      <trkpt lat="43.70199" lon="6.97107">
        <ele>573.7</ele>
        <time>2011-11-24T14:14:55Z</time>
      </trkpt>
      <trkpt lat="43.70193" lon="6.97097">
        <ele>572.1</ele>
        <time>2011-11-24T14:14:57Z</time>
      </trkpt>
      <trkpt lat="43.7019" lon="6.9709">
        <ele>571.3</ele>
        <time>2011-11-24T14:14:59Z</time>
      </trkpt>
      <trkpt lat="43.70185" lon="6.97088">
        <ele>573.4</ele>
        <time>2011-11-24T14:15:04Z</time>
      </trkpt>
      <trkpt lat="43.70183" lon="6.9708">
        <ele>569.2</ele>
        <time>2011-11-24T14:15:06Z</time>
      </trkpt>
      <trkpt lat="43.70178" lon="6.97074">
        <ele>570.5</ele>
        <time>2011-11-24T14:15:08Z</time>
      </trkpt>
      <trkpt lat="43.70175" lon="6.97069">
        <ele>570.9</ele>
        <time>2011-11-24T14:15:10Z</time>
      </trkpt>
      <trkpt lat="43.7017" lon="6.97064">
        <ele>570.3</ele>
        <time>2011-11-24T14:15:12Z</time>
      </trkpt>
      <trkpt lat="43.7017" lon="6.97071">
        <ele>567.4</ele>
        <time>2011-11-24T14:15:14Z</time>
      </trkpt>
      <trkpt lat="43.70166" lon="6.97067">
        <ele>564.6</ele>
        <time>2011-11-24T14:15:17Z</time>
      </trkpt>
      <trkpt lat="43.70167" lon="6.97055">
        <ele>561.1</ele>
        <time>2011-11-24T14:15:28Z</time>
      </trkpt>
      <trkpt lat="43.70168" lon="6.97048">
        <ele>559.7</ele>
        <time>2011-11-24T14:15:30Z</time>
      </trkpt>
      <trkpt lat="43.70164" lon="6.9703">
        <ele>554.4</ele>
        <time>2011-11-24T14:15:32Z</time>
      </trkpt>
      <trkpt lat="43.70161" lon="6.97021">
        <ele>555.5</ele>
        <time>2011-11-24T14:15:34Z</time>
      </trkpt>
      <trkpt lat="43.7016" lon="6.97014">
        <ele>555.7</ele>
        <time>2011-11-24T14:15:36Z</time>
      </trkpt>
      <trkpt lat="43.70162" lon="6.97007">
        <ele>551.3</ele>
        <time>2011-11-24T14:15:37Z</time>
      </trkpt>
      <trkpt lat="43.70164" lon="6.96999">
        <ele>550.9</ele>
        <time>2011-11-24T14:15:39Z</time>
      </trkpt>
      <trkpt lat="43.70166" lon="6.96993">
        <ele>552</ele>
        <time>2011-11-24T14:15:41Z</time>
      </trkpt>
      <trkpt lat="43.70168" lon="6.96986">
        <ele>552.4</ele>
        <time>2011-11-24T14:15:43Z</time>
      </trkpt>
      <trkpt lat="43.70165" lon="6.96979">
        <ele>552.7</ele>
        <time>2011-11-24T14:15:44Z</time>
      </trkpt>
      <trkpt lat="43.70165" lon="6.96973">
        <ele>552.2</ele>
        <time>2011-11-24T14:15:45Z</time>
      </trkpt>
      <trkpt lat="43.70164" lon="6.96963">
        <ele>551.5</ele>
        <time>2011-11-24T14:15:47Z</time>
      </trkpt>
      <trkpt lat="43.70165" lon="6.96951">
        <ele>551.3</ele>
        <time>2011-11-24T14:15:49Z</time>
      </trkpt>
      <trkpt lat="43.70166" lon="6.96941">
        <ele>554</ele>
        <time>2011-11-24T14:15:51Z</time>
      </trkpt>
      <trkpt lat="43.70167" lon="6.9693">
        <ele>554.3</ele>
        <time>2011-11-24T14:15:53Z</time>
      </trkpt>
      <trkpt lat="43.70164" lon="6.96921">
        <ele>555.2</ele>
        <time>2011-11-24T14:15:54Z</time>
      </trkpt>
      <trkpt lat="43.70164" lon="6.96909">
        <ele>554</ele>
        <time>2011-11-24T14:15:56Z</time>
      </trkpt>
      <trkpt lat="43.70164" lon="6.96902">
        <ele>554.1</ele>
        <time>2011-11-24T14:15:57Z</time>
      </trkpt>
      <trkpt lat="43.70165" lon="6.96894">
        <ele>554.5</ele>
        <time>2011-11-24T14:15:58Z</time>
      </trkpt>
      <trkpt lat="43.70166" lon="6.96887">
        <ele>554.4</ele>
        <time>2011-11-24T14:15:59Z</time>
      </trkpt>
      <trkpt lat="43.70166" lon="6.9688">
        <ele>554.3</ele>
        <time>2011-11-24T14:16:00Z</time>
      </trkpt>
      <trkpt lat="43.70167" lon="6.96873">
        <ele>554.2</ele>
        <time>2011-11-24T14:16:01Z</time>
      </trkpt>
      <trkpt lat="43.70168" lon="6.96861">
        <ele>553.8</ele>
        <time>2011-11-24T14:16:03Z</time>
      </trkpt>
      <trkpt lat="43.70168" lon="6.96851">
        <ele>556</ele>
        <time>2011-11-24T14:16:05Z</time>
      </trkpt>
      <trkpt lat="43.70169" lon="6.96843">
        <ele>555.5</ele>
        <time>2011-11-24T14:16:06Z</time>
      </trkpt>
      <trkpt lat="43.7017" lon="6.96837">
        <ele>555.4</ele>
        <time>2011-11-24T14:16:07Z</time>
      </trkpt>
      <trkpt lat="43.70172" lon="6.96825">
        <ele>554.7</ele>
        <time>2011-11-24T14:16:09Z</time>
      </trkpt>
      <trkpt lat="43.70173" lon="6.96819">
        <ele>554.7</ele>
        <time>2011-11-24T14:16:10Z</time>
      </trkpt>
      <trkpt lat="43.70175" lon="6.96807">
        <ele>554.5</ele>
        <time>2011-11-24T14:16:12Z</time>
      </trkpt>
      <trkpt lat="43.70173" lon="6.968">
        <ele>557.4</ele>
        <time>2011-11-24T14:16:13Z</time>
      </trkpt>
      <trkpt lat="43.70173" lon="6.96793">
        <ele>557.6</ele>
        <time>2011-11-24T14:16:14Z</time>
      </trkpt>
      <trkpt lat="43.70174" lon="6.96785">
        <ele>556.9</ele>
        <time>2011-11-24T14:16:15Z</time>
      </trkpt>
      <trkpt lat="43.70175" lon="6.96778">
        <ele>557.2</ele>
        <time>2011-11-24T14:16:16Z</time>
      </trkpt>
      <trkpt lat="43.70176" lon="6.96771">
        <ele>557.1</ele>
        <time>2011-11-24T14:16:17Z</time>
      </trkpt>
      <trkpt lat="43.70176" lon="6.96764">
        <ele>556.3</ele>
        <time>2011-11-24T14:16:18Z</time>
      </trkpt>
      <trkpt lat="43.70175" lon="6.96758">
        <ele>555.9</ele>
        <time>2011-11-24T14:16:19Z</time>
      </trkpt>
      <trkpt lat="43.70175" lon="6.96751">
        <ele>556</ele>
        <time>2011-11-24T14:16:20Z</time>
      </trkpt>
      <trkpt lat="43.70174" lon="6.96742">
        <ele>555.4</ele>
        <time>2011-11-24T14:16:22Z</time>
      </trkpt>
      <trkpt lat="43.70169" lon="6.96738">
        <ele>554</ele>
        <time>2011-11-24T14:16:25Z</time>
      </trkpt>
      <trkpt lat="43.70166" lon="6.96733">
        <ele>551.2</ele>
        <time>2011-11-24T14:16:27Z</time>
      </trkpt>
      <trkpt lat="43.70161" lon="6.96729">
        <ele>546.9</ele>
        <time>2011-11-24T14:16:32Z</time>
      </trkpt>
      <trkpt lat="43.70156" lon="6.9673">
        <ele>546.9</ele>
        <time>2011-11-24T14:16:35Z</time>
      </trkpt>
      <trkpt lat="43.7015" lon="6.96734">
        <ele>547.3</ele>
        <time>2011-11-24T14:16:37Z</time>
      </trkpt>
      <trkpt lat="43.70147" lon="6.96742">
        <ele>547.4</ele>
        <time>2011-11-24T14:16:39Z</time>
      </trkpt>
      <trkpt lat="43.70145" lon="6.96749">
        <ele>547.8</ele>
        <time>2011-11-24T14:16:41Z</time>
      </trkpt>
      <trkpt lat="43.7014" lon="6.96758">
        <ele>548</ele>
        <time>2011-11-24T14:16:43Z</time>
      </trkpt>
      <trkpt lat="43.70138" lon="6.96764">
        <ele>548.1</ele>
        <time>2011-11-24T14:16:44Z</time>
      </trkpt>
      <trkpt lat="43.70137" lon="6.96771">
        <ele>548.3</ele>
        <time>2011-11-24T14:16:45Z</time>
      </trkpt>
      <trkpt lat="43.70134" lon="6.96778">
        <ele>548.1</ele>
        <time>2011-11-24T14:16:46Z</time>
      </trkpt>
      <trkpt lat="43.70131" lon="6.96785">
        <ele>546.3</ele>
        <time>2011-11-24T14:16:47Z</time>
      </trkpt>
      <trkpt lat="43.70125" lon="6.9679">
        <ele>545.8</ele>
        <time>2011-11-24T14:16:48Z</time>
      </trkpt>
      <trkpt lat="43.70118" lon="6.9679">
        <ele>546.2</ele>
        <time>2011-11-24T14:16:51Z</time>
      </trkpt>
      <trkpt lat="43.70113" lon="6.96795">
        <ele>546.2</ele>
        <time>2011-11-24T14:16:54Z</time>
      </trkpt>
      <trkpt lat="43.70106" lon="6.96799">
        <ele>546.3</ele>
        <time>2011-11-24T14:16:57Z</time>
      </trkpt>
      <trkpt lat="43.70101" lon="6.96803">
        <ele>546.1</ele>
        <time>2011-11-24T14:16:59Z</time>
      </trkpt>
      <trkpt lat="43.70097" lon="6.96808">
        <ele>546.3</ele>
        <time>2011-11-24T14:17:01Z</time>
      </trkpt>
      <trkpt lat="43.7009" lon="6.96814">
        <ele>547.1</ele>
        <time>2011-11-24T14:17:03Z</time>
      </trkpt>
      <trkpt lat="43.70088" lon="6.9682">
        <ele>546.5</ele>
        <time>2011-11-24T14:17:05Z</time>
      </trkpt>
      <trkpt lat="43.70087" lon="6.96828">
        <ele>547.1</ele>
        <time>2011-11-24T14:17:08Z</time>
      </trkpt>
      <trkpt lat="43.70089" lon="6.96834">
        <ele>547.6</ele>
        <time>2011-11-24T14:17:10Z</time>
      </trkpt>
      <trkpt lat="43.70052" lon="6.96864">
        <ele>549.1</ele>
        <time>2011-11-24T14:17:23Z</time>
      </trkpt>
      <trkpt lat="43.70046" lon="6.96863">
        <ele>549.4</ele>
        <time>2011-11-24T14:17:24Z</time>
      </trkpt>
      <trkpt lat="43.70039" lon="6.96862">
        <ele>545.5</ele>
        <time>2011-11-24T14:17:26Z</time>
      </trkpt>
      <trkpt lat="43.70034" lon="6.96863">
        <ele>544.3</ele>
        <time>2011-11-24T14:17:28Z</time>
      </trkpt>
      <trkpt lat="43.7003" lon="6.96865">
        <ele>544.7</ele>
        <time>2011-11-24T14:17:29Z</time>
      </trkpt>
      <trkpt lat="43.70024" lon="6.9687">
        <ele>544.3</ele>
        <time>2011-11-24T14:17:31Z</time>
      </trkpt>
      <trkpt lat="43.70018" lon="6.96874">
        <ele>543.3</ele>
        <time>2011-11-24T14:17:33Z</time>
      </trkpt>
      <trkpt lat="43.7001" lon="6.96879">
        <ele>542.9</ele>
        <time>2011-11-24T14:17:35Z</time>
      </trkpt>
      <trkpt lat="43.70002" lon="6.96881">
        <ele>544.7</ele>
        <time>2011-11-24T14:17:37Z</time>
      </trkpt>
      <trkpt lat="43.69995" lon="6.96885">
        <ele>545</ele>
        <time>2011-11-24T14:17:39Z</time>
      </trkpt>
      <trkpt lat="43.69991" lon="6.96888">
        <ele>546.4</ele>
        <time>2011-11-24T14:17:40Z</time>
      </trkpt>
      <trkpt lat="43.69983" lon="6.96887">
        <ele>545.6</ele>
        <time>2011-11-24T14:17:42Z</time>
      </trkpt>
      <trkpt lat="43.69974" lon="6.96889">
        <ele>545.8</ele>
        <time>2011-11-24T14:17:44Z</time>
      </trkpt>
      <trkpt lat="43.69965" lon="6.96893">
        <ele>547.8</ele>
        <time>2011-11-24T14:17:46Z</time>
      </trkpt>
      <trkpt lat="43.69958" lon="6.96895">
        <ele>547.4</ele>
        <time>2011-11-24T14:17:48Z</time>
      </trkpt>
      <trkpt lat="43.69949" lon="6.96899">
        <ele>547.9</ele>
        <time>2011-11-24T14:17:50Z</time>
      </trkpt>
      <trkpt lat="43.69943" lon="6.96902">
        <ele>548.2</ele>
        <time>2011-11-24T14:17:51Z</time>
      </trkpt>
      <trkpt lat="43.69938" lon="6.96904">
        <ele>548.4</ele>
        <time>2011-11-24T14:17:52Z</time>
      </trkpt>
      <trkpt lat="43.69933" lon="6.96906">
        <ele>549.5</ele>
        <time>2011-11-24T14:17:53Z</time>
      </trkpt>
      <trkpt lat="43.69926" lon="6.96905">
        <ele>550.1</ele>
        <time>2011-11-24T14:17:55Z</time>
      </trkpt>
      <trkpt lat="43.69921" lon="6.96905">
        <ele>550.6</ele>
        <time>2011-11-24T14:17:56Z</time>
      </trkpt>
      <trkpt lat="43.69916" lon="6.96905">
        <ele>551.2</ele>
        <time>2011-11-24T14:17:57Z</time>
      </trkpt>
      <trkpt lat="43.69911" lon="6.96905">
        <ele>550.4</ele>
        <time>2011-11-24T14:17:58Z</time>
      </trkpt>
      <trkpt lat="43.69903" lon="6.96901">
        <ele>552.9</ele>
        <time>2011-11-24T14:18:00Z</time>
      </trkpt>
      <trkpt lat="43.69896" lon="6.96899">
        <ele>554.4</ele>
        <time>2011-11-24T14:18:02Z</time>
      </trkpt>
      <trkpt lat="43.69892" lon="6.96896">
        <ele>553.2</ele>
        <time>2011-11-24T14:18:03Z</time>
      </trkpt>
      <trkpt lat="43.69883" lon="6.96892">
        <ele>554</ele>
        <time>2011-11-24T14:18:05Z</time>
      </trkpt>
      <trkpt lat="43.69875" lon="6.96891">
        <ele>554</ele>
        <time>2011-11-24T14:18:07Z</time>
      </trkpt>
      <trkpt lat="43.6987" lon="6.96892">
        <ele>553.2</ele>
        <time>2011-11-24T14:18:08Z</time>
      </trkpt>
      <trkpt lat="43.69865" lon="6.96892">
        <ele>553.5</ele>
        <time>2011-11-24T14:18:09Z</time>
      </trkpt>
      <trkpt lat="43.69859" lon="6.96892">
        <ele>552.4</ele>
        <time>2011-11-24T14:18:10Z</time>
      </trkpt>
      <trkpt lat="43.69854" lon="6.96892">
        <ele>552.5</ele>
        <time>2011-11-24T14:18:11Z</time>
      </trkpt>
      <trkpt lat="43.69847" lon="6.96891">
        <ele>552.3</ele>
        <time>2011-11-24T14:18:13Z</time>
      </trkpt>
      <trkpt lat="43.69842" lon="6.9689">
        <ele>552.5</ele>
        <time>2011-11-24T14:18:14Z</time>
      </trkpt>
      <trkpt lat="43.69836" lon="6.96888">
        <ele>552.6</ele>
        <time>2011-11-24T14:18:15Z</time>
      </trkpt>
      <trkpt lat="43.69825" lon="6.9689">
        <ele>553.3</ele>
        <time>2011-11-24T14:18:17Z</time>
      </trkpt>
      <trkpt lat="43.69817" lon="6.96889">
        <ele>553.7</ele>
        <time>2011-11-24T14:18:19Z</time>
      </trkpt>
      <trkpt lat="43.69812" lon="6.96888">
        <ele>555.9</ele>
        <time>2011-11-24T14:18:20Z</time>
      </trkpt>
      <trkpt lat="43.69807" lon="6.96888">
        <ele>555.9</ele>
        <time>2011-11-24T14:18:21Z</time>
      </trkpt>
      <trkpt lat="43.69801" lon="6.96887">
        <ele>555.3</ele>
        <time>2011-11-24T14:18:22Z</time>
      </trkpt>
      <trkpt lat="43.69797" lon="6.96885">
        <ele>555.7</ele>
        <time>2011-11-24T14:18:23Z</time>
      </trkpt>
      <trkpt lat="43.69789" lon="6.96884">
        <ele>555.6</ele>
        <time>2011-11-24T14:18:25Z</time>
      </trkpt>
      <trkpt lat="43.69782" lon="6.96884">
        <ele>554.8</ele>
        <time>2011-11-24T14:18:26Z</time>
      </trkpt>
      <trkpt lat="43.69775" lon="6.96887">
        <ele>553.8</ele>
        <time>2011-11-24T14:18:28Z</time>
      </trkpt>
      <trkpt lat="43.69769" lon="6.9689">
        <ele>552.8</ele>
        <time>2011-11-24T14:18:29Z</time>
      </trkpt>
      <trkpt lat="43.69765" lon="6.96892">
        <ele>552.8</ele>
        <time>2011-11-24T14:18:30Z</time>
      </trkpt>
      <trkpt lat="43.6976" lon="6.96894">
        <ele>552.7</ele>
        <time>2011-11-24T14:18:31Z</time>
      </trkpt>
      <trkpt lat="43.69752" lon="6.96898">
        <ele>552.7</ele>
        <time>2011-11-24T14:18:33Z</time>
      </trkpt>
      <trkpt lat="43.69748" lon="6.96901">
        <ele>553.4</ele>
        <time>2011-11-24T14:18:34Z</time>
      </trkpt>
      <trkpt lat="43.69743" lon="6.96906">
        <ele>552.7</ele>
        <time>2011-11-24T14:18:35Z</time>
      </trkpt>
      <trkpt lat="43.69738" lon="6.9691">
        <ele>552.5</ele>
        <time>2011-11-24T14:18:36Z</time>
      </trkpt>
      <trkpt lat="43.69732" lon="6.96913">
        <ele>552.7</ele>
        <time>2011-11-24T14:18:37Z</time>
      </trkpt>
      <trkpt lat="43.69728" lon="6.96913">
        <ele>552.8</ele>
        <time>2011-11-24T14:18:38Z</time>
      </trkpt>
      <trkpt lat="43.69717" lon="6.96911">
        <ele>553.9</ele>
        <time>2011-11-24T14:18:40Z</time>
      </trkpt>
      <trkpt lat="43.69712" lon="6.96911">
        <ele>554.5</ele>
        <time>2011-11-24T14:18:41Z</time>
      </trkpt>
      <trkpt lat="43.69703" lon="6.96913">
        <ele>554.2</ele>
        <time>2011-11-24T14:18:43Z</time>
      </trkpt>
      <trkpt lat="43.69697" lon="6.96914">
        <ele>554.6</ele>
        <time>2011-11-24T14:18:44Z</time>
      </trkpt>
      <trkpt lat="43.69691" lon="6.96916">
        <ele>554.6</ele>
        <time>2011-11-24T14:18:45Z</time>
      </trkpt>
      <trkpt lat="43.69686" lon="6.96918">
        <ele>554.6</ele>
        <time>2011-11-24T14:18:46Z</time>
      </trkpt>
      <trkpt lat="43.6968" lon="6.96919">
        <ele>554.7</ele>
        <time>2011-11-24T14:18:47Z</time>
      </trkpt>
      <trkpt lat="43.69674" lon="6.9692">
        <ele>554.5</ele>
        <time>2011-11-24T14:18:48Z</time>
      </trkpt>
      <trkpt lat="43.69668" lon="6.96924">
        <ele>554.1</ele>
        <time>2011-11-24T14:18:50Z</time>
      </trkpt>
      <trkpt lat="43.69666" lon="6.96931">
        <ele>553.5</ele>
        <time>2011-11-24T14:18:52Z</time>
      </trkpt>
      <trkpt lat="43.6966" lon="6.96942">
        <ele>553.2</ele>
        <time>2011-11-24T14:18:54Z</time>
      </trkpt>
      <trkpt lat="43.69654" lon="6.96946">
        <ele>553.2</ele>
        <time>2011-11-24T14:18:55Z</time>
      </trkpt>
      <trkpt lat="43.69649" lon="6.9695">
        <ele>552.5</ele>
        <time>2011-11-24T14:18:56Z</time>
      </trkpt>
      <trkpt lat="43.69644" lon="6.96957">
        <ele>552.1</ele>
        <time>2011-11-24T14:18:58Z</time>
      </trkpt>
      <trkpt lat="43.69637" lon="6.96962">
        <ele>551.7</ele>
        <time>2011-11-24T14:19:00Z</time>
      </trkpt>
      <trkpt lat="43.69632" lon="6.96965">
        <ele>551.9</ele>
        <time>2011-11-24T14:19:02Z</time>
      </trkpt>
      <trkpt lat="43.69623" lon="6.96976">
        <ele>552</ele>
        <time>2011-11-24T14:19:04Z</time>
      </trkpt>
      <trkpt lat="43.69617" lon="6.96983">
        <ele>551.5</ele>
        <time>2011-11-24T14:19:05Z</time>
      </trkpt>
      <trkpt lat="43.69614" lon="6.9699">
        <ele>551</ele>
        <time>2011-11-24T14:19:07Z</time>
      </trkpt>
      <trkpt lat="43.6961" lon="6.96995">
        <ele>550.7</ele>
        <time>2011-11-24T14:19:08Z</time>
      </trkpt>
      <trkpt lat="43.69603" lon="6.97003">
        <ele>551.1</ele>
        <time>2011-11-24T14:19:10Z</time>
      </trkpt>
      <trkpt lat="43.69598" lon="6.97006">
        <ele>545.3</ele>
        <time>2011-11-24T14:19:11Z</time>
      </trkpt>
      <trkpt lat="43.69594" lon="6.97017">
        <ele>545.9</ele>
        <time>2011-11-24T14:19:13Z</time>
      </trkpt>
      <trkpt lat="43.6959" lon="6.97028">
        <ele>546.5</ele>
        <time>2011-11-24T14:19:15Z</time>
      </trkpt>
      <trkpt lat="43.69585" lon="6.97038">
        <ele>547.1</ele>
        <time>2011-11-24T14:19:17Z</time>
      </trkpt>
      <trkpt lat="43.69584" lon="6.97044">
        <ele>547.1</ele>
        <time>2011-11-24T14:19:18Z</time>
      </trkpt>
      <trkpt lat="43.69582" lon="6.97051">
        <ele>547.6</ele>
        <time>2011-11-24T14:19:19Z</time>
      </trkpt>
      <trkpt lat="43.6958" lon="6.97061">
        <ele>548.2</ele>
        <time>2011-11-24T14:19:21Z</time>
      </trkpt>
      <trkpt lat="43.69576" lon="6.97065">
        <ele>545.7</ele>
        <time>2011-11-24T14:19:22Z</time>
      </trkpt>
      <trkpt lat="43.69575" lon="6.97072">
        <ele>543.8</ele>
        <time>2011-11-24T14:19:23Z</time>
      </trkpt>
      <trkpt lat="43.6957" lon="6.9708">
        <ele>543.6</ele>
        <time>2011-11-24T14:19:25Z</time>
      </trkpt>
      <trkpt lat="43.69564" lon="6.97087">
        <ele>543.2</ele>
        <time>2011-11-24T14:19:27Z</time>
      </trkpt>
      <trkpt lat="43.69557" lon="6.97094">
        <ele>543.2</ele>
        <time>2011-11-24T14:19:29Z</time>
      </trkpt>
      <trkpt lat="43.69552" lon="6.97101">
        <ele>542.9</ele>
        <time>2011-11-24T14:19:31Z</time>
      </trkpt>
      <trkpt lat="43.69546" lon="6.97108">
        <ele>541.8</ele>
        <time>2011-11-24T14:19:33Z</time>
      </trkpt>
      <trkpt lat="43.69542" lon="6.97115">
        <ele>541.2</ele>
        <time>2011-11-24T14:19:35Z</time>
      </trkpt>
      <trkpt lat="43.69536" lon="6.9712">
        <ele>541.1</ele>
        <time>2011-11-24T14:19:37Z</time>
      </trkpt>
      <trkpt lat="43.69533" lon="6.97125">
        <ele>541.3</ele>
        <time>2011-11-24T14:19:39Z</time>
      </trkpt>
      <trkpt lat="43.69524" lon="6.97134">
        <ele>540</ele>
        <time>2011-11-24T14:19:41Z</time>
      </trkpt>
      <trkpt lat="43.69519" lon="6.97139">
        <ele>540.5</ele>
        <time>2011-11-24T14:19:42Z</time>
      </trkpt>
      <trkpt lat="43.69513" lon="6.97143">
        <ele>540.1</ele>
        <time>2011-11-24T14:19:43Z</time>
      </trkpt>
      <trkpt lat="43.69507" lon="6.97146">
        <ele>539.2</ele>
        <time>2011-11-24T14:19:44Z</time>
      </trkpt>
      <trkpt lat="43.69501" lon="6.9715">
        <ele>538.3</ele>
        <time>2011-11-24T14:19:45Z</time>
      </trkpt>
      <trkpt lat="43.69494" lon="6.97152">
        <ele>538.3</ele>
        <time>2011-11-24T14:19:46Z</time>
      </trkpt>
      <trkpt lat="43.69488" lon="6.97156">
        <ele>537.8</ele>
        <time>2011-11-24T14:19:47Z</time>
      </trkpt>
      <trkpt lat="43.69479" lon="6.97157">
        <ele>537.8</ele>
        <time>2011-11-24T14:19:49Z</time>
      </trkpt>
      <trkpt lat="43.69474" lon="6.97158">
        <ele>536.6</ele>
        <time>2011-11-24T14:19:50Z</time>
      </trkpt>
      <trkpt lat="43.69479" lon="6.97157">
        <ele>537.3</ele>
        <time>2011-11-24T14:19:51Z</time>
      </trkpt>
      <trkpt lat="43.69473" lon="6.97157">
        <ele>539.9</ele>
        <time>2011-11-24T14:20:06Z</time>
      </trkpt>
      <trkpt lat="43.69468" lon="6.97162">
        <ele>540.9</ele>
        <time>2011-11-24T14:20:08Z</time>
      </trkpt>
      <trkpt lat="43.69464" lon="6.97168">
        <ele>540.2</ele>
        <time>2011-11-24T14:20:11Z</time>
      </trkpt>
      <trkpt lat="43.69462" lon="6.97175">
        <ele>540.6</ele>
        <time>2011-11-24T14:20:13Z</time>
      </trkpt>
      <trkpt lat="43.69459" lon="6.97183">
        <ele>543.7</ele>
        <time>2011-11-24T14:20:15Z</time>
      </trkpt>
      <trkpt lat="43.69458" lon="6.97193">
        <ele>542.4</ele>
        <time>2011-11-24T14:20:18Z</time>
      </trkpt>
      <trkpt lat="43.69455" lon="6.972">
        <ele>542.5</ele>
        <time>2011-11-24T14:20:20Z</time>
      </trkpt>
      <trkpt lat="43.69454" lon="6.97207">
        <ele>542.1</ele>
        <time>2011-11-24T14:20:22Z</time>
      </trkpt>
      <trkpt lat="43.69452" lon="6.97213">
        <ele>542.5</ele>
        <time>2011-11-24T14:20:23Z</time>
      </trkpt>
      <trkpt lat="43.69446" lon="6.97218">
        <ele>542</ele>
        <time>2011-11-24T14:20:25Z</time>
      </trkpt>
      <trkpt lat="43.69441" lon="6.97224">
        <ele>544.2</ele>
        <time>2011-11-24T14:20:27Z</time>
      </trkpt>
      <trkpt lat="43.69434" lon="6.97229">
        <ele>545.6</ele>
        <time>2011-11-24T14:20:29Z</time>
      </trkpt>
      <trkpt lat="43.69427" lon="6.97231">
        <ele>545</ele>
        <time>2011-11-24T14:20:31Z</time>
      </trkpt>
      <trkpt lat="43.6942" lon="6.97233">
        <ele>545</ele>
        <time>2011-11-24T14:20:33Z</time>
      </trkpt>
      <trkpt lat="43.69415" lon="6.97229">
        <ele>546.9</ele>
        <time>2011-11-24T14:20:35Z</time>
      </trkpt>
      <trkpt lat="43.69409" lon="6.97227">
        <ele>548.2</ele>
        <time>2011-11-24T14:20:37Z</time>
      </trkpt>
      <trkpt lat="43.69402" lon="6.97226">
        <ele>550.4</ele>
        <time>2011-11-24T14:20:39Z</time>
      </trkpt>
      <trkpt lat="43.69396" lon="6.97225">
        <ele>553</ele>
        <time>2011-11-24T14:20:41Z</time>
      </trkpt>
      <trkpt lat="43.69389" lon="6.97223">
        <ele>555.4</ele>
        <time>2011-11-24T14:20:43Z</time>
      </trkpt>
      <trkpt lat="43.6938" lon="6.97226">
        <ele>551.4</ele>
        <time>2011-11-24T14:20:45Z</time>
      </trkpt>
      <trkpt lat="43.69376" lon="6.97228">
        <ele>550.5</ele>
        <time>2011-11-24T14:20:46Z</time>
      </trkpt>
      <trkpt lat="43.69368" lon="6.97233">
        <ele>552.8</ele>
        <time>2011-11-24T14:20:48Z</time>
      </trkpt>
      <trkpt lat="43.6936" lon="6.97238">
        <ele>553.7</ele>
        <time>2011-11-24T14:20:50Z</time>
      </trkpt>
      <trkpt lat="43.6935" lon="6.97239">
        <ele>553.9</ele>
        <time>2011-11-24T14:20:52Z</time>
      </trkpt>
      <trkpt lat="43.69345" lon="6.9724">
        <ele>554.1</ele>
        <time>2011-11-24T14:20:53Z</time>
      </trkpt>
      <trkpt lat="43.69341" lon="6.97241">
        <ele>554</ele>
        <time>2011-11-24T14:20:54Z</time>
      </trkpt>
      <trkpt lat="43.69332" lon="6.97243">
        <ele>553.8</ele>
        <time>2011-11-24T14:20:56Z</time>
      </trkpt>
      <trkpt lat="43.69326" lon="6.97246">
        <ele>553.7</ele>
        <time>2011-11-24T14:20:58Z</time>
      </trkpt>
      <trkpt lat="43.69318" lon="6.97251">
        <ele>553.9</ele>
        <time>2011-11-24T14:21:00Z</time>
      </trkpt>
      <trkpt lat="43.69313" lon="6.97259">
        <ele>555.8</ele>
        <time>2011-11-24T14:21:01Z</time>
      </trkpt>
      <trkpt lat="43.69306" lon="6.97265">
        <ele>556.3</ele>
        <time>2011-11-24T14:21:03Z</time>
      </trkpt>
      <trkpt lat="43.69302" lon="6.97268">
        <ele>556.4</ele>
        <time>2011-11-24T14:21:04Z</time>
      </trkpt>
      <trkpt lat="43.69298" lon="6.97272">
        <ele>556.5</ele>
        <time>2011-11-24T14:21:05Z</time>
      </trkpt>
      <trkpt lat="43.69294" lon="6.97275">
        <ele>556.9</ele>
        <time>2011-11-24T14:21:06Z</time>
      </trkpt>
      <trkpt lat="43.69286" lon="6.97282">
        <ele>556.9</ele>
        <time>2011-11-24T14:21:08Z</time>
      </trkpt>
      <trkpt lat="43.69279" lon="6.97286">
        <ele>557.1</ele>
        <time>2011-11-24T14:21:10Z</time>
      </trkpt>
      <trkpt lat="43.69274" lon="6.9729">
        <ele>557.1</ele>
        <time>2011-11-24T14:21:11Z</time>
      </trkpt>
      <trkpt lat="43.69266" lon="6.97298">
        <ele>557.4</ele>
        <time>2011-11-24T14:21:13Z</time>
      </trkpt>
      <trkpt lat="43.69261" lon="6.97304">
        <ele>557</ele>
        <time>2011-11-24T14:21:14Z</time>
      </trkpt>
      <trkpt lat="43.69257" lon="6.9731">
        <ele>557.7</ele>
        <time>2011-11-24T14:21:15Z</time>
      </trkpt>
      <trkpt lat="43.6925" lon="6.97316">
        <ele>557.9</ele>
        <time>2011-11-24T14:21:17Z</time>
      </trkpt>
      <trkpt lat="43.69248" lon="6.97325">
        <ele>558.9</ele>
        <time>2011-11-24T14:21:19Z</time>
      </trkpt>
      <trkpt lat="43.69247" lon="6.97332">
        <ele>559.1</ele>
        <time>2011-11-24T14:21:21Z</time>
      </trkpt>
      <trkpt lat="43.69243" lon="6.97343">
        <ele>558</ele>
        <time>2011-11-24T14:21:23Z</time>
      </trkpt>
      <trkpt lat="43.69239" lon="6.97352">
        <ele>557.8</ele>
        <time>2011-11-24T14:21:25Z</time>
      </trkpt>
      <trkpt lat="43.69231" lon="6.97357">
        <ele>554.4</ele>
        <time>2011-11-24T14:21:27Z</time>
      </trkpt>
      <trkpt lat="43.69225" lon="6.97362">
        <ele>553.6</ele>
        <time>2011-11-24T14:21:29Z</time>
      </trkpt>
      <trkpt lat="43.69222" lon="6.97367">
        <ele>553.4</ele>
        <time>2011-11-24T14:21:31Z</time>
      </trkpt>
      <trkpt lat="43.69219" lon="6.97372">
        <ele>552.1</ele>
        <time>2011-11-24T14:21:35Z</time>
      </trkpt>
      <trkpt lat="43.69223" lon="6.97375">
        <ele>553.2</ele>
        <time>2011-11-24T14:21:41Z</time>
      </trkpt>
      <trkpt lat="43.69228" lon="6.97373">
        <ele>553.8</ele>
        <time>2011-11-24T14:21:45Z</time>
      </trkpt>
      <trkpt lat="43.69226" lon="6.97367">
        <ele>553.1</ele>
        <time>2011-11-24T14:21:52Z</time>
      </trkpt>
      <trkpt lat="43.69221" lon="6.97367">
        <ele>553</ele>
        <time>2011-11-24T14:21:56Z</time>
      </trkpt>
      <trkpt lat="43.69215" lon="6.97363">
        <ele>553</ele>
        <time>2011-11-24T14:21:59Z</time>
      </trkpt>
      <trkpt lat="43.69209" lon="6.9736">
        <ele>553.1</ele>
        <time>2011-11-24T14:22:01Z</time>
      </trkpt>
      <trkpt lat="43.69204" lon="6.97357">
        <ele>551.9</ele>
        <time>2011-11-24T14:22:03Z</time>
      </trkpt>
      <trkpt lat="43.692" lon="6.97356">
        <ele>551.5</ele>
        <time>2011-11-24T14:22:05Z</time>
      </trkpt>
      <trkpt lat="43.69193" lon="6.97356">
        <ele>552.8</ele>
        <time>2011-11-24T14:22:08Z</time>
      </trkpt>
      <trkpt lat="43.69188" lon="6.97359">
        <ele>554.6</ele>
        <time>2011-11-24T14:22:10Z</time>
      </trkpt>
      <trkpt lat="43.69183" lon="6.97361">
        <ele>555.1</ele>
        <time>2011-11-24T14:22:12Z</time>
      </trkpt>
      <trkpt lat="43.6918" lon="6.97368">
        <ele>555.2</ele>
        <time>2011-11-24T14:22:14Z</time>
      </trkpt>
      <trkpt lat="43.69175" lon="6.97377">
        <ele>556.5</ele>
        <time>2011-11-24T14:22:16Z</time>
      </trkpt>
      <trkpt lat="43.69171" lon="6.97381">
        <ele>556.7</ele>
        <time>2011-11-24T14:22:18Z</time>
      </trkpt>
      <trkpt lat="43.69166" lon="6.97376">
        <ele>558</ele>
        <time>2011-11-24T14:22:21Z</time>
      </trkpt>
      <trkpt lat="43.69161" lon="6.97376">
        <ele>559.4</ele>
        <time>2011-11-24T14:22:23Z</time>
      </trkpt>
      <trkpt lat="43.69154" lon="6.97377">
        <ele>560.5</ele>
        <time>2011-11-24T14:22:26Z</time>
      </trkpt>
      <trkpt lat="43.69148" lon="6.97378">
        <ele>560.2</ele>
        <time>2011-11-24T14:22:28Z</time>
      </trkpt>
      <trkpt lat="43.69143" lon="6.97377">
        <ele>563.8</ele>
        <time>2011-11-24T14:22:32Z</time>
      </trkpt>
      <trkpt lat="43.69137" lon="6.97373">
        <ele>565</ele>
        <time>2011-11-24T14:22:35Z</time>
      </trkpt>
      <trkpt lat="43.69131" lon="6.97379">
        <ele>568.1</ele>
        <time>2011-11-24T14:22:37Z</time>
      </trkpt>
      <trkpt lat="43.69125" lon="6.97383">
        <ele>569.2</ele>
        <time>2011-11-24T14:22:39Z</time>
      </trkpt>
      <trkpt lat="43.6912" lon="6.97389">
        <ele>569.1</ele>
        <time>2011-11-24T14:22:41Z</time>
      </trkpt>
      <trkpt lat="43.69114" lon="6.97393">
        <ele>569.4</ele>
        <time>2011-11-24T14:22:44Z</time>
      </trkpt>
      <trkpt lat="43.6911" lon="6.97396">
        <ele>569.4</ele>
        <time>2011-11-24T14:22:46Z</time>
      </trkpt>
      <trkpt lat="43.69104" lon="6.97398">
        <ele>569.9</ele>
        <time>2011-11-24T14:22:49Z</time>
      </trkpt>
      <trkpt lat="43.691" lon="6.97403">
        <ele>569.2</ele>
        <time>2011-11-24T14:22:52Z</time>
      </trkpt>
      <trkpt lat="43.69096" lon="6.97404">
        <ele>567.6</ele>
        <time>2011-11-24T14:22:55Z</time>
      </trkpt>
      <trkpt lat="43.6909" lon="6.97403">
        <ele>567.3</ele>
        <time>2011-11-24T14:22:57Z</time>
      </trkpt>
      <trkpt lat="43.69081" lon="6.97406">
        <ele>566.8</ele>
        <time>2011-11-24T14:22:59Z</time>
      </trkpt>
      <trkpt lat="43.69076" lon="6.97409">
        <ele>565.8</ele>
        <time>2011-11-24T14:23:00Z</time>
      </trkpt>
      <trkpt lat="43.6907" lon="6.97411">
        <ele>564.9</ele>
        <time>2011-11-24T14:23:01Z</time>
      </trkpt>
      <trkpt lat="43.69064" lon="6.97414">
        <ele>564.1</ele>
        <time>2011-11-24T14:23:02Z</time>
      </trkpt>
      <trkpt lat="43.69058" lon="6.97413">
        <ele>563.3</ele>
        <time>2011-11-24T14:23:03Z</time>
      </trkpt>
      <trkpt lat="43.69052" lon="6.97413">
        <ele>563</ele>
        <time>2011-11-24T14:23:04Z</time>
      </trkpt>
      <trkpt lat="43.69044" lon="6.97413">
        <ele>562.8</ele>
        <time>2011-11-24T14:23:05Z</time>
      </trkpt>
      <trkpt lat="43.69035" lon="6.97412">
        <ele>560.9</ele>
        <time>2011-11-24T14:23:06Z</time>
      </trkpt>
      <trkpt lat="43.69026" lon="6.97411">
        <ele>560.2</ele>
        <time>2011-11-24T14:23:07Z</time>
      </trkpt>
      <trkpt lat="43.69017" lon="6.9741">
        <ele>559.2</ele>
        <time>2011-11-24T14:23:08Z</time>
      </trkpt>
      <trkpt lat="43.69008" lon="6.97409">
        <ele>558.4</ele>
        <time>2011-11-24T14:23:09Z</time>
      </trkpt>
      <trkpt lat="43.69" lon="6.97409">
        <ele>557.2</ele>
        <time>2011-11-24T14:23:10Z</time>
      </trkpt>
      <trkpt lat="43.6899" lon="6.97408">
        <ele>556.5</ele>
        <time>2011-11-24T14:23:11Z</time>
      </trkpt>
      <trkpt lat="43.68982" lon="6.97406">
        <ele>555.9</ele>
        <time>2011-11-24T14:23:12Z</time>
      </trkpt>
      <trkpt lat="43.68973" lon="6.97404">
        <ele>554.8</ele>
        <time>2011-11-24T14:23:13Z</time>
      </trkpt>
      <trkpt lat="43.68964" lon="6.97402">
        <ele>554.5</ele>
        <time>2011-11-24T14:23:14Z</time>
      </trkpt>
      <trkpt lat="43.68955" lon="6.97401">
        <ele>554</ele>
        <time>2011-11-24T14:23:15Z</time>
      </trkpt>
      <trkpt lat="43.68945" lon="6.97399">
        <ele>552.6</ele>
        <time>2011-11-24T14:23:16Z</time>
      </trkpt>
      <trkpt lat="43.68936" lon="6.97398">
        <ele>551.4</ele>
        <time>2011-11-24T14:23:17Z</time>
      </trkpt>
      <trkpt lat="43.68926" lon="6.97396">
        <ele>550.8</ele>
        <time>2011-11-24T14:23:18Z</time>
      </trkpt>
      <trkpt lat="43.68916" lon="6.97395">
        <ele>549.6</ele>
        <time>2011-11-24T14:23:19Z</time>
      </trkpt>
      <trkpt lat="43.68907" lon="6.97393">
        <ele>548.8</ele>
        <time>2011-11-24T14:23:20Z</time>
      </trkpt>
      <trkpt lat="43.68898" lon="6.97391">
        <ele>548.3</ele>
        <time>2011-11-24T14:23:21Z</time>
      </trkpt>
      <trkpt lat="43.68888" lon="6.97388">
        <ele>548.2</ele>
        <time>2011-11-24T14:23:22Z</time>
      </trkpt>
      <trkpt lat="43.68879" lon="6.97386">
        <ele>548</ele>
        <time>2011-11-24T14:23:23Z</time>
      </trkpt>
      <trkpt lat="43.6887" lon="6.97385">
        <ele>547.7</ele>
        <time>2011-11-24T14:23:24Z</time>
      </trkpt>
      <trkpt lat="43.68858" lon="6.97386">
        <ele>547.1</ele>
        <time>2011-11-24T14:23:25Z</time>
      </trkpt>
      <trkpt lat="43.68848" lon="6.97386">
        <ele>545.3</ele>
        <time>2011-11-24T14:23:26Z</time>
      </trkpt>
      <trkpt lat="43.68838" lon="6.97387">
        <ele>544.2</ele>
        <time>2011-11-24T14:23:27Z</time>
      </trkpt>
      <trkpt lat="43.68828" lon="6.97388">
        <ele>543.4</ele>
        <time>2011-11-24T14:23:28Z</time>
      </trkpt>
      <trkpt lat="43.68819" lon="6.9739">
        <ele>542.9</ele>
        <time>2011-11-24T14:23:29Z</time>
      </trkpt>
      <trkpt lat="43.68809" lon="6.97397">
        <ele>542.4</ele>
        <time>2011-11-24T14:23:30Z</time>
      </trkpt>
      <trkpt lat="43.688" lon="6.97403">
        <ele>542.2</ele>
        <time>2011-11-24T14:23:31Z</time>
      </trkpt>
      <trkpt lat="43.68794" lon="6.97414">
        <ele>541.6</ele>
        <time>2011-11-24T14:23:32Z</time>
      </trkpt>
      <trkpt lat="43.68783" lon="6.97426">
        <ele>541.3</ele>
        <time>2011-11-24T14:23:33Z</time>
      </trkpt>
      <trkpt lat="43.68773" lon="6.97437">
        <ele>540.9</ele>
        <time>2011-11-24T14:23:34Z</time>
      </trkpt>
      <trkpt lat="43.68767" lon="6.97451">
        <ele>539.3</ele>
        <time>2011-11-24T14:23:35Z</time>
      </trkpt>
      <trkpt lat="43.68759" lon="6.97464">
        <ele>539</ele>
        <time>2011-11-24T14:23:36Z</time>
      </trkpt>
      <trkpt lat="43.68752" lon="6.97477">
        <ele>539</ele>
        <time>2011-11-24T14:23:37Z</time>
      </trkpt>
      <trkpt lat="43.68743" lon="6.9749">
        <ele>538.1</ele>
        <time>2011-11-24T14:23:38Z</time>
      </trkpt>
      <trkpt lat="43.68736" lon="6.97503">
        <ele>537.8</ele>
        <time>2011-11-24T14:23:39Z</time>
      </trkpt>
      <trkpt lat="43.68726" lon="6.9751">
        <ele>537.1</ele>
        <time>2011-11-24T14:23:40Z</time>
      </trkpt>
      <trkpt lat="43.68712" lon="6.97512">
        <ele>534.7</ele>
        <time>2011-11-24T14:23:41Z</time>
      </trkpt>
      <trkpt lat="43.687" lon="6.97516">
        <ele>534</ele>
        <time>2011-11-24T14:23:42Z</time>
      </trkpt>
      <trkpt lat="43.68689" lon="6.97516">
        <ele>533.7</ele>
        <time>2011-11-24T14:23:43Z</time>
      </trkpt>
      <trkpt lat="43.68676" lon="6.97514">
        <ele>533.2</ele>
        <time>2011-11-24T14:23:44Z</time>
      </trkpt>
      <trkpt lat="43.68663" lon="6.9751">
        <ele>531.8</ele>
        <time>2011-11-24T14:23:45Z</time>
      </trkpt>
      <trkpt lat="43.68653" lon="6.97503">
        <ele>529.1</ele>
        <time>2011-11-24T14:23:46Z</time>
      </trkpt>
      <trkpt lat="43.68641" lon="6.975">
        <ele>527.2</ele>
        <time>2011-11-24T14:23:47Z</time>
      </trkpt>
      <trkpt lat="43.6863" lon="6.97498">
        <ele>525.9</ele>
        <time>2011-11-24T14:23:48Z</time>
      </trkpt>
      <trkpt lat="43.68618" lon="6.97497">
        <ele>525.9</ele>
        <time>2011-11-24T14:23:49Z</time>
      </trkpt>
      <trkpt lat="43.68607" lon="6.97494">
        <ele>525.5</ele>
        <time>2011-11-24T14:23:50Z</time>
      </trkpt>
      <trkpt lat="43.68596" lon="6.97491">
        <ele>524.8</ele>
        <time>2011-11-24T14:23:51Z</time>
      </trkpt>
      <trkpt lat="43.68586" lon="6.97482">
        <ele>521</ele>
        <time>2011-11-24T14:23:52Z</time>
      </trkpt>
      <trkpt lat="43.68575" lon="6.97476">
        <ele>519.9</ele>
        <time>2011-11-24T14:23:53Z</time>
      </trkpt>
      <trkpt lat="43.68564" lon="6.97468">
        <ele>518.6</ele>
        <time>2011-11-24T14:23:54Z</time>
      </trkpt>
      <trkpt lat="43.68554" lon="6.97462">
        <ele>518.3</ele>
        <time>2011-11-24T14:23:55Z</time>
      </trkpt>
      <trkpt lat="43.68542" lon="6.9746">
        <ele>517.3</ele>
        <time>2011-11-24T14:23:56Z</time>
      </trkpt>
      <trkpt lat="43.6853" lon="6.97468">
        <ele>515.4</ele>
        <time>2011-11-24T14:23:57Z</time>
      </trkpt>
      <trkpt lat="43.6852" lon="6.97472">
        <ele>514.8</ele>
        <time>2011-11-24T14:23:58Z</time>
      </trkpt>
      <trkpt lat="43.68509" lon="6.97479">
        <ele>513.1</ele>
        <time>2011-11-24T14:23:59Z</time>
      </trkpt>
      <trkpt lat="43.68497" lon="6.9748">
        <ele>510.7</ele>
        <time>2011-11-24T14:24:00Z</time>
      </trkpt>
      <trkpt lat="43.68485" lon="6.97481">
        <ele>510.2</ele>
        <time>2011-11-24T14:24:01Z</time>
      </trkpt>
      <trkpt lat="43.68472" lon="6.97479">
        <ele>509.5</ele>
        <time>2011-11-24T14:24:02Z</time>
      </trkpt>
      <trkpt lat="43.68467" lon="6.97464">
        <ele>508</ele>
        <time>2011-11-24T14:24:03Z</time>
      </trkpt>
      <trkpt lat="43.68456" lon="6.97456">
        <ele>507.2</ele>
        <time>2011-11-24T14:24:04Z</time>
      </trkpt>
      <trkpt lat="43.68447" lon="6.97449">
        <ele>507.2</ele>
        <time>2011-11-24T14:24:05Z</time>
      </trkpt>
      <trkpt lat="43.68438" lon="6.9744">
        <ele>507</ele>
        <time>2011-11-24T14:24:06Z</time>
      </trkpt>
      <trkpt lat="43.68428" lon="6.97433">
        <ele>506.8</ele>
        <time>2011-11-24T14:24:07Z</time>
      </trkpt>
      <trkpt lat="43.68417" lon="6.97427">
        <ele>504.6</ele>
        <time>2011-11-24T14:24:08Z</time>
      </trkpt>
      <trkpt lat="43.68407" lon="6.9742">
        <ele>503.6</ele>
        <time>2011-11-24T14:24:09Z</time>
      </trkpt>
      <trkpt lat="43.68398" lon="6.97411">
        <ele>502.5</ele>
        <time>2011-11-24T14:24:10Z</time>
      </trkpt>
      <trkpt lat="43.68389" lon="6.97401">
        <ele>502.3</ele>
        <time>2011-11-24T14:24:11Z</time>
      </trkpt>
      <trkpt lat="43.68383" lon="6.97388">
        <ele>501.2</ele>
        <time>2011-11-24T14:24:12Z</time>
      </trkpt>
      <trkpt lat="43.68377" lon="6.97376">
        <ele>500.3</ele>
        <time>2011-11-24T14:24:13Z</time>
      </trkpt>
      <trkpt lat="43.68372" lon="6.97363">
        <ele>498.9</ele>
        <time>2011-11-24T14:24:14Z</time>
      </trkpt>
      <trkpt lat="43.68368" lon="6.9735">
        <ele>497.9</ele>
        <time>2011-11-24T14:24:15Z</time>
      </trkpt>
      <trkpt lat="43.68364" lon="6.97337">
        <ele>498</ele>
        <time>2011-11-24T14:24:16Z</time>
      </trkpt>
      <trkpt lat="43.68359" lon="6.97324">
        <ele>498</ele>
        <time>2011-11-24T14:24:17Z</time>
      </trkpt>
      <trkpt lat="43.68352" lon="6.97313">
        <ele>497.8</ele>
        <time>2011-11-24T14:24:18Z</time>
      </trkpt>
      <trkpt lat="43.68342" lon="6.97306">
        <ele>496.8</ele>
        <time>2011-11-24T14:24:19Z</time>
      </trkpt>
      <trkpt lat="43.68334" lon="6.97296">
        <ele>496.2</ele>
        <time>2011-11-24T14:24:20Z</time>
      </trkpt>
      <trkpt lat="43.68326" lon="6.97287">
        <ele>495.7</ele>
        <time>2011-11-24T14:24:21Z</time>
      </trkpt>
      <trkpt lat="43.68316" lon="6.9728">
        <ele>493.7</ele>
        <time>2011-11-24T14:24:22Z</time>
      </trkpt>
      <trkpt lat="43.68307" lon="6.97272">
        <ele>492.6</ele>
        <time>2011-11-24T14:24:23Z</time>
      </trkpt>
      <trkpt lat="43.68298" lon="6.97264">
        <ele>491.8</ele>
        <time>2011-11-24T14:24:24Z</time>
      </trkpt>
      <trkpt lat="43.6829" lon="6.97257">
        <ele>491.4</ele>
        <time>2011-11-24T14:24:25Z</time>
      </trkpt>
      <trkpt lat="43.6828" lon="6.9725">
        <ele>490.1</ele>
        <time>2011-11-24T14:24:26Z</time>
      </trkpt>
      <trkpt lat="43.68271" lon="6.9724">
        <ele>489.1</ele>
        <time>2011-11-24T14:24:27Z</time>
      </trkpt>
      <trkpt lat="43.68263" lon="6.9723">
        <ele>488.1</ele>
        <time>2011-11-24T14:24:28Z</time>
      </trkpt>
      <trkpt lat="43.68256" lon="6.97219">
        <ele>487</ele>
        <time>2011-11-24T14:24:29Z</time>
      </trkpt>
      <trkpt lat="43.6825" lon="6.97206">
        <ele>486.4</ele>
        <time>2011-11-24T14:24:30Z</time>
      </trkpt>
      <trkpt lat="43.68244" lon="6.97194">
        <ele>486.4</ele>
        <time>2011-11-24T14:24:31Z</time>
      </trkpt>
      <trkpt lat="43.6824" lon="6.9718">
        <ele>486</ele>
        <time>2011-11-24T14:24:32Z</time>
      </trkpt>
      <trkpt lat="43.68239" lon="6.97164">
        <ele>483.8</ele>
        <time>2011-11-24T14:24:33Z</time>
      </trkpt>
      <trkpt lat="43.68235" lon="6.97149">
        <ele>483</ele>
        <time>2011-11-24T14:24:34Z</time>
      </trkpt>
      <trkpt lat="43.68231" lon="6.97135">
        <ele>482.7</ele>
        <time>2011-11-24T14:24:35Z</time>
      </trkpt>
      <trkpt lat="43.68222" lon="6.97124">
        <ele>481.8</ele>
        <time>2011-11-24T14:24:36Z</time>
      </trkpt>
      <trkpt lat="43.68215" lon="6.97112">
        <ele>481.5</ele>
        <time>2011-11-24T14:24:37Z</time>
      </trkpt>
      <trkpt lat="43.68207" lon="6.97104">
        <ele>481.1</ele>
        <time>2011-11-24T14:24:38Z</time>
      </trkpt>
      <trkpt lat="43.68194" lon="6.9711">
        <ele>479.2</ele>
        <time>2011-11-24T14:24:39Z</time>
      </trkpt>
      <trkpt lat="43.68185" lon="6.9711">
        <ele>478.4</ele>
        <time>2011-11-24T14:24:40Z</time>
      </trkpt>
      <trkpt lat="43.68174" lon="6.97119">
        <ele>476.8</ele>
        <time>2011-11-24T14:24:41Z</time>
      </trkpt>
      <trkpt lat="43.68164" lon="6.97126">
        <ele>476.1</ele>
        <time>2011-11-24T14:24:42Z</time>
      </trkpt>
      <trkpt lat="43.68154" lon="6.97134">
        <ele>475.5</ele>
        <time>2011-11-24T14:24:43Z</time>
      </trkpt>
      <trkpt lat="43.68144" lon="6.97143">
        <ele>475.2</ele>
        <time>2011-11-24T14:24:44Z</time>
      </trkpt>
      <trkpt lat="43.68135" lon="6.97152">
        <ele>475.1</ele>
        <time>2011-11-24T14:24:45Z</time>
      </trkpt>
      <trkpt lat="43.68125" lon="6.97161">
        <ele>473.2</ele>
        <time>2011-11-24T14:24:46Z</time>
      </trkpt>
      <trkpt lat="43.68116" lon="6.97168">
        <ele>470.9</ele>
        <time>2011-11-24T14:24:47Z</time>
      </trkpt>
      <trkpt lat="43.68108" lon="6.97174">
        <ele>470.3</ele>
        <time>2011-11-24T14:24:48Z</time>
      </trkpt>
      <trkpt lat="43.681" lon="6.97177">
        <ele>470.4</ele>
        <time>2011-11-24T14:24:49Z</time>
      </trkpt>
      <trkpt lat="43.68094" lon="6.97179">
        <ele>469.9</ele>
        <time>2011-11-24T14:24:50Z</time>
      </trkpt>
      <trkpt lat="43.68087" lon="6.9718">
        <ele>469.3</ele>
        <time>2011-11-24T14:24:51Z</time>
      </trkpt>
      <trkpt lat="43.68083" lon="6.9718">
        <ele>469.3</ele>
        <time>2011-11-24T14:24:52Z</time>
      </trkpt>
      <trkpt lat="43.68077" lon="6.97178">
        <ele>469.5</ele>
        <time>2011-11-24T14:24:55Z</time>
      </trkpt>
      <trkpt lat="43.68076" lon="6.97168">
        <ele>468.4</ele>
        <time>2011-11-24T14:24:59Z</time>
      </trkpt>
      <trkpt lat="43.6807" lon="6.97162">
        <ele>468.1</ele>
        <time>2011-11-24T14:25:01Z</time>
      </trkpt>
      <trkpt lat="43.68063" lon="6.97153">
        <ele>468</ele>
        <time>2011-11-24T14:25:03Z</time>
      </trkpt>
      <trkpt lat="43.68056" lon="6.97144">
        <ele>467.7</ele>
        <time>2011-11-24T14:25:05Z</time>
      </trkpt>
      <trkpt lat="43.6805" lon="6.97142">
        <ele>467.4</ele>
        <time>2011-11-24T14:25:06Z</time>
      </trkpt>
      <trkpt lat="43.68044" lon="6.97141">
        <ele>467.5</ele>
        <time>2011-11-24T14:25:07Z</time>
      </trkpt>
      <trkpt lat="43.68037" lon="6.97144">
        <ele>466.8</ele>
        <time>2011-11-24T14:25:08Z</time>
      </trkpt>
      <trkpt lat="43.68031" lon="6.97147">
        <ele>466.4</ele>
        <time>2011-11-24T14:25:09Z</time>
      </trkpt>
      <trkpt lat="43.68025" lon="6.97152">
        <ele>466.8</ele>
        <time>2011-11-24T14:25:10Z</time>
      </trkpt>
      <trkpt lat="43.68019" lon="6.97158">
        <ele>466.4</ele>
        <time>2011-11-24T14:25:11Z</time>
      </trkpt>
      <trkpt lat="43.68014" lon="6.97167">
        <ele>466.6</ele>
        <time>2011-11-24T14:25:12Z</time>
      </trkpt>
      <trkpt lat="43.68009" lon="6.97174">
        <ele>465.6</ele>
        <time>2011-11-24T14:25:13Z</time>
      </trkpt>
      <trkpt lat="43.68003" lon="6.97181">
        <ele>465</ele>
        <time>2011-11-24T14:25:14Z</time>
      </trkpt>
      <trkpt lat="43.67998" lon="6.97189">
        <ele>464.9</ele>
        <time>2011-11-24T14:25:15Z</time>
      </trkpt>
      <trkpt lat="43.67993" lon="6.97196">
        <ele>464.2</ele>
        <time>2011-11-24T14:25:16Z</time>
      </trkpt>
      <trkpt lat="43.67987" lon="6.97204">
        <ele>464.3</ele>
        <time>2011-11-24T14:25:17Z</time>
      </trkpt>
      <trkpt lat="43.67981" lon="6.97213">
        <ele>464.2</ele>
        <time>2011-11-24T14:25:18Z</time>
      </trkpt>
      <trkpt lat="43.67976" lon="6.97221">
        <ele>464</ele>
        <time>2011-11-24T14:25:19Z</time>
      </trkpt>
      <trkpt lat="43.67972" lon="6.9723">
        <ele>463.6</ele>
        <time>2011-11-24T14:25:20Z</time>
      </trkpt>
      <trkpt lat="43.67966" lon="6.97239">
        <ele>462.4</ele>
        <time>2011-11-24T14:25:21Z</time>
      </trkpt>
      <trkpt lat="43.67958" lon="6.97246">
        <ele>461.9</ele>
        <time>2011-11-24T14:25:22Z</time>
      </trkpt>
      <trkpt lat="43.67952" lon="6.97254">
        <ele>461.9</ele>
        <time>2011-11-24T14:25:23Z</time>
      </trkpt>
      <trkpt lat="43.67946" lon="6.97262">
        <ele>461.3</ele>
        <time>2011-11-24T14:25:24Z</time>
      </trkpt>
      <trkpt lat="43.6794" lon="6.9727">
        <ele>462</ele>
        <time>2011-11-24T14:25:25Z</time>
      </trkpt>
      <trkpt lat="43.67934" lon="6.97279">
        <ele>460.9</ele>
        <time>2011-11-24T14:25:26Z</time>
      </trkpt>
      <trkpt lat="43.67929" lon="6.97286">
        <ele>460.2</ele>
        <time>2011-11-24T14:25:27Z</time>
      </trkpt>
      <trkpt lat="43.67924" lon="6.97292">
        <ele>459.5</ele>
        <time>2011-11-24T14:25:28Z</time>
      </trkpt>
      <trkpt lat="43.67918" lon="6.97296">
        <ele>459.4</ele>
        <time>2011-11-24T14:25:29Z</time>
      </trkpt>
      <trkpt lat="43.67913" lon="6.97298">
        <ele>459.2</ele>
        <time>2011-11-24T14:25:30Z</time>
      </trkpt>
      <trkpt lat="43.67908" lon="6.97297">
        <ele>458.6</ele>
        <time>2011-11-24T14:25:31Z</time>
      </trkpt>
      <trkpt lat="43.67897" lon="6.973">
        <ele>458.8</ele>
        <time>2011-11-24T14:25:33Z</time>
      </trkpt>
      <trkpt lat="43.67893" lon="6.97304">
        <ele>459.2</ele>
        <time>2011-11-24T14:25:34Z</time>
      </trkpt>
      <trkpt lat="43.67889" lon="6.9731">
        <ele>459.1</ele>
        <time>2011-11-24T14:25:35Z</time>
      </trkpt>
      <trkpt lat="43.67886" lon="6.97316">
        <ele>458.8</ele>
        <time>2011-11-24T14:25:36Z</time>
      </trkpt>
      <trkpt lat="43.67888" lon="6.97327">
        <ele>458.6</ele>
        <time>2011-11-24T14:25:37Z</time>
      </trkpt>
      <trkpt lat="43.67889" lon="6.97335">
        <ele>457.8</ele>
        <time>2011-11-24T14:25:38Z</time>
      </trkpt>
      <trkpt lat="43.6789" lon="6.97342">
        <ele>457</ele>
        <time>2011-11-24T14:25:39Z</time>
      </trkpt>
      <trkpt lat="43.67893" lon="6.97349">
        <ele>458.7</ele>
        <time>2011-11-24T14:25:40Z</time>
      </trkpt>
      <trkpt lat="43.67894" lon="6.97358">
        <ele>458.5</ele>
        <time>2011-11-24T14:25:41Z</time>
      </trkpt>
      <trkpt lat="43.67892" lon="6.97366">
        <ele>458.7</ele>
        <time>2011-11-24T14:25:42Z</time>
      </trkpt>
      <trkpt lat="43.67888" lon="6.97374">
        <ele>458.9</ele>
        <time>2011-11-24T14:25:43Z</time>
      </trkpt>
      <trkpt lat="43.67884" lon="6.9738">
        <ele>459.3</ele>
        <time>2011-11-24T14:25:44Z</time>
      </trkpt>
      <trkpt lat="43.6788" lon="6.97385">
        <ele>459.7</ele>
        <time>2011-11-24T14:25:45Z</time>
      </trkpt>
      <trkpt lat="43.67874" lon="6.97389">
        <ele>459.6</ele>
        <time>2011-11-24T14:25:46Z</time>
      </trkpt>
      <trkpt lat="43.67868" lon="6.97394">
        <ele>459.3</ele>
        <time>2011-11-24T14:25:47Z</time>
      </trkpt>
      <trkpt lat="43.67863" lon="6.97398">
        <ele>459.1</ele>
        <time>2011-11-24T14:25:48Z</time>
      </trkpt>
      <trkpt lat="43.67857" lon="6.97404">
        <ele>458.6</ele>
        <time>2011-11-24T14:25:49Z</time>
      </trkpt>
      <trkpt lat="43.67851" lon="6.97408">
        <ele>458.4</ele>
        <time>2011-11-24T14:25:50Z</time>
      </trkpt>
      <trkpt lat="43.67846" lon="6.97413">
        <ele>459</ele>
        <time>2011-11-24T14:25:51Z</time>
      </trkpt>
      <trkpt lat="43.6784" lon="6.97419">
        <ele>458.2</ele>
        <time>2011-11-24T14:25:52Z</time>
      </trkpt>
      <trkpt lat="43.67834" lon="6.97423">
        <ele>457.9</ele>
        <time>2011-11-24T14:25:53Z</time>
      </trkpt>
      <trkpt lat="43.67827" lon="6.97429">
        <ele>458.1</ele>
        <time>2011-11-24T14:25:54Z</time>
      </trkpt>
      <trkpt lat="43.67822" lon="6.97434">
        <ele>458</ele>
        <time>2011-11-24T14:25:55Z</time>
      </trkpt>
      <trkpt lat="43.67815" lon="6.9744">
        <ele>458</ele>
        <time>2011-11-24T14:25:56Z</time>
      </trkpt>
      <trkpt lat="43.67812" lon="6.9745">
        <ele>457.6</ele>
        <time>2011-11-24T14:25:57Z</time>
      </trkpt>
      <trkpt lat="43.67808" lon="6.97458">
        <ele>457.4</ele>
        <time>2011-11-24T14:25:58Z</time>
      </trkpt>
      <trkpt lat="43.67802" lon="6.97466">
        <ele>457.4</ele>
        <time>2011-11-24T14:25:59Z</time>
      </trkpt>
      <trkpt lat="43.67797" lon="6.97473">
        <ele>457.5</ele>
        <time>2011-11-24T14:26:00Z</time>
      </trkpt>
      <trkpt lat="43.67792" lon="6.9748">
        <ele>457.3</ele>
        <time>2011-11-24T14:26:01Z</time>
      </trkpt>
      <trkpt lat="43.67787" lon="6.97487">
        <ele>457.5</ele>
        <time>2011-11-24T14:26:02Z</time>
      </trkpt>
      <trkpt lat="43.67782" lon="6.97493">
        <ele>458.5</ele>
        <time>2011-11-24T14:26:03Z</time>
      </trkpt>
      <trkpt lat="43.67776" lon="6.97501">
        <ele>459</ele>
        <time>2011-11-24T14:26:04Z</time>
      </trkpt>
      <trkpt lat="43.67771" lon="6.97509">
        <ele>458.9</ele>
        <time>2011-11-24T14:26:05Z</time>
      </trkpt>
      <trkpt lat="43.67766" lon="6.97517">
        <ele>458.4</ele>
        <time>2011-11-24T14:26:06Z</time>
      </trkpt>
      <trkpt lat="43.67759" lon="6.97525">
        <ele>457.5</ele>
        <time>2011-11-24T14:26:07Z</time>
      </trkpt>
      <trkpt lat="43.67754" lon="6.97534">
        <ele>457.5</ele>
        <time>2011-11-24T14:26:08Z</time>
      </trkpt>
      <trkpt lat="43.67749" lon="6.9754">
        <ele>457.7</ele>
        <time>2011-11-24T14:26:09Z</time>
      </trkpt>
      <trkpt lat="43.67743" lon="6.97548">
        <ele>456.8</ele>
        <time>2011-11-24T14:26:10Z</time>
      </trkpt>
      <trkpt lat="43.67739" lon="6.97558">
        <ele>456.2</ele>
        <time>2011-11-24T14:26:11Z</time>
      </trkpt>
      <trkpt lat="43.67735" lon="6.97568">
        <ele>455.4</ele>
        <time>2011-11-24T14:26:12Z</time>
      </trkpt>
      <trkpt lat="43.6773" lon="6.97577">
        <ele>454.5</ele>
        <time>2011-11-24T14:26:13Z</time>
      </trkpt>
      <trkpt lat="43.67727" lon="6.97587">
        <ele>454.3</ele>
        <time>2011-11-24T14:26:14Z</time>
      </trkpt>
      <trkpt lat="43.67724" lon="6.97598">
        <ele>454.1</ele>
        <time>2011-11-24T14:26:15Z</time>
      </trkpt>
      <trkpt lat="43.67721" lon="6.97608">
        <ele>453.8</ele>
        <time>2011-11-24T14:26:16Z</time>
      </trkpt>
      <trkpt lat="43.67719" lon="6.9762">
        <ele>453.8</ele>
        <time>2011-11-24T14:26:17Z</time>
      </trkpt>
      <trkpt lat="43.67717" lon="6.9763">
        <ele>453.3</ele>
        <time>2011-11-24T14:26:18Z</time>
      </trkpt>
      <trkpt lat="43.67715" lon="6.97641">
        <ele>453</ele>
        <time>2011-11-24T14:26:19Z</time>
      </trkpt>
      <trkpt lat="43.67714" lon="6.97652">
        <ele>452.7</ele>
        <time>2011-11-24T14:26:20Z</time>
      </trkpt>
      <trkpt lat="43.67712" lon="6.97662">
        <ele>452.7</ele>
        <time>2011-11-24T14:26:21Z</time>
      </trkpt>
      <trkpt lat="43.67711" lon="6.97673">
        <ele>452.6</ele>
        <time>2011-11-24T14:26:22Z</time>
      </trkpt>
      <trkpt lat="43.67711" lon="6.97683">
        <ele>452.6</ele>
        <time>2011-11-24T14:26:23Z</time>
      </trkpt>
      <trkpt lat="43.6771" lon="6.97691">
        <ele>452.5</ele>
        <time>2011-11-24T14:26:24Z</time>
      </trkpt>
      <trkpt lat="43.6771" lon="6.97701">
        <ele>452.6</ele>
        <time>2011-11-24T14:26:25Z</time>
      </trkpt>
      <trkpt lat="43.67712" lon="6.9771">
        <ele>452.8</ele>
        <time>2011-11-24T14:26:26Z</time>
      </trkpt>
      <trkpt lat="43.67719" lon="6.97724">
        <ele>452.9</ele>
        <time>2011-11-24T14:26:27Z</time>
      </trkpt>
      <trkpt lat="43.67724" lon="6.97733">
        <ele>452.9</ele>
        <time>2011-11-24T14:26:28Z</time>
      </trkpt>
      <trkpt lat="43.6773" lon="6.97743">
        <ele>451.2</ele>
        <time>2011-11-24T14:26:29Z</time>
      </trkpt>
      <trkpt lat="43.67736" lon="6.97752">
        <ele>450.9</ele>
        <time>2011-11-24T14:26:30Z</time>
      </trkpt>
      <trkpt lat="43.67742" lon="6.97761">
        <ele>450.5</ele>
        <time>2011-11-24T14:26:31Z</time>
      </trkpt>
      <trkpt lat="43.67748" lon="6.9777">
        <ele>450.4</ele>
        <time>2011-11-24T14:26:32Z</time>
      </trkpt>
      <trkpt lat="43.67754" lon="6.9778">
        <ele>450.1</ele>
        <time>2011-11-24T14:26:33Z</time>
      </trkpt>
      <trkpt lat="43.6776" lon="6.9779">
        <ele>450</ele>
        <time>2011-11-24T14:26:34Z</time>
      </trkpt>
      <trkpt lat="43.67764" lon="6.978">
        <ele>449.8</ele>
        <time>2011-11-24T14:26:35Z</time>
      </trkpt>
      <trkpt lat="43.67769" lon="6.9781">
        <ele>450</ele>
        <time>2011-11-24T14:26:36Z</time>
      </trkpt>
      <trkpt lat="43.67772" lon="6.97821">
        <ele>450</ele>
        <time>2011-11-24T14:26:37Z</time>
      </trkpt>
      <trkpt lat="43.67773" lon="6.97834">
        <ele>450</ele>
        <time>2011-11-24T14:26:38Z</time>
      </trkpt>
      <trkpt lat="43.67773" lon="6.97847">
        <ele>449.6</ele>
        <time>2011-11-24T14:26:39Z</time>
      </trkpt>
      <trkpt lat="43.67771" lon="6.97859">
        <ele>449.9</ele>
        <time>2011-11-24T14:26:40Z</time>
      </trkpt>
      <trkpt lat="43.67771" lon="6.9787">
        <ele>449.6</ele>
        <time>2011-11-24T14:26:41Z</time>
      </trkpt>
      <trkpt lat="43.67771" lon="6.97882">
        <ele>450.1</ele>
        <time>2011-11-24T14:26:42Z</time>
      </trkpt>
      <trkpt lat="43.67768" lon="6.97893">
        <ele>452.1</ele>
        <time>2011-11-24T14:26:43Z</time>
      </trkpt>
      <trkpt lat="43.67766" lon="6.97905">
        <ele>452.7</ele>
        <time>2011-11-24T14:26:44Z</time>
      </trkpt>
      <trkpt lat="43.67766" lon="6.97918">
        <ele>453.5</ele>
        <time>2011-11-24T14:26:45Z</time>
      </trkpt>
      <trkpt lat="43.67765" lon="6.9793">
        <ele>453.8</ele>
        <time>2011-11-24T14:26:46Z</time>
      </trkpt>
      <trkpt lat="43.67766" lon="6.97943">
        <ele>453.5</ele>
        <time>2011-11-24T14:26:47Z</time>
      </trkpt>
      <trkpt lat="43.67765" lon="6.97956">
        <ele>453.3</ele>
        <time>2011-11-24T14:26:48Z</time>
      </trkpt>
      <trkpt lat="43.67759" lon="6.97965">
        <ele>451.9</ele>
        <time>2011-11-24T14:26:49Z</time>
      </trkpt>
      <trkpt lat="43.67755" lon="6.97977">
        <ele>451.5</ele>
        <time>2011-11-24T14:26:50Z</time>
      </trkpt>
      <trkpt lat="43.67752" lon="6.9799">
        <ele>451.2</ele>
        <time>2011-11-24T14:26:51Z</time>
      </trkpt>
      <trkpt lat="43.67747" lon="6.98">
        <ele>450.2</ele>
        <time>2011-11-24T14:26:52Z</time>
      </trkpt>
      <trkpt lat="43.67744" lon="6.98011">
        <ele>449.8</ele>
        <time>2011-11-24T14:26:53Z</time>
      </trkpt>
      <trkpt lat="43.67739" lon="6.98023">
        <ele>448.9</ele>
        <time>2011-11-24T14:26:54Z</time>
      </trkpt>
      <trkpt lat="43.67735" lon="6.98033">
        <ele>448.4</ele>
        <time>2011-11-24T14:26:55Z</time>
      </trkpt>
      <trkpt lat="43.67731" lon="6.98045">
        <ele>447.5</ele>
        <time>2011-11-24T14:26:56Z</time>
      </trkpt>
      <trkpt lat="43.67726" lon="6.98054">
        <ele>447.2</ele>
        <time>2011-11-24T14:26:57Z</time>
      </trkpt>
      <trkpt lat="43.67723" lon="6.98066">
        <ele>446.4</ele>
        <time>2011-11-24T14:26:58Z</time>
      </trkpt>
      <trkpt lat="43.67719" lon="6.98077">
        <ele>446</ele>
        <time>2011-11-24T14:26:59Z</time>
      </trkpt>
      <trkpt lat="43.67715" lon="6.98088">
        <ele>445.1</ele>
        <time>2011-11-24T14:27:00Z</time>
      </trkpt>
      <trkpt lat="43.67711" lon="6.98099">
        <ele>445</ele>
        <time>2011-11-24T14:27:01Z</time>
      </trkpt>
      <trkpt lat="43.67707" lon="6.9811">
        <ele>444.7</ele>
        <time>2011-11-24T14:27:02Z</time>
      </trkpt>
      <trkpt lat="43.67703" lon="6.98121">
        <ele>444</ele>
        <time>2011-11-24T14:27:03Z</time>
      </trkpt>
      <trkpt lat="43.67698" lon="6.98132">
        <ele>443</ele>
        <time>2011-11-24T14:27:04Z</time>
      </trkpt>
      <trkpt lat="43.67694" lon="6.98143">
        <ele>442.7</ele>
        <time>2011-11-24T14:27:05Z</time>
      </trkpt>
      <trkpt lat="43.6769" lon="6.98153">
        <ele>442.8</ele>
        <time>2011-11-24T14:27:06Z</time>
      </trkpt>
      <trkpt lat="43.67686" lon="6.98163">
        <ele>442.5</ele>
        <time>2011-11-24T14:27:07Z</time>
      </trkpt>
      <trkpt lat="43.67682" lon="6.98174">
        <ele>442.5</ele>
        <time>2011-11-24T14:27:08Z</time>
      </trkpt>
      <trkpt lat="43.67678" lon="6.98187">
        <ele>442.2</ele>
        <time>2011-11-24T14:27:09Z</time>
      </trkpt>
      <trkpt lat="43.67675" lon="6.98197">
        <ele>442.2</ele>
        <time>2011-11-24T14:27:10Z</time>
      </trkpt>
      <trkpt lat="43.67671" lon="6.98207">
        <ele>442.2</ele>
        <time>2011-11-24T14:27:11Z</time>
      </trkpt>
      <trkpt lat="43.67668" lon="6.98219">
        <ele>441.9</ele>
        <time>2011-11-24T14:27:12Z</time>
      </trkpt>
      <trkpt lat="43.67666" lon="6.98232">
        <ele>441</ele>
        <time>2011-11-24T14:27:13Z</time>
      </trkpt>
      <trkpt lat="43.67664" lon="6.98244">
        <ele>440.8</ele>
        <time>2011-11-24T14:27:14Z</time>
      </trkpt>
      <trkpt lat="43.67661" lon="6.98257">
        <ele>440.2</ele>
        <time>2011-11-24T14:27:15Z</time>
      </trkpt>
      <trkpt lat="43.67658" lon="6.9827">
        <ele>439.7</ele>
        <time>2011-11-24T14:27:16Z</time>
      </trkpt>
      <trkpt lat="43.67655" lon="6.98283">
        <ele>439.3</ele>
        <time>2011-11-24T14:27:17Z</time>
      </trkpt>
      <trkpt lat="43.67651" lon="6.98294">
        <ele>439.1</ele>
        <time>2011-11-24T14:27:18Z</time>
      </trkpt>
      <trkpt lat="43.67648" lon="6.98307">
        <ele>438.8</ele>
        <time>2011-11-24T14:27:19Z</time>
      </trkpt>
      <trkpt lat="43.67643" lon="6.98318">
        <ele>438.2</ele>
        <time>2011-11-24T14:27:20Z</time>
      </trkpt>
      <trkpt lat="43.67639" lon="6.98329">
        <ele>438</ele>
        <time>2011-11-24T14:27:21Z</time>
      </trkpt>
      <trkpt lat="43.67636" lon="6.9834">
        <ele>437.6</ele>
        <time>2011-11-24T14:27:22Z</time>
      </trkpt>
      <trkpt lat="43.67632" lon="6.98352">
        <ele>437.4</ele>
        <time>2011-11-24T14:27:23Z</time>
      </trkpt>
      <trkpt lat="43.67627" lon="6.98364">
        <ele>437.5</ele>
        <time>2011-11-24T14:27:24Z</time>
      </trkpt>
      <trkpt lat="43.6762" lon="6.98374">
        <ele>436.8</ele>
        <time>2011-11-24T14:27:25Z</time>
      </trkpt>
      <trkpt lat="43.67615" lon="6.98384">
        <ele>436.4</ele>
        <time>2011-11-24T14:27:26Z</time>
      </trkpt>
      <trkpt lat="43.67608" lon="6.98395">
        <ele>435.9</ele>
        <time>2011-11-24T14:27:27Z</time>
      </trkpt>
      <trkpt lat="43.67602" lon="6.98404">
        <ele>435.9</ele>
        <time>2011-11-24T14:27:28Z</time>
      </trkpt>
      <trkpt lat="43.67595" lon="6.98412">
        <ele>435.3</ele>
        <time>2011-11-24T14:27:29Z</time>
      </trkpt>
      <trkpt lat="43.67587" lon="6.98421">
        <ele>434.7</ele>
        <time>2011-11-24T14:27:30Z</time>
      </trkpt>
      <trkpt lat="43.6758" lon="6.9843">
        <ele>434.4</ele>
        <time>2011-11-24T14:27:31Z</time>
      </trkpt>
      <trkpt lat="43.67573" lon="6.98438">
        <ele>434.3</ele>
        <time>2011-11-24T14:27:32Z</time>
      </trkpt>
      <trkpt lat="43.67566" lon="6.98445">
        <ele>434.1</ele>
        <time>2011-11-24T14:27:33Z</time>
      </trkpt>
      <trkpt lat="43.67558" lon="6.98452">
        <ele>433.6</ele>
        <time>2011-11-24T14:27:34Z</time>
      </trkpt>
      <trkpt lat="43.67552" lon="6.98463">
        <ele>434.4</ele>
        <time>2011-11-24T14:27:35Z</time>
      </trkpt>
      <trkpt lat="43.67546" lon="6.98472">
        <ele>433.3</ele>
        <time>2011-11-24T14:27:36Z</time>
      </trkpt>
      <trkpt lat="43.6754" lon="6.98481">
        <ele>432.6</ele>
        <time>2011-11-24T14:27:37Z</time>
      </trkpt>
      <trkpt lat="43.67537" lon="6.98493">
        <ele>432.9</ele>
        <time>2011-11-24T14:27:38Z</time>
      </trkpt>
      <trkpt lat="43.67532" lon="6.98503">
        <ele>432.7</ele>
        <time>2011-11-24T14:27:39Z</time>
      </trkpt>
      <trkpt lat="43.67531" lon="6.98517">
        <ele>432.1</ele>
        <time>2011-11-24T14:27:40Z</time>
      </trkpt>
      <trkpt lat="43.67529" lon="6.9853">
        <ele>431</ele>
        <time>2011-11-24T14:27:41Z</time>
      </trkpt>
      <trkpt lat="43.67528" lon="6.98543">
        <ele>430.4</ele>
        <time>2011-11-24T14:27:42Z</time>
      </trkpt>
      <trkpt lat="43.67527" lon="6.98556">
        <ele>430.1</ele>
        <time>2011-11-24T14:27:43Z</time>
      </trkpt>
      <trkpt lat="43.67527" lon="6.98569">
        <ele>430.2</ele>
        <time>2011-11-24T14:27:44Z</time>
      </trkpt>
      <trkpt lat="43.67527" lon="6.98581">
        <ele>429.8</ele>
        <time>2011-11-24T14:27:45Z</time>
      </trkpt>
      <trkpt lat="43.67526" lon="6.98592">
        <ele>429.7</ele>
        <time>2011-11-24T14:27:46Z</time>
      </trkpt>
      <trkpt lat="43.67526" lon="6.98605">
        <ele>428.3</ele>
        <time>2011-11-24T14:27:47Z</time>
      </trkpt>
      <trkpt lat="43.67526" lon="6.98616">
        <ele>428</ele>
        <time>2011-11-24T14:27:48Z</time>
      </trkpt>
      <trkpt lat="43.67526" lon="6.98628">
        <ele>427.5</ele>
        <time>2011-11-24T14:27:49Z</time>
      </trkpt>
      <trkpt lat="43.67524" lon="6.9864">
        <ele>427.2</ele>
        <time>2011-11-24T14:27:50Z</time>
      </trkpt>
      <trkpt lat="43.67524" lon="6.98654">
        <ele>426.8</ele>
        <time>2011-11-24T14:27:51Z</time>
      </trkpt>
      <trkpt lat="43.67523" lon="6.98667">
        <ele>426.3</ele>
        <time>2011-11-24T14:27:52Z</time>
      </trkpt>
      <trkpt lat="43.67523" lon="6.9868">
        <ele>426.4</ele>
        <time>2011-11-24T14:27:53Z</time>
      </trkpt>
      <trkpt lat="43.67518" lon="6.98692">
        <ele>425.4</ele>
        <time>2011-11-24T14:27:54Z</time>
      </trkpt>
      <trkpt lat="43.67516" lon="6.98704">
        <ele>425.1</ele>
        <time>2011-11-24T14:27:55Z</time>
      </trkpt>
      <trkpt lat="43.67513" lon="6.98717">
        <ele>424.7</ele>
        <time>2011-11-24T14:27:56Z</time>
      </trkpt>
      <trkpt lat="43.6751" lon="6.9873">
        <ele>424.6</ele>
        <time>2011-11-24T14:27:57Z</time>
      </trkpt>
      <trkpt lat="43.67507" lon="6.98742">
        <ele>424.7</ele>
        <time>2011-11-24T14:27:58Z</time>
      </trkpt>
      <trkpt lat="43.67503" lon="6.98755">
        <ele>424.7</ele>
        <time>2011-11-24T14:27:59Z</time>
      </trkpt>
      <trkpt lat="43.67496" lon="6.98763">
        <ele>424.6</ele>
        <time>2011-11-24T14:28:00Z</time>
      </trkpt>
      <trkpt lat="43.6749" lon="6.98772">
        <ele>424.1</ele>
        <time>2011-11-24T14:28:01Z</time>
      </trkpt>
      <trkpt lat="43.67484" lon="6.98781">
        <ele>423.7</ele>
        <time>2011-11-24T14:28:02Z</time>
      </trkpt>
      <trkpt lat="43.67478" lon="6.98791">
        <ele>423.4</ele>
        <time>2011-11-24T14:28:03Z</time>
      </trkpt>
      <trkpt lat="43.67471" lon="6.98798">
        <ele>423.2</ele>
        <time>2011-11-24T14:28:04Z</time>
      </trkpt>
      <trkpt lat="43.67465" lon="6.98807">
        <ele>423</ele>
        <time>2011-11-24T14:28:05Z</time>
      </trkpt>
      <trkpt lat="43.67459" lon="6.98818">
        <ele>422.6</ele>
        <time>2011-11-24T14:28:06Z</time>
      </trkpt>
      <trkpt lat="43.67453" lon="6.98827">
        <ele>422.3</ele>
        <time>2011-11-24T14:28:07Z</time>
      </trkpt>
      <trkpt lat="43.67446" lon="6.98835">
        <ele>421.9</ele>
        <time>2011-11-24T14:28:08Z</time>
      </trkpt>
      <trkpt lat="43.67439" lon="6.98844">
        <ele>421.7</ele>
        <time>2011-11-24T14:28:09Z</time>
      </trkpt>
      <trkpt lat="43.67433" lon="6.98852">
        <ele>421.4</ele>
        <time>2011-11-24T14:28:10Z</time>
      </trkpt>
      <trkpt lat="43.67426" lon="6.9886">
        <ele>421.7</ele>
        <time>2011-11-24T14:28:11Z</time>
      </trkpt>
      <trkpt lat="43.6742" lon="6.98869">
        <ele>421.8</ele>
        <time>2011-11-24T14:28:12Z</time>
      </trkpt>
      <trkpt lat="43.67414" lon="6.98879">
        <ele>421.8</ele>
        <time>2011-11-24T14:28:13Z</time>
      </trkpt>
      <trkpt lat="43.67408" lon="6.98888">
        <ele>422.1</ele>
        <time>2011-11-24T14:28:14Z</time>
      </trkpt>
      <trkpt lat="43.67403" lon="6.98898">
        <ele>422.1</ele>
        <time>2011-11-24T14:28:15Z</time>
      </trkpt>
      <trkpt lat="43.67397" lon="6.98908">
        <ele>421.7</ele>
        <time>2011-11-24T14:28:16Z</time>
      </trkpt>
      <trkpt lat="43.67394" lon="6.9892">
        <ele>421.7</ele>
        <time>2011-11-24T14:28:17Z</time>
      </trkpt>
      <trkpt lat="43.67391" lon="6.9893">
        <ele>421.1</ele>
        <time>2011-11-24T14:28:18Z</time>
      </trkpt>
      <trkpt lat="43.67388" lon="6.98942">
        <ele>420.9</ele>
        <time>2011-11-24T14:28:19Z</time>
      </trkpt>
      <trkpt lat="43.67387" lon="6.98955">
        <ele>419.9</ele>
        <time>2011-11-24T14:28:20Z</time>
      </trkpt>
      <trkpt lat="43.67385" lon="6.98969">
        <ele>419.4</ele>
        <time>2011-11-24T14:28:21Z</time>
      </trkpt>
      <trkpt lat="43.67383" lon="6.98982">
        <ele>419.5</ele>
        <time>2011-11-24T14:28:22Z</time>
      </trkpt>
      <trkpt lat="43.6738" lon="6.98995">
        <ele>419.2</ele>
        <time>2011-11-24T14:28:23Z</time>
      </trkpt>
      <trkpt lat="43.67377" lon="6.99008">
        <ele>418.4</ele>
        <time>2011-11-24T14:28:24Z</time>
      </trkpt>
      <trkpt lat="43.67375" lon="6.99022">
        <ele>417.4</ele>
        <time>2011-11-24T14:28:25Z</time>
      </trkpt>
      <trkpt lat="43.67371" lon="6.99035">
        <ele>416.4</ele>
        <time>2011-11-24T14:28:26Z</time>
      </trkpt>
      <trkpt lat="43.67365" lon="6.99044">
        <ele>415.1</ele>
        <time>2011-11-24T14:28:27Z</time>
      </trkpt>
      <trkpt lat="43.6736" lon="6.99054">
        <ele>414.7</ele>
        <time>2011-11-24T14:28:28Z</time>
      </trkpt>
      <trkpt lat="43.67355" lon="6.99065">
        <ele>414.2</ele>
        <time>2011-11-24T14:28:29Z</time>
      </trkpt>
      <trkpt lat="43.67349" lon="6.99074">
        <ele>413.9</ele>
        <time>2011-11-24T14:28:30Z</time>
      </trkpt>
      <trkpt lat="43.67344" lon="6.99083">
        <ele>413.9</ele>
        <time>2011-11-24T14:28:31Z</time>
      </trkpt>
      <trkpt lat="43.67338" lon="6.99092">
        <ele>413.3</ele>
        <time>2011-11-24T14:28:32Z</time>
      </trkpt>
      <trkpt lat="43.67333" lon="6.99102">
        <ele>413.2</ele>
        <time>2011-11-24T14:28:33Z</time>
      </trkpt>
      <trkpt lat="43.67328" lon="6.99111">
        <ele>413.3</ele>
        <time>2011-11-24T14:28:34Z</time>
      </trkpt>
      <trkpt lat="43.67323" lon="6.9912">
        <ele>413.3</ele>
        <time>2011-11-24T14:28:35Z</time>
      </trkpt>
      <trkpt lat="43.67318" lon="6.99129">
        <ele>413.3</ele>
        <time>2011-11-24T14:28:36Z</time>
      </trkpt>
      <trkpt lat="43.67314" lon="6.99137">
        <ele>413.5</ele>
        <time>2011-11-24T14:28:37Z</time>
      </trkpt>
      <trkpt lat="43.67309" lon="6.99145">
        <ele>413.6</ele>
        <time>2011-11-24T14:28:38Z</time>
      </trkpt>
      <trkpt lat="43.67305" lon="6.99154">
        <ele>413.5</ele>
        <time>2011-11-24T14:28:39Z</time>
      </trkpt>
      <trkpt lat="43.67301" lon="6.99162">
        <ele>413.5</ele>
        <time>2011-11-24T14:28:40Z</time>
      </trkpt>
      <trkpt lat="43.67296" lon="6.99171">
        <ele>413.7</ele>
        <time>2011-11-24T14:28:41Z</time>
      </trkpt>
      <trkpt lat="43.67292" lon="6.99179">
        <ele>413.7</ele>
        <time>2011-11-24T14:28:42Z</time>
      </trkpt>
      <trkpt lat="43.67288" lon="6.99187">
        <ele>413.5</ele>
        <time>2011-11-24T14:28:43Z</time>
      </trkpt>
      <trkpt lat="43.67285" lon="6.99195">
        <ele>413.2</ele>
        <time>2011-11-24T14:28:44Z</time>
      </trkpt>
      <trkpt lat="43.67286" lon="6.99211">
        <ele>412.1</ele>
        <time>2011-11-24T14:28:45Z</time>
      </trkpt>
      <trkpt lat="43.67285" lon="6.99222">
        <ele>411.2</ele>
        <time>2011-11-24T14:28:46Z</time>
      </trkpt>
      <trkpt lat="43.67285" lon="6.99229">
        <ele>411.4</ele>
        <time>2011-11-24T14:28:47Z</time>
      </trkpt>
      <trkpt lat="43.67286" lon="6.99239">
        <ele>411.4</ele>
        <time>2011-11-24T14:28:48Z</time>
      </trkpt>
      <trkpt lat="43.67287" lon="6.99248">
        <ele>411</ele>
        <time>2011-11-24T14:28:49Z</time>
      </trkpt>
      <trkpt lat="43.67288" lon="6.99258">
        <ele>410.9</ele>
        <time>2011-11-24T14:28:50Z</time>
      </trkpt>
      <trkpt lat="43.6729" lon="6.99267">
        <ele>410.4</ele>
        <time>2011-11-24T14:28:51Z</time>
      </trkpt>
      <trkpt lat="43.67292" lon="6.99276">
        <ele>410.4</ele>
        <time>2011-11-24T14:28:52Z</time>
      </trkpt>
      <trkpt lat="43.67295" lon="6.99288">
        <ele>410.3</ele>
        <time>2011-11-24T14:28:53Z</time>
      </trkpt>
      <trkpt lat="43.67297" lon="6.99299">
        <ele>410</ele>
        <time>2011-11-24T14:28:54Z</time>
      </trkpt>
      <trkpt lat="43.673" lon="6.9931">
        <ele>410.2</ele>
        <time>2011-11-24T14:28:55Z</time>
      </trkpt>
      <trkpt lat="43.67302" lon="6.99321">
        <ele>410.1</ele>
        <time>2011-11-24T14:28:56Z</time>
      </trkpt>
      <trkpt lat="43.67304" lon="6.99333">
        <ele>409.2</ele>
        <time>2011-11-24T14:28:57Z</time>
      </trkpt>
      <trkpt lat="43.67307" lon="6.99344">
        <ele>409.3</ele>
        <time>2011-11-24T14:28:58Z</time>
      </trkpt>
      <trkpt lat="43.67309" lon="6.99355">
        <ele>408.5</ele>
        <time>2011-11-24T14:28:59Z</time>
      </trkpt>
      <trkpt lat="43.67311" lon="6.99366">
        <ele>408.1</ele>
        <time>2011-11-24T14:29:00Z</time>
      </trkpt>
      <trkpt lat="43.67312" lon="6.99376">
        <ele>407.7</ele>
        <time>2011-11-24T14:29:01Z</time>
      </trkpt>
      <trkpt lat="43.67314" lon="6.99387">
        <ele>407.5</ele>
        <time>2011-11-24T14:29:02Z</time>
      </trkpt>
      <trkpt lat="43.67315" lon="6.99398">
        <ele>406.4</ele>
        <time>2011-11-24T14:29:03Z</time>
      </trkpt>
      <trkpt lat="43.67316" lon="6.99409">
        <ele>406</ele>
        <time>2011-11-24T14:29:04Z</time>
      </trkpt>
      <trkpt lat="43.67318" lon="6.99418">
        <ele>405.7</ele>
        <time>2011-11-24T14:29:05Z</time>
      </trkpt>
      <trkpt lat="43.67319" lon="6.99429">
        <ele>405.7</ele>
        <time>2011-11-24T14:29:06Z</time>
      </trkpt>
      <trkpt lat="43.6732" lon="6.99441">
        <ele>404.9</ele>
        <time>2011-11-24T14:29:07Z</time>
      </trkpt>
      <trkpt lat="43.67321" lon="6.99452">
        <ele>404.4</ele>
        <time>2011-11-24T14:29:08Z</time>
      </trkpt>
      <trkpt lat="43.67321" lon="6.99463">
        <ele>403.8</ele>
        <time>2011-11-24T14:29:09Z</time>
      </trkpt>
      <trkpt lat="43.67321" lon="6.99473">
        <ele>403.6</ele>
        <time>2011-11-24T14:29:10Z</time>
      </trkpt>
      <trkpt lat="43.67318" lon="6.99484">
        <ele>402.9</ele>
        <time>2011-11-24T14:29:11Z</time>
      </trkpt>
      <trkpt lat="43.67317" lon="6.99494">
        <ele>402.6</ele>
        <time>2011-11-24T14:29:12Z</time>
      </trkpt>
      <trkpt lat="43.67317" lon="6.99505">
        <ele>402.2</ele>
        <time>2011-11-24T14:29:13Z</time>
      </trkpt>
      <trkpt lat="43.67318" lon="6.99515">
        <ele>401.6</ele>
        <time>2011-11-24T14:29:14Z</time>
      </trkpt>
      <trkpt lat="43.6732" lon="6.99526">
        <ele>401.3</ele>
        <time>2011-11-24T14:29:15Z</time>
      </trkpt>
      <trkpt lat="43.67321" lon="6.99536">
        <ele>401.4</ele>
        <time>2011-11-24T14:29:16Z</time>
      </trkpt>
      <trkpt lat="43.67322" lon="6.99547">
        <ele>401.1</ele>
        <time>2011-11-24T14:29:17Z</time>
      </trkpt>
      <trkpt lat="43.67321" lon="6.99558">
        <ele>400.6</ele>
        <time>2011-11-24T14:29:18Z</time>
      </trkpt>
      <trkpt lat="43.67319" lon="6.99568">
        <ele>400.4</ele>
        <time>2011-11-24T14:29:19Z</time>
      </trkpt>
      <trkpt lat="43.67319" lon="6.99585">
        <ele>398.1</ele>
        <time>2011-11-24T14:29:20Z</time>
      </trkpt>
      <trkpt lat="43.67319" lon="6.99598">
        <ele>397.2</ele>
        <time>2011-11-24T14:29:21Z</time>
      </trkpt>
      <trkpt lat="43.67318" lon="6.99611">
        <ele>394.9</ele>
        <time>2011-11-24T14:29:22Z</time>
      </trkpt>
      <trkpt lat="43.67318" lon="6.99625">
        <ele>394</ele>
        <time>2011-11-24T14:29:23Z</time>
      </trkpt>
      <trkpt lat="43.67317" lon="6.99639">
        <ele>393.2</ele>
        <time>2011-11-24T14:29:24Z</time>
      </trkpt>
      <trkpt lat="43.67316" lon="6.99653">
        <ele>392.7</ele>
        <time>2011-11-24T14:29:25Z</time>
      </trkpt>
      <trkpt lat="43.67315" lon="6.99668">
        <ele>392.8</ele>
        <time>2011-11-24T14:29:26Z</time>
      </trkpt>
      <trkpt lat="43.67313" lon="6.99681">
        <ele>393</ele>
        <time>2011-11-24T14:29:27Z</time>
      </trkpt>
      <trkpt lat="43.67312" lon="6.99695">
        <ele>393.1</ele>
        <time>2011-11-24T14:29:28Z</time>
      </trkpt>
      <trkpt lat="43.67311" lon="6.99709">
        <ele>393.4</ele>
        <time>2011-11-24T14:29:29Z</time>
      </trkpt>
      <trkpt lat="43.6731" lon="6.99724">
        <ele>393.3</ele>
        <time>2011-11-24T14:29:30Z</time>
      </trkpt>
      <trkpt lat="43.67309" lon="6.99737">
        <ele>393.3</ele>
        <time>2011-11-24T14:29:31Z</time>
      </trkpt>
      <trkpt lat="43.67308" lon="6.99752">
        <ele>393.4</ele>
        <time>2011-11-24T14:29:32Z</time>
      </trkpt>
      <trkpt lat="43.67307" lon="6.99765">
        <ele>394.2</ele>
        <time>2011-11-24T14:29:33Z</time>
      </trkpt>
      <trkpt lat="43.67305" lon="6.99778">
        <ele>394.9</ele>
        <time>2011-11-24T14:29:34Z</time>
      </trkpt>
      <trkpt lat="43.67307" lon="6.99795">
        <ele>393.1</ele>
        <time>2011-11-24T14:29:35Z</time>
      </trkpt>
      <trkpt lat="43.67307" lon="6.99809">
        <ele>392.8</ele>
        <time>2011-11-24T14:29:36Z</time>
      </trkpt>
      <trkpt lat="43.67306" lon="6.99822">
        <ele>392.2</ele>
        <time>2011-11-24T14:29:37Z</time>
      </trkpt>
      <trkpt lat="43.67307" lon="6.99838">
        <ele>390.1</ele>
        <time>2011-11-24T14:29:38Z</time>
      </trkpt>
      <trkpt lat="43.6731" lon="6.99851">
        <ele>389.2</ele>
        <time>2011-11-24T14:29:39Z</time>
      </trkpt>
      <trkpt lat="43.67311" lon="6.99865">
        <ele>388.4</ele>
        <time>2011-11-24T14:29:40Z</time>
      </trkpt>
      <trkpt lat="43.67313" lon="6.99878">
        <ele>388.1</ele>
        <time>2011-11-24T14:29:41Z</time>
      </trkpt>
      <trkpt lat="43.67315" lon="6.99892">
        <ele>387.6</ele>
        <time>2011-11-24T14:29:42Z</time>
      </trkpt>
      <trkpt lat="43.67316" lon="6.99907">
        <ele>386.3</ele>
        <time>2011-11-24T14:29:43Z</time>
      </trkpt>
      <trkpt lat="43.67318" lon="6.99921">
        <ele>386.1</ele>
        <time>2011-11-24T14:29:44Z</time>
      </trkpt>
      <trkpt lat="43.67321" lon="6.99935">
        <ele>385.7</ele>
        <time>2011-11-24T14:29:45Z</time>
      </trkpt>
      <trkpt lat="43.67324" lon="6.99948">
        <ele>385.9</ele>
        <time>2011-11-24T14:29:46Z</time>
      </trkpt>
      <trkpt lat="43.67327" lon="6.99961">
        <ele>385.5</ele>
        <time>2011-11-24T14:29:47Z</time>
      </trkpt>
      <trkpt lat="43.67331" lon="6.99973">
        <ele>385.3</ele>
        <time>2011-11-24T14:29:48Z</time>
      </trkpt>
      <trkpt lat="43.67333" lon="6.99988">
        <ele>383.2</ele>
        <time>2011-11-24T14:29:49Z</time>
      </trkpt>
      <trkpt lat="43.67336" lon="7.00003">
        <ele>382.9</ele>
        <time>2011-11-24T14:29:50Z</time>
      </trkpt>
      <trkpt lat="43.67339" lon="7.00017">
        <ele>382.5</ele>
        <time>2011-11-24T14:29:51Z</time>
      </trkpt>
      <trkpt lat="43.67341" lon="7.0003">
        <ele>381.7</ele>
        <time>2011-11-24T14:29:52Z</time>
      </trkpt>
      <trkpt lat="43.67344" lon="7.00044">
        <ele>380.6</ele>
        <time>2011-11-24T14:29:53Z</time>
      </trkpt>
      <trkpt lat="43.67346" lon="7.00056">
        <ele>379.9</ele>
        <time>2011-11-24T14:29:54Z</time>
      </trkpt>
      <trkpt lat="43.67348" lon="7.0007">
        <ele>379.3</ele>
        <time>2011-11-24T14:29:55Z</time>
      </trkpt>
      <trkpt lat="43.67351" lon="7.00083">
        <ele>378.9</ele>
        <time>2011-11-24T14:29:56Z</time>
      </trkpt>
      <trkpt lat="43.67352" lon="7.00098">
        <ele>378.3</ele>
        <time>2011-11-24T14:29:57Z</time>
      </trkpt>
      <trkpt lat="43.67353" lon="7.00112">
        <ele>377.4</ele>
        <time>2011-11-24T14:29:58Z</time>
      </trkpt>
      <trkpt lat="43.67353" lon="7.00127">
        <ele>376</ele>
        <time>2011-11-24T14:29:59Z</time>
      </trkpt>
      <trkpt lat="43.67353" lon="7.0014">
        <ele>374.5</ele>
        <time>2011-11-24T14:30:00Z</time>
      </trkpt>
      <trkpt lat="43.67354" lon="7.00153">
        <ele>374.2</ele>
        <time>2011-11-24T14:30:01Z</time>
      </trkpt>
      <trkpt lat="43.67354" lon="7.00167">
        <ele>373.9</ele>
        <time>2011-11-24T14:30:02Z</time>
      </trkpt>
      <trkpt lat="43.67352" lon="7.00179">
        <ele>372.7</ele>
        <time>2011-11-24T14:30:03Z</time>
      </trkpt>
      <trkpt lat="43.6735" lon="7.00193">
        <ele>371.9</ele>
        <time>2011-11-24T14:30:04Z</time>
      </trkpt>
      <trkpt lat="43.67348" lon="7.00206">
        <ele>371.7</ele>
        <time>2011-11-24T14:30:05Z</time>
      </trkpt>
      <trkpt lat="43.67347" lon="7.00218">
        <ele>371.6</ele>
        <time>2011-11-24T14:30:06Z</time>
      </trkpt>
      <trkpt lat="43.67344" lon="7.00231">
        <ele>371.7</ele>
        <time>2011-11-24T14:30:07Z</time>
      </trkpt>
      <trkpt lat="43.67342" lon="7.00242">
        <ele>371.2</ele>
        <time>2011-11-24T14:30:08Z</time>
      </trkpt>
      <trkpt lat="43.67341" lon="7.00253">
        <ele>371.2</ele>
        <time>2011-11-24T14:30:09Z</time>
      </trkpt>
      <trkpt lat="43.6734" lon="7.00265">
        <ele>371</ele>
        <time>2011-11-24T14:30:10Z</time>
      </trkpt>
      <trkpt lat="43.67339" lon="7.00277">
        <ele>371.1</ele>
        <time>2011-11-24T14:30:11Z</time>
      </trkpt>
      <trkpt lat="43.6734" lon="7.00289">
        <ele>371.4</ele>
        <time>2011-11-24T14:30:12Z</time>
      </trkpt>
      <trkpt lat="43.67338" lon="7.00301">
        <ele>371.6</ele>
        <time>2011-11-24T14:30:13Z</time>
      </trkpt>
      <trkpt lat="43.67338" lon="7.00311">
        <ele>371.3</ele>
        <time>2011-11-24T14:30:14Z</time>
      </trkpt>
      <trkpt lat="43.6734" lon="7.00325">
        <ele>371.5</ele>
        <time>2011-11-24T14:30:15Z</time>
      </trkpt>
      <trkpt lat="43.67342" lon="7.00335">
        <ele>372.2</ele>
        <time>2011-11-24T14:30:16Z</time>
      </trkpt>
      <trkpt lat="43.67344" lon="7.00346">
        <ele>372.5</ele>
        <time>2011-11-24T14:30:17Z</time>
      </trkpt>
      <trkpt lat="43.67345" lon="7.00357">
        <ele>373.2</ele>
        <time>2011-11-24T14:30:18Z</time>
      </trkpt>
      <trkpt lat="43.67348" lon="7.00369">
        <ele>373.7</ele>
        <time>2011-11-24T14:30:19Z</time>
      </trkpt>
      <trkpt lat="43.6735" lon="7.0038">
        <ele>374.1</ele>
        <time>2011-11-24T14:30:20Z</time>
      </trkpt>
      <trkpt lat="43.67354" lon="7.0039">
        <ele>370.7</ele>
        <time>2011-11-24T14:30:21Z</time>
      </trkpt>
      <trkpt lat="43.67358" lon="7.00401">
        <ele>370.8</ele>
        <time>2011-11-24T14:30:22Z</time>
      </trkpt>
      <trkpt lat="43.67362" lon="7.00412">
        <ele>371</ele>
        <time>2011-11-24T14:30:23Z</time>
      </trkpt>
      <trkpt lat="43.67369" lon="7.00423">
        <ele>371.6</ele>
        <time>2011-11-24T14:30:24Z</time>
      </trkpt>
      <trkpt lat="43.67375" lon="7.00432">
        <ele>370.2</ele>
        <time>2011-11-24T14:30:25Z</time>
      </trkpt>
      <trkpt lat="43.6738" lon="7.00442">
        <ele>369.1</ele>
        <time>2011-11-24T14:30:26Z</time>
      </trkpt>
      <trkpt lat="43.67387" lon="7.00453">
        <ele>368.4</ele>
        <time>2011-11-24T14:30:27Z</time>
      </trkpt>
      <trkpt lat="43.67393" lon="7.00462">
        <ele>368.1</ele>
        <time>2011-11-24T14:30:28Z</time>
      </trkpt>
      <trkpt lat="43.674" lon="7.00472">
        <ele>368.2</ele>
        <time>2011-11-24T14:30:29Z</time>
      </trkpt>
      <trkpt lat="43.67406" lon="7.00484">
        <ele>368.4</ele>
        <time>2011-11-24T14:30:30Z</time>
      </trkpt>
      <trkpt lat="43.67409" lon="7.00496">
        <ele>366.4</ele>
        <time>2011-11-24T14:30:31Z</time>
      </trkpt>
      <trkpt lat="43.67414" lon="7.00506">
        <ele>365</ele>
        <time>2011-11-24T14:30:32Z</time>
      </trkpt>
      <trkpt lat="43.6742" lon="7.00517">
        <ele>364.4</ele>
        <time>2011-11-24T14:30:33Z</time>
      </trkpt>
      <trkpt lat="43.67424" lon="7.00528">
        <ele>364.8</ele>
        <time>2011-11-24T14:30:34Z</time>
      </trkpt>
      <trkpt lat="43.67424" lon="7.0054">
        <ele>364.7</ele>
        <time>2011-11-24T14:30:35Z</time>
      </trkpt>
      <trkpt lat="43.67422" lon="7.00554">
        <ele>364.5</ele>
        <time>2011-11-24T14:30:36Z</time>
      </trkpt>
      <trkpt lat="43.6742" lon="7.00568">
        <ele>364.3</ele>
        <time>2011-11-24T14:30:37Z</time>
      </trkpt>
      <trkpt lat="43.67418" lon="7.00582">
        <ele>364.3</ele>
        <time>2011-11-24T14:30:38Z</time>
      </trkpt>
      <trkpt lat="43.67418" lon="7.00595">
        <ele>363.9</ele>
        <time>2011-11-24T14:30:39Z</time>
      </trkpt>
      <trkpt lat="43.67418" lon="7.00608">
        <ele>363.5</ele>
        <time>2011-11-24T14:30:40Z</time>
      </trkpt>
      <trkpt lat="43.67418" lon="7.0062">
        <ele>363.6</ele>
        <time>2011-11-24T14:30:41Z</time>
      </trkpt>
      <trkpt lat="43.67418" lon="7.00633">
        <ele>363</ele>
        <time>2011-11-24T14:30:42Z</time>
      </trkpt>
      <trkpt lat="43.67418" lon="7.00647">
        <ele>362.5</ele>
        <time>2011-11-24T14:30:43Z</time>
      </trkpt>
      <trkpt lat="43.67415" lon="7.00663">
        <ele>362.1</ele>
        <time>2011-11-24T14:30:44Z</time>
      </trkpt>
      <trkpt lat="43.67413" lon="7.00677">
        <ele>361.9</ele>
        <time>2011-11-24T14:30:45Z</time>
      </trkpt>
      <trkpt lat="43.67408" lon="7.00691">
        <ele>359.7</ele>
        <time>2011-11-24T14:30:46Z</time>
      </trkpt>
      <trkpt lat="43.67407" lon="7.00705">
        <ele>359.1</ele>
        <time>2011-11-24T14:30:47Z</time>
      </trkpt>
      <trkpt lat="43.67406" lon="7.00719">
        <ele>357.9</ele>
        <time>2011-11-24T14:30:48Z</time>
      </trkpt>
      <trkpt lat="43.67406" lon="7.00734">
        <ele>357.6</ele>
        <time>2011-11-24T14:30:49Z</time>
      </trkpt>
      <trkpt lat="43.67405" lon="7.00748">
        <ele>357.5</ele>
        <time>2011-11-24T14:30:50Z</time>
      </trkpt>
      <trkpt lat="43.67404" lon="7.00761">
        <ele>357.8</ele>
        <time>2011-11-24T14:30:51Z</time>
      </trkpt>
      <trkpt lat="43.67405" lon="7.00774">
        <ele>358.1</ele>
        <time>2011-11-24T14:30:52Z</time>
      </trkpt>
      <trkpt lat="43.67407" lon="7.00788">
        <ele>358.5</ele>
        <time>2011-11-24T14:30:53Z</time>
      </trkpt>
      <trkpt lat="43.67409" lon="7.008">
        <ele>358.8</ele>
        <time>2011-11-24T14:30:54Z</time>
      </trkpt>
      <trkpt lat="43.67413" lon="7.00816">
        <ele>357.8</ele>
        <time>2011-11-24T14:30:55Z</time>
      </trkpt>
      <trkpt lat="43.67416" lon="7.00829">
        <ele>356.3</ele>
        <time>2011-11-24T14:30:56Z</time>
      </trkpt>
      <trkpt lat="43.67418" lon="7.0084">
        <ele>355.3</ele>
        <time>2011-11-24T14:30:57Z</time>
      </trkpt>
      <trkpt lat="43.67423" lon="7.00852">
        <ele>354.8</ele>
        <time>2011-11-24T14:30:58Z</time>
      </trkpt>
      <trkpt lat="43.67428" lon="7.00863">
        <ele>354.4</ele>
        <time>2011-11-24T14:30:59Z</time>
      </trkpt>
      <trkpt lat="43.67433" lon="7.00874">
        <ele>355</ele>
        <time>2011-11-24T14:31:00Z</time>
      </trkpt>
      <trkpt lat="43.67437" lon="7.00884">
        <ele>354.9</ele>
        <time>2011-11-24T14:31:01Z</time>
      </trkpt>
      <trkpt lat="43.67442" lon="7.00897">
        <ele>354.9</ele>
        <time>2011-11-24T14:31:02Z</time>
      </trkpt>
      <trkpt lat="43.67446" lon="7.00909">
        <ele>353.2</ele>
        <time>2011-11-24T14:31:03Z</time>
      </trkpt>
      <trkpt lat="43.6745" lon="7.0092">
        <ele>353</ele>
        <time>2011-11-24T14:31:04Z</time>
      </trkpt>
      <trkpt lat="43.67454" lon="7.00932">
        <ele>353.1</ele>
        <time>2011-11-24T14:31:05Z</time>
      </trkpt>
      <trkpt lat="43.67457" lon="7.00944">
        <ele>353.2</ele>
        <time>2011-11-24T14:31:06Z</time>
      </trkpt>
      <trkpt lat="43.67459" lon="7.00956">
        <ele>353.1</ele>
        <time>2011-11-24T14:31:07Z</time>
      </trkpt>
      <trkpt lat="43.67462" lon="7.00968">
        <ele>352.8</ele>
        <time>2011-11-24T14:31:08Z</time>
      </trkpt>
      <trkpt lat="43.67464" lon="7.00979">
        <ele>352.5</ele>
        <time>2011-11-24T14:31:09Z</time>
      </trkpt>
      <trkpt lat="43.67467" lon="7.00992">
        <ele>351.4</ele>
        <time>2011-11-24T14:31:10Z</time>
      </trkpt>
      <trkpt lat="43.67469" lon="7.01005">
        <ele>350.6</ele>
        <time>2011-11-24T14:31:11Z</time>
      </trkpt>
      <trkpt lat="43.67472" lon="7.01017">
        <ele>349.9</ele>
        <time>2011-11-24T14:31:12Z</time>
      </trkpt>
      <trkpt lat="43.67476" lon="7.01029">
        <ele>349.3</ele>
        <time>2011-11-24T14:31:13Z</time>
      </trkpt>
      <trkpt lat="43.6748" lon="7.0104">
        <ele>349</ele>
        <time>2011-11-24T14:31:14Z</time>
      </trkpt>
      <trkpt lat="43.6749" lon="7.01049">
        <ele>348.1</ele>
        <time>2011-11-24T14:31:15Z</time>
      </trkpt>
      <trkpt lat="43.675" lon="7.01054">
        <ele>346.9</ele>
        <time>2011-11-24T14:31:16Z</time>
      </trkpt>
      <trkpt lat="43.67509" lon="7.0106">
        <ele>346.1</ele>
        <time>2011-11-24T14:31:17Z</time>
      </trkpt>
      <trkpt lat="43.67518" lon="7.01065">
        <ele>345.9</ele>
        <time>2011-11-24T14:31:18Z</time>
      </trkpt>
      <trkpt lat="43.67526" lon="7.01071">
        <ele>345.7</ele>
        <time>2011-11-24T14:31:19Z</time>
      </trkpt>
      <trkpt lat="43.67535" lon="7.01078">
        <ele>345.6</ele>
        <time>2011-11-24T14:31:20Z</time>
      </trkpt>
      <trkpt lat="43.67543" lon="7.01085">
        <ele>345</ele>
        <time>2011-11-24T14:31:21Z</time>
      </trkpt>
      <trkpt lat="43.67551" lon="7.01092">
        <ele>344.4</ele>
        <time>2011-11-24T14:31:22Z</time>
      </trkpt>
      <trkpt lat="43.67557" lon="7.01101">
        <ele>344</ele>
        <time>2011-11-24T14:31:23Z</time>
      </trkpt>
      <trkpt lat="43.67564" lon="7.0111">
        <ele>343.8</ele>
        <time>2011-11-24T14:31:24Z</time>
      </trkpt>
      <trkpt lat="43.67567" lon="7.0112">
        <ele>343.8</ele>
        <time>2011-11-24T14:31:25Z</time>
      </trkpt>
      <trkpt lat="43.67571" lon="7.01129">
        <ele>343.8</ele>
        <time>2011-11-24T14:31:26Z</time>
      </trkpt>
      <trkpt lat="43.67576" lon="7.01138">
        <ele>344.5</ele>
        <time>2011-11-24T14:31:27Z</time>
      </trkpt>
      <trkpt lat="43.6758" lon="7.01147">
        <ele>343.7</ele>
        <time>2011-11-24T14:31:28Z</time>
      </trkpt>
      <trkpt lat="43.67585" lon="7.01154">
        <ele>344.3</ele>
        <time>2011-11-24T14:31:29Z</time>
      </trkpt>
      <trkpt lat="43.6759" lon="7.01163">
        <ele>344.7</ele>
        <time>2011-11-24T14:31:30Z</time>
      </trkpt>
      <trkpt lat="43.67594" lon="7.01172">
        <ele>345</ele>
        <time>2011-11-24T14:31:31Z</time>
      </trkpt>
      <trkpt lat="43.67597" lon="7.01178">
        <ele>345.3</ele>
        <time>2011-11-24T14:31:32Z</time>
      </trkpt>
      <trkpt lat="43.67598" lon="7.01185">
        <ele>344.9</ele>
        <time>2011-11-24T14:31:33Z</time>
      </trkpt>
      <trkpt lat="43.67603" lon="7.01186">
        <ele>343.2</ele>
        <time>2011-11-24T14:31:36Z</time>
      </trkpt>
      <trkpt lat="43.67601" lon="7.01179">
        <ele>341.9</ele>
        <time>2011-11-24T14:31:39Z</time>
      </trkpt>
      <trkpt lat="43.67598" lon="7.01174">
        <ele>341.3</ele>
        <time>2011-11-24T14:31:42Z</time>
      </trkpt>
      <trkpt lat="43.67596" lon="7.01168">
        <ele>341.6</ele>
        <time>2011-11-24T14:31:44Z</time>
      </trkpt>
      <trkpt lat="43.67593" lon="7.01162">
        <ele>341.5</ele>
        <time>2011-11-24T14:31:46Z</time>
      </trkpt>
      <trkpt lat="43.67589" lon="7.01156">
        <ele>343.4</ele>
        <time>2011-11-24T14:31:48Z</time>
      </trkpt>
      <trkpt lat="43.67586" lon="7.0115">
        <ele>345.4</ele>
        <time>2011-11-24T14:31:50Z</time>
      </trkpt>
      <trkpt lat="43.67582" lon="7.01144">
        <ele>344.9</ele>
        <time>2011-11-24T14:31:52Z</time>
      </trkpt>
      <trkpt lat="43.67579" lon="7.01136">
        <ele>344.2</ele>
        <time>2011-11-24T14:31:55Z</time>
      </trkpt>
      <trkpt lat="43.67576" lon="7.01129">
        <ele>344.4</ele>
        <time>2011-11-24T14:31:57Z</time>
      </trkpt>
      <trkpt lat="43.67574" lon="7.01124">
        <ele>343.8</ele>
        <time>2011-11-24T14:31:59Z</time>
      </trkpt>
      <trkpt lat="43.6757" lon="7.01117">
        <ele>344.2</ele>
        <time>2011-11-24T14:32:02Z</time>
      </trkpt>
      <trkpt lat="43.67572" lon="7.01125">
        <ele>345</ele>
        <time>2011-11-24T14:32:05Z</time>
      </trkpt>
      <trkpt lat="43.67575" lon="7.01135">
        <ele>343.9</ele>
        <time>2011-11-24T14:32:08Z</time>
      </trkpt>
      <trkpt lat="43.67578" lon="7.01141">
        <ele>343.2</ele>
        <time>2011-11-24T14:32:09Z</time>
      </trkpt>
      <trkpt lat="43.67581" lon="7.01146">
        <ele>343.2</ele>
        <time>2011-11-24T14:32:10Z</time>
      </trkpt>
      <trkpt lat="43.67584" lon="7.01152">
        <ele>343.4</ele>
        <time>2011-11-24T14:32:11Z</time>
      </trkpt>
      <trkpt lat="43.6759" lon="7.01163">
        <ele>343.7</ele>
        <time>2011-11-24T14:32:13Z</time>
      </trkpt>
      <trkpt lat="43.67594" lon="7.01169">
        <ele>344.6</ele>
        <time>2011-11-24T14:32:14Z</time>
      </trkpt>
      <trkpt lat="43.67596" lon="7.01177">
        <ele>344.2</ele>
        <time>2011-11-24T14:32:15Z</time>
      </trkpt>
      <trkpt lat="43.67598" lon="7.01185">
        <ele>344.1</ele>
        <time>2011-11-24T14:32:16Z</time>
      </trkpt>
      <trkpt lat="43.67601" lon="7.01192">
        <ele>344</ele>
        <time>2011-11-24T14:32:17Z</time>
      </trkpt>
      <trkpt lat="43.67603" lon="7.01199">
        <ele>344.2</ele>
        <time>2011-11-24T14:32:18Z</time>
      </trkpt>
      <trkpt lat="43.67607" lon="7.01206">
        <ele>344.2</ele>
        <time>2011-11-24T14:32:19Z</time>
      </trkpt>
      <trkpt lat="43.6761" lon="7.01213">
        <ele>344.5</ele>
        <time>2011-11-24T14:32:20Z</time>
      </trkpt>
      <trkpt lat="43.67617" lon="7.01222">
        <ele>344</ele>
        <time>2011-11-24T14:32:21Z</time>
      </trkpt>
      <trkpt lat="43.67621" lon="7.01233">
        <ele>344.3</ele>
        <time>2011-11-24T14:32:22Z</time>
      </trkpt>
      <trkpt lat="43.67624" lon="7.0124">
        <ele>343.5</ele>
        <time>2011-11-24T14:32:23Z</time>
      </trkpt>
      <trkpt lat="43.67628" lon="7.01248">
        <ele>343.3</ele>
        <time>2011-11-24T14:32:24Z</time>
      </trkpt>
      <trkpt lat="43.67634" lon="7.01257">
        <ele>342.1</ele>
        <time>2011-11-24T14:32:25Z</time>
      </trkpt>
      <trkpt lat="43.67638" lon="7.01266">
        <ele>342.1</ele>
        <time>2011-11-24T14:32:26Z</time>
      </trkpt>
      <trkpt lat="43.67642" lon="7.01276">
        <ele>342.6</ele>
        <time>2011-11-24T14:32:27Z</time>
      </trkpt>
      <trkpt lat="43.67646" lon="7.01286">
        <ele>341.5</ele>
        <time>2011-11-24T14:32:28Z</time>
      </trkpt>
      <trkpt lat="43.67651" lon="7.01294">
        <ele>340.3</ele>
        <time>2011-11-24T14:32:29Z</time>
      </trkpt>
      <trkpt lat="43.67655" lon="7.01303">
        <ele>338.7</ele>
        <time>2011-11-24T14:32:30Z</time>
      </trkpt>
      <trkpt lat="43.67658" lon="7.01313">
        <ele>338.9</ele>
        <time>2011-11-24T14:32:31Z</time>
      </trkpt>
      <trkpt lat="43.67661" lon="7.01324">
        <ele>339.1</ele>
        <time>2011-11-24T14:32:32Z</time>
      </trkpt>
      <trkpt lat="43.67664" lon="7.01334">
        <ele>339.5</ele>
        <time>2011-11-24T14:32:33Z</time>
      </trkpt>
      <trkpt lat="43.67664" lon="7.01346">
        <ele>339.5</ele>
        <time>2011-11-24T14:32:34Z</time>
      </trkpt>
      <trkpt lat="43.67663" lon="7.01358">
        <ele>339.6</ele>
        <time>2011-11-24T14:32:35Z</time>
      </trkpt>
      <trkpt lat="43.6766" lon="7.01369">
        <ele>339.5</ele>
        <time>2011-11-24T14:32:36Z</time>
      </trkpt>
      <trkpt lat="43.67659" lon="7.01381">
        <ele>338.9</ele>
        <time>2011-11-24T14:32:37Z</time>
      </trkpt>
      <trkpt lat="43.67654" lon="7.0139">
        <ele>338</ele>
        <time>2011-11-24T14:32:38Z</time>
      </trkpt>
      <trkpt lat="43.67649" lon="7.014">
        <ele>337.2</ele>
        <time>2011-11-24T14:32:39Z</time>
      </trkpt>
      <trkpt lat="43.67646" lon="7.01414">
        <ele>337.3</ele>
        <time>2011-11-24T14:32:40Z</time>
      </trkpt>
      <trkpt lat="43.67642" lon="7.01424">
        <ele>336.5</ele>
        <time>2011-11-24T14:32:41Z</time>
      </trkpt>
      <trkpt lat="43.67638" lon="7.01436">
        <ele>336.7</ele>
        <time>2011-11-24T14:32:42Z</time>
      </trkpt>
      <trkpt lat="43.67635" lon="7.01447">
        <ele>336.2</ele>
        <time>2011-11-24T14:32:43Z</time>
      </trkpt>
      <trkpt lat="43.67633" lon="7.01457">
        <ele>335.7</ele>
        <time>2011-11-24T14:32:44Z</time>
      </trkpt>
      <trkpt lat="43.67632" lon="7.01467">
        <ele>335.5</ele>
        <time>2011-11-24T14:32:45Z</time>
      </trkpt>
      <trkpt lat="43.67632" lon="7.01478">
        <ele>335.2</ele>
        <time>2011-11-24T14:32:46Z</time>
      </trkpt>
      <trkpt lat="43.67631" lon="7.01488">
        <ele>335</ele>
        <time>2011-11-24T14:32:47Z</time>
      </trkpt>
      <trkpt lat="43.67632" lon="7.01497">
        <ele>334.8</ele>
        <time>2011-11-24T14:32:48Z</time>
      </trkpt>
      <trkpt lat="43.67637" lon="7.01511">
        <ele>334.3</ele>
        <time>2011-11-24T14:32:49Z</time>
      </trkpt>
      <trkpt lat="43.67642" lon="7.01525">
        <ele>333.5</ele>
        <time>2011-11-24T14:32:50Z</time>
      </trkpt>
      <trkpt lat="43.67645" lon="7.01535">
        <ele>332</ele>
        <time>2011-11-24T14:32:51Z</time>
      </trkpt>
      <trkpt lat="43.67649" lon="7.01545">
        <ele>331.5</ele>
        <time>2011-11-24T14:32:52Z</time>
      </trkpt>
      <trkpt lat="43.67654" lon="7.01554">
        <ele>331.1</ele>
        <time>2011-11-24T14:32:53Z</time>
      </trkpt>
      <trkpt lat="43.67659" lon="7.01564">
        <ele>330.3</ele>
        <time>2011-11-24T14:32:54Z</time>
      </trkpt>
      <trkpt lat="43.67665" lon="7.01573">
        <ele>330.6</ele>
        <time>2011-11-24T14:32:55Z</time>
      </trkpt>
      <trkpt lat="43.6767" lon="7.01583">
        <ele>330.1</ele>
        <time>2011-11-24T14:32:56Z</time>
      </trkpt>
      <trkpt lat="43.67676" lon="7.01592">
        <ele>329.3</ele>
        <time>2011-11-24T14:32:57Z</time>
      </trkpt>
      <trkpt lat="43.67682" lon="7.01601">
        <ele>328.8</ele>
        <time>2011-11-24T14:32:58Z</time>
      </trkpt>
      <trkpt lat="43.67689" lon="7.01611">
        <ele>329</ele>
        <time>2011-11-24T14:32:59Z</time>
      </trkpt>
      <trkpt lat="43.67694" lon="7.01621">
        <ele>328.4</ele>
        <time>2011-11-24T14:33:00Z</time>
      </trkpt>
      <trkpt lat="43.677" lon="7.01632">
        <ele>328.4</ele>
        <time>2011-11-24T14:33:01Z</time>
      </trkpt>
      <trkpt lat="43.67704" lon="7.01643">
        <ele>327.7</ele>
        <time>2011-11-24T14:33:02Z</time>
      </trkpt>
      <trkpt lat="43.67709" lon="7.01653">
        <ele>327.6</ele>
        <time>2011-11-24T14:33:03Z</time>
      </trkpt>
      <trkpt lat="43.67712" lon="7.01665">
        <ele>327.6</ele>
        <time>2011-11-24T14:33:04Z</time>
      </trkpt>
      <trkpt lat="43.67714" lon="7.01676">
        <ele>327.9</ele>
        <time>2011-11-24T14:33:05Z</time>
      </trkpt>
      <trkpt lat="43.67716" lon="7.01687">
        <ele>327.6</ele>
        <time>2011-11-24T14:33:06Z</time>
      </trkpt>
      <trkpt lat="43.67716" lon="7.017">
        <ele>327.6</ele>
        <time>2011-11-24T14:33:07Z</time>
      </trkpt>
      <trkpt lat="43.67717" lon="7.01711">
        <ele>327.6</ele>
        <time>2011-11-24T14:33:08Z</time>
      </trkpt>
      <trkpt lat="43.67716" lon="7.01724">
        <ele>327.5</ele>
        <time>2011-11-24T14:33:09Z</time>
      </trkpt>
      <trkpt lat="43.67715" lon="7.01737">
        <ele>327.7</ele>
        <time>2011-11-24T14:33:10Z</time>
      </trkpt>
      <trkpt lat="43.67713" lon="7.0175">
        <ele>327.4</ele>
        <time>2011-11-24T14:33:11Z</time>
      </trkpt>
      <trkpt lat="43.67709" lon="7.01758">
        <ele>327</ele>
        <time>2011-11-24T14:33:12Z</time>
      </trkpt>
      <trkpt lat="43.67707" lon="7.0177">
        <ele>326.8</ele>
        <time>2011-11-24T14:33:13Z</time>
      </trkpt>
      <trkpt lat="43.67704" lon="7.01782">
        <ele>326.6</ele>
        <time>2011-11-24T14:33:14Z</time>
      </trkpt>
      <trkpt lat="43.67697" lon="7.01788">
        <ele>325.7</ele>
        <time>2011-11-24T14:33:15Z</time>
      </trkpt>
      <trkpt lat="43.67692" lon="7.01796">
        <ele>325.9</ele>
        <time>2011-11-24T14:33:16Z</time>
      </trkpt>
      <trkpt lat="43.67686" lon="7.01804">
        <ele>325.9</ele>
        <time>2011-11-24T14:33:17Z</time>
      </trkpt>
      <trkpt lat="43.67682" lon="7.01813">
        <ele>325.6</ele>
        <time>2011-11-24T14:33:18Z</time>
      </trkpt>
      <trkpt lat="43.6768" lon="7.01823">
        <ele>325.5</ele>
        <time>2011-11-24T14:33:19Z</time>
      </trkpt>
      <trkpt lat="43.67679" lon="7.01833">
        <ele>325.9</ele>
        <time>2011-11-24T14:33:20Z</time>
      </trkpt>
      <trkpt lat="43.67676" lon="7.01842">
        <ele>326.4</ele>
        <time>2011-11-24T14:33:21Z</time>
      </trkpt>
      <trkpt lat="43.6767" lon="7.01848">
        <ele>326.2</ele>
        <time>2011-11-24T14:33:22Z</time>
      </trkpt>
      <trkpt lat="43.67665" lon="7.01855">
        <ele>326.4</ele>
        <time>2011-11-24T14:33:23Z</time>
      </trkpt>
      <trkpt lat="43.6766" lon="7.01863">
        <ele>326.3</ele>
        <time>2011-11-24T14:33:24Z</time>
      </trkpt>
      <trkpt lat="43.67657" lon="7.0187">
        <ele>326.7</ele>
        <time>2011-11-24T14:33:25Z</time>
      </trkpt>
      <trkpt lat="43.67652" lon="7.01876">
        <ele>326.7</ele>
        <time>2011-11-24T14:33:26Z</time>
      </trkpt>
      <trkpt lat="43.67647" lon="7.01883">
        <ele>327.1</ele>
        <time>2011-11-24T14:33:27Z</time>
      </trkpt>
      <trkpt lat="43.67643" lon="7.01892">
        <ele>326.8</ele>
        <time>2011-11-24T14:33:28Z</time>
      </trkpt>
      <trkpt lat="43.67639" lon="7.01899">
        <ele>327</ele>
        <time>2011-11-24T14:33:29Z</time>
      </trkpt>
      <trkpt lat="43.67634" lon="7.01907">
        <ele>327.1</ele>
        <time>2011-11-24T14:33:30Z</time>
      </trkpt>
      <trkpt lat="43.6763" lon="7.01914">
        <ele>328</ele>
        <time>2011-11-24T14:33:31Z</time>
      </trkpt>
      <trkpt lat="43.67626" lon="7.01922">
        <ele>328.7</ele>
        <time>2011-11-24T14:33:32Z</time>
      </trkpt>
      <trkpt lat="43.67622" lon="7.01929">
        <ele>328.7</ele>
        <time>2011-11-24T14:33:33Z</time>
      </trkpt>
      <trkpt lat="43.67618" lon="7.01937">
        <ele>330</ele>
        <time>2011-11-24T14:33:34Z</time>
      </trkpt>
      <trkpt lat="43.67614" lon="7.01945">
        <ele>330.3</ele>
        <time>2011-11-24T14:33:35Z</time>
      </trkpt>
      <trkpt lat="43.67609" lon="7.01952">
        <ele>330.6</ele>
        <time>2011-11-24T14:33:36Z</time>
      </trkpt>
      <trkpt lat="43.67605" lon="7.01959">
        <ele>330.4</ele>
        <time>2011-11-24T14:33:37Z</time>
      </trkpt>
      <trkpt lat="43.676" lon="7.01967">
        <ele>330.8</ele>
        <time>2011-11-24T14:33:38Z</time>
      </trkpt>
      <trkpt lat="43.67591" lon="7.01972">
        <ele>331.1</ele>
        <time>2011-11-24T14:33:39Z</time>
      </trkpt>
      <trkpt lat="43.67587" lon="7.01982">
        <ele>329.8</ele>
        <time>2011-11-24T14:33:40Z</time>
      </trkpt>
      <trkpt lat="43.67582" lon="7.01988">
        <ele>329.1</ele>
        <time>2011-11-24T14:33:41Z</time>
      </trkpt>
      <trkpt lat="43.6758" lon="7.01999">
        <ele>328.5</ele>
        <time>2011-11-24T14:33:42Z</time>
      </trkpt>
      <trkpt lat="43.67576" lon="7.02009">
        <ele>328.5</ele>
        <time>2011-11-24T14:33:43Z</time>
      </trkpt>
      <trkpt lat="43.67574" lon="7.02021">
        <ele>327.8</ele>
        <time>2011-11-24T14:33:44Z</time>
      </trkpt>
      <trkpt lat="43.67571" lon="7.02031">
        <ele>327.3</ele>
        <time>2011-11-24T14:33:45Z</time>
      </trkpt>
      <trkpt lat="43.67571" lon="7.02044">
        <ele>327.2</ele>
        <time>2011-11-24T14:33:46Z</time>
      </trkpt>
      <trkpt lat="43.67571" lon="7.02056">
        <ele>326.9</ele>
        <time>2011-11-24T14:33:47Z</time>
      </trkpt>
      <trkpt lat="43.67571" lon="7.02067">
        <ele>326.7</ele>
        <time>2011-11-24T14:33:48Z</time>
      </trkpt>
      <trkpt lat="43.67572" lon="7.02078">
        <ele>326.6</ele>
        <time>2011-11-24T14:33:49Z</time>
      </trkpt>
      <trkpt lat="43.67575" lon="7.02091">
        <ele>326.6</ele>
        <time>2011-11-24T14:33:50Z</time>
      </trkpt>
      <trkpt lat="43.67578" lon="7.02101">
        <ele>326.1</ele>
        <time>2011-11-24T14:33:51Z</time>
      </trkpt>
      <trkpt lat="43.6758" lon="7.02112">
        <ele>324.5</ele>
        <time>2011-11-24T14:33:52Z</time>
      </trkpt>
      <trkpt lat="43.67582" lon="7.02124">
        <ele>324.4</ele>
        <time>2011-11-24T14:33:53Z</time>
      </trkpt>
      <trkpt lat="43.67583" lon="7.02135">
        <ele>324.2</ele>
        <time>2011-11-24T14:33:54Z</time>
      </trkpt>
      <trkpt lat="43.67584" lon="7.02145">
        <ele>323.9</ele>
        <time>2011-11-24T14:33:55Z</time>
      </trkpt>
      <trkpt lat="43.67581" lon="7.02156">
        <ele>323.7</ele>
        <time>2011-11-24T14:33:56Z</time>
      </trkpt>
      <trkpt lat="43.67579" lon="7.02166">
        <ele>323.1</ele>
        <time>2011-11-24T14:33:57Z</time>
      </trkpt>
      <trkpt lat="43.67576" lon="7.02176">
        <ele>322.5</ele>
        <time>2011-11-24T14:33:58Z</time>
      </trkpt>
      <trkpt lat="43.67574" lon="7.02188">
        <ele>321.5</ele>
        <time>2011-11-24T14:33:59Z</time>
      </trkpt>
      <trkpt lat="43.67571" lon="7.02199">
        <ele>321.8</ele>
        <time>2011-11-24T14:34:00Z</time>
      </trkpt>
      <trkpt lat="43.67568" lon="7.02211">
        <ele>321.6</ele>
        <time>2011-11-24T14:34:01Z</time>
      </trkpt>
      <trkpt lat="43.67565" lon="7.02222">
        <ele>321.4</ele>
        <time>2011-11-24T14:34:02Z</time>
      </trkpt>
      <trkpt lat="43.67562" lon="7.02234">
        <ele>321.1</ele>
        <time>2011-11-24T14:34:03Z</time>
      </trkpt>
      <trkpt lat="43.67559" lon="7.02246">
        <ele>321.3</ele>
        <time>2011-11-24T14:34:04Z</time>
      </trkpt>
      <trkpt lat="43.67555" lon="7.02256">
        <ele>321.2</ele>
        <time>2011-11-24T14:34:05Z</time>
      </trkpt>
      <trkpt lat="43.6755" lon="7.02264">
        <ele>321</ele>
        <time>2011-11-24T14:34:06Z</time>
      </trkpt>
      <trkpt lat="43.67545" lon="7.02273">
        <ele>321</ele>
        <time>2011-11-24T14:34:07Z</time>
      </trkpt>
      <trkpt lat="43.67542" lon="7.02281">
        <ele>320.7</ele>
        <time>2011-11-24T14:34:08Z</time>
      </trkpt>
      <trkpt lat="43.6754" lon="7.02291">
        <ele>320.5</ele>
        <time>2011-11-24T14:34:09Z</time>
      </trkpt>
      <trkpt lat="43.6754" lon="7.02301">
        <ele>320.6</ele>
        <time>2011-11-24T14:34:10Z</time>
      </trkpt>
      <trkpt lat="43.67543" lon="7.02313">
        <ele>320.9</ele>
        <time>2011-11-24T14:34:11Z</time>
      </trkpt>
      <trkpt lat="43.67545" lon="7.02323">
        <ele>320.9</ele>
        <time>2011-11-24T14:34:12Z</time>
      </trkpt>
      <trkpt lat="43.67547" lon="7.02333">
        <ele>321.3</ele>
        <time>2011-11-24T14:34:13Z</time>
      </trkpt>
      <trkpt lat="43.67548" lon="7.02345">
        <ele>321.3</ele>
        <time>2011-11-24T14:34:14Z</time>
      </trkpt>
      <trkpt lat="43.67548" lon="7.02354">
        <ele>321</ele>
        <time>2011-11-24T14:34:15Z</time>
      </trkpt>
      <trkpt lat="43.67549" lon="7.02366">
        <ele>321.1</ele>
        <time>2011-11-24T14:34:16Z</time>
      </trkpt>
      <trkpt lat="43.6755" lon="7.02378">
        <ele>321.1</ele>
        <time>2011-11-24T14:34:17Z</time>
      </trkpt>
      <trkpt lat="43.6755" lon="7.02389">
        <ele>320.8</ele>
        <time>2011-11-24T14:34:18Z</time>
      </trkpt>
      <trkpt lat="43.67548" lon="7.024">
        <ele>320.8</ele>
        <time>2011-11-24T14:34:19Z</time>
      </trkpt>
      <trkpt lat="43.67548" lon="7.02411">
        <ele>320.5</ele>
        <time>2011-11-24T14:34:20Z</time>
      </trkpt>
      <trkpt lat="43.67547" lon="7.0242">
        <ele>320.5</ele>
        <time>2011-11-24T14:34:21Z</time>
      </trkpt>
      <trkpt lat="43.67547" lon="7.02431">
        <ele>320.2</ele>
        <time>2011-11-24T14:34:22Z</time>
      </trkpt>
      <trkpt lat="43.67542" lon="7.0244">
        <ele>320</ele>
        <time>2011-11-24T14:34:23Z</time>
      </trkpt>
      <trkpt lat="43.6754" lon="7.02449">
        <ele>319.8</ele>
        <time>2011-11-24T14:34:24Z</time>
      </trkpt>
      <trkpt lat="43.6754" lon="7.02456">
        <ele>319.8</ele>
        <time>2011-11-24T14:34:25Z</time>
      </trkpt>
      <trkpt lat="43.67545" lon="7.02464">
        <ele>318.3</ele>
        <time>2011-11-24T14:34:27Z</time>
      </trkpt>
      <trkpt lat="43.67549" lon="7.0247">
        <ele>318.4</ele>
        <time>2011-11-24T14:34:28Z</time>
      </trkpt>
      <trkpt lat="43.67552" lon="7.02474">
        <ele>318.5</ele>
        <time>2011-11-24T14:34:29Z</time>
      </trkpt>
      <trkpt lat="43.67559" lon="7.02482">
        <ele>318.6</ele>
        <time>2011-11-24T14:34:30Z</time>
      </trkpt>
      <trkpt lat="43.67565" lon="7.02488">
        <ele>318.6</ele>
        <time>2011-11-24T14:34:31Z</time>
      </trkpt>
      <trkpt lat="43.6757" lon="7.02494">
        <ele>318.1</ele>
        <time>2011-11-24T14:34:32Z</time>
      </trkpt>
      <trkpt lat="43.67574" lon="7.02498">
        <ele>318.1</ele>
        <time>2011-11-24T14:34:33Z</time>
      </trkpt>
      <trkpt lat="43.67581" lon="7.02504">
        <ele>317.6</ele>
        <time>2011-11-24T14:34:34Z</time>
      </trkpt>
      <trkpt lat="43.67586" lon="7.0251">
        <ele>317.3</ele>
        <time>2011-11-24T14:34:35Z</time>
      </trkpt>
      <trkpt lat="43.67591" lon="7.02516">
        <ele>317.8</ele>
        <time>2011-11-24T14:34:36Z</time>
      </trkpt>
      <trkpt lat="43.67594" lon="7.02521">
        <ele>317.8</ele>
        <time>2011-11-24T14:34:37Z</time>
      </trkpt>
      <trkpt lat="43.67596" lon="7.0253">
        <ele>317.3</ele>
        <time>2011-11-24T14:34:39Z</time>
      </trkpt>
      <trkpt lat="43.67595" lon="7.02538">
        <ele>316.8</ele>
        <time>2011-11-24T14:34:41Z</time>
      </trkpt>
      <trkpt lat="43.67593" lon="7.0255">
        <ele>316.3</ele>
        <time>2011-11-24T14:34:43Z</time>
      </trkpt>
      <trkpt lat="43.67591" lon="7.02557">
        <ele>315.9</ele>
        <time>2011-11-24T14:34:44Z</time>
      </trkpt>
      <trkpt lat="43.67589" lon="7.02563">
        <ele>316.1</ele>
        <time>2011-11-24T14:34:45Z</time>
      </trkpt>
      <trkpt lat="43.67585" lon="7.02574">
        <ele>316.4</ele>
        <time>2011-11-24T14:34:47Z</time>
      </trkpt>
      <trkpt lat="43.67584" lon="7.02585">
        <ele>315.9</ele>
        <time>2011-11-24T14:34:48Z</time>
      </trkpt>
      <trkpt lat="43.67584" lon="7.02596">
        <ele>316</ele>
        <time>2011-11-24T14:34:49Z</time>
      </trkpt>
      <trkpt lat="43.67585" lon="7.02605">
        <ele>315.8</ele>
        <time>2011-11-24T14:34:50Z</time>
      </trkpt>
      <trkpt lat="43.67585" lon="7.02612">
        <ele>315.8</ele>
        <time>2011-11-24T14:34:51Z</time>
      </trkpt>
      <trkpt lat="43.67585" lon="7.0262">
        <ele>315.2</ele>
        <time>2011-11-24T14:34:52Z</time>
      </trkpt>
      <trkpt lat="43.67589" lon="7.02628">
        <ele>315</ele>
        <time>2011-11-24T14:34:53Z</time>
      </trkpt>
      <trkpt lat="43.67589" lon="7.02635">
        <ele>314.6</ele>
        <time>2011-11-24T14:34:54Z</time>
      </trkpt>
      <trkpt lat="43.67586" lon="7.02646">
        <ele>314.8</ele>
        <time>2011-11-24T14:34:56Z</time>
      </trkpt>
      <trkpt lat="43.67584" lon="7.02652">
        <ele>314.4</ele>
        <time>2011-11-24T14:34:57Z</time>
      </trkpt>
      <trkpt lat="43.67583" lon="7.02659">
        <ele>314</ele>
        <time>2011-11-24T14:34:58Z</time>
      </trkpt>
      <trkpt lat="43.6758" lon="7.02666">
        <ele>313.6</ele>
        <time>2011-11-24T14:34:59Z</time>
      </trkpt>
      <trkpt lat="43.6758" lon="7.02677">
        <ele>313.6</ele>
        <time>2011-11-24T14:35:00Z</time>
      </trkpt>
      <trkpt lat="43.67579" lon="7.02688">
        <ele>313.5</ele>
        <time>2011-11-24T14:35:01Z</time>
      </trkpt>
      <trkpt lat="43.67578" lon="7.027">
        <ele>312.9</ele>
        <time>2011-11-24T14:35:02Z</time>
      </trkpt>
      <trkpt lat="43.67577" lon="7.02712">
        <ele>313</ele>
        <time>2011-11-24T14:35:03Z</time>
      </trkpt>
      <trkpt lat="43.67575" lon="7.02724">
        <ele>312.8</ele>
        <time>2011-11-24T14:35:04Z</time>
      </trkpt>
      <trkpt lat="43.67573" lon="7.02737">
        <ele>312.8</ele>
        <time>2011-11-24T14:35:05Z</time>
      </trkpt>
      <trkpt lat="43.67571" lon="7.02752">
        <ele>311.2</ele>
        <time>2011-11-24T14:35:06Z</time>
      </trkpt>
      <trkpt lat="43.67568" lon="7.02764">
        <ele>310.6</ele>
        <time>2011-11-24T14:35:07Z</time>
      </trkpt>
      <trkpt lat="43.67566" lon="7.02776">
        <ele>309.4</ele>
        <time>2011-11-24T14:35:08Z</time>
      </trkpt>
      <trkpt lat="43.67566" lon="7.02788">
        <ele>308.7</ele>
        <time>2011-11-24T14:35:09Z</time>
      </trkpt>
      <trkpt lat="43.6757" lon="7.02808">
        <ele>302.8</ele>
        <time>2011-11-24T14:35:10Z</time>
      </trkpt>
      <trkpt lat="43.67568" lon="7.0282">
        <ele>301.5</ele>
        <time>2011-11-24T14:35:11Z</time>
      </trkpt>
      <trkpt lat="43.67566" lon="7.02834">
        <ele>301.5</ele>
        <time>2011-11-24T14:35:12Z</time>
      </trkpt>
      <trkpt lat="43.67563" lon="7.02849">
        <ele>300.5</ele>
        <time>2011-11-24T14:35:13Z</time>
      </trkpt>
      <trkpt lat="43.67558" lon="7.0286">
        <ele>300.4</ele>
        <time>2011-11-24T14:35:14Z</time>
      </trkpt>
      <trkpt lat="43.67555" lon="7.02872">
        <ele>298.5</ele>
        <time>2011-11-24T14:35:15Z</time>
      </trkpt>
      <trkpt lat="43.67552" lon="7.02885">
        <ele>297.1</ele>
        <time>2011-11-24T14:35:16Z</time>
      </trkpt>
      <trkpt lat="43.6755" lon="7.02898">
        <ele>295.4</ele>
        <time>2011-11-24T14:35:17Z</time>
      </trkpt>
      <trkpt lat="43.67548" lon="7.02911">
        <ele>295.3</ele>
        <time>2011-11-24T14:35:18Z</time>
      </trkpt>
      <trkpt lat="43.67547" lon="7.02922">
        <ele>295.4</ele>
        <time>2011-11-24T14:35:19Z</time>
      </trkpt>
      <trkpt lat="43.67547" lon="7.02932">
        <ele>295.2</ele>
        <time>2011-11-24T14:35:20Z</time>
      </trkpt>
      <trkpt lat="43.67545" lon="7.02943">
        <ele>294.7</ele>
        <time>2011-11-24T14:35:21Z</time>
      </trkpt>
      <trkpt lat="43.67544" lon="7.02953">
        <ele>295</ele>
        <time>2011-11-24T14:35:22Z</time>
      </trkpt>
      <trkpt lat="43.67541" lon="7.02962">
        <ele>295</ele>
        <time>2011-11-24T14:35:23Z</time>
      </trkpt>
      <trkpt lat="43.67539" lon="7.02973">
        <ele>295.3</ele>
        <time>2011-11-24T14:35:24Z</time>
      </trkpt>
      <trkpt lat="43.67536" lon="7.02984">
        <ele>295.3</ele>
        <time>2011-11-24T14:35:25Z</time>
      </trkpt>
      <trkpt lat="43.67533" lon="7.02996">
        <ele>295</ele>
        <time>2011-11-24T14:35:26Z</time>
      </trkpt>
      <trkpt lat="43.67529" lon="7.03008">
        <ele>295.4</ele>
        <time>2011-11-24T14:35:27Z</time>
      </trkpt>
      <trkpt lat="43.67524" lon="7.0302">
        <ele>295.4</ele>
        <time>2011-11-24T14:35:28Z</time>
      </trkpt>
      <trkpt lat="43.6752" lon="7.03033">
        <ele>294.2</ele>
        <time>2011-11-24T14:35:29Z</time>
      </trkpt>
      <trkpt lat="43.67517" lon="7.03045">
        <ele>293</ele>
        <time>2011-11-24T14:35:30Z</time>
      </trkpt>
      <trkpt lat="43.67513" lon="7.03059">
        <ele>293.7</ele>
        <time>2011-11-24T14:35:31Z</time>
      </trkpt>
      <trkpt lat="43.67511" lon="7.0307">
        <ele>293.5</ele>
        <time>2011-11-24T14:35:32Z</time>
      </trkpt>
      <trkpt lat="43.67508" lon="7.03085">
        <ele>293.5</ele>
        <time>2011-11-24T14:35:33Z</time>
      </trkpt>
      <trkpt lat="43.67505" lon="7.03098">
        <ele>293.2</ele>
        <time>2011-11-24T14:35:34Z</time>
      </trkpt>
      <trkpt lat="43.67502" lon="7.03113">
        <ele>292.7</ele>
        <time>2011-11-24T14:35:35Z</time>
      </trkpt>
      <trkpt lat="43.675" lon="7.03124">
        <ele>292.4</ele>
        <time>2011-11-24T14:35:36Z</time>
      </trkpt>
      <trkpt lat="43.67497" lon="7.03136">
        <ele>292</ele>
        <time>2011-11-24T14:35:37Z</time>
      </trkpt>
      <trkpt lat="43.67493" lon="7.03147">
        <ele>291.6</ele>
        <time>2011-11-24T14:35:38Z</time>
      </trkpt>
      <trkpt lat="43.67491" lon="7.03159">
        <ele>290.5</ele>
        <time>2011-11-24T14:35:39Z</time>
      </trkpt>
      <trkpt lat="43.67488" lon="7.0317">
        <ele>290.4</ele>
        <time>2011-11-24T14:35:40Z</time>
      </trkpt>
      <trkpt lat="43.67485" lon="7.0318">
        <ele>289.9</ele>
        <time>2011-11-24T14:35:41Z</time>
      </trkpt>
      <trkpt lat="43.67483" lon="7.0319">
        <ele>289.7</ele>
        <time>2011-11-24T14:35:42Z</time>
      </trkpt>
      <trkpt lat="43.67479" lon="7.03201">
        <ele>289.1</ele>
        <time>2011-11-24T14:35:43Z</time>
      </trkpt>
      <trkpt lat="43.67476" lon="7.03213">
        <ele>289.2</ele>
        <time>2011-11-24T14:35:44Z</time>
      </trkpt>
      <trkpt lat="43.67473" lon="7.03224">
        <ele>288.7</ele>
        <time>2011-11-24T14:35:45Z</time>
      </trkpt>
      <trkpt lat="43.67471" lon="7.03235">
        <ele>288.8</ele>
        <time>2011-11-24T14:35:46Z</time>
      </trkpt>
      <trkpt lat="43.67468" lon="7.03243">
        <ele>288.2</ele>
        <time>2011-11-24T14:35:47Z</time>
      </trkpt>
      <trkpt lat="43.67466" lon="7.03251">
        <ele>285.6</ele>
        <time>2011-11-24T14:35:49Z</time>
      </trkpt>
      <trkpt lat="43.67468" lon="7.03256">
        <ele>285.3</ele>
        <time>2011-11-24T14:35:50Z</time>
      </trkpt>
      <trkpt lat="43.67475" lon="7.0326">
        <ele>286.5</ele>
        <time>2011-11-24T14:35:51Z</time>
      </trkpt>
      <trkpt lat="43.67481" lon="7.03263">
        <ele>285.8</ele>
        <time>2011-11-24T14:35:52Z</time>
      </trkpt>
      <trkpt lat="43.67487" lon="7.03269">
        <ele>286</ele>
        <time>2011-11-24T14:35:53Z</time>
      </trkpt>
      <trkpt lat="43.67493" lon="7.03271">
        <ele>285.2</ele>
        <time>2011-11-24T14:35:54Z</time>
      </trkpt>
      <trkpt lat="43.67498" lon="7.03273">
        <ele>285</ele>
        <time>2011-11-24T14:35:55Z</time>
      </trkpt>
      <trkpt lat="43.67504" lon="7.03275">
        <ele>284.9</ele>
        <time>2011-11-24T14:35:56Z</time>
      </trkpt>
      <trkpt lat="43.67508" lon="7.03277">
        <ele>284.5</ele>
        <time>2011-11-24T14:35:57Z</time>
      </trkpt>
      <trkpt lat="43.67515" lon="7.03278">
        <ele>284.8</ele>
        <time>2011-11-24T14:35:58Z</time>
      </trkpt>
      <trkpt lat="43.6752" lon="7.03279">
        <ele>285.2</ele>
        <time>2011-11-24T14:35:59Z</time>
      </trkpt>
      <trkpt lat="43.67526" lon="7.03281">
        <ele>285.1</ele>
        <time>2011-11-24T14:36:00Z</time>
      </trkpt>
      <trkpt lat="43.67531" lon="7.03283">
        <ele>285</ele>
        <time>2011-11-24T14:36:01Z</time>
      </trkpt>
      <trkpt lat="43.67537" lon="7.03285">
        <ele>285.7</ele>
        <time>2011-11-24T14:36:02Z</time>
      </trkpt>
      <trkpt lat="43.67542" lon="7.0329">
        <ele>285.7</ele>
        <time>2011-11-24T14:36:03Z</time>
      </trkpt>
      <trkpt lat="43.67548" lon="7.03294">
        <ele>285.4</ele>
        <time>2011-11-24T14:36:04Z</time>
      </trkpt>
      <trkpt lat="43.67553" lon="7.03298">
        <ele>285.1</ele>
        <time>2011-11-24T14:36:05Z</time>
      </trkpt>
      <trkpt lat="43.67558" lon="7.03304">
        <ele>284.7</ele>
        <time>2011-11-24T14:36:06Z</time>
      </trkpt>
      <trkpt lat="43.67562" lon="7.0331">
        <ele>282.3</ele>
        <time>2011-11-24T14:36:07Z</time>
      </trkpt>
      <trkpt lat="43.67566" lon="7.03315">
        <ele>281.8</ele>
        <time>2011-11-24T14:36:08Z</time>
      </trkpt>
      <trkpt lat="43.67571" lon="7.03321">
        <ele>281</ele>
        <time>2011-11-24T14:36:09Z</time>
      </trkpt>
      <trkpt lat="43.67576" lon="7.03326">
        <ele>279.9</ele>
        <time>2011-11-24T14:36:10Z</time>
      </trkpt>
      <trkpt lat="43.67581" lon="7.0333">
        <ele>279.2</ele>
        <time>2011-11-24T14:36:11Z</time>
      </trkpt>
      <trkpt lat="43.67586" lon="7.03334">
        <ele>278.6</ele>
        <time>2011-11-24T14:36:12Z</time>
      </trkpt>
      <trkpt lat="43.67592" lon="7.0334">
        <ele>277.6</ele>
        <time>2011-11-24T14:36:13Z</time>
      </trkpt>
      <trkpt lat="43.67598" lon="7.03346">
        <ele>277.5</ele>
        <time>2011-11-24T14:36:14Z</time>
      </trkpt>
      <trkpt lat="43.67604" lon="7.03351">
        <ele>277.3</ele>
        <time>2011-11-24T14:36:15Z</time>
      </trkpt>
      <trkpt lat="43.67609" lon="7.03358">
        <ele>277.7</ele>
        <time>2011-11-24T14:36:16Z</time>
      </trkpt>
      <trkpt lat="43.67615" lon="7.03364">
        <ele>277.5</ele>
        <time>2011-11-24T14:36:17Z</time>
      </trkpt>
      <trkpt lat="43.67622" lon="7.0337">
        <ele>276.9</ele>
        <time>2011-11-24T14:36:18Z</time>
      </trkpt>
      <trkpt lat="43.67628" lon="7.03376">
        <ele>276.6</ele>
        <time>2011-11-24T14:36:19Z</time>
      </trkpt>
      <trkpt lat="43.67633" lon="7.03382">
        <ele>276</ele>
        <time>2011-11-24T14:36:20Z</time>
      </trkpt>
      <trkpt lat="43.67641" lon="7.03385">
        <ele>275.3</ele>
        <time>2011-11-24T14:36:21Z</time>
      </trkpt>
      <trkpt lat="43.67648" lon="7.03388">
        <ele>275.1</ele>
        <time>2011-11-24T14:36:22Z</time>
      </trkpt>
      <trkpt lat="43.67654" lon="7.03392">
        <ele>275.2</ele>
        <time>2011-11-24T14:36:23Z</time>
      </trkpt>
      <trkpt lat="43.67661" lon="7.03395">
        <ele>275.2</ele>
        <time>2011-11-24T14:36:24Z</time>
      </trkpt>
      <trkpt lat="43.67666" lon="7.03398">
        <ele>275.3</ele>
        <time>2011-11-24T14:36:25Z</time>
      </trkpt>
      <trkpt lat="43.67672" lon="7.03401">
        <ele>276.7</ele>
        <time>2011-11-24T14:36:26Z</time>
      </trkpt>
      <trkpt lat="43.67677" lon="7.03404">
        <ele>276.6</ele>
        <time>2011-11-24T14:36:27Z</time>
      </trkpt>
      <trkpt lat="43.67683" lon="7.03407">
        <ele>276.1</ele>
        <time>2011-11-24T14:36:28Z</time>
      </trkpt>
      <trkpt lat="43.67688" lon="7.03411">
        <ele>275.7</ele>
        <time>2011-11-24T14:36:29Z</time>
      </trkpt>
      <trkpt lat="43.67692" lon="7.03416">
        <ele>275.5</ele>
        <time>2011-11-24T14:36:30Z</time>
      </trkpt>
      <trkpt lat="43.67696" lon="7.0342">
        <ele>275.4</ele>
        <time>2011-11-24T14:36:31Z</time>
      </trkpt>
      <trkpt lat="43.67702" lon="7.03425">
        <ele>275</ele>
        <time>2011-11-24T14:36:32Z</time>
      </trkpt>
      <trkpt lat="43.67707" lon="7.03429">
        <ele>274.3</ele>
        <time>2011-11-24T14:36:33Z</time>
      </trkpt>
      <trkpt lat="43.67712" lon="7.03434">
        <ele>274.3</ele>
        <time>2011-11-24T14:36:34Z</time>
      </trkpt>
      <trkpt lat="43.67717" lon="7.03439">
        <ele>272.6</ele>
        <time>2011-11-24T14:36:35Z</time>
      </trkpt>
      <trkpt lat="43.67721" lon="7.03443">
        <ele>272.1</ele>
        <time>2011-11-24T14:36:36Z</time>
      </trkpt>
      <trkpt lat="43.67725" lon="7.03448">
        <ele>271.9</ele>
        <time>2011-11-24T14:36:37Z</time>
      </trkpt>
      <trkpt lat="43.67728" lon="7.03453">
        <ele>271.9</ele>
        <time>2011-11-24T14:36:38Z</time>
      </trkpt>
      <trkpt lat="43.67731" lon="7.03458">
        <ele>271.8</ele>
        <time>2011-11-24T14:36:39Z</time>
      </trkpt>
      <trkpt lat="43.67736" lon="7.03468">
        <ele>273.2</ele>
        <time>2011-11-24T14:36:41Z</time>
      </trkpt>
      <trkpt lat="43.6774" lon="7.03474">
        <ele>272.5</ele>
        <time>2011-11-24T14:36:42Z</time>
      </trkpt>
      <trkpt lat="43.67746" lon="7.0348">
        <ele>270.9</ele>
        <time>2011-11-24T14:36:44Z</time>
      </trkpt>
      <trkpt lat="43.67745" lon="7.03486">
        <ele>272.1</ele>
        <time>2011-11-24T14:37:27Z</time>
      </trkpt>
      <trkpt lat="43.67729" lon="7.03505">
        <ele>270.8</ele>
        <time>2011-11-24T14:37:40Z</time>
      </trkpt>
      <trkpt lat="43.67739" lon="7.03499">
        <ele>269.6</ele>
        <time>2011-11-24T14:37:41Z</time>
      </trkpt>
    </trkseg>
  </trk>
</gpx>